<?xml version="1.0" encoding="UTF-8" standalone="no" ?>
<gpx xmlns="http://www.topografix.com/GPX/1/1" xmlns:xsi="http://www.w3.org/2001/XMLSchema-instance" xsi:schemaLocation="http://www.topografix.com/GPX/1/1 http://www.topografix.com/GPX/1/1/gpx.xsd" version="1.1" creator="VisuGPX - https://www.visugpx.com">
  <metadata>
    <name>2 spéciales sur Mandeure</name>
    <desc><![CDATA[2 spéciales sur Mandeure. Super temps, super terrain]]></desc>
  </metadata>
  <wpt lat="47.49126" lon="6.76417">
    <ele>317</ele>
    <name><![CDATA[Point de cheminement 1]]></name>
    <desc><![CDATA[]]></desc>
  </wpt>
  <wpt lat="47.48673" lon="6.77519">
    <ele>338</ele>
    <name><![CDATA[Point de cheminement 2]]></name>
    <desc><![CDATA[]]></desc>
  </wpt>
  <wpt lat="47.47563" lon="6.78668">
    <ele>359</ele>
    <name><![CDATA[Point de cheminement 3]]></name>
    <desc><![CDATA[]]></desc>
  </wpt>
  <wpt lat="47.45965" lon="6.78439">
    <ele>394</ele>
    <name><![CDATA[Point de cheminement 4]]></name>
    <desc><![CDATA[]]></desc>
  </wpt>
  <wpt lat="47.44176" lon="6.79775">
    <ele>434</ele>
    <name><![CDATA[Point de cheminement 5]]></name>
    <desc><![CDATA[]]></desc>
  </wpt>
  <wpt lat="47.43082" lon="6.79573">
    <ele>479</ele>
    <name><![CDATA[Point de cheminement 6]]></name>
    <desc><![CDATA[]]></desc>
  </wpt>
  <wpt lat="47.43543" lon="6.8174">
    <ele>392</ele>
    <name><![CDATA[Point de cheminement 7]]></name>
    <desc><![CDATA[]]></desc>
  </wpt>
  <wpt lat="47.4255" lon="6.80305">
    <ele>481</ele>
    <name><![CDATA[Point de cheminement 8]]></name>
    <desc><![CDATA[]]></desc>
  </wpt>
  <wpt lat="47.42057" lon="6.79623">
    <ele>516</ele>
    <name><![CDATA[Point de cheminement 9]]></name>
    <desc><![CDATA[]]></desc>
  </wpt>
  <wpt lat="47.4176" lon="6.79253">
    <ele>380</ele>
    <name><![CDATA[Point de cheminement 10]]></name>
    <desc><![CDATA[]]></desc>
  </wpt>
  <wpt lat="47.45443" lon="6.78801">
    <ele>333</ele>
    <name><![CDATA[Point de cheminement 11]]></name>
    <desc><![CDATA[]]></desc>
  </wpt>
  <wpt lat="47.46721" lon="6.78681">
    <ele>374</ele>
    <name><![CDATA[Point de cheminement 12]]></name>
    <desc><![CDATA[]]></desc>
  </wpt>
  <wpt lat="47.48659" lon="6.7712">
    <ele>312</ele>
    <name><![CDATA[Point de cheminement 13]]></name>
    <desc><![CDATA[]]></desc>
  </wpt>
  <wpt lat="47.51587" lon="6.77724">
    <ele>380</ele>
    <name><![CDATA[Point de cheminement 14]]></name>
    <desc><![CDATA[]]></desc>
  </wpt>
  <trk>
    <name><![CDATA[Rue Antoine Coysevox]]></name>
    <desc><![CDATA[]]></desc>
    <trkseg>
      <trkpt lat="47.51794" lon="6.77468">
        <ele>388</ele>
        <time>2016-10-09T07:20:11.000Z</time>
      </trkpt>
      <trkpt lat="47.51794" lon="6.77472">
        <ele>388</ele>
        <time>2016-10-09T07:20:33.000Z</time>
      </trkpt>
      <trkpt lat="47.51793" lon="6.77475">
        <ele>388</ele>
        <time>2016-10-09T07:20:34.000Z</time>
      </trkpt>
      <trkpt lat="47.51793" lon="6.77481">
        <ele>388</ele>
        <time>2016-10-09T07:20:37.000Z</time>
      </trkpt>
      <trkpt lat="47.51793" lon="6.77482">
        <ele>388</ele>
        <time>2016-10-09T07:20:38.000Z</time>
      </trkpt>
      <trkpt lat="47.51796" lon="6.77485">
        <ele>388</ele>
        <time>2016-10-09T07:20:45.000Z</time>
      </trkpt>
      <trkpt lat="47.51798" lon="6.77485">
        <ele>388</ele>
        <time>2016-10-09T07:20:46.000Z</time>
      </trkpt>
      <trkpt lat="47.518" lon="6.7748">
        <ele>388</ele>
        <time>2016-10-09T07:20:57.000Z</time>
      </trkpt>
      <trkpt lat="47.51801" lon="6.77476">
        <ele>388</ele>
        <time>2016-10-09T07:20:58.000Z</time>
      </trkpt>
      <trkpt lat="47.51803" lon="6.77481">
        <ele>388</ele>
        <time>2016-10-09T07:20:59.000Z</time>
      </trkpt>
      <trkpt lat="47.51806" lon="6.77486">
        <ele>388</ele>
        <time>2016-10-09T07:21:00.000Z</time>
      </trkpt>
      <trkpt lat="47.51804" lon="6.77489">
        <ele>388</ele>
        <time>2016-10-09T07:21:01.000Z</time>
      </trkpt>
      <trkpt lat="47.51802" lon="6.77494">
        <ele>388</ele>
        <time>2016-10-09T07:21:03.000Z</time>
      </trkpt>
      <trkpt lat="47.51799" lon="6.77495">
        <ele>388</ele>
        <time>2016-10-09T07:21:04.000Z</time>
      </trkpt>
      <trkpt lat="47.51795" lon="6.77494">
        <ele>388</ele>
        <time>2016-10-09T07:21:05.000Z</time>
      </trkpt>
      <trkpt lat="47.51792" lon="6.77492">
        <ele>388</ele>
        <time>2016-10-09T07:21:06.000Z</time>
      </trkpt>
      <trkpt lat="47.51787" lon="6.7749">
        <ele>388</ele>
        <time>2016-10-09T07:21:07.000Z</time>
      </trkpt>
      <trkpt lat="47.51783" lon="6.77487">
        <ele>388</ele>
        <time>2016-10-09T07:21:08.000Z</time>
      </trkpt>
      <trkpt lat="47.51779" lon="6.77486">
        <ele>388</ele>
        <time>2016-10-09T07:21:09.000Z</time>
      </trkpt>
      <trkpt lat="47.51775" lon="6.77485">
        <ele>388</ele>
        <time>2016-10-09T07:21:10.000Z</time>
      </trkpt>
      <trkpt lat="47.51771" lon="6.77484">
        <ele>388</ele>
        <time>2016-10-09T07:21:11.000Z</time>
      </trkpt>
      <trkpt lat="47.51767" lon="6.77484">
        <ele>389</ele>
        <time>2016-10-09T07:21:12.000Z</time>
      </trkpt>
      <trkpt lat="47.51762" lon="6.77483">
        <ele>389</ele>
        <time>2016-10-09T07:21:13.000Z</time>
      </trkpt>
      <trkpt lat="47.51758" lon="6.77482">
        <ele>389</ele>
        <time>2016-10-09T07:21:14.000Z</time>
      </trkpt>
      <trkpt lat="47.51754" lon="6.77482">
        <ele>389</ele>
        <time>2016-10-09T07:21:15.000Z</time>
      </trkpt>
      <trkpt lat="47.5175" lon="6.77481">
        <ele>389</ele>
        <time>2016-10-09T07:21:16.000Z</time>
      </trkpt>
      <trkpt lat="47.51746" lon="6.7748">
        <ele>389</ele>
        <time>2016-10-09T07:21:17.000Z</time>
      </trkpt>
      <trkpt lat="47.51741" lon="6.7748">
        <ele>389</ele>
        <time>2016-10-09T07:21:18.000Z</time>
      </trkpt>
      <trkpt lat="47.51737" lon="6.77481">
        <ele>389</ele>
        <time>2016-10-09T07:21:19.000Z</time>
      </trkpt>
      <trkpt lat="47.51735" lon="6.7749">
        <ele>389</ele>
        <time>2016-10-09T07:21:20.000Z</time>
      </trkpt>
      <trkpt lat="47.51733" lon="6.77495">
        <ele>389</ele>
        <time>2016-10-09T07:21:21.000Z</time>
      </trkpt>
      <trkpt lat="47.5173" lon="6.77501">
        <ele>390</ele>
        <time>2016-10-09T07:21:22.000Z</time>
      </trkpt>
      <trkpt lat="47.51728" lon="6.77506">
        <ele>390</ele>
        <time>2016-10-09T07:21:23.000Z</time>
      </trkpt>
      <trkpt lat="47.51726" lon="6.77512">
        <ele>390</ele>
        <time>2016-10-09T07:21:24.000Z</time>
      </trkpt>
      <trkpt lat="47.51725" lon="6.77518">
        <ele>390</ele>
        <time>2016-10-09T07:21:25.000Z</time>
      </trkpt>
      <trkpt lat="47.51722" lon="6.77524">
        <ele>390</ele>
        <time>2016-10-09T07:21:26.000Z</time>
      </trkpt>
      <trkpt lat="47.5172" lon="6.77531">
        <ele>390</ele>
        <time>2016-10-09T07:21:27.000Z</time>
      </trkpt>
      <trkpt lat="47.5172" lon="6.77538">
        <ele>390</ele>
        <time>2016-10-09T07:21:28.000Z</time>
      </trkpt>
      <trkpt lat="47.51719" lon="6.77545">
        <ele>390</ele>
        <time>2016-10-09T07:21:29.000Z</time>
      </trkpt>
      <trkpt lat="47.51712" lon="6.77548">
        <ele>390</ele>
        <time>2016-10-09T07:21:30.000Z</time>
      </trkpt>
      <trkpt lat="47.51707" lon="6.77549">
        <ele>390</ele>
        <time>2016-10-09T07:21:31.000Z</time>
      </trkpt>
      <trkpt lat="47.51702" lon="6.77542">
        <ele>390</ele>
        <time>2016-10-09T07:21:32.000Z</time>
      </trkpt>
      <trkpt lat="47.51697" lon="6.77536">
        <ele>390</ele>
        <time>2016-10-09T07:21:33.000Z</time>
      </trkpt>
      <trkpt lat="47.51692" lon="6.77531">
        <ele>390</ele>
        <time>2016-10-09T07:21:34.000Z</time>
      </trkpt>
      <trkpt lat="47.51687" lon="6.77526">
        <ele>390</ele>
        <time>2016-10-09T07:21:35.000Z</time>
      </trkpt>
      <trkpt lat="47.51682" lon="6.77519">
        <ele>390</ele>
        <time>2016-10-09T07:21:36.000Z</time>
      </trkpt>
      <trkpt lat="47.51677" lon="6.77513">
        <ele>389</ele>
        <time>2016-10-09T07:21:37.000Z</time>
      </trkpt>
      <trkpt lat="47.51671" lon="6.77508">
        <ele>389</ele>
        <time>2016-10-09T07:21:38.000Z</time>
      </trkpt>
      <trkpt lat="47.51666" lon="6.77501">
        <ele>389</ele>
        <time>2016-10-09T07:21:39.000Z</time>
      </trkpt>
      <trkpt lat="47.51661" lon="6.77495">
        <ele>388</ele>
        <time>2016-10-09T07:21:40.000Z</time>
      </trkpt>
      <trkpt lat="47.51655" lon="6.77489">
        <ele>387</ele>
        <time>2016-10-09T07:21:41.000Z</time>
      </trkpt>
      <trkpt lat="47.5165" lon="6.77483">
        <ele>387</ele>
        <time>2016-10-09T07:21:42.000Z</time>
      </trkpt>
      <trkpt lat="47.51645" lon="6.77476">
        <ele>387</ele>
        <time>2016-10-09T07:21:43.000Z</time>
      </trkpt>
      <trkpt lat="47.5164" lon="6.77469">
        <ele>386</ele>
        <time>2016-10-09T07:21:44.000Z</time>
      </trkpt>
      <trkpt lat="47.51634" lon="6.77463">
        <ele>386</ele>
        <time>2016-10-09T07:21:45.000Z</time>
      </trkpt>
      <trkpt lat="47.51628" lon="6.77457">
        <ele>386</ele>
        <time>2016-10-09T07:21:46.000Z</time>
      </trkpt>
      <trkpt lat="47.51623" lon="6.7745">
        <ele>386</ele>
        <time>2016-10-09T07:21:47.000Z</time>
      </trkpt>
      <trkpt lat="47.51617" lon="6.77443">
        <ele>385</ele>
        <time>2016-10-09T07:21:48.000Z</time>
      </trkpt>
      <trkpt lat="47.51612" lon="6.77437">
        <ele>385</ele>
        <time>2016-10-09T07:21:49.000Z</time>
      </trkpt>
      <trkpt lat="47.51606" lon="6.7743">
        <ele>385</ele>
        <time>2016-10-09T07:21:50.000Z</time>
      </trkpt>
      <trkpt lat="47.516" lon="6.77423">
        <ele>384</ele>
        <time>2016-10-09T07:21:51.000Z</time>
      </trkpt>
      <trkpt lat="47.51595" lon="6.77416">
        <ele>383</ele>
        <time>2016-10-09T07:21:52.000Z</time>
      </trkpt>
      <trkpt lat="47.51589" lon="6.77409">
        <ele>383</ele>
        <time>2016-10-09T07:21:53.000Z</time>
      </trkpt>
      <trkpt lat="47.51582" lon="6.77401">
        <ele>382</ele>
        <time>2016-10-09T07:21:54.000Z</time>
      </trkpt>
      <trkpt lat="47.51575" lon="6.77394">
        <ele>381</ele>
        <time>2016-10-09T07:21:55.000Z</time>
      </trkpt>
      <trkpt lat="47.51568" lon="6.77386">
        <ele>381</ele>
        <time>2016-10-09T07:21:56.000Z</time>
      </trkpt>
      <trkpt lat="47.51562" lon="6.77379">
        <ele>381</ele>
        <time>2016-10-09T07:21:57.000Z</time>
      </trkpt>
      <trkpt lat="47.51554" lon="6.77369">
        <ele>381</ele>
        <time>2016-10-09T07:21:58.000Z</time>
      </trkpt>
      <trkpt lat="47.51547" lon="6.7736">
        <ele>380</ele>
        <time>2016-10-09T07:21:59.000Z</time>
      </trkpt>
      <trkpt lat="47.51539" lon="6.77351">
        <ele>380</ele>
        <time>2016-10-09T07:22:00.000Z</time>
      </trkpt>
      <trkpt lat="47.51532" lon="6.77342">
        <ele>380</ele>
        <time>2016-10-09T07:22:01.000Z</time>
      </trkpt>
      <trkpt lat="47.51524" lon="6.77333">
        <ele>380</ele>
        <time>2016-10-09T07:22:02.000Z</time>
      </trkpt>
      <trkpt lat="47.51516" lon="6.77324">
        <ele>378</ele>
        <time>2016-10-09T07:22:03.000Z</time>
      </trkpt>
      <trkpt lat="47.51508" lon="6.77314">
        <ele>378</ele>
        <time>2016-10-09T07:22:04.000Z</time>
      </trkpt>
      <trkpt lat="47.51502" lon="6.77302">
        <ele>378</ele>
        <time>2016-10-09T07:22:05.000Z</time>
      </trkpt>
      <trkpt lat="47.51497" lon="6.77288">
        <ele>377</ele>
        <time>2016-10-09T07:22:06.000Z</time>
      </trkpt>
      <trkpt lat="47.51494" lon="6.77274">
        <ele>377</ele>
        <time>2016-10-09T07:22:07.000Z</time>
      </trkpt>
      <trkpt lat="47.51492" lon="6.77261">
        <ele>376</ele>
        <time>2016-10-09T07:22:08.000Z</time>
      </trkpt>
      <trkpt lat="47.51491" lon="6.77247">
        <ele>376</ele>
        <time>2016-10-09T07:22:09.000Z</time>
      </trkpt>
      <trkpt lat="47.51491" lon="6.77234">
        <ele>375</ele>
        <time>2016-10-09T07:22:10.000Z</time>
      </trkpt>
      <trkpt lat="47.5149" lon="6.77221">
        <ele>375</ele>
        <time>2016-10-09T07:22:11.000Z</time>
      </trkpt>
      <trkpt lat="47.51486" lon="6.77209">
        <ele>375</ele>
        <time>2016-10-09T07:22:12.000Z</time>
      </trkpt>
      <trkpt lat="47.5148" lon="6.77202">
        <ele>375</ele>
        <time>2016-10-09T07:22:13.000Z</time>
      </trkpt>
      <trkpt lat="47.51472" lon="6.772">
        <ele>375</ele>
        <time>2016-10-09T07:22:14.000Z</time>
      </trkpt>
      <trkpt lat="47.51464" lon="6.77202">
        <ele>375</ele>
        <time>2016-10-09T07:22:15.000Z</time>
      </trkpt>
      <trkpt lat="47.51455" lon="6.77205">
        <ele>375</ele>
        <time>2016-10-09T07:22:16.000Z</time>
      </trkpt>
      <trkpt lat="47.51447" lon="6.7721">
        <ele>375</ele>
        <time>2016-10-09T07:22:17.000Z</time>
      </trkpt>
      <trkpt lat="47.51439" lon="6.77214">
        <ele>375</ele>
        <time>2016-10-09T07:22:18.000Z</time>
      </trkpt>
      <trkpt lat="47.51431" lon="6.77218">
        <ele>375</ele>
        <time>2016-10-09T07:22:19.000Z</time>
      </trkpt>
      <trkpt lat="47.51423" lon="6.77223">
        <ele>375</ele>
        <time>2016-10-09T07:22:20.000Z</time>
      </trkpt>
      <trkpt lat="47.51415" lon="6.77227">
        <ele>376</ele>
        <time>2016-10-09T07:22:21.000Z</time>
      </trkpt>
      <trkpt lat="47.51408" lon="6.7723">
        <ele>376</ele>
        <time>2016-10-09T07:22:22.000Z</time>
      </trkpt>
      <trkpt lat="47.51401" lon="6.77234">
        <ele>376</ele>
        <time>2016-10-09T07:22:23.000Z</time>
      </trkpt>
      <trkpt lat="47.51395" lon="6.77237">
        <ele>376</ele>
        <time>2016-10-09T07:22:24.000Z</time>
      </trkpt>
      <trkpt lat="47.5139" lon="6.77241">
        <ele>376</ele>
        <time>2016-10-09T07:22:25.000Z</time>
      </trkpt>
      <trkpt lat="47.51384" lon="6.77244">
        <ele>376</ele>
        <time>2016-10-09T07:22:26.000Z</time>
      </trkpt>
      <trkpt lat="47.51379" lon="6.77247">
        <ele>376</ele>
        <time>2016-10-09T07:22:27.000Z</time>
      </trkpt>
      <trkpt lat="47.51374" lon="6.77251">
        <ele>377</ele>
        <time>2016-10-09T07:22:28.000Z</time>
      </trkpt>
      <trkpt lat="47.51369" lon="6.77255">
        <ele>378</ele>
        <time>2016-10-09T07:22:29.000Z</time>
      </trkpt>
      <trkpt lat="47.51365" lon="6.77259">
        <ele>378</ele>
        <time>2016-10-09T07:22:30.000Z</time>
      </trkpt>
      <trkpt lat="47.51361" lon="6.77262">
        <ele>378</ele>
        <time>2016-10-09T07:22:31.000Z</time>
      </trkpt>
      <trkpt lat="47.51357" lon="6.77266">
        <ele>378</ele>
        <time>2016-10-09T07:22:32.000Z</time>
      </trkpt>
      <trkpt lat="47.51354" lon="6.7727">
        <ele>378</ele>
        <time>2016-10-09T07:22:33.000Z</time>
      </trkpt>
      <trkpt lat="47.5135" lon="6.77272">
        <ele>378</ele>
        <time>2016-10-09T07:22:34.000Z</time>
      </trkpt>
      <trkpt lat="47.51346" lon="6.77275">
        <ele>378</ele>
        <time>2016-10-09T07:22:35.000Z</time>
      </trkpt>
      <trkpt lat="47.51343" lon="6.77278">
        <ele>378</ele>
        <time>2016-10-09T07:22:36.000Z</time>
      </trkpt>
      <trkpt lat="47.51339" lon="6.7728">
        <ele>378</ele>
        <time>2016-10-09T07:22:37.000Z</time>
      </trkpt>
      <trkpt lat="47.51334" lon="6.7728">
        <ele>378</ele>
        <time>2016-10-09T07:22:38.000Z</time>
      </trkpt>
      <trkpt lat="47.5133" lon="6.7728">
        <ele>377</ele>
        <time>2016-10-09T07:22:39.000Z</time>
      </trkpt>
      <trkpt lat="47.51326" lon="6.7728">
        <ele>377</ele>
        <time>2016-10-09T07:22:40.000Z</time>
      </trkpt>
      <trkpt lat="47.51322" lon="6.7728">
        <ele>377</ele>
        <time>2016-10-09T07:22:41.000Z</time>
      </trkpt>
      <trkpt lat="47.51318" lon="6.7728">
        <ele>377</ele>
        <time>2016-10-09T07:22:42.000Z</time>
      </trkpt>
      <trkpt lat="47.51314" lon="6.77278">
        <ele>377</ele>
        <time>2016-10-09T07:22:43.000Z</time>
      </trkpt>
      <trkpt lat="47.5131" lon="6.77277">
        <ele>377</ele>
        <time>2016-10-09T07:22:44.000Z</time>
      </trkpt>
      <trkpt lat="47.51306" lon="6.77276">
        <ele>377</ele>
        <time>2016-10-09T07:22:45.000Z</time>
      </trkpt>
      <trkpt lat="47.51302" lon="6.77274">
        <ele>377</ele>
        <time>2016-10-09T07:22:46.000Z</time>
      </trkpt>
      <trkpt lat="47.51298" lon="6.77272">
        <ele>377</ele>
        <time>2016-10-09T07:22:47.000Z</time>
      </trkpt>
      <trkpt lat="47.51294" lon="6.7727">
        <ele>377</ele>
        <time>2016-10-09T07:22:48.000Z</time>
      </trkpt>
      <trkpt lat="47.51291" lon="6.77268">
        <ele>377</ele>
        <time>2016-10-09T07:22:49.000Z</time>
      </trkpt>
      <trkpt lat="47.51287" lon="6.77266">
        <ele>377</ele>
        <time>2016-10-09T07:22:50.000Z</time>
      </trkpt>
      <trkpt lat="47.51283" lon="6.77264">
        <ele>377</ele>
        <time>2016-10-09T07:22:51.000Z</time>
      </trkpt>
      <trkpt lat="47.51278" lon="6.77259">
        <ele>377</ele>
        <time>2016-10-09T07:22:52.000Z</time>
      </trkpt>
      <trkpt lat="47.51274" lon="6.77256">
        <ele>377</ele>
        <time>2016-10-09T07:22:53.000Z</time>
      </trkpt>
      <trkpt lat="47.5127" lon="6.77252">
        <ele>378</ele>
        <time>2016-10-09T07:22:54.000Z</time>
      </trkpt>
      <trkpt lat="47.51266" lon="6.77247">
        <ele>378</ele>
        <time>2016-10-09T07:22:55.000Z</time>
      </trkpt>
      <trkpt lat="47.51262" lon="6.77242">
        <ele>378</ele>
        <time>2016-10-09T07:22:56.000Z</time>
      </trkpt>
      <trkpt lat="47.51258" lon="6.77236">
        <ele>378</ele>
        <time>2016-10-09T07:22:57.000Z</time>
      </trkpt>
      <trkpt lat="47.51254" lon="6.77229">
        <ele>378</ele>
        <time>2016-10-09T07:22:58.000Z</time>
      </trkpt>
      <trkpt lat="47.51251" lon="6.77223">
        <ele>378</ele>
        <time>2016-10-09T07:22:59.000Z</time>
      </trkpt>
      <trkpt lat="47.51248" lon="6.77214">
        <ele>376</ele>
        <time>2016-10-09T07:23:00.000Z</time>
      </trkpt>
      <trkpt lat="47.51244" lon="6.77208">
        <ele>376</ele>
        <time>2016-10-09T07:23:01.000Z</time>
      </trkpt>
      <trkpt lat="47.5124" lon="6.77201">
        <ele>376</ele>
        <time>2016-10-09T07:23:02.000Z</time>
      </trkpt>
      <trkpt lat="47.51237" lon="6.77193">
        <ele>376</ele>
        <time>2016-10-09T07:23:03.000Z</time>
      </trkpt>
      <trkpt lat="47.51233" lon="6.77186">
        <ele>377</ele>
        <time>2016-10-09T07:23:04.000Z</time>
      </trkpt>
      <trkpt lat="47.51229" lon="6.7718">
        <ele>377</ele>
        <time>2016-10-09T07:23:05.000Z</time>
      </trkpt>
      <trkpt lat="47.51226" lon="6.77173">
        <ele>377</ele>
        <time>2016-10-09T07:23:06.000Z</time>
      </trkpt>
      <trkpt lat="47.51222" lon="6.77164">
        <ele>378</ele>
        <time>2016-10-09T07:23:07.000Z</time>
      </trkpt>
      <trkpt lat="47.51218" lon="6.77158">
        <ele>378</ele>
        <time>2016-10-09T07:23:08.000Z</time>
      </trkpt>
      <trkpt lat="47.51213" lon="6.7715">
        <ele>378</ele>
        <time>2016-10-09T07:23:09.000Z</time>
      </trkpt>
      <trkpt lat="47.5121" lon="6.77142">
        <ele>378</ele>
        <time>2016-10-09T07:23:10.000Z</time>
      </trkpt>
      <trkpt lat="47.51206" lon="6.77134">
        <ele>378</ele>
        <time>2016-10-09T07:23:11.000Z</time>
      </trkpt>
      <trkpt lat="47.51201" lon="6.77126">
        <ele>378</ele>
        <time>2016-10-09T07:23:12.000Z</time>
      </trkpt>
      <trkpt lat="47.51197" lon="6.77117">
        <ele>378</ele>
        <time>2016-10-09T07:23:13.000Z</time>
      </trkpt>
      <trkpt lat="47.51192" lon="6.77108">
        <ele>378</ele>
        <time>2016-10-09T07:23:14.000Z</time>
      </trkpt>
      <trkpt lat="47.51187" lon="6.771">
        <ele>378</ele>
        <time>2016-10-09T07:23:15.000Z</time>
      </trkpt>
      <trkpt lat="47.51182" lon="6.77091">
        <ele>378</ele>
        <time>2016-10-09T07:23:16.000Z</time>
      </trkpt>
      <trkpt lat="47.51177" lon="6.77082">
        <ele>377</ele>
        <time>2016-10-09T07:23:17.000Z</time>
      </trkpt>
      <trkpt lat="47.51172" lon="6.77073">
        <ele>377</ele>
        <time>2016-10-09T07:23:18.000Z</time>
      </trkpt>
      <trkpt lat="47.51167" lon="6.77065">
        <ele>377</ele>
        <time>2016-10-09T07:23:19.000Z</time>
      </trkpt>
      <trkpt lat="47.51161" lon="6.77058">
        <ele>376</ele>
        <time>2016-10-09T07:23:20.000Z</time>
      </trkpt>
      <trkpt lat="47.51155" lon="6.77051">
        <ele>376</ele>
        <time>2016-10-09T07:23:21.000Z</time>
      </trkpt>
      <trkpt lat="47.51149" lon="6.77044">
        <ele>376</ele>
        <time>2016-10-09T07:23:22.000Z</time>
      </trkpt>
      <trkpt lat="47.51143" lon="6.77038">
        <ele>375</ele>
        <time>2016-10-09T07:23:23.000Z</time>
      </trkpt>
      <trkpt lat="47.51136" lon="6.77033">
        <ele>375</ele>
        <time>2016-10-09T07:23:24.000Z</time>
      </trkpt>
      <trkpt lat="47.5113" lon="6.77028">
        <ele>375</ele>
        <time>2016-10-09T07:23:25.000Z</time>
      </trkpt>
      <trkpt lat="47.51124" lon="6.77025">
        <ele>375</ele>
        <time>2016-10-09T07:23:26.000Z</time>
      </trkpt>
      <trkpt lat="47.51118" lon="6.77019">
        <ele>375</ele>
        <time>2016-10-09T07:23:27.000Z</time>
      </trkpt>
      <trkpt lat="47.51112" lon="6.77013">
        <ele>375</ele>
        <time>2016-10-09T07:23:28.000Z</time>
      </trkpt>
      <trkpt lat="47.51105" lon="6.77008">
        <ele>375</ele>
        <time>2016-10-09T07:23:29.000Z</time>
      </trkpt>
      <trkpt lat="47.51099" lon="6.77003">
        <ele>375</ele>
        <time>2016-10-09T07:23:30.000Z</time>
      </trkpt>
      <trkpt lat="47.51093" lon="6.76998">
        <ele>375</ele>
        <time>2016-10-09T07:23:31.000Z</time>
      </trkpt>
      <trkpt lat="47.51086" lon="6.76994">
        <ele>375</ele>
        <time>2016-10-09T07:23:32.000Z</time>
      </trkpt>
      <trkpt lat="47.5108" lon="6.76989">
        <ele>375</ele>
        <time>2016-10-09T07:23:33.000Z</time>
      </trkpt>
      <trkpt lat="47.51074" lon="6.76983">
        <ele>375</ele>
        <time>2016-10-09T07:23:34.000Z</time>
      </trkpt>
      <trkpt lat="47.51068" lon="6.76979">
        <ele>375</ele>
        <time>2016-10-09T07:23:35.000Z</time>
      </trkpt>
      <trkpt lat="47.51061" lon="6.76974">
        <ele>375</ele>
        <time>2016-10-09T07:23:36.000Z</time>
      </trkpt>
      <trkpt lat="47.51055" lon="6.7697">
        <ele>375</ele>
        <time>2016-10-09T07:23:37.000Z</time>
      </trkpt>
      <trkpt lat="47.51049" lon="6.76965">
        <ele>375</ele>
        <time>2016-10-09T07:23:38.000Z</time>
      </trkpt>
      <trkpt lat="47.51043" lon="6.76959">
        <ele>375</ele>
        <time>2016-10-09T07:23:39.000Z</time>
      </trkpt>
      <trkpt lat="47.51037" lon="6.76955">
        <ele>375</ele>
        <time>2016-10-09T07:23:40.000Z</time>
      </trkpt>
      <trkpt lat="47.51031" lon="6.76951">
        <ele>375</ele>
        <time>2016-10-09T07:23:41.000Z</time>
      </trkpt>
      <trkpt lat="47.51026" lon="6.76946">
        <ele>375</ele>
        <time>2016-10-09T07:23:42.000Z</time>
      </trkpt>
      <trkpt lat="47.5102" lon="6.76941">
        <ele>375</ele>
        <time>2016-10-09T07:23:43.000Z</time>
      </trkpt>
      <trkpt lat="47.51016" lon="6.76935">
        <ele>375</ele>
        <time>2016-10-09T07:23:44.000Z</time>
      </trkpt>
      <trkpt lat="47.51011" lon="6.76932">
        <ele>375</ele>
        <time>2016-10-09T07:23:45.000Z</time>
      </trkpt>
      <trkpt lat="47.51006" lon="6.76926">
        <ele>376</ele>
        <time>2016-10-09T07:23:46.000Z</time>
      </trkpt>
      <trkpt lat="47.51001" lon="6.76919">
        <ele>376</ele>
        <time>2016-10-09T07:23:47.000Z</time>
      </trkpt>
      <trkpt lat="47.50997" lon="6.76912">
        <ele>376</ele>
        <time>2016-10-09T07:23:48.000Z</time>
      </trkpt>
      <trkpt lat="47.50994" lon="6.76905">
        <ele>377</ele>
        <time>2016-10-09T07:23:49.000Z</time>
      </trkpt>
      <trkpt lat="47.50988" lon="6.76901">
        <ele>377</ele>
        <time>2016-10-09T07:23:50.000Z</time>
      </trkpt>
      <trkpt lat="47.50983" lon="6.76899">
        <ele>377</ele>
        <time>2016-10-09T07:23:51.000Z</time>
      </trkpt>
      <trkpt lat="47.50978" lon="6.76898">
        <ele>377</ele>
        <time>2016-10-09T07:23:52.000Z</time>
      </trkpt>
      <trkpt lat="47.50973" lon="6.76897">
        <ele>377</ele>
        <time>2016-10-09T07:23:53.000Z</time>
      </trkpt>
      <trkpt lat="47.50968" lon="6.76895">
        <ele>377</ele>
        <time>2016-10-09T07:23:54.000Z</time>
      </trkpt>
      <trkpt lat="47.50964" lon="6.76893">
        <ele>377</ele>
        <time>2016-10-09T07:23:55.000Z</time>
      </trkpt>
      <trkpt lat="47.50959" lon="6.76889">
        <ele>377</ele>
        <time>2016-10-09T07:23:56.000Z</time>
      </trkpt>
      <trkpt lat="47.50955" lon="6.76884">
        <ele>377</ele>
        <time>2016-10-09T07:23:57.000Z</time>
      </trkpt>
      <trkpt lat="47.50951" lon="6.7688">
        <ele>378</ele>
        <time>2016-10-09T07:23:58.000Z</time>
      </trkpt>
      <trkpt lat="47.50947" lon="6.76876">
        <ele>378</ele>
        <time>2016-10-09T07:23:59.000Z</time>
      </trkpt>
      <trkpt lat="47.50943" lon="6.76871">
        <ele>378</ele>
        <time>2016-10-09T07:24:00.000Z</time>
      </trkpt>
      <trkpt lat="47.50939" lon="6.76866">
        <ele>378</ele>
        <time>2016-10-09T07:24:01.000Z</time>
      </trkpt>
      <trkpt lat="47.50936" lon="6.76862">
        <ele>378</ele>
        <time>2016-10-09T07:24:02.000Z</time>
      </trkpt>
      <trkpt lat="47.50933" lon="6.76857">
        <ele>378</ele>
        <time>2016-10-09T07:24:03.000Z</time>
      </trkpt>
      <trkpt lat="47.5093" lon="6.76852">
        <ele>378</ele>
        <time>2016-10-09T07:24:04.000Z</time>
      </trkpt>
      <trkpt lat="47.50926" lon="6.76847">
        <ele>379</ele>
        <time>2016-10-09T07:24:05.000Z</time>
      </trkpt>
      <trkpt lat="47.50923" lon="6.76842">
        <ele>379</ele>
        <time>2016-10-09T07:24:06.000Z</time>
      </trkpt>
      <trkpt lat="47.50921" lon="6.76836">
        <ele>380</ele>
        <time>2016-10-09T07:24:07.000Z</time>
      </trkpt>
      <trkpt lat="47.50918" lon="6.76831">
        <ele>380</ele>
        <time>2016-10-09T07:24:08.000Z</time>
      </trkpt>
      <trkpt lat="47.50916" lon="6.76825">
        <ele>380</ele>
        <time>2016-10-09T07:24:09.000Z</time>
      </trkpt>
      <trkpt lat="47.50913" lon="6.7682">
        <ele>381</ele>
        <time>2016-10-09T07:24:10.000Z</time>
      </trkpt>
      <trkpt lat="47.5091" lon="6.76814">
        <ele>381</ele>
        <time>2016-10-09T07:24:11.000Z</time>
      </trkpt>
      <trkpt lat="47.50907" lon="6.7681">
        <ele>381</ele>
        <time>2016-10-09T07:24:12.000Z</time>
      </trkpt>
      <trkpt lat="47.50905" lon="6.76804">
        <ele>381</ele>
        <time>2016-10-09T07:24:13.000Z</time>
      </trkpt>
      <trkpt lat="47.50901" lon="6.76799">
        <ele>381</ele>
        <time>2016-10-09T07:24:14.000Z</time>
      </trkpt>
      <trkpt lat="47.50899" lon="6.76793">
        <ele>381</ele>
        <time>2016-10-09T07:24:15.000Z</time>
      </trkpt>
      <trkpt lat="47.50897" lon="6.76787">
        <ele>381</ele>
        <time>2016-10-09T07:24:16.000Z</time>
      </trkpt>
      <trkpt lat="47.50895" lon="6.76781">
        <ele>381</ele>
        <time>2016-10-09T07:24:17.000Z</time>
      </trkpt>
      <trkpt lat="47.50893" lon="6.76776">
        <ele>381</ele>
        <time>2016-10-09T07:24:18.000Z</time>
      </trkpt>
      <trkpt lat="47.5089" lon="6.7677">
        <ele>381</ele>
        <time>2016-10-09T07:24:19.000Z</time>
      </trkpt>
      <trkpt lat="47.50889" lon="6.76765">
        <ele>381</ele>
        <time>2016-10-09T07:24:20.000Z</time>
      </trkpt>
      <trkpt lat="47.50886" lon="6.76761">
        <ele>381</ele>
        <time>2016-10-09T07:24:21.000Z</time>
      </trkpt>
      <trkpt lat="47.50885" lon="6.76756">
        <ele>381</ele>
        <time>2016-10-09T07:24:22.000Z</time>
      </trkpt>
      <trkpt lat="47.50883" lon="6.76748">
        <ele>382</ele>
        <time>2016-10-09T07:24:23.000Z</time>
      </trkpt>
      <trkpt lat="47.50881" lon="6.76743">
        <ele>382</ele>
        <time>2016-10-09T07:24:24.000Z</time>
      </trkpt>
      <trkpt lat="47.5088" lon="6.76738">
        <ele>383</ele>
        <time>2016-10-09T07:24:25.000Z</time>
      </trkpt>
      <trkpt lat="47.50878" lon="6.76733">
        <ele>383</ele>
        <time>2016-10-09T07:24:26.000Z</time>
      </trkpt>
      <trkpt lat="47.50876" lon="6.76728">
        <ele>383</ele>
        <time>2016-10-09T07:24:27.000Z</time>
      </trkpt>
      <trkpt lat="47.50874" lon="6.76723">
        <ele>383</ele>
        <time>2016-10-09T07:24:28.000Z</time>
      </trkpt>
      <trkpt lat="47.50872" lon="6.76718">
        <ele>383</ele>
        <time>2016-10-09T07:24:29.000Z</time>
      </trkpt>
      <trkpt lat="47.50871" lon="6.76713">
        <ele>383</ele>
        <time>2016-10-09T07:24:30.000Z</time>
      </trkpt>
      <trkpt lat="47.50869" lon="6.76708">
        <ele>384</ele>
        <time>2016-10-09T07:24:31.000Z</time>
      </trkpt>
      <trkpt lat="47.50867" lon="6.76703">
        <ele>384</ele>
        <time>2016-10-09T07:24:32.000Z</time>
      </trkpt>
      <trkpt lat="47.50865" lon="6.76698">
        <ele>384</ele>
        <time>2016-10-09T07:24:33.000Z</time>
      </trkpt>
      <trkpt lat="47.50863" lon="6.76694">
        <ele>384</ele>
        <time>2016-10-09T07:24:34.000Z</time>
      </trkpt>
      <trkpt lat="47.50861" lon="6.76689">
        <ele>384</ele>
        <time>2016-10-09T07:24:35.000Z</time>
      </trkpt>
      <trkpt lat="47.5086" lon="6.76684">
        <ele>385</ele>
        <time>2016-10-09T07:24:36.000Z</time>
      </trkpt>
      <trkpt lat="47.50858" lon="6.7668">
        <ele>385</ele>
        <time>2016-10-09T07:24:37.000Z</time>
      </trkpt>
      <trkpt lat="47.50856" lon="6.76675">
        <ele>385</ele>
        <time>2016-10-09T07:24:38.000Z</time>
      </trkpt>
      <trkpt lat="47.50854" lon="6.76671">
        <ele>386</ele>
        <time>2016-10-09T07:24:39.000Z</time>
      </trkpt>
      <trkpt lat="47.50852" lon="6.76667">
        <ele>387</ele>
        <time>2016-10-09T07:24:40.000Z</time>
      </trkpt>
      <trkpt lat="47.5085" lon="6.76662">
        <ele>387</ele>
        <time>2016-10-09T07:24:41.000Z</time>
      </trkpt>
      <trkpt lat="47.50847" lon="6.76659">
        <ele>387</ele>
        <time>2016-10-09T07:24:42.000Z</time>
      </trkpt>
      <trkpt lat="47.50845" lon="6.76655">
        <ele>387</ele>
        <time>2016-10-09T07:24:43.000Z</time>
      </trkpt>
      <trkpt lat="47.50843" lon="6.76652">
        <ele>387</ele>
        <time>2016-10-09T07:24:44.000Z</time>
      </trkpt>
      <trkpt lat="47.50841" lon="6.76648">
        <ele>387</ele>
        <time>2016-10-09T07:24:45.000Z</time>
      </trkpt>
      <trkpt lat="47.50839" lon="6.76644">
        <ele>387</ele>
        <time>2016-10-09T07:24:46.000Z</time>
      </trkpt>
      <trkpt lat="47.50838" lon="6.7664">
        <ele>387</ele>
        <time>2016-10-09T07:24:47.000Z</time>
      </trkpt>
      <trkpt lat="47.50836" lon="6.76637">
        <ele>387</ele>
        <time>2016-10-09T07:24:48.000Z</time>
      </trkpt>
      <trkpt lat="47.50834" lon="6.76634">
        <ele>387</ele>
        <time>2016-10-09T07:24:49.000Z</time>
      </trkpt>
      <trkpt lat="47.50833" lon="6.7663">
        <ele>390</ele>
        <time>2016-10-09T07:24:50.000Z</time>
      </trkpt>
      <trkpt lat="47.50832" lon="6.76626">
        <ele>390</ele>
        <time>2016-10-09T07:24:51.000Z</time>
      </trkpt>
      <trkpt lat="47.5083" lon="6.76622">
        <ele>390</ele>
        <time>2016-10-09T07:24:52.000Z</time>
      </trkpt>
      <trkpt lat="47.50829" lon="6.76618">
        <ele>390</ele>
        <time>2016-10-09T07:24:53.000Z</time>
      </trkpt>
      <trkpt lat="47.50828" lon="6.76614">
        <ele>390</ele>
        <time>2016-10-09T07:24:54.000Z</time>
      </trkpt>
      <trkpt lat="47.50826" lon="6.76609">
        <ele>390</ele>
        <time>2016-10-09T07:24:55.000Z</time>
      </trkpt>
      <trkpt lat="47.50825" lon="6.76605">
        <ele>390</ele>
        <time>2016-10-09T07:24:56.000Z</time>
      </trkpt>
      <trkpt lat="47.50823" lon="6.76601">
        <ele>390</ele>
        <time>2016-10-09T07:24:57.000Z</time>
      </trkpt>
      <trkpt lat="47.50822" lon="6.76598">
        <ele>390</ele>
        <time>2016-10-09T07:24:58.000Z</time>
      </trkpt>
      <trkpt lat="47.5082" lon="6.76595">
        <ele>390</ele>
        <time>2016-10-09T07:24:59.000Z</time>
      </trkpt>
      <trkpt lat="47.50817" lon="6.76593">
        <ele>390</ele>
        <time>2016-10-09T07:25:01.000Z</time>
      </trkpt>
      <trkpt lat="47.50813" lon="6.76593">
        <ele>390</ele>
        <time>2016-10-09T07:25:03.000Z</time>
      </trkpt>
      <trkpt lat="47.50809" lon="6.76589">
        <ele>390</ele>
        <time>2016-10-09T07:25:05.000Z</time>
      </trkpt>
      <trkpt lat="47.50808" lon="6.76586">
        <ele>390</ele>
        <time>2016-10-09T07:25:06.000Z</time>
      </trkpt>
      <trkpt lat="47.50804" lon="6.76584">
        <ele>391</ele>
        <time>2016-10-09T07:25:08.000Z</time>
      </trkpt>
      <trkpt lat="47.50801" lon="6.76585">
        <ele>391</ele>
        <time>2016-10-09T07:25:09.000Z</time>
      </trkpt>
      <trkpt lat="47.50799" lon="6.76586">
        <ele>391</ele>
        <time>2016-10-09T07:25:10.000Z</time>
      </trkpt>
      <trkpt lat="47.50796" lon="6.76588">
        <ele>391</ele>
        <time>2016-10-09T07:25:11.000Z</time>
      </trkpt>
      <trkpt lat="47.50793" lon="6.76591">
        <ele>391</ele>
        <time>2016-10-09T07:25:20.000Z</time>
      </trkpt>
      <trkpt lat="47.50792" lon="6.76592">
        <ele>391</ele>
        <time>2016-10-09T07:25:21.000Z</time>
      </trkpt>
      <trkpt lat="47.50789" lon="6.76594">
        <ele>391</ele>
        <time>2016-10-09T07:25:24.000Z</time>
      </trkpt>
      <trkpt lat="47.50788" lon="6.76595">
        <ele>391</ele>
        <time>2016-10-09T07:25:25.000Z</time>
      </trkpt>
      <trkpt lat="47.50784" lon="6.76593">
        <ele>391</ele>
        <time>2016-10-09T07:25:30.000Z</time>
      </trkpt>
      <trkpt lat="47.50783" lon="6.76593">
        <ele>391</ele>
        <time>2016-10-09T07:25:31.000Z</time>
      </trkpt>
      <trkpt lat="47.50779" lon="6.76593">
        <ele>392</ele>
        <time>2016-10-09T07:25:38.000Z</time>
      </trkpt>
      <trkpt lat="47.50777" lon="6.76594">
        <ele>392</ele>
        <time>2016-10-09T07:25:39.000Z</time>
      </trkpt>
      <trkpt lat="47.50773" lon="6.76595">
        <ele>392</ele>
        <time>2016-10-09T07:25:41.000Z</time>
      </trkpt>
      <trkpt lat="47.5077" lon="6.76596">
        <ele>392</ele>
        <time>2016-10-09T07:25:42.000Z</time>
      </trkpt>
      <trkpt lat="47.50768" lon="6.76596">
        <ele>392</ele>
        <time>2016-10-09T07:25:43.000Z</time>
      </trkpt>
      <trkpt lat="47.50764" lon="6.76596">
        <ele>392</ele>
        <time>2016-10-09T07:25:44.000Z</time>
      </trkpt>
      <trkpt lat="47.50761" lon="6.76596">
        <ele>392</ele>
        <time>2016-10-09T07:25:45.000Z</time>
      </trkpt>
      <trkpt lat="47.50759" lon="6.76596">
        <ele>392</ele>
        <time>2016-10-09T07:25:46.000Z</time>
      </trkpt>
      <trkpt lat="47.50755" lon="6.76596">
        <ele>393</ele>
        <time>2016-10-09T07:25:47.000Z</time>
      </trkpt>
      <trkpt lat="47.50752" lon="6.76596">
        <ele>393</ele>
        <time>2016-10-09T07:25:48.000Z</time>
      </trkpt>
      <trkpt lat="47.50748" lon="6.76596">
        <ele>394</ele>
        <time>2016-10-09T07:25:49.000Z</time>
      </trkpt>
      <trkpt lat="47.50745" lon="6.76596">
        <ele>394</ele>
        <time>2016-10-09T07:25:50.000Z</time>
      </trkpt>
      <trkpt lat="47.50741" lon="6.76596">
        <ele>394</ele>
        <time>2016-10-09T07:25:51.000Z</time>
      </trkpt>
      <trkpt lat="47.50738" lon="6.76595">
        <ele>394</ele>
        <time>2016-10-09T07:25:52.000Z</time>
      </trkpt>
      <trkpt lat="47.50734" lon="6.76593">
        <ele>394</ele>
        <time>2016-10-09T07:25:53.000Z</time>
      </trkpt>
      <trkpt lat="47.5073" lon="6.76592">
        <ele>394</ele>
        <time>2016-10-09T07:25:54.000Z</time>
      </trkpt>
      <trkpt lat="47.50726" lon="6.76591">
        <ele>394</ele>
        <time>2016-10-09T07:25:55.000Z</time>
      </trkpt>
      <trkpt lat="47.50722" lon="6.7659">
        <ele>394</ele>
        <time>2016-10-09T07:25:56.000Z</time>
      </trkpt>
      <trkpt lat="47.50718" lon="6.76589">
        <ele>394</ele>
        <time>2016-10-09T07:25:57.000Z</time>
      </trkpt>
      <trkpt lat="47.50714" lon="6.76589">
        <ele>395</ele>
        <time>2016-10-09T07:25:58.000Z</time>
      </trkpt>
      <trkpt lat="47.5071" lon="6.76588">
        <ele>395</ele>
        <time>2016-10-09T07:25:59.000Z</time>
      </trkpt>
      <trkpt lat="47.50705" lon="6.76587">
        <ele>395</ele>
        <time>2016-10-09T07:26:00.000Z</time>
      </trkpt>
      <trkpt lat="47.50701" lon="6.76587">
        <ele>395</ele>
        <time>2016-10-09T07:26:01.000Z</time>
      </trkpt>
      <trkpt lat="47.50697" lon="6.76587">
        <ele>395</ele>
        <time>2016-10-09T07:26:02.000Z</time>
      </trkpt>
      <trkpt lat="47.50693" lon="6.76587">
        <ele>395</ele>
        <time>2016-10-09T07:26:03.000Z</time>
      </trkpt>
      <trkpt lat="47.5069" lon="6.76588">
        <ele>395</ele>
        <time>2016-10-09T07:26:04.000Z</time>
      </trkpt>
      <trkpt lat="47.50686" lon="6.76588">
        <ele>396</ele>
        <time>2016-10-09T07:26:05.000Z</time>
      </trkpt>
      <trkpt lat="47.50682" lon="6.76588">
        <ele>396</ele>
        <time>2016-10-09T07:26:06.000Z</time>
      </trkpt>
      <trkpt lat="47.50678" lon="6.76589">
        <ele>396</ele>
        <time>2016-10-09T07:26:07.000Z</time>
      </trkpt>
      <trkpt lat="47.50675" lon="6.76589">
        <ele>396</ele>
        <time>2016-10-09T07:26:08.000Z</time>
      </trkpt>
      <trkpt lat="47.50671" lon="6.7659">
        <ele>396</ele>
        <time>2016-10-09T07:26:09.000Z</time>
      </trkpt>
      <trkpt lat="47.50667" lon="6.76591">
        <ele>396</ele>
        <time>2016-10-09T07:26:10.000Z</time>
      </trkpt>
      <trkpt lat="47.50663" lon="6.76592">
        <ele>397</ele>
        <time>2016-10-09T07:26:11.000Z</time>
      </trkpt>
      <trkpt lat="47.5066" lon="6.76593">
        <ele>397</ele>
        <time>2016-10-09T07:26:12.000Z</time>
      </trkpt>
      <trkpt lat="47.50656" lon="6.76594">
        <ele>397</ele>
        <time>2016-10-09T07:26:13.000Z</time>
      </trkpt>
      <trkpt lat="47.50653" lon="6.76595">
        <ele>397</ele>
        <time>2016-10-09T07:26:14.000Z</time>
      </trkpt>
      <trkpt lat="47.50649" lon="6.76596">
        <ele>397</ele>
        <time>2016-10-09T07:26:15.000Z</time>
      </trkpt>
      <trkpt lat="47.50646" lon="6.76597">
        <ele>397</ele>
        <time>2016-10-09T07:26:16.000Z</time>
      </trkpt>
      <trkpt lat="47.50643" lon="6.76599">
        <ele>397</ele>
        <time>2016-10-09T07:26:17.000Z</time>
      </trkpt>
      <trkpt lat="47.50638" lon="6.766">
        <ele>397</ele>
        <time>2016-10-09T07:26:18.000Z</time>
      </trkpt>
      <trkpt lat="47.50635" lon="6.76603">
        <ele>397</ele>
        <time>2016-10-09T07:26:19.000Z</time>
      </trkpt>
      <trkpt lat="47.50632" lon="6.76605">
        <ele>397</ele>
        <time>2016-10-09T07:26:20.000Z</time>
      </trkpt>
      <trkpt lat="47.50629" lon="6.76607">
        <ele>397</ele>
        <time>2016-10-09T07:26:21.000Z</time>
      </trkpt>
      <trkpt lat="47.50625" lon="6.76609">
        <ele>397</ele>
        <time>2016-10-09T07:26:22.000Z</time>
      </trkpt>
      <trkpt lat="47.50622" lon="6.7661">
        <ele>397</ele>
        <time>2016-10-09T07:26:23.000Z</time>
      </trkpt>
      <trkpt lat="47.50619" lon="6.76611">
        <ele>397</ele>
        <time>2016-10-09T07:26:24.000Z</time>
      </trkpt>
      <trkpt lat="47.50616" lon="6.76613">
        <ele>397</ele>
        <time>2016-10-09T07:26:25.000Z</time>
      </trkpt>
      <trkpt lat="47.50612" lon="6.76615">
        <ele>398</ele>
        <time>2016-10-09T07:26:26.000Z</time>
      </trkpt>
      <trkpt lat="47.50608" lon="6.76616">
        <ele>398</ele>
        <time>2016-10-09T07:26:27.000Z</time>
      </trkpt>
      <trkpt lat="47.50605" lon="6.76617">
        <ele>398</ele>
        <time>2016-10-09T07:26:28.000Z</time>
      </trkpt>
      <trkpt lat="47.50601" lon="6.76618">
        <ele>398</ele>
        <time>2016-10-09T07:26:29.000Z</time>
      </trkpt>
      <trkpt lat="47.50597" lon="6.76618">
        <ele>398</ele>
        <time>2016-10-09T07:26:30.000Z</time>
      </trkpt>
      <trkpt lat="47.50593" lon="6.76619">
        <ele>398</ele>
        <time>2016-10-09T07:26:31.000Z</time>
      </trkpt>
      <trkpt lat="47.5059" lon="6.7662">
        <ele>398</ele>
        <time>2016-10-09T07:26:32.000Z</time>
      </trkpt>
      <trkpt lat="47.50587" lon="6.76622">
        <ele>398</ele>
        <time>2016-10-09T07:26:33.000Z</time>
      </trkpt>
      <trkpt lat="47.50583" lon="6.76623">
        <ele>398</ele>
        <time>2016-10-09T07:26:34.000Z</time>
      </trkpt>
      <trkpt lat="47.5058" lon="6.76624">
        <ele>399</ele>
        <time>2016-10-09T07:26:35.000Z</time>
      </trkpt>
      <trkpt lat="47.50577" lon="6.76626">
        <ele>399</ele>
        <time>2016-10-09T07:26:36.000Z</time>
      </trkpt>
      <trkpt lat="47.50574" lon="6.76627">
        <ele>399</ele>
        <time>2016-10-09T07:26:37.000Z</time>
      </trkpt>
      <trkpt lat="47.5057" lon="6.76628">
        <ele>399</ele>
        <time>2016-10-09T07:26:38.000Z</time>
      </trkpt>
      <trkpt lat="47.50567" lon="6.76629">
        <ele>399</ele>
        <time>2016-10-09T07:26:39.000Z</time>
      </trkpt>
      <trkpt lat="47.50564" lon="6.7663">
        <ele>399</ele>
        <time>2016-10-09T07:26:40.000Z</time>
      </trkpt>
      <trkpt lat="47.5056" lon="6.76631">
        <ele>399</ele>
        <time>2016-10-09T07:26:41.000Z</time>
      </trkpt>
      <trkpt lat="47.50557" lon="6.76632">
        <ele>399</ele>
        <time>2016-10-09T07:26:42.000Z</time>
      </trkpt>
      <trkpt lat="47.50553" lon="6.76633">
        <ele>399</ele>
        <time>2016-10-09T07:26:43.000Z</time>
      </trkpt>
      <trkpt lat="47.5055" lon="6.76634">
        <ele>399</ele>
        <time>2016-10-09T07:26:44.000Z</time>
      </trkpt>
      <trkpt lat="47.50546" lon="6.76635">
        <ele>399</ele>
        <time>2016-10-09T07:26:45.000Z</time>
      </trkpt>
      <trkpt lat="47.50542" lon="6.76636">
        <ele>399</ele>
        <time>2016-10-09T07:26:46.000Z</time>
      </trkpt>
      <trkpt lat="47.50538" lon="6.76637">
        <ele>399</ele>
        <time>2016-10-09T07:26:47.000Z</time>
      </trkpt>
      <trkpt lat="47.50534" lon="6.76638">
        <ele>399</ele>
        <time>2016-10-09T07:26:48.000Z</time>
      </trkpt>
      <trkpt lat="47.5053" lon="6.76639">
        <ele>399</ele>
        <time>2016-10-09T07:26:49.000Z</time>
      </trkpt>
      <trkpt lat="47.50524" lon="6.76641">
        <ele>399</ele>
        <time>2016-10-09T07:26:50.000Z</time>
      </trkpt>
      <trkpt lat="47.5052" lon="6.76642">
        <ele>399</ele>
        <time>2016-10-09T07:26:51.000Z</time>
      </trkpt>
      <trkpt lat="47.50516" lon="6.76644">
        <ele>399</ele>
        <time>2016-10-09T07:26:52.000Z</time>
      </trkpt>
      <trkpt lat="47.5051" lon="6.76646">
        <ele>399</ele>
        <time>2016-10-09T07:26:53.000Z</time>
      </trkpt>
      <trkpt lat="47.50505" lon="6.76648">
        <ele>399</ele>
        <time>2016-10-09T07:26:54.000Z</time>
      </trkpt>
      <trkpt lat="47.505" lon="6.76649">
        <ele>399</ele>
        <time>2016-10-09T07:26:55.000Z</time>
      </trkpt>
      <trkpt lat="47.50494" lon="6.76651">
        <ele>399</ele>
        <time>2016-10-09T07:26:56.000Z</time>
      </trkpt>
      <trkpt lat="47.50489" lon="6.76653">
        <ele>399</ele>
        <time>2016-10-09T07:26:57.000Z</time>
      </trkpt>
      <trkpt lat="47.50484" lon="6.76655">
        <ele>399</ele>
        <time>2016-10-09T07:26:58.000Z</time>
      </trkpt>
      <trkpt lat="47.50478" lon="6.76657">
        <ele>399</ele>
        <time>2016-10-09T07:26:59.000Z</time>
      </trkpt>
      <trkpt lat="47.50472" lon="6.7666">
        <ele>398</ele>
        <time>2016-10-09T07:27:00.000Z</time>
      </trkpt>
      <trkpt lat="47.50467" lon="6.76662">
        <ele>398</ele>
        <time>2016-10-09T07:27:01.000Z</time>
      </trkpt>
      <trkpt lat="47.50462" lon="6.76665">
        <ele>398</ele>
        <time>2016-10-09T07:27:02.000Z</time>
      </trkpt>
      <trkpt lat="47.50457" lon="6.76668">
        <ele>397</ele>
        <time>2016-10-09T07:27:03.000Z</time>
      </trkpt>
      <trkpt lat="47.50451" lon="6.7667">
        <ele>397</ele>
        <time>2016-10-09T07:27:04.000Z</time>
      </trkpt>
      <trkpt lat="47.50447" lon="6.76673">
        <ele>397</ele>
        <time>2016-10-09T07:27:05.000Z</time>
      </trkpt>
      <trkpt lat="47.50442" lon="6.76676">
        <ele>397</ele>
        <time>2016-10-09T07:27:06.000Z</time>
      </trkpt>
      <trkpt lat="47.50436" lon="6.76678">
        <ele>397</ele>
        <time>2016-10-09T07:27:07.000Z</time>
      </trkpt>
      <trkpt lat="47.50431" lon="6.7668">
        <ele>397</ele>
        <time>2016-10-09T07:27:08.000Z</time>
      </trkpt>
      <trkpt lat="47.50427" lon="6.76682">
        <ele>397</ele>
        <time>2016-10-09T07:27:09.000Z</time>
      </trkpt>
      <trkpt lat="47.50421" lon="6.76685">
        <ele>397</ele>
        <time>2016-10-09T07:27:10.000Z</time>
      </trkpt>
      <trkpt lat="47.50417" lon="6.76687">
        <ele>397</ele>
        <time>2016-10-09T07:27:11.000Z</time>
      </trkpt>
      <trkpt lat="47.50412" lon="6.76688">
        <ele>397</ele>
        <time>2016-10-09T07:27:12.000Z</time>
      </trkpt>
      <trkpt lat="47.50407" lon="6.7669">
        <ele>397</ele>
        <time>2016-10-09T07:27:13.000Z</time>
      </trkpt>
      <trkpt lat="47.50402" lon="6.76693">
        <ele>397</ele>
        <time>2016-10-09T07:27:14.000Z</time>
      </trkpt>
      <trkpt lat="47.50397" lon="6.76695">
        <ele>397</ele>
        <time>2016-10-09T07:27:15.000Z</time>
      </trkpt>
      <trkpt lat="47.50392" lon="6.76699">
        <ele>397</ele>
        <time>2016-10-09T07:27:16.000Z</time>
      </trkpt>
      <trkpt lat="47.50387" lon="6.76701">
        <ele>397</ele>
        <time>2016-10-09T07:27:17.000Z</time>
      </trkpt>
      <trkpt lat="47.50382" lon="6.76703">
        <ele>397</ele>
        <time>2016-10-09T07:27:18.000Z</time>
      </trkpt>
      <trkpt lat="47.50377" lon="6.76705">
        <ele>397</ele>
        <time>2016-10-09T07:27:19.000Z</time>
      </trkpt>
      <trkpt lat="47.50372" lon="6.76708">
        <ele>397</ele>
        <time>2016-10-09T07:27:20.000Z</time>
      </trkpt>
      <trkpt lat="47.50367" lon="6.7671">
        <ele>398</ele>
        <time>2016-10-09T07:27:21.000Z</time>
      </trkpt>
      <trkpt lat="47.50363" lon="6.76713">
        <ele>398</ele>
        <time>2016-10-09T07:27:22.000Z</time>
      </trkpt>
      <trkpt lat="47.50358" lon="6.76715">
        <ele>398</ele>
        <time>2016-10-09T07:27:23.000Z</time>
      </trkpt>
      <trkpt lat="47.50353" lon="6.76716">
        <ele>398</ele>
        <time>2016-10-09T07:27:24.000Z</time>
      </trkpt>
      <trkpt lat="47.50348" lon="6.76718">
        <ele>398</ele>
        <time>2016-10-09T07:27:25.000Z</time>
      </trkpt>
      <trkpt lat="47.50343" lon="6.7672">
        <ele>398</ele>
        <time>2016-10-09T07:27:26.000Z</time>
      </trkpt>
      <trkpt lat="47.50339" lon="6.76722">
        <ele>398</ele>
        <time>2016-10-09T07:27:27.000Z</time>
      </trkpt>
      <trkpt lat="47.50335" lon="6.76724">
        <ele>398</ele>
        <time>2016-10-09T07:27:28.000Z</time>
      </trkpt>
      <trkpt lat="47.5033" lon="6.76726">
        <ele>398</ele>
        <time>2016-10-09T07:27:29.000Z</time>
      </trkpt>
      <trkpt lat="47.50326" lon="6.76729">
        <ele>398</ele>
        <time>2016-10-09T07:27:30.000Z</time>
      </trkpt>
      <trkpt lat="47.50322" lon="6.76732">
        <ele>398</ele>
        <time>2016-10-09T07:27:31.000Z</time>
      </trkpt>
      <trkpt lat="47.50318" lon="6.76734">
        <ele>398</ele>
        <time>2016-10-09T07:27:32.000Z</time>
      </trkpt>
      <trkpt lat="47.50314" lon="6.76736">
        <ele>398</ele>
        <time>2016-10-09T07:27:33.000Z</time>
      </trkpt>
      <trkpt lat="47.50309" lon="6.76737">
        <ele>398</ele>
        <time>2016-10-09T07:27:34.000Z</time>
      </trkpt>
      <trkpt lat="47.50304" lon="6.76739">
        <ele>398</ele>
        <time>2016-10-09T07:27:35.000Z</time>
      </trkpt>
      <trkpt lat="47.50299" lon="6.76739">
        <ele>399</ele>
        <time>2016-10-09T07:27:36.000Z</time>
      </trkpt>
      <trkpt lat="47.50295" lon="6.76739">
        <ele>399</ele>
        <time>2016-10-09T07:27:37.000Z</time>
      </trkpt>
      <trkpt lat="47.5029" lon="6.76741">
        <ele>399</ele>
        <time>2016-10-09T07:27:38.000Z</time>
      </trkpt>
      <trkpt lat="47.50286" lon="6.76744">
        <ele>399</ele>
        <time>2016-10-09T07:27:39.000Z</time>
      </trkpt>
      <trkpt lat="47.50282" lon="6.76746">
        <ele>399</ele>
        <time>2016-10-09T07:27:40.000Z</time>
      </trkpt>
      <trkpt lat="47.50277" lon="6.76748">
        <ele>399</ele>
        <time>2016-10-09T07:27:41.000Z</time>
      </trkpt>
      <trkpt lat="47.50273" lon="6.76749">
        <ele>399</ele>
        <time>2016-10-09T07:27:42.000Z</time>
      </trkpt>
      <trkpt lat="47.50269" lon="6.76749">
        <ele>399</ele>
        <time>2016-10-09T07:27:43.000Z</time>
      </trkpt>
      <trkpt lat="47.50265" lon="6.7675">
        <ele>400</ele>
        <time>2016-10-09T07:27:44.000Z</time>
      </trkpt>
      <trkpt lat="47.50261" lon="6.76751">
        <ele>399</ele>
        <time>2016-10-09T07:27:45.000Z</time>
      </trkpt>
      <trkpt lat="47.50257" lon="6.76752">
        <ele>399</ele>
        <time>2016-10-09T07:27:46.000Z</time>
      </trkpt>
      <trkpt lat="47.50253" lon="6.7675">
        <ele>400</ele>
        <time>2016-10-09T07:27:47.000Z</time>
      </trkpt>
      <trkpt lat="47.50249" lon="6.76747">
        <ele>400</ele>
        <time>2016-10-09T07:27:48.000Z</time>
      </trkpt>
      <trkpt lat="47.50246" lon="6.76745">
        <ele>401</ele>
        <time>2016-10-09T07:27:49.000Z</time>
      </trkpt>
      <trkpt lat="47.50243" lon="6.76742">
        <ele>401</ele>
        <time>2016-10-09T07:27:50.000Z</time>
      </trkpt>
      <trkpt lat="47.50241" lon="6.76738">
        <ele>401</ele>
        <time>2016-10-09T07:27:51.000Z</time>
      </trkpt>
      <trkpt lat="47.50239" lon="6.76733">
        <ele>401</ele>
        <time>2016-10-09T07:27:52.000Z</time>
      </trkpt>
      <trkpt lat="47.50237" lon="6.76729">
        <ele>401</ele>
        <time>2016-10-09T07:27:53.000Z</time>
      </trkpt>
      <trkpt lat="47.50235" lon="6.76724">
        <ele>401</ele>
        <time>2016-10-09T07:27:54.000Z</time>
      </trkpt>
      <trkpt lat="47.50233" lon="6.76719">
        <ele>402</ele>
        <time>2016-10-09T07:27:55.000Z</time>
      </trkpt>
      <trkpt lat="47.50231" lon="6.76714">
        <ele>402</ele>
        <time>2016-10-09T07:27:56.000Z</time>
      </trkpt>
      <trkpt lat="47.50229" lon="6.76709">
        <ele>402</ele>
        <time>2016-10-09T07:27:57.000Z</time>
      </trkpt>
      <trkpt lat="47.50227" lon="6.76703">
        <ele>402</ele>
        <time>2016-10-09T07:27:58.000Z</time>
      </trkpt>
      <trkpt lat="47.50225" lon="6.76698">
        <ele>402</ele>
        <time>2016-10-09T07:27:59.000Z</time>
      </trkpt>
      <trkpt lat="47.50223" lon="6.76692">
        <ele>402</ele>
        <time>2016-10-09T07:28:00.000Z</time>
      </trkpt>
      <trkpt lat="47.50221" lon="6.76686">
        <ele>402</ele>
        <time>2016-10-09T07:28:01.000Z</time>
      </trkpt>
      <trkpt lat="47.50219" lon="6.76677">
        <ele>402</ele>
        <time>2016-10-09T07:28:02.000Z</time>
      </trkpt>
      <trkpt lat="47.50217" lon="6.7667">
        <ele>402</ele>
        <time>2016-10-09T07:28:03.000Z</time>
      </trkpt>
      <trkpt lat="47.50215" lon="6.76663">
        <ele>401</ele>
        <time>2016-10-09T07:28:04.000Z</time>
      </trkpt>
      <trkpt lat="47.50214" lon="6.76657">
        <ele>402</ele>
        <time>2016-10-09T07:28:05.000Z</time>
      </trkpt>
      <trkpt lat="47.50211" lon="6.76651">
        <ele>402</ele>
        <time>2016-10-09T07:28:06.000Z</time>
      </trkpt>
      <trkpt lat="47.50209" lon="6.76644">
        <ele>402</ele>
        <time>2016-10-09T07:28:07.000Z</time>
      </trkpt>
      <trkpt lat="47.50207" lon="6.76638">
        <ele>402</ele>
        <time>2016-10-09T07:28:08.000Z</time>
      </trkpt>
      <trkpt lat="47.50205" lon="6.76631">
        <ele>402</ele>
        <time>2016-10-09T07:28:09.000Z</time>
      </trkpt>
      <trkpt lat="47.50203" lon="6.76626">
        <ele>402</ele>
        <time>2016-10-09T07:28:10.000Z</time>
      </trkpt>
      <trkpt lat="47.50201" lon="6.7662">
        <ele>402</ele>
        <time>2016-10-09T07:28:11.000Z</time>
      </trkpt>
      <trkpt lat="47.50199" lon="6.76614">
        <ele>403</ele>
        <time>2016-10-09T07:28:12.000Z</time>
      </trkpt>
      <trkpt lat="47.50197" lon="6.76606">
        <ele>403</ele>
        <time>2016-10-09T07:28:13.000Z</time>
      </trkpt>
      <trkpt lat="47.50196" lon="6.76601">
        <ele>403</ele>
        <time>2016-10-09T07:28:14.000Z</time>
      </trkpt>
      <trkpt lat="47.50195" lon="6.76596">
        <ele>403</ele>
        <time>2016-10-09T07:28:15.000Z</time>
      </trkpt>
      <trkpt lat="47.50196" lon="6.76587">
        <ele>403</ele>
        <time>2016-10-09T07:28:16.000Z</time>
      </trkpt>
      <trkpt lat="47.50195" lon="6.76584">
        <ele>403</ele>
        <time>2016-10-09T07:28:17.000Z</time>
      </trkpt>
      <trkpt lat="47.50193" lon="6.76579">
        <ele>403</ele>
        <time>2016-10-09T07:28:18.000Z</time>
      </trkpt>
      <trkpt lat="47.50192" lon="6.76576">
        <ele>403</ele>
        <time>2016-10-09T07:28:19.000Z</time>
      </trkpt>
      <trkpt lat="47.50195" lon="6.76569">
        <ele>402</ele>
        <time>2016-10-09T07:28:20.000Z</time>
      </trkpt>
      <trkpt lat="47.50197" lon="6.76562">
        <ele>402</ele>
        <time>2016-10-09T07:28:21.000Z</time>
      </trkpt>
      <trkpt lat="47.502" lon="6.76557">
        <ele>402</ele>
        <time>2016-10-09T07:28:22.000Z</time>
      </trkpt>
      <trkpt lat="47.50205" lon="6.76556">
        <ele>401</ele>
        <time>2016-10-09T07:28:23.000Z</time>
      </trkpt>
      <trkpt lat="47.50209" lon="6.76553">
        <ele>401</ele>
        <time>2016-10-09T07:28:24.000Z</time>
      </trkpt>
      <trkpt lat="47.50213" lon="6.7655">
        <ele>401</ele>
        <time>2016-10-09T07:28:25.000Z</time>
      </trkpt>
      <trkpt lat="47.50216" lon="6.76547">
        <ele>400</ele>
        <time>2016-10-09T07:28:26.000Z</time>
      </trkpt>
      <trkpt lat="47.50217" lon="6.76543">
        <ele>400</ele>
        <time>2016-10-09T07:28:27.000Z</time>
      </trkpt>
      <trkpt lat="47.50218" lon="6.76539">
        <ele>400</ele>
        <time>2016-10-09T07:28:28.000Z</time>
      </trkpt>
      <trkpt lat="47.50218" lon="6.76535">
        <ele>400</ele>
        <time>2016-10-09T07:28:29.000Z</time>
      </trkpt>
      <trkpt lat="47.50216" lon="6.7653">
        <ele>400</ele>
        <time>2016-10-09T07:28:30.000Z</time>
      </trkpt>
      <trkpt lat="47.50214" lon="6.76526">
        <ele>400</ele>
        <time>2016-10-09T07:28:31.000Z</time>
      </trkpt>
      <trkpt lat="47.50211" lon="6.76521">
        <ele>400</ele>
        <time>2016-10-09T07:28:32.000Z</time>
      </trkpt>
      <trkpt lat="47.50208" lon="6.76515">
        <ele>400</ele>
        <time>2016-10-09T07:28:33.000Z</time>
      </trkpt>
      <trkpt lat="47.50205" lon="6.76509">
        <ele>401</ele>
        <time>2016-10-09T07:28:34.000Z</time>
      </trkpt>
      <trkpt lat="47.50202" lon="6.76503">
        <ele>401</ele>
        <time>2016-10-09T07:28:35.000Z</time>
      </trkpt>
      <trkpt lat="47.502" lon="6.76498">
        <ele>398</ele>
        <time>2016-10-09T07:28:36.000Z</time>
      </trkpt>
      <trkpt lat="47.50198" lon="6.76492">
        <ele>398</ele>
        <time>2016-10-09T07:28:37.000Z</time>
      </trkpt>
      <trkpt lat="47.50196" lon="6.76485">
        <ele>398</ele>
        <time>2016-10-09T07:28:38.000Z</time>
      </trkpt>
      <trkpt lat="47.50192" lon="6.76472">
        <ele>397</ele>
        <time>2016-10-09T07:28:39.000Z</time>
      </trkpt>
      <trkpt lat="47.50189" lon="6.76462">
        <ele>397</ele>
        <time>2016-10-09T07:28:40.000Z</time>
      </trkpt>
      <trkpt lat="47.50186" lon="6.76454">
        <ele>397</ele>
        <time>2016-10-09T07:28:41.000Z</time>
      </trkpt>
      <trkpt lat="47.50181" lon="6.76442">
        <ele>397</ele>
        <time>2016-10-09T07:28:42.000Z</time>
      </trkpt>
      <trkpt lat="47.50177" lon="6.76431">
        <ele>397</ele>
        <time>2016-10-09T07:28:43.000Z</time>
      </trkpt>
      <trkpt lat="47.50175" lon="6.76424">
        <ele>398</ele>
        <time>2016-10-09T07:28:44.000Z</time>
      </trkpt>
      <trkpt lat="47.50171" lon="6.76417">
        <ele>398</ele>
        <time>2016-10-09T07:28:45.000Z</time>
      </trkpt>
      <trkpt lat="47.50169" lon="6.7641">
        <ele>396</ele>
        <time>2016-10-09T07:28:46.000Z</time>
      </trkpt>
      <trkpt lat="47.50167" lon="6.76403">
        <ele>395</ele>
        <time>2016-10-09T07:28:47.000Z</time>
      </trkpt>
      <trkpt lat="47.50163" lon="6.76395">
        <ele>401</ele>
        <time>2016-10-09T07:28:48.000Z</time>
      </trkpt>
      <trkpt lat="47.50161" lon="6.76386">
        <ele>401</ele>
        <time>2016-10-09T07:28:49.000Z</time>
      </trkpt>
      <trkpt lat="47.50158" lon="6.76376">
        <ele>400</ele>
        <time>2016-10-09T07:28:50.000Z</time>
      </trkpt>
      <trkpt lat="47.50157" lon="6.76369">
        <ele>400</ele>
        <time>2016-10-09T07:28:51.000Z</time>
      </trkpt>
      <trkpt lat="47.50155" lon="6.7636">
        <ele>399</ele>
        <time>2016-10-09T07:28:52.000Z</time>
      </trkpt>
      <trkpt lat="47.50153" lon="6.76352">
        <ele>398</ele>
        <time>2016-10-09T07:28:53.000Z</time>
      </trkpt>
      <trkpt lat="47.5015" lon="6.76341">
        <ele>397</ele>
        <time>2016-10-09T07:28:54.000Z</time>
      </trkpt>
      <trkpt lat="47.50147" lon="6.7633">
        <ele>395</ele>
        <time>2016-10-09T07:28:55.000Z</time>
      </trkpt>
      <trkpt lat="47.50144" lon="6.76318">
        <ele>395</ele>
        <time>2016-10-09T07:28:56.000Z</time>
      </trkpt>
      <trkpt lat="47.50143" lon="6.76309">
        <ele>396</ele>
        <time>2016-10-09T07:28:57.000Z</time>
      </trkpt>
      <trkpt lat="47.50142" lon="6.763">
        <ele>396</ele>
        <time>2016-10-09T07:28:58.000Z</time>
      </trkpt>
      <trkpt lat="47.5014" lon="6.76289">
        <ele>396</ele>
        <time>2016-10-09T07:28:59.000Z</time>
      </trkpt>
      <trkpt lat="47.50138" lon="6.76279">
        <ele>395</ele>
        <time>2016-10-09T07:29:00.000Z</time>
      </trkpt>
      <trkpt lat="47.50133" lon="6.76266">
        <ele>395</ele>
        <time>2016-10-09T07:29:01.000Z</time>
      </trkpt>
      <trkpt lat="47.5013" lon="6.76251">
        <ele>395</ele>
        <time>2016-10-09T07:29:02.000Z</time>
      </trkpt>
      <trkpt lat="47.50129" lon="6.76235">
        <ele>391</ele>
        <time>2016-10-09T07:29:03.000Z</time>
      </trkpt>
      <trkpt lat="47.50126" lon="6.76223">
        <ele>391</ele>
        <time>2016-10-09T07:29:04.000Z</time>
      </trkpt>
      <trkpt lat="47.50124" lon="6.76211">
        <ele>391</ele>
        <time>2016-10-09T07:29:05.000Z</time>
      </trkpt>
      <trkpt lat="47.50121" lon="6.76201">
        <ele>391</ele>
        <time>2016-10-09T07:29:06.000Z</time>
      </trkpt>
      <trkpt lat="47.50122" lon="6.7619">
        <ele>390</ele>
        <time>2016-10-09T07:29:07.000Z</time>
      </trkpt>
      <trkpt lat="47.50119" lon="6.76164">
        <ele>386</ele>
        <time>2016-10-09T07:29:09.000Z</time>
      </trkpt>
      <trkpt lat="47.50116" lon="6.7615">
        <ele>386</ele>
        <time>2016-10-09T07:29:10.000Z</time>
      </trkpt>
      <trkpt lat="47.50113" lon="6.76137">
        <ele>386</ele>
        <time>2016-10-09T07:29:11.000Z</time>
      </trkpt>
      <trkpt lat="47.5011" lon="6.76121">
        <ele>385</ele>
        <time>2016-10-09T07:29:12.000Z</time>
      </trkpt>
      <trkpt lat="47.50107" lon="6.76104">
        <ele>385</ele>
        <time>2016-10-09T07:29:13.000Z</time>
      </trkpt>
      <trkpt lat="47.50103" lon="6.76087">
        <ele>386</ele>
        <time>2016-10-09T07:29:14.000Z</time>
      </trkpt>
      <trkpt lat="47.50098" lon="6.76072">
        <ele>383</ele>
        <time>2016-10-09T07:29:15.000Z</time>
      </trkpt>
      <trkpt lat="47.50093" lon="6.7606">
        <ele>382</ele>
        <time>2016-10-09T07:29:16.000Z</time>
      </trkpt>
      <trkpt lat="47.50089" lon="6.76047">
        <ele>381</ele>
        <time>2016-10-09T07:29:17.000Z</time>
      </trkpt>
      <trkpt lat="47.50088" lon="6.76037">
        <ele>380</ele>
        <time>2016-10-09T07:29:18.000Z</time>
      </trkpt>
      <trkpt lat="47.50085" lon="6.76029">
        <ele>380</ele>
        <time>2016-10-09T07:29:19.000Z</time>
      </trkpt>
      <trkpt lat="47.50081" lon="6.76023">
        <ele>384</ele>
        <time>2016-10-09T07:29:20.000Z</time>
      </trkpt>
      <trkpt lat="47.50077" lon="6.76015">
        <ele>383</ele>
        <time>2016-10-09T07:29:21.000Z</time>
      </trkpt>
      <trkpt lat="47.50074" lon="6.76005">
        <ele>382</ele>
        <time>2016-10-09T07:29:22.000Z</time>
      </trkpt>
      <trkpt lat="47.50071" lon="6.75997">
        <ele>380</ele>
        <time>2016-10-09T07:29:23.000Z</time>
      </trkpt>
      <trkpt lat="47.50067" lon="6.75988">
        <ele>379</ele>
        <time>2016-10-09T07:29:24.000Z</time>
      </trkpt>
      <trkpt lat="47.50062" lon="6.75978">
        <ele>379</ele>
        <time>2016-10-09T07:29:25.000Z</time>
      </trkpt>
      <trkpt lat="47.50058" lon="6.75969">
        <ele>379</ele>
        <time>2016-10-09T07:29:26.000Z</time>
      </trkpt>
      <trkpt lat="47.50053" lon="6.75961">
        <ele>379</ele>
        <time>2016-10-09T07:29:27.000Z</time>
      </trkpt>
      <trkpt lat="47.50049" lon="6.7595">
        <ele>378</ele>
        <time>2016-10-09T07:29:28.000Z</time>
      </trkpt>
      <trkpt lat="47.50044" lon="6.75941">
        <ele>378</ele>
        <time>2016-10-09T07:29:29.000Z</time>
      </trkpt>
      <trkpt lat="47.50036" lon="6.75932">
        <ele>378</ele>
        <time>2016-10-09T07:29:30.000Z</time>
      </trkpt>
      <trkpt lat="47.5003" lon="6.75922">
        <ele>378</ele>
        <time>2016-10-09T07:29:31.000Z</time>
      </trkpt>
      <trkpt lat="47.50024" lon="6.75914">
        <ele>377</ele>
        <time>2016-10-09T07:29:32.000Z</time>
      </trkpt>
      <trkpt lat="47.50019" lon="6.75905">
        <ele>377</ele>
        <time>2016-10-09T07:29:33.000Z</time>
      </trkpt>
      <trkpt lat="47.50014" lon="6.75896">
        <ele>377</ele>
        <time>2016-10-09T07:29:34.000Z</time>
      </trkpt>
      <trkpt lat="47.50007" lon="6.75885">
        <ele>377</ele>
        <time>2016-10-09T07:29:35.000Z</time>
      </trkpt>
      <trkpt lat="47.50001" lon="6.75875">
        <ele>377</ele>
        <time>2016-10-09T07:29:36.000Z</time>
      </trkpt>
      <trkpt lat="47.49994" lon="6.75863">
        <ele>377</ele>
        <time>2016-10-09T07:29:37.000Z</time>
      </trkpt>
      <trkpt lat="47.4999" lon="6.75851">
        <ele>377</ele>
        <time>2016-10-09T07:29:38.000Z</time>
      </trkpt>
      <trkpt lat="47.49985" lon="6.75842">
        <ele>377</ele>
        <time>2016-10-09T07:29:39.000Z</time>
      </trkpt>
      <trkpt lat="47.49979" lon="6.75833">
        <ele>376</ele>
        <time>2016-10-09T07:29:40.000Z</time>
      </trkpt>
      <trkpt lat="47.49975" lon="6.75822">
        <ele>375</ele>
        <time>2016-10-09T07:29:41.000Z</time>
      </trkpt>
      <trkpt lat="47.4997" lon="6.75808">
        <ele>375</ele>
        <time>2016-10-09T07:29:42.000Z</time>
      </trkpt>
      <trkpt lat="47.49963" lon="6.75799">
        <ele>374</ele>
        <time>2016-10-09T07:29:43.000Z</time>
      </trkpt>
      <trkpt lat="47.49958" lon="6.75791">
        <ele>374</ele>
        <time>2016-10-09T07:29:44.000Z</time>
      </trkpt>
      <trkpt lat="47.49952" lon="6.75783">
        <ele>373</ele>
        <time>2016-10-09T07:29:45.000Z</time>
      </trkpt>
      <trkpt lat="47.49945" lon="6.75774">
        <ele>373</ele>
        <time>2016-10-09T07:29:46.000Z</time>
      </trkpt>
      <trkpt lat="47.49936" lon="6.75767">
        <ele>372</ele>
        <time>2016-10-09T07:29:47.000Z</time>
      </trkpt>
      <trkpt lat="47.49928" lon="6.75758">
        <ele>371</ele>
        <time>2016-10-09T07:29:48.000Z</time>
      </trkpt>
      <trkpt lat="47.49921" lon="6.7575">
        <ele>369</ele>
        <time>2016-10-09T07:29:49.000Z</time>
      </trkpt>
      <trkpt lat="47.49913" lon="6.75743">
        <ele>367</ele>
        <time>2016-10-09T07:29:50.000Z</time>
      </trkpt>
      <trkpt lat="47.49906" lon="6.7574">
        <ele>366</ele>
        <time>2016-10-09T07:29:51.000Z</time>
      </trkpt>
      <trkpt lat="47.49901" lon="6.75739">
        <ele>366</ele>
        <time>2016-10-09T07:29:52.000Z</time>
      </trkpt>
      <trkpt lat="47.49896" lon="6.7574">
        <ele>365</ele>
        <time>2016-10-09T07:29:53.000Z</time>
      </trkpt>
      <trkpt lat="47.49889" lon="6.75743">
        <ele>364</ele>
        <time>2016-10-09T07:29:54.000Z</time>
      </trkpt>
      <trkpt lat="47.49881" lon="6.75742">
        <ele>364</ele>
        <time>2016-10-09T07:29:55.000Z</time>
      </trkpt>
      <trkpt lat="47.49872" lon="6.75741">
        <ele>363</ele>
        <time>2016-10-09T07:29:56.000Z</time>
      </trkpt>
      <trkpt lat="47.49863" lon="6.75744">
        <ele>362</ele>
        <time>2016-10-09T07:29:57.000Z</time>
      </trkpt>
      <trkpt lat="47.49853" lon="6.75746">
        <ele>361</ele>
        <time>2016-10-09T07:29:58.000Z</time>
      </trkpt>
      <trkpt lat="47.49842" lon="6.75748">
        <ele>360</ele>
        <time>2016-10-09T07:29:59.000Z</time>
      </trkpt>
      <trkpt lat="47.49836" lon="6.75749">
        <ele>359</ele>
        <time>2016-10-09T07:30:00.000Z</time>
      </trkpt>
      <trkpt lat="47.49831" lon="6.75751">
        <ele>359</ele>
        <time>2016-10-09T07:30:01.000Z</time>
      </trkpt>
      <trkpt lat="47.49824" lon="6.75752">
        <ele>359</ele>
        <time>2016-10-09T07:30:02.000Z</time>
      </trkpt>
      <trkpt lat="47.49817" lon="6.75753">
        <ele>360</ele>
        <time>2016-10-09T07:30:03.000Z</time>
      </trkpt>
      <trkpt lat="47.49809" lon="6.75757">
        <ele>360</ele>
        <time>2016-10-09T07:30:04.000Z</time>
      </trkpt>
      <trkpt lat="47.49801" lon="6.75758">
        <ele>359</ele>
        <time>2016-10-09T07:30:05.000Z</time>
      </trkpt>
      <trkpt lat="47.49794" lon="6.75761">
        <ele>359</ele>
        <time>2016-10-09T07:30:06.000Z</time>
      </trkpt>
      <trkpt lat="47.49785" lon="6.75765">
        <ele>359</ele>
        <time>2016-10-09T07:30:07.000Z</time>
      </trkpt>
      <trkpt lat="47.49777" lon="6.75767">
        <ele>358</ele>
        <time>2016-10-09T07:30:08.000Z</time>
      </trkpt>
      <trkpt lat="47.49769" lon="6.75771">
        <ele>358</ele>
        <time>2016-10-09T07:30:09.000Z</time>
      </trkpt>
      <trkpt lat="47.49763" lon="6.75773">
        <ele>358</ele>
        <time>2016-10-09T07:30:10.000Z</time>
      </trkpt>
      <trkpt lat="47.49756" lon="6.75775">
        <ele>358</ele>
        <time>2016-10-09T07:30:11.000Z</time>
      </trkpt>
      <trkpt lat="47.49749" lon="6.75778">
        <ele>354</ele>
        <time>2016-10-09T07:30:12.000Z</time>
      </trkpt>
      <trkpt lat="47.49743" lon="6.75781">
        <ele>355</ele>
        <time>2016-10-09T07:30:13.000Z</time>
      </trkpt>
      <trkpt lat="47.49736" lon="6.75783">
        <ele>355</ele>
        <time>2016-10-09T07:30:14.000Z</time>
      </trkpt>
      <trkpt lat="47.49727" lon="6.75783">
        <ele>355</ele>
        <time>2016-10-09T07:30:15.000Z</time>
      </trkpt>
      <trkpt lat="47.49719" lon="6.75785">
        <ele>355</ele>
        <time>2016-10-09T07:30:16.000Z</time>
      </trkpt>
      <trkpt lat="47.4971" lon="6.75786">
        <ele>354</ele>
        <time>2016-10-09T07:30:17.000Z</time>
      </trkpt>
      <trkpt lat="47.49704" lon="6.75788">
        <ele>354</ele>
        <time>2016-10-09T07:30:18.000Z</time>
      </trkpt>
      <trkpt lat="47.49698" lon="6.75791">
        <ele>354</ele>
        <time>2016-10-09T07:30:19.000Z</time>
      </trkpt>
      <trkpt lat="47.49693" lon="6.7579">
        <ele>354</ele>
        <time>2016-10-09T07:30:20.000Z</time>
      </trkpt>
      <trkpt lat="47.49687" lon="6.7579">
        <ele>354</ele>
        <time>2016-10-09T07:30:21.000Z</time>
      </trkpt>
      <trkpt lat="47.49681" lon="6.75791">
        <ele>354</ele>
        <time>2016-10-09T07:30:22.000Z</time>
      </trkpt>
      <trkpt lat="47.49677" lon="6.75789">
        <ele>353</ele>
        <time>2016-10-09T07:30:23.000Z</time>
      </trkpt>
      <trkpt lat="47.49671" lon="6.7579">
        <ele>353</ele>
        <time>2016-10-09T07:30:24.000Z</time>
      </trkpt>
      <trkpt lat="47.49666" lon="6.7579">
        <ele>348</ele>
        <time>2016-10-09T07:30:25.000Z</time>
      </trkpt>
      <trkpt lat="47.49659" lon="6.75791">
        <ele>348</ele>
        <time>2016-10-09T07:30:26.000Z</time>
      </trkpt>
      <trkpt lat="47.49653" lon="6.75792">
        <ele>348</ele>
        <time>2016-10-09T07:30:27.000Z</time>
      </trkpt>
      <trkpt lat="47.49649" lon="6.75792">
        <ele>348</ele>
        <time>2016-10-09T07:30:28.000Z</time>
      </trkpt>
      <trkpt lat="47.49643" lon="6.75792">
        <ele>347</ele>
        <time>2016-10-09T07:30:29.000Z</time>
      </trkpt>
      <trkpt lat="47.4963" lon="6.75791">
        <ele>346</ele>
        <time>2016-10-09T07:30:30.000Z</time>
      </trkpt>
      <trkpt lat="47.49621" lon="6.7579">
        <ele>346</ele>
        <time>2016-10-09T07:30:31.000Z</time>
      </trkpt>
      <trkpt lat="47.49613" lon="6.75788">
        <ele>345</ele>
        <time>2016-10-09T07:30:32.000Z</time>
      </trkpt>
      <trkpt lat="47.49604" lon="6.75787">
        <ele>345</ele>
        <time>2016-10-09T07:30:33.000Z</time>
      </trkpt>
      <trkpt lat="47.49597" lon="6.75786">
        <ele>344</ele>
        <time>2016-10-09T07:30:34.000Z</time>
      </trkpt>
      <trkpt lat="47.49589" lon="6.75785">
        <ele>344</ele>
        <time>2016-10-09T07:30:35.000Z</time>
      </trkpt>
      <trkpt lat="47.4958" lon="6.75782">
        <ele>337</ele>
        <time>2016-10-09T07:30:36.000Z</time>
      </trkpt>
      <trkpt lat="47.49575" lon="6.75776">
        <ele>336</ele>
        <time>2016-10-09T07:30:37.000Z</time>
      </trkpt>
      <trkpt lat="47.49567" lon="6.75773">
        <ele>336</ele>
        <time>2016-10-09T07:30:38.000Z</time>
      </trkpt>
      <trkpt lat="47.49563" lon="6.75766">
        <ele>335</ele>
        <time>2016-10-09T07:30:39.000Z</time>
      </trkpt>
      <trkpt lat="47.49566" lon="6.75757">
        <ele>335</ele>
        <time>2016-10-09T07:30:40.000Z</time>
      </trkpt>
      <trkpt lat="47.49567" lon="6.75754">
        <ele>335</ele>
        <time>2016-10-09T07:30:41.000Z</time>
      </trkpt>
      <trkpt lat="47.49568" lon="6.75749">
        <ele>330</ele>
        <time>2016-10-09T07:30:42.000Z</time>
      </trkpt>
      <trkpt lat="47.49572" lon="6.75745">
        <ele>330</ele>
        <time>2016-10-09T07:30:43.000Z</time>
      </trkpt>
      <trkpt lat="47.49575" lon="6.75742">
        <ele>331</ele>
        <time>2016-10-09T07:30:44.000Z</time>
      </trkpt>
      <trkpt lat="47.49578" lon="6.75739">
        <ele>330</ele>
        <time>2016-10-09T07:30:45.000Z</time>
      </trkpt>
      <trkpt lat="47.49581" lon="6.75736">
        <ele>330</ele>
        <time>2016-10-09T07:30:46.000Z</time>
      </trkpt>
      <trkpt lat="47.49585" lon="6.75733">
        <ele>332</ele>
        <time>2016-10-09T07:30:47.000Z</time>
      </trkpt>
      <trkpt lat="47.49588" lon="6.75729">
        <ele>332</ele>
        <time>2016-10-09T07:30:48.000Z</time>
      </trkpt>
      <trkpt lat="47.49592" lon="6.75725">
        <ele>332</ele>
        <time>2016-10-09T07:30:49.000Z</time>
      </trkpt>
      <trkpt lat="47.49595" lon="6.7572">
        <ele>331</ele>
        <time>2016-10-09T07:30:50.000Z</time>
      </trkpt>
      <trkpt lat="47.49597" lon="6.75713">
        <ele>331</ele>
        <time>2016-10-09T07:30:51.000Z</time>
      </trkpt>
      <trkpt lat="47.49599" lon="6.75708">
        <ele>330</ele>
        <time>2016-10-09T07:30:52.000Z</time>
      </trkpt>
      <trkpt lat="47.49601" lon="6.757">
        <ele>330</ele>
        <time>2016-10-09T07:30:53.000Z</time>
      </trkpt>
      <trkpt lat="47.49601" lon="6.75695">
        <ele>329</ele>
        <time>2016-10-09T07:30:54.000Z</time>
      </trkpt>
      <trkpt lat="47.496" lon="6.75689">
        <ele>328</ele>
        <time>2016-10-09T07:30:55.000Z</time>
      </trkpt>
      <trkpt lat="47.49596" lon="6.75683">
        <ele>327</ele>
        <time>2016-10-09T07:30:56.000Z</time>
      </trkpt>
      <trkpt lat="47.49592" lon="6.75677">
        <ele>325</ele>
        <time>2016-10-09T07:30:57.000Z</time>
      </trkpt>
      <trkpt lat="47.49587" lon="6.75673">
        <ele>324</ele>
        <time>2016-10-09T07:30:58.000Z</time>
      </trkpt>
      <trkpt lat="47.49583" lon="6.75667">
        <ele>321</ele>
        <time>2016-10-09T07:30:59.000Z</time>
      </trkpt>
      <trkpt lat="47.49579" lon="6.75663">
        <ele>321</ele>
        <time>2016-10-09T07:31:00.000Z</time>
      </trkpt>
      <trkpt lat="47.49573" lon="6.75665">
        <ele>321</ele>
        <time>2016-10-09T07:31:01.000Z</time>
      </trkpt>
      <trkpt lat="47.49569" lon="6.75669">
        <ele>323</ele>
        <time>2016-10-09T07:31:02.000Z</time>
      </trkpt>
      <trkpt lat="47.49564" lon="6.75674">
        <ele>323</ele>
        <time>2016-10-09T07:31:03.000Z</time>
      </trkpt>
      <trkpt lat="47.49561" lon="6.75682">
        <ele>324</ele>
        <time>2016-10-09T07:31:04.000Z</time>
      </trkpt>
      <trkpt lat="47.49557" lon="6.75688">
        <ele>324</ele>
        <time>2016-10-09T07:31:05.000Z</time>
      </trkpt>
      <trkpt lat="47.49552" lon="6.75694">
        <ele>324</ele>
        <time>2016-10-09T07:31:06.000Z</time>
      </trkpt>
      <trkpt lat="47.49548" lon="6.757">
        <ele>325</ele>
        <time>2016-10-09T07:31:07.000Z</time>
      </trkpt>
      <trkpt lat="47.49543" lon="6.75706">
        <ele>325</ele>
        <time>2016-10-09T07:31:08.000Z</time>
      </trkpt>
      <trkpt lat="47.49537" lon="6.7571">
        <ele>325</ele>
        <time>2016-10-09T07:31:09.000Z</time>
      </trkpt>
      <trkpt lat="47.49533" lon="6.75715">
        <ele>325</ele>
        <time>2016-10-09T07:31:10.000Z</time>
      </trkpt>
      <trkpt lat="47.49527" lon="6.7572">
        <ele>325</ele>
        <time>2016-10-09T07:31:11.000Z</time>
      </trkpt>
      <trkpt lat="47.49522" lon="6.75724">
        <ele>325</ele>
        <time>2016-10-09T07:31:12.000Z</time>
      </trkpt>
      <trkpt lat="47.49516" lon="6.75727">
        <ele>325</ele>
        <time>2016-10-09T07:31:13.000Z</time>
      </trkpt>
      <trkpt lat="47.4951" lon="6.7573">
        <ele>325</ele>
        <time>2016-10-09T07:31:14.000Z</time>
      </trkpt>
      <trkpt lat="47.49504" lon="6.75732">
        <ele>325</ele>
        <time>2016-10-09T07:31:15.000Z</time>
      </trkpt>
      <trkpt lat="47.49499" lon="6.75735">
        <ele>323</ele>
        <time>2016-10-09T07:31:16.000Z</time>
      </trkpt>
      <trkpt lat="47.49493" lon="6.75737">
        <ele>323</ele>
        <time>2016-10-09T07:31:17.000Z</time>
      </trkpt>
      <trkpt lat="47.49487" lon="6.75738">
        <ele>322</ele>
        <time>2016-10-09T07:31:18.000Z</time>
      </trkpt>
      <trkpt lat="47.49482" lon="6.75734">
        <ele>322</ele>
        <time>2016-10-09T07:31:19.000Z</time>
      </trkpt>
      <trkpt lat="47.49477" lon="6.75728">
        <ele>322</ele>
        <time>2016-10-09T07:31:20.000Z</time>
      </trkpt>
      <trkpt lat="47.49475" lon="6.75719">
        <ele>321</ele>
        <time>2016-10-09T07:31:21.000Z</time>
      </trkpt>
      <trkpt lat="47.49473" lon="6.75712">
        <ele>321</ele>
        <time>2016-10-09T07:31:22.000Z</time>
      </trkpt>
      <trkpt lat="47.4947" lon="6.75705">
        <ele>321</ele>
        <time>2016-10-09T07:31:23.000Z</time>
      </trkpt>
      <trkpt lat="47.49468" lon="6.75699">
        <ele>321</ele>
        <time>2016-10-09T07:31:24.000Z</time>
      </trkpt>
      <trkpt lat="47.49464" lon="6.75695">
        <ele>321</ele>
        <time>2016-10-09T07:31:25.000Z</time>
      </trkpt>
      <trkpt lat="47.49461" lon="6.75692">
        <ele>321</ele>
        <time>2016-10-09T07:31:26.000Z</time>
      </trkpt>
      <trkpt lat="47.49456" lon="6.75695">
        <ele>321</ele>
        <time>2016-10-09T07:31:27.000Z</time>
      </trkpt>
      <trkpt lat="47.49452" lon="6.75698">
        <ele>321</ele>
        <time>2016-10-09T07:31:28.000Z</time>
      </trkpt>
      <trkpt lat="47.49447" lon="6.757">
        <ele>321</ele>
        <time>2016-10-09T07:31:29.000Z</time>
      </trkpt>
      <trkpt lat="47.49443" lon="6.75696">
        <ele>321</ele>
        <time>2016-10-09T07:31:30.000Z</time>
      </trkpt>
      <trkpt lat="47.49441" lon="6.75691">
        <ele>320</ele>
        <time>2016-10-09T07:31:31.000Z</time>
      </trkpt>
      <trkpt lat="47.49439" lon="6.75686">
        <ele>320</ele>
        <time>2016-10-09T07:31:32.000Z</time>
      </trkpt>
      <trkpt lat="47.49437" lon="6.75679">
        <ele>320</ele>
        <time>2016-10-09T07:31:33.000Z</time>
      </trkpt>
      <trkpt lat="47.49434" lon="6.75674">
        <ele>320</ele>
        <time>2016-10-09T07:31:34.000Z</time>
      </trkpt>
      <trkpt lat="47.49432" lon="6.7567">
        <ele>320</ele>
        <time>2016-10-09T07:31:35.000Z</time>
      </trkpt>
      <trkpt lat="47.49429" lon="6.75672">
        <ele>320</ele>
        <time>2016-10-09T07:31:36.000Z</time>
      </trkpt>
      <trkpt lat="47.49424" lon="6.75677">
        <ele>320</ele>
        <time>2016-10-09T07:31:37.000Z</time>
      </trkpt>
      <trkpt lat="47.4942" lon="6.7568">
        <ele>320</ele>
        <time>2016-10-09T07:31:38.000Z</time>
      </trkpt>
      <trkpt lat="47.49416" lon="6.75683">
        <ele>319</ele>
        <time>2016-10-09T07:31:39.000Z</time>
      </trkpt>
      <trkpt lat="47.49412" lon="6.75686">
        <ele>319</ele>
        <time>2016-10-09T07:31:40.000Z</time>
      </trkpt>
      <trkpt lat="47.49408" lon="6.7569">
        <ele>319</ele>
        <time>2016-10-09T07:31:41.000Z</time>
      </trkpt>
      <trkpt lat="47.49404" lon="6.75694">
        <ele>319</ele>
        <time>2016-10-09T07:31:42.000Z</time>
      </trkpt>
      <trkpt lat="47.494" lon="6.75696">
        <ele>319</ele>
        <time>2016-10-09T07:31:43.000Z</time>
      </trkpt>
      <trkpt lat="47.49396" lon="6.75698">
        <ele>319</ele>
        <time>2016-10-09T07:31:44.000Z</time>
      </trkpt>
      <trkpt lat="47.49392" lon="6.75701">
        <ele>319</ele>
        <time>2016-10-09T07:31:45.000Z</time>
      </trkpt>
      <trkpt lat="47.49387" lon="6.75705">
        <ele>319</ele>
        <time>2016-10-09T07:31:46.000Z</time>
      </trkpt>
      <trkpt lat="47.49383" lon="6.75708">
        <ele>319</ele>
        <time>2016-10-09T07:31:47.000Z</time>
      </trkpt>
      <trkpt lat="47.49379" lon="6.75711">
        <ele>319</ele>
        <time>2016-10-09T07:31:48.000Z</time>
      </trkpt>
      <trkpt lat="47.49375" lon="6.75714">
        <ele>319</ele>
        <time>2016-10-09T07:31:49.000Z</time>
      </trkpt>
      <trkpt lat="47.49371" lon="6.75717">
        <ele>319</ele>
        <time>2016-10-09T07:31:50.000Z</time>
      </trkpt>
      <trkpt lat="47.49369" lon="6.75719">
        <ele>319</ele>
        <time>2016-10-09T07:31:51.000Z</time>
      </trkpt>
      <trkpt lat="47.49366" lon="6.75722">
        <ele>319</ele>
        <time>2016-10-09T07:31:53.000Z</time>
      </trkpt>
      <trkpt lat="47.49364" lon="6.75723">
        <ele>319</ele>
        <time>2016-10-09T07:31:54.000Z</time>
      </trkpt>
      <trkpt lat="47.4936" lon="6.75725">
        <ele>319</ele>
        <time>2016-10-09T07:31:56.000Z</time>
      </trkpt>
      <trkpt lat="47.49357" lon="6.75726">
        <ele>319</ele>
        <time>2016-10-09T07:31:57.000Z</time>
      </trkpt>
      <trkpt lat="47.49354" lon="6.75726">
        <ele>319</ele>
        <time>2016-10-09T07:31:58.000Z</time>
      </trkpt>
      <trkpt lat="47.49352" lon="6.75727">
        <ele>319</ele>
        <time>2016-10-09T07:31:59.000Z</time>
      </trkpt>
      <trkpt lat="47.49345" lon="6.75733">
        <ele>318</ele>
        <time>2016-10-09T07:32:00.000Z</time>
      </trkpt>
      <trkpt lat="47.4934" lon="6.75737">
        <ele>318</ele>
        <time>2016-10-09T07:32:01.000Z</time>
      </trkpt>
      <trkpt lat="47.49333" lon="6.75739">
        <ele>318</ele>
        <time>2016-10-09T07:32:02.000Z</time>
      </trkpt>
      <trkpt lat="47.49328" lon="6.75742">
        <ele>318</ele>
        <time>2016-10-09T07:32:03.000Z</time>
      </trkpt>
      <trkpt lat="47.49325" lon="6.75746">
        <ele>318</ele>
        <time>2016-10-09T07:32:04.000Z</time>
      </trkpt>
      <trkpt lat="47.49322" lon="6.75751">
        <ele>318</ele>
        <time>2016-10-09T07:32:05.000Z</time>
      </trkpt>
      <trkpt lat="47.49317" lon="6.75756">
        <ele>318</ele>
        <time>2016-10-09T07:32:06.000Z</time>
      </trkpt>
      <trkpt lat="47.49312" lon="6.75761">
        <ele>318</ele>
        <time>2016-10-09T07:32:07.000Z</time>
      </trkpt>
      <trkpt lat="47.49309" lon="6.75766">
        <ele>318</ele>
        <time>2016-10-09T07:32:08.000Z</time>
      </trkpt>
      <trkpt lat="47.49305" lon="6.75771">
        <ele>318</ele>
        <time>2016-10-09T07:32:09.000Z</time>
      </trkpt>
      <trkpt lat="47.49301" lon="6.75778">
        <ele>318</ele>
        <time>2016-10-09T07:32:10.000Z</time>
      </trkpt>
      <trkpt lat="47.49296" lon="6.75784">
        <ele>318</ele>
        <time>2016-10-09T07:32:11.000Z</time>
      </trkpt>
      <trkpt lat="47.49292" lon="6.7579">
        <ele>318</ele>
        <time>2016-10-09T07:32:12.000Z</time>
      </trkpt>
      <trkpt lat="47.49287" lon="6.75797">
        <ele>318</ele>
        <time>2016-10-09T07:32:13.000Z</time>
      </trkpt>
      <trkpt lat="47.49283" lon="6.75804">
        <ele>318</ele>
        <time>2016-10-09T07:32:14.000Z</time>
      </trkpt>
      <trkpt lat="47.49278" lon="6.7581">
        <ele>317</ele>
        <time>2016-10-09T07:32:15.000Z</time>
      </trkpt>
      <trkpt lat="47.49274" lon="6.75818">
        <ele>317</ele>
        <time>2016-10-09T07:32:16.000Z</time>
      </trkpt>
      <trkpt lat="47.4927" lon="6.75825">
        <ele>316</ele>
        <time>2016-10-09T07:32:17.000Z</time>
      </trkpt>
      <trkpt lat="47.49266" lon="6.75832">
        <ele>316</ele>
        <time>2016-10-09T07:32:18.000Z</time>
      </trkpt>
      <trkpt lat="47.49263" lon="6.75839">
        <ele>316</ele>
        <time>2016-10-09T07:32:19.000Z</time>
      </trkpt>
      <trkpt lat="47.49259" lon="6.75846">
        <ele>316</ele>
        <time>2016-10-09T07:32:20.000Z</time>
      </trkpt>
      <trkpt lat="47.49256" lon="6.75853">
        <ele>317</ele>
        <time>2016-10-09T07:32:21.000Z</time>
      </trkpt>
      <trkpt lat="47.49253" lon="6.75859">
        <ele>317</ele>
        <time>2016-10-09T07:32:22.000Z</time>
      </trkpt>
      <trkpt lat="47.49249" lon="6.75867">
        <ele>317</ele>
        <time>2016-10-09T07:32:23.000Z</time>
      </trkpt>
      <trkpt lat="47.49246" lon="6.75875">
        <ele>318</ele>
        <time>2016-10-09T07:32:24.000Z</time>
      </trkpt>
      <trkpt lat="47.49243" lon="6.75882">
        <ele>318</ele>
        <time>2016-10-09T07:32:25.000Z</time>
      </trkpt>
      <trkpt lat="47.49239" lon="6.75889">
        <ele>318</ele>
        <time>2016-10-09T07:32:26.000Z</time>
      </trkpt>
      <trkpt lat="47.49235" lon="6.75896">
        <ele>318</ele>
        <time>2016-10-09T07:32:27.000Z</time>
      </trkpt>
      <trkpt lat="47.49232" lon="6.75902">
        <ele>318</ele>
        <time>2016-10-09T07:32:28.000Z</time>
      </trkpt>
      <trkpt lat="47.49229" lon="6.75909">
        <ele>318</ele>
        <time>2016-10-09T07:32:29.000Z</time>
      </trkpt>
      <trkpt lat="47.49224" lon="6.75917">
        <ele>319</ele>
        <time>2016-10-09T07:32:30.000Z</time>
      </trkpt>
      <trkpt lat="47.4922" lon="6.75922">
        <ele>319</ele>
        <time>2016-10-09T07:32:31.000Z</time>
      </trkpt>
      <trkpt lat="47.49217" lon="6.75929">
        <ele>320</ele>
        <time>2016-10-09T07:32:32.000Z</time>
      </trkpt>
      <trkpt lat="47.49214" lon="6.75935">
        <ele>320</ele>
        <time>2016-10-09T07:32:33.000Z</time>
      </trkpt>
      <trkpt lat="47.49212" lon="6.75941">
        <ele>320</ele>
        <time>2016-10-09T07:32:34.000Z</time>
      </trkpt>
      <trkpt lat="47.49211" lon="6.75947">
        <ele>320</ele>
        <time>2016-10-09T07:32:35.000Z</time>
      </trkpt>
      <trkpt lat="47.4921" lon="6.75954">
        <ele>320</ele>
        <time>2016-10-09T07:32:36.000Z</time>
      </trkpt>
      <trkpt lat="47.49208" lon="6.75962">
        <ele>320</ele>
        <time>2016-10-09T07:32:37.000Z</time>
      </trkpt>
      <trkpt lat="47.49207" lon="6.7597">
        <ele>320</ele>
        <time>2016-10-09T07:32:38.000Z</time>
      </trkpt>
      <trkpt lat="47.49205" lon="6.75977">
        <ele>320</ele>
        <time>2016-10-09T07:32:39.000Z</time>
      </trkpt>
      <trkpt lat="47.49202" lon="6.75983">
        <ele>320</ele>
        <time>2016-10-09T07:32:40.000Z</time>
      </trkpt>
      <trkpt lat="47.49196" lon="6.75989">
        <ele>320</ele>
        <time>2016-10-09T07:32:41.000Z</time>
      </trkpt>
      <trkpt lat="47.49191" lon="6.75994">
        <ele>320</ele>
        <time>2016-10-09T07:32:42.000Z</time>
      </trkpt>
      <trkpt lat="47.49187" lon="6.76002">
        <ele>320</ele>
        <time>2016-10-09T07:32:43.000Z</time>
      </trkpt>
      <trkpt lat="47.49185" lon="6.76011">
        <ele>320</ele>
        <time>2016-10-09T07:32:44.000Z</time>
      </trkpt>
      <trkpt lat="47.49182" lon="6.76019">
        <ele>320</ele>
        <time>2016-10-09T07:32:45.000Z</time>
      </trkpt>
      <trkpt lat="47.49178" lon="6.76027">
        <ele>320</ele>
        <time>2016-10-09T07:32:46.000Z</time>
      </trkpt>
      <trkpt lat="47.49174" lon="6.76033">
        <ele>320</ele>
        <time>2016-10-09T07:32:47.000Z</time>
      </trkpt>
      <trkpt lat="47.4917" lon="6.7604">
        <ele>320</ele>
        <time>2016-10-09T07:32:48.000Z</time>
      </trkpt>
      <trkpt lat="47.49167" lon="6.76047">
        <ele>320</ele>
        <time>2016-10-09T07:32:49.000Z</time>
      </trkpt>
      <trkpt lat="47.49165" lon="6.76054">
        <ele>322</ele>
        <time>2016-10-09T07:32:50.000Z</time>
      </trkpt>
      <trkpt lat="47.49161" lon="6.76062">
        <ele>321</ele>
        <time>2016-10-09T07:32:51.000Z</time>
      </trkpt>
      <trkpt lat="47.49159" lon="6.7607">
        <ele>321</ele>
        <time>2016-10-09T07:32:52.000Z</time>
      </trkpt>
      <trkpt lat="47.49157" lon="6.76079">
        <ele>320</ele>
        <time>2016-10-09T07:32:53.000Z</time>
      </trkpt>
      <trkpt lat="47.49154" lon="6.76086">
        <ele>320</ele>
        <time>2016-10-09T07:32:54.000Z</time>
      </trkpt>
      <trkpt lat="47.49151" lon="6.76092">
        <ele>320</ele>
        <time>2016-10-09T07:32:55.000Z</time>
      </trkpt>
      <trkpt lat="47.49148" lon="6.761">
        <ele>321</ele>
        <time>2016-10-09T07:32:56.000Z</time>
      </trkpt>
      <trkpt lat="47.49146" lon="6.76108">
        <ele>321</ele>
        <time>2016-10-09T07:32:57.000Z</time>
      </trkpt>
      <trkpt lat="47.49144" lon="6.76117">
        <ele>321</ele>
        <time>2016-10-09T07:32:58.000Z</time>
      </trkpt>
      <trkpt lat="47.49142" lon="6.76126">
        <ele>322</ele>
        <time>2016-10-09T07:32:59.000Z</time>
      </trkpt>
      <trkpt lat="47.49139" lon="6.76133">
        <ele>322</ele>
        <time>2016-10-09T07:33:00.000Z</time>
      </trkpt>
      <trkpt lat="47.49138" lon="6.76142">
        <ele>322</ele>
        <time>2016-10-09T07:33:01.000Z</time>
      </trkpt>
      <trkpt lat="47.49135" lon="6.76149">
        <ele>322</ele>
        <time>2016-10-09T07:33:02.000Z</time>
      </trkpt>
      <trkpt lat="47.49134" lon="6.76157">
        <ele>322</ele>
        <time>2016-10-09T07:33:03.000Z</time>
      </trkpt>
      <trkpt lat="47.49132" lon="6.76166">
        <ele>322</ele>
        <time>2016-10-09T07:33:04.000Z</time>
      </trkpt>
      <trkpt lat="47.49132" lon="6.76174">
        <ele>321</ele>
        <time>2016-10-09T07:33:05.000Z</time>
      </trkpt>
      <trkpt lat="47.4913" lon="6.76183">
        <ele>321</ele>
        <time>2016-10-09T07:33:06.000Z</time>
      </trkpt>
      <trkpt lat="47.4913" lon="6.76192">
        <ele>321</ele>
        <time>2016-10-09T07:33:07.000Z</time>
      </trkpt>
      <trkpt lat="47.4913" lon="6.76201">
        <ele>321</ele>
        <time>2016-10-09T07:33:08.000Z</time>
      </trkpt>
      <trkpt lat="47.49131" lon="6.76207">
        <ele>321</ele>
        <time>2016-10-09T07:33:09.000Z</time>
      </trkpt>
      <trkpt lat="47.4913" lon="6.76215">
        <ele>321</ele>
        <time>2016-10-09T07:33:10.000Z</time>
      </trkpt>
      <trkpt lat="47.49131" lon="6.76224">
        <ele>321</ele>
        <time>2016-10-09T07:33:11.000Z</time>
      </trkpt>
      <trkpt lat="47.49131" lon="6.76233">
        <ele>320</ele>
        <time>2016-10-09T07:33:12.000Z</time>
      </trkpt>
      <trkpt lat="47.4913" lon="6.76241">
        <ele>320</ele>
        <time>2016-10-09T07:33:13.000Z</time>
      </trkpt>
      <trkpt lat="47.4913" lon="6.76252">
        <ele>320</ele>
        <time>2016-10-09T07:33:14.000Z</time>
      </trkpt>
      <trkpt lat="47.4913" lon="6.7626">
        <ele>319</ele>
        <time>2016-10-09T07:33:15.000Z</time>
      </trkpt>
      <trkpt lat="47.4913" lon="6.76269">
        <ele>319</ele>
        <time>2016-10-09T07:33:16.000Z</time>
      </trkpt>
      <trkpt lat="47.49129" lon="6.76277">
        <ele>319</ele>
        <time>2016-10-09T07:33:17.000Z</time>
      </trkpt>
      <trkpt lat="47.49131" lon="6.76283">
        <ele>319</ele>
        <time>2016-10-09T07:33:18.000Z</time>
      </trkpt>
      <trkpt lat="47.49132" lon="6.7629">
        <ele>319</ele>
        <time>2016-10-09T07:33:19.000Z</time>
      </trkpt>
      <trkpt lat="47.49132" lon="6.76299">
        <ele>319</ele>
        <time>2016-10-09T07:33:20.000Z</time>
      </trkpt>
      <trkpt lat="47.49133" lon="6.76309">
        <ele>319</ele>
        <time>2016-10-09T07:33:21.000Z</time>
      </trkpt>
      <trkpt lat="47.49133" lon="6.76317">
        <ele>319</ele>
        <time>2016-10-09T07:33:22.000Z</time>
      </trkpt>
      <trkpt lat="47.49133" lon="6.76324">
        <ele>319</ele>
        <time>2016-10-09T07:33:23.000Z</time>
      </trkpt>
      <trkpt lat="47.49132" lon="6.76332">
        <ele>319</ele>
        <time>2016-10-09T07:33:24.000Z</time>
      </trkpt>
      <trkpt lat="47.49133" lon="6.76341">
        <ele>317</ele>
        <time>2016-10-09T07:33:25.000Z</time>
      </trkpt>
      <trkpt lat="47.49132" lon="6.76349">
        <ele>317</ele>
        <time>2016-10-09T07:33:26.000Z</time>
      </trkpt>
      <trkpt lat="47.4913" lon="6.76357">
        <ele>318</ele>
        <time>2016-10-09T07:33:27.000Z</time>
      </trkpt>
      <trkpt lat="47.49131" lon="6.76365">
        <ele>318</ele>
        <time>2016-10-09T07:33:28.000Z</time>
      </trkpt>
      <trkpt lat="47.4913" lon="6.76373">
        <ele>318</ele>
        <time>2016-10-09T07:33:29.000Z</time>
      </trkpt>
      <trkpt lat="47.49128" lon="6.76383">
        <ele>318</ele>
        <time>2016-10-09T07:33:30.000Z</time>
      </trkpt>
      <trkpt lat="47.49126" lon="6.7639">
        <ele>318</ele>
        <time>2016-10-09T07:33:31.000Z</time>
      </trkpt>
      <trkpt lat="47.49127" lon="6.76398">
        <ele>317</ele>
        <time>2016-10-09T07:33:32.000Z</time>
      </trkpt>
      <trkpt lat="47.49127" lon="6.76405">
        <ele>317</ele>
        <time>2016-10-09T07:33:33.000Z</time>
      </trkpt>
      <trkpt lat="47.49126" lon="6.76411">
        <ele>317</ele>
        <time>2016-10-09T07:33:34.000Z</time>
      </trkpt>
      <trkpt lat="47.49126" lon="6.76417">
        <ele>317</ele>
        <time>2016-10-09T07:33:35.000Z</time>
      </trkpt>
      <trkpt lat="47.49123" lon="6.76412">
        <ele>318</ele>
        <time>2016-10-09T07:34:30.000Z</time>
      </trkpt>
      <trkpt lat="47.49122" lon="6.76412">
        <ele>318</ele>
        <time>2016-10-09T07:34:31.000Z</time>
      </trkpt>
      <trkpt lat="47.49121" lon="6.76417">
        <ele>317</ele>
        <time>2016-10-09T07:34:34.000Z</time>
      </trkpt>
      <trkpt lat="47.49122" lon="6.7642">
        <ele>317</ele>
        <time>2016-10-09T07:34:35.000Z</time>
      </trkpt>
      <trkpt lat="47.4912" lon="6.76415">
        <ele>318</ele>
        <time>2016-10-09T07:35:05.000Z</time>
      </trkpt>
      <trkpt lat="47.4912" lon="6.76412">
        <ele>318</ele>
        <time>2016-10-09T07:35:06.000Z</time>
      </trkpt>
      <trkpt lat="47.49121" lon="6.76406">
        <ele>318</ele>
        <time>2016-10-09T07:35:08.000Z</time>
      </trkpt>
      <trkpt lat="47.49122" lon="6.76404">
        <ele>318</ele>
        <time>2016-10-09T07:35:09.000Z</time>
      </trkpt>
      <trkpt lat="47.49123" lon="6.76398">
        <ele>318</ele>
        <time>2016-10-09T07:35:13.000Z</time>
      </trkpt>
      <trkpt lat="47.49123" lon="6.76396">
        <ele>318</ele>
        <time>2016-10-09T07:35:14.000Z</time>
      </trkpt>
      <trkpt lat="47.49123" lon="6.7639">
        <ele>318</ele>
        <time>2016-10-09T07:35:19.000Z</time>
      </trkpt>
      <trkpt lat="47.49122" lon="6.76389">
        <ele>318</ele>
        <time>2016-10-09T07:35:20.000Z</time>
      </trkpt>
      <trkpt lat="47.4912" lon="6.76384">
        <ele>318</ele>
        <time>2016-10-09T07:35:22.000Z</time>
      </trkpt>
      <trkpt lat="47.4912" lon="6.76381">
        <ele>318</ele>
        <time>2016-10-09T07:35:23.000Z</time>
      </trkpt>
      <trkpt lat="47.49121" lon="6.76375">
        <ele>318</ele>
        <time>2016-10-09T07:35:25.000Z</time>
      </trkpt>
      <trkpt lat="47.49121" lon="6.76372">
        <ele>318</ele>
        <time>2016-10-09T07:35:26.000Z</time>
      </trkpt>
      <trkpt lat="47.49121" lon="6.76367">
        <ele>318</ele>
        <time>2016-10-09T07:35:28.000Z</time>
      </trkpt>
      <trkpt lat="47.49121" lon="6.76365">
        <ele>318</ele>
        <time>2016-10-09T07:35:29.000Z</time>
      </trkpt>
      <trkpt lat="47.49122" lon="6.76359">
        <ele>318</ele>
        <time>2016-10-09T07:35:32.000Z</time>
      </trkpt>
      <trkpt lat="47.49122" lon="6.76358">
        <ele>318</ele>
        <time>2016-10-09T07:35:33.000Z</time>
      </trkpt>
      <trkpt lat="47.49122" lon="6.76353">
        <ele>318</ele>
        <time>2016-10-09T07:35:35.000Z</time>
      </trkpt>
      <trkpt lat="47.49122" lon="6.76351">
        <ele>318</ele>
        <time>2016-10-09T07:35:36.000Z</time>
      </trkpt>
      <trkpt lat="47.49122" lon="6.76346">
        <ele>318</ele>
        <time>2016-10-09T07:35:38.000Z</time>
      </trkpt>
      <trkpt lat="47.49122" lon="6.76344">
        <ele>318</ele>
        <time>2016-10-09T07:35:39.000Z</time>
      </trkpt>
      <trkpt lat="47.49122" lon="6.76338">
        <ele>318</ele>
        <time>2016-10-09T07:35:41.000Z</time>
      </trkpt>
      <trkpt lat="47.49122" lon="6.76335">
        <ele>318</ele>
        <time>2016-10-09T07:35:42.000Z</time>
      </trkpt>
      <trkpt lat="47.49122" lon="6.76331">
        <ele>319</ele>
        <time>2016-10-09T07:35:43.000Z</time>
      </trkpt>
      <trkpt lat="47.49122" lon="6.76328">
        <ele>319</ele>
        <time>2016-10-09T07:35:44.000Z</time>
      </trkpt>
      <trkpt lat="47.49122" lon="6.76323">
        <ele>319</ele>
        <time>2016-10-09T07:35:45.000Z</time>
      </trkpt>
      <trkpt lat="47.49122" lon="6.76319">
        <ele>319</ele>
        <time>2016-10-09T07:35:46.000Z</time>
      </trkpt>
      <trkpt lat="47.49122" lon="6.76314">
        <ele>319</ele>
        <time>2016-10-09T07:35:47.000Z</time>
      </trkpt>
      <trkpt lat="47.49121" lon="6.76309">
        <ele>320</ele>
        <time>2016-10-09T07:35:48.000Z</time>
      </trkpt>
      <trkpt lat="47.49121" lon="6.76304">
        <ele>320</ele>
        <time>2016-10-09T07:35:49.000Z</time>
      </trkpt>
      <trkpt lat="47.49121" lon="6.763">
        <ele>320</ele>
        <time>2016-10-09T07:35:50.000Z</time>
      </trkpt>
      <trkpt lat="47.49121" lon="6.76296">
        <ele>320</ele>
        <time>2016-10-09T07:35:51.000Z</time>
      </trkpt>
      <trkpt lat="47.49121" lon="6.76293">
        <ele>320</ele>
        <time>2016-10-09T07:35:52.000Z</time>
      </trkpt>
      <trkpt lat="47.4912" lon="6.76289">
        <ele>320</ele>
        <time>2016-10-09T07:35:53.000Z</time>
      </trkpt>
      <trkpt lat="47.4912" lon="6.76286">
        <ele>320</ele>
        <time>2016-10-09T07:35:54.000Z</time>
      </trkpt>
      <trkpt lat="47.4912" lon="6.76282">
        <ele>320</ele>
        <time>2016-10-09T07:35:55.000Z</time>
      </trkpt>
      <trkpt lat="47.4912" lon="6.76278">
        <ele>320</ele>
        <time>2016-10-09T07:35:56.000Z</time>
      </trkpt>
      <trkpt lat="47.49119" lon="6.76275">
        <ele>320</ele>
        <time>2016-10-09T07:35:57.000Z</time>
      </trkpt>
      <trkpt lat="47.49119" lon="6.76271">
        <ele>320</ele>
        <time>2016-10-09T07:35:58.000Z</time>
      </trkpt>
      <trkpt lat="47.4912" lon="6.76267">
        <ele>320</ele>
        <time>2016-10-09T07:35:59.000Z</time>
      </trkpt>
      <trkpt lat="47.4912" lon="6.76264">
        <ele>320</ele>
        <time>2016-10-09T07:36:00.000Z</time>
      </trkpt>
      <trkpt lat="47.4912" lon="6.7626">
        <ele>320</ele>
        <time>2016-10-09T07:36:01.000Z</time>
      </trkpt>
      <trkpt lat="47.49121" lon="6.76257">
        <ele>320</ele>
        <time>2016-10-09T07:36:02.000Z</time>
      </trkpt>
      <trkpt lat="47.49122" lon="6.76252">
        <ele>320</ele>
        <time>2016-10-09T07:36:03.000Z</time>
      </trkpt>
      <trkpt lat="47.49124" lon="6.76248">
        <ele>321</ele>
        <time>2016-10-09T07:36:04.000Z</time>
      </trkpt>
      <trkpt lat="47.49126" lon="6.76244">
        <ele>321</ele>
        <time>2016-10-09T07:36:05.000Z</time>
      </trkpt>
      <trkpt lat="47.49128" lon="6.76241">
        <ele>321</ele>
        <time>2016-10-09T07:36:06.000Z</time>
      </trkpt>
      <trkpt lat="47.49131" lon="6.76238">
        <ele>320</ele>
        <time>2016-10-09T07:36:08.000Z</time>
      </trkpt>
      <trkpt lat="47.49133" lon="6.76236">
        <ele>320</ele>
        <time>2016-10-09T07:36:09.000Z</time>
      </trkpt>
      <trkpt lat="47.49137" lon="6.76233">
        <ele>320</ele>
        <time>2016-10-09T07:36:11.000Z</time>
      </trkpt>
      <trkpt lat="47.49138" lon="6.76232">
        <ele>320</ele>
        <time>2016-10-09T07:36:12.000Z</time>
      </trkpt>
      <trkpt lat="47.49141" lon="6.76226">
        <ele>320</ele>
        <time>2016-10-09T07:36:23.000Z</time>
      </trkpt>
      <trkpt lat="47.49141" lon="6.76226">
        <ele>320</ele>
        <time>2016-10-09T07:36:24.000Z</time>
      </trkpt>
      <trkpt lat="47.49138" lon="6.76222">
        <ele>320</ele>
        <time>2016-10-09T07:37:17.000Z</time>
      </trkpt>
      <trkpt lat="47.49135" lon="6.76223">
        <ele>320</ele>
        <time>2016-10-09T07:37:18.000Z</time>
      </trkpt>
      <trkpt lat="47.49133" lon="6.76225">
        <ele>320</ele>
        <time>2016-10-09T07:37:19.000Z</time>
      </trkpt>
      <trkpt lat="47.49129" lon="6.76226">
        <ele>321</ele>
        <time>2016-10-09T07:37:20.000Z</time>
      </trkpt>
      <trkpt lat="47.49127" lon="6.76228">
        <ele>321</ele>
        <time>2016-10-09T07:37:21.000Z</time>
      </trkpt>
      <trkpt lat="47.49124" lon="6.7623">
        <ele>321</ele>
        <time>2016-10-09T07:37:22.000Z</time>
      </trkpt>
      <trkpt lat="47.49123" lon="6.76234">
        <ele>321</ele>
        <time>2016-10-09T07:37:23.000Z</time>
      </trkpt>
      <trkpt lat="47.49123" lon="6.76239">
        <ele>321</ele>
        <time>2016-10-09T07:37:24.000Z</time>
      </trkpt>
      <trkpt lat="47.49124" lon="6.76244">
        <ele>321</ele>
        <time>2016-10-09T07:37:25.000Z</time>
      </trkpt>
      <trkpt lat="47.49124" lon="6.7625">
        <ele>320</ele>
        <time>2016-10-09T07:37:26.000Z</time>
      </trkpt>
      <trkpt lat="47.49125" lon="6.76257">
        <ele>320</ele>
        <time>2016-10-09T07:37:27.000Z</time>
      </trkpt>
      <trkpt lat="47.49125" lon="6.76263">
        <ele>320</ele>
        <time>2016-10-09T07:37:28.000Z</time>
      </trkpt>
      <trkpt lat="47.49125" lon="6.76269">
        <ele>320</ele>
        <time>2016-10-09T07:37:29.000Z</time>
      </trkpt>
      <trkpt lat="47.49125" lon="6.76276">
        <ele>320</ele>
        <time>2016-10-09T07:37:30.000Z</time>
      </trkpt>
      <trkpt lat="47.49126" lon="6.76282">
        <ele>320</ele>
        <time>2016-10-09T07:37:31.000Z</time>
      </trkpt>
      <trkpt lat="47.49126" lon="6.76288">
        <ele>320</ele>
        <time>2016-10-09T07:37:32.000Z</time>
      </trkpt>
      <trkpt lat="47.49126" lon="6.76294">
        <ele>319</ele>
        <time>2016-10-09T07:37:33.000Z</time>
      </trkpt>
      <trkpt lat="47.49126" lon="6.763">
        <ele>319</ele>
        <time>2016-10-09T07:37:34.000Z</time>
      </trkpt>
      <trkpt lat="47.49126" lon="6.76305">
        <ele>319</ele>
        <time>2016-10-09T07:37:35.000Z</time>
      </trkpt>
      <trkpt lat="47.49127" lon="6.7631">
        <ele>319</ele>
        <time>2016-10-09T07:37:36.000Z</time>
      </trkpt>
      <trkpt lat="47.49127" lon="6.76314">
        <ele>319</ele>
        <time>2016-10-09T07:37:37.000Z</time>
      </trkpt>
      <trkpt lat="47.49127" lon="6.76319">
        <ele>319</ele>
        <time>2016-10-09T07:37:38.000Z</time>
      </trkpt>
      <trkpt lat="47.49127" lon="6.76322">
        <ele>319</ele>
        <time>2016-10-09T07:37:39.000Z</time>
      </trkpt>
      <trkpt lat="47.49127" lon="6.76327">
        <ele>319</ele>
        <time>2016-10-09T07:37:40.000Z</time>
      </trkpt>
      <trkpt lat="47.49127" lon="6.76331">
        <ele>319</ele>
        <time>2016-10-09T07:37:41.000Z</time>
      </trkpt>
      <trkpt lat="47.49126" lon="6.76335">
        <ele>318</ele>
        <time>2016-10-09T07:37:42.000Z</time>
      </trkpt>
      <trkpt lat="47.49127" lon="6.7634">
        <ele>318</ele>
        <time>2016-10-09T07:37:43.000Z</time>
      </trkpt>
      <trkpt lat="47.49127" lon="6.76346">
        <ele>318</ele>
        <time>2016-10-09T07:37:44.000Z</time>
      </trkpt>
      <trkpt lat="47.49127" lon="6.76352">
        <ele>318</ele>
        <time>2016-10-09T07:37:45.000Z</time>
      </trkpt>
      <trkpt lat="47.49128" lon="6.76358">
        <ele>318</ele>
        <time>2016-10-09T07:37:46.000Z</time>
      </trkpt>
      <trkpt lat="47.49128" lon="6.76364">
        <ele>318</ele>
        <time>2016-10-09T07:37:47.000Z</time>
      </trkpt>
      <trkpt lat="47.49128" lon="6.7637">
        <ele>318</ele>
        <time>2016-10-09T07:37:48.000Z</time>
      </trkpt>
      <trkpt lat="47.49128" lon="6.76377">
        <ele>318</ele>
        <time>2016-10-09T07:37:49.000Z</time>
      </trkpt>
      <trkpt lat="47.49128" lon="6.76383">
        <ele>317</ele>
        <time>2016-10-09T07:37:50.000Z</time>
      </trkpt>
      <trkpt lat="47.49128" lon="6.76389">
        <ele>317</ele>
        <time>2016-10-09T07:37:51.000Z</time>
      </trkpt>
      <trkpt lat="47.49128" lon="6.76395">
        <ele>317</ele>
        <time>2016-10-09T07:37:52.000Z</time>
      </trkpt>
      <trkpt lat="47.49128" lon="6.764">
        <ele>317</ele>
        <time>2016-10-09T07:37:53.000Z</time>
      </trkpt>
      <trkpt lat="47.49127" lon="6.76404">
        <ele>317</ele>
        <time>2016-10-09T07:37:54.000Z</time>
      </trkpt>
      <trkpt lat="47.49127" lon="6.76408">
        <ele>317</ele>
        <time>2016-10-09T07:37:55.000Z</time>
      </trkpt>
      <trkpt lat="47.49126" lon="6.76412">
        <ele>317</ele>
        <time>2016-10-09T07:37:56.000Z</time>
      </trkpt>
      <trkpt lat="47.49127" lon="6.76417">
        <ele>317</ele>
        <time>2016-10-09T07:37:58.000Z</time>
      </trkpt>
      <trkpt lat="47.49127" lon="6.7642">
        <ele>317</ele>
        <time>2016-10-09T07:37:59.000Z</time>
      </trkpt>
      <trkpt lat="47.49125" lon="6.76425">
        <ele>317</ele>
        <time>2016-10-09T07:38:01.000Z</time>
      </trkpt>
      <trkpt lat="47.49123" lon="6.76425">
        <ele>317</ele>
        <time>2016-10-09T07:38:02.000Z</time>
      </trkpt>
      <trkpt lat="47.4912" lon="6.76425">
        <ele>317</ele>
        <time>2016-10-09T07:38:03.000Z</time>
      </trkpt>
      <trkpt lat="47.49117" lon="6.76425">
        <ele>318</ele>
        <time>2016-10-09T07:38:04.000Z</time>
      </trkpt>
      <trkpt lat="47.49113" lon="6.76424">
        <ele>318</ele>
        <time>2016-10-09T07:38:05.000Z</time>
      </trkpt>
      <trkpt lat="47.49111" lon="6.76425">
        <ele>318</ele>
        <time>2016-10-09T07:38:06.000Z</time>
      </trkpt>
      <trkpt lat="47.49108" lon="6.76426">
        <ele>318</ele>
        <time>2016-10-09T07:38:07.000Z</time>
      </trkpt>
      <trkpt lat="47.49106" lon="6.76428">
        <ele>318</ele>
        <time>2016-10-09T07:38:08.000Z</time>
      </trkpt>
      <trkpt lat="47.49104" lon="6.76433">
        <ele>318</ele>
        <time>2016-10-09T07:38:10.000Z</time>
      </trkpt>
      <trkpt lat="47.49104" lon="6.76436">
        <ele>318</ele>
        <time>2016-10-09T07:38:11.000Z</time>
      </trkpt>
      <trkpt lat="47.49104" lon="6.7644">
        <ele>318</ele>
        <time>2016-10-09T07:38:12.000Z</time>
      </trkpt>
      <trkpt lat="47.49106" lon="6.76444">
        <ele>318</ele>
        <time>2016-10-09T07:38:13.000Z</time>
      </trkpt>
      <trkpt lat="47.49107" lon="6.76449">
        <ele>318</ele>
        <time>2016-10-09T07:38:14.000Z</time>
      </trkpt>
      <trkpt lat="47.49108" lon="6.76454">
        <ele>318</ele>
        <time>2016-10-09T07:38:15.000Z</time>
      </trkpt>
      <trkpt lat="47.49109" lon="6.76459">
        <ele>318</ele>
        <time>2016-10-09T07:38:16.000Z</time>
      </trkpt>
      <trkpt lat="47.4911" lon="6.76466">
        <ele>318</ele>
        <time>2016-10-09T07:38:17.000Z</time>
      </trkpt>
      <trkpt lat="47.4911" lon="6.76472">
        <ele>318</ele>
        <time>2016-10-09T07:38:18.000Z</time>
      </trkpt>
      <trkpt lat="47.4911" lon="6.76479">
        <ele>318</ele>
        <time>2016-10-09T07:38:19.000Z</time>
      </trkpt>
      <trkpt lat="47.49111" lon="6.76485">
        <ele>318</ele>
        <time>2016-10-09T07:38:20.000Z</time>
      </trkpt>
      <trkpt lat="47.49111" lon="6.76491">
        <ele>318</ele>
        <time>2016-10-09T07:38:21.000Z</time>
      </trkpt>
      <trkpt lat="47.49111" lon="6.76497">
        <ele>318</ele>
        <time>2016-10-09T07:38:22.000Z</time>
      </trkpt>
      <trkpt lat="47.49112" lon="6.76503">
        <ele>317</ele>
        <time>2016-10-09T07:38:23.000Z</time>
      </trkpt>
      <trkpt lat="47.49112" lon="6.7651">
        <ele>317</ele>
        <time>2016-10-09T07:38:24.000Z</time>
      </trkpt>
      <trkpt lat="47.49111" lon="6.76516">
        <ele>317</ele>
        <time>2016-10-09T07:38:25.000Z</time>
      </trkpt>
      <trkpt lat="47.4911" lon="6.76524">
        <ele>317</ele>
        <time>2016-10-09T07:38:26.000Z</time>
      </trkpt>
      <trkpt lat="47.49109" lon="6.76531">
        <ele>317</ele>
        <time>2016-10-09T07:38:27.000Z</time>
      </trkpt>
      <trkpt lat="47.49108" lon="6.76538">
        <ele>316</ele>
        <time>2016-10-09T07:38:28.000Z</time>
      </trkpt>
      <trkpt lat="47.49107" lon="6.76545">
        <ele>316</ele>
        <time>2016-10-09T07:38:29.000Z</time>
      </trkpt>
      <trkpt lat="47.49106" lon="6.76552">
        <ele>316</ele>
        <time>2016-10-09T07:38:30.000Z</time>
      </trkpt>
      <trkpt lat="47.49102" lon="6.76563">
        <ele>316</ele>
        <time>2016-10-09T07:38:31.000Z</time>
      </trkpt>
      <trkpt lat="47.491" lon="6.76572">
        <ele>316</ele>
        <time>2016-10-09T07:38:32.000Z</time>
      </trkpt>
      <trkpt lat="47.49098" lon="6.76579">
        <ele>316</ele>
        <time>2016-10-09T07:38:33.000Z</time>
      </trkpt>
      <trkpt lat="47.49095" lon="6.76587">
        <ele>316</ele>
        <time>2016-10-09T07:38:34.000Z</time>
      </trkpt>
      <trkpt lat="47.49093" lon="6.76593">
        <ele>316</ele>
        <time>2016-10-09T07:38:35.000Z</time>
      </trkpt>
      <trkpt lat="47.49091" lon="6.766">
        <ele>315</ele>
        <time>2016-10-09T07:38:36.000Z</time>
      </trkpt>
      <trkpt lat="47.49089" lon="6.76606">
        <ele>315</ele>
        <time>2016-10-09T07:38:37.000Z</time>
      </trkpt>
      <trkpt lat="47.49087" lon="6.76613">
        <ele>315</ele>
        <time>2016-10-09T07:38:38.000Z</time>
      </trkpt>
      <trkpt lat="47.49086" lon="6.7662">
        <ele>315</ele>
        <time>2016-10-09T07:38:39.000Z</time>
      </trkpt>
      <trkpt lat="47.49084" lon="6.76626">
        <ele>315</ele>
        <time>2016-10-09T07:38:40.000Z</time>
      </trkpt>
      <trkpt lat="47.49082" lon="6.76633">
        <ele>317</ele>
        <time>2016-10-09T07:38:41.000Z</time>
      </trkpt>
      <trkpt lat="47.4908" lon="6.7664">
        <ele>317</ele>
        <time>2016-10-09T07:38:42.000Z</time>
      </trkpt>
      <trkpt lat="47.49078" lon="6.76646">
        <ele>317</ele>
        <time>2016-10-09T07:38:43.000Z</time>
      </trkpt>
      <trkpt lat="47.49076" lon="6.76652">
        <ele>316</ele>
        <time>2016-10-09T07:38:44.000Z</time>
      </trkpt>
      <trkpt lat="47.49074" lon="6.76659">
        <ele>316</ele>
        <time>2016-10-09T07:38:45.000Z</time>
      </trkpt>
      <trkpt lat="47.49072" lon="6.76665">
        <ele>316</ele>
        <time>2016-10-09T07:38:46.000Z</time>
      </trkpt>
      <trkpt lat="47.4907" lon="6.76672">
        <ele>314</ele>
        <time>2016-10-09T07:38:47.000Z</time>
      </trkpt>
      <trkpt lat="47.49069" lon="6.76678">
        <ele>314</ele>
        <time>2016-10-09T07:38:48.000Z</time>
      </trkpt>
      <trkpt lat="47.49066" lon="6.76684">
        <ele>314</ele>
        <time>2016-10-09T07:38:49.000Z</time>
      </trkpt>
      <trkpt lat="47.49065" lon="6.7669">
        <ele>314</ele>
        <time>2016-10-09T07:38:50.000Z</time>
      </trkpt>
      <trkpt lat="47.49064" lon="6.76695">
        <ele>314</ele>
        <time>2016-10-09T07:38:51.000Z</time>
      </trkpt>
      <trkpt lat="47.49062" lon="6.76701">
        <ele>314</ele>
        <time>2016-10-09T07:38:52.000Z</time>
      </trkpt>
      <trkpt lat="47.4906" lon="6.76707">
        <ele>313</ele>
        <time>2016-10-09T07:38:53.000Z</time>
      </trkpt>
      <trkpt lat="47.49058" lon="6.76712">
        <ele>313</ele>
        <time>2016-10-09T07:38:54.000Z</time>
      </trkpt>
      <trkpt lat="47.49057" lon="6.76718">
        <ele>313</ele>
        <time>2016-10-09T07:38:55.000Z</time>
      </trkpt>
      <trkpt lat="47.49057" lon="6.76724">
        <ele>313</ele>
        <time>2016-10-09T07:38:56.000Z</time>
      </trkpt>
      <trkpt lat="47.49055" lon="6.7673">
        <ele>313</ele>
        <time>2016-10-09T07:38:57.000Z</time>
      </trkpt>
      <trkpt lat="47.49053" lon="6.76737">
        <ele>313</ele>
        <time>2016-10-09T07:38:58.000Z</time>
      </trkpt>
      <trkpt lat="47.49052" lon="6.76743">
        <ele>313</ele>
        <time>2016-10-09T07:38:59.000Z</time>
      </trkpt>
      <trkpt lat="47.4905" lon="6.76749">
        <ele>313</ele>
        <time>2016-10-09T07:39:00.000Z</time>
      </trkpt>
      <trkpt lat="47.49048" lon="6.76755">
        <ele>312</ele>
        <time>2016-10-09T07:39:01.000Z</time>
      </trkpt>
      <trkpt lat="47.49047" lon="6.76761">
        <ele>312</ele>
        <time>2016-10-09T07:39:02.000Z</time>
      </trkpt>
      <trkpt lat="47.49046" lon="6.76767">
        <ele>312</ele>
        <time>2016-10-09T07:39:03.000Z</time>
      </trkpt>
      <trkpt lat="47.49043" lon="6.76772">
        <ele>312</ele>
        <time>2016-10-09T07:39:05.000Z</time>
      </trkpt>
      <trkpt lat="47.49042" lon="6.76772">
        <ele>312</ele>
        <time>2016-10-09T07:39:06.000Z</time>
      </trkpt>
      <trkpt lat="47.49038" lon="6.7677">
        <ele>312</ele>
        <time>2016-10-09T07:39:09.000Z</time>
      </trkpt>
      <trkpt lat="47.49036" lon="6.76772">
        <ele>312</ele>
        <time>2016-10-09T07:39:10.000Z</time>
      </trkpt>
      <trkpt lat="47.49035" lon="6.76774">
        <ele>312</ele>
        <time>2016-10-09T07:39:11.000Z</time>
      </trkpt>
      <trkpt lat="47.49033" lon="6.76776">
        <ele>312</ele>
        <time>2016-10-09T07:39:12.000Z</time>
      </trkpt>
      <trkpt lat="47.4903" lon="6.76778">
        <ele>312</ele>
        <time>2016-10-09T07:39:13.000Z</time>
      </trkpt>
      <trkpt lat="47.49027" lon="6.76778">
        <ele>312</ele>
        <time>2016-10-09T07:39:14.000Z</time>
      </trkpt>
      <trkpt lat="47.49024" lon="6.76779">
        <ele>312</ele>
        <time>2016-10-09T07:39:15.000Z</time>
      </trkpt>
      <trkpt lat="47.4902" lon="6.76778">
        <ele>312</ele>
        <time>2016-10-09T07:39:16.000Z</time>
      </trkpt>
      <trkpt lat="47.49016" lon="6.76777">
        <ele>312</ele>
        <time>2016-10-09T07:39:17.000Z</time>
      </trkpt>
      <trkpt lat="47.49012" lon="6.76777">
        <ele>312</ele>
        <time>2016-10-09T07:39:18.000Z</time>
      </trkpt>
      <trkpt lat="47.49009" lon="6.76778">
        <ele>312</ele>
        <time>2016-10-09T07:39:19.000Z</time>
      </trkpt>
      <trkpt lat="47.49006" lon="6.76781">
        <ele>312</ele>
        <time>2016-10-09T07:39:20.000Z</time>
      </trkpt>
      <trkpt lat="47.49005" lon="6.76787">
        <ele>312</ele>
        <time>2016-10-09T07:39:21.000Z</time>
      </trkpt>
      <trkpt lat="47.49004" lon="6.76793">
        <ele>312</ele>
        <time>2016-10-09T07:39:22.000Z</time>
      </trkpt>
      <trkpt lat="47.49003" lon="6.768">
        <ele>312</ele>
        <time>2016-10-09T07:39:23.000Z</time>
      </trkpt>
      <trkpt lat="47.49003" lon="6.76806">
        <ele>312</ele>
        <time>2016-10-09T07:39:24.000Z</time>
      </trkpt>
      <trkpt lat="47.49002" lon="6.76813">
        <ele>312</ele>
        <time>2016-10-09T07:39:25.000Z</time>
      </trkpt>
      <trkpt lat="47.49001" lon="6.76819">
        <ele>312</ele>
        <time>2016-10-09T07:39:26.000Z</time>
      </trkpt>
      <trkpt lat="47.49001" lon="6.76825">
        <ele>312</ele>
        <time>2016-10-09T07:39:27.000Z</time>
      </trkpt>
      <trkpt lat="47.49" lon="6.76831">
        <ele>312</ele>
        <time>2016-10-09T07:39:28.000Z</time>
      </trkpt>
      <trkpt lat="47.49" lon="6.76836">
        <ele>312</ele>
        <time>2016-10-09T07:39:29.000Z</time>
      </trkpt>
      <trkpt lat="47.48999" lon="6.76841">
        <ele>312</ele>
        <time>2016-10-09T07:39:30.000Z</time>
      </trkpt>
      <trkpt lat="47.48999" lon="6.76847">
        <ele>312</ele>
        <time>2016-10-09T07:39:31.000Z</time>
      </trkpt>
      <trkpt lat="47.48998" lon="6.76852">
        <ele>312</ele>
        <time>2016-10-09T07:39:32.000Z</time>
      </trkpt>
      <trkpt lat="47.48998" lon="6.76857">
        <ele>312</ele>
        <time>2016-10-09T07:39:33.000Z</time>
      </trkpt>
      <trkpt lat="47.48997" lon="6.76861">
        <ele>312</ele>
        <time>2016-10-09T07:39:34.000Z</time>
      </trkpt>
      <trkpt lat="47.48996" lon="6.76866">
        <ele>312</ele>
        <time>2016-10-09T07:39:35.000Z</time>
      </trkpt>
      <trkpt lat="47.48995" lon="6.76871">
        <ele>312</ele>
        <time>2016-10-09T07:39:36.000Z</time>
      </trkpt>
      <trkpt lat="47.48994" lon="6.76876">
        <ele>312</ele>
        <time>2016-10-09T07:39:37.000Z</time>
      </trkpt>
      <trkpt lat="47.48993" lon="6.76881">
        <ele>312</ele>
        <time>2016-10-09T07:39:38.000Z</time>
      </trkpt>
      <trkpt lat="47.48992" lon="6.76887">
        <ele>312</ele>
        <time>2016-10-09T07:39:39.000Z</time>
      </trkpt>
      <trkpt lat="47.48991" lon="6.76892">
        <ele>312</ele>
        <time>2016-10-09T07:39:40.000Z</time>
      </trkpt>
      <trkpt lat="47.4899" lon="6.76898">
        <ele>312</ele>
        <time>2016-10-09T07:39:41.000Z</time>
      </trkpt>
      <trkpt lat="47.48988" lon="6.76903">
        <ele>311</ele>
        <time>2016-10-09T07:39:42.000Z</time>
      </trkpt>
      <trkpt lat="47.48987" lon="6.76908">
        <ele>311</ele>
        <time>2016-10-09T07:39:43.000Z</time>
      </trkpt>
      <trkpt lat="47.48986" lon="6.76913">
        <ele>311</ele>
        <time>2016-10-09T07:39:44.000Z</time>
      </trkpt>
      <trkpt lat="47.48984" lon="6.76918">
        <ele>311</ele>
        <time>2016-10-09T07:39:45.000Z</time>
      </trkpt>
      <trkpt lat="47.48982" lon="6.76922">
        <ele>311</ele>
        <time>2016-10-09T07:39:46.000Z</time>
      </trkpt>
      <trkpt lat="47.4898" lon="6.76926">
        <ele>311</ele>
        <time>2016-10-09T07:39:47.000Z</time>
      </trkpt>
      <trkpt lat="47.48978" lon="6.76929">
        <ele>311</ele>
        <time>2016-10-09T07:39:48.000Z</time>
      </trkpt>
      <trkpt lat="47.48977" lon="6.76932">
        <ele>311</ele>
        <time>2016-10-09T07:39:49.000Z</time>
      </trkpt>
      <trkpt lat="47.48976" lon="6.76936">
        <ele>311</ele>
        <time>2016-10-09T07:39:50.000Z</time>
      </trkpt>
      <trkpt lat="47.48976" lon="6.76941">
        <ele>311</ele>
        <time>2016-10-09T07:39:51.000Z</time>
      </trkpt>
      <trkpt lat="47.48975" lon="6.76947">
        <ele>311</ele>
        <time>2016-10-09T07:39:52.000Z</time>
      </trkpt>
      <trkpt lat="47.48975" lon="6.76953">
        <ele>311</ele>
        <time>2016-10-09T07:39:53.000Z</time>
      </trkpt>
      <trkpt lat="47.48975" lon="6.76959">
        <ele>311</ele>
        <time>2016-10-09T07:39:54.000Z</time>
      </trkpt>
      <trkpt lat="47.48974" lon="6.76966">
        <ele>311</ele>
        <time>2016-10-09T07:39:55.000Z</time>
      </trkpt>
      <trkpt lat="47.48974" lon="6.76972">
        <ele>311</ele>
        <time>2016-10-09T07:39:56.000Z</time>
      </trkpt>
      <trkpt lat="47.48974" lon="6.76979">
        <ele>311</ele>
        <time>2016-10-09T07:39:57.000Z</time>
      </trkpt>
      <trkpt lat="47.48974" lon="6.76985">
        <ele>311</ele>
        <time>2016-10-09T07:39:58.000Z</time>
      </trkpt>
      <trkpt lat="47.48974" lon="6.76991">
        <ele>311</ele>
        <time>2016-10-09T07:39:59.000Z</time>
      </trkpt>
      <trkpt lat="47.48974" lon="6.76998">
        <ele>311</ele>
        <time>2016-10-09T07:40:00.000Z</time>
      </trkpt>
      <trkpt lat="47.48974" lon="6.77003">
        <ele>311</ele>
        <time>2016-10-09T07:40:01.000Z</time>
      </trkpt>
      <trkpt lat="47.48974" lon="6.77009">
        <ele>311</ele>
        <time>2016-10-09T07:40:02.000Z</time>
      </trkpt>
      <trkpt lat="47.48974" lon="6.77014">
        <ele>311</ele>
        <time>2016-10-09T07:40:03.000Z</time>
      </trkpt>
      <trkpt lat="47.48974" lon="6.7702">
        <ele>311</ele>
        <time>2016-10-09T07:40:04.000Z</time>
      </trkpt>
      <trkpt lat="47.48974" lon="6.77026">
        <ele>311</ele>
        <time>2016-10-09T07:40:05.000Z</time>
      </trkpt>
      <trkpt lat="47.48973" lon="6.77032">
        <ele>311</ele>
        <time>2016-10-09T07:40:06.000Z</time>
      </trkpt>
      <trkpt lat="47.48973" lon="6.7704">
        <ele>311</ele>
        <time>2016-10-09T07:40:07.000Z</time>
      </trkpt>
      <trkpt lat="47.48972" lon="6.77047">
        <ele>311</ele>
        <time>2016-10-09T07:40:08.000Z</time>
      </trkpt>
      <trkpt lat="47.48971" lon="6.77053">
        <ele>311</ele>
        <time>2016-10-09T07:40:09.000Z</time>
      </trkpt>
      <trkpt lat="47.48971" lon="6.77058">
        <ele>311</ele>
        <time>2016-10-09T07:40:10.000Z</time>
      </trkpt>
      <trkpt lat="47.48972" lon="6.77063">
        <ele>311</ele>
        <time>2016-10-09T07:40:11.000Z</time>
      </trkpt>
      <trkpt lat="47.48973" lon="6.77068">
        <ele>311</ele>
        <time>2016-10-09T07:40:12.000Z</time>
      </trkpt>
      <trkpt lat="47.48973" lon="6.77073">
        <ele>311</ele>
        <time>2016-10-09T07:40:13.000Z</time>
      </trkpt>
      <trkpt lat="47.48973" lon="6.77077">
        <ele>311</ele>
        <time>2016-10-09T07:40:14.000Z</time>
      </trkpt>
      <trkpt lat="47.48973" lon="6.77082">
        <ele>311</ele>
        <time>2016-10-09T07:40:15.000Z</time>
      </trkpt>
      <trkpt lat="47.48973" lon="6.77089">
        <ele>311</ele>
        <time>2016-10-09T07:40:16.000Z</time>
      </trkpt>
      <trkpt lat="47.48973" lon="6.77094">
        <ele>311</ele>
        <time>2016-10-09T07:40:17.000Z</time>
      </trkpt>
      <trkpt lat="47.48973" lon="6.77099">
        <ele>311</ele>
        <time>2016-10-09T07:40:18.000Z</time>
      </trkpt>
      <trkpt lat="47.48973" lon="6.77104">
        <ele>311</ele>
        <time>2016-10-09T07:40:19.000Z</time>
      </trkpt>
      <trkpt lat="47.48973" lon="6.77109">
        <ele>311</ele>
        <time>2016-10-09T07:40:20.000Z</time>
      </trkpt>
      <trkpt lat="47.48973" lon="6.77114">
        <ele>311</ele>
        <time>2016-10-09T07:40:21.000Z</time>
      </trkpt>
      <trkpt lat="47.48973" lon="6.77119">
        <ele>311</ele>
        <time>2016-10-09T07:40:22.000Z</time>
      </trkpt>
      <trkpt lat="47.48969" lon="6.77129">
        <ele>311</ele>
        <time>2016-10-09T07:40:23.000Z</time>
      </trkpt>
      <trkpt lat="47.48969" lon="6.77139">
        <ele>311</ele>
        <time>2016-10-09T07:40:24.000Z</time>
      </trkpt>
      <trkpt lat="47.48969" lon="6.77147">
        <ele>311</ele>
        <time>2016-10-09T07:40:25.000Z</time>
      </trkpt>
      <trkpt lat="47.48968" lon="6.77151">
        <ele>311</ele>
        <time>2016-10-09T07:40:26.000Z</time>
      </trkpt>
      <trkpt lat="47.48969" lon="6.77155">
        <ele>311</ele>
        <time>2016-10-09T07:40:27.000Z</time>
      </trkpt>
      <trkpt lat="47.48969" lon="6.77161">
        <ele>311</ele>
        <time>2016-10-09T07:40:29.000Z</time>
      </trkpt>
      <trkpt lat="47.48969" lon="6.77164">
        <ele>311</ele>
        <time>2016-10-09T07:40:30.000Z</time>
      </trkpt>
      <trkpt lat="47.48967" lon="6.77167">
        <ele>311</ele>
        <time>2016-10-09T07:40:31.000Z</time>
      </trkpt>
      <trkpt lat="47.48966" lon="6.77172">
        <ele>311</ele>
        <time>2016-10-09T07:40:32.000Z</time>
      </trkpt>
      <trkpt lat="47.48966" lon="6.77176">
        <ele>311</ele>
        <time>2016-10-09T07:40:33.000Z</time>
      </trkpt>
      <trkpt lat="47.48964" lon="6.7718">
        <ele>311</ele>
        <time>2016-10-09T07:40:34.000Z</time>
      </trkpt>
      <trkpt lat="47.48963" lon="6.77185">
        <ele>311</ele>
        <time>2016-10-09T07:40:35.000Z</time>
      </trkpt>
      <trkpt lat="47.48962" lon="6.77191">
        <ele>311</ele>
        <time>2016-10-09T07:40:36.000Z</time>
      </trkpt>
      <trkpt lat="47.48961" lon="6.77196">
        <ele>311</ele>
        <time>2016-10-09T07:40:37.000Z</time>
      </trkpt>
      <trkpt lat="47.48959" lon="6.77201">
        <ele>311</ele>
        <time>2016-10-09T07:40:38.000Z</time>
      </trkpt>
      <trkpt lat="47.48958" lon="6.77206">
        <ele>311</ele>
        <time>2016-10-09T07:40:39.000Z</time>
      </trkpt>
      <trkpt lat="47.48956" lon="6.77212">
        <ele>311</ele>
        <time>2016-10-09T07:40:40.000Z</time>
      </trkpt>
      <trkpt lat="47.48955" lon="6.77216">
        <ele>311</ele>
        <time>2016-10-09T07:40:41.000Z</time>
      </trkpt>
      <trkpt lat="47.48955" lon="6.77221">
        <ele>311</ele>
        <time>2016-10-09T07:40:42.000Z</time>
      </trkpt>
      <trkpt lat="47.48954" lon="6.77226">
        <ele>311</ele>
        <time>2016-10-09T07:40:43.000Z</time>
      </trkpt>
      <trkpt lat="47.48953" lon="6.77231">
        <ele>311</ele>
        <time>2016-10-09T07:40:44.000Z</time>
      </trkpt>
      <trkpt lat="47.48951" lon="6.77236">
        <ele>311</ele>
        <time>2016-10-09T07:40:45.000Z</time>
      </trkpt>
      <trkpt lat="47.48949" lon="6.77242">
        <ele>311</ele>
        <time>2016-10-09T07:40:46.000Z</time>
      </trkpt>
      <trkpt lat="47.48947" lon="6.77249">
        <ele>311</ele>
        <time>2016-10-09T07:40:47.000Z</time>
      </trkpt>
      <trkpt lat="47.48945" lon="6.77255">
        <ele>311</ele>
        <time>2016-10-09T07:40:48.000Z</time>
      </trkpt>
      <trkpt lat="47.48943" lon="6.77261">
        <ele>311</ele>
        <time>2016-10-09T07:40:49.000Z</time>
      </trkpt>
      <trkpt lat="47.48938" lon="6.77269">
        <ele>311</ele>
        <time>2016-10-09T07:40:50.000Z</time>
      </trkpt>
      <trkpt lat="47.48936" lon="6.77274">
        <ele>311</ele>
        <time>2016-10-09T07:40:51.000Z</time>
      </trkpt>
      <trkpt lat="47.48934" lon="6.7728">
        <ele>311</ele>
        <time>2016-10-09T07:40:52.000Z</time>
      </trkpt>
      <trkpt lat="47.48931" lon="6.77285">
        <ele>311</ele>
        <time>2016-10-09T07:40:53.000Z</time>
      </trkpt>
      <trkpt lat="47.48929" lon="6.77291">
        <ele>311</ele>
        <time>2016-10-09T07:40:54.000Z</time>
      </trkpt>
      <trkpt lat="47.48927" lon="6.77297">
        <ele>311</ele>
        <time>2016-10-09T07:40:55.000Z</time>
      </trkpt>
      <trkpt lat="47.48923" lon="6.77299">
        <ele>311</ele>
        <time>2016-10-09T07:40:57.000Z</time>
      </trkpt>
      <trkpt lat="47.4892" lon="6.77299">
        <ele>311</ele>
        <time>2016-10-09T07:40:58.000Z</time>
      </trkpt>
      <trkpt lat="47.48917" lon="6.77298">
        <ele>311</ele>
        <time>2016-10-09T07:40:59.000Z</time>
      </trkpt>
      <trkpt lat="47.48913" lon="6.77298">
        <ele>310</ele>
        <time>2016-10-09T07:41:00.000Z</time>
      </trkpt>
      <trkpt lat="47.48909" lon="6.77297">
        <ele>310</ele>
        <time>2016-10-09T07:41:01.000Z</time>
      </trkpt>
      <trkpt lat="47.48906" lon="6.77296">
        <ele>310</ele>
        <time>2016-10-09T07:41:02.000Z</time>
      </trkpt>
      <trkpt lat="47.48902" lon="6.77295">
        <ele>310</ele>
        <time>2016-10-09T07:41:03.000Z</time>
      </trkpt>
      <trkpt lat="47.48898" lon="6.77294">
        <ele>310</ele>
        <time>2016-10-09T07:41:04.000Z</time>
      </trkpt>
      <trkpt lat="47.48895" lon="6.77293">
        <ele>310</ele>
        <time>2016-10-09T07:41:05.000Z</time>
      </trkpt>
      <trkpt lat="47.48891" lon="6.77292">
        <ele>310</ele>
        <time>2016-10-09T07:41:06.000Z</time>
      </trkpt>
      <trkpt lat="47.48888" lon="6.77291">
        <ele>310</ele>
        <time>2016-10-09T07:41:07.000Z</time>
      </trkpt>
      <trkpt lat="47.48884" lon="6.7729">
        <ele>310</ele>
        <time>2016-10-09T07:41:08.000Z</time>
      </trkpt>
      <trkpt lat="47.4888" lon="6.77288">
        <ele>310</ele>
        <time>2016-10-09T07:41:10.000Z</time>
      </trkpt>
      <trkpt lat="47.48879" lon="6.77289">
        <ele>310</ele>
        <time>2016-10-09T07:41:11.000Z</time>
      </trkpt>
      <trkpt lat="47.48882" lon="6.77292">
        <ele>310</ele>
        <time>2016-10-09T07:41:14.000Z</time>
      </trkpt>
      <trkpt lat="47.48884" lon="6.77291">
        <ele>310</ele>
        <time>2016-10-09T07:41:15.000Z</time>
      </trkpt>
      <trkpt lat="47.48886" lon="6.77291">
        <ele>310</ele>
        <time>2016-10-09T07:41:16.000Z</time>
      </trkpt>
      <trkpt lat="47.48889" lon="6.7729">
        <ele>310</ele>
        <time>2016-10-09T07:41:17.000Z</time>
      </trkpt>
      <trkpt lat="47.48894" lon="6.7729">
        <ele>310</ele>
        <time>2016-10-09T07:41:18.000Z</time>
      </trkpt>
      <trkpt lat="47.48898" lon="6.77291">
        <ele>310</ele>
        <time>2016-10-09T07:41:19.000Z</time>
      </trkpt>
      <trkpt lat="47.48903" lon="6.77293">
        <ele>310</ele>
        <time>2016-10-09T07:41:20.000Z</time>
      </trkpt>
      <trkpt lat="47.48908" lon="6.77294">
        <ele>310</ele>
        <time>2016-10-09T07:41:21.000Z</time>
      </trkpt>
      <trkpt lat="47.48912" lon="6.77296">
        <ele>310</ele>
        <time>2016-10-09T07:41:22.000Z</time>
      </trkpt>
      <trkpt lat="47.48917" lon="6.77297">
        <ele>310</ele>
        <time>2016-10-09T07:41:23.000Z</time>
      </trkpt>
      <trkpt lat="47.48921" lon="6.77298">
        <ele>311</ele>
        <time>2016-10-09T07:41:24.000Z</time>
      </trkpt>
      <trkpt lat="47.48925" lon="6.77299">
        <ele>311</ele>
        <time>2016-10-09T07:41:25.000Z</time>
      </trkpt>
      <trkpt lat="47.4893" lon="6.77301">
        <ele>311</ele>
        <time>2016-10-09T07:41:26.000Z</time>
      </trkpt>
      <trkpt lat="47.48936" lon="6.77303">
        <ele>311</ele>
        <time>2016-10-09T07:41:27.000Z</time>
      </trkpt>
      <trkpt lat="47.4894" lon="6.77305">
        <ele>311</ele>
        <time>2016-10-09T07:41:28.000Z</time>
      </trkpt>
      <trkpt lat="47.48945" lon="6.77306">
        <ele>311</ele>
        <time>2016-10-09T07:41:29.000Z</time>
      </trkpt>
      <trkpt lat="47.4895" lon="6.77308">
        <ele>311</ele>
        <time>2016-10-09T07:41:30.000Z</time>
      </trkpt>
      <trkpt lat="47.48955" lon="6.77309">
        <ele>311</ele>
        <time>2016-10-09T07:41:31.000Z</time>
      </trkpt>
      <trkpt lat="47.48959" lon="6.7731">
        <ele>311</ele>
        <time>2016-10-09T07:41:32.000Z</time>
      </trkpt>
      <trkpt lat="47.48964" lon="6.77311">
        <ele>311</ele>
        <time>2016-10-09T07:41:33.000Z</time>
      </trkpt>
      <trkpt lat="47.48969" lon="6.77312">
        <ele>311</ele>
        <time>2016-10-09T07:41:34.000Z</time>
      </trkpt>
      <trkpt lat="47.48974" lon="6.77312">
        <ele>311</ele>
        <time>2016-10-09T07:41:35.000Z</time>
      </trkpt>
      <trkpt lat="47.48979" lon="6.77313">
        <ele>311</ele>
        <time>2016-10-09T07:41:36.000Z</time>
      </trkpt>
      <trkpt lat="47.48983" lon="6.77313">
        <ele>311</ele>
        <time>2016-10-09T07:41:37.000Z</time>
      </trkpt>
      <trkpt lat="47.48988" lon="6.77314">
        <ele>311</ele>
        <time>2016-10-09T07:41:38.000Z</time>
      </trkpt>
      <trkpt lat="47.48993" lon="6.77315">
        <ele>311</ele>
        <time>2016-10-09T07:41:39.000Z</time>
      </trkpt>
      <trkpt lat="47.48999" lon="6.77317">
        <ele>311</ele>
        <time>2016-10-09T07:41:40.000Z</time>
      </trkpt>
      <trkpt lat="47.49004" lon="6.77317">
        <ele>311</ele>
        <time>2016-10-09T07:41:41.000Z</time>
      </trkpt>
      <trkpt lat="47.49009" lon="6.77318">
        <ele>311</ele>
        <time>2016-10-09T07:41:42.000Z</time>
      </trkpt>
      <trkpt lat="47.49013" lon="6.77317">
        <ele>311</ele>
        <time>2016-10-09T07:41:43.000Z</time>
      </trkpt>
      <trkpt lat="47.49015" lon="6.77318">
        <ele>311</ele>
        <time>2016-10-09T07:41:44.000Z</time>
      </trkpt>
      <trkpt lat="47.49018" lon="6.77322">
        <ele>311</ele>
        <time>2016-10-09T07:41:46.000Z</time>
      </trkpt>
      <trkpt lat="47.49018" lon="6.77328">
        <ele>311</ele>
        <time>2016-10-09T07:41:47.000Z</time>
      </trkpt>
      <trkpt lat="47.49018" lon="6.77337">
        <ele>311</ele>
        <time>2016-10-09T07:41:48.000Z</time>
      </trkpt>
      <trkpt lat="47.49019" lon="6.77344">
        <ele>311</ele>
        <time>2016-10-09T07:41:49.000Z</time>
      </trkpt>
      <trkpt lat="47.4902" lon="6.77351">
        <ele>311</ele>
        <time>2016-10-09T07:41:50.000Z</time>
      </trkpt>
      <trkpt lat="47.49021" lon="6.77357">
        <ele>311</ele>
        <time>2016-10-09T07:41:51.000Z</time>
      </trkpt>
      <trkpt lat="47.4902" lon="6.77365">
        <ele>311</ele>
        <time>2016-10-09T07:41:52.000Z</time>
      </trkpt>
      <trkpt lat="47.49021" lon="6.77371">
        <ele>311</ele>
        <time>2016-10-09T07:41:53.000Z</time>
      </trkpt>
      <trkpt lat="47.49021" lon="6.77376">
        <ele>310</ele>
        <time>2016-10-09T07:41:54.000Z</time>
      </trkpt>
      <trkpt lat="47.49021" lon="6.77381">
        <ele>310</ele>
        <time>2016-10-09T07:41:55.000Z</time>
      </trkpt>
      <trkpt lat="47.49021" lon="6.77383">
        <ele>310</ele>
        <time>2016-10-09T07:41:56.000Z</time>
      </trkpt>
      <trkpt lat="47.49019" lon="6.77388">
        <ele>310</ele>
        <time>2016-10-09T07:41:57.000Z</time>
      </trkpt>
      <trkpt lat="47.49017" lon="6.77393">
        <ele>310</ele>
        <time>2016-10-09T07:41:58.000Z</time>
      </trkpt>
      <trkpt lat="47.49017" lon="6.77397">
        <ele>310</ele>
        <time>2016-10-09T07:41:59.000Z</time>
      </trkpt>
      <trkpt lat="47.49017" lon="6.77403">
        <ele>310</ele>
        <time>2016-10-09T07:42:00.000Z</time>
      </trkpt>
      <trkpt lat="47.49017" lon="6.77408">
        <ele>310</ele>
        <time>2016-10-09T07:42:01.000Z</time>
      </trkpt>
      <trkpt lat="47.49017" lon="6.77413">
        <ele>310</ele>
        <time>2016-10-09T07:42:02.000Z</time>
      </trkpt>
      <trkpt lat="47.49017" lon="6.77418">
        <ele>310</ele>
        <time>2016-10-09T07:42:03.000Z</time>
      </trkpt>
      <trkpt lat="47.49017" lon="6.77423">
        <ele>310</ele>
        <time>2016-10-09T07:42:04.000Z</time>
      </trkpt>
      <trkpt lat="47.49017" lon="6.77429">
        <ele>310</ele>
        <time>2016-10-09T07:42:05.000Z</time>
      </trkpt>
      <trkpt lat="47.49017" lon="6.77435">
        <ele>310</ele>
        <time>2016-10-09T07:42:06.000Z</time>
      </trkpt>
      <trkpt lat="47.49017" lon="6.77441">
        <ele>310</ele>
        <time>2016-10-09T07:42:07.000Z</time>
      </trkpt>
      <trkpt lat="47.49018" lon="6.77447">
        <ele>310</ele>
        <time>2016-10-09T07:42:08.000Z</time>
      </trkpt>
      <trkpt lat="47.49017" lon="6.77453">
        <ele>310</ele>
        <time>2016-10-09T07:42:09.000Z</time>
      </trkpt>
      <trkpt lat="47.49017" lon="6.77459">
        <ele>310</ele>
        <time>2016-10-09T07:42:10.000Z</time>
      </trkpt>
      <trkpt lat="47.49016" lon="6.77465">
        <ele>310</ele>
        <time>2016-10-09T07:42:11.000Z</time>
      </trkpt>
      <trkpt lat="47.49015" lon="6.77471">
        <ele>310</ele>
        <time>2016-10-09T07:42:12.000Z</time>
      </trkpt>
      <trkpt lat="47.49014" lon="6.77478">
        <ele>310</ele>
        <time>2016-10-09T07:42:13.000Z</time>
      </trkpt>
      <trkpt lat="47.49013" lon="6.77484">
        <ele>311</ele>
        <time>2016-10-09T07:42:14.000Z</time>
      </trkpt>
      <trkpt lat="47.49012" lon="6.77491">
        <ele>311</ele>
        <time>2016-10-09T07:42:15.000Z</time>
      </trkpt>
      <trkpt lat="47.49012" lon="6.77498">
        <ele>311</ele>
        <time>2016-10-09T07:42:16.000Z</time>
      </trkpt>
      <trkpt lat="47.49012" lon="6.77504">
        <ele>311</ele>
        <time>2016-10-09T07:42:17.000Z</time>
      </trkpt>
      <trkpt lat="47.49012" lon="6.7751">
        <ele>311</ele>
        <time>2016-10-09T07:42:18.000Z</time>
      </trkpt>
      <trkpt lat="47.49012" lon="6.77515">
        <ele>311</ele>
        <time>2016-10-09T07:42:19.000Z</time>
      </trkpt>
      <trkpt lat="47.49012" lon="6.7752">
        <ele>311</ele>
        <time>2016-10-09T07:42:20.000Z</time>
      </trkpt>
      <trkpt lat="47.49011" lon="6.77524">
        <ele>311</ele>
        <time>2016-10-09T07:42:21.000Z</time>
      </trkpt>
      <trkpt lat="47.49011" lon="6.77528">
        <ele>311</ele>
        <time>2016-10-09T07:42:22.000Z</time>
      </trkpt>
      <trkpt lat="47.4901" lon="6.77531">
        <ele>311</ele>
        <time>2016-10-09T07:42:23.000Z</time>
      </trkpt>
      <trkpt lat="47.49007" lon="6.77536">
        <ele>312</ele>
        <time>2016-10-09T07:42:25.000Z</time>
      </trkpt>
      <trkpt lat="47.49005" lon="6.77538">
        <ele>312</ele>
        <time>2016-10-09T07:42:26.000Z</time>
      </trkpt>
      <trkpt lat="47.49003" lon="6.7754">
        <ele>312</ele>
        <time>2016-10-09T07:42:27.000Z</time>
      </trkpt>
      <trkpt lat="47.49" lon="6.77543">
        <ele>312</ele>
        <time>2016-10-09T07:42:28.000Z</time>
      </trkpt>
      <trkpt lat="47.48998" lon="6.77545">
        <ele>313</ele>
        <time>2016-10-09T07:42:29.000Z</time>
      </trkpt>
      <trkpt lat="47.48996" lon="6.77547">
        <ele>313</ele>
        <time>2016-10-09T07:42:30.000Z</time>
      </trkpt>
      <trkpt lat="47.48993" lon="6.7755">
        <ele>313</ele>
        <time>2016-10-09T07:42:31.000Z</time>
      </trkpt>
      <trkpt lat="47.4899" lon="6.77553">
        <ele>313</ele>
        <time>2016-10-09T07:42:32.000Z</time>
      </trkpt>
      <trkpt lat="47.48987" lon="6.77556">
        <ele>313</ele>
        <time>2016-10-09T07:42:33.000Z</time>
      </trkpt>
      <trkpt lat="47.48984" lon="6.77559">
        <ele>313</ele>
        <time>2016-10-09T07:42:34.000Z</time>
      </trkpt>
      <trkpt lat="47.48981" lon="6.77563">
        <ele>313</ele>
        <time>2016-10-09T07:42:35.000Z</time>
      </trkpt>
      <trkpt lat="47.48978" lon="6.77566">
        <ele>313</ele>
        <time>2016-10-09T07:42:36.000Z</time>
      </trkpt>
      <trkpt lat="47.48976" lon="6.77569">
        <ele>313</ele>
        <time>2016-10-09T07:42:37.000Z</time>
      </trkpt>
      <trkpt lat="47.48973" lon="6.77572">
        <ele>313</ele>
        <time>2016-10-09T07:42:38.000Z</time>
      </trkpt>
      <trkpt lat="47.48971" lon="6.77575">
        <ele>313</ele>
        <time>2016-10-09T07:42:39.000Z</time>
      </trkpt>
      <trkpt lat="47.48969" lon="6.77578">
        <ele>313</ele>
        <time>2016-10-09T07:42:40.000Z</time>
      </trkpt>
      <trkpt lat="47.48967" lon="6.77581">
        <ele>313</ele>
        <time>2016-10-09T07:42:41.000Z</time>
      </trkpt>
      <trkpt lat="47.48964" lon="6.77584">
        <ele>315</ele>
        <time>2016-10-09T07:42:42.000Z</time>
      </trkpt>
      <trkpt lat="47.48961" lon="6.77588">
        <ele>315</ele>
        <time>2016-10-09T07:42:43.000Z</time>
      </trkpt>
      <trkpt lat="47.48957" lon="6.77592">
        <ele>315</ele>
        <time>2016-10-09T07:42:44.000Z</time>
      </trkpt>
      <trkpt lat="47.48953" lon="6.77596">
        <ele>315</ele>
        <time>2016-10-09T07:42:45.000Z</time>
      </trkpt>
      <trkpt lat="47.48949" lon="6.77599">
        <ele>316</ele>
        <time>2016-10-09T07:42:46.000Z</time>
      </trkpt>
      <trkpt lat="47.48945" lon="6.77599">
        <ele>316</ele>
        <time>2016-10-09T07:42:47.000Z</time>
      </trkpt>
      <trkpt lat="47.48942" lon="6.776">
        <ele>316</ele>
        <time>2016-10-09T07:42:48.000Z</time>
      </trkpt>
      <trkpt lat="47.48938" lon="6.776">
        <ele>316</ele>
        <time>2016-10-09T07:42:49.000Z</time>
      </trkpt>
      <trkpt lat="47.48936" lon="6.77601">
        <ele>316</ele>
        <time>2016-10-09T07:42:50.000Z</time>
      </trkpt>
      <trkpt lat="47.48933" lon="6.77605">
        <ele>316</ele>
        <time>2016-10-09T07:42:54.000Z</time>
      </trkpt>
      <trkpt lat="47.48933" lon="6.77605">
        <ele>316</ele>
        <time>2016-10-09T07:42:55.000Z</time>
      </trkpt>
      <trkpt lat="47.48929" lon="6.77609">
        <ele>316</ele>
        <time>2016-10-09T07:43:00.000Z</time>
      </trkpt>
      <trkpt lat="47.48928" lon="6.7761">
        <ele>316</ele>
        <time>2016-10-09T07:43:01.000Z</time>
      </trkpt>
      <trkpt lat="47.48925" lon="6.77612">
        <ele>316</ele>
        <time>2016-10-09T07:43:06.000Z</time>
      </trkpt>
      <trkpt lat="47.48924" lon="6.77613">
        <ele>316</ele>
        <time>2016-10-09T07:43:07.000Z</time>
      </trkpt>
      <trkpt lat="47.48921" lon="6.77615">
        <ele>316</ele>
        <time>2016-10-09T07:43:09.000Z</time>
      </trkpt>
      <trkpt lat="47.4892" lon="6.77616">
        <ele>316</ele>
        <time>2016-10-09T07:43:10.000Z</time>
      </trkpt>
      <trkpt lat="47.48917" lon="6.77622">
        <ele>317</ele>
        <time>2016-10-09T07:43:13.000Z</time>
      </trkpt>
      <trkpt lat="47.48916" lon="6.77623">
        <ele>320</ele>
        <time>2016-10-09T07:43:14.000Z</time>
      </trkpt>
      <trkpt lat="47.48914" lon="6.77628">
        <ele>320</ele>
        <time>2016-10-09T07:43:17.000Z</time>
      </trkpt>
      <trkpt lat="47.48914" lon="6.7763">
        <ele>320</ele>
        <time>2016-10-09T07:43:18.000Z</time>
      </trkpt>
      <trkpt lat="47.48913" lon="6.77635">
        <ele>320</ele>
        <time>2016-10-09T07:43:21.000Z</time>
      </trkpt>
      <trkpt lat="47.48912" lon="6.77637">
        <ele>320</ele>
        <time>2016-10-09T07:43:22.000Z</time>
      </trkpt>
      <trkpt lat="47.4891" lon="6.77641">
        <ele>321</ele>
        <time>2016-10-09T07:43:27.000Z</time>
      </trkpt>
      <trkpt lat="47.48909" lon="6.77643">
        <ele>321</ele>
        <time>2016-10-09T07:43:28.000Z</time>
      </trkpt>
      <trkpt lat="47.48906" lon="6.77647">
        <ele>321</ele>
        <time>2016-10-09T07:43:30.000Z</time>
      </trkpt>
      <trkpt lat="47.48905" lon="6.77649">
        <ele>321</ele>
        <time>2016-10-09T07:43:31.000Z</time>
      </trkpt>
      <trkpt lat="47.48908" lon="6.77648">
        <ele>321</ele>
        <time>2016-10-09T07:43:36.000Z</time>
      </trkpt>
      <trkpt lat="47.48912" lon="6.7765">
        <ele>321</ele>
        <time>2016-10-09T07:43:37.000Z</time>
      </trkpt>
      <trkpt lat="47.48915" lon="6.77652">
        <ele>321</ele>
        <time>2016-10-09T07:43:38.000Z</time>
      </trkpt>
      <trkpt lat="47.48919" lon="6.77653">
        <ele>319</ele>
        <time>2016-10-09T07:43:39.000Z</time>
      </trkpt>
      <trkpt lat="47.48922" lon="6.77655">
        <ele>319</ele>
        <time>2016-10-09T07:43:40.000Z</time>
      </trkpt>
      <trkpt lat="47.48924" lon="6.77654">
        <ele>319</ele>
        <time>2016-10-09T07:43:41.000Z</time>
      </trkpt>
      <trkpt lat="47.48924" lon="6.77649">
        <ele>318</ele>
        <time>2016-10-09T07:43:44.000Z</time>
      </trkpt>
      <trkpt lat="47.48922" lon="6.77646">
        <ele>318</ele>
        <time>2016-10-09T07:43:45.000Z</time>
      </trkpt>
      <trkpt lat="47.48919" lon="6.77644">
        <ele>318</ele>
        <time>2016-10-09T07:43:46.000Z</time>
      </trkpt>
      <trkpt lat="47.48916" lon="6.7764">
        <ele>321</ele>
        <time>2016-10-09T07:43:47.000Z</time>
      </trkpt>
      <trkpt lat="47.48913" lon="6.77637">
        <ele>320</ele>
        <time>2016-10-09T07:43:48.000Z</time>
      </trkpt>
      <trkpt lat="47.48909" lon="6.77635">
        <ele>320</ele>
        <time>2016-10-09T07:43:49.000Z</time>
      </trkpt>
      <trkpt lat="47.48907" lon="6.77633">
        <ele>320</ele>
        <time>2016-10-09T07:43:50.000Z</time>
      </trkpt>
      <trkpt lat="47.48904" lon="6.77631">
        <ele>320</ele>
        <time>2016-10-09T07:43:51.000Z</time>
      </trkpt>
      <trkpt lat="47.48901" lon="6.77627">
        <ele>320</ele>
        <time>2016-10-09T07:43:53.000Z</time>
      </trkpt>
      <trkpt lat="47.489" lon="6.77625">
        <ele>320</ele>
        <time>2016-10-09T07:43:54.000Z</time>
      </trkpt>
      <trkpt lat="47.48898" lon="6.77622">
        <ele>320</ele>
        <time>2016-10-09T07:43:55.000Z</time>
      </trkpt>
      <trkpt lat="47.48896" lon="6.77619">
        <ele>320</ele>
        <time>2016-10-09T07:43:56.000Z</time>
      </trkpt>
      <trkpt lat="47.48894" lon="6.77616">
        <ele>320</ele>
        <time>2016-10-09T07:43:57.000Z</time>
      </trkpt>
      <trkpt lat="47.48891" lon="6.77612">
        <ele>320</ele>
        <time>2016-10-09T07:43:58.000Z</time>
      </trkpt>
      <trkpt lat="47.48887" lon="6.77608">
        <ele>320</ele>
        <time>2016-10-09T07:43:59.000Z</time>
      </trkpt>
      <trkpt lat="47.48884" lon="6.77605">
        <ele>320</ele>
        <time>2016-10-09T07:44:00.000Z</time>
      </trkpt>
      <trkpt lat="47.48881" lon="6.77601">
        <ele>320</ele>
        <time>2016-10-09T07:44:01.000Z</time>
      </trkpt>
      <trkpt lat="47.48878" lon="6.77598">
        <ele>320</ele>
        <time>2016-10-09T07:44:02.000Z</time>
      </trkpt>
      <trkpt lat="47.48876" lon="6.77595">
        <ele>320</ele>
        <time>2016-10-09T07:44:03.000Z</time>
      </trkpt>
      <trkpt lat="47.48874" lon="6.77593">
        <ele>320</ele>
        <time>2016-10-09T07:44:04.000Z</time>
      </trkpt>
      <trkpt lat="47.48871" lon="6.77587">
        <ele>320</ele>
        <time>2016-10-09T07:44:07.000Z</time>
      </trkpt>
      <trkpt lat="47.48871" lon="6.77586">
        <ele>320</ele>
        <time>2016-10-09T07:44:08.000Z</time>
      </trkpt>
      <trkpt lat="47.48869" lon="6.7758">
        <ele>317</ele>
        <time>2016-10-09T07:44:13.000Z</time>
      </trkpt>
      <trkpt lat="47.48867" lon="6.77579">
        <ele>317</ele>
        <time>2016-10-09T07:44:14.000Z</time>
      </trkpt>
      <trkpt lat="47.48864" lon="6.77578">
        <ele>317</ele>
        <time>2016-10-09T07:44:15.000Z</time>
      </trkpt>
      <trkpt lat="47.48862" lon="6.77578">
        <ele>317</ele>
        <time>2016-10-09T07:44:16.000Z</time>
      </trkpt>
      <trkpt lat="47.48859" lon="6.77577">
        <ele>317</ele>
        <time>2016-10-09T07:44:17.000Z</time>
      </trkpt>
      <trkpt lat="47.48856" lon="6.77576">
        <ele>317</ele>
        <time>2016-10-09T07:44:18.000Z</time>
      </trkpt>
      <trkpt lat="47.48854" lon="6.77573">
        <ele>317</ele>
        <time>2016-10-09T07:44:20.000Z</time>
      </trkpt>
      <trkpt lat="47.48852" lon="6.77572">
        <ele>317</ele>
        <time>2016-10-09T07:44:21.000Z</time>
      </trkpt>
      <trkpt lat="47.48849" lon="6.7757">
        <ele>317</ele>
        <time>2016-10-09T07:44:23.000Z</time>
      </trkpt>
      <trkpt lat="47.48848" lon="6.77569">
        <ele>318</ele>
        <time>2016-10-09T07:44:24.000Z</time>
      </trkpt>
      <trkpt lat="47.48844" lon="6.77566">
        <ele>318</ele>
        <time>2016-10-09T07:44:26.000Z</time>
      </trkpt>
      <trkpt lat="47.48842" lon="6.77565">
        <ele>318</ele>
        <time>2016-10-09T07:44:27.000Z</time>
      </trkpt>
      <trkpt lat="47.48838" lon="6.77562">
        <ele>317</ele>
        <time>2016-10-09T07:44:29.000Z</time>
      </trkpt>
      <trkpt lat="47.48836" lon="6.7756">
        <ele>317</ele>
        <time>2016-10-09T07:44:30.000Z</time>
      </trkpt>
      <trkpt lat="47.48833" lon="6.77558">
        <ele>323</ele>
        <time>2016-10-09T07:44:33.000Z</time>
      </trkpt>
      <trkpt lat="47.48831" lon="6.77558">
        <ele>323</ele>
        <time>2016-10-09T07:44:34.000Z</time>
      </trkpt>
      <trkpt lat="47.48828" lon="6.77557">
        <ele>323</ele>
        <time>2016-10-09T07:44:36.000Z</time>
      </trkpt>
      <trkpt lat="47.48826" lon="6.77557">
        <ele>323</ele>
        <time>2016-10-09T07:44:37.000Z</time>
      </trkpt>
      <trkpt lat="47.48823" lon="6.77555">
        <ele>324</ele>
        <time>2016-10-09T07:44:41.000Z</time>
      </trkpt>
      <trkpt lat="47.48822" lon="6.77553">
        <ele>324</ele>
        <time>2016-10-09T07:44:42.000Z</time>
      </trkpt>
      <trkpt lat="47.4882" lon="6.77551">
        <ele>324</ele>
        <time>2016-10-09T07:44:44.000Z</time>
      </trkpt>
      <trkpt lat="47.48818" lon="6.7755">
        <ele>324</ele>
        <time>2016-10-09T07:44:45.000Z</time>
      </trkpt>
      <trkpt lat="47.48814" lon="6.77548">
        <ele>324</ele>
        <time>2016-10-09T07:44:47.000Z</time>
      </trkpt>
      <trkpt lat="47.48812" lon="6.77547">
        <ele>324</ele>
        <time>2016-10-09T07:44:48.000Z</time>
      </trkpt>
      <trkpt lat="47.48808" lon="6.77546">
        <ele>325</ele>
        <time>2016-10-09T07:44:50.000Z</time>
      </trkpt>
      <trkpt lat="47.48805" lon="6.77545">
        <ele>325</ele>
        <time>2016-10-09T07:44:51.000Z</time>
      </trkpt>
      <trkpt lat="47.48802" lon="6.77543">
        <ele>325</ele>
        <time>2016-10-09T07:44:52.000Z</time>
      </trkpt>
      <trkpt lat="47.488" lon="6.77542">
        <ele>325</ele>
        <time>2016-10-09T07:44:53.000Z</time>
      </trkpt>
      <trkpt lat="47.48797" lon="6.7754">
        <ele>326</ele>
        <time>2016-10-09T07:44:54.000Z</time>
      </trkpt>
      <trkpt lat="47.48795" lon="6.77539">
        <ele>326</ele>
        <time>2016-10-09T07:44:55.000Z</time>
      </trkpt>
      <trkpt lat="47.48792" lon="6.77536">
        <ele>326</ele>
        <time>2016-10-09T07:44:57.000Z</time>
      </trkpt>
      <trkpt lat="47.4879" lon="6.77536">
        <ele>326</ele>
        <time>2016-10-09T07:44:58.000Z</time>
      </trkpt>
      <trkpt lat="47.48787" lon="6.77535">
        <ele>327</ele>
        <time>2016-10-09T07:44:59.000Z</time>
      </trkpt>
      <trkpt lat="47.48784" lon="6.77535">
        <ele>327</ele>
        <time>2016-10-09T07:45:00.000Z</time>
      </trkpt>
      <trkpt lat="47.48781" lon="6.77535">
        <ele>327</ele>
        <time>2016-10-09T07:45:01.000Z</time>
      </trkpt>
      <trkpt lat="47.48778" lon="6.77535">
        <ele>327</ele>
        <time>2016-10-09T07:45:02.000Z</time>
      </trkpt>
      <trkpt lat="47.48776" lon="6.77534">
        <ele>328</ele>
        <time>2016-10-09T07:45:03.000Z</time>
      </trkpt>
      <trkpt lat="47.48773" lon="6.77534">
        <ele>328</ele>
        <time>2016-10-09T07:45:04.000Z</time>
      </trkpt>
      <trkpt lat="47.48769" lon="6.77534">
        <ele>328</ele>
        <time>2016-10-09T07:45:06.000Z</time>
      </trkpt>
      <trkpt lat="47.48768" lon="6.77533">
        <ele>328</ele>
        <time>2016-10-09T07:45:07.000Z</time>
      </trkpt>
      <trkpt lat="47.48764" lon="6.7753">
        <ele>329</ele>
        <time>2016-10-09T07:45:14.000Z</time>
      </trkpt>
      <trkpt lat="47.48764" lon="6.7753">
        <ele>329</ele>
        <time>2016-10-09T07:45:15.000Z</time>
      </trkpt>
      <trkpt lat="47.4876" lon="6.7753">
        <ele>329</ele>
        <time>2016-10-09T07:45:17.000Z</time>
      </trkpt>
      <trkpt lat="47.48759" lon="6.7753">
        <ele>329</ele>
        <time>2016-10-09T07:45:18.000Z</time>
      </trkpt>
      <trkpt lat="47.48755" lon="6.77529">
        <ele>329</ele>
        <time>2016-10-09T07:45:20.000Z</time>
      </trkpt>
      <trkpt lat="47.48753" lon="6.77528">
        <ele>329</ele>
        <time>2016-10-09T07:45:21.000Z</time>
      </trkpt>
      <trkpt lat="47.48751" lon="6.77527">
        <ele>329</ele>
        <time>2016-10-09T07:45:22.000Z</time>
      </trkpt>
      <trkpt lat="47.48748" lon="6.77526">
        <ele>335</ele>
        <time>2016-10-09T07:45:23.000Z</time>
      </trkpt>
      <trkpt lat="47.48745" lon="6.77525">
        <ele>335</ele>
        <time>2016-10-09T07:45:24.000Z</time>
      </trkpt>
      <trkpt lat="47.48743" lon="6.77524">
        <ele>335</ele>
        <time>2016-10-09T07:45:25.000Z</time>
      </trkpt>
      <trkpt lat="47.4874" lon="6.77523">
        <ele>335</ele>
        <time>2016-10-09T07:45:26.000Z</time>
      </trkpt>
      <trkpt lat="47.48738" lon="6.77523">
        <ele>335</ele>
        <time>2016-10-09T07:45:27.000Z</time>
      </trkpt>
      <trkpt lat="47.48734" lon="6.77522">
        <ele>335</ele>
        <time>2016-10-09T07:45:29.000Z</time>
      </trkpt>
      <trkpt lat="47.48733" lon="6.77521">
        <ele>335</ele>
        <time>2016-10-09T07:45:30.000Z</time>
      </trkpt>
      <trkpt lat="47.48729" lon="6.77517">
        <ele>335</ele>
        <time>2016-10-09T07:45:35.000Z</time>
      </trkpt>
      <trkpt lat="47.48729" lon="6.77517">
        <ele>335</ele>
        <time>2016-10-09T07:45:36.000Z</time>
      </trkpt>
      <trkpt lat="47.48726" lon="6.77514">
        <ele>335</ele>
        <time>2016-10-09T07:45:48.000Z</time>
      </trkpt>
      <trkpt lat="47.48724" lon="6.77513">
        <ele>335</ele>
        <time>2016-10-09T07:45:49.000Z</time>
      </trkpt>
      <trkpt lat="47.48721" lon="6.77511">
        <ele>335</ele>
        <time>2016-10-09T07:45:51.000Z</time>
      </trkpt>
      <trkpt lat="47.48719" lon="6.7751">
        <ele>335</ele>
        <time>2016-10-09T07:45:52.000Z</time>
      </trkpt>
      <trkpt lat="47.48716" lon="6.77507">
        <ele>336</ele>
        <time>2016-10-09T07:45:54.000Z</time>
      </trkpt>
      <trkpt lat="47.48714" lon="6.77506">
        <ele>336</ele>
        <time>2016-10-09T07:45:55.000Z</time>
      </trkpt>
      <trkpt lat="47.48711" lon="6.77505">
        <ele>336</ele>
        <time>2016-10-09T07:45:58.000Z</time>
      </trkpt>
      <trkpt lat="47.4871" lon="6.77505">
        <ele>336</ele>
        <time>2016-10-09T07:45:59.000Z</time>
      </trkpt>
      <trkpt lat="47.48705" lon="6.77506">
        <ele>336</ele>
        <time>2016-10-09T07:46:05.000Z</time>
      </trkpt>
      <trkpt lat="47.48704" lon="6.77506">
        <ele>336</ele>
        <time>2016-10-09T07:46:06.000Z</time>
      </trkpt>
      <trkpt lat="47.48701" lon="6.77502">
        <ele>337</ele>
        <time>2016-10-09T07:46:14.000Z</time>
      </trkpt>
      <trkpt lat="47.48701" lon="6.77501">
        <ele>337</ele>
        <time>2016-10-09T07:46:15.000Z</time>
      </trkpt>
      <trkpt lat="47.48699" lon="6.77507">
        <ele>337</ele>
        <time>2016-10-09T07:46:27.000Z</time>
      </trkpt>
      <trkpt lat="47.48698" lon="6.7751">
        <ele>337</ele>
        <time>2016-10-09T07:46:28.000Z</time>
      </trkpt>
      <trkpt lat="47.48695" lon="6.77506">
        <ele>337</ele>
        <time>2016-10-09T07:46:45.000Z</time>
      </trkpt>
      <trkpt lat="47.48694" lon="6.77506">
        <ele>337</ele>
        <time>2016-10-09T07:46:46.000Z</time>
      </trkpt>
      <trkpt lat="47.4869" lon="6.77506">
        <ele>337</ele>
        <time>2016-10-09T07:47:13.000Z</time>
      </trkpt>
      <trkpt lat="47.48689" lon="6.77507">
        <ele>337</ele>
        <time>2016-10-09T07:47:14.000Z</time>
      </trkpt>
      <trkpt lat="47.48685" lon="6.77508">
        <ele>338</ele>
        <time>2016-10-09T07:47:19.000Z</time>
      </trkpt>
      <trkpt lat="47.48685" lon="6.77508">
        <ele>338</ele>
        <time>2016-10-09T07:47:20.000Z</time>
      </trkpt>
      <trkpt lat="47.48681" lon="6.77506">
        <ele>338</ele>
        <time>2016-10-09T07:48:00.000Z</time>
      </trkpt>
      <trkpt lat="47.48681" lon="6.77504">
        <ele>338</ele>
        <time>2016-10-09T07:48:01.000Z</time>
      </trkpt>
      <trkpt lat="47.48683" lon="6.77499">
        <ele>337</ele>
        <time>2016-10-09T07:48:03.000Z</time>
      </trkpt>
      <trkpt lat="47.48685" lon="6.77496">
        <ele>336</ele>
        <time>2016-10-09T07:48:04.000Z</time>
      </trkpt>
      <trkpt lat="47.48686" lon="6.77493">
        <ele>336</ele>
        <time>2016-10-09T07:48:05.000Z</time>
      </trkpt>
      <trkpt lat="47.48688" lon="6.7749">
        <ele>335</ele>
        <time>2016-10-09T07:48:06.000Z</time>
      </trkpt>
      <trkpt lat="47.4869" lon="6.77488">
        <ele>335</ele>
        <time>2016-10-09T07:48:07.000Z</time>
      </trkpt>
      <trkpt lat="47.48693" lon="6.77487">
        <ele>335</ele>
        <time>2016-10-09T07:48:08.000Z</time>
      </trkpt>
      <trkpt lat="47.48697" lon="6.77485">
        <ele>334</ele>
        <time>2016-10-09T07:48:10.000Z</time>
      </trkpt>
      <trkpt lat="47.48697" lon="6.77485">
        <ele>334</ele>
        <time>2016-10-09T07:48:11.000Z</time>
      </trkpt>
      <trkpt lat="47.48701" lon="6.77488">
        <ele>334</ele>
        <time>2016-10-09T07:48:34.000Z</time>
      </trkpt>
      <trkpt lat="47.48701" lon="6.77489">
        <ele>334</ele>
        <time>2016-10-09T07:48:35.000Z</time>
      </trkpt>
      <trkpt lat="47.48702" lon="6.77495">
        <ele>334</ele>
        <time>2016-10-09T07:48:40.000Z</time>
      </trkpt>
      <trkpt lat="47.48702" lon="6.77498">
        <ele>334</ele>
        <time>2016-10-09T07:48:41.000Z</time>
      </trkpt>
      <trkpt lat="47.48702" lon="6.77504">
        <ele>336</ele>
        <time>2016-10-09T07:48:43.000Z</time>
      </trkpt>
      <trkpt lat="47.48702" lon="6.77506">
        <ele>336</ele>
        <time>2016-10-09T07:48:44.000Z</time>
      </trkpt>
      <trkpt lat="47.48701" lon="6.77512">
        <ele>336</ele>
        <time>2016-10-09T07:48:49.000Z</time>
      </trkpt>
      <trkpt lat="47.487" lon="6.77513">
        <ele>336</ele>
        <time>2016-10-09T07:48:50.000Z</time>
      </trkpt>
      <trkpt lat="47.48696" lon="6.77512">
        <ele>337</ele>
        <time>2016-10-09T07:48:52.000Z</time>
      </trkpt>
      <trkpt lat="47.48695" lon="6.77512">
        <ele>337</ele>
        <time>2016-10-09T07:48:53.000Z</time>
      </trkpt>
      <trkpt lat="47.48692" lon="6.77513">
        <ele>337</ele>
        <time>2016-10-09T07:48:55.000Z</time>
      </trkpt>
      <trkpt lat="47.4869" lon="6.77515">
        <ele>337</ele>
        <time>2016-10-09T07:48:56.000Z</time>
      </trkpt>
      <trkpt lat="47.48688" lon="6.77516">
        <ele>337</ele>
        <time>2016-10-09T07:48:57.000Z</time>
      </trkpt>
      <trkpt lat="47.48686" lon="6.77518">
        <ele>337</ele>
        <time>2016-10-09T07:48:58.000Z</time>
      </trkpt>
      <trkpt lat="47.48683" lon="6.77519">
        <ele>337</ele>
        <time>2016-10-09T07:48:59.000Z</time>
      </trkpt>
      <trkpt lat="47.4868" lon="6.77519">
        <ele>337</ele>
        <time>2016-10-09T07:49:00.000Z</time>
      </trkpt>
      <trkpt lat="47.48676" lon="6.77519">
        <ele>338</ele>
        <time>2016-10-09T07:49:01.000Z</time>
      </trkpt>
      <trkpt lat="47.48673" lon="6.77519">
        <ele>338</ele>
        <time>2016-10-09T07:49:02.000Z</time>
      </trkpt>
      <trkpt lat="47.48671" lon="6.7752">
        <ele>338</ele>
        <time>2016-10-09T07:49:03.000Z</time>
      </trkpt>
      <trkpt lat="47.48668" lon="6.7752">
        <ele>338</ele>
        <time>2016-10-09T07:49:04.000Z</time>
      </trkpt>
      <trkpt lat="47.48665" lon="6.7752">
        <ele>334</ele>
        <time>2016-10-09T07:49:06.000Z</time>
      </trkpt>
      <trkpt lat="47.48663" lon="6.77521">
        <ele>334</ele>
        <time>2016-10-09T07:49:07.000Z</time>
      </trkpt>
      <trkpt lat="47.48659" lon="6.77524">
        <ele>333</ele>
        <time>2016-10-09T07:49:11.000Z</time>
      </trkpt>
      <trkpt lat="47.48659" lon="6.77523">
        <ele>333</ele>
        <time>2016-10-09T07:49:12.000Z</time>
      </trkpt>
      <trkpt lat="47.48656" lon="6.77522">
        <ele>333</ele>
        <time>2016-10-09T07:49:17.000Z</time>
      </trkpt>
      <trkpt lat="47.48654" lon="6.77521">
        <ele>333</ele>
        <time>2016-10-09T07:49:18.000Z</time>
      </trkpt>
      <trkpt lat="47.4865" lon="6.7752">
        <ele>333</ele>
        <time>2016-10-09T07:49:20.000Z</time>
      </trkpt>
      <trkpt lat="47.48648" lon="6.77518">
        <ele>333</ele>
        <time>2016-10-09T07:49:21.000Z</time>
      </trkpt>
      <trkpt lat="47.48645" lon="6.77517">
        <ele>333</ele>
        <time>2016-10-09T07:49:22.000Z</time>
      </trkpt>
      <trkpt lat="47.48642" lon="6.77516">
        <ele>332</ele>
        <time>2016-10-09T07:49:23.000Z</time>
      </trkpt>
      <trkpt lat="47.48637" lon="6.77515">
        <ele>332</ele>
        <time>2016-10-09T07:49:24.000Z</time>
      </trkpt>
      <trkpt lat="47.48634" lon="6.77514">
        <ele>331</ele>
        <time>2016-10-09T07:49:25.000Z</time>
      </trkpt>
      <trkpt lat="47.4863" lon="6.77513">
        <ele>331</ele>
        <time>2016-10-09T07:49:26.000Z</time>
      </trkpt>
      <trkpt lat="47.48626" lon="6.77512">
        <ele>330</ele>
        <time>2016-10-09T07:49:27.000Z</time>
      </trkpt>
      <trkpt lat="47.48623" lon="6.7751">
        <ele>330</ele>
        <time>2016-10-09T07:49:28.000Z</time>
      </trkpt>
      <trkpt lat="47.48619" lon="6.77508">
        <ele>329</ele>
        <time>2016-10-09T07:49:29.000Z</time>
      </trkpt>
      <trkpt lat="47.48616" lon="6.77504">
        <ele>329</ele>
        <time>2016-10-09T07:49:30.000Z</time>
      </trkpt>
      <trkpt lat="47.48614" lon="6.77499">
        <ele>334</ele>
        <time>2016-10-09T07:49:31.000Z</time>
      </trkpt>
      <trkpt lat="47.48612" lon="6.77494">
        <ele>334</ele>
        <time>2016-10-09T07:49:32.000Z</time>
      </trkpt>
      <trkpt lat="47.4861" lon="6.77487">
        <ele>334</ele>
        <time>2016-10-09T07:49:33.000Z</time>
      </trkpt>
      <trkpt lat="47.48608" lon="6.77481">
        <ele>334</ele>
        <time>2016-10-09T07:49:34.000Z</time>
      </trkpt>
      <trkpt lat="47.48606" lon="6.77477">
        <ele>334</ele>
        <time>2016-10-09T07:49:35.000Z</time>
      </trkpt>
      <trkpt lat="47.48603" lon="6.77475">
        <ele>334</ele>
        <time>2016-10-09T07:49:36.000Z</time>
      </trkpt>
      <trkpt lat="47.486" lon="6.77474">
        <ele>334</ele>
        <time>2016-10-09T07:49:37.000Z</time>
      </trkpt>
      <trkpt lat="47.48597" lon="6.77473">
        <ele>334</ele>
        <time>2016-10-09T07:49:38.000Z</time>
      </trkpt>
      <trkpt lat="47.48594" lon="6.77472">
        <ele>334</ele>
        <time>2016-10-09T07:49:39.000Z</time>
      </trkpt>
      <trkpt lat="47.48591" lon="6.7747">
        <ele>334</ele>
        <time>2016-10-09T07:49:40.000Z</time>
      </trkpt>
      <trkpt lat="47.48588" lon="6.77468">
        <ele>334</ele>
        <time>2016-10-09T07:49:41.000Z</time>
      </trkpt>
      <trkpt lat="47.48585" lon="6.77465">
        <ele>334</ele>
        <time>2016-10-09T07:49:42.000Z</time>
      </trkpt>
      <trkpt lat="47.48582" lon="6.77461">
        <ele>329</ele>
        <time>2016-10-09T07:49:43.000Z</time>
      </trkpt>
      <trkpt lat="47.48579" lon="6.77458">
        <ele>329</ele>
        <time>2016-10-09T07:49:44.000Z</time>
      </trkpt>
      <trkpt lat="47.48575" lon="6.77456">
        <ele>329</ele>
        <time>2016-10-09T07:49:45.000Z</time>
      </trkpt>
      <trkpt lat="47.48571" lon="6.77454">
        <ele>329</ele>
        <time>2016-10-09T07:49:46.000Z</time>
      </trkpt>
      <trkpt lat="47.48567" lon="6.77453">
        <ele>329</ele>
        <time>2016-10-09T07:49:47.000Z</time>
      </trkpt>
      <trkpt lat="47.48563" lon="6.77452">
        <ele>329</ele>
        <time>2016-10-09T07:49:48.000Z</time>
      </trkpt>
      <trkpt lat="47.4856" lon="6.7745">
        <ele>329</ele>
        <time>2016-10-09T07:49:49.000Z</time>
      </trkpt>
      <trkpt lat="47.48557" lon="6.77448">
        <ele>329</ele>
        <time>2016-10-09T07:49:50.000Z</time>
      </trkpt>
      <trkpt lat="47.48553" lon="6.77445">
        <ele>329</ele>
        <time>2016-10-09T07:49:51.000Z</time>
      </trkpt>
      <trkpt lat="47.4855" lon="6.77442">
        <ele>329</ele>
        <time>2016-10-09T07:49:52.000Z</time>
      </trkpt>
      <trkpt lat="47.48547" lon="6.77439">
        <ele>329</ele>
        <time>2016-10-09T07:49:53.000Z</time>
      </trkpt>
      <trkpt lat="47.48544" lon="6.77438">
        <ele>329</ele>
        <time>2016-10-09T07:49:54.000Z</time>
      </trkpt>
      <trkpt lat="47.4854" lon="6.77437">
        <ele>328</ele>
        <time>2016-10-09T07:49:55.000Z</time>
      </trkpt>
      <trkpt lat="47.48536" lon="6.77436">
        <ele>328</ele>
        <time>2016-10-09T07:49:56.000Z</time>
      </trkpt>
      <trkpt lat="47.48533" lon="6.77435">
        <ele>328</ele>
        <time>2016-10-09T07:49:57.000Z</time>
      </trkpt>
      <trkpt lat="47.48529" lon="6.77433">
        <ele>327</ele>
        <time>2016-10-09T07:49:58.000Z</time>
      </trkpt>
      <trkpt lat="47.48526" lon="6.7743">
        <ele>327</ele>
        <time>2016-10-09T07:49:59.000Z</time>
      </trkpt>
      <trkpt lat="47.48523" lon="6.77428">
        <ele>327</ele>
        <time>2016-10-09T07:50:00.000Z</time>
      </trkpt>
      <trkpt lat="47.4852" lon="6.77425">
        <ele>327</ele>
        <time>2016-10-09T07:50:01.000Z</time>
      </trkpt>
      <trkpt lat="47.48516" lon="6.77422">
        <ele>327</ele>
        <time>2016-10-09T07:50:02.000Z</time>
      </trkpt>
      <trkpt lat="47.48509" lon="6.77415">
        <ele>329</ele>
        <time>2016-10-09T07:50:04.000Z</time>
      </trkpt>
      <trkpt lat="47.48506" lon="6.77411">
        <ele>329</ele>
        <time>2016-10-09T07:50:05.000Z</time>
      </trkpt>
      <trkpt lat="47.48503" lon="6.77407">
        <ele>330</ele>
        <time>2016-10-09T07:50:06.000Z</time>
      </trkpt>
      <trkpt lat="47.48501" lon="6.77403">
        <ele>331</ele>
        <time>2016-10-09T07:50:07.000Z</time>
      </trkpt>
      <trkpt lat="47.48499" lon="6.77399">
        <ele>327</ele>
        <time>2016-10-09T07:50:08.000Z</time>
      </trkpt>
      <trkpt lat="47.48496" lon="6.77396">
        <ele>327</ele>
        <time>2016-10-09T07:50:09.000Z</time>
      </trkpt>
      <trkpt lat="47.48494" lon="6.77392">
        <ele>327</ele>
        <time>2016-10-09T07:50:10.000Z</time>
      </trkpt>
      <trkpt lat="47.48491" lon="6.77388">
        <ele>327</ele>
        <time>2016-10-09T07:50:11.000Z</time>
      </trkpt>
      <trkpt lat="47.48489" lon="6.77385">
        <ele>328</ele>
        <time>2016-10-09T07:50:12.000Z</time>
      </trkpt>
      <trkpt lat="47.48486" lon="6.77381">
        <ele>328</ele>
        <time>2016-10-09T07:50:13.000Z</time>
      </trkpt>
      <trkpt lat="47.48484" lon="6.77377">
        <ele>328</ele>
        <time>2016-10-09T07:50:14.000Z</time>
      </trkpt>
      <trkpt lat="47.48481" lon="6.77373">
        <ele>328</ele>
        <time>2016-10-09T07:50:15.000Z</time>
      </trkpt>
      <trkpt lat="47.48479" lon="6.77369">
        <ele>329</ele>
        <time>2016-10-09T07:50:16.000Z</time>
      </trkpt>
      <trkpt lat="47.48475" lon="6.77366">
        <ele>329</ele>
        <time>2016-10-09T07:50:17.000Z</time>
      </trkpt>
      <trkpt lat="47.48472" lon="6.77363">
        <ele>329</ele>
        <time>2016-10-09T07:50:18.000Z</time>
      </trkpt>
      <trkpt lat="47.48469" lon="6.77359">
        <ele>329</ele>
        <time>2016-10-09T07:50:19.000Z</time>
      </trkpt>
      <trkpt lat="47.48465" lon="6.77356">
        <ele>329</ele>
        <time>2016-10-09T07:50:20.000Z</time>
      </trkpt>
      <trkpt lat="47.48462" lon="6.77352">
        <ele>329</ele>
        <time>2016-10-09T07:50:21.000Z</time>
      </trkpt>
      <trkpt lat="47.48459" lon="6.77348">
        <ele>328</ele>
        <time>2016-10-09T07:50:22.000Z</time>
      </trkpt>
      <trkpt lat="47.48456" lon="6.77344">
        <ele>328</ele>
        <time>2016-10-09T07:50:23.000Z</time>
      </trkpt>
      <trkpt lat="47.48452" lon="6.7734">
        <ele>328</ele>
        <time>2016-10-09T07:50:24.000Z</time>
      </trkpt>
      <trkpt lat="47.48449" lon="6.77337">
        <ele>328</ele>
        <time>2016-10-09T07:50:25.000Z</time>
      </trkpt>
      <trkpt lat="47.48445" lon="6.77333">
        <ele>332</ele>
        <time>2016-10-09T07:50:26.000Z</time>
      </trkpt>
      <trkpt lat="47.48441" lon="6.77329">
        <ele>332</ele>
        <time>2016-10-09T07:50:27.000Z</time>
      </trkpt>
      <trkpt lat="47.48438" lon="6.77326">
        <ele>331</ele>
        <time>2016-10-09T07:50:28.000Z</time>
      </trkpt>
      <trkpt lat="47.48434" lon="6.77323">
        <ele>331</ele>
        <time>2016-10-09T07:50:29.000Z</time>
      </trkpt>
      <trkpt lat="47.48431" lon="6.7732">
        <ele>331</ele>
        <time>2016-10-09T07:50:30.000Z</time>
      </trkpt>
      <trkpt lat="47.48427" lon="6.77317">
        <ele>331</ele>
        <time>2016-10-09T07:50:31.000Z</time>
      </trkpt>
      <trkpt lat="47.48423" lon="6.77313">
        <ele>331</ele>
        <time>2016-10-09T07:50:32.000Z</time>
      </trkpt>
      <trkpt lat="47.48418" lon="6.7731">
        <ele>331</ele>
        <time>2016-10-09T07:50:33.000Z</time>
      </trkpt>
      <trkpt lat="47.48413" lon="6.77305">
        <ele>326</ele>
        <time>2016-10-09T07:50:34.000Z</time>
      </trkpt>
      <trkpt lat="47.48408" lon="6.77301">
        <ele>326</ele>
        <time>2016-10-09T07:50:35.000Z</time>
      </trkpt>
      <trkpt lat="47.48403" lon="6.77297">
        <ele>326</ele>
        <time>2016-10-09T07:50:36.000Z</time>
      </trkpt>
      <trkpt lat="47.48399" lon="6.77293">
        <ele>326</ele>
        <time>2016-10-09T07:50:37.000Z</time>
      </trkpt>
      <trkpt lat="47.48395" lon="6.77288">
        <ele>326</ele>
        <time>2016-10-09T07:50:38.000Z</time>
      </trkpt>
      <trkpt lat="47.48391" lon="6.77283">
        <ele>326</ele>
        <time>2016-10-09T07:50:39.000Z</time>
      </trkpt>
      <trkpt lat="47.48383" lon="6.77268">
        <ele>326</ele>
        <time>2016-10-09T07:50:40.000Z</time>
      </trkpt>
      <trkpt lat="47.48379" lon="6.77262">
        <ele>326</ele>
        <time>2016-10-09T07:50:41.000Z</time>
      </trkpt>
      <trkpt lat="47.48373" lon="6.77259">
        <ele>326</ele>
        <time>2016-10-09T07:50:42.000Z</time>
      </trkpt>
      <trkpt lat="47.48368" lon="6.77256">
        <ele>326</ele>
        <time>2016-10-09T07:50:43.000Z</time>
      </trkpt>
      <trkpt lat="47.48361" lon="6.77252">
        <ele>325</ele>
        <time>2016-10-09T07:50:44.000Z</time>
      </trkpt>
      <trkpt lat="47.48356" lon="6.77253">
        <ele>325</ele>
        <time>2016-10-09T07:50:45.000Z</time>
      </trkpt>
      <trkpt lat="47.48349" lon="6.77251">
        <ele>325</ele>
        <time>2016-10-09T07:50:46.000Z</time>
      </trkpt>
      <trkpt lat="47.48344" lon="6.77246">
        <ele>326</ele>
        <time>2016-10-09T07:50:47.000Z</time>
      </trkpt>
      <trkpt lat="47.4834" lon="6.77242">
        <ele>326</ele>
        <time>2016-10-09T07:50:48.000Z</time>
      </trkpt>
      <trkpt lat="47.48337" lon="6.77242">
        <ele>326</ele>
        <time>2016-10-09T07:50:49.000Z</time>
      </trkpt>
      <trkpt lat="47.48332" lon="6.77243">
        <ele>324</ele>
        <time>2016-10-09T07:50:50.000Z</time>
      </trkpt>
      <trkpt lat="47.48327" lon="6.77238">
        <ele>324</ele>
        <time>2016-10-09T07:50:51.000Z</time>
      </trkpt>
      <trkpt lat="47.48321" lon="6.77236">
        <ele>324</ele>
        <time>2016-10-09T07:50:52.000Z</time>
      </trkpt>
      <trkpt lat="47.48316" lon="6.77238">
        <ele>323</ele>
        <time>2016-10-09T07:50:53.000Z</time>
      </trkpt>
      <trkpt lat="47.48313" lon="6.77235">
        <ele>323</ele>
        <time>2016-10-09T07:50:54.000Z</time>
      </trkpt>
      <trkpt lat="47.48307" lon="6.77232">
        <ele>323</ele>
        <time>2016-10-09T07:50:55.000Z</time>
      </trkpt>
      <trkpt lat="47.48303" lon="6.7723">
        <ele>323</ele>
        <time>2016-10-09T07:50:56.000Z</time>
      </trkpt>
      <trkpt lat="47.48299" lon="6.77229">
        <ele>323</ele>
        <time>2016-10-09T07:50:57.000Z</time>
      </trkpt>
      <trkpt lat="47.48298" lon="6.77232">
        <ele>323</ele>
        <time>2016-10-09T07:50:58.000Z</time>
      </trkpt>
      <trkpt lat="47.48294" lon="6.77232">
        <ele>322</ele>
        <time>2016-10-09T07:50:59.000Z</time>
      </trkpt>
      <trkpt lat="47.48291" lon="6.77231">
        <ele>322</ele>
        <time>2016-10-09T07:51:00.000Z</time>
      </trkpt>
      <trkpt lat="47.4829" lon="6.77215">
        <ele>323</ele>
        <time>2016-10-09T07:51:01.000Z</time>
      </trkpt>
      <trkpt lat="47.48289" lon="6.77206">
        <ele>323</ele>
        <time>2016-10-09T07:51:02.000Z</time>
      </trkpt>
      <trkpt lat="47.48288" lon="6.77197">
        <ele>323</ele>
        <time>2016-10-09T07:51:03.000Z</time>
      </trkpt>
      <trkpt lat="47.4829" lon="6.7719">
        <ele>323</ele>
        <time>2016-10-09T07:51:04.000Z</time>
      </trkpt>
      <trkpt lat="47.4829" lon="6.77184">
        <ele>324</ele>
        <time>2016-10-09T07:51:05.000Z</time>
      </trkpt>
      <trkpt lat="47.48297" lon="6.77176">
        <ele>324</ele>
        <time>2016-10-09T07:51:06.000Z</time>
      </trkpt>
      <trkpt lat="47.48302" lon="6.77176">
        <ele>325</ele>
        <time>2016-10-09T07:51:07.000Z</time>
      </trkpt>
      <trkpt lat="47.48304" lon="6.77175">
        <ele>325</ele>
        <time>2016-10-09T07:51:08.000Z</time>
      </trkpt>
      <trkpt lat="47.48302" lon="6.77167">
        <ele>325</ele>
        <time>2016-10-09T07:51:09.000Z</time>
      </trkpt>
      <trkpt lat="47.48303" lon="6.77163">
        <ele>325</ele>
        <time>2016-10-09T07:51:10.000Z</time>
      </trkpt>
      <trkpt lat="47.48305" lon="6.77158">
        <ele>325</ele>
        <time>2016-10-09T07:51:11.000Z</time>
      </trkpt>
      <trkpt lat="47.48307" lon="6.77154">
        <ele>325</ele>
        <time>2016-10-09T07:51:12.000Z</time>
      </trkpt>
      <trkpt lat="47.48309" lon="6.77164">
        <ele>326</ele>
        <time>2016-10-09T07:51:13.000Z</time>
      </trkpt>
      <trkpt lat="47.48312" lon="6.77167">
        <ele>326</ele>
        <time>2016-10-09T07:51:14.000Z</time>
      </trkpt>
      <trkpt lat="47.48317" lon="6.77164">
        <ele>327</ele>
        <time>2016-10-09T07:51:15.000Z</time>
      </trkpt>
      <trkpt lat="47.4832" lon="6.77164">
        <ele>328</ele>
        <time>2016-10-09T07:51:16.000Z</time>
      </trkpt>
      <trkpt lat="47.48324" lon="6.77164">
        <ele>328</ele>
        <time>2016-10-09T07:51:17.000Z</time>
      </trkpt>
      <trkpt lat="47.48327" lon="6.77162">
        <ele>329</ele>
        <time>2016-10-09T07:51:18.000Z</time>
      </trkpt>
      <trkpt lat="47.4833" lon="6.77162">
        <ele>329</ele>
        <time>2016-10-09T07:51:19.000Z</time>
      </trkpt>
      <trkpt lat="47.48332" lon="6.77161">
        <ele>329</ele>
        <time>2016-10-09T07:51:20.000Z</time>
      </trkpt>
      <trkpt lat="47.48332" lon="6.77146">
        <ele>327</ele>
        <time>2016-10-09T07:51:21.000Z</time>
      </trkpt>
      <trkpt lat="47.48333" lon="6.77142">
        <ele>326</ele>
        <time>2016-10-09T07:51:22.000Z</time>
      </trkpt>
      <trkpt lat="47.48332" lon="6.77138">
        <ele>326</ele>
        <time>2016-10-09T07:51:23.000Z</time>
      </trkpt>
      <trkpt lat="47.48329" lon="6.77132">
        <ele>325</ele>
        <time>2016-10-09T07:51:24.000Z</time>
      </trkpt>
      <trkpt lat="47.48328" lon="6.77126">
        <ele>325</ele>
        <time>2016-10-09T07:51:25.000Z</time>
      </trkpt>
      <trkpt lat="47.48326" lon="6.77121">
        <ele>324</ele>
        <time>2016-10-09T07:51:26.000Z</time>
      </trkpt>
      <trkpt lat="47.48323" lon="6.77122">
        <ele>324</ele>
        <time>2016-10-09T07:51:27.000Z</time>
      </trkpt>
      <trkpt lat="47.48319" lon="6.7712">
        <ele>324</ele>
        <time>2016-10-09T07:51:28.000Z</time>
      </trkpt>
      <trkpt lat="47.48314" lon="6.77115">
        <ele>324</ele>
        <time>2016-10-09T07:51:29.000Z</time>
      </trkpt>
      <trkpt lat="47.48311" lon="6.77111">
        <ele>323</ele>
        <time>2016-10-09T07:51:30.000Z</time>
      </trkpt>
      <trkpt lat="47.48306" lon="6.77108">
        <ele>323</ele>
        <time>2016-10-09T07:51:31.000Z</time>
      </trkpt>
      <trkpt lat="47.48302" lon="6.77106">
        <ele>323</ele>
        <time>2016-10-09T07:51:32.000Z</time>
      </trkpt>
      <trkpt lat="47.48298" lon="6.77104">
        <ele>323</ele>
        <time>2016-10-09T07:51:33.000Z</time>
      </trkpt>
      <trkpt lat="47.48294" lon="6.77104">
        <ele>323</ele>
        <time>2016-10-09T07:51:34.000Z</time>
      </trkpt>
      <trkpt lat="47.4829" lon="6.77106">
        <ele>322</ele>
        <time>2016-10-09T07:51:35.000Z</time>
      </trkpt>
      <trkpt lat="47.48286" lon="6.77108">
        <ele>322</ele>
        <time>2016-10-09T07:51:36.000Z</time>
      </trkpt>
      <trkpt lat="47.48282" lon="6.77112">
        <ele>322</ele>
        <time>2016-10-09T07:51:37.000Z</time>
      </trkpt>
      <trkpt lat="47.48279" lon="6.77116">
        <ele>322</ele>
        <time>2016-10-09T07:51:38.000Z</time>
      </trkpt>
      <trkpt lat="47.48276" lon="6.7712">
        <ele>322</ele>
        <time>2016-10-09T07:51:39.000Z</time>
      </trkpt>
      <trkpt lat="47.48273" lon="6.77123">
        <ele>322</ele>
        <time>2016-10-09T07:51:40.000Z</time>
      </trkpt>
      <trkpt lat="47.48271" lon="6.77124">
        <ele>322</ele>
        <time>2016-10-09T07:51:41.000Z</time>
      </trkpt>
      <trkpt lat="47.48268" lon="6.77119">
        <ele>322</ele>
        <time>2016-10-09T07:51:43.000Z</time>
      </trkpt>
      <trkpt lat="47.48269" lon="6.77115">
        <ele>321</ele>
        <time>2016-10-09T07:51:44.000Z</time>
      </trkpt>
      <trkpt lat="47.48269" lon="6.77109">
        <ele>321</ele>
        <time>2016-10-09T07:51:45.000Z</time>
      </trkpt>
      <trkpt lat="47.4827" lon="6.77096">
        <ele>321</ele>
        <time>2016-10-09T07:51:46.000Z</time>
      </trkpt>
      <trkpt lat="47.48271" lon="6.77091">
        <ele>320</ele>
        <time>2016-10-09T07:51:47.000Z</time>
      </trkpt>
      <trkpt lat="47.48272" lon="6.77085">
        <ele>320</ele>
        <time>2016-10-09T07:51:48.000Z</time>
      </trkpt>
      <trkpt lat="47.48272" lon="6.77079">
        <ele>317</ele>
        <time>2016-10-09T07:51:49.000Z</time>
      </trkpt>
      <trkpt lat="47.48273" lon="6.77073">
        <ele>317</ele>
        <time>2016-10-09T07:51:50.000Z</time>
      </trkpt>
      <trkpt lat="47.48273" lon="6.77068">
        <ele>317</ele>
        <time>2016-10-09T07:51:51.000Z</time>
      </trkpt>
      <trkpt lat="47.48273" lon="6.77066">
        <ele>317</ele>
        <time>2016-10-09T07:51:52.000Z</time>
      </trkpt>
      <trkpt lat="47.48273" lon="6.7706">
        <ele>317</ele>
        <time>2016-10-09T07:51:54.000Z</time>
      </trkpt>
      <trkpt lat="47.48273" lon="6.77058">
        <ele>317</ele>
        <time>2016-10-09T07:51:55.000Z</time>
      </trkpt>
      <trkpt lat="47.48273" lon="6.77051">
        <ele>316</ele>
        <time>2016-10-09T07:52:17.000Z</time>
      </trkpt>
      <trkpt lat="47.48273" lon="6.77051">
        <ele>316</ele>
        <time>2016-10-09T07:52:18.000Z</time>
      </trkpt>
      <trkpt lat="47.48274" lon="6.77044">
        <ele>316</ele>
        <time>2016-10-09T07:54:20.000Z</time>
      </trkpt>
      <trkpt lat="47.48275" lon="6.77043">
        <ele>316</ele>
        <time>2016-10-09T07:54:21.000Z</time>
      </trkpt>
      <trkpt lat="47.48276" lon="6.77038">
        <ele>316</ele>
        <time>2016-10-09T07:54:23.000Z</time>
      </trkpt>
      <trkpt lat="47.48277" lon="6.77036">
        <ele>316</ele>
        <time>2016-10-09T07:54:24.000Z</time>
      </trkpt>
      <trkpt lat="47.48278" lon="6.7703">
        <ele>316</ele>
        <time>2016-10-09T07:54:27.000Z</time>
      </trkpt>
      <trkpt lat="47.48277" lon="6.77029">
        <ele>316</ele>
        <time>2016-10-09T07:54:28.000Z</time>
      </trkpt>
      <trkpt lat="47.48275" lon="6.77024">
        <ele>315</ele>
        <time>2016-10-09T07:54:32.000Z</time>
      </trkpt>
      <trkpt lat="47.48274" lon="6.77021">
        <ele>315</ele>
        <time>2016-10-09T07:54:33.000Z</time>
      </trkpt>
      <trkpt lat="47.48273" lon="6.77016">
        <ele>315</ele>
        <time>2016-10-09T07:54:35.000Z</time>
      </trkpt>
      <trkpt lat="47.48272" lon="6.77013">
        <ele>315</ele>
        <time>2016-10-09T07:54:36.000Z</time>
      </trkpt>
      <trkpt lat="47.48271" lon="6.77011">
        <ele>315</ele>
        <time>2016-10-09T07:54:37.000Z</time>
      </trkpt>
      <trkpt lat="47.48268" lon="6.77009">
        <ele>314</ele>
        <time>2016-10-09T07:54:38.000Z</time>
      </trkpt>
      <trkpt lat="47.48264" lon="6.77008">
        <ele>314</ele>
        <time>2016-10-09T07:54:39.000Z</time>
      </trkpt>
      <trkpt lat="47.48259" lon="6.77006">
        <ele>314</ele>
        <time>2016-10-09T07:54:40.000Z</time>
      </trkpt>
      <trkpt lat="47.48255" lon="6.77004">
        <ele>313</ele>
        <time>2016-10-09T07:54:41.000Z</time>
      </trkpt>
      <trkpt lat="47.48251" lon="6.77003">
        <ele>312</ele>
        <time>2016-10-09T07:54:42.000Z</time>
      </trkpt>
      <trkpt lat="47.48247" lon="6.77001">
        <ele>312</ele>
        <time>2016-10-09T07:54:43.000Z</time>
      </trkpt>
      <trkpt lat="47.48243" lon="6.76999">
        <ele>312</ele>
        <time>2016-10-09T07:54:44.000Z</time>
      </trkpt>
      <trkpt lat="47.48239" lon="6.76997">
        <ele>312</ele>
        <time>2016-10-09T07:54:45.000Z</time>
      </trkpt>
      <trkpt lat="47.48234" lon="6.76995">
        <ele>312</ele>
        <time>2016-10-09T07:54:46.000Z</time>
      </trkpt>
      <trkpt lat="47.4823" lon="6.76992">
        <ele>312</ele>
        <time>2016-10-09T07:54:47.000Z</time>
      </trkpt>
      <trkpt lat="47.48226" lon="6.7699">
        <ele>311</ele>
        <time>2016-10-09T07:54:48.000Z</time>
      </trkpt>
      <trkpt lat="47.48222" lon="6.76988">
        <ele>311</ele>
        <time>2016-10-09T07:54:49.000Z</time>
      </trkpt>
      <trkpt lat="47.48218" lon="6.76986">
        <ele>311</ele>
        <time>2016-10-09T07:54:50.000Z</time>
      </trkpt>
      <trkpt lat="47.48214" lon="6.76984">
        <ele>311</ele>
        <time>2016-10-09T07:54:51.000Z</time>
      </trkpt>
      <trkpt lat="47.48211" lon="6.76982">
        <ele>311</ele>
        <time>2016-10-09T07:54:52.000Z</time>
      </trkpt>
      <trkpt lat="47.48207" lon="6.76979">
        <ele>311</ele>
        <time>2016-10-09T07:54:53.000Z</time>
      </trkpt>
      <trkpt lat="47.48202" lon="6.76978">
        <ele>311</ele>
        <time>2016-10-09T07:54:54.000Z</time>
      </trkpt>
      <trkpt lat="47.48198" lon="6.76976">
        <ele>311</ele>
        <time>2016-10-09T07:54:55.000Z</time>
      </trkpt>
      <trkpt lat="47.48194" lon="6.76973">
        <ele>311</ele>
        <time>2016-10-09T07:54:56.000Z</time>
      </trkpt>
      <trkpt lat="47.4819" lon="6.7697">
        <ele>311</ele>
        <time>2016-10-09T07:54:57.000Z</time>
      </trkpt>
      <trkpt lat="47.48186" lon="6.76967">
        <ele>311</ele>
        <time>2016-10-09T07:54:58.000Z</time>
      </trkpt>
      <trkpt lat="47.48182" lon="6.76965">
        <ele>311</ele>
        <time>2016-10-09T07:54:59.000Z</time>
      </trkpt>
      <trkpt lat="47.48179" lon="6.76962">
        <ele>311</ele>
        <time>2016-10-09T07:55:00.000Z</time>
      </trkpt>
      <trkpt lat="47.48175" lon="6.76959">
        <ele>311</ele>
        <time>2016-10-09T07:55:01.000Z</time>
      </trkpt>
      <trkpt lat="47.48171" lon="6.76957">
        <ele>311</ele>
        <time>2016-10-09T07:55:02.000Z</time>
      </trkpt>
      <trkpt lat="47.48163" lon="6.76952">
        <ele>312</ele>
        <time>2016-10-09T07:55:04.000Z</time>
      </trkpt>
      <trkpt lat="47.4816" lon="6.76949">
        <ele>312</ele>
        <time>2016-10-09T07:55:05.000Z</time>
      </trkpt>
      <trkpt lat="47.48156" lon="6.76946">
        <ele>312</ele>
        <time>2016-10-09T07:55:06.000Z</time>
      </trkpt>
      <trkpt lat="47.48153" lon="6.76944">
        <ele>312</ele>
        <time>2016-10-09T07:55:07.000Z</time>
      </trkpt>
      <trkpt lat="47.4815" lon="6.76941">
        <ele>312</ele>
        <time>2016-10-09T07:55:08.000Z</time>
      </trkpt>
      <trkpt lat="47.48146" lon="6.76938">
        <ele>312</ele>
        <time>2016-10-09T07:55:09.000Z</time>
      </trkpt>
      <trkpt lat="47.48143" lon="6.76935">
        <ele>312</ele>
        <time>2016-10-09T07:55:10.000Z</time>
      </trkpt>
      <trkpt lat="47.4814" lon="6.76933">
        <ele>312</ele>
        <time>2016-10-09T07:55:11.000Z</time>
      </trkpt>
      <trkpt lat="47.48136" lon="6.76931">
        <ele>312</ele>
        <time>2016-10-09T07:55:12.000Z</time>
      </trkpt>
      <trkpt lat="47.48131" lon="6.76925">
        <ele>312</ele>
        <time>2016-10-09T07:55:13.000Z</time>
      </trkpt>
      <trkpt lat="47.48128" lon="6.76923">
        <ele>312</ele>
        <time>2016-10-09T07:55:14.000Z</time>
      </trkpt>
      <trkpt lat="47.48124" lon="6.7692">
        <ele>312</ele>
        <time>2016-10-09T07:55:15.000Z</time>
      </trkpt>
      <trkpt lat="47.48119" lon="6.76918">
        <ele>312</ele>
        <time>2016-10-09T07:55:16.000Z</time>
      </trkpt>
      <trkpt lat="47.48115" lon="6.76914">
        <ele>312</ele>
        <time>2016-10-09T07:55:17.000Z</time>
      </trkpt>
      <trkpt lat="47.48111" lon="6.76912">
        <ele>312</ele>
        <time>2016-10-09T07:55:18.000Z</time>
      </trkpt>
      <trkpt lat="47.48107" lon="6.7691">
        <ele>312</ele>
        <time>2016-10-09T07:55:19.000Z</time>
      </trkpt>
      <trkpt lat="47.48103" lon="6.76908">
        <ele>312</ele>
        <time>2016-10-09T07:55:20.000Z</time>
      </trkpt>
      <trkpt lat="47.48099" lon="6.76904">
        <ele>312</ele>
        <time>2016-10-09T07:55:21.000Z</time>
      </trkpt>
      <trkpt lat="47.48095" lon="6.76901">
        <ele>312</ele>
        <time>2016-10-09T07:55:22.000Z</time>
      </trkpt>
      <trkpt lat="47.48091" lon="6.76897">
        <ele>312</ele>
        <time>2016-10-09T07:55:23.000Z</time>
      </trkpt>
      <trkpt lat="47.48085" lon="6.76895">
        <ele>312</ele>
        <time>2016-10-09T07:55:24.001Z</time>
      </trkpt>
      <trkpt lat="47.4808" lon="6.76891">
        <ele>312</ele>
        <time>2016-10-09T07:55:25.000Z</time>
      </trkpt>
      <trkpt lat="47.48076" lon="6.76886">
        <ele>312</ele>
        <time>2016-10-09T07:55:26.000Z</time>
      </trkpt>
      <trkpt lat="47.48071" lon="6.76881">
        <ele>312</ele>
        <time>2016-10-09T07:55:26.999Z</time>
      </trkpt>
      <trkpt lat="47.48069" lon="6.76876">
        <ele>312</ele>
        <time>2016-10-09T07:55:28.000Z</time>
      </trkpt>
      <trkpt lat="47.48065" lon="6.76871">
        <ele>313</ele>
        <time>2016-10-09T07:55:29.000Z</time>
      </trkpt>
      <trkpt lat="47.48062" lon="6.76866">
        <ele>313</ele>
        <time>2016-10-09T07:55:30.000Z</time>
      </trkpt>
      <trkpt lat="47.48057" lon="6.76863">
        <ele>313</ele>
        <time>2016-10-09T07:55:31.000Z</time>
      </trkpt>
      <trkpt lat="47.48053" lon="6.76861">
        <ele>313</ele>
        <time>2016-10-09T07:55:32.000Z</time>
      </trkpt>
      <trkpt lat="47.48051" lon="6.76858">
        <ele>313</ele>
        <time>2016-10-09T07:55:33.000Z</time>
      </trkpt>
      <trkpt lat="47.48047" lon="6.76853">
        <ele>313</ele>
        <time>2016-10-09T07:55:34.000Z</time>
      </trkpt>
      <trkpt lat="47.48043" lon="6.7685">
        <ele>313</ele>
        <time>2016-10-09T07:55:35.000Z</time>
      </trkpt>
      <trkpt lat="47.4804" lon="6.76844">
        <ele>313</ele>
        <time>2016-10-09T07:55:36.000Z</time>
      </trkpt>
      <trkpt lat="47.48038" lon="6.76837">
        <ele>313</ele>
        <time>2016-10-09T07:55:37.000Z</time>
      </trkpt>
      <trkpt lat="47.48034" lon="6.76832">
        <ele>313</ele>
        <time>2016-10-09T07:55:38.000Z</time>
      </trkpt>
      <trkpt lat="47.48031" lon="6.76828">
        <ele>313</ele>
        <time>2016-10-09T07:55:39.000Z</time>
      </trkpt>
      <trkpt lat="47.48027" lon="6.76821">
        <ele>313</ele>
        <time>2016-10-09T07:55:40.000Z</time>
      </trkpt>
      <trkpt lat="47.48024" lon="6.76817">
        <ele>313</ele>
        <time>2016-10-09T07:55:41.000Z</time>
      </trkpt>
      <trkpt lat="47.48021" lon="6.76812">
        <ele>313</ele>
        <time>2016-10-09T07:55:42.000Z</time>
      </trkpt>
      <trkpt lat="47.48017" lon="6.76807">
        <ele>313</ele>
        <time>2016-10-09T07:55:43.000Z</time>
      </trkpt>
      <trkpt lat="47.48014" lon="6.76803">
        <ele>313</ele>
        <time>2016-10-09T07:55:43.998Z</time>
      </trkpt>
      <trkpt lat="47.48012" lon="6.76798">
        <ele>313</ele>
        <time>2016-10-09T07:55:45.000Z</time>
      </trkpt>
      <trkpt lat="47.48008" lon="6.76793">
        <ele>313</ele>
        <time>2016-10-09T07:55:46.000Z</time>
      </trkpt>
      <trkpt lat="47.48005" lon="6.76785">
        <ele>313</ele>
        <time>2016-10-09T07:55:47.000Z</time>
      </trkpt>
      <trkpt lat="47.48003" lon="6.76778">
        <ele>313</ele>
        <time>2016-10-09T07:55:48.000Z</time>
      </trkpt>
      <trkpt lat="47.47999" lon="6.76773">
        <ele>313</ele>
        <time>2016-10-09T07:55:49.000Z</time>
      </trkpt>
      <trkpt lat="47.47996" lon="6.76767">
        <ele>313</ele>
        <time>2016-10-09T07:55:50.000Z</time>
      </trkpt>
      <trkpt lat="47.47992" lon="6.76761">
        <ele>313</ele>
        <time>2016-10-09T07:55:51.000Z</time>
      </trkpt>
      <trkpt lat="47.47989" lon="6.76755">
        <ele>313</ele>
        <time>2016-10-09T07:55:52.000Z</time>
      </trkpt>
      <trkpt lat="47.47986" lon="6.76749">
        <ele>312</ele>
        <time>2016-10-09T07:55:53.000Z</time>
      </trkpt>
      <trkpt lat="47.47985" lon="6.76742">
        <ele>312</ele>
        <time>2016-10-09T07:55:54.000Z</time>
      </trkpt>
      <trkpt lat="47.47983" lon="6.76736">
        <ele>312</ele>
        <time>2016-10-09T07:55:55.000Z</time>
      </trkpt>
      <trkpt lat="47.47982" lon="6.76727">
        <ele>312</ele>
        <time>2016-10-09T07:55:56.000Z</time>
      </trkpt>
      <trkpt lat="47.4798" lon="6.7672">
        <ele>312</ele>
        <time>2016-10-09T07:55:57.000Z</time>
      </trkpt>
      <trkpt lat="47.47978" lon="6.76719">
        <ele>312</ele>
        <time>2016-10-09T07:55:58.000Z</time>
      </trkpt>
      <trkpt lat="47.47976" lon="6.76714">
        <ele>312</ele>
        <time>2016-10-09T07:55:59.000Z</time>
      </trkpt>
      <trkpt lat="47.47974" lon="6.76708">
        <ele>312</ele>
        <time>2016-10-09T07:56:00.000Z</time>
      </trkpt>
      <trkpt lat="47.47973" lon="6.767">
        <ele>312</ele>
        <time>2016-10-09T07:56:01.000Z</time>
      </trkpt>
      <trkpt lat="47.47972" lon="6.76691">
        <ele>312</ele>
        <time>2016-10-09T07:56:02.000Z</time>
      </trkpt>
      <trkpt lat="47.47971" lon="6.76684">
        <ele>312</ele>
        <time>2016-10-09T07:56:03.000Z</time>
      </trkpt>
      <trkpt lat="47.47969" lon="6.76678">
        <ele>312</ele>
        <time>2016-10-09T07:56:03.999Z</time>
      </trkpt>
      <trkpt lat="47.47968" lon="6.76667">
        <ele>312</ele>
        <time>2016-10-09T07:56:05.000Z</time>
      </trkpt>
      <trkpt lat="47.47967" lon="6.7666">
        <ele>311</ele>
        <time>2016-10-09T07:56:05.998Z</time>
      </trkpt>
      <trkpt lat="47.47964" lon="6.76653">
        <ele>311</ele>
        <time>2016-10-09T07:56:07.000Z</time>
      </trkpt>
      <trkpt lat="47.47962" lon="6.76648">
        <ele>311</ele>
        <time>2016-10-09T07:56:07.999Z</time>
      </trkpt>
      <trkpt lat="47.47962" lon="6.7664">
        <ele>311</ele>
        <time>2016-10-09T07:56:09.000Z</time>
      </trkpt>
      <trkpt lat="47.47961" lon="6.76636">
        <ele>311</ele>
        <time>2016-10-09T07:56:10.000Z</time>
      </trkpt>
      <trkpt lat="47.47959" lon="6.76634">
        <ele>311</ele>
        <time>2016-10-09T07:56:11.000Z</time>
      </trkpt>
      <trkpt lat="47.47957" lon="6.76631">
        <ele>311</ele>
        <time>2016-10-09T07:56:13.000Z</time>
      </trkpt>
      <trkpt lat="47.47955" lon="6.76632">
        <ele>311</ele>
        <time>2016-10-09T07:56:14.000Z</time>
      </trkpt>
      <trkpt lat="47.47951" lon="6.76631">
        <ele>311</ele>
        <time>2016-10-09T07:56:15.000Z</time>
      </trkpt>
      <trkpt lat="47.47947" lon="6.76633">
        <ele>311</ele>
        <time>2016-10-09T07:56:16.000Z</time>
      </trkpt>
      <trkpt lat="47.47942" lon="6.76635">
        <ele>311</ele>
        <time>2016-10-09T07:56:17.000Z</time>
      </trkpt>
      <trkpt lat="47.47939" lon="6.76635">
        <ele>311</ele>
        <time>2016-10-09T07:56:18.000Z</time>
      </trkpt>
      <trkpt lat="47.47935" lon="6.76636">
        <ele>311</ele>
        <time>2016-10-09T07:56:19.000Z</time>
      </trkpt>
      <trkpt lat="47.4793" lon="6.7664">
        <ele>311</ele>
        <time>2016-10-09T07:56:20.000Z</time>
      </trkpt>
      <trkpt lat="47.47923" lon="6.76644">
        <ele>311</ele>
        <time>2016-10-09T07:56:21.000Z</time>
      </trkpt>
      <trkpt lat="47.47917" lon="6.76647">
        <ele>311</ele>
        <time>2016-10-09T07:56:22.000Z</time>
      </trkpt>
      <trkpt lat="47.47913" lon="6.7665">
        <ele>310</ele>
        <time>2016-10-09T07:56:23.000Z</time>
      </trkpt>
      <trkpt lat="47.47907" lon="6.76654">
        <ele>310</ele>
        <time>2016-10-09T07:56:24.000Z</time>
      </trkpt>
      <trkpt lat="47.47903" lon="6.76661">
        <ele>310</ele>
        <time>2016-10-09T07:56:25.000Z</time>
      </trkpt>
      <trkpt lat="47.47898" lon="6.76668">
        <ele>311</ele>
        <time>2016-10-09T07:56:25.999Z</time>
      </trkpt>
      <trkpt lat="47.47894" lon="6.76677">
        <ele>310</ele>
        <time>2016-10-09T07:56:27.000Z</time>
      </trkpt>
      <trkpt lat="47.47892" lon="6.76682">
        <ele>310</ele>
        <time>2016-10-09T07:56:28.000Z</time>
      </trkpt>
      <trkpt lat="47.4789" lon="6.76688">
        <ele>310</ele>
        <time>2016-10-09T07:56:29.000Z</time>
      </trkpt>
      <trkpt lat="47.47887" lon="6.76695">
        <ele>310</ele>
        <time>2016-10-09T07:56:29.999Z</time>
      </trkpt>
      <trkpt lat="47.47887" lon="6.767">
        <ele>310</ele>
        <time>2016-10-09T07:56:31.000Z</time>
      </trkpt>
      <trkpt lat="47.47884" lon="6.76707">
        <ele>310</ele>
        <time>2016-10-09T07:56:32.000Z</time>
      </trkpt>
      <trkpt lat="47.47881" lon="6.76717">
        <ele>310</ele>
        <time>2016-10-09T07:56:33.000Z</time>
      </trkpt>
      <trkpt lat="47.47877" lon="6.76723">
        <ele>310</ele>
        <time>2016-10-09T07:56:34.000Z</time>
      </trkpt>
      <trkpt lat="47.47875" lon="6.76731">
        <ele>310</ele>
        <time>2016-10-09T07:56:35.000Z</time>
      </trkpt>
      <trkpt lat="47.47873" lon="6.76738">
        <ele>310</ele>
        <time>2016-10-09T07:56:36.000Z</time>
      </trkpt>
      <trkpt lat="47.4787" lon="6.76748">
        <ele>310</ele>
        <time>2016-10-09T07:56:37.000Z</time>
      </trkpt>
      <trkpt lat="47.47864" lon="6.76753">
        <ele>311</ele>
        <time>2016-10-09T07:56:38.000Z</time>
      </trkpt>
      <trkpt lat="47.4786" lon="6.7676">
        <ele>311</ele>
        <time>2016-10-09T07:56:39.000Z</time>
      </trkpt>
      <trkpt lat="47.47856" lon="6.76768">
        <ele>311</ele>
        <time>2016-10-09T07:56:40.000Z</time>
      </trkpt>
      <trkpt lat="47.47855" lon="6.76775">
        <ele>311</ele>
        <time>2016-10-09T07:56:41.000Z</time>
      </trkpt>
      <trkpt lat="47.47851" lon="6.76784">
        <ele>311</ele>
        <time>2016-10-09T07:56:41.999Z</time>
      </trkpt>
      <trkpt lat="47.4785" lon="6.7679">
        <ele>311</ele>
        <time>2016-10-09T07:56:43.000Z</time>
      </trkpt>
      <trkpt lat="47.47847" lon="6.76797">
        <ele>311</ele>
        <time>2016-10-09T07:56:44.001Z</time>
      </trkpt>
      <trkpt lat="47.47842" lon="6.76801">
        <ele>311</ele>
        <time>2016-10-09T07:56:45.000Z</time>
      </trkpt>
      <trkpt lat="47.47834" lon="6.76802">
        <ele>311</ele>
        <time>2016-10-09T07:56:46.000Z</time>
      </trkpt>
      <trkpt lat="47.47827" lon="6.76805">
        <ele>310</ele>
        <time>2016-10-09T07:56:47.000Z</time>
      </trkpt>
      <trkpt lat="47.47822" lon="6.76806">
        <ele>310</ele>
        <time>2016-10-09T07:56:48.000Z</time>
      </trkpt>
      <trkpt lat="47.47815" lon="6.76806">
        <ele>310</ele>
        <time>2016-10-09T07:56:49.000Z</time>
      </trkpt>
      <trkpt lat="47.4781" lon="6.76805">
        <ele>310</ele>
        <time>2016-10-09T07:56:50.000Z</time>
      </trkpt>
      <trkpt lat="47.47804" lon="6.76803">
        <ele>310</ele>
        <time>2016-10-09T07:56:51.000Z</time>
      </trkpt>
      <trkpt lat="47.47799" lon="6.76802">
        <ele>310</ele>
        <time>2016-10-09T07:56:52.000Z</time>
      </trkpt>
      <trkpt lat="47.47795" lon="6.76801">
        <ele>310</ele>
        <time>2016-10-09T07:56:53.000Z</time>
      </trkpt>
      <trkpt lat="47.47792" lon="6.768">
        <ele>310</ele>
        <time>2016-10-09T07:56:54.000Z</time>
      </trkpt>
      <trkpt lat="47.47789" lon="6.768">
        <ele>311</ele>
        <time>2016-10-09T07:56:55.000Z</time>
      </trkpt>
      <trkpt lat="47.47786" lon="6.76798">
        <ele>311</ele>
        <time>2016-10-09T07:56:56.000Z</time>
      </trkpt>
      <trkpt lat="47.47782" lon="6.76799">
        <ele>311</ele>
        <time>2016-10-09T07:57:00.000Z</time>
      </trkpt>
      <trkpt lat="47.47781" lon="6.768">
        <ele>311</ele>
        <time>2016-10-09T07:57:01.000Z</time>
      </trkpt>
      <trkpt lat="47.47777" lon="6.76799">
        <ele>311</ele>
        <time>2016-10-09T07:57:14.000Z</time>
      </trkpt>
      <trkpt lat="47.47776" lon="6.76798">
        <ele>311</ele>
        <time>2016-10-09T07:57:15.000Z</time>
      </trkpt>
      <trkpt lat="47.47774" lon="6.76796">
        <ele>311</ele>
        <time>2016-10-09T07:57:17.000Z</time>
      </trkpt>
      <trkpt lat="47.47771" lon="6.76797">
        <ele>311</ele>
        <time>2016-10-09T07:57:18.000Z</time>
      </trkpt>
      <trkpt lat="47.47767" lon="6.76798">
        <ele>311</ele>
        <time>2016-10-09T07:57:19.000Z</time>
      </trkpt>
      <trkpt lat="47.47763" lon="6.76798">
        <ele>311</ele>
        <time>2016-10-09T07:57:20.000Z</time>
      </trkpt>
      <trkpt lat="47.47759" lon="6.76797">
        <ele>311</ele>
        <time>2016-10-09T07:57:21.000Z</time>
      </trkpt>
      <trkpt lat="47.47754" lon="6.76796">
        <ele>311</ele>
        <time>2016-10-09T07:57:22.000Z</time>
      </trkpt>
      <trkpt lat="47.4775" lon="6.76795">
        <ele>311</ele>
        <time>2016-10-09T07:57:23.000Z</time>
      </trkpt>
      <trkpt lat="47.47742" lon="6.76801">
        <ele>311</ele>
        <time>2016-10-09T07:57:24.000Z</time>
      </trkpt>
      <trkpt lat="47.47737" lon="6.76806">
        <ele>311</ele>
        <time>2016-10-09T07:57:24.999Z</time>
      </trkpt>
      <trkpt lat="47.47734" lon="6.76811">
        <ele>311</ele>
        <time>2016-10-09T07:57:26.000Z</time>
      </trkpt>
      <trkpt lat="47.4773" lon="6.7682">
        <ele>311</ele>
        <time>2016-10-09T07:57:27.000Z</time>
      </trkpt>
      <trkpt lat="47.47728" lon="6.76829">
        <ele>311</ele>
        <time>2016-10-09T07:57:28.000Z</time>
      </trkpt>
      <trkpt lat="47.47726" lon="6.76837">
        <ele>311</ele>
        <time>2016-10-09T07:57:29.000Z</time>
      </trkpt>
      <trkpt lat="47.47724" lon="6.76845">
        <ele>311</ele>
        <time>2016-10-09T07:57:30.000Z</time>
      </trkpt>
      <trkpt lat="47.47723" lon="6.76852">
        <ele>311</ele>
        <time>2016-10-09T07:57:31.000Z</time>
      </trkpt>
      <trkpt lat="47.47723" lon="6.76858">
        <ele>311</ele>
        <time>2016-10-09T07:57:32.000Z</time>
      </trkpt>
      <trkpt lat="47.47722" lon="6.76864">
        <ele>311</ele>
        <time>2016-10-09T07:57:33.000Z</time>
      </trkpt>
      <trkpt lat="47.47718" lon="6.76873">
        <ele>311</ele>
        <time>2016-10-09T07:57:34.000Z</time>
      </trkpt>
      <trkpt lat="47.47715" lon="6.76883">
        <ele>311</ele>
        <time>2016-10-09T07:57:35.000Z</time>
      </trkpt>
      <trkpt lat="47.47711" lon="6.76893">
        <ele>311</ele>
        <time>2016-10-09T07:57:36.000Z</time>
      </trkpt>
      <trkpt lat="47.47706" lon="6.76902">
        <ele>311</ele>
        <time>2016-10-09T07:57:37.000Z</time>
      </trkpt>
      <trkpt lat="47.47702" lon="6.76907">
        <ele>311</ele>
        <time>2016-10-09T07:57:38.000Z</time>
      </trkpt>
      <trkpt lat="47.47699" lon="6.76915">
        <ele>311</ele>
        <time>2016-10-09T07:57:39.000Z</time>
      </trkpt>
      <trkpt lat="47.47696" lon="6.76923">
        <ele>311</ele>
        <time>2016-10-09T07:57:40.000Z</time>
      </trkpt>
      <trkpt lat="47.47693" lon="6.76931">
        <ele>311</ele>
        <time>2016-10-09T07:57:41.000Z</time>
      </trkpt>
      <trkpt lat="47.4769" lon="6.7694">
        <ele>311</ele>
        <time>2016-10-09T07:57:42.000Z</time>
      </trkpt>
      <trkpt lat="47.47686" lon="6.76949">
        <ele>311</ele>
        <time>2016-10-09T07:57:43.000Z</time>
      </trkpt>
      <trkpt lat="47.47681" lon="6.76958">
        <ele>311</ele>
        <time>2016-10-09T07:57:44.000Z</time>
      </trkpt>
      <trkpt lat="47.47678" lon="6.76966">
        <ele>311</ele>
        <time>2016-10-09T07:57:45.000Z</time>
      </trkpt>
      <trkpt lat="47.47675" lon="6.76975">
        <ele>311</ele>
        <time>2016-10-09T07:57:46.000Z</time>
      </trkpt>
      <trkpt lat="47.47672" lon="6.76982">
        <ele>311</ele>
        <time>2016-10-09T07:57:47.000Z</time>
      </trkpt>
      <trkpt lat="47.47671" lon="6.76989">
        <ele>311</ele>
        <time>2016-10-09T07:57:48.000Z</time>
      </trkpt>
      <trkpt lat="47.47669" lon="6.76995">
        <ele>311</ele>
        <time>2016-10-09T07:57:49.000Z</time>
      </trkpt>
      <trkpt lat="47.47665" lon="6.77002">
        <ele>311</ele>
        <time>2016-10-09T07:57:50.000Z</time>
      </trkpt>
      <trkpt lat="47.47664" lon="6.77007">
        <ele>311</ele>
        <time>2016-10-09T07:57:51.000Z</time>
      </trkpt>
      <trkpt lat="47.47662" lon="6.77012">
        <ele>311</ele>
        <time>2016-10-09T07:57:52.000Z</time>
      </trkpt>
      <trkpt lat="47.47662" lon="6.77015">
        <ele>311</ele>
        <time>2016-10-09T07:57:53.000Z</time>
      </trkpt>
      <trkpt lat="47.4766" lon="6.7702">
        <ele>311</ele>
        <time>2016-10-09T07:57:54.000Z</time>
      </trkpt>
      <trkpt lat="47.47659" lon="6.77024">
        <ele>311</ele>
        <time>2016-10-09T07:57:55.000Z</time>
      </trkpt>
      <trkpt lat="47.47657" lon="6.77028">
        <ele>311</ele>
        <time>2016-10-09T07:57:56.000Z</time>
      </trkpt>
      <trkpt lat="47.47654" lon="6.77034">
        <ele>311</ele>
        <time>2016-10-09T07:57:57.000Z</time>
      </trkpt>
      <trkpt lat="47.47654" lon="6.77041">
        <ele>311</ele>
        <time>2016-10-09T07:57:58.000Z</time>
      </trkpt>
      <trkpt lat="47.47655" lon="6.77047">
        <ele>311</ele>
        <time>2016-10-09T07:57:59.000Z</time>
      </trkpt>
      <trkpt lat="47.47655" lon="6.77051">
        <ele>311</ele>
        <time>2016-10-09T07:58:00.000Z</time>
      </trkpt>
      <trkpt lat="47.47656" lon="6.77057">
        <ele>311</ele>
        <time>2016-10-09T07:58:01.000Z</time>
      </trkpt>
      <trkpt lat="47.47653" lon="6.77066">
        <ele>311</ele>
        <time>2016-10-09T07:58:02.000Z</time>
      </trkpt>
      <trkpt lat="47.47652" lon="6.77072">
        <ele>311</ele>
        <time>2016-10-09T07:58:03.000Z</time>
      </trkpt>
      <trkpt lat="47.47653" lon="6.77077">
        <ele>311</ele>
        <time>2016-10-09T07:58:04.000Z</time>
      </trkpt>
      <trkpt lat="47.4765" lon="6.77083">
        <ele>311</ele>
        <time>2016-10-09T07:58:05.000Z</time>
      </trkpt>
      <trkpt lat="47.47649" lon="6.77089">
        <ele>311</ele>
        <time>2016-10-09T07:58:06.000Z</time>
      </trkpt>
      <trkpt lat="47.47648" lon="6.77097">
        <ele>311</ele>
        <time>2016-10-09T07:58:07.000Z</time>
      </trkpt>
      <trkpt lat="47.47647" lon="6.77104">
        <ele>311</ele>
        <time>2016-10-09T07:58:08.000Z</time>
      </trkpt>
      <trkpt lat="47.47646" lon="6.77112">
        <ele>310</ele>
        <time>2016-10-09T07:58:09.000Z</time>
      </trkpt>
      <trkpt lat="47.47645" lon="6.7712">
        <ele>310</ele>
        <time>2016-10-09T07:58:10.000Z</time>
      </trkpt>
      <trkpt lat="47.47644" lon="6.77129">
        <ele>310</ele>
        <time>2016-10-09T07:58:11.000Z</time>
      </trkpt>
      <trkpt lat="47.4764" lon="6.77138">
        <ele>310</ele>
        <time>2016-10-09T07:58:12.000Z</time>
      </trkpt>
      <trkpt lat="47.47634" lon="6.77147">
        <ele>310</ele>
        <time>2016-10-09T07:58:13.000Z</time>
      </trkpt>
      <trkpt lat="47.47631" lon="6.77156">
        <ele>310</ele>
        <time>2016-10-09T07:58:14.000Z</time>
      </trkpt>
      <trkpt lat="47.47627" lon="6.77166">
        <ele>310</ele>
        <time>2016-10-09T07:58:15.000Z</time>
      </trkpt>
      <trkpt lat="47.47623" lon="6.77176">
        <ele>310</ele>
        <time>2016-10-09T07:58:16.000Z</time>
      </trkpt>
      <trkpt lat="47.47619" lon="6.77183">
        <ele>310</ele>
        <time>2016-10-09T07:58:17.000Z</time>
      </trkpt>
      <trkpt lat="47.47612" lon="6.77185">
        <ele>310</ele>
        <time>2016-10-09T07:58:18.000Z</time>
      </trkpt>
      <trkpt lat="47.47605" lon="6.77186">
        <ele>310</ele>
        <time>2016-10-09T07:58:19.000Z</time>
      </trkpt>
      <trkpt lat="47.47599" lon="6.7718">
        <ele>310</ele>
        <time>2016-10-09T07:58:20.000Z</time>
      </trkpt>
      <trkpt lat="47.47592" lon="6.77176">
        <ele>309</ele>
        <time>2016-10-09T07:58:21.000Z</time>
      </trkpt>
      <trkpt lat="47.47586" lon="6.77171">
        <ele>309</ele>
        <time>2016-10-09T07:58:22.000Z</time>
      </trkpt>
      <trkpt lat="47.4758" lon="6.77167">
        <ele>309</ele>
        <time>2016-10-09T07:58:23.000Z</time>
      </trkpt>
      <trkpt lat="47.47573" lon="6.77163">
        <ele>309</ele>
        <time>2016-10-09T07:58:24.000Z</time>
      </trkpt>
      <trkpt lat="47.47569" lon="6.77158">
        <ele>309</ele>
        <time>2016-10-09T07:58:25.000Z</time>
      </trkpt>
      <trkpt lat="47.47563" lon="6.77155">
        <ele>310</ele>
        <time>2016-10-09T07:58:26.000Z</time>
      </trkpt>
      <trkpt lat="47.47558" lon="6.77151">
        <ele>310</ele>
        <time>2016-10-09T07:58:27.000Z</time>
      </trkpt>
      <trkpt lat="47.47553" lon="6.77146">
        <ele>310</ele>
        <time>2016-10-09T07:58:28.000Z</time>
      </trkpt>
      <trkpt lat="47.47548" lon="6.77143">
        <ele>310</ele>
        <time>2016-10-09T07:58:29.000Z</time>
      </trkpt>
      <trkpt lat="47.47542" lon="6.77139">
        <ele>310</ele>
        <time>2016-10-09T07:58:30.000Z</time>
      </trkpt>
      <trkpt lat="47.47536" lon="6.77136">
        <ele>310</ele>
        <time>2016-10-09T07:58:31.000Z</time>
      </trkpt>
      <trkpt lat="47.47531" lon="6.77134">
        <ele>310</ele>
        <time>2016-10-09T07:58:31.999Z</time>
      </trkpt>
      <trkpt lat="47.47525" lon="6.77143">
        <ele>310</ele>
        <time>2016-10-09T07:58:33.000Z</time>
      </trkpt>
      <trkpt lat="47.4752" lon="6.77148">
        <ele>310</ele>
        <time>2016-10-09T07:58:34.001Z</time>
      </trkpt>
      <trkpt lat="47.47514" lon="6.77152">
        <ele>310</ele>
        <time>2016-10-09T07:58:35.000Z</time>
      </trkpt>
      <trkpt lat="47.4751" lon="6.77162">
        <ele>309</ele>
        <time>2016-10-09T07:58:36.000Z</time>
      </trkpt>
      <trkpt lat="47.47507" lon="6.77174">
        <ele>310</ele>
        <time>2016-10-09T07:58:37.000Z</time>
      </trkpt>
      <trkpt lat="47.47513" lon="6.77177">
        <ele>310</ele>
        <time>2016-10-09T07:58:38.000Z</time>
      </trkpt>
      <trkpt lat="47.47523" lon="6.77181">
        <ele>310</ele>
        <time>2016-10-09T07:58:39.000Z</time>
      </trkpt>
      <trkpt lat="47.47526" lon="6.77184">
        <ele>310</ele>
        <time>2016-10-09T07:58:40.000Z</time>
      </trkpt>
      <trkpt lat="47.47531" lon="6.77187">
        <ele>310</ele>
        <time>2016-10-09T07:58:41.000Z</time>
      </trkpt>
      <trkpt lat="47.47535" lon="6.77189">
        <ele>310</ele>
        <time>2016-10-09T07:58:41.999Z</time>
      </trkpt>
      <trkpt lat="47.47541" lon="6.77191">
        <ele>310</ele>
        <time>2016-10-09T07:58:43.000Z</time>
      </trkpt>
      <trkpt lat="47.47546" lon="6.77193">
        <ele>310</ele>
        <time>2016-10-09T07:58:44.000Z</time>
      </trkpt>
      <trkpt lat="47.4755" lon="6.77196">
        <ele>310</ele>
        <time>2016-10-09T07:58:45.000Z</time>
      </trkpt>
      <trkpt lat="47.47555" lon="6.77201">
        <ele>310</ele>
        <time>2016-10-09T07:58:46.000Z</time>
      </trkpt>
      <trkpt lat="47.4756" lon="6.77207">
        <ele>310</ele>
        <time>2016-10-09T07:58:47.000Z</time>
      </trkpt>
      <trkpt lat="47.47565" lon="6.77211">
        <ele>311</ele>
        <time>2016-10-09T07:58:48.000Z</time>
      </trkpt>
      <trkpt lat="47.4757" lon="6.77216">
        <ele>311</ele>
        <time>2016-10-09T07:58:49.000Z</time>
      </trkpt>
      <trkpt lat="47.47574" lon="6.7722">
        <ele>311</ele>
        <time>2016-10-09T07:58:50.000Z</time>
      </trkpt>
      <trkpt lat="47.47578" lon="6.77224">
        <ele>311</ele>
        <time>2016-10-09T07:58:51.000Z</time>
      </trkpt>
      <trkpt lat="47.47583" lon="6.77228">
        <ele>311</ele>
        <time>2016-10-09T07:58:52.000Z</time>
      </trkpt>
      <trkpt lat="47.47589" lon="6.77234">
        <ele>311</ele>
        <time>2016-10-09T07:58:53.000Z</time>
      </trkpt>
      <trkpt lat="47.47594" lon="6.77237">
        <ele>311</ele>
        <time>2016-10-09T07:58:54.000Z</time>
      </trkpt>
      <trkpt lat="47.47598" lon="6.77242">
        <ele>311</ele>
        <time>2016-10-09T07:58:55.000Z</time>
      </trkpt>
      <trkpt lat="47.47603" lon="6.77245">
        <ele>311</ele>
        <time>2016-10-09T07:58:56.000Z</time>
      </trkpt>
      <trkpt lat="47.47606" lon="6.77249">
        <ele>311</ele>
        <time>2016-10-09T07:58:57.000Z</time>
      </trkpt>
      <trkpt lat="47.47611" lon="6.77253">
        <ele>311</ele>
        <time>2016-10-09T07:58:58.000Z</time>
      </trkpt>
      <trkpt lat="47.47616" lon="6.77257">
        <ele>311</ele>
        <time>2016-10-09T07:58:59.000Z</time>
      </trkpt>
      <trkpt lat="47.4762" lon="6.7726">
        <ele>311</ele>
        <time>2016-10-09T07:59:00.000Z</time>
      </trkpt>
      <trkpt lat="47.47625" lon="6.77263">
        <ele>311</ele>
        <time>2016-10-09T07:59:01.000Z</time>
      </trkpt>
      <trkpt lat="47.47629" lon="6.77266">
        <ele>311</ele>
        <time>2016-10-09T07:59:02.000Z</time>
      </trkpt>
      <trkpt lat="47.47632" lon="6.77271">
        <ele>311</ele>
        <time>2016-10-09T07:59:03.000Z</time>
      </trkpt>
      <trkpt lat="47.47635" lon="6.77276">
        <ele>311</ele>
        <time>2016-10-09T07:59:04.000Z</time>
      </trkpt>
      <trkpt lat="47.47638" lon="6.77281">
        <ele>311</ele>
        <time>2016-10-09T07:59:05.000Z</time>
      </trkpt>
      <trkpt lat="47.4764" lon="6.77287">
        <ele>311</ele>
        <time>2016-10-09T07:59:05.999Z</time>
      </trkpt>
      <trkpt lat="47.47642" lon="6.77294">
        <ele>311</ele>
        <time>2016-10-09T07:59:07.000Z</time>
      </trkpt>
      <trkpt lat="47.4764" lon="6.77302">
        <ele>311</ele>
        <time>2016-10-09T07:59:08.000Z</time>
      </trkpt>
      <trkpt lat="47.47635" lon="6.77314">
        <ele>311</ele>
        <time>2016-10-09T07:59:10.000Z</time>
      </trkpt>
      <trkpt lat="47.47634" lon="6.77321">
        <ele>311</ele>
        <time>2016-10-09T07:59:11.000Z</time>
      </trkpt>
      <trkpt lat="47.47633" lon="6.77327">
        <ele>311</ele>
        <time>2016-10-09T07:59:12.000Z</time>
      </trkpt>
      <trkpt lat="47.47632" lon="6.77333">
        <ele>311</ele>
        <time>2016-10-09T07:59:13.000Z</time>
      </trkpt>
      <trkpt lat="47.47629" lon="6.77339">
        <ele>312</ele>
        <time>2016-10-09T07:59:14.000Z</time>
      </trkpt>
      <trkpt lat="47.4763" lon="6.77345">
        <ele>312</ele>
        <time>2016-10-09T07:59:15.000Z</time>
      </trkpt>
      <trkpt lat="47.47631" lon="6.77351">
        <ele>312</ele>
        <time>2016-10-09T07:59:16.000Z</time>
      </trkpt>
      <trkpt lat="47.47629" lon="6.77356">
        <ele>312</ele>
        <time>2016-10-09T07:59:17.000Z</time>
      </trkpt>
      <trkpt lat="47.47626" lon="6.77361">
        <ele>312</ele>
        <time>2016-10-09T07:59:18.000Z</time>
      </trkpt>
      <trkpt lat="47.47624" lon="6.77366">
        <ele>312</ele>
        <time>2016-10-09T07:59:19.000Z</time>
      </trkpt>
      <trkpt lat="47.47622" lon="6.77371">
        <ele>312</ele>
        <time>2016-10-09T07:59:19.999Z</time>
      </trkpt>
      <trkpt lat="47.47621" lon="6.77376">
        <ele>312</ele>
        <time>2016-10-09T07:59:20.999Z</time>
      </trkpt>
      <trkpt lat="47.47619" lon="6.7738">
        <ele>312</ele>
        <time>2016-10-09T07:59:22.000Z</time>
      </trkpt>
      <trkpt lat="47.47617" lon="6.77384">
        <ele>312</ele>
        <time>2016-10-09T07:59:23.000Z</time>
      </trkpt>
      <trkpt lat="47.47616" lon="6.77389">
        <ele>312</ele>
        <time>2016-10-09T07:59:24.000Z</time>
      </trkpt>
      <trkpt lat="47.47615" lon="6.77393">
        <ele>312</ele>
        <time>2016-10-09T07:59:25.000Z</time>
      </trkpt>
      <trkpt lat="47.47614" lon="6.77398">
        <ele>312</ele>
        <time>2016-10-09T07:59:26.000Z</time>
      </trkpt>
      <trkpt lat="47.47614" lon="6.77402">
        <ele>312</ele>
        <time>2016-10-09T07:59:27.000Z</time>
      </trkpt>
      <trkpt lat="47.47613" lon="6.77406">
        <ele>313</ele>
        <time>2016-10-09T07:59:28.000Z</time>
      </trkpt>
      <trkpt lat="47.47611" lon="6.7741">
        <ele>313</ele>
        <time>2016-10-09T07:59:29.000Z</time>
      </trkpt>
      <trkpt lat="47.47608" lon="6.77412">
        <ele>313</ele>
        <time>2016-10-09T07:59:30.000Z</time>
      </trkpt>
      <trkpt lat="47.47606" lon="6.77415">
        <ele>313</ele>
        <time>2016-10-09T07:59:31.000Z</time>
      </trkpt>
      <trkpt lat="47.47603" lon="6.77416">
        <ele>313</ele>
        <time>2016-10-09T07:59:32.000Z</time>
      </trkpt>
      <trkpt lat="47.476" lon="6.77417">
        <ele>314</ele>
        <time>2016-10-09T07:59:33.000Z</time>
      </trkpt>
      <trkpt lat="47.47598" lon="6.77419">
        <ele>314</ele>
        <time>2016-10-09T07:59:34.000Z</time>
      </trkpt>
      <trkpt lat="47.47595" lon="6.77422">
        <ele>314</ele>
        <time>2016-10-09T07:59:35.000Z</time>
      </trkpt>
      <trkpt lat="47.47592" lon="6.77427">
        <ele>314</ele>
        <time>2016-10-09T07:59:36.000Z</time>
      </trkpt>
      <trkpt lat="47.47591" lon="6.77432">
        <ele>314</ele>
        <time>2016-10-09T07:59:37.000Z</time>
      </trkpt>
      <trkpt lat="47.4759" lon="6.77437">
        <ele>314</ele>
        <time>2016-10-09T07:59:38.000Z</time>
      </trkpt>
      <trkpt lat="47.4759" lon="6.77442">
        <ele>314</ele>
        <time>2016-10-09T07:59:39.000Z</time>
      </trkpt>
      <trkpt lat="47.47591" lon="6.77447">
        <ele>314</ele>
        <time>2016-10-09T07:59:40.000Z</time>
      </trkpt>
      <trkpt lat="47.47593" lon="6.77451">
        <ele>314</ele>
        <time>2016-10-09T07:59:41.000Z</time>
      </trkpt>
      <trkpt lat="47.47595" lon="6.77455">
        <ele>314</ele>
        <time>2016-10-09T07:59:42.000Z</time>
      </trkpt>
      <trkpt lat="47.47598" lon="6.77459">
        <ele>314</ele>
        <time>2016-10-09T07:59:43.000Z</time>
      </trkpt>
      <trkpt lat="47.47601" lon="6.77463">
        <ele>314</ele>
        <time>2016-10-09T07:59:44.000Z</time>
      </trkpt>
      <trkpt lat="47.47604" lon="6.77466">
        <ele>314</ele>
        <time>2016-10-09T07:59:45.000Z</time>
      </trkpt>
      <trkpt lat="47.47607" lon="6.7747">
        <ele>314</ele>
        <time>2016-10-09T07:59:46.000Z</time>
      </trkpt>
      <trkpt lat="47.47609" lon="6.77473">
        <ele>314</ele>
        <time>2016-10-09T07:59:47.000Z</time>
      </trkpt>
      <trkpt lat="47.47612" lon="6.77476">
        <ele>314</ele>
        <time>2016-10-09T07:59:48.000Z</time>
      </trkpt>
      <trkpt lat="47.47614" lon="6.77479">
        <ele>314</ele>
        <time>2016-10-09T07:59:49.000Z</time>
      </trkpt>
      <trkpt lat="47.47616" lon="6.77482">
        <ele>314</ele>
        <time>2016-10-09T07:59:50.000Z</time>
      </trkpt>
      <trkpt lat="47.47618" lon="6.77486">
        <ele>314</ele>
        <time>2016-10-09T07:59:51.000Z</time>
      </trkpt>
      <trkpt lat="47.4762" lon="6.77489">
        <ele>314</ele>
        <time>2016-10-09T07:59:52.000Z</time>
      </trkpt>
      <trkpt lat="47.47626" lon="6.77496">
        <ele>314</ele>
        <time>2016-10-09T07:59:53.000Z</time>
      </trkpt>
      <trkpt lat="47.47627" lon="6.77499">
        <ele>314</ele>
        <time>2016-10-09T07:59:54.000Z</time>
      </trkpt>
      <trkpt lat="47.47629" lon="6.77501">
        <ele>315</ele>
        <time>2016-10-09T07:59:55.000Z</time>
      </trkpt>
      <trkpt lat="47.47635" lon="6.77506">
        <ele>315</ele>
        <time>2016-10-09T07:59:56.000Z</time>
      </trkpt>
      <trkpt lat="47.47638" lon="6.77509">
        <ele>315</ele>
        <time>2016-10-09T07:59:57.000Z</time>
      </trkpt>
      <trkpt lat="47.47642" lon="6.77514">
        <ele>315</ele>
        <time>2016-10-09T07:59:58.000Z</time>
      </trkpt>
      <trkpt lat="47.47647" lon="6.7752">
        <ele>315</ele>
        <time>2016-10-09T07:59:59.000Z</time>
      </trkpt>
      <trkpt lat="47.47649" lon="6.77522">
        <ele>315</ele>
        <time>2016-10-09T08:00:00.000Z</time>
      </trkpt>
      <trkpt lat="47.47652" lon="6.77525">
        <ele>315</ele>
        <time>2016-10-09T08:00:01.000Z</time>
      </trkpt>
      <trkpt lat="47.47654" lon="6.77528">
        <ele>315</ele>
        <time>2016-10-09T08:00:02.000Z</time>
      </trkpt>
      <trkpt lat="47.47655" lon="6.77535">
        <ele>315</ele>
        <time>2016-10-09T08:00:03.000Z</time>
      </trkpt>
      <trkpt lat="47.47657" lon="6.77538">
        <ele>315</ele>
        <time>2016-10-09T08:00:04.000Z</time>
      </trkpt>
      <trkpt lat="47.4766" lon="6.77542">
        <ele>315</ele>
        <time>2016-10-09T08:00:05.000Z</time>
      </trkpt>
      <trkpt lat="47.47663" lon="6.77547">
        <ele>315</ele>
        <time>2016-10-09T08:00:06.000Z</time>
      </trkpt>
      <trkpt lat="47.47666" lon="6.77551">
        <ele>315</ele>
        <time>2016-10-09T08:00:07.000Z</time>
      </trkpt>
      <trkpt lat="47.47669" lon="6.77555">
        <ele>314</ele>
        <time>2016-10-09T08:00:08.001Z</time>
      </trkpt>
      <trkpt lat="47.47672" lon="6.77562">
        <ele>314</ele>
        <time>2016-10-09T08:00:09.000Z</time>
      </trkpt>
      <trkpt lat="47.47672" lon="6.77566">
        <ele>314</ele>
        <time>2016-10-09T08:00:09.999Z</time>
      </trkpt>
      <trkpt lat="47.47677" lon="6.7757">
        <ele>314</ele>
        <time>2016-10-09T08:00:11.000Z</time>
      </trkpt>
      <trkpt lat="47.4768" lon="6.77574">
        <ele>314</ele>
        <time>2016-10-09T08:00:12.000Z</time>
      </trkpt>
      <trkpt lat="47.47684" lon="6.77579">
        <ele>314</ele>
        <time>2016-10-09T08:00:13.000Z</time>
      </trkpt>
      <trkpt lat="47.47688" lon="6.77585">
        <ele>314</ele>
        <time>2016-10-09T08:00:13.999Z</time>
      </trkpt>
      <trkpt lat="47.47692" lon="6.7759">
        <ele>314</ele>
        <time>2016-10-09T08:00:15.000Z</time>
      </trkpt>
      <trkpt lat="47.47698" lon="6.77598">
        <ele>314</ele>
        <time>2016-10-09T08:00:16.000Z</time>
      </trkpt>
      <trkpt lat="47.47699" lon="6.77606">
        <ele>314</ele>
        <time>2016-10-09T08:00:17.000Z</time>
      </trkpt>
      <trkpt lat="47.47701" lon="6.77614">
        <ele>314</ele>
        <time>2016-10-09T08:00:18.000Z</time>
      </trkpt>
      <trkpt lat="47.47703" lon="6.77621">
        <ele>314</ele>
        <time>2016-10-09T08:00:19.001Z</time>
      </trkpt>
      <trkpt lat="47.47704" lon="6.77626">
        <ele>314</ele>
        <time>2016-10-09T08:00:20.000Z</time>
      </trkpt>
      <trkpt lat="47.47704" lon="6.77632">
        <ele>314</ele>
        <time>2016-10-09T08:00:20.999Z</time>
      </trkpt>
      <trkpt lat="47.47707" lon="6.7764">
        <ele>314</ele>
        <time>2016-10-09T08:00:22.000Z</time>
      </trkpt>
      <trkpt lat="47.47709" lon="6.77644">
        <ele>314</ele>
        <time>2016-10-09T08:00:23.000Z</time>
      </trkpt>
      <trkpt lat="47.4771" lon="6.7765">
        <ele>314</ele>
        <time>2016-10-09T08:00:24.000Z</time>
      </trkpt>
      <trkpt lat="47.47711" lon="6.77656">
        <ele>314</ele>
        <time>2016-10-09T08:00:25.001Z</time>
      </trkpt>
      <trkpt lat="47.47713" lon="6.77665">
        <ele>314</ele>
        <time>2016-10-09T08:00:26.000Z</time>
      </trkpt>
      <trkpt lat="47.47715" lon="6.77672">
        <ele>315</ele>
        <time>2016-10-09T08:00:27.000Z</time>
      </trkpt>
      <trkpt lat="47.47717" lon="6.77678">
        <ele>315</ele>
        <time>2016-10-09T08:00:28.000Z</time>
      </trkpt>
      <trkpt lat="47.47718" lon="6.77684">
        <ele>315</ele>
        <time>2016-10-09T08:00:29.000Z</time>
      </trkpt>
      <trkpt lat="47.4772" lon="6.7769">
        <ele>315</ele>
        <time>2016-10-09T08:00:30.000Z</time>
      </trkpt>
      <trkpt lat="47.4772" lon="6.77696">
        <ele>315</ele>
        <time>2016-10-09T08:00:31.000Z</time>
      </trkpt>
      <trkpt lat="47.47718" lon="6.77702">
        <ele>315</ele>
        <time>2016-10-09T08:00:32.000Z</time>
      </trkpt>
      <trkpt lat="47.47715" lon="6.77708">
        <ele>315</ele>
        <time>2016-10-09T08:00:33.001Z</time>
      </trkpt>
      <trkpt lat="47.47713" lon="6.77714">
        <ele>315</ele>
        <time>2016-10-09T08:00:34.000Z</time>
      </trkpt>
      <trkpt lat="47.47711" lon="6.77719">
        <ele>316</ele>
        <time>2016-10-09T08:00:35.000Z</time>
      </trkpt>
      <trkpt lat="47.47708" lon="6.77724">
        <ele>316</ele>
        <time>2016-10-09T08:00:35.999Z</time>
      </trkpt>
      <trkpt lat="47.4771" lon="6.7773">
        <ele>316</ele>
        <time>2016-10-09T08:00:37.000Z</time>
      </trkpt>
      <trkpt lat="47.47709" lon="6.77736">
        <ele>316</ele>
        <time>2016-10-09T08:00:38.000Z</time>
      </trkpt>
      <trkpt lat="47.47708" lon="6.77741">
        <ele>316</ele>
        <time>2016-10-09T08:00:39.001Z</time>
      </trkpt>
      <trkpt lat="47.47706" lon="6.77749">
        <ele>316</ele>
        <time>2016-10-09T08:00:40.000Z</time>
      </trkpt>
      <trkpt lat="47.47706" lon="6.77754">
        <ele>316</ele>
        <time>2016-10-09T08:00:41.000Z</time>
      </trkpt>
      <trkpt lat="47.47707" lon="6.7776">
        <ele>316</ele>
        <time>2016-10-09T08:00:42.000Z</time>
      </trkpt>
      <trkpt lat="47.47707" lon="6.77766">
        <ele>316</ele>
        <time>2016-10-09T08:00:43.000Z</time>
      </trkpt>
      <trkpt lat="47.47706" lon="6.77771">
        <ele>316</ele>
        <time>2016-10-09T08:00:44.001Z</time>
      </trkpt>
      <trkpt lat="47.47708" lon="6.77777">
        <ele>316</ele>
        <time>2016-10-09T08:00:45.000Z</time>
      </trkpt>
      <trkpt lat="47.47708" lon="6.77783">
        <ele>316</ele>
        <time>2016-10-09T08:00:46.000Z</time>
      </trkpt>
      <trkpt lat="47.47708" lon="6.77789">
        <ele>316</ele>
        <time>2016-10-09T08:00:47.000Z</time>
      </trkpt>
      <trkpt lat="47.47707" lon="6.77795">
        <ele>317</ele>
        <time>2016-10-09T08:00:48.000Z</time>
      </trkpt>
      <trkpt lat="47.47707" lon="6.77801">
        <ele>317</ele>
        <time>2016-10-09T08:00:49.000Z</time>
      </trkpt>
      <trkpt lat="47.47707" lon="6.77807">
        <ele>317</ele>
        <time>2016-10-09T08:00:50.000Z</time>
      </trkpt>
      <trkpt lat="47.47707" lon="6.77813">
        <ele>317</ele>
        <time>2016-10-09T08:00:51.000Z</time>
      </trkpt>
      <trkpt lat="47.47706" lon="6.77819">
        <ele>317</ele>
        <time>2016-10-09T08:00:52.000Z</time>
      </trkpt>
      <trkpt lat="47.47706" lon="6.77825">
        <ele>317</ele>
        <time>2016-10-09T08:00:53.000Z</time>
      </trkpt>
      <trkpt lat="47.47706" lon="6.7783">
        <ele>317</ele>
        <time>2016-10-09T08:00:54.000Z</time>
      </trkpt>
      <trkpt lat="47.47706" lon="6.77836">
        <ele>318</ele>
        <time>2016-10-09T08:00:55.000Z</time>
      </trkpt>
      <trkpt lat="47.47706" lon="6.77842">
        <ele>318</ele>
        <time>2016-10-09T08:00:56.000Z</time>
      </trkpt>
      <trkpt lat="47.47705" lon="6.77848">
        <ele>318</ele>
        <time>2016-10-09T08:00:57.000Z</time>
      </trkpt>
      <trkpt lat="47.47705" lon="6.77854">
        <ele>318</ele>
        <time>2016-10-09T08:00:58.000Z</time>
      </trkpt>
      <trkpt lat="47.47705" lon="6.7786">
        <ele>318</ele>
        <time>2016-10-09T08:00:59.000Z</time>
      </trkpt>
      <trkpt lat="47.47706" lon="6.77865">
        <ele>318</ele>
        <time>2016-10-09T08:01:00.000Z</time>
      </trkpt>
      <trkpt lat="47.47706" lon="6.77871">
        <ele>318</ele>
        <time>2016-10-09T08:01:01.000Z</time>
      </trkpt>
      <trkpt lat="47.47707" lon="6.77876">
        <ele>318</ele>
        <time>2016-10-09T08:01:02.000Z</time>
      </trkpt>
      <trkpt lat="47.47708" lon="6.77882">
        <ele>318</ele>
        <time>2016-10-09T08:01:03.000Z</time>
      </trkpt>
      <trkpt lat="47.47709" lon="6.77888">
        <ele>318</ele>
        <time>2016-10-09T08:01:04.000Z</time>
      </trkpt>
      <trkpt lat="47.47711" lon="6.77893">
        <ele>318</ele>
        <time>2016-10-09T08:01:05.000Z</time>
      </trkpt>
      <trkpt lat="47.47712" lon="6.77899">
        <ele>318</ele>
        <time>2016-10-09T08:01:06.100Z</time>
      </trkpt>
      <trkpt lat="47.47713" lon="6.77904">
        <ele>318</ele>
        <time>2016-10-09T08:01:07.000Z</time>
      </trkpt>
      <trkpt lat="47.47714" lon="6.77909">
        <ele>318</ele>
        <time>2016-10-09T08:01:08.000Z</time>
      </trkpt>
      <trkpt lat="47.47715" lon="6.77914">
        <ele>318</ele>
        <time>2016-10-09T08:01:09.000Z</time>
      </trkpt>
      <trkpt lat="47.47716" lon="6.7792">
        <ele>319</ele>
        <time>2016-10-09T08:01:10.000Z</time>
      </trkpt>
      <trkpt lat="47.47717" lon="6.77925">
        <ele>319</ele>
        <time>2016-10-09T08:01:11.000Z</time>
      </trkpt>
      <trkpt lat="47.47717" lon="6.77931">
        <ele>320</ele>
        <time>2016-10-09T08:01:12.000Z</time>
      </trkpt>
      <trkpt lat="47.47718" lon="6.77937">
        <ele>320</ele>
        <time>2016-10-09T08:01:13.000Z</time>
      </trkpt>
      <trkpt lat="47.47719" lon="6.77942">
        <ele>320</ele>
        <time>2016-10-09T08:01:14.000Z</time>
      </trkpt>
      <trkpt lat="47.4772" lon="6.77948">
        <ele>320</ele>
        <time>2016-10-09T08:01:15.000Z</time>
      </trkpt>
      <trkpt lat="47.47721" lon="6.77954">
        <ele>320</ele>
        <time>2016-10-09T08:01:16.000Z</time>
      </trkpt>
      <trkpt lat="47.47722" lon="6.77959">
        <ele>320</ele>
        <time>2016-10-09T08:01:17.000Z</time>
      </trkpt>
      <trkpt lat="47.47722" lon="6.77965">
        <ele>320</ele>
        <time>2016-10-09T08:01:18.000Z</time>
      </trkpt>
      <trkpt lat="47.47723" lon="6.7797">
        <ele>320</ele>
        <time>2016-10-09T08:01:19.000Z</time>
      </trkpt>
      <trkpt lat="47.47724" lon="6.77975">
        <ele>320</ele>
        <time>2016-10-09T08:01:20.000Z</time>
      </trkpt>
      <trkpt lat="47.47725" lon="6.7798">
        <ele>320</ele>
        <time>2016-10-09T08:01:21.000Z</time>
      </trkpt>
      <trkpt lat="47.47727" lon="6.77986">
        <ele>320</ele>
        <time>2016-10-09T08:01:22.000Z</time>
      </trkpt>
      <trkpt lat="47.47728" lon="6.77991">
        <ele>320</ele>
        <time>2016-10-09T08:01:23.000Z</time>
      </trkpt>
      <trkpt lat="47.47729" lon="6.77996">
        <ele>320</ele>
        <time>2016-10-09T08:01:24.000Z</time>
      </trkpt>
      <trkpt lat="47.4773" lon="6.78001">
        <ele>321</ele>
        <time>2016-10-09T08:01:25.000Z</time>
      </trkpt>
      <trkpt lat="47.47731" lon="6.78006">
        <ele>321</ele>
        <time>2016-10-09T08:01:26.000Z</time>
      </trkpt>
      <trkpt lat="47.47731" lon="6.78011">
        <ele>321</ele>
        <time>2016-10-09T08:01:27.000Z</time>
      </trkpt>
      <trkpt lat="47.47732" lon="6.78016">
        <ele>321</ele>
        <time>2016-10-09T08:01:28.000Z</time>
      </trkpt>
      <trkpt lat="47.47732" lon="6.78021">
        <ele>321</ele>
        <time>2016-10-09T08:01:29.000Z</time>
      </trkpt>
      <trkpt lat="47.47731" lon="6.78026">
        <ele>321</ele>
        <time>2016-10-09T08:01:30.000Z</time>
      </trkpt>
      <trkpt lat="47.4773" lon="6.78031">
        <ele>321</ele>
        <time>2016-10-09T08:01:31.000Z</time>
      </trkpt>
      <trkpt lat="47.4773" lon="6.78037">
        <ele>322</ele>
        <time>2016-10-09T08:01:32.000Z</time>
      </trkpt>
      <trkpt lat="47.47729" lon="6.78042">
        <ele>322</ele>
        <time>2016-10-09T08:01:33.000Z</time>
      </trkpt>
      <trkpt lat="47.47729" lon="6.78047">
        <ele>322</ele>
        <time>2016-10-09T08:01:34.000Z</time>
      </trkpt>
      <trkpt lat="47.47729" lon="6.78051">
        <ele>322</ele>
        <time>2016-10-09T08:01:35.000Z</time>
      </trkpt>
      <trkpt lat="47.47728" lon="6.78056">
        <ele>322</ele>
        <time>2016-10-09T08:01:36.000Z</time>
      </trkpt>
      <trkpt lat="47.47728" lon="6.7806">
        <ele>322</ele>
        <time>2016-10-09T08:01:37.000Z</time>
      </trkpt>
      <trkpt lat="47.47727" lon="6.78065">
        <ele>322</ele>
        <time>2016-10-09T08:01:38.098Z</time>
      </trkpt>
      <trkpt lat="47.47726" lon="6.7807">
        <ele>322</ele>
        <time>2016-10-09T08:01:39.000Z</time>
      </trkpt>
      <trkpt lat="47.47724" lon="6.78074">
        <ele>322</ele>
        <time>2016-10-09T08:01:40.000Z</time>
      </trkpt>
      <trkpt lat="47.47723" lon="6.78079">
        <ele>322</ele>
        <time>2016-10-09T08:01:41.000Z</time>
      </trkpt>
      <trkpt lat="47.47721" lon="6.78083">
        <ele>322</ele>
        <time>2016-10-09T08:01:42.000Z</time>
      </trkpt>
      <trkpt lat="47.4772" lon="6.78087">
        <ele>325</ele>
        <time>2016-10-09T08:01:43.000Z</time>
      </trkpt>
      <trkpt lat="47.47719" lon="6.78091">
        <ele>325</ele>
        <time>2016-10-09T08:01:44.000Z</time>
      </trkpt>
      <trkpt lat="47.47718" lon="6.78095">
        <ele>325</ele>
        <time>2016-10-09T08:01:45.000Z</time>
      </trkpt>
      <trkpt lat="47.47717" lon="6.78099">
        <ele>325</ele>
        <time>2016-10-09T08:01:46.000Z</time>
      </trkpt>
      <trkpt lat="47.47716" lon="6.78104">
        <ele>325</ele>
        <time>2016-10-09T08:01:47.000Z</time>
      </trkpt>
      <trkpt lat="47.47716" lon="6.78108">
        <ele>325</ele>
        <time>2016-10-09T08:01:48.000Z</time>
      </trkpt>
      <trkpt lat="47.47715" lon="6.78112">
        <ele>326</ele>
        <time>2016-10-09T08:01:49.000Z</time>
      </trkpt>
      <trkpt lat="47.47713" lon="6.78117">
        <ele>326</ele>
        <time>2016-10-09T08:01:50.000Z</time>
      </trkpt>
      <trkpt lat="47.47712" lon="6.78121">
        <ele>326</ele>
        <time>2016-10-09T08:01:51.000Z</time>
      </trkpt>
      <trkpt lat="47.4771" lon="6.78125">
        <ele>326</ele>
        <time>2016-10-09T08:01:52.000Z</time>
      </trkpt>
      <trkpt lat="47.47709" lon="6.78129">
        <ele>326</ele>
        <time>2016-10-09T08:01:53.000Z</time>
      </trkpt>
      <trkpt lat="47.47708" lon="6.78134">
        <ele>327</ele>
        <time>2016-10-09T08:01:54.000Z</time>
      </trkpt>
      <trkpt lat="47.47707" lon="6.78138">
        <ele>327</ele>
        <time>2016-10-09T08:01:55.000Z</time>
      </trkpt>
      <trkpt lat="47.47706" lon="6.78142">
        <ele>327</ele>
        <time>2016-10-09T08:01:56.000Z</time>
      </trkpt>
      <trkpt lat="47.47705" lon="6.78147">
        <ele>327</ele>
        <time>2016-10-09T08:01:57.000Z</time>
      </trkpt>
      <trkpt lat="47.47704" lon="6.78153">
        <ele>327</ele>
        <time>2016-10-09T08:01:58.000Z</time>
      </trkpt>
      <trkpt lat="47.47703" lon="6.78158">
        <ele>327</ele>
        <time>2016-10-09T08:01:59.000Z</time>
      </trkpt>
      <trkpt lat="47.47702" lon="6.78164">
        <ele>328</ele>
        <time>2016-10-09T08:02:00.000Z</time>
      </trkpt>
      <trkpt lat="47.47701" lon="6.78169">
        <ele>331</ele>
        <time>2016-10-09T08:02:01.000Z</time>
      </trkpt>
      <trkpt lat="47.477" lon="6.78174">
        <ele>331</ele>
        <time>2016-10-09T08:02:02.000Z</time>
      </trkpt>
      <trkpt lat="47.47698" lon="6.78178">
        <ele>332</ele>
        <time>2016-10-09T08:02:03.000Z</time>
      </trkpt>
      <trkpt lat="47.47697" lon="6.78183">
        <ele>332</ele>
        <time>2016-10-09T08:02:04.000Z</time>
      </trkpt>
      <trkpt lat="47.47695" lon="6.78188">
        <ele>332</ele>
        <time>2016-10-09T08:02:05.000Z</time>
      </trkpt>
      <trkpt lat="47.47694" lon="6.78192">
        <ele>332</ele>
        <time>2016-10-09T08:02:06.000Z</time>
      </trkpt>
      <trkpt lat="47.47693" lon="6.78197">
        <ele>332</ele>
        <time>2016-10-09T08:02:07.000Z</time>
      </trkpt>
      <trkpt lat="47.47694" lon="6.78201">
        <ele>332</ele>
        <time>2016-10-09T08:02:08.000Z</time>
      </trkpt>
      <trkpt lat="47.47694" lon="6.78206">
        <ele>332</ele>
        <time>2016-10-09T08:02:09.000Z</time>
      </trkpt>
      <trkpt lat="47.47695" lon="6.78209">
        <ele>333</ele>
        <time>2016-10-09T08:02:10.000Z</time>
      </trkpt>
      <trkpt lat="47.47697" lon="6.78213">
        <ele>333</ele>
        <time>2016-10-09T08:02:11.000Z</time>
      </trkpt>
      <trkpt lat="47.47699" lon="6.78215">
        <ele>333</ele>
        <time>2016-10-09T08:02:12.000Z</time>
      </trkpt>
      <trkpt lat="47.477" lon="6.78218">
        <ele>333</ele>
        <time>2016-10-09T08:02:13.000Z</time>
      </trkpt>
      <trkpt lat="47.47702" lon="6.78221">
        <ele>333</ele>
        <time>2016-10-09T08:02:14.000Z</time>
      </trkpt>
      <trkpt lat="47.47703" lon="6.78225">
        <ele>333</ele>
        <time>2016-10-09T08:02:15.000Z</time>
      </trkpt>
      <trkpt lat="47.47705" lon="6.7823">
        <ele>333</ele>
        <time>2016-10-09T08:02:16.000Z</time>
      </trkpt>
      <trkpt lat="47.47706" lon="6.78234">
        <ele>333</ele>
        <time>2016-10-09T08:02:17.000Z</time>
      </trkpt>
      <trkpt lat="47.47708" lon="6.78238">
        <ele>333</ele>
        <time>2016-10-09T08:02:18.000Z</time>
      </trkpt>
      <trkpt lat="47.4771" lon="6.78242">
        <ele>333</ele>
        <time>2016-10-09T08:02:19.000Z</time>
      </trkpt>
      <trkpt lat="47.47712" lon="6.78246">
        <ele>333</ele>
        <time>2016-10-09T08:02:20.000Z</time>
      </trkpt>
      <trkpt lat="47.47713" lon="6.7825">
        <ele>333</ele>
        <time>2016-10-09T08:02:21.000Z</time>
      </trkpt>
      <trkpt lat="47.47715" lon="6.78254">
        <ele>336</ele>
        <time>2016-10-09T08:02:22.000Z</time>
      </trkpt>
      <trkpt lat="47.47716" lon="6.78258">
        <ele>336</ele>
        <time>2016-10-09T08:02:23.000Z</time>
      </trkpt>
      <trkpt lat="47.47717" lon="6.78261">
        <ele>336</ele>
        <time>2016-10-09T08:02:24.000Z</time>
      </trkpt>
      <trkpt lat="47.47718" lon="6.78265">
        <ele>336</ele>
        <time>2016-10-09T08:02:25.000Z</time>
      </trkpt>
      <trkpt lat="47.47719" lon="6.78268">
        <ele>336</ele>
        <time>2016-10-09T08:02:26.000Z</time>
      </trkpt>
      <trkpt lat="47.4772" lon="6.78271">
        <ele>336</ele>
        <time>2016-10-09T08:02:27.000Z</time>
      </trkpt>
      <trkpt lat="47.47721" lon="6.78275">
        <ele>336</ele>
        <time>2016-10-09T08:02:28.101Z</time>
      </trkpt>
      <trkpt lat="47.47721" lon="6.78279">
        <ele>336</ele>
        <time>2016-10-09T08:02:29.000Z</time>
      </trkpt>
      <trkpt lat="47.47721" lon="6.78283">
        <ele>337</ele>
        <time>2016-10-09T08:02:30.000Z</time>
      </trkpt>
      <trkpt lat="47.47722" lon="6.78287">
        <ele>337</ele>
        <time>2016-10-09T08:02:31.000Z</time>
      </trkpt>
      <trkpt lat="47.47722" lon="6.78291">
        <ele>337</ele>
        <time>2016-10-09T08:02:32.000Z</time>
      </trkpt>
      <trkpt lat="47.47722" lon="6.78296">
        <ele>337</ele>
        <time>2016-10-09T08:02:33.000Z</time>
      </trkpt>
      <trkpt lat="47.47722" lon="6.78301">
        <ele>337</ele>
        <time>2016-10-09T08:02:34.000Z</time>
      </trkpt>
      <trkpt lat="47.47722" lon="6.78306">
        <ele>337</ele>
        <time>2016-10-09T08:02:35.000Z</time>
      </trkpt>
      <trkpt lat="47.47721" lon="6.78311">
        <ele>337</ele>
        <time>2016-10-09T08:02:36.000Z</time>
      </trkpt>
      <trkpt lat="47.47721" lon="6.78316">
        <ele>337</ele>
        <time>2016-10-09T08:02:37.000Z</time>
      </trkpt>
      <trkpt lat="47.4772" lon="6.7832">
        <ele>338</ele>
        <time>2016-10-09T08:02:38.000Z</time>
      </trkpt>
      <trkpt lat="47.47718" lon="6.78324">
        <ele>338</ele>
        <time>2016-10-09T08:02:39.000Z</time>
      </trkpt>
      <trkpt lat="47.47717" lon="6.78328">
        <ele>338</ele>
        <time>2016-10-09T08:02:40.000Z</time>
      </trkpt>
      <trkpt lat="47.47715" lon="6.78332">
        <ele>338</ele>
        <time>2016-10-09T08:02:41.000Z</time>
      </trkpt>
      <trkpt lat="47.47714" lon="6.78336">
        <ele>340</ele>
        <time>2016-10-09T08:02:42.000Z</time>
      </trkpt>
      <trkpt lat="47.47712" lon="6.7834">
        <ele>340</ele>
        <time>2016-10-09T08:02:43.000Z</time>
      </trkpt>
      <trkpt lat="47.47711" lon="6.78344">
        <ele>340</ele>
        <time>2016-10-09T08:02:44.000Z</time>
      </trkpt>
      <trkpt lat="47.47709" lon="6.78349">
        <ele>340</ele>
        <time>2016-10-09T08:02:45.000Z</time>
      </trkpt>
      <trkpt lat="47.47707" lon="6.78354">
        <ele>340</ele>
        <time>2016-10-09T08:02:46.000Z</time>
      </trkpt>
      <trkpt lat="47.47705" lon="6.78359">
        <ele>341</ele>
        <time>2016-10-09T08:02:47.000Z</time>
      </trkpt>
      <trkpt lat="47.47703" lon="6.78363">
        <ele>341</ele>
        <time>2016-10-09T08:02:48.000Z</time>
      </trkpt>
      <trkpt lat="47.47701" lon="6.78368">
        <ele>341</ele>
        <time>2016-10-09T08:02:49.000Z</time>
      </trkpt>
      <trkpt lat="47.47699" lon="6.78373">
        <ele>341</ele>
        <time>2016-10-09T08:02:50.000Z</time>
      </trkpt>
      <trkpt lat="47.47696" lon="6.78378">
        <ele>341</ele>
        <time>2016-10-09T08:02:51.000Z</time>
      </trkpt>
      <trkpt lat="47.47694" lon="6.78383">
        <ele>341</ele>
        <time>2016-10-09T08:02:52.000Z</time>
      </trkpt>
      <trkpt lat="47.47691" lon="6.78388">
        <ele>341</ele>
        <time>2016-10-09T08:02:53.000Z</time>
      </trkpt>
      <trkpt lat="47.47689" lon="6.78392">
        <ele>341</ele>
        <time>2016-10-09T08:02:54.000Z</time>
      </trkpt>
      <trkpt lat="47.47686" lon="6.78396">
        <ele>341</ele>
        <time>2016-10-09T08:02:55.000Z</time>
      </trkpt>
      <trkpt lat="47.47684" lon="6.784">
        <ele>341</ele>
        <time>2016-10-09T08:02:56.000Z</time>
      </trkpt>
      <trkpt lat="47.47681" lon="6.78404">
        <ele>341</ele>
        <time>2016-10-09T08:02:57.000Z</time>
      </trkpt>
      <trkpt lat="47.47678" lon="6.78408">
        <ele>341</ele>
        <time>2016-10-09T08:02:58.000Z</time>
      </trkpt>
      <trkpt lat="47.47675" lon="6.78412">
        <ele>341</ele>
        <time>2016-10-09T08:02:59.000Z</time>
      </trkpt>
      <trkpt lat="47.47673" lon="6.78416">
        <ele>341</ele>
        <time>2016-10-09T08:03:00.000Z</time>
      </trkpt>
      <trkpt lat="47.47671" lon="6.78421">
        <ele>341</ele>
        <time>2016-10-09T08:03:01.000Z</time>
      </trkpt>
      <trkpt lat="47.47669" lon="6.78425">
        <ele>341</ele>
        <time>2016-10-09T08:03:02.000Z</time>
      </trkpt>
      <trkpt lat="47.47667" lon="6.78431">
        <ele>342</ele>
        <time>2016-10-09T08:03:03.000Z</time>
      </trkpt>
      <trkpt lat="47.47665" lon="6.78437">
        <ele>344</ele>
        <time>2016-10-09T08:03:04.000Z</time>
      </trkpt>
      <trkpt lat="47.47662" lon="6.78443">
        <ele>344</ele>
        <time>2016-10-09T08:03:05.000Z</time>
      </trkpt>
      <trkpt lat="47.47659" lon="6.78448">
        <ele>345</ele>
        <time>2016-10-09T08:03:06.000Z</time>
      </trkpt>
      <trkpt lat="47.47656" lon="6.78454">
        <ele>345</ele>
        <time>2016-10-09T08:03:07.000Z</time>
      </trkpt>
      <trkpt lat="47.47652" lon="6.7846">
        <ele>345</ele>
        <time>2016-10-09T08:03:08.000Z</time>
      </trkpt>
      <trkpt lat="47.47648" lon="6.78469">
        <ele>345</ele>
        <time>2016-10-09T08:03:09.000Z</time>
      </trkpt>
      <trkpt lat="47.47646" lon="6.78474">
        <ele>345</ele>
        <time>2016-10-09T08:03:10.000Z</time>
      </trkpt>
      <trkpt lat="47.47643" lon="6.78479">
        <ele>345</ele>
        <time>2016-10-09T08:03:11.000Z</time>
      </trkpt>
      <trkpt lat="47.4764" lon="6.78485">
        <ele>346</ele>
        <time>2016-10-09T08:03:12.000Z</time>
      </trkpt>
      <trkpt lat="47.47637" lon="6.78491">
        <ele>346</ele>
        <time>2016-10-09T08:03:13.000Z</time>
      </trkpt>
      <trkpt lat="47.47634" lon="6.78497">
        <ele>346</ele>
        <time>2016-10-09T08:03:14.000Z</time>
      </trkpt>
      <trkpt lat="47.47631" lon="6.78502">
        <ele>348</ele>
        <time>2016-10-09T08:03:15.000Z</time>
      </trkpt>
      <trkpt lat="47.47629" lon="6.78508">
        <ele>348</ele>
        <time>2016-10-09T08:03:16.000Z</time>
      </trkpt>
      <trkpt lat="47.47627" lon="6.78514">
        <ele>348</ele>
        <time>2016-10-09T08:03:17.000Z</time>
      </trkpt>
      <trkpt lat="47.47625" lon="6.78519">
        <ele>348</ele>
        <time>2016-10-09T08:03:18.000Z</time>
      </trkpt>
      <trkpt lat="47.47623" lon="6.78524">
        <ele>349</ele>
        <time>2016-10-09T08:03:19.000Z</time>
      </trkpt>
      <trkpt lat="47.47621" lon="6.78529">
        <ele>349</ele>
        <time>2016-10-09T08:03:20.000Z</time>
      </trkpt>
      <trkpt lat="47.47619" lon="6.78535">
        <ele>349</ele>
        <time>2016-10-09T08:03:21.000Z</time>
      </trkpt>
      <trkpt lat="47.47617" lon="6.7854">
        <ele>349</ele>
        <time>2016-10-09T08:03:22.000Z</time>
      </trkpt>
      <trkpt lat="47.47615" lon="6.78545">
        <ele>349</ele>
        <time>2016-10-09T08:03:23.000Z</time>
      </trkpt>
      <trkpt lat="47.47612" lon="6.7855">
        <ele>349</ele>
        <time>2016-10-09T08:03:24.000Z</time>
      </trkpt>
      <trkpt lat="47.4761" lon="6.78554">
        <ele>349</ele>
        <time>2016-10-09T08:03:25.000Z</time>
      </trkpt>
      <trkpt lat="47.47608" lon="6.78559">
        <ele>350</ele>
        <time>2016-10-09T08:03:26.000Z</time>
      </trkpt>
      <trkpt lat="47.47606" lon="6.78563">
        <ele>350</ele>
        <time>2016-10-09T08:03:27.000Z</time>
      </trkpt>
      <trkpt lat="47.47604" lon="6.78568">
        <ele>350</ele>
        <time>2016-10-09T08:03:28.000Z</time>
      </trkpt>
      <trkpt lat="47.47602" lon="6.78572">
        <ele>350</ele>
        <time>2016-10-09T08:03:29.000Z</time>
      </trkpt>
      <trkpt lat="47.476" lon="6.78577">
        <ele>350</ele>
        <time>2016-10-09T08:03:30.000Z</time>
      </trkpt>
      <trkpt lat="47.47598" lon="6.78581">
        <ele>350</ele>
        <time>2016-10-09T08:03:31.000Z</time>
      </trkpt>
      <trkpt lat="47.47596" lon="6.78585">
        <ele>352</ele>
        <time>2016-10-09T08:03:32.000Z</time>
      </trkpt>
      <trkpt lat="47.47595" lon="6.78588">
        <ele>352</ele>
        <time>2016-10-09T08:03:33.000Z</time>
      </trkpt>
      <trkpt lat="47.47593" lon="6.78591">
        <ele>352</ele>
        <time>2016-10-09T08:03:34.000Z</time>
      </trkpt>
      <trkpt lat="47.47592" lon="6.78593">
        <ele>353</ele>
        <time>2016-10-09T08:03:35.000Z</time>
      </trkpt>
      <trkpt lat="47.47589" lon="6.78597">
        <ele>353</ele>
        <time>2016-10-09T08:03:37.000Z</time>
      </trkpt>
      <trkpt lat="47.47588" lon="6.78599">
        <ele>353</ele>
        <time>2016-10-09T08:03:38.000Z</time>
      </trkpt>
      <trkpt lat="47.47585" lon="6.78602">
        <ele>353</ele>
        <time>2016-10-09T08:03:40.000Z</time>
      </trkpt>
      <trkpt lat="47.47584" lon="6.78604">
        <ele>353</ele>
        <time>2016-10-09T08:03:41.000Z</time>
      </trkpt>
      <trkpt lat="47.47582" lon="6.78608">
        <ele>355</ele>
        <time>2016-10-09T08:03:43.000Z</time>
      </trkpt>
      <trkpt lat="47.4758" lon="6.7861">
        <ele>355</ele>
        <time>2016-10-09T08:03:44.000Z</time>
      </trkpt>
      <trkpt lat="47.47577" lon="6.78614">
        <ele>356</ele>
        <time>2016-10-09T08:03:46.000Z</time>
      </trkpt>
      <trkpt lat="47.47575" lon="6.78617">
        <ele>356</ele>
        <time>2016-10-09T08:03:47.000Z</time>
      </trkpt>
      <trkpt lat="47.47574" lon="6.7862">
        <ele>356</ele>
        <time>2016-10-09T08:03:48.000Z</time>
      </trkpt>
      <trkpt lat="47.47572" lon="6.78624">
        <ele>356</ele>
        <time>2016-10-09T08:03:49.000Z</time>
      </trkpt>
      <trkpt lat="47.47571" lon="6.78627">
        <ele>357</ele>
        <time>2016-10-09T08:03:50.000Z</time>
      </trkpt>
      <trkpt lat="47.47569" lon="6.78631">
        <ele>357</ele>
        <time>2016-10-09T08:03:51.000Z</time>
      </trkpt>
      <trkpt lat="47.47568" lon="6.78634">
        <ele>357</ele>
        <time>2016-10-09T08:03:52.000Z</time>
      </trkpt>
      <trkpt lat="47.47567" lon="6.78637">
        <ele>357</ele>
        <time>2016-10-09T08:03:53.000Z</time>
      </trkpt>
      <trkpt lat="47.47566" lon="6.78641">
        <ele>357</ele>
        <time>2016-10-09T08:03:54.000Z</time>
      </trkpt>
      <trkpt lat="47.47566" lon="6.78644">
        <ele>357</ele>
        <time>2016-10-09T08:03:55.000Z</time>
      </trkpt>
      <trkpt lat="47.47566" lon="6.78648">
        <ele>357</ele>
        <time>2016-10-09T08:03:56.000Z</time>
      </trkpt>
      <trkpt lat="47.47566" lon="6.78652">
        <ele>357</ele>
        <time>2016-10-09T08:03:57.000Z</time>
      </trkpt>
      <trkpt lat="47.47565" lon="6.78657">
        <ele>357</ele>
        <time>2016-10-09T08:03:59.000Z</time>
      </trkpt>
      <trkpt lat="47.47565" lon="6.7866">
        <ele>357</ele>
        <time>2016-10-09T08:04:00.000Z</time>
      </trkpt>
      <trkpt lat="47.47563" lon="6.78665">
        <ele>357</ele>
        <time>2016-10-09T08:04:02.000Z</time>
      </trkpt>
      <trkpt lat="47.47563" lon="6.78668">
        <ele>359</ele>
        <time>2016-10-09T08:04:03.000Z</time>
      </trkpt>
      <trkpt lat="47.47562" lon="6.78674">
        <ele>359</ele>
        <time>2016-10-09T08:04:06.000Z</time>
      </trkpt>
      <trkpt lat="47.47561" lon="6.78677">
        <ele>359</ele>
        <time>2016-10-09T08:04:07.000Z</time>
      </trkpt>
      <trkpt lat="47.47559" lon="6.78683">
        <ele>359</ele>
        <time>2016-10-09T08:04:09.000Z</time>
      </trkpt>
      <trkpt lat="47.47559" lon="6.78685">
        <ele>359</ele>
        <time>2016-10-09T08:04:10.000Z</time>
      </trkpt>
      <trkpt lat="47.47556" lon="6.7869">
        <ele>359</ele>
        <time>2016-10-09T08:04:12.000Z</time>
      </trkpt>
      <trkpt lat="47.47555" lon="6.78693">
        <ele>359</ele>
        <time>2016-10-09T08:04:13.000Z</time>
      </trkpt>
      <trkpt lat="47.47553" lon="6.78696">
        <ele>359</ele>
        <time>2016-10-09T08:04:14.000Z</time>
      </trkpt>
      <trkpt lat="47.47552" lon="6.78699">
        <ele>359</ele>
        <time>2016-10-09T08:04:15.000Z</time>
      </trkpt>
      <trkpt lat="47.4755" lon="6.78702">
        <ele>359</ele>
        <time>2016-10-09T08:04:16.000Z</time>
      </trkpt>
      <trkpt lat="47.47549" lon="6.78705">
        <ele>359</ele>
        <time>2016-10-09T08:04:17.000Z</time>
      </trkpt>
      <trkpt lat="47.47548" lon="6.78708">
        <ele>359</ele>
        <time>2016-10-09T08:04:18.000Z</time>
      </trkpt>
      <trkpt lat="47.47547" lon="6.78711">
        <ele>360</ele>
        <time>2016-10-09T08:04:19.000Z</time>
      </trkpt>
      <trkpt lat="47.47545" lon="6.78714">
        <ele>360</ele>
        <time>2016-10-09T08:04:20.000Z</time>
      </trkpt>
      <trkpt lat="47.47544" lon="6.78718">
        <ele>360</ele>
        <time>2016-10-09T08:04:21.000Z</time>
      </trkpt>
      <trkpt lat="47.47543" lon="6.78721">
        <ele>360</ele>
        <time>2016-10-09T08:04:22.000Z</time>
      </trkpt>
      <trkpt lat="47.47541" lon="6.78723">
        <ele>360</ele>
        <time>2016-10-09T08:04:23.000Z</time>
      </trkpt>
      <trkpt lat="47.47537" lon="6.78723">
        <ele>360</ele>
        <time>2016-10-09T08:04:25.000Z</time>
      </trkpt>
      <trkpt lat="47.47534" lon="6.78721">
        <ele>359</ele>
        <time>2016-10-09T08:04:26.000Z</time>
      </trkpt>
      <trkpt lat="47.47531" lon="6.78718">
        <ele>359</ele>
        <time>2016-10-09T08:04:28.000Z</time>
      </trkpt>
      <trkpt lat="47.47529" lon="6.78717">
        <ele>359</ele>
        <time>2016-10-09T08:04:29.000Z</time>
      </trkpt>
      <trkpt lat="47.47526" lon="6.78715">
        <ele>359</ele>
        <time>2016-10-09T08:04:31.000Z</time>
      </trkpt>
      <trkpt lat="47.47525" lon="6.78714">
        <ele>359</ele>
        <time>2016-10-09T08:04:32.000Z</time>
      </trkpt>
      <trkpt lat="47.47521" lon="6.78713">
        <ele>359</ele>
        <time>2016-10-09T08:04:34.000Z</time>
      </trkpt>
      <trkpt lat="47.47519" lon="6.78713">
        <ele>359</ele>
        <time>2016-10-09T08:04:35.000Z</time>
      </trkpt>
      <trkpt lat="47.47516" lon="6.78712">
        <ele>359</ele>
        <time>2016-10-09T08:04:37.000Z</time>
      </trkpt>
      <trkpt lat="47.47515" lon="6.78712">
        <ele>359</ele>
        <time>2016-10-09T08:04:38.000Z</time>
      </trkpt>
      <trkpt lat="47.47511" lon="6.7871">
        <ele>359</ele>
        <time>2016-10-09T08:04:41.000Z</time>
      </trkpt>
      <trkpt lat="47.4751" lon="6.78709">
        <ele>359</ele>
        <time>2016-10-09T08:04:42.000Z</time>
      </trkpt>
      <trkpt lat="47.47513" lon="6.78705">
        <ele>360</ele>
        <time>2016-10-09T08:04:48.000Z</time>
      </trkpt>
      <trkpt lat="47.47513" lon="6.78704">
        <ele>360</ele>
        <time>2016-10-09T08:04:49.000Z</time>
      </trkpt>
      <trkpt lat="47.47509" lon="6.78704">
        <ele>360</ele>
        <time>2016-10-09T08:04:57.000Z</time>
      </trkpt>
      <trkpt lat="47.47508" lon="6.78702">
        <ele>360</ele>
        <time>2016-10-09T08:04:58.000Z</time>
      </trkpt>
      <trkpt lat="47.47505" lon="6.787">
        <ele>360</ele>
        <time>2016-10-09T08:05:00.000Z</time>
      </trkpt>
      <trkpt lat="47.47504" lon="6.78698">
        <ele>360</ele>
        <time>2016-10-09T08:05:01.000Z</time>
      </trkpt>
      <trkpt lat="47.47501" lon="6.78696">
        <ele>360</ele>
        <time>2016-10-09T08:05:03.000Z</time>
      </trkpt>
      <trkpt lat="47.47499" lon="6.78694">
        <ele>362</ele>
        <time>2016-10-09T08:05:04.000Z</time>
      </trkpt>
      <trkpt lat="47.47496" lon="6.7869">
        <ele>362</ele>
        <time>2016-10-09T08:05:06.000Z</time>
      </trkpt>
      <trkpt lat="47.47495" lon="6.78689">
        <ele>362</ele>
        <time>2016-10-09T08:05:07.000Z</time>
      </trkpt>
      <trkpt lat="47.47492" lon="6.78684">
        <ele>362</ele>
        <time>2016-10-09T08:05:10.000Z</time>
      </trkpt>
      <trkpt lat="47.47491" lon="6.78682">
        <ele>362</ele>
        <time>2016-10-09T08:05:11.000Z</time>
      </trkpt>
      <trkpt lat="47.47489" lon="6.7868">
        <ele>362</ele>
        <time>2016-10-09T08:05:12.000Z</time>
      </trkpt>
      <trkpt lat="47.47488" lon="6.78677">
        <ele>362</ele>
        <time>2016-10-09T08:05:13.000Z</time>
      </trkpt>
      <trkpt lat="47.47486" lon="6.78675">
        <ele>362</ele>
        <time>2016-10-09T08:05:14.000Z</time>
      </trkpt>
      <trkpt lat="47.47483" lon="6.78673">
        <ele>362</ele>
        <time>2016-10-09T08:05:15.000Z</time>
      </trkpt>
      <trkpt lat="47.47481" lon="6.7867">
        <ele>362</ele>
        <time>2016-10-09T08:05:16.000Z</time>
      </trkpt>
      <trkpt lat="47.47479" lon="6.78668">
        <ele>362</ele>
        <time>2016-10-09T08:05:17.000Z</time>
      </trkpt>
      <trkpt lat="47.47477" lon="6.78666">
        <ele>363</ele>
        <time>2016-10-09T08:05:18.000Z</time>
      </trkpt>
      <trkpt lat="47.47475" lon="6.78664">
        <ele>363</ele>
        <time>2016-10-09T08:05:19.000Z</time>
      </trkpt>
      <trkpt lat="47.47474" lon="6.78662">
        <ele>363</ele>
        <time>2016-10-09T08:05:20.000Z</time>
      </trkpt>
      <trkpt lat="47.47472" lon="6.78659">
        <ele>363</ele>
        <time>2016-10-09T08:05:21.000Z</time>
      </trkpt>
      <trkpt lat="47.47468" lon="6.78655">
        <ele>363</ele>
        <time>2016-10-09T08:05:23.000Z</time>
      </trkpt>
      <trkpt lat="47.47467" lon="6.78653">
        <ele>363</ele>
        <time>2016-10-09T08:05:24.000Z</time>
      </trkpt>
      <trkpt lat="47.47465" lon="6.78649">
        <ele>364</ele>
        <time>2016-10-09T08:05:26.000Z</time>
      </trkpt>
      <trkpt lat="47.47464" lon="6.78647">
        <ele>364</ele>
        <time>2016-10-09T08:05:27.000Z</time>
      </trkpt>
      <trkpt lat="47.47462" lon="6.78643">
        <ele>364</ele>
        <time>2016-10-09T08:05:29.000Z</time>
      </trkpt>
      <trkpt lat="47.47461" lon="6.78641">
        <ele>364</ele>
        <time>2016-10-09T08:05:30.000Z</time>
      </trkpt>
      <trkpt lat="47.47457" lon="6.78637">
        <ele>364</ele>
        <time>2016-10-09T08:05:32.000Z</time>
      </trkpt>
      <trkpt lat="47.47455" lon="6.78635">
        <ele>364</ele>
        <time>2016-10-09T08:05:33.000Z</time>
      </trkpt>
      <trkpt lat="47.47453" lon="6.78633">
        <ele>364</ele>
        <time>2016-10-09T08:05:34.000Z</time>
      </trkpt>
      <trkpt lat="47.47451" lon="6.7863">
        <ele>364</ele>
        <time>2016-10-09T08:05:35.000Z</time>
      </trkpt>
      <trkpt lat="47.47449" lon="6.78627">
        <ele>364</ele>
        <time>2016-10-09T08:05:36.000Z</time>
      </trkpt>
      <trkpt lat="47.47447" lon="6.78623">
        <ele>364</ele>
        <time>2016-10-09T08:05:37.000Z</time>
      </trkpt>
      <trkpt lat="47.47445" lon="6.7862">
        <ele>364</ele>
        <time>2016-10-09T08:05:38.000Z</time>
      </trkpt>
      <trkpt lat="47.47443" lon="6.78617">
        <ele>364</ele>
        <time>2016-10-09T08:05:39.000Z</time>
      </trkpt>
      <trkpt lat="47.47441" lon="6.78614">
        <ele>364</ele>
        <time>2016-10-09T08:05:40.000Z</time>
      </trkpt>
      <trkpt lat="47.47438" lon="6.78611">
        <ele>364</ele>
        <time>2016-10-09T08:05:41.000Z</time>
      </trkpt>
      <trkpt lat="47.47436" lon="6.78609">
        <ele>364</ele>
        <time>2016-10-09T08:05:42.000Z</time>
      </trkpt>
      <trkpt lat="47.47434" lon="6.78607">
        <ele>365</ele>
        <time>2016-10-09T08:05:43.000Z</time>
      </trkpt>
      <trkpt lat="47.4743" lon="6.78603">
        <ele>365</ele>
        <time>2016-10-09T08:05:45.000Z</time>
      </trkpt>
      <trkpt lat="47.47428" lon="6.78601">
        <ele>365</ele>
        <time>2016-10-09T08:05:46.000Z</time>
      </trkpt>
      <trkpt lat="47.47426" lon="6.78599">
        <ele>365</ele>
        <time>2016-10-09T08:05:47.000Z</time>
      </trkpt>
      <trkpt lat="47.47424" lon="6.78597">
        <ele>365</ele>
        <time>2016-10-09T08:05:48.000Z</time>
      </trkpt>
      <trkpt lat="47.47422" lon="6.78595">
        <ele>365</ele>
        <time>2016-10-09T08:05:49.000Z</time>
      </trkpt>
      <trkpt lat="47.4742" lon="6.78593">
        <ele>365</ele>
        <time>2016-10-09T08:05:50.000Z</time>
      </trkpt>
      <trkpt lat="47.47417" lon="6.78591">
        <ele>365</ele>
        <time>2016-10-09T08:05:51.000Z</time>
      </trkpt>
      <trkpt lat="47.47415" lon="6.78589">
        <ele>366</ele>
        <time>2016-10-09T08:05:52.000Z</time>
      </trkpt>
      <trkpt lat="47.47413" lon="6.78587">
        <ele>366</ele>
        <time>2016-10-09T08:05:53.000Z</time>
      </trkpt>
      <trkpt lat="47.4741" lon="6.78585">
        <ele>366</ele>
        <time>2016-10-09T08:05:54.000Z</time>
      </trkpt>
      <trkpt lat="47.47408" lon="6.78583">
        <ele>366</ele>
        <time>2016-10-09T08:05:55.000Z</time>
      </trkpt>
      <trkpt lat="47.47405" lon="6.78581">
        <ele>366</ele>
        <time>2016-10-09T08:05:56.000Z</time>
      </trkpt>
      <trkpt lat="47.47403" lon="6.78579">
        <ele>365</ele>
        <time>2016-10-09T08:05:57.000Z</time>
      </trkpt>
      <trkpt lat="47.474" lon="6.78577">
        <ele>365</ele>
        <time>2016-10-09T08:05:58.000Z</time>
      </trkpt>
      <trkpt lat="47.47397" lon="6.78575">
        <ele>365</ele>
        <time>2016-10-09T08:05:59.000Z</time>
      </trkpt>
      <trkpt lat="47.47394" lon="6.78573">
        <ele>365</ele>
        <time>2016-10-09T08:06:00.000Z</time>
      </trkpt>
      <trkpt lat="47.4739" lon="6.78571">
        <ele>365</ele>
        <time>2016-10-09T08:06:01.000Z</time>
      </trkpt>
      <trkpt lat="47.47387" lon="6.78569">
        <ele>365</ele>
        <time>2016-10-09T08:06:02.000Z</time>
      </trkpt>
      <trkpt lat="47.47384" lon="6.78568">
        <ele>365</ele>
        <time>2016-10-09T08:06:03.000Z</time>
      </trkpt>
      <trkpt lat="47.4738" lon="6.78566">
        <ele>365</ele>
        <time>2016-10-09T08:06:04.000Z</time>
      </trkpt>
      <trkpt lat="47.47376" lon="6.78563">
        <ele>365</ele>
        <time>2016-10-09T08:06:05.000Z</time>
      </trkpt>
      <trkpt lat="47.47373" lon="6.7856">
        <ele>365</ele>
        <time>2016-10-09T08:06:06.000Z</time>
      </trkpt>
      <trkpt lat="47.47369" lon="6.78558">
        <ele>365</ele>
        <time>2016-10-09T08:06:07.000Z</time>
      </trkpt>
      <trkpt lat="47.47365" lon="6.78555">
        <ele>365</ele>
        <time>2016-10-09T08:06:08.000Z</time>
      </trkpt>
      <trkpt lat="47.47361" lon="6.78553">
        <ele>365</ele>
        <time>2016-10-09T08:06:09.000Z</time>
      </trkpt>
      <trkpt lat="47.47356" lon="6.78552">
        <ele>365</ele>
        <time>2016-10-09T08:06:10.000Z</time>
      </trkpt>
      <trkpt lat="47.47351" lon="6.78551">
        <ele>365</ele>
        <time>2016-10-09T08:06:11.000Z</time>
      </trkpt>
      <trkpt lat="47.47346" lon="6.78549">
        <ele>365</ele>
        <time>2016-10-09T08:06:12.000Z</time>
      </trkpt>
      <trkpt lat="47.47341" lon="6.78548">
        <ele>365</ele>
        <time>2016-10-09T08:06:13.000Z</time>
      </trkpt>
      <trkpt lat="47.47337" lon="6.78546">
        <ele>365</ele>
        <time>2016-10-09T08:06:14.000Z</time>
      </trkpt>
      <trkpt lat="47.47332" lon="6.78544">
        <ele>364</ele>
        <time>2016-10-09T08:06:15.000Z</time>
      </trkpt>
      <trkpt lat="47.47323" lon="6.78541">
        <ele>364</ele>
        <time>2016-10-09T08:06:16.000Z</time>
      </trkpt>
      <trkpt lat="47.47318" lon="6.78538">
        <ele>364</ele>
        <time>2016-10-09T08:06:17.000Z</time>
      </trkpt>
      <trkpt lat="47.47312" lon="6.78536">
        <ele>364</ele>
        <time>2016-10-09T08:06:18.000Z</time>
      </trkpt>
      <trkpt lat="47.47308" lon="6.78534">
        <ele>364</ele>
        <time>2016-10-09T08:06:19.000Z</time>
      </trkpt>
      <trkpt lat="47.47303" lon="6.78531">
        <ele>364</ele>
        <time>2016-10-09T08:06:20.000Z</time>
      </trkpt>
      <trkpt lat="47.47299" lon="6.78528">
        <ele>364</ele>
        <time>2016-10-09T08:06:21.000Z</time>
      </trkpt>
      <trkpt lat="47.47294" lon="6.78526">
        <ele>364</ele>
        <time>2016-10-09T08:06:22.000Z</time>
      </trkpt>
      <trkpt lat="47.4729" lon="6.78523">
        <ele>363</ele>
        <time>2016-10-09T08:06:23.000Z</time>
      </trkpt>
      <trkpt lat="47.47286" lon="6.78521">
        <ele>363</ele>
        <time>2016-10-09T08:06:24.000Z</time>
      </trkpt>
      <trkpt lat="47.47283" lon="6.7852">
        <ele>363</ele>
        <time>2016-10-09T08:06:25.000Z</time>
      </trkpt>
      <trkpt lat="47.47278" lon="6.78518">
        <ele>363</ele>
        <time>2016-10-09T08:06:26.000Z</time>
      </trkpt>
      <trkpt lat="47.47273" lon="6.78515">
        <ele>363</ele>
        <time>2016-10-09T08:06:27.000Z</time>
      </trkpt>
      <trkpt lat="47.47268" lon="6.78513">
        <ele>363</ele>
        <time>2016-10-09T08:06:28.000Z</time>
      </trkpt>
      <trkpt lat="47.47262" lon="6.78513">
        <ele>363</ele>
        <time>2016-10-09T08:06:29.000Z</time>
      </trkpt>
      <trkpt lat="47.47257" lon="6.7851">
        <ele>363</ele>
        <time>2016-10-09T08:06:30.000Z</time>
      </trkpt>
      <trkpt lat="47.47252" lon="6.78507">
        <ele>362</ele>
        <time>2016-10-09T08:06:31.000Z</time>
      </trkpt>
      <trkpt lat="47.47247" lon="6.78505">
        <ele>362</ele>
        <time>2016-10-09T08:06:32.000Z</time>
      </trkpt>
      <trkpt lat="47.47243" lon="6.78502">
        <ele>362</ele>
        <time>2016-10-09T08:06:33.000Z</time>
      </trkpt>
      <trkpt lat="47.47238" lon="6.78499">
        <ele>361</ele>
        <time>2016-10-09T08:06:34.000Z</time>
      </trkpt>
      <trkpt lat="47.47234" lon="6.78497">
        <ele>361</ele>
        <time>2016-10-09T08:06:35.000Z</time>
      </trkpt>
      <trkpt lat="47.47231" lon="6.78495">
        <ele>361</ele>
        <time>2016-10-09T08:06:36.000Z</time>
      </trkpt>
      <trkpt lat="47.47227" lon="6.78493">
        <ele>361</ele>
        <time>2016-10-09T08:06:37.000Z</time>
      </trkpt>
      <trkpt lat="47.47224" lon="6.78491">
        <ele>361</ele>
        <time>2016-10-09T08:06:38.000Z</time>
      </trkpt>
      <trkpt lat="47.47221" lon="6.78489">
        <ele>361</ele>
        <time>2016-10-09T08:06:39.000Z</time>
      </trkpt>
      <trkpt lat="47.47218" lon="6.78487">
        <ele>360</ele>
        <time>2016-10-09T08:06:40.000Z</time>
      </trkpt>
      <trkpt lat="47.47214" lon="6.78485">
        <ele>360</ele>
        <time>2016-10-09T08:06:41.000Z</time>
      </trkpt>
      <trkpt lat="47.47209" lon="6.78483">
        <ele>360</ele>
        <time>2016-10-09T08:06:42.000Z</time>
      </trkpt>
      <trkpt lat="47.47205" lon="6.78481">
        <ele>360</ele>
        <time>2016-10-09T08:06:43.000Z</time>
      </trkpt>
      <trkpt lat="47.472" lon="6.78478">
        <ele>360</ele>
        <time>2016-10-09T08:06:44.000Z</time>
      </trkpt>
      <trkpt lat="47.47195" lon="6.78475">
        <ele>360</ele>
        <time>2016-10-09T08:06:45.000Z</time>
      </trkpt>
      <trkpt lat="47.47191" lon="6.78473">
        <ele>360</ele>
        <time>2016-10-09T08:06:46.000Z</time>
      </trkpt>
      <trkpt lat="47.47186" lon="6.78471">
        <ele>360</ele>
        <time>2016-10-09T08:06:47.000Z</time>
      </trkpt>
      <trkpt lat="47.47182" lon="6.78469">
        <ele>360</ele>
        <time>2016-10-09T08:06:48.000Z</time>
      </trkpt>
      <trkpt lat="47.47178" lon="6.78466">
        <ele>360</ele>
        <time>2016-10-09T08:06:49.000Z</time>
      </trkpt>
      <trkpt lat="47.47172" lon="6.78464">
        <ele>360</ele>
        <time>2016-10-09T08:06:50.000Z</time>
      </trkpt>
      <trkpt lat="47.47169" lon="6.78462">
        <ele>360</ele>
        <time>2016-10-09T08:06:51.000Z</time>
      </trkpt>
      <trkpt lat="47.47164" lon="6.7846">
        <ele>359</ele>
        <time>2016-10-09T08:06:52.000Z</time>
      </trkpt>
      <trkpt lat="47.47161" lon="6.78458">
        <ele>359</ele>
        <time>2016-10-09T08:06:53.000Z</time>
      </trkpt>
      <trkpt lat="47.47156" lon="6.78464">
        <ele>359</ele>
        <time>2016-10-09T08:06:54.000Z</time>
      </trkpt>
      <trkpt lat="47.47153" lon="6.78466">
        <ele>359</ele>
        <time>2016-10-09T08:06:55.000Z</time>
      </trkpt>
      <trkpt lat="47.47149" lon="6.78467">
        <ele>359</ele>
        <time>2016-10-09T08:06:56.000Z</time>
      </trkpt>
      <trkpt lat="47.47146" lon="6.7847">
        <ele>359</ele>
        <time>2016-10-09T08:06:57.000Z</time>
      </trkpt>
      <trkpt lat="47.47143" lon="6.78472">
        <ele>359</ele>
        <time>2016-10-09T08:06:58.000Z</time>
      </trkpt>
      <trkpt lat="47.47141" lon="6.78474">
        <ele>359</ele>
        <time>2016-10-09T08:06:59.000Z</time>
      </trkpt>
      <trkpt lat="47.47139" lon="6.78477">
        <ele>359</ele>
        <time>2016-10-09T08:07:00.000Z</time>
      </trkpt>
      <trkpt lat="47.47136" lon="6.7848">
        <ele>359</ele>
        <time>2016-10-09T08:07:01.000Z</time>
      </trkpt>
      <trkpt lat="47.47133" lon="6.78483">
        <ele>359</ele>
        <time>2016-10-09T08:07:02.000Z</time>
      </trkpt>
      <trkpt lat="47.4713" lon="6.78487">
        <ele>359</ele>
        <time>2016-10-09T08:07:03.000Z</time>
      </trkpt>
      <trkpt lat="47.47127" lon="6.7849">
        <ele>359</ele>
        <time>2016-10-09T08:07:04.000Z</time>
      </trkpt>
      <trkpt lat="47.47125" lon="6.78494">
        <ele>359</ele>
        <time>2016-10-09T08:07:05.000Z</time>
      </trkpt>
      <trkpt lat="47.47121" lon="6.78497">
        <ele>359</ele>
        <time>2016-10-09T08:07:06.000Z</time>
      </trkpt>
      <trkpt lat="47.47118" lon="6.78501">
        <ele>362</ele>
        <time>2016-10-09T08:07:07.000Z</time>
      </trkpt>
      <trkpt lat="47.47113" lon="6.78506">
        <ele>362</ele>
        <time>2016-10-09T08:07:08.000Z</time>
      </trkpt>
      <trkpt lat="47.47109" lon="6.7851">
        <ele>362</ele>
        <time>2016-10-09T08:07:09.000Z</time>
      </trkpt>
      <trkpt lat="47.47104" lon="6.78513">
        <ele>362</ele>
        <time>2016-10-09T08:07:10.000Z</time>
      </trkpt>
      <trkpt lat="47.47099" lon="6.78517">
        <ele>362</ele>
        <time>2016-10-09T08:07:11.000Z</time>
      </trkpt>
      <trkpt lat="47.47095" lon="6.78519">
        <ele>362</ele>
        <time>2016-10-09T08:07:12.000Z</time>
      </trkpt>
      <trkpt lat="47.47091" lon="6.78522">
        <ele>362</ele>
        <time>2016-10-09T08:07:13.000Z</time>
      </trkpt>
      <trkpt lat="47.47089" lon="6.78524">
        <ele>362</ele>
        <time>2016-10-09T08:07:14.000Z</time>
      </trkpt>
      <trkpt lat="47.47087" lon="6.78527">
        <ele>362</ele>
        <time>2016-10-09T08:07:15.000Z</time>
      </trkpt>
      <trkpt lat="47.47085" lon="6.7853">
        <ele>362</ele>
        <time>2016-10-09T08:07:16.000Z</time>
      </trkpt>
      <trkpt lat="47.47083" lon="6.78532">
        <ele>362</ele>
        <time>2016-10-09T08:07:17.000Z</time>
      </trkpt>
      <trkpt lat="47.4708" lon="6.78534">
        <ele>362</ele>
        <time>2016-10-09T08:07:18.000Z</time>
      </trkpt>
      <trkpt lat="47.47076" lon="6.78537">
        <ele>362</ele>
        <time>2016-10-09T08:07:19.000Z</time>
      </trkpt>
      <trkpt lat="47.47072" lon="6.78541">
        <ele>362</ele>
        <time>2016-10-09T08:07:20.000Z</time>
      </trkpt>
      <trkpt lat="47.47067" lon="6.78543">
        <ele>362</ele>
        <time>2016-10-09T08:07:21.000Z</time>
      </trkpt>
      <trkpt lat="47.47063" lon="6.78545">
        <ele>362</ele>
        <time>2016-10-09T08:07:22.000Z</time>
      </trkpt>
      <trkpt lat="47.47059" lon="6.78547">
        <ele>362</ele>
        <time>2016-10-09T08:07:23.000Z</time>
      </trkpt>
      <trkpt lat="47.47055" lon="6.78548">
        <ele>362</ele>
        <time>2016-10-09T08:07:24.000Z</time>
      </trkpt>
      <trkpt lat="47.47052" lon="6.7855">
        <ele>362</ele>
        <time>2016-10-09T08:07:25.000Z</time>
      </trkpt>
      <trkpt lat="47.47048" lon="6.78551">
        <ele>362</ele>
        <time>2016-10-09T08:07:26.000Z</time>
      </trkpt>
      <trkpt lat="47.47045" lon="6.78554">
        <ele>362</ele>
        <time>2016-10-09T08:07:27.000Z</time>
      </trkpt>
      <trkpt lat="47.47042" lon="6.78556">
        <ele>362</ele>
        <time>2016-10-09T08:07:28.000Z</time>
      </trkpt>
      <trkpt lat="47.47039" lon="6.78559">
        <ele>362</ele>
        <time>2016-10-09T08:07:29.000Z</time>
      </trkpt>
      <trkpt lat="47.47036" lon="6.78563">
        <ele>362</ele>
        <time>2016-10-09T08:07:30.000Z</time>
      </trkpt>
      <trkpt lat="47.47032" lon="6.78567">
        <ele>362</ele>
        <time>2016-10-09T08:07:31.000Z</time>
      </trkpt>
      <trkpt lat="47.47031" lon="6.78572">
        <ele>362</ele>
        <time>2016-10-09T08:07:32.000Z</time>
      </trkpt>
      <trkpt lat="47.47029" lon="6.78577">
        <ele>362</ele>
        <time>2016-10-09T08:07:33.000Z</time>
      </trkpt>
      <trkpt lat="47.47026" lon="6.78582">
        <ele>362</ele>
        <time>2016-10-09T08:07:34.000Z</time>
      </trkpt>
      <trkpt lat="47.47022" lon="6.78587">
        <ele>363</ele>
        <time>2016-10-09T08:07:35.000Z</time>
      </trkpt>
      <trkpt lat="47.47017" lon="6.78592">
        <ele>363</ele>
        <time>2016-10-09T08:07:36.000Z</time>
      </trkpt>
      <trkpt lat="47.46997" lon="6.78602">
        <ele>359</ele>
        <time>2016-10-09T08:07:37.000Z</time>
      </trkpt>
      <trkpt lat="47.46993" lon="6.78608">
        <ele>358</ele>
        <time>2016-10-09T08:07:38.000Z</time>
      </trkpt>
      <trkpt lat="47.46984" lon="6.78611">
        <ele>358</ele>
        <time>2016-10-09T08:07:39.000Z</time>
      </trkpt>
      <trkpt lat="47.46976" lon="6.78611">
        <ele>357</ele>
        <time>2016-10-09T08:07:40.000Z</time>
      </trkpt>
      <trkpt lat="47.46964" lon="6.78613">
        <ele>356</ele>
        <time>2016-10-09T08:07:41.000Z</time>
      </trkpt>
      <trkpt lat="47.46949" lon="6.78617">
        <ele>355</ele>
        <time>2016-10-09T08:07:42.000Z</time>
      </trkpt>
      <trkpt lat="47.4694" lon="6.78619">
        <ele>355</ele>
        <time>2016-10-09T08:07:43.000Z</time>
      </trkpt>
      <trkpt lat="47.46934" lon="6.78615">
        <ele>354</ele>
        <time>2016-10-09T08:07:44.000Z</time>
      </trkpt>
      <trkpt lat="47.46933" lon="6.7861">
        <ele>354</ele>
        <time>2016-10-09T08:07:45.000Z</time>
      </trkpt>
      <trkpt lat="47.46932" lon="6.78606">
        <ele>354</ele>
        <time>2016-10-09T08:07:46.000Z</time>
      </trkpt>
      <trkpt lat="47.4693" lon="6.78604">
        <ele>353</ele>
        <time>2016-10-09T08:07:47.000Z</time>
      </trkpt>
      <trkpt lat="47.46927" lon="6.78602">
        <ele>353</ele>
        <time>2016-10-09T08:07:48.000Z</time>
      </trkpt>
      <trkpt lat="47.46923" lon="6.78601">
        <ele>352</ele>
        <time>2016-10-09T08:07:49.000Z</time>
      </trkpt>
      <trkpt lat="47.4692" lon="6.786">
        <ele>352</ele>
        <time>2016-10-09T08:07:50.000Z</time>
      </trkpt>
      <trkpt lat="47.46918" lon="6.78597">
        <ele>351</ele>
        <time>2016-10-09T08:07:51.000Z</time>
      </trkpt>
      <trkpt lat="47.46916" lon="6.78596">
        <ele>351</ele>
        <time>2016-10-09T08:07:52.000Z</time>
      </trkpt>
      <trkpt lat="47.46913" lon="6.78593">
        <ele>351</ele>
        <time>2016-10-09T08:07:55.000Z</time>
      </trkpt>
      <trkpt lat="47.46912" lon="6.78592">
        <ele>351</ele>
        <time>2016-10-09T08:07:56.000Z</time>
      </trkpt>
      <trkpt lat="47.46909" lon="6.78588">
        <ele>350</ele>
        <time>2016-10-09T08:08:08.000Z</time>
      </trkpt>
      <trkpt lat="47.46908" lon="6.78587">
        <ele>351</ele>
        <time>2016-10-09T08:08:09.000Z</time>
      </trkpt>
      <trkpt lat="47.46904" lon="6.78586">
        <ele>351</ele>
        <time>2016-10-09T08:08:14.000Z</time>
      </trkpt>
      <trkpt lat="47.46903" lon="6.78585">
        <ele>351</ele>
        <time>2016-10-09T08:08:15.000Z</time>
      </trkpt>
      <trkpt lat="47.469" lon="6.78585">
        <ele>352</ele>
        <time>2016-10-09T08:08:21.000Z</time>
      </trkpt>
      <trkpt lat="47.46899" lon="6.78585">
        <ele>352</ele>
        <time>2016-10-09T08:08:22.000Z</time>
      </trkpt>
      <trkpt lat="47.46896" lon="6.78585">
        <ele>353</ele>
        <time>2016-10-09T08:08:24.000Z</time>
      </trkpt>
      <trkpt lat="47.46894" lon="6.78586">
        <ele>353</ele>
        <time>2016-10-09T08:08:25.000Z</time>
      </trkpt>
      <trkpt lat="47.46891" lon="6.78587">
        <ele>353</ele>
        <time>2016-10-09T08:08:26.000Z</time>
      </trkpt>
      <trkpt lat="47.46888" lon="6.78587">
        <ele>354</ele>
        <time>2016-10-09T08:08:27.000Z</time>
      </trkpt>
      <trkpt lat="47.46886" lon="6.78588">
        <ele>354</ele>
        <time>2016-10-09T08:08:28.000Z</time>
      </trkpt>
      <trkpt lat="47.46883" lon="6.78588">
        <ele>354</ele>
        <time>2016-10-09T08:08:29.000Z</time>
      </trkpt>
      <trkpt lat="47.46881" lon="6.78587">
        <ele>355</ele>
        <time>2016-10-09T08:08:30.000Z</time>
      </trkpt>
      <trkpt lat="47.46878" lon="6.78587">
        <ele>355</ele>
        <time>2016-10-09T08:08:31.000Z</time>
      </trkpt>
      <trkpt lat="47.46874" lon="6.78587">
        <ele>355</ele>
        <time>2016-10-09T08:08:33.000Z</time>
      </trkpt>
      <trkpt lat="47.46873" lon="6.78587">
        <ele>356</ele>
        <time>2016-10-09T08:08:34.000Z</time>
      </trkpt>
      <trkpt lat="47.46868" lon="6.78587">
        <ele>356</ele>
        <time>2016-10-09T08:08:37.000Z</time>
      </trkpt>
      <trkpt lat="47.46867" lon="6.78587">
        <ele>356</ele>
        <time>2016-10-09T08:08:38.000Z</time>
      </trkpt>
      <trkpt lat="47.46864" lon="6.78589">
        <ele>356</ele>
        <time>2016-10-09T08:08:42.000Z</time>
      </trkpt>
      <trkpt lat="47.46862" lon="6.7859">
        <ele>357</ele>
        <time>2016-10-09T08:08:43.000Z</time>
      </trkpt>
      <trkpt lat="47.4686" lon="6.78594">
        <ele>357</ele>
        <time>2016-10-09T08:08:47.000Z</time>
      </trkpt>
      <trkpt lat="47.46859" lon="6.78595">
        <ele>357</ele>
        <time>2016-10-09T08:08:48.000Z</time>
      </trkpt>
      <trkpt lat="47.46856" lon="6.78598">
        <ele>357</ele>
        <time>2016-10-09T08:08:50.000Z</time>
      </trkpt>
      <trkpt lat="47.46855" lon="6.78599">
        <ele>357</ele>
        <time>2016-10-09T08:08:51.000Z</time>
      </trkpt>
      <trkpt lat="47.46851" lon="6.78601">
        <ele>357</ele>
        <time>2016-10-09T08:08:53.000Z</time>
      </trkpt>
      <trkpt lat="47.4685" lon="6.78602">
        <ele>357</ele>
        <time>2016-10-09T08:08:54.000Z</time>
      </trkpt>
      <trkpt lat="47.46845" lon="6.78603">
        <ele>358</ele>
        <time>2016-10-09T08:08:57.000Z</time>
      </trkpt>
      <trkpt lat="47.46844" lon="6.78604">
        <ele>358</ele>
        <time>2016-10-09T08:08:58.000Z</time>
      </trkpt>
      <trkpt lat="47.46841" lon="6.78607">
        <ele>358</ele>
        <time>2016-10-09T08:09:01.000Z</time>
      </trkpt>
      <trkpt lat="47.46839" lon="6.78608">
        <ele>358</ele>
        <time>2016-10-09T08:09:02.000Z</time>
      </trkpt>
      <trkpt lat="47.46836" lon="6.78611">
        <ele>358</ele>
        <time>2016-10-09T08:09:05.000Z</time>
      </trkpt>
      <trkpt lat="47.46835" lon="6.78613">
        <ele>358</ele>
        <time>2016-10-09T08:09:06.000Z</time>
      </trkpt>
      <trkpt lat="47.46833" lon="6.78616">
        <ele>365</ele>
        <time>2016-10-09T08:09:09.000Z</time>
      </trkpt>
      <trkpt lat="47.46832" lon="6.78618">
        <ele>365</ele>
        <time>2016-10-09T08:09:10.000Z</time>
      </trkpt>
      <trkpt lat="47.46829" lon="6.78622">
        <ele>365</ele>
        <time>2016-10-09T08:09:13.000Z</time>
      </trkpt>
      <trkpt lat="47.46828" lon="6.78624">
        <ele>365</ele>
        <time>2016-10-09T08:09:14.000Z</time>
      </trkpt>
      <trkpt lat="47.46826" lon="6.78628">
        <ele>365</ele>
        <time>2016-10-09T08:09:16.000Z</time>
      </trkpt>
      <trkpt lat="47.46824" lon="6.7863">
        <ele>365</ele>
        <time>2016-10-09T08:09:17.000Z</time>
      </trkpt>
      <trkpt lat="47.46822" lon="6.78635">
        <ele>366</ele>
        <time>2016-10-09T08:09:19.000Z</time>
      </trkpt>
      <trkpt lat="47.46821" lon="6.78636">
        <ele>366</ele>
        <time>2016-10-09T08:09:20.000Z</time>
      </trkpt>
      <trkpt lat="47.46817" lon="6.7864">
        <ele>366</ele>
        <time>2016-10-09T08:09:22.000Z</time>
      </trkpt>
      <trkpt lat="47.46816" lon="6.78642">
        <ele>366</ele>
        <time>2016-10-09T08:09:23.000Z</time>
      </trkpt>
      <trkpt lat="47.46813" lon="6.78645">
        <ele>366</ele>
        <time>2016-10-09T08:09:25.000Z</time>
      </trkpt>
      <trkpt lat="47.46811" lon="6.78646">
        <ele>366</ele>
        <time>2016-10-09T08:09:26.000Z</time>
      </trkpt>
      <trkpt lat="47.46808" lon="6.78648">
        <ele>366</ele>
        <time>2016-10-09T08:09:28.000Z</time>
      </trkpt>
      <trkpt lat="47.46806" lon="6.78649">
        <ele>366</ele>
        <time>2016-10-09T08:09:29.000Z</time>
      </trkpt>
      <trkpt lat="47.46803" lon="6.78651">
        <ele>366</ele>
        <time>2016-10-09T08:09:31.000Z</time>
      </trkpt>
      <trkpt lat="47.46801" lon="6.78651">
        <ele>367</ele>
        <time>2016-10-09T08:09:32.000Z</time>
      </trkpt>
      <trkpt lat="47.46797" lon="6.78653">
        <ele>367</ele>
        <time>2016-10-09T08:09:34.000Z</time>
      </trkpt>
      <trkpt lat="47.46795" lon="6.78654">
        <ele>367</ele>
        <time>2016-10-09T08:09:35.000Z</time>
      </trkpt>
      <trkpt lat="47.46792" lon="6.78657">
        <ele>367</ele>
        <time>2016-10-09T08:09:37.000Z</time>
      </trkpt>
      <trkpt lat="47.46791" lon="6.78658">
        <ele>367</ele>
        <time>2016-10-09T08:09:38.000Z</time>
      </trkpt>
      <trkpt lat="47.46789" lon="6.78663">
        <ele>368</ele>
        <time>2016-10-09T08:09:40.000Z</time>
      </trkpt>
      <trkpt lat="47.46788" lon="6.78665">
        <ele>368</ele>
        <time>2016-10-09T08:09:41.000Z</time>
      </trkpt>
      <trkpt lat="47.46787" lon="6.7867">
        <ele>367</ele>
        <time>2016-10-09T08:09:43.000Z</time>
      </trkpt>
      <trkpt lat="47.46787" lon="6.78672">
        <ele>367</ele>
        <time>2016-10-09T08:09:44.000Z</time>
      </trkpt>
      <trkpt lat="47.46786" lon="6.78678">
        <ele>367</ele>
        <time>2016-10-09T08:09:47.000Z</time>
      </trkpt>
      <trkpt lat="47.46786" lon="6.7868">
        <ele>367</ele>
        <time>2016-10-09T08:09:48.000Z</time>
      </trkpt>
      <trkpt lat="47.46784" lon="6.78683">
        <ele>367</ele>
        <time>2016-10-09T08:09:50.000Z</time>
      </trkpt>
      <trkpt lat="47.46782" lon="6.78684">
        <ele>367</ele>
        <time>2016-10-09T08:09:51.000Z</time>
      </trkpt>
      <trkpt lat="47.46779" lon="6.78686">
        <ele>367</ele>
        <time>2016-10-09T08:09:52.000Z</time>
      </trkpt>
      <trkpt lat="47.46777" lon="6.78687">
        <ele>367</ele>
        <time>2016-10-09T08:09:53.000Z</time>
      </trkpt>
      <trkpt lat="47.46774" lon="6.78687">
        <ele>368</ele>
        <time>2016-10-09T08:09:54.000Z</time>
      </trkpt>
      <trkpt lat="47.46771" lon="6.78687">
        <ele>368</ele>
        <time>2016-10-09T08:09:55.000Z</time>
      </trkpt>
      <trkpt lat="47.46767" lon="6.78688">
        <ele>368</ele>
        <time>2016-10-09T08:09:57.000Z</time>
      </trkpt>
      <trkpt lat="47.46765" lon="6.78688">
        <ele>368</ele>
        <time>2016-10-09T08:09:58.000Z</time>
      </trkpt>
      <trkpt lat="47.46762" lon="6.78689">
        <ele>368</ele>
        <time>2016-10-09T08:10:00.000Z</time>
      </trkpt>
      <trkpt lat="47.4676" lon="6.78691">
        <ele>368</ele>
        <time>2016-10-09T08:10:01.000Z</time>
      </trkpt>
      <trkpt lat="47.46757" lon="6.78693">
        <ele>368</ele>
        <time>2016-10-09T08:10:03.000Z</time>
      </trkpt>
      <trkpt lat="47.46756" lon="6.78695">
        <ele>368</ele>
        <time>2016-10-09T08:10:04.000Z</time>
      </trkpt>
      <trkpt lat="47.46753" lon="6.78698">
        <ele>368</ele>
        <time>2016-10-09T08:10:07.000Z</time>
      </trkpt>
      <trkpt lat="47.46752" lon="6.787">
        <ele>368</ele>
        <time>2016-10-09T08:10:08.000Z</time>
      </trkpt>
      <trkpt lat="47.46749" lon="6.78705">
        <ele>372</ele>
        <time>2016-10-09T08:10:13.000Z</time>
      </trkpt>
      <trkpt lat="47.46749" lon="6.78705">
        <ele>372</ele>
        <time>2016-10-09T08:10:14.000Z</time>
      </trkpt>
      <trkpt lat="47.46747" lon="6.78702">
        <ele>373</ele>
        <time>2016-10-09T08:10:19.000Z</time>
      </trkpt>
      <trkpt lat="47.46746" lon="6.78701">
        <ele>373</ele>
        <time>2016-10-09T08:10:20.000Z</time>
      </trkpt>
      <trkpt lat="47.46742" lon="6.78697">
        <ele>373</ele>
        <time>2016-10-09T08:10:23.000Z</time>
      </trkpt>
      <trkpt lat="47.46741" lon="6.78696">
        <ele>373</ele>
        <time>2016-10-09T08:10:24.000Z</time>
      </trkpt>
      <trkpt lat="47.46738" lon="6.78691">
        <ele>373</ele>
        <time>2016-10-09T08:10:28.000Z</time>
      </trkpt>
      <trkpt lat="47.46738" lon="6.7869">
        <ele>373</ele>
        <time>2016-10-09T08:10:29.000Z</time>
      </trkpt>
      <trkpt lat="47.46736" lon="6.78694">
        <ele>373</ele>
        <time>2016-10-09T08:10:36.000Z</time>
      </trkpt>
      <trkpt lat="47.46736" lon="6.78696">
        <ele>373</ele>
        <time>2016-10-09T08:10:37.000Z</time>
      </trkpt>
      <trkpt lat="47.46737" lon="6.78701">
        <ele>373</ele>
        <time>2016-10-09T08:10:45.000Z</time>
      </trkpt>
      <trkpt lat="47.46737" lon="6.78702">
        <ele>373</ele>
        <time>2016-10-09T08:10:46.000Z</time>
      </trkpt>
      <trkpt lat="47.46733" lon="6.78704">
        <ele>373</ele>
        <time>2016-10-09T08:11:01.000Z</time>
      </trkpt>
      <trkpt lat="47.46733" lon="6.78704">
        <ele>373</ele>
        <time>2016-10-09T08:11:02.000Z</time>
      </trkpt>
      <trkpt lat="47.46729" lon="6.78705">
        <ele>373</ele>
        <time>2016-10-09T08:11:12.000Z</time>
      </trkpt>
      <trkpt lat="47.46728" lon="6.78705">
        <ele>373</ele>
        <time>2016-10-09T08:11:13.000Z</time>
      </trkpt>
      <trkpt lat="47.46724" lon="6.78705">
        <ele>373</ele>
        <time>2016-10-09T08:11:17.000Z</time>
      </trkpt>
      <trkpt lat="47.46723" lon="6.78705">
        <ele>373</ele>
        <time>2016-10-09T08:11:18.000Z</time>
      </trkpt>
      <trkpt lat="47.46719" lon="6.78705">
        <ele>374</ele>
        <time>2016-10-09T08:11:22.000Z</time>
      </trkpt>
      <trkpt lat="47.46718" lon="6.78705">
        <ele>374</ele>
        <time>2016-10-09T08:11:23.000Z</time>
      </trkpt>
      <trkpt lat="47.46715" lon="6.78706">
        <ele>374</ele>
        <time>2016-10-09T08:11:27.000Z</time>
      </trkpt>
      <trkpt lat="47.46713" lon="6.78706">
        <ele>374</ele>
        <time>2016-10-09T08:11:28.000Z</time>
      </trkpt>
      <trkpt lat="47.4671" lon="6.78706">
        <ele>374</ele>
        <time>2016-10-09T08:11:31.000Z</time>
      </trkpt>
      <trkpt lat="47.46709" lon="6.78706">
        <ele>374</ele>
        <time>2016-10-09T08:11:32.000Z</time>
      </trkpt>
      <trkpt lat="47.46705" lon="6.78706">
        <ele>374</ele>
        <time>2016-10-09T08:11:35.000Z</time>
      </trkpt>
      <trkpt lat="47.46704" lon="6.78706">
        <ele>374</ele>
        <time>2016-10-09T08:11:36.000Z</time>
      </trkpt>
      <trkpt lat="47.467" lon="6.78708">
        <ele>374</ele>
        <time>2016-10-09T08:11:40.000Z</time>
      </trkpt>
      <trkpt lat="47.467" lon="6.78709">
        <ele>374</ele>
        <time>2016-10-09T08:11:41.000Z</time>
      </trkpt>
      <trkpt lat="47.46696" lon="6.78707">
        <ele>375</ele>
        <time>2016-10-09T08:11:47.000Z</time>
      </trkpt>
      <trkpt lat="47.46695" lon="6.78707">
        <ele>375</ele>
        <time>2016-10-09T08:11:48.000Z</time>
      </trkpt>
      <trkpt lat="47.46691" lon="6.78707">
        <ele>375</ele>
        <time>2016-10-09T08:11:58.000Z</time>
      </trkpt>
      <trkpt lat="47.46689" lon="6.78707">
        <ele>375</ele>
        <time>2016-10-09T08:11:59.000Z</time>
      </trkpt>
      <trkpt lat="47.46685" lon="6.78707">
        <ele>375</ele>
        <time>2016-10-09T08:12:02.000Z</time>
      </trkpt>
      <trkpt lat="47.46684" lon="6.78707">
        <ele>375</ele>
        <time>2016-10-09T08:12:03.000Z</time>
      </trkpt>
      <trkpt lat="47.46679" lon="6.78707">
        <ele>375</ele>
        <time>2016-10-09T08:12:05.000Z</time>
      </trkpt>
      <trkpt lat="47.46678" lon="6.78707">
        <ele>375</ele>
        <time>2016-10-09T08:12:06.000Z</time>
      </trkpt>
      <trkpt lat="47.46673" lon="6.78707">
        <ele>376</ele>
        <time>2016-10-09T08:12:09.000Z</time>
      </trkpt>
      <trkpt lat="47.46672" lon="6.78707">
        <ele>376</ele>
        <time>2016-10-09T08:12:10.000Z</time>
      </trkpt>
      <trkpt lat="47.46668" lon="6.78706">
        <ele>376</ele>
        <time>2016-10-09T08:12:12.000Z</time>
      </trkpt>
      <trkpt lat="47.46666" lon="6.78706">
        <ele>380</ele>
        <time>2016-10-09T08:12:13.000Z</time>
      </trkpt>
      <trkpt lat="47.46663" lon="6.78707">
        <ele>380</ele>
        <time>2016-10-09T08:12:15.000Z</time>
      </trkpt>
      <trkpt lat="47.46661" lon="6.78707">
        <ele>380</ele>
        <time>2016-10-09T08:12:16.000Z</time>
      </trkpt>
      <trkpt lat="47.46657" lon="6.78707">
        <ele>381</ele>
        <time>2016-10-09T08:12:18.000Z</time>
      </trkpt>
      <trkpt lat="47.46655" lon="6.78707">
        <ele>381</ele>
        <time>2016-10-09T08:12:19.000Z</time>
      </trkpt>
      <trkpt lat="47.46651" lon="6.78707">
        <ele>381</ele>
        <time>2016-10-09T08:12:21.000Z</time>
      </trkpt>
      <trkpt lat="47.46649" lon="6.78708">
        <ele>381</ele>
        <time>2016-10-09T08:12:22.000Z</time>
      </trkpt>
      <trkpt lat="47.46645" lon="6.78708">
        <ele>381</ele>
        <time>2016-10-09T08:12:24.000Z</time>
      </trkpt>
      <trkpt lat="47.46644" lon="6.78709">
        <ele>381</ele>
        <time>2016-10-09T08:12:25.000Z</time>
      </trkpt>
      <trkpt lat="47.46639" lon="6.78709">
        <ele>381</ele>
        <time>2016-10-09T08:12:28.000Z</time>
      </trkpt>
      <trkpt lat="47.46638" lon="6.78709">
        <ele>381</ele>
        <time>2016-10-09T08:12:29.000Z</time>
      </trkpt>
      <trkpt lat="47.46634" lon="6.78708">
        <ele>381</ele>
        <time>2016-10-09T08:12:31.000Z</time>
      </trkpt>
      <trkpt lat="47.46633" lon="6.78708">
        <ele>381</ele>
        <time>2016-10-09T08:12:32.000Z</time>
      </trkpt>
      <trkpt lat="47.46629" lon="6.78708">
        <ele>381</ele>
        <time>2016-10-09T08:12:35.000Z</time>
      </trkpt>
      <trkpt lat="47.46627" lon="6.78708">
        <ele>381</ele>
        <time>2016-10-09T08:12:36.000Z</time>
      </trkpt>
      <trkpt lat="47.46623" lon="6.78708">
        <ele>382</ele>
        <time>2016-10-09T08:12:38.000Z</time>
      </trkpt>
      <trkpt lat="47.4662" lon="6.78708">
        <ele>382</ele>
        <time>2016-10-09T08:12:39.000Z</time>
      </trkpt>
      <trkpt lat="47.46616" lon="6.78707">
        <ele>382</ele>
        <time>2016-10-09T08:12:41.000Z</time>
      </trkpt>
      <trkpt lat="47.46614" lon="6.78707">
        <ele>382</ele>
        <time>2016-10-09T08:12:42.000Z</time>
      </trkpt>
      <trkpt lat="47.4661" lon="6.78705">
        <ele>382</ele>
        <time>2016-10-09T08:12:44.000Z</time>
      </trkpt>
      <trkpt lat="47.46608" lon="6.78705">
        <ele>382</ele>
        <time>2016-10-09T08:12:45.000Z</time>
      </trkpt>
      <trkpt lat="47.46606" lon="6.78704">
        <ele>382</ele>
        <time>2016-10-09T08:12:46.000Z</time>
      </trkpt>
      <trkpt lat="47.46603" lon="6.78704">
        <ele>382</ele>
        <time>2016-10-09T08:12:47.000Z</time>
      </trkpt>
      <trkpt lat="47.46599" lon="6.78703">
        <ele>383</ele>
        <time>2016-10-09T08:12:49.000Z</time>
      </trkpt>
      <trkpt lat="47.46597" lon="6.78704">
        <ele>383</ele>
        <time>2016-10-09T08:12:50.000Z</time>
      </trkpt>
      <trkpt lat="47.46594" lon="6.78704">
        <ele>383</ele>
        <time>2016-10-09T08:12:52.000Z</time>
      </trkpt>
      <trkpt lat="47.46592" lon="6.78704">
        <ele>383</ele>
        <time>2016-10-09T08:12:53.000Z</time>
      </trkpt>
      <trkpt lat="47.4659" lon="6.78704">
        <ele>383</ele>
        <time>2016-10-09T08:12:54.000Z</time>
      </trkpt>
      <trkpt lat="47.46587" lon="6.78704">
        <ele>383</ele>
        <time>2016-10-09T08:12:55.000Z</time>
      </trkpt>
      <trkpt lat="47.46585" lon="6.78704">
        <ele>383</ele>
        <time>2016-10-09T08:12:56.000Z</time>
      </trkpt>
      <trkpt lat="47.46582" lon="6.78703">
        <ele>390</ele>
        <time>2016-10-09T08:12:57.000Z</time>
      </trkpt>
      <trkpt lat="47.46578" lon="6.787">
        <ele>390</ele>
        <time>2016-10-09T08:12:59.000Z</time>
      </trkpt>
      <trkpt lat="47.46578" lon="6.78699">
        <ele>390</ele>
        <time>2016-10-09T08:13:00.000Z</time>
      </trkpt>
      <trkpt lat="47.46577" lon="6.78693">
        <ele>390</ele>
        <time>2016-10-09T08:13:02.000Z</time>
      </trkpt>
      <trkpt lat="47.46576" lon="6.7869">
        <ele>390</ele>
        <time>2016-10-09T08:13:03.000Z</time>
      </trkpt>
      <trkpt lat="47.46575" lon="6.78687">
        <ele>390</ele>
        <time>2016-10-09T08:13:04.000Z</time>
      </trkpt>
      <trkpt lat="47.46574" lon="6.78684">
        <ele>390</ele>
        <time>2016-10-09T08:13:05.000Z</time>
      </trkpt>
      <trkpt lat="47.46573" lon="6.78679">
        <ele>389</ele>
        <time>2016-10-09T08:13:07.000Z</time>
      </trkpt>
      <trkpt lat="47.46572" lon="6.78677">
        <ele>389</ele>
        <time>2016-10-09T08:13:08.000Z</time>
      </trkpt>
      <trkpt lat="47.46572" lon="6.78671">
        <ele>389</ele>
        <time>2016-10-09T08:13:10.000Z</time>
      </trkpt>
      <trkpt lat="47.46572" lon="6.78667">
        <ele>389</ele>
        <time>2016-10-09T08:13:11.000Z</time>
      </trkpt>
      <trkpt lat="47.46572" lon="6.78664">
        <ele>390</ele>
        <time>2016-10-09T08:13:12.000Z</time>
      </trkpt>
      <trkpt lat="47.46572" lon="6.7866">
        <ele>390</ele>
        <time>2016-10-09T08:13:13.000Z</time>
      </trkpt>
      <trkpt lat="47.46571" lon="6.78654">
        <ele>391</ele>
        <time>2016-10-09T08:13:15.000Z</time>
      </trkpt>
      <trkpt lat="47.46571" lon="6.78651">
        <ele>391</ele>
        <time>2016-10-09T08:13:16.000Z</time>
      </trkpt>
      <trkpt lat="47.4657" lon="6.78645">
        <ele>392</ele>
        <time>2016-10-09T08:13:18.000Z</time>
      </trkpt>
      <trkpt lat="47.46569" lon="6.78641">
        <ele>392</ele>
        <time>2016-10-09T08:13:19.000Z</time>
      </trkpt>
      <trkpt lat="47.46568" lon="6.78638">
        <ele>393</ele>
        <time>2016-10-09T08:13:20.000Z</time>
      </trkpt>
      <trkpt lat="47.46568" lon="6.78634">
        <ele>393</ele>
        <time>2016-10-09T08:13:21.000Z</time>
      </trkpt>
      <trkpt lat="47.46567" lon="6.78631">
        <ele>393</ele>
        <time>2016-10-09T08:13:22.000Z</time>
      </trkpt>
      <trkpt lat="47.46566" lon="6.78628">
        <ele>393</ele>
        <time>2016-10-09T08:13:23.000Z</time>
      </trkpt>
      <trkpt lat="47.46565" lon="6.78624">
        <ele>393</ele>
        <time>2016-10-09T08:13:24.000Z</time>
      </trkpt>
      <trkpt lat="47.46564" lon="6.78621">
        <ele>394</ele>
        <time>2016-10-09T08:13:25.000Z</time>
      </trkpt>
      <trkpt lat="47.46564" lon="6.78618">
        <ele>394</ele>
        <time>2016-10-09T08:13:26.000Z</time>
      </trkpt>
      <trkpt lat="47.46564" lon="6.78614">
        <ele>394</ele>
        <time>2016-10-09T08:13:27.000Z</time>
      </trkpt>
      <trkpt lat="47.46564" lon="6.78608">
        <ele>393</ele>
        <time>2016-10-09T08:13:29.000Z</time>
      </trkpt>
      <trkpt lat="47.46563" lon="6.78605">
        <ele>393</ele>
        <time>2016-10-09T08:13:30.000Z</time>
      </trkpt>
      <trkpt lat="47.46563" lon="6.786">
        <ele>393</ele>
        <time>2016-10-09T08:13:32.000Z</time>
      </trkpt>
      <trkpt lat="47.46562" lon="6.78596">
        <ele>393</ele>
        <time>2016-10-09T08:13:33.000Z</time>
      </trkpt>
      <trkpt lat="47.46561" lon="6.78592">
        <ele>393</ele>
        <time>2016-10-09T08:13:34.000Z</time>
      </trkpt>
      <trkpt lat="47.4656" lon="6.78588">
        <ele>393</ele>
        <time>2016-10-09T08:13:35.000Z</time>
      </trkpt>
      <trkpt lat="47.4656" lon="6.78584">
        <ele>393</ele>
        <time>2016-10-09T08:13:36.000Z</time>
      </trkpt>
      <trkpt lat="47.4656" lon="6.7858">
        <ele>393</ele>
        <time>2016-10-09T08:13:37.000Z</time>
      </trkpt>
      <trkpt lat="47.4656" lon="6.78575">
        <ele>393</ele>
        <time>2016-10-09T08:13:38.000Z</time>
      </trkpt>
      <trkpt lat="47.4656" lon="6.7857">
        <ele>393</ele>
        <time>2016-10-09T08:13:39.000Z</time>
      </trkpt>
      <trkpt lat="47.4656" lon="6.78566">
        <ele>393</ele>
        <time>2016-10-09T08:13:40.000Z</time>
      </trkpt>
      <trkpt lat="47.46561" lon="6.78561">
        <ele>393</ele>
        <time>2016-10-09T08:13:41.000Z</time>
      </trkpt>
      <trkpt lat="47.4656" lon="6.78557">
        <ele>393</ele>
        <time>2016-10-09T08:13:42.000Z</time>
      </trkpt>
      <trkpt lat="47.46559" lon="6.78553">
        <ele>393</ele>
        <time>2016-10-09T08:13:43.000Z</time>
      </trkpt>
      <trkpt lat="47.46559" lon="6.78549">
        <ele>393</ele>
        <time>2016-10-09T08:13:44.000Z</time>
      </trkpt>
      <trkpt lat="47.46558" lon="6.78545">
        <ele>393</ele>
        <time>2016-10-09T08:13:45.000Z</time>
      </trkpt>
      <trkpt lat="47.46558" lon="6.78541">
        <ele>393</ele>
        <time>2016-10-09T08:13:46.000Z</time>
      </trkpt>
      <trkpt lat="47.46557" lon="6.78536">
        <ele>393</ele>
        <time>2016-10-09T08:13:47.000Z</time>
      </trkpt>
      <trkpt lat="47.46556" lon="6.7853">
        <ele>393</ele>
        <time>2016-10-09T08:13:48.000Z</time>
      </trkpt>
      <trkpt lat="47.46556" lon="6.78524">
        <ele>392</ele>
        <time>2016-10-09T08:13:49.000Z</time>
      </trkpt>
      <trkpt lat="47.46555" lon="6.78517">
        <ele>392</ele>
        <time>2016-10-09T08:13:50.000Z</time>
      </trkpt>
      <trkpt lat="47.46554" lon="6.78511">
        <ele>392</ele>
        <time>2016-10-09T08:13:51.000Z</time>
      </trkpt>
      <trkpt lat="47.46554" lon="6.78504">
        <ele>392</ele>
        <time>2016-10-09T08:13:52.000Z</time>
      </trkpt>
      <trkpt lat="47.46554" lon="6.78498">
        <ele>391</ele>
        <time>2016-10-09T08:13:53.000Z</time>
      </trkpt>
      <trkpt lat="47.46555" lon="6.78491">
        <ele>391</ele>
        <time>2016-10-09T08:13:54.000Z</time>
      </trkpt>
      <trkpt lat="47.46555" lon="6.78485">
        <ele>391</ele>
        <time>2016-10-09T08:13:55.000Z</time>
      </trkpt>
      <trkpt lat="47.46555" lon="6.78479">
        <ele>391</ele>
        <time>2016-10-09T08:13:56.000Z</time>
      </trkpt>
      <trkpt lat="47.46556" lon="6.78466">
        <ele>391</ele>
        <time>2016-10-09T08:13:57.000Z</time>
      </trkpt>
      <trkpt lat="47.46556" lon="6.7846">
        <ele>391</ele>
        <time>2016-10-09T08:13:58.000Z</time>
      </trkpt>
      <trkpt lat="47.46555" lon="6.78454">
        <ele>391</ele>
        <time>2016-10-09T08:13:59.000Z</time>
      </trkpt>
      <trkpt lat="47.46554" lon="6.78451">
        <ele>391</ele>
        <time>2016-10-09T08:14:00.000Z</time>
      </trkpt>
      <trkpt lat="47.46552" lon="6.78443">
        <ele>391</ele>
        <time>2016-10-09T08:14:01.000Z</time>
      </trkpt>
      <trkpt lat="47.46551" lon="6.78436">
        <ele>391</ele>
        <time>2016-10-09T08:14:02.000Z</time>
      </trkpt>
      <trkpt lat="47.46547" lon="6.78429">
        <ele>391</ele>
        <time>2016-10-09T08:14:03.000Z</time>
      </trkpt>
      <trkpt lat="47.46543" lon="6.78424">
        <ele>391</ele>
        <time>2016-10-09T08:14:04.000Z</time>
      </trkpt>
      <trkpt lat="47.4654" lon="6.78421">
        <ele>391</ele>
        <time>2016-10-09T08:14:05.000Z</time>
      </trkpt>
      <trkpt lat="47.46537" lon="6.78419">
        <ele>392</ele>
        <time>2016-10-09T08:14:06.000Z</time>
      </trkpt>
      <trkpt lat="47.46535" lon="6.78416">
        <ele>389</ele>
        <time>2016-10-09T08:14:07.000Z</time>
      </trkpt>
      <trkpt lat="47.46532" lon="6.78414">
        <ele>390</ele>
        <time>2016-10-09T08:14:08.000Z</time>
      </trkpt>
      <trkpt lat="47.46529" lon="6.78412">
        <ele>390</ele>
        <time>2016-10-09T08:14:09.000Z</time>
      </trkpt>
      <trkpt lat="47.46526" lon="6.7841">
        <ele>390</ele>
        <time>2016-10-09T08:14:10.000Z</time>
      </trkpt>
      <trkpt lat="47.46524" lon="6.78409">
        <ele>390</ele>
        <time>2016-10-09T08:14:11.000Z</time>
      </trkpt>
      <trkpt lat="47.46522" lon="6.78406">
        <ele>390</ele>
        <time>2016-10-09T08:14:12.000Z</time>
      </trkpt>
      <trkpt lat="47.4652" lon="6.78403">
        <ele>390</ele>
        <time>2016-10-09T08:14:13.000Z</time>
      </trkpt>
      <trkpt lat="47.46518" lon="6.78401">
        <ele>391</ele>
        <time>2016-10-09T08:14:14.000Z</time>
      </trkpt>
      <trkpt lat="47.46515" lon="6.78399">
        <ele>391</ele>
        <time>2016-10-09T08:14:15.000Z</time>
      </trkpt>
      <trkpt lat="47.46513" lon="6.78397">
        <ele>391</ele>
        <time>2016-10-09T08:14:16.000Z</time>
      </trkpt>
      <trkpt lat="47.4651" lon="6.78395">
        <ele>391</ele>
        <time>2016-10-09T08:14:17.000Z</time>
      </trkpt>
      <trkpt lat="47.46508" lon="6.78392">
        <ele>390</ele>
        <time>2016-10-09T08:14:18.000Z</time>
      </trkpt>
      <trkpt lat="47.46505" lon="6.78389">
        <ele>390</ele>
        <time>2016-10-09T08:14:19.000Z</time>
      </trkpt>
      <trkpt lat="47.46503" lon="6.78384">
        <ele>390</ele>
        <time>2016-10-09T08:14:20.000Z</time>
      </trkpt>
      <trkpt lat="47.465" lon="6.7838">
        <ele>389</ele>
        <time>2016-10-09T08:14:21.000Z</time>
      </trkpt>
      <trkpt lat="47.46498" lon="6.78376">
        <ele>393</ele>
        <time>2016-10-09T08:14:22.000Z</time>
      </trkpt>
      <trkpt lat="47.46495" lon="6.78372">
        <ele>392</ele>
        <time>2016-10-09T08:14:23.000Z</time>
      </trkpt>
      <trkpt lat="47.46493" lon="6.78368">
        <ele>392</ele>
        <time>2016-10-09T08:14:24.000Z</time>
      </trkpt>
      <trkpt lat="47.4649" lon="6.78364">
        <ele>392</ele>
        <time>2016-10-09T08:14:25.000Z</time>
      </trkpt>
      <trkpt lat="47.46487" lon="6.7836">
        <ele>391</ele>
        <time>2016-10-09T08:14:26.000Z</time>
      </trkpt>
      <trkpt lat="47.46484" lon="6.78356">
        <ele>391</ele>
        <time>2016-10-09T08:14:27.000Z</time>
      </trkpt>
      <trkpt lat="47.46482" lon="6.78353">
        <ele>391</ele>
        <time>2016-10-09T08:14:28.000Z</time>
      </trkpt>
      <trkpt lat="47.46479" lon="6.78349">
        <ele>391</ele>
        <time>2016-10-09T08:14:29.000Z</time>
      </trkpt>
      <trkpt lat="47.46476" lon="6.78346">
        <ele>391</ele>
        <time>2016-10-09T08:14:30.000Z</time>
      </trkpt>
      <trkpt lat="47.46474" lon="6.78343">
        <ele>391</ele>
        <time>2016-10-09T08:14:31.000Z</time>
      </trkpt>
      <trkpt lat="47.46471" lon="6.7834">
        <ele>391</ele>
        <time>2016-10-09T08:14:32.000Z</time>
      </trkpt>
      <trkpt lat="47.46469" lon="6.78337">
        <ele>391</ele>
        <time>2016-10-09T08:14:33.000Z</time>
      </trkpt>
      <trkpt lat="47.46466" lon="6.78334">
        <ele>391</ele>
        <time>2016-10-09T08:14:34.000Z</time>
      </trkpt>
      <trkpt lat="47.46464" lon="6.78332">
        <ele>385</ele>
        <time>2016-10-09T08:14:35.000Z</time>
      </trkpt>
      <trkpt lat="47.46462" lon="6.7833">
        <ele>385</ele>
        <time>2016-10-09T08:14:36.000Z</time>
      </trkpt>
      <trkpt lat="47.46458" lon="6.78326">
        <ele>385</ele>
        <time>2016-10-09T08:14:38.000Z</time>
      </trkpt>
      <trkpt lat="47.46456" lon="6.78326">
        <ele>385</ele>
        <time>2016-10-09T08:14:39.000Z</time>
      </trkpt>
      <trkpt lat="47.46453" lon="6.78329">
        <ele>385</ele>
        <time>2016-10-09T08:14:42.000Z</time>
      </trkpt>
      <trkpt lat="47.46453" lon="6.78331">
        <ele>385</ele>
        <time>2016-10-09T08:14:43.000Z</time>
      </trkpt>
      <trkpt lat="47.4645" lon="6.78337">
        <ele>391</ele>
        <time>2016-10-09T08:14:46.000Z</time>
      </trkpt>
      <trkpt lat="47.46449" lon="6.78338">
        <ele>391</ele>
        <time>2016-10-09T08:14:47.000Z</time>
      </trkpt>
      <trkpt lat="47.46447" lon="6.78341">
        <ele>391</ele>
        <time>2016-10-09T08:14:49.000Z</time>
      </trkpt>
      <trkpt lat="47.46446" lon="6.78343">
        <ele>391</ele>
        <time>2016-10-09T08:14:50.000Z</time>
      </trkpt>
      <trkpt lat="47.46442" lon="6.78347">
        <ele>391</ele>
        <time>2016-10-09T08:14:52.000Z</time>
      </trkpt>
      <trkpt lat="47.46441" lon="6.78348">
        <ele>391</ele>
        <time>2016-10-09T08:14:53.000Z</time>
      </trkpt>
      <trkpt lat="47.46438" lon="6.78353">
        <ele>392</ele>
        <time>2016-10-09T08:14:56.000Z</time>
      </trkpt>
      <trkpt lat="47.46438" lon="6.78354">
        <ele>392</ele>
        <time>2016-10-09T08:14:57.000Z</time>
      </trkpt>
      <trkpt lat="47.46435" lon="6.78359">
        <ele>392</ele>
        <time>2016-10-09T08:15:00.000Z</time>
      </trkpt>
      <trkpt lat="47.46434" lon="6.78361">
        <ele>392</ele>
        <time>2016-10-09T08:15:01.000Z</time>
      </trkpt>
      <trkpt lat="47.46432" lon="6.78363">
        <ele>392</ele>
        <time>2016-10-09T08:15:03.000Z</time>
      </trkpt>
      <trkpt lat="47.4643" lon="6.78365">
        <ele>392</ele>
        <time>2016-10-09T08:15:04.000Z</time>
      </trkpt>
      <trkpt lat="47.46427" lon="6.78369">
        <ele>393</ele>
        <time>2016-10-09T08:15:06.000Z</time>
      </trkpt>
      <trkpt lat="47.46427" lon="6.78371">
        <ele>393</ele>
        <time>2016-10-09T08:15:07.000Z</time>
      </trkpt>
      <trkpt lat="47.46424" lon="6.78376">
        <ele>394</ele>
        <time>2016-10-09T08:15:09.000Z</time>
      </trkpt>
      <trkpt lat="47.46422" lon="6.78378">
        <ele>394</ele>
        <time>2016-10-09T08:15:10.000Z</time>
      </trkpt>
      <trkpt lat="47.4642" lon="6.78379">
        <ele>394</ele>
        <time>2016-10-09T08:15:11.000Z</time>
      </trkpt>
      <trkpt lat="47.46417" lon="6.78381">
        <ele>394</ele>
        <time>2016-10-09T08:15:12.000Z</time>
      </trkpt>
      <trkpt lat="47.46415" lon="6.78383">
        <ele>396</ele>
        <time>2016-10-09T08:15:13.000Z</time>
      </trkpt>
      <trkpt lat="47.46414" lon="6.78385">
        <ele>396</ele>
        <time>2016-10-09T08:15:14.000Z</time>
      </trkpt>
      <trkpt lat="47.46412" lon="6.7839">
        <ele>397</ele>
        <time>2016-10-09T08:15:16.000Z</time>
      </trkpt>
      <trkpt lat="47.46411" lon="6.78392">
        <ele>397</ele>
        <time>2016-10-09T08:15:17.000Z</time>
      </trkpt>
      <trkpt lat="47.46409" lon="6.78397">
        <ele>398</ele>
        <time>2016-10-09T08:15:20.000Z</time>
      </trkpt>
      <trkpt lat="47.46408" lon="6.78398">
        <ele>398</ele>
        <time>2016-10-09T08:15:21.000Z</time>
      </trkpt>
      <trkpt lat="47.46406" lon="6.78402">
        <ele>398</ele>
        <time>2016-10-09T08:15:26.000Z</time>
      </trkpt>
      <trkpt lat="47.46405" lon="6.78403">
        <ele>398</ele>
        <time>2016-10-09T08:15:27.000Z</time>
      </trkpt>
      <trkpt lat="47.46402" lon="6.78407">
        <ele>398</ele>
        <time>2016-10-09T08:15:30.000Z</time>
      </trkpt>
      <trkpt lat="47.46402" lon="6.78409">
        <ele>398</ele>
        <time>2016-10-09T08:15:31.000Z</time>
      </trkpt>
      <trkpt lat="47.46401" lon="6.78414">
        <ele>398</ele>
        <time>2016-10-09T08:15:34.000Z</time>
      </trkpt>
      <trkpt lat="47.46401" lon="6.78416">
        <ele>398</ele>
        <time>2016-10-09T08:15:35.000Z</time>
      </trkpt>
      <trkpt lat="47.46397" lon="6.78417">
        <ele>402</ele>
        <time>2016-10-09T08:15:37.000Z</time>
      </trkpt>
      <trkpt lat="47.46395" lon="6.78417">
        <ele>402</ele>
        <time>2016-10-09T08:15:38.000Z</time>
      </trkpt>
      <trkpt lat="47.46391" lon="6.78416">
        <ele>398</ele>
        <time>2016-10-09T08:15:40.000Z</time>
      </trkpt>
      <trkpt lat="47.46389" lon="6.78416">
        <ele>398</ele>
        <time>2016-10-09T08:15:41.000Z</time>
      </trkpt>
      <trkpt lat="47.46385" lon="6.78418">
        <ele>402</ele>
        <time>2016-10-09T08:15:43.000Z</time>
      </trkpt>
      <trkpt lat="47.46383" lon="6.78419">
        <ele>402</ele>
        <time>2016-10-09T08:15:44.000Z</time>
      </trkpt>
      <trkpt lat="47.4638" lon="6.78422">
        <ele>402</ele>
        <time>2016-10-09T08:15:46.000Z</time>
      </trkpt>
      <trkpt lat="47.46379" lon="6.78423">
        <ele>402</ele>
        <time>2016-10-09T08:15:47.000Z</time>
      </trkpt>
      <trkpt lat="47.46376" lon="6.78427">
        <ele>402</ele>
        <time>2016-10-09T08:15:51.000Z</time>
      </trkpt>
      <trkpt lat="47.46375" lon="6.78428">
        <ele>402</ele>
        <time>2016-10-09T08:15:52.000Z</time>
      </trkpt>
      <trkpt lat="47.46372" lon="6.7843">
        <ele>402</ele>
        <time>2016-10-09T08:15:54.000Z</time>
      </trkpt>
      <trkpt lat="47.46371" lon="6.78432">
        <ele>402</ele>
        <time>2016-10-09T08:15:55.000Z</time>
      </trkpt>
      <trkpt lat="47.46368" lon="6.78434">
        <ele>402</ele>
        <time>2016-10-09T08:15:57.000Z</time>
      </trkpt>
      <trkpt lat="47.46366" lon="6.78435">
        <ele>402</ele>
        <time>2016-10-09T08:15:58.000Z</time>
      </trkpt>
      <trkpt lat="47.46364" lon="6.78436">
        <ele>402</ele>
        <time>2016-10-09T08:15:59.000Z</time>
      </trkpt>
      <trkpt lat="47.46361" lon="6.78437">
        <ele>402</ele>
        <time>2016-10-09T08:16:00.000Z</time>
      </trkpt>
      <trkpt lat="47.46358" lon="6.78439">
        <ele>402</ele>
        <time>2016-10-09T08:16:01.000Z</time>
      </trkpt>
      <trkpt lat="47.46356" lon="6.7844">
        <ele>402</ele>
        <time>2016-10-09T08:16:02.000Z</time>
      </trkpt>
      <trkpt lat="47.46353" lon="6.78441">
        <ele>402</ele>
        <time>2016-10-09T08:16:03.000Z</time>
      </trkpt>
      <trkpt lat="47.4635" lon="6.78443">
        <ele>402</ele>
        <time>2016-10-09T08:16:04.000Z</time>
      </trkpt>
      <trkpt lat="47.46347" lon="6.78444">
        <ele>402</ele>
        <time>2016-10-09T08:16:05.000Z</time>
      </trkpt>
      <trkpt lat="47.46344" lon="6.78445">
        <ele>402</ele>
        <time>2016-10-09T08:16:06.000Z</time>
      </trkpt>
      <trkpt lat="47.46341" lon="6.78446">
        <ele>402</ele>
        <time>2016-10-09T08:16:07.000Z</time>
      </trkpt>
      <trkpt lat="47.46339" lon="6.78448">
        <ele>402</ele>
        <time>2016-10-09T08:16:08.000Z</time>
      </trkpt>
      <trkpt lat="47.46335" lon="6.7845">
        <ele>402</ele>
        <time>2016-10-09T08:16:10.000Z</time>
      </trkpt>
      <trkpt lat="47.46333" lon="6.78452">
        <ele>402</ele>
        <time>2016-10-09T08:16:11.000Z</time>
      </trkpt>
      <trkpt lat="47.46331" lon="6.78453">
        <ele>402</ele>
        <time>2016-10-09T08:16:12.000Z</time>
      </trkpt>
      <trkpt lat="47.46328" lon="6.78454">
        <ele>402</ele>
        <time>2016-10-09T08:16:13.000Z</time>
      </trkpt>
      <trkpt lat="47.46326" lon="6.78455">
        <ele>402</ele>
        <time>2016-10-09T08:16:14.000Z</time>
      </trkpt>
      <trkpt lat="47.46323" lon="6.78456">
        <ele>402</ele>
        <time>2016-10-09T08:16:15.000Z</time>
      </trkpt>
      <trkpt lat="47.4632" lon="6.78458">
        <ele>402</ele>
        <time>2016-10-09T08:16:16.000Z</time>
      </trkpt>
      <trkpt lat="47.46318" lon="6.78459">
        <ele>402</ele>
        <time>2016-10-09T08:16:17.000Z</time>
      </trkpt>
      <trkpt lat="47.46315" lon="6.78461">
        <ele>402</ele>
        <time>2016-10-09T08:16:18.000Z</time>
      </trkpt>
      <trkpt lat="47.46312" lon="6.78462">
        <ele>402</ele>
        <time>2016-10-09T08:16:19.000Z</time>
      </trkpt>
      <trkpt lat="47.46309" lon="6.78464">
        <ele>402</ele>
        <time>2016-10-09T08:16:20.000Z</time>
      </trkpt>
      <trkpt lat="47.46306" lon="6.78465">
        <ele>402</ele>
        <time>2016-10-09T08:16:21.000Z</time>
      </trkpt>
      <trkpt lat="47.46303" lon="6.78466">
        <ele>402</ele>
        <time>2016-10-09T08:16:22.000Z</time>
      </trkpt>
      <trkpt lat="47.46299" lon="6.78467">
        <ele>402</ele>
        <time>2016-10-09T08:16:23.000Z</time>
      </trkpt>
      <trkpt lat="47.46295" lon="6.78468">
        <ele>403</ele>
        <time>2016-10-09T08:16:24.000Z</time>
      </trkpt>
      <trkpt lat="47.46292" lon="6.7847">
        <ele>403</ele>
        <time>2016-10-09T08:16:25.000Z</time>
      </trkpt>
      <trkpt lat="47.46289" lon="6.78471">
        <ele>403</ele>
        <time>2016-10-09T08:16:26.000Z</time>
      </trkpt>
      <trkpt lat="47.46286" lon="6.78473">
        <ele>403</ele>
        <time>2016-10-09T08:16:27.000Z</time>
      </trkpt>
      <trkpt lat="47.46283" lon="6.78474">
        <ele>403</ele>
        <time>2016-10-09T08:16:28.000Z</time>
      </trkpt>
      <trkpt lat="47.46279" lon="6.78476">
        <ele>403</ele>
        <time>2016-10-09T08:16:29.000Z</time>
      </trkpt>
      <trkpt lat="47.46276" lon="6.78477">
        <ele>403</ele>
        <time>2016-10-09T08:16:30.000Z</time>
      </trkpt>
      <trkpt lat="47.46273" lon="6.78478">
        <ele>403</ele>
        <time>2016-10-09T08:16:31.000Z</time>
      </trkpt>
      <trkpt lat="47.4627" lon="6.7848">
        <ele>403</ele>
        <time>2016-10-09T08:16:32.000Z</time>
      </trkpt>
      <trkpt lat="47.46267" lon="6.7848">
        <ele>403</ele>
        <time>2016-10-09T08:16:33.000Z</time>
      </trkpt>
      <trkpt lat="47.46264" lon="6.78481">
        <ele>403</ele>
        <time>2016-10-09T08:16:34.000Z</time>
      </trkpt>
      <trkpt lat="47.46261" lon="6.78482">
        <ele>403</ele>
        <time>2016-10-09T08:16:35.000Z</time>
      </trkpt>
      <trkpt lat="47.46258" lon="6.78483">
        <ele>403</ele>
        <time>2016-10-09T08:16:36.000Z</time>
      </trkpt>
      <trkpt lat="47.46254" lon="6.78485">
        <ele>403</ele>
        <time>2016-10-09T08:16:37.000Z</time>
      </trkpt>
      <trkpt lat="47.46251" lon="6.78486">
        <ele>403</ele>
        <time>2016-10-09T08:16:38.000Z</time>
      </trkpt>
      <trkpt lat="47.46248" lon="6.78487">
        <ele>404</ele>
        <time>2016-10-09T08:16:39.000Z</time>
      </trkpt>
      <trkpt lat="47.46245" lon="6.78488">
        <ele>405</ele>
        <time>2016-10-09T08:16:40.000Z</time>
      </trkpt>
      <trkpt lat="47.46242" lon="6.78489">
        <ele>405</ele>
        <time>2016-10-09T08:16:41.000Z</time>
      </trkpt>
      <trkpt lat="47.46239" lon="6.7849">
        <ele>405</ele>
        <time>2016-10-09T08:16:42.000Z</time>
      </trkpt>
      <trkpt lat="47.46236" lon="6.78491">
        <ele>405</ele>
        <time>2016-10-09T08:16:43.000Z</time>
      </trkpt>
      <trkpt lat="47.46234" lon="6.78493">
        <ele>405</ele>
        <time>2016-10-09T08:16:44.000Z</time>
      </trkpt>
      <trkpt lat="47.46231" lon="6.78494">
        <ele>405</ele>
        <time>2016-10-09T08:16:45.000Z</time>
      </trkpt>
      <trkpt lat="47.46229" lon="6.78496">
        <ele>405</ele>
        <time>2016-10-09T08:16:46.000Z</time>
      </trkpt>
      <trkpt lat="47.46225" lon="6.78498">
        <ele>406</ele>
        <time>2016-10-09T08:16:47.000Z</time>
      </trkpt>
      <trkpt lat="47.46222" lon="6.78499">
        <ele>406</ele>
        <time>2016-10-09T08:16:48.000Z</time>
      </trkpt>
      <trkpt lat="47.46219" lon="6.78501">
        <ele>405</ele>
        <time>2016-10-09T08:16:49.000Z</time>
      </trkpt>
      <trkpt lat="47.46215" lon="6.78502">
        <ele>405</ele>
        <time>2016-10-09T08:16:50.000Z</time>
      </trkpt>
      <trkpt lat="47.46212" lon="6.78503">
        <ele>406</ele>
        <time>2016-10-09T08:16:51.000Z</time>
      </trkpt>
      <trkpt lat="47.46208" lon="6.78505">
        <ele>406</ele>
        <time>2016-10-09T08:16:52.000Z</time>
      </trkpt>
      <trkpt lat="47.46205" lon="6.78506">
        <ele>406</ele>
        <time>2016-10-09T08:16:53.000Z</time>
      </trkpt>
      <trkpt lat="47.46202" lon="6.78508">
        <ele>406</ele>
        <time>2016-10-09T08:16:54.000Z</time>
      </trkpt>
      <trkpt lat="47.462" lon="6.78509">
        <ele>406</ele>
        <time>2016-10-09T08:16:55.000Z</time>
      </trkpt>
      <trkpt lat="47.46197" lon="6.7851">
        <ele>406</ele>
        <time>2016-10-09T08:16:56.000Z</time>
      </trkpt>
      <trkpt lat="47.46194" lon="6.78511">
        <ele>406</ele>
        <time>2016-10-09T08:16:57.000Z</time>
      </trkpt>
      <trkpt lat="47.46192" lon="6.78512">
        <ele>407</ele>
        <time>2016-10-09T08:16:58.000Z</time>
      </trkpt>
      <trkpt lat="47.46189" lon="6.78513">
        <ele>407</ele>
        <time>2016-10-09T08:16:59.000Z</time>
      </trkpt>
      <trkpt lat="47.46186" lon="6.78514">
        <ele>407</ele>
        <time>2016-10-09T08:17:00.000Z</time>
      </trkpt>
      <trkpt lat="47.46183" lon="6.78515">
        <ele>407</ele>
        <time>2016-10-09T08:17:01.000Z</time>
      </trkpt>
      <trkpt lat="47.46181" lon="6.78517">
        <ele>407</ele>
        <time>2016-10-09T08:17:02.000Z</time>
      </trkpt>
      <trkpt lat="47.46179" lon="6.78518">
        <ele>407</ele>
        <time>2016-10-09T08:17:03.000Z</time>
      </trkpt>
      <trkpt lat="47.46175" lon="6.78521">
        <ele>407</ele>
        <time>2016-10-09T08:17:05.000Z</time>
      </trkpt>
      <trkpt lat="47.46173" lon="6.78521">
        <ele>407</ele>
        <time>2016-10-09T08:17:06.000Z</time>
      </trkpt>
      <trkpt lat="47.4617" lon="6.78522">
        <ele>407</ele>
        <time>2016-10-09T08:17:07.000Z</time>
      </trkpt>
      <trkpt lat="47.46168" lon="6.78522">
        <ele>407</ele>
        <time>2016-10-09T08:17:08.000Z</time>
      </trkpt>
      <trkpt lat="47.46164" lon="6.78523">
        <ele>408</ele>
        <time>2016-10-09T08:17:09.000Z</time>
      </trkpt>
      <trkpt lat="47.4616" lon="6.78524">
        <ele>408</ele>
        <time>2016-10-09T08:17:10.000Z</time>
      </trkpt>
      <trkpt lat="47.46156" lon="6.78526">
        <ele>408</ele>
        <time>2016-10-09T08:17:11.000Z</time>
      </trkpt>
      <trkpt lat="47.46151" lon="6.78528">
        <ele>408</ele>
        <time>2016-10-09T08:17:12.000Z</time>
      </trkpt>
      <trkpt lat="47.46146" lon="6.78529">
        <ele>408</ele>
        <time>2016-10-09T08:17:13.000Z</time>
      </trkpt>
      <trkpt lat="47.46141" lon="6.78531">
        <ele>408</ele>
        <time>2016-10-09T08:17:14.000Z</time>
      </trkpt>
      <trkpt lat="47.46136" lon="6.78532">
        <ele>408</ele>
        <time>2016-10-09T08:17:15.000Z</time>
      </trkpt>
      <trkpt lat="47.46115" lon="6.78536">
        <ele>408</ele>
        <time>2016-10-09T08:17:16.000Z</time>
      </trkpt>
      <trkpt lat="47.46107" lon="6.78538">
        <ele>408</ele>
        <time>2016-10-09T08:17:17.000Z</time>
      </trkpt>
      <trkpt lat="47.46102" lon="6.78535">
        <ele>408</ele>
        <time>2016-10-09T08:17:18.000Z</time>
      </trkpt>
      <trkpt lat="47.461" lon="6.78531">
        <ele>408</ele>
        <time>2016-10-09T08:17:19.000Z</time>
      </trkpt>
      <trkpt lat="47.46094" lon="6.78527">
        <ele>408</ele>
        <time>2016-10-09T08:17:20.000Z</time>
      </trkpt>
      <trkpt lat="47.46088" lon="6.78525">
        <ele>409</ele>
        <time>2016-10-09T08:17:21.000Z</time>
      </trkpt>
      <trkpt lat="47.46083" lon="6.78522">
        <ele>406</ele>
        <time>2016-10-09T08:17:22.000Z</time>
      </trkpt>
      <trkpt lat="47.46077" lon="6.78521">
        <ele>406</ele>
        <time>2016-10-09T08:17:23.000Z</time>
      </trkpt>
      <trkpt lat="47.46073" lon="6.78519">
        <ele>406</ele>
        <time>2016-10-09T08:17:24.000Z</time>
      </trkpt>
      <trkpt lat="47.46066" lon="6.78517">
        <ele>406</ele>
        <time>2016-10-09T08:17:25.000Z</time>
      </trkpt>
      <trkpt lat="47.46058" lon="6.78514">
        <ele>405</ele>
        <time>2016-10-09T08:17:26.000Z</time>
      </trkpt>
      <trkpt lat="47.46051" lon="6.78513">
        <ele>404</ele>
        <time>2016-10-09T08:17:27.000Z</time>
      </trkpt>
      <trkpt lat="47.46046" lon="6.78511">
        <ele>404</ele>
        <time>2016-10-09T08:17:28.000Z</time>
      </trkpt>
      <trkpt lat="47.46039" lon="6.7851">
        <ele>403</ele>
        <time>2016-10-09T08:17:29.000Z</time>
      </trkpt>
      <trkpt lat="47.46035" lon="6.78507">
        <ele>403</ele>
        <time>2016-10-09T08:17:30.000Z</time>
      </trkpt>
      <trkpt lat="47.46031" lon="6.78507">
        <ele>403</ele>
        <time>2016-10-09T08:17:31.000Z</time>
      </trkpt>
      <trkpt lat="47.46027" lon="6.78504">
        <ele>402</ele>
        <time>2016-10-09T08:17:32.000Z</time>
      </trkpt>
      <trkpt lat="47.46021" lon="6.78502">
        <ele>402</ele>
        <time>2016-10-09T08:17:33.000Z</time>
      </trkpt>
      <trkpt lat="47.4602" lon="6.78502">
        <ele>402</ele>
        <time>2016-10-09T08:17:34.000Z</time>
      </trkpt>
      <trkpt lat="47.46016" lon="6.78503">
        <ele>402</ele>
        <time>2016-10-09T08:17:35.000Z</time>
      </trkpt>
      <trkpt lat="47.46011" lon="6.78501">
        <ele>401</ele>
        <time>2016-10-09T08:17:36.000Z</time>
      </trkpt>
      <trkpt lat="47.46007" lon="6.78499">
        <ele>401</ele>
        <time>2016-10-09T08:17:37.000Z</time>
      </trkpt>
      <trkpt lat="47.46004" lon="6.78495">
        <ele>401</ele>
        <time>2016-10-09T08:17:39.000Z</time>
      </trkpt>
      <trkpt lat="47.46003" lon="6.78494">
        <ele>401</ele>
        <time>2016-10-09T08:17:40.000Z</time>
      </trkpt>
      <trkpt lat="47.46" lon="6.7849">
        <ele>402</ele>
        <time>2016-10-09T08:17:49.000Z</time>
      </trkpt>
      <trkpt lat="47.46" lon="6.78489">
        <ele>398</ele>
        <time>2016-10-09T08:17:50.000Z</time>
      </trkpt>
      <trkpt lat="47.45997" lon="6.78483">
        <ele>397</ele>
        <time>2016-10-09T08:18:35.000Z</time>
      </trkpt>
      <trkpt lat="47.45997" lon="6.78483">
        <ele>397</ele>
        <time>2016-10-09T08:18:36.000Z</time>
      </trkpt>
      <trkpt lat="47.45993" lon="6.7848">
        <ele>396</ele>
        <time>2016-10-09T08:18:42.000Z</time>
      </trkpt>
      <trkpt lat="47.45992" lon="6.7848">
        <ele>396</ele>
        <time>2016-10-09T08:18:43.000Z</time>
      </trkpt>
      <trkpt lat="47.45988" lon="6.78477">
        <ele>396</ele>
        <time>2016-10-09T08:18:49.000Z</time>
      </trkpt>
      <trkpt lat="47.45987" lon="6.78475">
        <ele>395</ele>
        <time>2016-10-09T08:18:50.000Z</time>
      </trkpt>
      <trkpt lat="47.45985" lon="6.78473">
        <ele>395</ele>
        <time>2016-10-09T08:18:51.000Z</time>
      </trkpt>
      <trkpt lat="47.45984" lon="6.7847">
        <ele>395</ele>
        <time>2016-10-09T08:18:52.000Z</time>
      </trkpt>
      <trkpt lat="47.45982" lon="6.78466">
        <ele>395</ele>
        <time>2016-10-09T08:18:53.000Z</time>
      </trkpt>
      <trkpt lat="47.45981" lon="6.78462">
        <ele>395</ele>
        <time>2016-10-09T08:18:54.000Z</time>
      </trkpt>
      <trkpt lat="47.4598" lon="6.78457">
        <ele>395</ele>
        <time>2016-10-09T08:18:55.000Z</time>
      </trkpt>
      <trkpt lat="47.45978" lon="6.78452">
        <ele>395</ele>
        <time>2016-10-09T08:18:56.000Z</time>
      </trkpt>
      <trkpt lat="47.45976" lon="6.78448">
        <ele>395</ele>
        <time>2016-10-09T08:18:57.000Z</time>
      </trkpt>
      <trkpt lat="47.45974" lon="6.78444">
        <ele>395</ele>
        <time>2016-10-09T08:18:58.000Z</time>
      </trkpt>
      <trkpt lat="47.45972" lon="6.78441">
        <ele>395</ele>
        <time>2016-10-09T08:18:59.000Z</time>
      </trkpt>
      <trkpt lat="47.4597" lon="6.7844">
        <ele>394</ele>
        <time>2016-10-09T08:19:00.000Z</time>
      </trkpt>
      <trkpt lat="47.45967" lon="6.78439">
        <ele>394</ele>
        <time>2016-10-09T08:19:02.000Z</time>
      </trkpt>
      <trkpt lat="47.45965" lon="6.78439">
        <ele>394</ele>
        <time>2016-10-09T08:19:03.000Z</time>
      </trkpt>
      <trkpt lat="47.45962" lon="6.78441">
        <ele>394</ele>
        <time>2016-10-09T08:19:04.000Z</time>
      </trkpt>
      <trkpt lat="47.4596" lon="6.78444">
        <ele>393</ele>
        <time>2016-10-09T08:19:05.000Z</time>
      </trkpt>
      <trkpt lat="47.45958" lon="6.78447">
        <ele>393</ele>
        <time>2016-10-09T08:19:06.000Z</time>
      </trkpt>
      <trkpt lat="47.45956" lon="6.78451">
        <ele>393</ele>
        <time>2016-10-09T08:19:07.000Z</time>
      </trkpt>
      <trkpt lat="47.45954" lon="6.78457">
        <ele>392</ele>
        <time>2016-10-09T08:19:08.000Z</time>
      </trkpt>
      <trkpt lat="47.45952" lon="6.78463">
        <ele>392</ele>
        <time>2016-10-09T08:19:09.000Z</time>
      </trkpt>
      <trkpt lat="47.45952" lon="6.78477">
        <ele>392</ele>
        <time>2016-10-09T08:19:10.000Z</time>
      </trkpt>
      <trkpt lat="47.45955" lon="6.78488">
        <ele>392</ele>
        <time>2016-10-09T08:19:11.000Z</time>
      </trkpt>
      <trkpt lat="47.45956" lon="6.78497">
        <ele>392</ele>
        <time>2016-10-09T08:19:12.000Z</time>
      </trkpt>
      <trkpt lat="47.45957" lon="6.78507">
        <ele>390</ele>
        <time>2016-10-09T08:19:13.000Z</time>
      </trkpt>
      <trkpt lat="47.45954" lon="6.78516">
        <ele>389</ele>
        <time>2016-10-09T08:19:14.000Z</time>
      </trkpt>
      <trkpt lat="47.45953" lon="6.78525">
        <ele>389</ele>
        <time>2016-10-09T08:19:15.000Z</time>
      </trkpt>
      <trkpt lat="47.45948" lon="6.78532">
        <ele>388</ele>
        <time>2016-10-09T08:19:16.000Z</time>
      </trkpt>
      <trkpt lat="47.45942" lon="6.78537">
        <ele>388</ele>
        <time>2016-10-09T08:19:17.000Z</time>
      </trkpt>
      <trkpt lat="47.45933" lon="6.7854">
        <ele>387</ele>
        <time>2016-10-09T08:19:18.000Z</time>
      </trkpt>
      <trkpt lat="47.45926" lon="6.7854">
        <ele>386</ele>
        <time>2016-10-09T08:19:19.000Z</time>
      </trkpt>
      <trkpt lat="47.45918" lon="6.78534">
        <ele>386</ele>
        <time>2016-10-09T08:19:20.000Z</time>
      </trkpt>
      <trkpt lat="47.4591" lon="6.78528">
        <ele>377</ele>
        <time>2016-10-09T08:19:21.000Z</time>
      </trkpt>
      <trkpt lat="47.45903" lon="6.78522">
        <ele>377</ele>
        <time>2016-10-09T08:19:22.000Z</time>
      </trkpt>
      <trkpt lat="47.45896" lon="6.78511">
        <ele>377</ele>
        <time>2016-10-09T08:19:23.000Z</time>
      </trkpt>
      <trkpt lat="47.45889" lon="6.78504">
        <ele>376</ele>
        <time>2016-10-09T08:19:24.000Z</time>
      </trkpt>
      <trkpt lat="47.45882" lon="6.78497">
        <ele>377</ele>
        <time>2016-10-09T08:19:25.000Z</time>
      </trkpt>
      <trkpt lat="47.45875" lon="6.7849">
        <ele>376</ele>
        <time>2016-10-09T08:19:26.000Z</time>
      </trkpt>
      <trkpt lat="47.45867" lon="6.78482">
        <ele>376</ele>
        <time>2016-10-09T08:19:27.000Z</time>
      </trkpt>
      <trkpt lat="47.45858" lon="6.78474">
        <ele>375</ele>
        <time>2016-10-09T08:19:28.000Z</time>
      </trkpt>
      <trkpt lat="47.4585" lon="6.78467">
        <ele>375</ele>
        <time>2016-10-09T08:19:29.000Z</time>
      </trkpt>
      <trkpt lat="47.45841" lon="6.78459">
        <ele>374</ele>
        <time>2016-10-09T08:19:30.000Z</time>
      </trkpt>
      <trkpt lat="47.45832" lon="6.78451">
        <ele>366</ele>
        <time>2016-10-09T08:19:31.000Z</time>
      </trkpt>
      <trkpt lat="47.45823" lon="6.78442">
        <ele>367</ele>
        <time>2016-10-09T08:19:32.000Z</time>
      </trkpt>
      <trkpt lat="47.45814" lon="6.78433">
        <ele>367</ele>
        <time>2016-10-09T08:19:33.000Z</time>
      </trkpt>
      <trkpt lat="47.45804" lon="6.78425">
        <ele>366</ele>
        <time>2016-10-09T08:19:34.000Z</time>
      </trkpt>
      <trkpt lat="47.45795" lon="6.78418">
        <ele>365</ele>
        <time>2016-10-09T08:19:35.000Z</time>
      </trkpt>
      <trkpt lat="47.45786" lon="6.7841">
        <ele>366</ele>
        <time>2016-10-09T08:19:36.000Z</time>
      </trkpt>
      <trkpt lat="47.45776" lon="6.78403">
        <ele>365</ele>
        <time>2016-10-09T08:19:37.000Z</time>
      </trkpt>
      <trkpt lat="47.45766" lon="6.78397">
        <ele>365</ele>
        <time>2016-10-09T08:19:38.000Z</time>
      </trkpt>
      <trkpt lat="47.45756" lon="6.78393">
        <ele>364</ele>
        <time>2016-10-09T08:19:39.000Z</time>
      </trkpt>
      <trkpt lat="47.45747" lon="6.7839">
        <ele>360</ele>
        <time>2016-10-09T08:19:40.000Z</time>
      </trkpt>
      <trkpt lat="47.45737" lon="6.78387">
        <ele>360</ele>
        <time>2016-10-09T08:19:41.000Z</time>
      </trkpt>
      <trkpt lat="47.45729" lon="6.78386">
        <ele>359</ele>
        <time>2016-10-09T08:19:42.000Z</time>
      </trkpt>
      <trkpt lat="47.4572" lon="6.78385">
        <ele>359</ele>
        <time>2016-10-09T08:19:43.000Z</time>
      </trkpt>
      <trkpt lat="47.45713" lon="6.78384">
        <ele>359</ele>
        <time>2016-10-09T08:19:44.000Z</time>
      </trkpt>
      <trkpt lat="47.45706" lon="6.78384">
        <ele>359</ele>
        <time>2016-10-09T08:19:45.000Z</time>
      </trkpt>
      <trkpt lat="47.457" lon="6.78383">
        <ele>359</ele>
        <time>2016-10-09T08:19:46.000Z</time>
      </trkpt>
      <trkpt lat="47.45694" lon="6.78383">
        <ele>358</ele>
        <time>2016-10-09T08:19:47.000Z</time>
      </trkpt>
      <trkpt lat="47.4569" lon="6.78386">
        <ele>358</ele>
        <time>2016-10-09T08:19:48.000Z</time>
      </trkpt>
      <trkpt lat="47.45686" lon="6.7839">
        <ele>358</ele>
        <time>2016-10-09T08:19:49.000Z</time>
      </trkpt>
      <trkpt lat="47.45682" lon="6.78393">
        <ele>358</ele>
        <time>2016-10-09T08:19:50.000Z</time>
      </trkpt>
      <trkpt lat="47.4568" lon="6.78398">
        <ele>358</ele>
        <time>2016-10-09T08:19:51.000Z</time>
      </trkpt>
      <trkpt lat="47.45678" lon="6.78403">
        <ele>357</ele>
        <time>2016-10-09T08:19:52.000Z</time>
      </trkpt>
      <trkpt lat="47.45676" lon="6.78408">
        <ele>357</ele>
        <time>2016-10-09T08:19:53.000Z</time>
      </trkpt>
      <trkpt lat="47.45674" lon="6.78413">
        <ele>357</ele>
        <time>2016-10-09T08:19:54.000Z</time>
      </trkpt>
      <trkpt lat="47.45672" lon="6.78419">
        <ele>356</ele>
        <time>2016-10-09T08:19:55.000Z</time>
      </trkpt>
      <trkpt lat="47.45669" lon="6.78424">
        <ele>356</ele>
        <time>2016-10-09T08:19:56.000Z</time>
      </trkpt>
      <trkpt lat="47.45667" lon="6.78429">
        <ele>356</ele>
        <time>2016-10-09T08:19:57.000Z</time>
      </trkpt>
      <trkpt lat="47.45666" lon="6.78434">
        <ele>355</ele>
        <time>2016-10-09T08:19:58.000Z</time>
      </trkpt>
      <trkpt lat="47.45664" lon="6.7844">
        <ele>354</ele>
        <time>2016-10-09T08:19:59.000Z</time>
      </trkpt>
      <trkpt lat="47.45662" lon="6.78446">
        <ele>354</ele>
        <time>2016-10-09T08:20:00.000Z</time>
      </trkpt>
      <trkpt lat="47.4566" lon="6.78451">
        <ele>354</ele>
        <time>2016-10-09T08:20:01.000Z</time>
      </trkpt>
      <trkpt lat="47.45658" lon="6.78456">
        <ele>353</ele>
        <time>2016-10-09T08:20:02.000Z</time>
      </trkpt>
      <trkpt lat="47.45656" lon="6.78461">
        <ele>353</ele>
        <time>2016-10-09T08:20:03.000Z</time>
      </trkpt>
      <trkpt lat="47.45654" lon="6.78464">
        <ele>353</ele>
        <time>2016-10-09T08:20:04.000Z</time>
      </trkpt>
      <trkpt lat="47.45652" lon="6.78468">
        <ele>353</ele>
        <time>2016-10-09T08:20:05.000Z</time>
      </trkpt>
      <trkpt lat="47.4565" lon="6.78473">
        <ele>353</ele>
        <time>2016-10-09T08:20:06.000Z</time>
      </trkpt>
      <trkpt lat="47.45649" lon="6.78477">
        <ele>353</ele>
        <time>2016-10-09T08:20:07.000Z</time>
      </trkpt>
      <trkpt lat="47.45647" lon="6.78482">
        <ele>353</ele>
        <time>2016-10-09T08:20:08.000Z</time>
      </trkpt>
      <trkpt lat="47.45645" lon="6.78487">
        <ele>353</ele>
        <time>2016-10-09T08:20:09.000Z</time>
      </trkpt>
      <trkpt lat="47.45643" lon="6.78492">
        <ele>352</ele>
        <time>2016-10-09T08:20:10.000Z</time>
      </trkpt>
      <trkpt lat="47.45642" lon="6.78497">
        <ele>352</ele>
        <time>2016-10-09T08:20:11.000Z</time>
      </trkpt>
      <trkpt lat="47.4564" lon="6.78502">
        <ele>350</ele>
        <time>2016-10-09T08:20:12.000Z</time>
      </trkpt>
      <trkpt lat="47.45638" lon="6.78506">
        <ele>350</ele>
        <time>2016-10-09T08:20:13.000Z</time>
      </trkpt>
      <trkpt lat="47.45637" lon="6.7851">
        <ele>350</ele>
        <time>2016-10-09T08:20:14.000Z</time>
      </trkpt>
      <trkpt lat="47.45635" lon="6.78515">
        <ele>350</ele>
        <time>2016-10-09T08:20:15.000Z</time>
      </trkpt>
      <trkpt lat="47.45633" lon="6.78519">
        <ele>350</ele>
        <time>2016-10-09T08:20:16.000Z</time>
      </trkpt>
      <trkpt lat="47.45632" lon="6.78523">
        <ele>350</ele>
        <time>2016-10-09T08:20:17.000Z</time>
      </trkpt>
      <trkpt lat="47.4563" lon="6.78528">
        <ele>350</ele>
        <time>2016-10-09T08:20:18.000Z</time>
      </trkpt>
      <trkpt lat="47.45628" lon="6.78532">
        <ele>349</ele>
        <time>2016-10-09T08:20:19.000Z</time>
      </trkpt>
      <trkpt lat="47.45626" lon="6.78537">
        <ele>349</ele>
        <time>2016-10-09T08:20:20.000Z</time>
      </trkpt>
      <trkpt lat="47.45624" lon="6.78541">
        <ele>349</ele>
        <time>2016-10-09T08:20:21.000Z</time>
      </trkpt>
      <trkpt lat="47.45622" lon="6.78545">
        <ele>349</ele>
        <time>2016-10-09T08:20:22.000Z</time>
      </trkpt>
      <trkpt lat="47.4562" lon="6.78549">
        <ele>349</ele>
        <time>2016-10-09T08:20:23.000Z</time>
      </trkpt>
      <trkpt lat="47.45618" lon="6.78554">
        <ele>349</ele>
        <time>2016-10-09T08:20:24.000Z</time>
      </trkpt>
      <trkpt lat="47.45616" lon="6.78558">
        <ele>349</ele>
        <time>2016-10-09T08:20:25.000Z</time>
      </trkpt>
      <trkpt lat="47.45615" lon="6.78563">
        <ele>349</ele>
        <time>2016-10-09T08:20:26.000Z</time>
      </trkpt>
      <trkpt lat="47.45613" lon="6.78568">
        <ele>349</ele>
        <time>2016-10-09T08:20:27.000Z</time>
      </trkpt>
      <trkpt lat="47.45611" lon="6.78573">
        <ele>348</ele>
        <time>2016-10-09T08:20:28.000Z</time>
      </trkpt>
      <trkpt lat="47.4561" lon="6.78578">
        <ele>348</ele>
        <time>2016-10-09T08:20:29.000Z</time>
      </trkpt>
      <trkpt lat="47.45608" lon="6.78584">
        <ele>346</ele>
        <time>2016-10-09T08:20:30.000Z</time>
      </trkpt>
      <trkpt lat="47.45605" lon="6.78588">
        <ele>346</ele>
        <time>2016-10-09T08:20:31.000Z</time>
      </trkpt>
      <trkpt lat="47.45603" lon="6.78593">
        <ele>346</ele>
        <time>2016-10-09T08:20:32.000Z</time>
      </trkpt>
      <trkpt lat="47.456" lon="6.78598">
        <ele>346</ele>
        <time>2016-10-09T08:20:33.000Z</time>
      </trkpt>
      <trkpt lat="47.45598" lon="6.78602">
        <ele>346</ele>
        <time>2016-10-09T08:20:34.000Z</time>
      </trkpt>
      <trkpt lat="47.45595" lon="6.78607">
        <ele>346</ele>
        <time>2016-10-09T08:20:35.000Z</time>
      </trkpt>
      <trkpt lat="47.45592" lon="6.78611">
        <ele>345</ele>
        <time>2016-10-09T08:20:36.000Z</time>
      </trkpt>
      <trkpt lat="47.45589" lon="6.78615">
        <ele>345</ele>
        <time>2016-10-09T08:20:37.000Z</time>
      </trkpt>
      <trkpt lat="47.45587" lon="6.78618">
        <ele>345</ele>
        <time>2016-10-09T08:20:38.000Z</time>
      </trkpt>
      <trkpt lat="47.45584" lon="6.78622">
        <ele>345</ele>
        <time>2016-10-09T08:20:39.000Z</time>
      </trkpt>
      <trkpt lat="47.45582" lon="6.78626">
        <ele>343</ele>
        <time>2016-10-09T08:20:40.000Z</time>
      </trkpt>
      <trkpt lat="47.45579" lon="6.7863">
        <ele>342</ele>
        <time>2016-10-09T08:20:41.000Z</time>
      </trkpt>
      <trkpt lat="47.45577" lon="6.78634">
        <ele>342</ele>
        <time>2016-10-09T08:20:42.000Z</time>
      </trkpt>
      <trkpt lat="47.45574" lon="6.78637">
        <ele>342</ele>
        <time>2016-10-09T08:20:43.000Z</time>
      </trkpt>
      <trkpt lat="47.45572" lon="6.78641">
        <ele>342</ele>
        <time>2016-10-09T08:20:44.000Z</time>
      </trkpt>
      <trkpt lat="47.45569" lon="6.78646">
        <ele>342</ele>
        <time>2016-10-09T08:20:45.000Z</time>
      </trkpt>
      <trkpt lat="47.45566" lon="6.7865">
        <ele>342</ele>
        <time>2016-10-09T08:20:46.000Z</time>
      </trkpt>
      <trkpt lat="47.45563" lon="6.78654">
        <ele>341</ele>
        <time>2016-10-09T08:20:47.000Z</time>
      </trkpt>
      <trkpt lat="47.45561" lon="6.78659">
        <ele>341</ele>
        <time>2016-10-09T08:20:48.000Z</time>
      </trkpt>
      <trkpt lat="47.45558" lon="6.78663">
        <ele>341</ele>
        <time>2016-10-09T08:20:49.000Z</time>
      </trkpt>
      <trkpt lat="47.45556" lon="6.78667">
        <ele>339</ele>
        <time>2016-10-09T08:20:50.000Z</time>
      </trkpt>
      <trkpt lat="47.45553" lon="6.78672">
        <ele>338</ele>
        <time>2016-10-09T08:20:51.000Z</time>
      </trkpt>
      <trkpt lat="47.45551" lon="6.78676">
        <ele>338</ele>
        <time>2016-10-09T08:20:52.000Z</time>
      </trkpt>
      <trkpt lat="47.45547" lon="6.7868">
        <ele>338</ele>
        <time>2016-10-09T08:20:53.000Z</time>
      </trkpt>
      <trkpt lat="47.45544" lon="6.78684">
        <ele>338</ele>
        <time>2016-10-09T08:20:54.000Z</time>
      </trkpt>
      <trkpt lat="47.45541" lon="6.78688">
        <ele>338</ele>
        <time>2016-10-09T08:20:55.000Z</time>
      </trkpt>
      <trkpt lat="47.45539" lon="6.78691">
        <ele>338</ele>
        <time>2016-10-09T08:20:56.000Z</time>
      </trkpt>
      <trkpt lat="47.45536" lon="6.78695">
        <ele>338</ele>
        <time>2016-10-09T08:20:57.000Z</time>
      </trkpt>
      <trkpt lat="47.45533" lon="6.78698">
        <ele>338</ele>
        <time>2016-10-09T08:20:58.000Z</time>
      </trkpt>
      <trkpt lat="47.4553" lon="6.78702">
        <ele>337</ele>
        <time>2016-10-09T08:20:59.000Z</time>
      </trkpt>
      <trkpt lat="47.45527" lon="6.78706">
        <ele>337</ele>
        <time>2016-10-09T08:21:00.000Z</time>
      </trkpt>
      <trkpt lat="47.45524" lon="6.78709">
        <ele>337</ele>
        <time>2016-10-09T08:21:01.000Z</time>
      </trkpt>
      <trkpt lat="47.45522" lon="6.78712">
        <ele>337</ele>
        <time>2016-10-09T08:21:02.000Z</time>
      </trkpt>
      <trkpt lat="47.4552" lon="6.78715">
        <ele>337</ele>
        <time>2016-10-09T08:21:03.000Z</time>
      </trkpt>
      <trkpt lat="47.45518" lon="6.78719">
        <ele>337</ele>
        <time>2016-10-09T08:21:04.000Z</time>
      </trkpt>
      <trkpt lat="47.45516" lon="6.78722">
        <ele>337</ele>
        <time>2016-10-09T08:21:05.000Z</time>
      </trkpt>
      <trkpt lat="47.45515" lon="6.78725">
        <ele>337</ele>
        <time>2016-10-09T08:21:06.000Z</time>
      </trkpt>
      <trkpt lat="47.45513" lon="6.78729">
        <ele>337</ele>
        <time>2016-10-09T08:21:07.000Z</time>
      </trkpt>
      <trkpt lat="47.45511" lon="6.78733">
        <ele>336</ele>
        <time>2016-10-09T08:21:08.000Z</time>
      </trkpt>
      <trkpt lat="47.45509" lon="6.78737">
        <ele>336</ele>
        <time>2016-10-09T08:21:09.000Z</time>
      </trkpt>
      <trkpt lat="47.45506" lon="6.7874">
        <ele>336</ele>
        <time>2016-10-09T08:21:10.000Z</time>
      </trkpt>
      <trkpt lat="47.45503" lon="6.78744">
        <ele>336</ele>
        <time>2016-10-09T08:21:11.000Z</time>
      </trkpt>
      <trkpt lat="47.45501" lon="6.78747">
        <ele>335</ele>
        <time>2016-10-09T08:21:12.000Z</time>
      </trkpt>
      <trkpt lat="47.45499" lon="6.78749">
        <ele>335</ele>
        <time>2016-10-09T08:21:13.000Z</time>
      </trkpt>
      <trkpt lat="47.45496" lon="6.78752">
        <ele>335</ele>
        <time>2016-10-09T08:21:14.000Z</time>
      </trkpt>
      <trkpt lat="47.45495" lon="6.78754">
        <ele>335</ele>
        <time>2016-10-09T08:21:15.000Z</time>
      </trkpt>
      <trkpt lat="47.45493" lon="6.78757">
        <ele>334</ele>
        <time>2016-10-09T08:21:16.000Z</time>
      </trkpt>
      <trkpt lat="47.45491" lon="6.78759">
        <ele>334</ele>
        <time>2016-10-09T08:21:17.000Z</time>
      </trkpt>
      <trkpt lat="47.45489" lon="6.78762">
        <ele>334</ele>
        <time>2016-10-09T08:21:18.000Z</time>
      </trkpt>
      <trkpt lat="47.45487" lon="6.78766">
        <ele>334</ele>
        <time>2016-10-09T08:21:19.000Z</time>
      </trkpt>
      <trkpt lat="47.45484" lon="6.7877">
        <ele>334</ele>
        <time>2016-10-09T08:21:20.000Z</time>
      </trkpt>
      <trkpt lat="47.45479" lon="6.78775">
        <ele>334</ele>
        <time>2016-10-09T08:21:21.000Z</time>
      </trkpt>
      <trkpt lat="47.45475" lon="6.7878">
        <ele>334</ele>
        <time>2016-10-09T08:21:22.000Z</time>
      </trkpt>
      <trkpt lat="47.45471" lon="6.78785">
        <ele>333</ele>
        <time>2016-10-09T08:21:23.000Z</time>
      </trkpt>
      <trkpt lat="47.45467" lon="6.78789">
        <ele>333</ele>
        <time>2016-10-09T08:21:24.000Z</time>
      </trkpt>
      <trkpt lat="47.45463" lon="6.78794">
        <ele>333</ele>
        <time>2016-10-09T08:21:25.000Z</time>
      </trkpt>
      <trkpt lat="47.45459" lon="6.78799">
        <ele>333</ele>
        <time>2016-10-09T08:21:26.000Z</time>
      </trkpt>
      <trkpt lat="47.45455" lon="6.78804">
        <ele>333</ele>
        <time>2016-10-09T08:21:27.000Z</time>
      </trkpt>
      <trkpt lat="47.45452" lon="6.78809">
        <ele>333</ele>
        <time>2016-10-09T08:21:28.000Z</time>
      </trkpt>
      <trkpt lat="47.45448" lon="6.78813">
        <ele>333</ele>
        <time>2016-10-09T08:21:29.000Z</time>
      </trkpt>
      <trkpt lat="47.45445" lon="6.78818">
        <ele>333</ele>
        <time>2016-10-09T08:21:30.000Z</time>
      </trkpt>
      <trkpt lat="47.4544" lon="6.78822">
        <ele>333</ele>
        <time>2016-10-09T08:21:31.000Z</time>
      </trkpt>
      <trkpt lat="47.45436" lon="6.78827">
        <ele>333</ele>
        <time>2016-10-09T08:21:32.000Z</time>
      </trkpt>
      <trkpt lat="47.45431" lon="6.78831">
        <ele>333</ele>
        <time>2016-10-09T08:21:33.000Z</time>
      </trkpt>
      <trkpt lat="47.45427" lon="6.78835">
        <ele>332</ele>
        <time>2016-10-09T08:21:34.000Z</time>
      </trkpt>
      <trkpt lat="47.45423" lon="6.7884">
        <ele>332</ele>
        <time>2016-10-09T08:21:35.000Z</time>
      </trkpt>
      <trkpt lat="47.4542" lon="6.78845">
        <ele>332</ele>
        <time>2016-10-09T08:21:36.000Z</time>
      </trkpt>
      <trkpt lat="47.45415" lon="6.78849">
        <ele>332</ele>
        <time>2016-10-09T08:21:37.000Z</time>
      </trkpt>
      <trkpt lat="47.45411" lon="6.78853">
        <ele>332</ele>
        <time>2016-10-09T08:21:38.000Z</time>
      </trkpt>
      <trkpt lat="47.45407" lon="6.78859">
        <ele>332</ele>
        <time>2016-10-09T08:21:39.000Z</time>
      </trkpt>
      <trkpt lat="47.45403" lon="6.78864">
        <ele>332</ele>
        <time>2016-10-09T08:21:40.000Z</time>
      </trkpt>
      <trkpt lat="47.45399" lon="6.78868">
        <ele>332</ele>
        <time>2016-10-09T08:21:41.000Z</time>
      </trkpt>
      <trkpt lat="47.45396" lon="6.78873">
        <ele>332</ele>
        <time>2016-10-09T08:21:42.000Z</time>
      </trkpt>
      <trkpt lat="47.45393" lon="6.78878">
        <ele>332</ele>
        <time>2016-10-09T08:21:43.000Z</time>
      </trkpt>
      <trkpt lat="47.45388" lon="6.78883">
        <ele>332</ele>
        <time>2016-10-09T08:21:44.000Z</time>
      </trkpt>
      <trkpt lat="47.45384" lon="6.78888">
        <ele>332</ele>
        <time>2016-10-09T08:21:45.000Z</time>
      </trkpt>
      <trkpt lat="47.45381" lon="6.78893">
        <ele>332</ele>
        <time>2016-10-09T08:21:46.000Z</time>
      </trkpt>
      <trkpt lat="47.45378" lon="6.78898">
        <ele>332</ele>
        <time>2016-10-09T08:21:47.000Z</time>
      </trkpt>
      <trkpt lat="47.45375" lon="6.78902">
        <ele>332</ele>
        <time>2016-10-09T08:21:48.000Z</time>
      </trkpt>
      <trkpt lat="47.45371" lon="6.78907">
        <ele>332</ele>
        <time>2016-10-09T08:21:49.000Z</time>
      </trkpt>
      <trkpt lat="47.45368" lon="6.78912">
        <ele>332</ele>
        <time>2016-10-09T08:21:50.000Z</time>
      </trkpt>
      <trkpt lat="47.45364" lon="6.78917">
        <ele>332</ele>
        <time>2016-10-09T08:21:51.000Z</time>
      </trkpt>
      <trkpt lat="47.4536" lon="6.78921">
        <ele>331</ele>
        <time>2016-10-09T08:21:52.000Z</time>
      </trkpt>
      <trkpt lat="47.45356" lon="6.78924">
        <ele>331</ele>
        <time>2016-10-09T08:21:53.000Z</time>
      </trkpt>
      <trkpt lat="47.45353" lon="6.7893">
        <ele>331</ele>
        <time>2016-10-09T08:21:54.000Z</time>
      </trkpt>
      <trkpt lat="47.4535" lon="6.78936">
        <ele>331</ele>
        <time>2016-10-09T08:21:55.000Z</time>
      </trkpt>
      <trkpt lat="47.45346" lon="6.78941">
        <ele>331</ele>
        <time>2016-10-09T08:21:56.000Z</time>
      </trkpt>
      <trkpt lat="47.45343" lon="6.78945">
        <ele>331</ele>
        <time>2016-10-09T08:21:57.000Z</time>
      </trkpt>
      <trkpt lat="47.4534" lon="6.7895">
        <ele>331</ele>
        <time>2016-10-09T08:21:58.000Z</time>
      </trkpt>
      <trkpt lat="47.45337" lon="6.78955">
        <ele>331</ele>
        <time>2016-10-09T08:21:59.000Z</time>
      </trkpt>
      <trkpt lat="47.45333" lon="6.78959">
        <ele>331</ele>
        <time>2016-10-09T08:22:00.000Z</time>
      </trkpt>
      <trkpt lat="47.4533" lon="6.78964">
        <ele>331</ele>
        <time>2016-10-09T08:22:01.000Z</time>
      </trkpt>
      <trkpt lat="47.45326" lon="6.78969">
        <ele>331</ele>
        <time>2016-10-09T08:22:02.000Z</time>
      </trkpt>
      <trkpt lat="47.45322" lon="6.78974">
        <ele>331</ele>
        <time>2016-10-09T08:22:03.000Z</time>
      </trkpt>
      <trkpt lat="47.45319" lon="6.78978">
        <ele>331</ele>
        <time>2016-10-09T08:22:04.000Z</time>
      </trkpt>
      <trkpt lat="47.45315" lon="6.78983">
        <ele>331</ele>
        <time>2016-10-09T08:22:05.000Z</time>
      </trkpt>
      <trkpt lat="47.45312" lon="6.78988">
        <ele>331</ele>
        <time>2016-10-09T08:22:06.000Z</time>
      </trkpt>
      <trkpt lat="47.45309" lon="6.78993">
        <ele>331</ele>
        <time>2016-10-09T08:22:07.000Z</time>
      </trkpt>
      <trkpt lat="47.45306" lon="6.78999">
        <ele>331</ele>
        <time>2016-10-09T08:22:08.000Z</time>
      </trkpt>
      <trkpt lat="47.45302" lon="6.79004">
        <ele>331</ele>
        <time>2016-10-09T08:22:09.000Z</time>
      </trkpt>
      <trkpt lat="47.45299" lon="6.79009">
        <ele>331</ele>
        <time>2016-10-09T08:22:10.000Z</time>
      </trkpt>
      <trkpt lat="47.45296" lon="6.79014">
        <ele>331</ele>
        <time>2016-10-09T08:22:11.000Z</time>
      </trkpt>
      <trkpt lat="47.45292" lon="6.79019">
        <ele>331</ele>
        <time>2016-10-09T08:22:12.000Z</time>
      </trkpt>
      <trkpt lat="47.45288" lon="6.79024">
        <ele>331</ele>
        <time>2016-10-09T08:22:13.000Z</time>
      </trkpt>
      <trkpt lat="47.45285" lon="6.79028">
        <ele>331</ele>
        <time>2016-10-09T08:22:14.000Z</time>
      </trkpt>
      <trkpt lat="47.45282" lon="6.79032">
        <ele>331</ele>
        <time>2016-10-09T08:22:15.000Z</time>
      </trkpt>
      <trkpt lat="47.4528" lon="6.79037">
        <ele>331</ele>
        <time>2016-10-09T08:22:16.000Z</time>
      </trkpt>
      <trkpt lat="47.45278" lon="6.7904">
        <ele>331</ele>
        <time>2016-10-09T08:22:17.000Z</time>
      </trkpt>
      <trkpt lat="47.45277" lon="6.79045">
        <ele>331</ele>
        <time>2016-10-09T08:22:18.000Z</time>
      </trkpt>
      <trkpt lat="47.45275" lon="6.79051">
        <ele>331</ele>
        <time>2016-10-09T08:22:19.000Z</time>
      </trkpt>
      <trkpt lat="47.45273" lon="6.79056">
        <ele>331</ele>
        <time>2016-10-09T08:22:20.000Z</time>
      </trkpt>
      <trkpt lat="47.45271" lon="6.79062">
        <ele>331</ele>
        <time>2016-10-09T08:22:21.000Z</time>
      </trkpt>
      <trkpt lat="47.45269" lon="6.79068">
        <ele>332</ele>
        <time>2016-10-09T08:22:22.000Z</time>
      </trkpt>
      <trkpt lat="47.45268" lon="6.79074">
        <ele>332</ele>
        <time>2016-10-09T08:22:23.000Z</time>
      </trkpt>
      <trkpt lat="47.45266" lon="6.7908">
        <ele>332</ele>
        <time>2016-10-09T08:22:24.000Z</time>
      </trkpt>
      <trkpt lat="47.45264" lon="6.79086">
        <ele>332</ele>
        <time>2016-10-09T08:22:25.000Z</time>
      </trkpt>
      <trkpt lat="47.45263" lon="6.79092">
        <ele>332</ele>
        <time>2016-10-09T08:22:26.000Z</time>
      </trkpt>
      <trkpt lat="47.4526" lon="6.79098">
        <ele>332</ele>
        <time>2016-10-09T08:22:27.000Z</time>
      </trkpt>
      <trkpt lat="47.45258" lon="6.79104">
        <ele>332</ele>
        <time>2016-10-09T08:22:28.000Z</time>
      </trkpt>
      <trkpt lat="47.45256" lon="6.7911">
        <ele>332</ele>
        <time>2016-10-09T08:22:29.000Z</time>
      </trkpt>
      <trkpt lat="47.45255" lon="6.79116">
        <ele>332</ele>
        <time>2016-10-09T08:22:30.000Z</time>
      </trkpt>
      <trkpt lat="47.45252" lon="6.79121">
        <ele>332</ele>
        <time>2016-10-09T08:22:31.000Z</time>
      </trkpt>
      <trkpt lat="47.45249" lon="6.79126">
        <ele>333</ele>
        <time>2016-10-09T08:22:32.000Z</time>
      </trkpt>
      <trkpt lat="47.45246" lon="6.79129">
        <ele>333</ele>
        <time>2016-10-09T08:22:33.000Z</time>
      </trkpt>
      <trkpt lat="47.45241" lon="6.79131">
        <ele>333</ele>
        <time>2016-10-09T08:22:34.000Z</time>
      </trkpt>
      <trkpt lat="47.45237" lon="6.79132">
        <ele>333</ele>
        <time>2016-10-09T08:22:35.000Z</time>
      </trkpt>
      <trkpt lat="47.45233" lon="6.79133">
        <ele>333</ele>
        <time>2016-10-09T08:22:36.000Z</time>
      </trkpt>
      <trkpt lat="47.4523" lon="6.79135">
        <ele>333</ele>
        <time>2016-10-09T08:22:37.000Z</time>
      </trkpt>
      <trkpt lat="47.45228" lon="6.79137">
        <ele>333</ele>
        <time>2016-10-09T08:22:38.000Z</time>
      </trkpt>
      <trkpt lat="47.45226" lon="6.7914">
        <ele>333</ele>
        <time>2016-10-09T08:22:39.000Z</time>
      </trkpt>
      <trkpt lat="47.45225" lon="6.79144">
        <ele>333</ele>
        <time>2016-10-09T08:22:40.000Z</time>
      </trkpt>
      <trkpt lat="47.45224" lon="6.79149">
        <ele>333</ele>
        <time>2016-10-09T08:22:41.000Z</time>
      </trkpt>
      <trkpt lat="47.45224" lon="6.79155">
        <ele>333</ele>
        <time>2016-10-09T08:22:42.000Z</time>
      </trkpt>
      <trkpt lat="47.45223" lon="6.79161">
        <ele>333</ele>
        <time>2016-10-09T08:22:43.000Z</time>
      </trkpt>
      <trkpt lat="47.45222" lon="6.79167">
        <ele>333</ele>
        <time>2016-10-09T08:22:44.000Z</time>
      </trkpt>
      <trkpt lat="47.45221" lon="6.79174">
        <ele>333</ele>
        <time>2016-10-09T08:22:45.000Z</time>
      </trkpt>
      <trkpt lat="47.45219" lon="6.79183">
        <ele>333</ele>
        <time>2016-10-09T08:22:46.000Z</time>
      </trkpt>
      <trkpt lat="47.45218" lon="6.79189">
        <ele>333</ele>
        <time>2016-10-09T08:22:47.000Z</time>
      </trkpt>
      <trkpt lat="47.45216" lon="6.79195">
        <ele>334</ele>
        <time>2016-10-09T08:22:48.000Z</time>
      </trkpt>
      <trkpt lat="47.45214" lon="6.79201">
        <ele>334</ele>
        <time>2016-10-09T08:22:49.000Z</time>
      </trkpt>
      <trkpt lat="47.45211" lon="6.79207">
        <ele>334</ele>
        <time>2016-10-09T08:22:50.000Z</time>
      </trkpt>
      <trkpt lat="47.45208" lon="6.79215">
        <ele>334</ele>
        <time>2016-10-09T08:22:51.000Z</time>
      </trkpt>
      <trkpt lat="47.45205" lon="6.79222">
        <ele>334</ele>
        <time>2016-10-09T08:22:52.000Z</time>
      </trkpt>
      <trkpt lat="47.45202" lon="6.79228">
        <ele>334</ele>
        <time>2016-10-09T08:22:53.000Z</time>
      </trkpt>
      <trkpt lat="47.45198" lon="6.79235">
        <ele>334</ele>
        <time>2016-10-09T08:22:54.000Z</time>
      </trkpt>
      <trkpt lat="47.45195" lon="6.79242">
        <ele>334</ele>
        <time>2016-10-09T08:22:55.000Z</time>
      </trkpt>
      <trkpt lat="47.45194" lon="6.7925">
        <ele>334</ele>
        <time>2016-10-09T08:22:56.000Z</time>
      </trkpt>
      <trkpt lat="47.45192" lon="6.79257">
        <ele>335</ele>
        <time>2016-10-09T08:22:57.000Z</time>
      </trkpt>
      <trkpt lat="47.45191" lon="6.79265">
        <ele>335</ele>
        <time>2016-10-09T08:22:58.000Z</time>
      </trkpt>
      <trkpt lat="47.45189" lon="6.79273">
        <ele>335</ele>
        <time>2016-10-09T08:22:59.000Z</time>
      </trkpt>
      <trkpt lat="47.45187" lon="6.79281">
        <ele>334</ele>
        <time>2016-10-09T08:23:00.000Z</time>
      </trkpt>
      <trkpt lat="47.45185" lon="6.79288">
        <ele>334</ele>
        <time>2016-10-09T08:23:01.000Z</time>
      </trkpt>
      <trkpt lat="47.45182" lon="6.79296">
        <ele>334</ele>
        <time>2016-10-09T08:23:02.000Z</time>
      </trkpt>
      <trkpt lat="47.4518" lon="6.79305">
        <ele>334</ele>
        <time>2016-10-09T08:23:03.000Z</time>
      </trkpt>
      <trkpt lat="47.45177" lon="6.79314">
        <ele>334</ele>
        <time>2016-10-09T08:23:04.000Z</time>
      </trkpt>
      <trkpt lat="47.45176" lon="6.79322">
        <ele>335</ele>
        <time>2016-10-09T08:23:05.000Z</time>
      </trkpt>
      <trkpt lat="47.45175" lon="6.7933">
        <ele>335</ele>
        <time>2016-10-09T08:23:06.000Z</time>
      </trkpt>
      <trkpt lat="47.45173" lon="6.79339">
        <ele>334</ele>
        <time>2016-10-09T08:23:07.000Z</time>
      </trkpt>
      <trkpt lat="47.45171" lon="6.79347">
        <ele>334</ele>
        <time>2016-10-09T08:23:08.000Z</time>
      </trkpt>
      <trkpt lat="47.45169" lon="6.79355">
        <ele>334</ele>
        <time>2016-10-09T08:23:09.000Z</time>
      </trkpt>
      <trkpt lat="47.45169" lon="6.79362">
        <ele>334</ele>
        <time>2016-10-09T08:23:10.000Z</time>
      </trkpt>
      <trkpt lat="47.45167" lon="6.7937">
        <ele>333</ele>
        <time>2016-10-09T08:23:11.000Z</time>
      </trkpt>
      <trkpt lat="47.45166" lon="6.79378">
        <ele>334</ele>
        <time>2016-10-09T08:23:12.000Z</time>
      </trkpt>
      <trkpt lat="47.45164" lon="6.79387">
        <ele>334</ele>
        <time>2016-10-09T08:23:13.000Z</time>
      </trkpt>
      <trkpt lat="47.45161" lon="6.79394">
        <ele>334</ele>
        <time>2016-10-09T08:23:14.000Z</time>
      </trkpt>
      <trkpt lat="47.4516" lon="6.79402">
        <ele>333</ele>
        <time>2016-10-09T08:23:15.000Z</time>
      </trkpt>
      <trkpt lat="47.45158" lon="6.79408">
        <ele>333</ele>
        <time>2016-10-09T08:23:16.000Z</time>
      </trkpt>
      <trkpt lat="47.45156" lon="6.79416">
        <ele>333</ele>
        <time>2016-10-09T08:23:17.000Z</time>
      </trkpt>
      <trkpt lat="47.45155" lon="6.79423">
        <ele>333</ele>
        <time>2016-10-09T08:23:18.000Z</time>
      </trkpt>
      <trkpt lat="47.45153" lon="6.7943">
        <ele>333</ele>
        <time>2016-10-09T08:23:19.000Z</time>
      </trkpt>
      <trkpt lat="47.45151" lon="6.79436">
        <ele>333</ele>
        <time>2016-10-09T08:23:20.000Z</time>
      </trkpt>
      <trkpt lat="47.4515" lon="6.79442">
        <ele>333</ele>
        <time>2016-10-09T08:23:21.000Z</time>
      </trkpt>
      <trkpt lat="47.45148" lon="6.79449">
        <ele>333</ele>
        <time>2016-10-09T08:23:22.000Z</time>
      </trkpt>
      <trkpt lat="47.45145" lon="6.79457">
        <ele>333</ele>
        <time>2016-10-09T08:23:23.000Z</time>
      </trkpt>
      <trkpt lat="47.45144" lon="6.79465">
        <ele>333</ele>
        <time>2016-10-09T08:23:24.000Z</time>
      </trkpt>
      <trkpt lat="47.45143" lon="6.79472">
        <ele>333</ele>
        <time>2016-10-09T08:23:25.000Z</time>
      </trkpt>
      <trkpt lat="47.45142" lon="6.79479">
        <ele>333</ele>
        <time>2016-10-09T08:23:26.097Z</time>
      </trkpt>
      <trkpt lat="47.4514" lon="6.79486">
        <ele>333</ele>
        <time>2016-10-09T08:23:27.000Z</time>
      </trkpt>
      <trkpt lat="47.45138" lon="6.79494">
        <ele>333</ele>
        <time>2016-10-09T08:23:28.000Z</time>
      </trkpt>
      <trkpt lat="47.45137" lon="6.79501">
        <ele>333</ele>
        <time>2016-10-09T08:23:29.000Z</time>
      </trkpt>
      <trkpt lat="47.45136" lon="6.79508">
        <ele>333</ele>
        <time>2016-10-09T08:23:30.000Z</time>
      </trkpt>
      <trkpt lat="47.45134" lon="6.79515">
        <ele>333</ele>
        <time>2016-10-09T08:23:31.000Z</time>
      </trkpt>
      <trkpt lat="47.45133" lon="6.79521">
        <ele>333</ele>
        <time>2016-10-09T08:23:32.000Z</time>
      </trkpt>
      <trkpt lat="47.45131" lon="6.79528">
        <ele>333</ele>
        <time>2016-10-09T08:23:33.000Z</time>
      </trkpt>
      <trkpt lat="47.45127" lon="6.79535">
        <ele>333</ele>
        <time>2016-10-09T08:23:34.000Z</time>
      </trkpt>
      <trkpt lat="47.45122" lon="6.79541">
        <ele>333</ele>
        <time>2016-10-09T08:23:35.000Z</time>
      </trkpt>
      <trkpt lat="47.45117" lon="6.79548">
        <ele>333</ele>
        <time>2016-10-09T08:23:36.000Z</time>
      </trkpt>
      <trkpt lat="47.45111" lon="6.79554">
        <ele>333</ele>
        <time>2016-10-09T08:23:37.000Z</time>
      </trkpt>
      <trkpt lat="47.45108" lon="6.7956">
        <ele>333</ele>
        <time>2016-10-09T08:23:38.000Z</time>
      </trkpt>
      <trkpt lat="47.45104" lon="6.79567">
        <ele>333</ele>
        <time>2016-10-09T08:23:39.000Z</time>
      </trkpt>
      <trkpt lat="47.451" lon="6.79572">
        <ele>333</ele>
        <time>2016-10-09T08:23:40.000Z</time>
      </trkpt>
      <trkpt lat="47.45096" lon="6.79577">
        <ele>333</ele>
        <time>2016-10-09T08:23:41.000Z</time>
      </trkpt>
      <trkpt lat="47.45091" lon="6.79583">
        <ele>333</ele>
        <time>2016-10-09T08:23:42.000Z</time>
      </trkpt>
      <trkpt lat="47.45087" lon="6.79587">
        <ele>333</ele>
        <time>2016-10-09T08:23:43.000Z</time>
      </trkpt>
      <trkpt lat="47.45084" lon="6.79592">
        <ele>333</ele>
        <time>2016-10-09T08:23:44.000Z</time>
      </trkpt>
      <trkpt lat="47.4508" lon="6.79596">
        <ele>334</ele>
        <time>2016-10-09T08:23:45.000Z</time>
      </trkpt>
      <trkpt lat="47.45078" lon="6.796">
        <ele>334</ele>
        <time>2016-10-09T08:23:46.000Z</time>
      </trkpt>
      <trkpt lat="47.45074" lon="6.79605">
        <ele>334</ele>
        <time>2016-10-09T08:23:47.000Z</time>
      </trkpt>
      <trkpt lat="47.4507" lon="6.79609">
        <ele>334</ele>
        <time>2016-10-09T08:23:48.000Z</time>
      </trkpt>
      <trkpt lat="47.45067" lon="6.79613">
        <ele>334</ele>
        <time>2016-10-09T08:23:49.000Z</time>
      </trkpt>
      <trkpt lat="47.45064" lon="6.79616">
        <ele>334</ele>
        <time>2016-10-09T08:23:50.000Z</time>
      </trkpt>
      <trkpt lat="47.45061" lon="6.79619">
        <ele>334</ele>
        <time>2016-10-09T08:23:51.000Z</time>
      </trkpt>
      <trkpt lat="47.45059" lon="6.79621">
        <ele>334</ele>
        <time>2016-10-09T08:23:52.000Z</time>
      </trkpt>
      <trkpt lat="47.45057" lon="6.79624">
        <ele>334</ele>
        <time>2016-10-09T08:23:54.000Z</time>
      </trkpt>
      <trkpt lat="47.45055" lon="6.79627">
        <ele>334</ele>
        <time>2016-10-09T08:23:55.000Z</time>
      </trkpt>
      <trkpt lat="47.45055" lon="6.7963">
        <ele>335</ele>
        <time>2016-10-09T08:23:56.000Z</time>
      </trkpt>
      <trkpt lat="47.45055" lon="6.79634">
        <ele>335</ele>
        <time>2016-10-09T08:23:57.000Z</time>
      </trkpt>
      <trkpt lat="47.45054" lon="6.79637">
        <ele>335</ele>
        <time>2016-10-09T08:23:58.000Z</time>
      </trkpt>
      <trkpt lat="47.45054" lon="6.79641">
        <ele>335</ele>
        <time>2016-10-09T08:23:59.000Z</time>
      </trkpt>
      <trkpt lat="47.45054" lon="6.79645">
        <ele>335</ele>
        <time>2016-10-09T08:24:00.000Z</time>
      </trkpt>
      <trkpt lat="47.45054" lon="6.79649">
        <ele>335</ele>
        <time>2016-10-09T08:24:01.000Z</time>
      </trkpt>
      <trkpt lat="47.45053" lon="6.79653">
        <ele>335</ele>
        <time>2016-10-09T08:24:02.000Z</time>
      </trkpt>
      <trkpt lat="47.45052" lon="6.79657">
        <ele>335</ele>
        <time>2016-10-09T08:24:03.000Z</time>
      </trkpt>
      <trkpt lat="47.4505" lon="6.79662">
        <ele>335</ele>
        <time>2016-10-09T08:24:04.000Z</time>
      </trkpt>
      <trkpt lat="47.45049" lon="6.79666">
        <ele>335</ele>
        <time>2016-10-09T08:24:05.000Z</time>
      </trkpt>
      <trkpt lat="47.45048" lon="6.7967">
        <ele>338</ele>
        <time>2016-10-09T08:24:06.000Z</time>
      </trkpt>
      <trkpt lat="47.45047" lon="6.79673">
        <ele>338</ele>
        <time>2016-10-09T08:24:07.000Z</time>
      </trkpt>
      <trkpt lat="47.45047" lon="6.79677">
        <ele>338</ele>
        <time>2016-10-09T08:24:08.000Z</time>
      </trkpt>
      <trkpt lat="47.45047" lon="6.7968">
        <ele>338</ele>
        <time>2016-10-09T08:24:09.000Z</time>
      </trkpt>
      <trkpt lat="47.45046" lon="6.79686">
        <ele>338</ele>
        <time>2016-10-09T08:24:11.000Z</time>
      </trkpt>
      <trkpt lat="47.45046" lon="6.79688">
        <ele>338</ele>
        <time>2016-10-09T08:24:12.000Z</time>
      </trkpt>
      <trkpt lat="47.45046" lon="6.79694">
        <ele>338</ele>
        <time>2016-10-09T08:24:15.000Z</time>
      </trkpt>
      <trkpt lat="47.45046" lon="6.79696">
        <ele>338</ele>
        <time>2016-10-09T08:24:16.000Z</time>
      </trkpt>
      <trkpt lat="47.45046" lon="6.79702">
        <ele>339</ele>
        <time>2016-10-09T08:24:19.000Z</time>
      </trkpt>
      <trkpt lat="47.45046" lon="6.79704">
        <ele>339</ele>
        <time>2016-10-09T08:24:20.000Z</time>
      </trkpt>
      <trkpt lat="47.45046" lon="6.79709">
        <ele>339</ele>
        <time>2016-10-09T08:24:23.000Z</time>
      </trkpt>
      <trkpt lat="47.45046" lon="6.7971">
        <ele>339</ele>
        <time>2016-10-09T08:24:24.000Z</time>
      </trkpt>
      <trkpt lat="47.45043" lon="6.79714">
        <ele>339</ele>
        <time>2016-10-09T08:24:27.000Z</time>
      </trkpt>
      <trkpt lat="47.45041" lon="6.79715">
        <ele>339</ele>
        <time>2016-10-09T08:24:28.000Z</time>
      </trkpt>
      <trkpt lat="47.45037" lon="6.79715">
        <ele>339</ele>
        <time>2016-10-09T08:24:30.000Z</time>
      </trkpt>
      <trkpt lat="47.45035" lon="6.79714">
        <ele>339</ele>
        <time>2016-10-09T08:24:31.000Z</time>
      </trkpt>
      <trkpt lat="47.45031" lon="6.79713">
        <ele>339</ele>
        <time>2016-10-09T08:24:33.000Z</time>
      </trkpt>
      <trkpt lat="47.45029" lon="6.79713">
        <ele>339</ele>
        <time>2016-10-09T08:24:34.000Z</time>
      </trkpt>
      <trkpt lat="47.45025" lon="6.79711">
        <ele>340</ele>
        <time>2016-10-09T08:24:36.000Z</time>
      </trkpt>
      <trkpt lat="47.45024" lon="6.7971">
        <ele>340</ele>
        <time>2016-10-09T08:24:37.000Z</time>
      </trkpt>
      <trkpt lat="47.4502" lon="6.79708">
        <ele>339</ele>
        <time>2016-10-09T08:24:39.000Z</time>
      </trkpt>
      <trkpt lat="47.45019" lon="6.79707">
        <ele>339</ele>
        <time>2016-10-09T08:24:40.000Z</time>
      </trkpt>
      <trkpt lat="47.45016" lon="6.79705">
        <ele>339</ele>
        <time>2016-10-09T08:24:42.000Z</time>
      </trkpt>
      <trkpt lat="47.45014" lon="6.79705">
        <ele>339</ele>
        <time>2016-10-09T08:24:43.000Z</time>
      </trkpt>
      <trkpt lat="47.4501" lon="6.79703">
        <ele>339</ele>
        <time>2016-10-09T08:24:46.000Z</time>
      </trkpt>
      <trkpt lat="47.45009" lon="6.79703">
        <ele>339</ele>
        <time>2016-10-09T08:24:47.000Z</time>
      </trkpt>
      <trkpt lat="47.45005" lon="6.79701">
        <ele>339</ele>
        <time>2016-10-09T08:24:50.000Z</time>
      </trkpt>
      <trkpt lat="47.45004" lon="6.797">
        <ele>339</ele>
        <time>2016-10-09T08:24:51.000Z</time>
      </trkpt>
      <trkpt lat="47.45" lon="6.79699">
        <ele>342</ele>
        <time>2016-10-09T08:24:54.000Z</time>
      </trkpt>
      <trkpt lat="47.44998" lon="6.79697">
        <ele>342</ele>
        <time>2016-10-09T08:24:55.000Z</time>
      </trkpt>
      <trkpt lat="47.44995" lon="6.79695">
        <ele>342</ele>
        <time>2016-10-09T08:24:57.000Z</time>
      </trkpt>
      <trkpt lat="47.44993" lon="6.79694">
        <ele>342</ele>
        <time>2016-10-09T08:24:58.000Z</time>
      </trkpt>
      <trkpt lat="47.44989" lon="6.79692">
        <ele>342</ele>
        <time>2016-10-09T08:25:01.000Z</time>
      </trkpt>
      <trkpt lat="47.44988" lon="6.79691">
        <ele>342</ele>
        <time>2016-10-09T08:25:01.999Z</time>
      </trkpt>
      <trkpt lat="47.44984" lon="6.79691">
        <ele>342</ele>
        <time>2016-10-09T08:25:04.000Z</time>
      </trkpt>
      <trkpt lat="47.44982" lon="6.7969">
        <ele>342</ele>
        <time>2016-10-09T08:25:05.000Z</time>
      </trkpt>
      <trkpt lat="47.44978" lon="6.7969">
        <ele>342</ele>
        <time>2016-10-09T08:25:07.000Z</time>
      </trkpt>
      <trkpt lat="47.44976" lon="6.7969">
        <ele>342</ele>
        <time>2016-10-09T08:25:08.000Z</time>
      </trkpt>
      <trkpt lat="47.44973" lon="6.79692">
        <ele>342</ele>
        <time>2016-10-09T08:25:10.000Z</time>
      </trkpt>
      <trkpt lat="47.44971" lon="6.79692">
        <ele>342</ele>
        <time>2016-10-09T08:25:11.000Z</time>
      </trkpt>
      <trkpt lat="47.44968" lon="6.79696">
        <ele>343</ele>
        <time>2016-10-09T08:25:14.000Z</time>
      </trkpt>
      <trkpt lat="47.44967" lon="6.79699">
        <ele>343</ele>
        <time>2016-10-09T08:25:15.000Z</time>
      </trkpt>
      <trkpt lat="47.44966" lon="6.79703">
        <ele>343</ele>
        <time>2016-10-09T08:25:17.000Z</time>
      </trkpt>
      <trkpt lat="47.44965" lon="6.79705">
        <ele>343</ele>
        <time>2016-10-09T08:25:18.000Z</time>
      </trkpt>
      <trkpt lat="47.44963" lon="6.79709">
        <ele>344</ele>
        <time>2016-10-09T08:25:20.000Z</time>
      </trkpt>
      <trkpt lat="47.44962" lon="6.79712">
        <ele>344</ele>
        <time>2016-10-09T08:25:21.000Z</time>
      </trkpt>
      <trkpt lat="47.44959" lon="6.79716">
        <ele>344</ele>
        <time>2016-10-09T08:25:23.000Z</time>
      </trkpt>
      <trkpt lat="47.44957" lon="6.79718">
        <ele>344</ele>
        <time>2016-10-09T08:25:24.000Z</time>
      </trkpt>
      <trkpt lat="47.44954" lon="6.7972">
        <ele>344</ele>
        <time>2016-10-09T08:25:25.000Z</time>
      </trkpt>
      <trkpt lat="47.44951" lon="6.79722">
        <ele>345</ele>
        <time>2016-10-09T08:25:26.000Z</time>
      </trkpt>
      <trkpt lat="47.44949" lon="6.79723">
        <ele>345</ele>
        <time>2016-10-09T08:25:27.000Z</time>
      </trkpt>
      <trkpt lat="47.44946" lon="6.79724">
        <ele>345</ele>
        <time>2016-10-09T08:25:28.000Z</time>
      </trkpt>
      <trkpt lat="47.44942" lon="6.79726">
        <ele>345</ele>
        <time>2016-10-09T08:25:30.000Z</time>
      </trkpt>
      <trkpt lat="47.4494" lon="6.79727">
        <ele>345</ele>
        <time>2016-10-09T08:25:31.000Z</time>
      </trkpt>
      <trkpt lat="47.44938" lon="6.79728">
        <ele>346</ele>
        <time>2016-10-09T08:25:32.000Z</time>
      </trkpt>
      <trkpt lat="47.44935" lon="6.79729">
        <ele>346</ele>
        <time>2016-10-09T08:25:33.000Z</time>
      </trkpt>
      <trkpt lat="47.44933" lon="6.7973">
        <ele>346</ele>
        <time>2016-10-09T08:25:34.000Z</time>
      </trkpt>
      <trkpt lat="47.4493" lon="6.79731">
        <ele>346</ele>
        <time>2016-10-09T08:25:35.000Z</time>
      </trkpt>
      <trkpt lat="47.44928" lon="6.79733">
        <ele>347</ele>
        <time>2016-10-09T08:25:36.000Z</time>
      </trkpt>
      <trkpt lat="47.44925" lon="6.79735">
        <ele>347</ele>
        <time>2016-10-09T08:25:37.000Z</time>
      </trkpt>
      <trkpt lat="47.44922" lon="6.79737">
        <ele>347</ele>
        <time>2016-10-09T08:25:38.000Z</time>
      </trkpt>
      <trkpt lat="47.4492" lon="6.79738">
        <ele>348</ele>
        <time>2016-10-09T08:25:39.000Z</time>
      </trkpt>
      <trkpt lat="47.44917" lon="6.79739">
        <ele>348</ele>
        <time>2016-10-09T08:25:40.000Z</time>
      </trkpt>
      <trkpt lat="47.44914" lon="6.7974">
        <ele>349</ele>
        <time>2016-10-09T08:25:41.000Z</time>
      </trkpt>
      <trkpt lat="47.44912" lon="6.79741">
        <ele>349</ele>
        <time>2016-10-09T08:25:42.000Z</time>
      </trkpt>
      <trkpt lat="47.44909" lon="6.79741">
        <ele>349</ele>
        <time>2016-10-09T08:25:43.000Z</time>
      </trkpt>
      <trkpt lat="47.44907" lon="6.79742">
        <ele>349</ele>
        <time>2016-10-09T08:25:44.000Z</time>
      </trkpt>
      <trkpt lat="47.44904" lon="6.79743">
        <ele>348</ele>
        <time>2016-10-09T08:25:45.000Z</time>
      </trkpt>
      <trkpt lat="47.44901" lon="6.79743">
        <ele>348</ele>
        <time>2016-10-09T08:25:46.000Z</time>
      </trkpt>
      <trkpt lat="47.44898" lon="6.79743">
        <ele>348</ele>
        <time>2016-10-09T08:25:47.000Z</time>
      </trkpt>
      <trkpt lat="47.44895" lon="6.79743">
        <ele>348</ele>
        <time>2016-10-09T08:25:48.098Z</time>
      </trkpt>
      <trkpt lat="47.44892" lon="6.7974">
        <ele>348</ele>
        <time>2016-10-09T08:25:49.000Z</time>
      </trkpt>
      <trkpt lat="47.4489" lon="6.79738">
        <ele>348</ele>
        <time>2016-10-09T08:25:50.000Z</time>
      </trkpt>
      <trkpt lat="47.44887" lon="6.79735">
        <ele>348</ele>
        <time>2016-10-09T08:25:51.000Z</time>
      </trkpt>
      <trkpt lat="47.44884" lon="6.79733">
        <ele>347</ele>
        <time>2016-10-09T08:25:52.000Z</time>
      </trkpt>
      <trkpt lat="47.44882" lon="6.79731">
        <ele>347</ele>
        <time>2016-10-09T08:25:53.000Z</time>
      </trkpt>
      <trkpt lat="47.44879" lon="6.79729">
        <ele>347</ele>
        <time>2016-10-09T08:25:54.000Z</time>
      </trkpt>
      <trkpt lat="47.44876" lon="6.79728">
        <ele>347</ele>
        <time>2016-10-09T08:25:55.000Z</time>
      </trkpt>
      <trkpt lat="47.44874" lon="6.79727">
        <ele>347</ele>
        <time>2016-10-09T08:25:56.000Z</time>
      </trkpt>
      <trkpt lat="47.44871" lon="6.79725">
        <ele>347</ele>
        <time>2016-10-09T08:25:57.000Z</time>
      </trkpt>
      <trkpt lat="47.44868" lon="6.79724">
        <ele>347</ele>
        <time>2016-10-09T08:25:58.000Z</time>
      </trkpt>
      <trkpt lat="47.44864" lon="6.79723">
        <ele>347</ele>
        <time>2016-10-09T08:25:59.000Z</time>
      </trkpt>
      <trkpt lat="47.44861" lon="6.79722">
        <ele>347</ele>
        <time>2016-10-09T08:26:00.000Z</time>
      </trkpt>
      <trkpt lat="47.44858" lon="6.7972">
        <ele>347</ele>
        <time>2016-10-09T08:26:01.000Z</time>
      </trkpt>
      <trkpt lat="47.44855" lon="6.79719">
        <ele>347</ele>
        <time>2016-10-09T08:26:02.000Z</time>
      </trkpt>
      <trkpt lat="47.44851" lon="6.79718">
        <ele>347</ele>
        <time>2016-10-09T08:26:03.000Z</time>
      </trkpt>
      <trkpt lat="47.44848" lon="6.79718">
        <ele>347</ele>
        <time>2016-10-09T08:26:04.000Z</time>
      </trkpt>
      <trkpt lat="47.44844" lon="6.79718">
        <ele>347</ele>
        <time>2016-10-09T08:26:05.000Z</time>
      </trkpt>
      <trkpt lat="47.4484" lon="6.79719">
        <ele>347</ele>
        <time>2016-10-09T08:26:06.000Z</time>
      </trkpt>
      <trkpt lat="47.44836" lon="6.7972">
        <ele>347</ele>
        <time>2016-10-09T08:26:07.000Z</time>
      </trkpt>
      <trkpt lat="47.44833" lon="6.79721">
        <ele>347</ele>
        <time>2016-10-09T08:26:08.000Z</time>
      </trkpt>
      <trkpt lat="47.44829" lon="6.79722">
        <ele>348</ele>
        <time>2016-10-09T08:26:09.000Z</time>
      </trkpt>
      <trkpt lat="47.44826" lon="6.79724">
        <ele>348</ele>
        <time>2016-10-09T08:26:10.000Z</time>
      </trkpt>
      <trkpt lat="47.44823" lon="6.79727">
        <ele>348</ele>
        <time>2016-10-09T08:26:11.000Z</time>
      </trkpt>
      <trkpt lat="47.44821" lon="6.7973">
        <ele>348</ele>
        <time>2016-10-09T08:26:12.000Z</time>
      </trkpt>
      <trkpt lat="47.4482" lon="6.79733">
        <ele>348</ele>
        <time>2016-10-09T08:26:13.000Z</time>
      </trkpt>
      <trkpt lat="47.4482" lon="6.79737">
        <ele>349</ele>
        <time>2016-10-09T08:26:14.000Z</time>
      </trkpt>
      <trkpt lat="47.44821" lon="6.79743">
        <ele>349</ele>
        <time>2016-10-09T08:26:15.000Z</time>
      </trkpt>
      <trkpt lat="47.44821" lon="6.79748">
        <ele>349</ele>
        <time>2016-10-09T08:26:16.000Z</time>
      </trkpt>
      <trkpt lat="47.44821" lon="6.79754">
        <ele>352</ele>
        <time>2016-10-09T08:26:17.000Z</time>
      </trkpt>
      <trkpt lat="47.4482" lon="6.79759">
        <ele>352</ele>
        <time>2016-10-09T08:26:18.000Z</time>
      </trkpt>
      <trkpt lat="47.4482" lon="6.79765">
        <ele>352</ele>
        <time>2016-10-09T08:26:19.000Z</time>
      </trkpt>
      <trkpt lat="47.44819" lon="6.7977">
        <ele>352</ele>
        <time>2016-10-09T08:26:20.000Z</time>
      </trkpt>
      <trkpt lat="47.44818" lon="6.79775">
        <ele>352</ele>
        <time>2016-10-09T08:26:21.000Z</time>
      </trkpt>
      <trkpt lat="47.44818" lon="6.7978">
        <ele>353</ele>
        <time>2016-10-09T08:26:22.000Z</time>
      </trkpt>
      <trkpt lat="47.44817" lon="6.79785">
        <ele>353</ele>
        <time>2016-10-09T08:26:23.000Z</time>
      </trkpt>
      <trkpt lat="47.44816" lon="6.79791">
        <ele>353</ele>
        <time>2016-10-09T08:26:24.000Z</time>
      </trkpt>
      <trkpt lat="47.44816" lon="6.79797">
        <ele>353</ele>
        <time>2016-10-09T08:26:25.000Z</time>
      </trkpt>
      <trkpt lat="47.44815" lon="6.79802">
        <ele>353</ele>
        <time>2016-10-09T08:26:26.000Z</time>
      </trkpt>
      <trkpt lat="47.44814" lon="6.79808">
        <ele>353</ele>
        <time>2016-10-09T08:26:27.000Z</time>
      </trkpt>
      <trkpt lat="47.44814" lon="6.79814">
        <ele>353</ele>
        <time>2016-10-09T08:26:28.000Z</time>
      </trkpt>
      <trkpt lat="47.44813" lon="6.79819">
        <ele>353</ele>
        <time>2016-10-09T08:26:29.000Z</time>
      </trkpt>
      <trkpt lat="47.44812" lon="6.79825">
        <ele>353</ele>
        <time>2016-10-09T08:26:30.000Z</time>
      </trkpt>
      <trkpt lat="47.44811" lon="6.79831">
        <ele>353</ele>
        <time>2016-10-09T08:26:31.000Z</time>
      </trkpt>
      <trkpt lat="47.4481" lon="6.79837">
        <ele>354</ele>
        <time>2016-10-09T08:26:32.000Z</time>
      </trkpt>
      <trkpt lat="47.44809" lon="6.79843">
        <ele>354</ele>
        <time>2016-10-09T08:26:33.000Z</time>
      </trkpt>
      <trkpt lat="47.44808" lon="6.79849">
        <ele>354</ele>
        <time>2016-10-09T08:26:34.000Z</time>
      </trkpt>
      <trkpt lat="47.44807" lon="6.79855">
        <ele>354</ele>
        <time>2016-10-09T08:26:35.000Z</time>
      </trkpt>
      <trkpt lat="47.44806" lon="6.79861">
        <ele>354</ele>
        <time>2016-10-09T08:26:36.000Z</time>
      </trkpt>
      <trkpt lat="47.44806" lon="6.79867">
        <ele>354</ele>
        <time>2016-10-09T08:26:37.000Z</time>
      </trkpt>
      <trkpt lat="47.44805" lon="6.79873">
        <ele>355</ele>
        <time>2016-10-09T08:26:38.098Z</time>
      </trkpt>
      <trkpt lat="47.44804" lon="6.79878">
        <ele>355</ele>
        <time>2016-10-09T08:26:39.000Z</time>
      </trkpt>
      <trkpt lat="47.44802" lon="6.79883">
        <ele>355</ele>
        <time>2016-10-09T08:26:40.000Z</time>
      </trkpt>
      <trkpt lat="47.44801" lon="6.79888">
        <ele>355</ele>
        <time>2016-10-09T08:26:41.000Z</time>
      </trkpt>
      <trkpt lat="47.44801" lon="6.79893">
        <ele>355</ele>
        <time>2016-10-09T08:26:42.000Z</time>
      </trkpt>
      <trkpt lat="47.448" lon="6.79899">
        <ele>355</ele>
        <time>2016-10-09T08:26:43.000Z</time>
      </trkpt>
      <trkpt lat="47.44799" lon="6.79904">
        <ele>355</ele>
        <time>2016-10-09T08:26:44.000Z</time>
      </trkpt>
      <trkpt lat="47.44799" lon="6.79909">
        <ele>355</ele>
        <time>2016-10-09T08:26:45.000Z</time>
      </trkpt>
      <trkpt lat="47.44799" lon="6.79914">
        <ele>355</ele>
        <time>2016-10-09T08:26:46.000Z</time>
      </trkpt>
      <trkpt lat="47.44798" lon="6.79919">
        <ele>355</ele>
        <time>2016-10-09T08:26:47.000Z</time>
      </trkpt>
      <trkpt lat="47.44798" lon="6.79924">
        <ele>355</ele>
        <time>2016-10-09T08:26:48.000Z</time>
      </trkpt>
      <trkpt lat="47.44797" lon="6.79929">
        <ele>356</ele>
        <time>2016-10-09T08:26:49.000Z</time>
      </trkpt>
      <trkpt lat="47.44797" lon="6.79933">
        <ele>356</ele>
        <time>2016-10-09T08:26:50.000Z</time>
      </trkpt>
      <trkpt lat="47.44796" lon="6.79938">
        <ele>356</ele>
        <time>2016-10-09T08:26:51.000Z</time>
      </trkpt>
      <trkpt lat="47.44796" lon="6.79939">
        <ele>356</ele>
        <time>2016-10-09T08:26:51.102Z</time>
      </trkpt>
      <trkpt lat="47.44795" lon="6.79948">
        <ele>356</ele>
        <time>2016-10-09T08:26:53.000Z</time>
      </trkpt>
      <trkpt lat="47.44795" lon="6.79952">
        <ele>356</ele>
        <time>2016-10-09T08:26:54.000Z</time>
      </trkpt>
      <trkpt lat="47.44794" lon="6.79957">
        <ele>356</ele>
        <time>2016-10-09T08:26:55.000Z</time>
      </trkpt>
      <trkpt lat="47.44794" lon="6.79961">
        <ele>356</ele>
        <time>2016-10-09T08:26:56.000Z</time>
      </trkpt>
      <trkpt lat="47.44793" lon="6.79966">
        <ele>356</ele>
        <time>2016-10-09T08:26:57.000Z</time>
      </trkpt>
      <trkpt lat="47.44792" lon="6.7997">
        <ele>356</ele>
        <time>2016-10-09T08:26:58.000Z</time>
      </trkpt>
      <trkpt lat="47.44792" lon="6.79973">
        <ele>356</ele>
        <time>2016-10-09T08:26:59.000Z</time>
      </trkpt>
      <trkpt lat="47.4479" lon="6.79978">
        <ele>356</ele>
        <time>2016-10-09T08:27:01.000Z</time>
      </trkpt>
      <trkpt lat="47.44788" lon="6.79979">
        <ele>356</ele>
        <time>2016-10-09T08:27:02.000Z</time>
      </trkpt>
      <trkpt lat="47.44785" lon="6.79978">
        <ele>356</ele>
        <time>2016-10-09T08:27:03.000Z</time>
      </trkpt>
      <trkpt lat="47.44781" lon="6.79976">
        <ele>356</ele>
        <time>2016-10-09T08:27:04.000Z</time>
      </trkpt>
      <trkpt lat="47.44777" lon="6.79976">
        <ele>356</ele>
        <time>2016-10-09T08:27:05.000Z</time>
      </trkpt>
      <trkpt lat="47.44773" lon="6.79975">
        <ele>356</ele>
        <time>2016-10-09T08:27:06.000Z</time>
      </trkpt>
      <trkpt lat="47.44769" lon="6.79975">
        <ele>356</ele>
        <time>2016-10-09T08:27:07.000Z</time>
      </trkpt>
      <trkpt lat="47.44765" lon="6.79975">
        <ele>356</ele>
        <time>2016-10-09T08:27:08.000Z</time>
      </trkpt>
      <trkpt lat="47.44762" lon="6.79975">
        <ele>357</ele>
        <time>2016-10-09T08:27:09.000Z</time>
      </trkpt>
      <trkpt lat="47.44758" lon="6.79974">
        <ele>357</ele>
        <time>2016-10-09T08:27:10.000Z</time>
      </trkpt>
      <trkpt lat="47.44755" lon="6.79974">
        <ele>357</ele>
        <time>2016-10-09T08:27:11.000Z</time>
      </trkpt>
      <trkpt lat="47.44752" lon="6.79974">
        <ele>357</ele>
        <time>2016-10-09T08:27:12.000Z</time>
      </trkpt>
      <trkpt lat="47.44749" lon="6.79974">
        <ele>358</ele>
        <time>2016-10-09T08:27:13.000Z</time>
      </trkpt>
      <trkpt lat="47.44746" lon="6.79974">
        <ele>358</ele>
        <time>2016-10-09T08:27:14.000Z</time>
      </trkpt>
      <trkpt lat="47.44743" lon="6.79974">
        <ele>359</ele>
        <time>2016-10-09T08:27:15.000Z</time>
      </trkpt>
      <trkpt lat="47.44741" lon="6.79974">
        <ele>359</ele>
        <time>2016-10-09T08:27:16.000Z</time>
      </trkpt>
      <trkpt lat="47.44738" lon="6.79974">
        <ele>359</ele>
        <time>2016-10-09T08:27:17.000Z</time>
      </trkpt>
      <trkpt lat="47.44735" lon="6.79974">
        <ele>359</ele>
        <time>2016-10-09T08:27:18.000Z</time>
      </trkpt>
      <trkpt lat="47.44732" lon="6.79973">
        <ele>359</ele>
        <time>2016-10-09T08:27:19.000Z</time>
      </trkpt>
      <trkpt lat="47.4473" lon="6.79973">
        <ele>359</ele>
        <time>2016-10-09T08:27:20.000Z</time>
      </trkpt>
      <trkpt lat="47.44727" lon="6.79972">
        <ele>359</ele>
        <time>2016-10-09T08:27:21.000Z</time>
      </trkpt>
      <trkpt lat="47.44724" lon="6.79971">
        <ele>359</ele>
        <time>2016-10-09T08:27:22.000Z</time>
      </trkpt>
      <trkpt lat="47.44722" lon="6.7997">
        <ele>359</ele>
        <time>2016-10-09T08:27:23.000Z</time>
      </trkpt>
      <trkpt lat="47.44719" lon="6.7997">
        <ele>359</ele>
        <time>2016-10-09T08:27:24.099Z</time>
      </trkpt>
      <trkpt lat="47.44716" lon="6.79969">
        <ele>359</ele>
        <time>2016-10-09T08:27:25.000Z</time>
      </trkpt>
      <trkpt lat="47.44713" lon="6.79968">
        <ele>359</ele>
        <time>2016-10-09T08:27:26.000Z</time>
      </trkpt>
      <trkpt lat="47.4471" lon="6.79968">
        <ele>359</ele>
        <time>2016-10-09T08:27:27.000Z</time>
      </trkpt>
      <trkpt lat="47.44708" lon="6.79967">
        <ele>359</ele>
        <time>2016-10-09T08:27:28.000Z</time>
      </trkpt>
      <trkpt lat="47.44705" lon="6.79966">
        <ele>359</ele>
        <time>2016-10-09T08:27:29.000Z</time>
      </trkpt>
      <trkpt lat="47.44702" lon="6.79966">
        <ele>359</ele>
        <time>2016-10-09T08:27:30.000Z</time>
      </trkpt>
      <trkpt lat="47.44699" lon="6.79965">
        <ele>359</ele>
        <time>2016-10-09T08:27:31.000Z</time>
      </trkpt>
      <trkpt lat="47.44696" lon="6.79964">
        <ele>359</ele>
        <time>2016-10-09T08:27:32.000Z</time>
      </trkpt>
      <trkpt lat="47.44694" lon="6.79964">
        <ele>359</ele>
        <time>2016-10-09T08:27:33.000Z</time>
      </trkpt>
      <trkpt lat="47.44691" lon="6.79964">
        <ele>359</ele>
        <time>2016-10-09T08:27:34.000Z</time>
      </trkpt>
      <trkpt lat="47.44688" lon="6.79963">
        <ele>359</ele>
        <time>2016-10-09T08:27:35.000Z</time>
      </trkpt>
      <trkpt lat="47.44685" lon="6.79963">
        <ele>359</ele>
        <time>2016-10-09T08:27:36.000Z</time>
      </trkpt>
      <trkpt lat="47.44683" lon="6.79963">
        <ele>359</ele>
        <time>2016-10-09T08:27:37.000Z</time>
      </trkpt>
      <trkpt lat="47.4468" lon="6.79962">
        <ele>359</ele>
        <time>2016-10-09T08:27:38.000Z</time>
      </trkpt>
      <trkpt lat="47.44677" lon="6.79962">
        <ele>359</ele>
        <time>2016-10-09T08:27:39.000Z</time>
      </trkpt>
      <trkpt lat="47.44675" lon="6.79961">
        <ele>359</ele>
        <time>2016-10-09T08:27:40.000Z</time>
      </trkpt>
      <trkpt lat="47.44672" lon="6.79961">
        <ele>360</ele>
        <time>2016-10-09T08:27:41.000Z</time>
      </trkpt>
      <trkpt lat="47.44669" lon="6.79961">
        <ele>360</ele>
        <time>2016-10-09T08:27:42.097Z</time>
      </trkpt>
      <trkpt lat="47.44667" lon="6.7996">
        <ele>360</ele>
        <time>2016-10-09T08:27:43.000Z</time>
      </trkpt>
      <trkpt lat="47.44664" lon="6.79959">
        <ele>361</ele>
        <time>2016-10-09T08:27:44.000Z</time>
      </trkpt>
      <trkpt lat="47.44661" lon="6.79959">
        <ele>361</ele>
        <time>2016-10-09T08:27:45.000Z</time>
      </trkpt>
      <trkpt lat="47.44658" lon="6.79958">
        <ele>361</ele>
        <time>2016-10-09T08:27:46.000Z</time>
      </trkpt>
      <trkpt lat="47.44655" lon="6.79957">
        <ele>361</ele>
        <time>2016-10-09T08:27:47.000Z</time>
      </trkpt>
      <trkpt lat="47.44652" lon="6.79956">
        <ele>361</ele>
        <time>2016-10-09T08:27:48.000Z</time>
      </trkpt>
      <trkpt lat="47.44649" lon="6.79956">
        <ele>361</ele>
        <time>2016-10-09T08:27:49.000Z</time>
      </trkpt>
      <trkpt lat="47.44647" lon="6.79955">
        <ele>361</ele>
        <time>2016-10-09T08:27:50.000Z</time>
      </trkpt>
      <trkpt lat="47.44644" lon="6.79954">
        <ele>361</ele>
        <time>2016-10-09T08:27:51.000Z</time>
      </trkpt>
      <trkpt lat="47.44641" lon="6.79954">
        <ele>362</ele>
        <time>2016-10-09T08:27:52.000Z</time>
      </trkpt>
      <trkpt lat="47.44639" lon="6.79953">
        <ele>362</ele>
        <time>2016-10-09T08:27:53.000Z</time>
      </trkpt>
      <trkpt lat="47.44636" lon="6.79952">
        <ele>362</ele>
        <time>2016-10-09T08:27:54.000Z</time>
      </trkpt>
      <trkpt lat="47.44633" lon="6.79951">
        <ele>362</ele>
        <time>2016-10-09T08:27:55.102Z</time>
      </trkpt>
      <trkpt lat="47.44627" lon="6.7995">
        <ele>362</ele>
        <time>2016-10-09T08:27:57.000Z</time>
      </trkpt>
      <trkpt lat="47.44624" lon="6.79949">
        <ele>362</ele>
        <time>2016-10-09T08:27:58.000Z</time>
      </trkpt>
      <trkpt lat="47.44621" lon="6.79948">
        <ele>362</ele>
        <time>2016-10-09T08:27:59.000Z</time>
      </trkpt>
      <trkpt lat="47.44618" lon="6.79947">
        <ele>362</ele>
        <time>2016-10-09T08:28:00.000Z</time>
      </trkpt>
      <trkpt lat="47.44615" lon="6.79945">
        <ele>362</ele>
        <time>2016-10-09T08:28:01.000Z</time>
      </trkpt>
      <trkpt lat="47.44612" lon="6.79944">
        <ele>362</ele>
        <time>2016-10-09T08:28:02.000Z</time>
      </trkpt>
      <trkpt lat="47.44608" lon="6.79943">
        <ele>362</ele>
        <time>2016-10-09T08:28:03.000Z</time>
      </trkpt>
      <trkpt lat="47.44605" lon="6.79942">
        <ele>362</ele>
        <time>2016-10-09T08:28:04.000Z</time>
      </trkpt>
      <trkpt lat="47.44602" lon="6.79941">
        <ele>362</ele>
        <time>2016-10-09T08:28:05.000Z</time>
      </trkpt>
      <trkpt lat="47.44598" lon="6.7994">
        <ele>362</ele>
        <time>2016-10-09T08:28:06.000Z</time>
      </trkpt>
      <trkpt lat="47.44595" lon="6.79939">
        <ele>362</ele>
        <time>2016-10-09T08:28:07.000Z</time>
      </trkpt>
      <trkpt lat="47.44592" lon="6.79938">
        <ele>362</ele>
        <time>2016-10-09T08:28:08.000Z</time>
      </trkpt>
      <trkpt lat="47.44589" lon="6.79936">
        <ele>362</ele>
        <time>2016-10-09T08:28:09.000Z</time>
      </trkpt>
      <trkpt lat="47.44586" lon="6.79935">
        <ele>362</ele>
        <time>2016-10-09T08:28:10.000Z</time>
      </trkpt>
      <trkpt lat="47.44583" lon="6.79934">
        <ele>364</ele>
        <time>2016-10-09T08:28:11.000Z</time>
      </trkpt>
      <trkpt lat="47.4458" lon="6.79933">
        <ele>364</ele>
        <time>2016-10-09T08:28:12.000Z</time>
      </trkpt>
      <trkpt lat="47.44577" lon="6.79932">
        <ele>364</ele>
        <time>2016-10-09T08:28:13.000Z</time>
      </trkpt>
      <trkpt lat="47.44573" lon="6.79931">
        <ele>364</ele>
        <time>2016-10-09T08:28:14.100Z</time>
      </trkpt>
      <trkpt lat="47.4457" lon="6.79931">
        <ele>364</ele>
        <time>2016-10-09T08:28:15.000Z</time>
      </trkpt>
      <trkpt lat="47.44567" lon="6.7993">
        <ele>364</ele>
        <time>2016-10-09T08:28:16.000Z</time>
      </trkpt>
      <trkpt lat="47.44564" lon="6.79929">
        <ele>364</ele>
        <time>2016-10-09T08:28:17.000Z</time>
      </trkpt>
      <trkpt lat="47.44561" lon="6.79928">
        <ele>364</ele>
        <time>2016-10-09T08:28:18.000Z</time>
      </trkpt>
      <trkpt lat="47.44558" lon="6.79927">
        <ele>364</ele>
        <time>2016-10-09T08:28:19.000Z</time>
      </trkpt>
      <trkpt lat="47.44554" lon="6.79926">
        <ele>364</ele>
        <time>2016-10-09T08:28:20.000Z</time>
      </trkpt>
      <trkpt lat="47.44551" lon="6.79925">
        <ele>364</ele>
        <time>2016-10-09T08:28:21.000Z</time>
      </trkpt>
      <trkpt lat="47.44548" lon="6.79923">
        <ele>364</ele>
        <time>2016-10-09T08:28:22.000Z</time>
      </trkpt>
      <trkpt lat="47.44545" lon="6.79922">
        <ele>364</ele>
        <time>2016-10-09T08:28:23.000Z</time>
      </trkpt>
      <trkpt lat="47.44542" lon="6.7992">
        <ele>364</ele>
        <time>2016-10-09T08:28:24.000Z</time>
      </trkpt>
      <trkpt lat="47.44539" lon="6.79919">
        <ele>364</ele>
        <time>2016-10-09T08:28:25.000Z</time>
      </trkpt>
      <trkpt lat="47.44536" lon="6.79918">
        <ele>365</ele>
        <time>2016-10-09T08:28:26.000Z</time>
      </trkpt>
      <trkpt lat="47.44533" lon="6.79917">
        <ele>365</ele>
        <time>2016-10-09T08:28:27.000Z</time>
      </trkpt>
      <trkpt lat="47.4453" lon="6.79916">
        <ele>365</ele>
        <time>2016-10-09T08:28:28.000Z</time>
      </trkpt>
      <trkpt lat="47.44527" lon="6.79915">
        <ele>365</ele>
        <time>2016-10-09T08:28:29.000Z</time>
      </trkpt>
      <trkpt lat="47.44524" lon="6.79914">
        <ele>365</ele>
        <time>2016-10-09T08:28:30.000Z</time>
      </trkpt>
      <trkpt lat="47.44521" lon="6.79914">
        <ele>365</ele>
        <time>2016-10-09T08:28:31.000Z</time>
      </trkpt>
      <trkpt lat="47.44518" lon="6.79914">
        <ele>365</ele>
        <time>2016-10-09T08:28:32.000Z</time>
      </trkpt>
      <trkpt lat="47.44515" lon="6.79913">
        <ele>366</ele>
        <time>2016-10-09T08:28:33.000Z</time>
      </trkpt>
      <trkpt lat="47.44512" lon="6.79914">
        <ele>366</ele>
        <time>2016-10-09T08:28:34.000Z</time>
      </trkpt>
      <trkpt lat="47.4451" lon="6.79914">
        <ele>366</ele>
        <time>2016-10-09T08:28:35.000Z</time>
      </trkpt>
      <trkpt lat="47.44507" lon="6.79914">
        <ele>366</ele>
        <time>2016-10-09T08:28:36.000Z</time>
      </trkpt>
      <trkpt lat="47.44505" lon="6.79914">
        <ele>366</ele>
        <time>2016-10-09T08:28:37.000Z</time>
      </trkpt>
      <trkpt lat="47.44502" lon="6.79914">
        <ele>366</ele>
        <time>2016-10-09T08:28:38.000Z</time>
      </trkpt>
      <trkpt lat="47.445" lon="6.79914">
        <ele>367</ele>
        <time>2016-10-09T08:28:39.000Z</time>
      </trkpt>
      <trkpt lat="47.44496" lon="6.79913">
        <ele>367</ele>
        <time>2016-10-09T08:28:41.000Z</time>
      </trkpt>
      <trkpt lat="47.44494" lon="6.79913">
        <ele>367</ele>
        <time>2016-10-09T08:28:42.000Z</time>
      </trkpt>
      <trkpt lat="47.44489" lon="6.79912">
        <ele>368</ele>
        <time>2016-10-09T08:28:44.000Z</time>
      </trkpt>
      <trkpt lat="47.44487" lon="6.79912">
        <ele>368</ele>
        <time>2016-10-09T08:28:45.000Z</time>
      </trkpt>
      <trkpt lat="47.44485" lon="6.79912">
        <ele>369</ele>
        <time>2016-10-09T08:28:46.100Z</time>
      </trkpt>
      <trkpt lat="47.44483" lon="6.79911">
        <ele>369</ele>
        <time>2016-10-09T08:28:47.000Z</time>
      </trkpt>
      <trkpt lat="47.44478" lon="6.79909">
        <ele>369</ele>
        <time>2016-10-09T08:28:49.000Z</time>
      </trkpt>
      <trkpt lat="47.44476" lon="6.79908">
        <ele>370</ele>
        <time>2016-10-09T08:28:50.000Z</time>
      </trkpt>
      <trkpt lat="47.44472" lon="6.79906">
        <ele>370</ele>
        <time>2016-10-09T08:28:52.000Z</time>
      </trkpt>
      <trkpt lat="47.44471" lon="6.79905">
        <ele>370</ele>
        <time>2016-10-09T08:28:53.000Z</time>
      </trkpt>
      <trkpt lat="47.44466" lon="6.79903">
        <ele>371</ele>
        <time>2016-10-09T08:28:55.000Z</time>
      </trkpt>
      <trkpt lat="47.44464" lon="6.79902">
        <ele>371</ele>
        <time>2016-10-09T08:28:56.000Z</time>
      </trkpt>
      <trkpt lat="47.4446" lon="6.79901">
        <ele>371</ele>
        <time>2016-10-09T08:28:58.000Z</time>
      </trkpt>
      <trkpt lat="47.44458" lon="6.799">
        <ele>371</ele>
        <time>2016-10-09T08:28:59.000Z</time>
      </trkpt>
      <trkpt lat="47.44455" lon="6.79898">
        <ele>371</ele>
        <time>2016-10-09T08:29:01.000Z</time>
      </trkpt>
      <trkpt lat="47.44453" lon="6.79897">
        <ele>372</ele>
        <time>2016-10-09T08:29:02.000Z</time>
      </trkpt>
      <trkpt lat="47.44449" lon="6.79895">
        <ele>372</ele>
        <time>2016-10-09T08:29:04.000Z</time>
      </trkpt>
      <trkpt lat="47.44447" lon="6.79894">
        <ele>372</ele>
        <time>2016-10-09T08:29:05.000Z</time>
      </trkpt>
      <trkpt lat="47.44443" lon="6.79893">
        <ele>372</ele>
        <time>2016-10-09T08:29:07.000Z</time>
      </trkpt>
      <trkpt lat="47.44441" lon="6.79892">
        <ele>372</ele>
        <time>2016-10-09T08:29:08.000Z</time>
      </trkpt>
      <trkpt lat="47.44438" lon="6.7989">
        <ele>372</ele>
        <time>2016-10-09T08:29:10.000Z</time>
      </trkpt>
      <trkpt lat="47.44436" lon="6.79889">
        <ele>372</ele>
        <time>2016-10-09T08:29:11.000Z</time>
      </trkpt>
      <trkpt lat="47.44433" lon="6.79888">
        <ele>373</ele>
        <time>2016-10-09T08:29:13.000Z</time>
      </trkpt>
      <trkpt lat="47.44431" lon="6.79887">
        <ele>373</ele>
        <time>2016-10-09T08:29:14.000Z</time>
      </trkpt>
      <trkpt lat="47.44427" lon="6.79885">
        <ele>373</ele>
        <time>2016-10-09T08:29:16.000Z</time>
      </trkpt>
      <trkpt lat="47.44425" lon="6.79884">
        <ele>373</ele>
        <time>2016-10-09T08:29:17.000Z</time>
      </trkpt>
      <trkpt lat="47.44422" lon="6.79882">
        <ele>373</ele>
        <time>2016-10-09T08:29:19.000Z</time>
      </trkpt>
      <trkpt lat="47.4442" lon="6.79881">
        <ele>373</ele>
        <time>2016-10-09T08:29:20.000Z</time>
      </trkpt>
      <trkpt lat="47.44416" lon="6.79879">
        <ele>381</ele>
        <time>2016-10-09T08:29:22.000Z</time>
      </trkpt>
      <trkpt lat="47.44414" lon="6.79879">
        <ele>381</ele>
        <time>2016-10-09T08:29:23.000Z</time>
      </trkpt>
      <trkpt lat="47.4441" lon="6.79876">
        <ele>381</ele>
        <time>2016-10-09T08:29:25.000Z</time>
      </trkpt>
      <trkpt lat="47.44408" lon="6.79876">
        <ele>381</ele>
        <time>2016-10-09T08:29:26.000Z</time>
      </trkpt>
      <trkpt lat="47.44404" lon="6.79875">
        <ele>381</ele>
        <time>2016-10-09T08:29:28.000Z</time>
      </trkpt>
      <trkpt lat="47.44402" lon="6.79874">
        <ele>381</ele>
        <time>2016-10-09T08:29:29.000Z</time>
      </trkpt>
      <trkpt lat="47.44399" lon="6.79872">
        <ele>382</ele>
        <time>2016-10-09T08:29:31.103Z</time>
      </trkpt>
      <trkpt lat="47.44395" lon="6.7987">
        <ele>382</ele>
        <time>2016-10-09T08:29:33.000Z</time>
      </trkpt>
      <trkpt lat="47.4439" lon="6.79868">
        <ele>382</ele>
        <time>2016-10-09T08:29:35.000Z</time>
      </trkpt>
      <trkpt lat="47.44388" lon="6.79867">
        <ele>382</ele>
        <time>2016-10-09T08:29:36.000Z</time>
      </trkpt>
      <trkpt lat="47.44386" lon="6.79862">
        <ele>383</ele>
        <time>2016-10-09T08:29:38.000Z</time>
      </trkpt>
      <trkpt lat="47.44386" lon="6.79858">
        <ele>383</ele>
        <time>2016-10-09T08:29:39.000Z</time>
      </trkpt>
      <trkpt lat="47.44386" lon="6.79855">
        <ele>383</ele>
        <time>2016-10-09T08:29:40.000Z</time>
      </trkpt>
      <trkpt lat="47.44387" lon="6.79852">
        <ele>382</ele>
        <time>2016-10-09T08:29:41.000Z</time>
      </trkpt>
      <trkpt lat="47.44386" lon="6.79846">
        <ele>382</ele>
        <time>2016-10-09T08:29:43.000Z</time>
      </trkpt>
      <trkpt lat="47.44386" lon="6.79844">
        <ele>382</ele>
        <time>2016-10-09T08:29:44.000Z</time>
      </trkpt>
      <trkpt lat="47.44388" lon="6.79839">
        <ele>382</ele>
        <time>2016-10-09T08:29:48.000Z</time>
      </trkpt>
      <trkpt lat="47.44388" lon="6.79838">
        <ele>382</ele>
        <time>2016-10-09T08:29:49.000Z</time>
      </trkpt>
      <trkpt lat="47.44389" lon="6.79833">
        <ele>384</ele>
        <time>2016-10-09T08:29:52.000Z</time>
      </trkpt>
      <trkpt lat="47.44389" lon="6.79831">
        <ele>384</ele>
        <time>2016-10-09T08:29:53.000Z</time>
      </trkpt>
      <trkpt lat="47.44391" lon="6.79826">
        <ele>384</ele>
        <time>2016-10-09T08:29:57.000Z</time>
      </trkpt>
      <trkpt lat="47.44391" lon="6.79824">
        <ele>384</ele>
        <time>2016-10-09T08:29:58.000Z</time>
      </trkpt>
      <trkpt lat="47.44393" lon="6.7982">
        <ele>384</ele>
        <time>2016-10-09T08:30:01.000Z</time>
      </trkpt>
      <trkpt lat="47.44393" lon="6.79818">
        <ele>384</ele>
        <time>2016-10-09T08:30:02.000Z</time>
      </trkpt>
      <trkpt lat="47.44393" lon="6.79813">
        <ele>384</ele>
        <time>2016-10-09T08:30:04.000Z</time>
      </trkpt>
      <trkpt lat="47.44393" lon="6.7981">
        <ele>384</ele>
        <time>2016-10-09T08:30:05.000Z</time>
      </trkpt>
      <trkpt lat="47.44394" lon="6.79805">
        <ele>385</ele>
        <time>2016-10-09T08:30:07.000Z</time>
      </trkpt>
      <trkpt lat="47.44394" lon="6.79803">
        <ele>385</ele>
        <time>2016-10-09T08:30:08.000Z</time>
      </trkpt>
      <trkpt lat="47.44394" lon="6.79798">
        <ele>385</ele>
        <time>2016-10-09T08:30:10.000Z</time>
      </trkpt>
      <trkpt lat="47.44393" lon="6.79795">
        <ele>386</ele>
        <time>2016-10-09T08:30:11.000Z</time>
      </trkpt>
      <trkpt lat="47.44391" lon="6.7979">
        <ele>386</ele>
        <time>2016-10-09T08:30:13.000Z</time>
      </trkpt>
      <trkpt lat="47.4439" lon="6.79789">
        <ele>386</ele>
        <time>2016-10-09T08:30:14.000Z</time>
      </trkpt>
      <trkpt lat="47.44386" lon="6.79789">
        <ele>387</ele>
        <time>2016-10-09T08:30:25.000Z</time>
      </trkpt>
      <trkpt lat="47.44385" lon="6.7979">
        <ele>387</ele>
        <time>2016-10-09T08:30:26.000Z</time>
      </trkpt>
      <trkpt lat="47.44382" lon="6.79794">
        <ele>387</ele>
        <time>2016-10-09T08:30:30.000Z</time>
      </trkpt>
      <trkpt lat="47.44381" lon="6.79796">
        <ele>387</ele>
        <time>2016-10-09T08:30:31.000Z</time>
      </trkpt>
      <trkpt lat="47.44379" lon="6.79801">
        <ele>387</ele>
        <time>2016-10-09T08:30:36.000Z</time>
      </trkpt>
      <trkpt lat="47.44379" lon="6.79803">
        <ele>387</ele>
        <time>2016-10-09T08:30:37.000Z</time>
      </trkpt>
      <trkpt lat="47.44376" lon="6.79808">
        <ele>387</ele>
        <time>2016-10-09T08:30:41.000Z</time>
      </trkpt>
      <trkpt lat="47.44376" lon="6.79809">
        <ele>387</ele>
        <time>2016-10-09T08:30:42.000Z</time>
      </trkpt>
      <trkpt lat="47.44373" lon="6.79813">
        <ele>387</ele>
        <time>2016-10-09T08:30:45.000Z</time>
      </trkpt>
      <trkpt lat="47.44372" lon="6.79814">
        <ele>388</ele>
        <time>2016-10-09T08:30:46.000Z</time>
      </trkpt>
      <trkpt lat="47.44369" lon="6.79816">
        <ele>388</ele>
        <time>2016-10-09T08:30:48.000Z</time>
      </trkpt>
      <trkpt lat="47.44367" lon="6.79817">
        <ele>388</ele>
        <time>2016-10-09T08:30:49.000Z</time>
      </trkpt>
      <trkpt lat="47.44364" lon="6.79819">
        <ele>389</ele>
        <time>2016-10-09T08:30:51.000Z</time>
      </trkpt>
      <trkpt lat="47.44363" lon="6.7982">
        <ele>389</ele>
        <time>2016-10-09T08:30:52.000Z</time>
      </trkpt>
      <trkpt lat="47.44362" lon="6.79827">
        <ele>389</ele>
        <time>2016-10-09T08:30:55.000Z</time>
      </trkpt>
      <trkpt lat="47.44363" lon="6.79829">
        <ele>389</ele>
        <time>2016-10-09T08:30:56.000Z</time>
      </trkpt>
      <trkpt lat="47.4436" lon="6.79834">
        <ele>387</ele>
        <time>2016-10-09T08:31:00.000Z</time>
      </trkpt>
      <trkpt lat="47.44359" lon="6.79834">
        <ele>387</ele>
        <time>2016-10-09T08:31:01.000Z</time>
      </trkpt>
      <trkpt lat="47.44356" lon="6.79837">
        <ele>388</ele>
        <time>2016-10-09T08:31:03.000Z</time>
      </trkpt>
      <trkpt lat="47.44354" lon="6.79838">
        <ele>388</ele>
        <time>2016-10-09T08:31:04.000Z</time>
      </trkpt>
      <trkpt lat="47.4435" lon="6.79841">
        <ele>389</ele>
        <time>2016-10-09T08:31:07.000Z</time>
      </trkpt>
      <trkpt lat="47.44349" lon="6.79842">
        <ele>389</ele>
        <time>2016-10-09T08:31:08.000Z</time>
      </trkpt>
      <trkpt lat="47.44346" lon="6.79847">
        <ele>389</ele>
        <time>2016-10-09T08:31:12.000Z</time>
      </trkpt>
      <trkpt lat="47.44346" lon="6.79848">
        <ele>389</ele>
        <time>2016-10-09T08:31:13.000Z</time>
      </trkpt>
      <trkpt lat="47.44342" lon="6.79851">
        <ele>389</ele>
        <time>2016-10-09T08:31:16.000Z</time>
      </trkpt>
      <trkpt lat="47.4434" lon="6.79853">
        <ele>389</ele>
        <time>2016-10-09T08:31:17.000Z</time>
      </trkpt>
      <trkpt lat="47.44338" lon="6.79855">
        <ele>389</ele>
        <time>2016-10-09T08:31:18.000Z</time>
      </trkpt>
      <trkpt lat="47.44336" lon="6.79857">
        <ele>388</ele>
        <time>2016-10-09T08:31:19.000Z</time>
      </trkpt>
      <trkpt lat="47.44332" lon="6.7986">
        <ele>400</ele>
        <time>2016-10-09T08:31:21.000Z</time>
      </trkpt>
      <trkpt lat="47.44331" lon="6.79862">
        <ele>400</ele>
        <time>2016-10-09T08:31:22.000Z</time>
      </trkpt>
      <trkpt lat="47.44328" lon="6.79865">
        <ele>400</ele>
        <time>2016-10-09T08:31:24.000Z</time>
      </trkpt>
      <trkpt lat="47.44327" lon="6.79867">
        <ele>400</ele>
        <time>2016-10-09T08:31:25.000Z</time>
      </trkpt>
      <trkpt lat="47.44323" lon="6.7987">
        <ele>400</ele>
        <time>2016-10-09T08:31:27.000Z</time>
      </trkpt>
      <trkpt lat="47.44321" lon="6.7987">
        <ele>401</ele>
        <time>2016-10-09T08:31:28.000Z</time>
      </trkpt>
      <trkpt lat="47.44318" lon="6.79873">
        <ele>401</ele>
        <time>2016-10-09T08:31:30.000Z</time>
      </trkpt>
      <trkpt lat="47.44316" lon="6.79873">
        <ele>401</ele>
        <time>2016-10-09T08:31:31.000Z</time>
      </trkpt>
      <trkpt lat="47.44312" lon="6.79875">
        <ele>401</ele>
        <time>2016-10-09T08:31:33.000Z</time>
      </trkpt>
      <trkpt lat="47.4431" lon="6.79875">
        <ele>402</ele>
        <time>2016-10-09T08:31:34.000Z</time>
      </trkpt>
      <trkpt lat="47.44306" lon="6.79877">
        <ele>402</ele>
        <time>2016-10-09T08:31:36.000Z</time>
      </trkpt>
      <trkpt lat="47.44305" lon="6.79878">
        <ele>402</ele>
        <time>2016-10-09T08:31:37.000Z</time>
      </trkpt>
      <trkpt lat="47.44302" lon="6.79879">
        <ele>403</ele>
        <time>2016-10-09T08:31:39.000Z</time>
      </trkpt>
      <trkpt lat="47.443" lon="6.79879">
        <ele>403</ele>
        <time>2016-10-09T08:31:40.000Z</time>
      </trkpt>
      <trkpt lat="47.44296" lon="6.7988">
        <ele>403</ele>
        <time>2016-10-09T08:31:42.000Z</time>
      </trkpt>
      <trkpt lat="47.44294" lon="6.79881">
        <ele>404</ele>
        <time>2016-10-09T08:31:43.000Z</time>
      </trkpt>
      <trkpt lat="47.44291" lon="6.79882">
        <ele>404</ele>
        <time>2016-10-09T08:31:44.000Z</time>
      </trkpt>
      <trkpt lat="47.44289" lon="6.79883">
        <ele>404</ele>
        <time>2016-10-09T08:31:45.000Z</time>
      </trkpt>
      <trkpt lat="47.44286" lon="6.79885">
        <ele>405</ele>
        <time>2016-10-09T08:31:47.000Z</time>
      </trkpt>
      <trkpt lat="47.44285" lon="6.79886">
        <ele>405</ele>
        <time>2016-10-09T08:31:48.000Z</time>
      </trkpt>
      <trkpt lat="47.44282" lon="6.79891">
        <ele>405</ele>
        <time>2016-10-09T08:31:51.000Z</time>
      </trkpt>
      <trkpt lat="47.44281" lon="6.79892">
        <ele>405</ele>
        <time>2016-10-09T08:31:52.000Z</time>
      </trkpt>
      <trkpt lat="47.44278" lon="6.79896">
        <ele>406</ele>
        <time>2016-10-09T08:31:54.000Z</time>
      </trkpt>
      <trkpt lat="47.44277" lon="6.79898">
        <ele>406</ele>
        <time>2016-10-09T08:31:55.000Z</time>
      </trkpt>
      <trkpt lat="47.44274" lon="6.79903">
        <ele>406</ele>
        <time>2016-10-09T08:31:59.000Z</time>
      </trkpt>
      <trkpt lat="47.44273" lon="6.79904">
        <ele>407</ele>
        <time>2016-10-09T08:32:00.000Z</time>
      </trkpt>
      <trkpt lat="47.4427" lon="6.79907">
        <ele>407</ele>
        <time>2016-10-09T08:32:02.000Z</time>
      </trkpt>
      <trkpt lat="47.44269" lon="6.79908">
        <ele>407</ele>
        <time>2016-10-09T08:32:03.000Z</time>
      </trkpt>
      <trkpt lat="47.44266" lon="6.79913">
        <ele>408</ele>
        <time>2016-10-09T08:32:07.000Z</time>
      </trkpt>
      <trkpt lat="47.44265" lon="6.79913">
        <ele>408</ele>
        <time>2016-10-09T08:32:08.000Z</time>
      </trkpt>
      <trkpt lat="47.44261" lon="6.79916">
        <ele>409</ele>
        <time>2016-10-09T08:32:12.000Z</time>
      </trkpt>
      <trkpt lat="47.4426" lon="6.79917">
        <ele>407</ele>
        <time>2016-10-09T08:32:13.000Z</time>
      </trkpt>
      <trkpt lat="47.44257" lon="6.79921">
        <ele>408</ele>
        <time>2016-10-09T08:32:15.000Z</time>
      </trkpt>
      <trkpt lat="47.44256" lon="6.79922">
        <ele>408</ele>
        <time>2016-10-09T08:32:16.000Z</time>
      </trkpt>
      <trkpt lat="47.44253" lon="6.79924">
        <ele>408</ele>
        <time>2016-10-09T08:32:20.000Z</time>
      </trkpt>
      <trkpt lat="47.44252" lon="6.79925">
        <ele>408</ele>
        <time>2016-10-09T08:32:21.000Z</time>
      </trkpt>
      <trkpt lat="47.4425" lon="6.79927">
        <ele>407</ele>
        <time>2016-10-09T08:32:22.000Z</time>
      </trkpt>
      <trkpt lat="47.44248" lon="6.79928">
        <ele>413</ele>
        <time>2016-10-09T08:32:23.000Z</time>
      </trkpt>
      <trkpt lat="47.44245" lon="6.7993">
        <ele>413</ele>
        <time>2016-10-09T08:32:24.000Z</time>
      </trkpt>
      <trkpt lat="47.44243" lon="6.79931">
        <ele>413</ele>
        <time>2016-10-09T08:32:25.000Z</time>
      </trkpt>
      <trkpt lat="47.44241" lon="6.79933">
        <ele>414</ele>
        <time>2016-10-09T08:32:26.000Z</time>
      </trkpt>
      <trkpt lat="47.44238" lon="6.79934">
        <ele>414</ele>
        <time>2016-10-09T08:32:27.000Z</time>
      </trkpt>
      <trkpt lat="47.44235" lon="6.79935">
        <ele>414</ele>
        <time>2016-10-09T08:32:28.000Z</time>
      </trkpt>
      <trkpt lat="47.44231" lon="6.79937">
        <ele>414</ele>
        <time>2016-10-09T08:32:29.000Z</time>
      </trkpt>
      <trkpt lat="47.44227" lon="6.79938">
        <ele>414</ele>
        <time>2016-10-09T08:32:30.000Z</time>
      </trkpt>
      <trkpt lat="47.44224" lon="6.79938">
        <ele>415</ele>
        <time>2016-10-09T08:32:31.000Z</time>
      </trkpt>
      <trkpt lat="47.44222" lon="6.79938">
        <ele>415</ele>
        <time>2016-10-09T08:32:32.000Z</time>
      </trkpt>
      <trkpt lat="47.44219" lon="6.79938">
        <ele>415</ele>
        <time>2016-10-09T08:32:33.000Z</time>
      </trkpt>
      <trkpt lat="47.44215" lon="6.79936">
        <ele>416</ele>
        <time>2016-10-09T08:32:35.000Z</time>
      </trkpt>
      <trkpt lat="47.44214" lon="6.79935">
        <ele>416</ele>
        <time>2016-10-09T08:32:36.000Z</time>
      </trkpt>
      <trkpt lat="47.4421" lon="6.79932">
        <ele>416</ele>
        <time>2016-10-09T08:32:39.000Z</time>
      </trkpt>
      <trkpt lat="47.44209" lon="6.79931">
        <ele>417</ele>
        <time>2016-10-09T08:32:40.000Z</time>
      </trkpt>
      <trkpt lat="47.44205" lon="6.79929">
        <ele>417</ele>
        <time>2016-10-09T08:32:42.000Z</time>
      </trkpt>
      <trkpt lat="47.44203" lon="6.79928">
        <ele>417</ele>
        <time>2016-10-09T08:32:43.000Z</time>
      </trkpt>
      <trkpt lat="47.442" lon="6.79925">
        <ele>418</ele>
        <time>2016-10-09T08:32:45.000Z</time>
      </trkpt>
      <trkpt lat="47.44198" lon="6.79923">
        <ele>418</ele>
        <time>2016-10-09T08:32:46.000Z</time>
      </trkpt>
      <trkpt lat="47.44197" lon="6.79918">
        <ele>419</ele>
        <time>2016-10-09T08:32:48.000Z</time>
      </trkpt>
      <trkpt lat="47.44196" lon="6.79917">
        <ele>424</ele>
        <time>2016-10-09T08:32:49.000Z</time>
      </trkpt>
      <trkpt lat="47.44196" lon="6.79912">
        <ele>424</ele>
        <time>2016-10-09T08:32:52.000Z</time>
      </trkpt>
      <trkpt lat="47.44196" lon="6.7991">
        <ele>424</ele>
        <time>2016-10-09T08:32:53.000Z</time>
      </trkpt>
      <trkpt lat="47.44195" lon="6.79905">
        <ele>424</ele>
        <time>2016-10-09T08:32:56.000Z</time>
      </trkpt>
      <trkpt lat="47.44195" lon="6.79903">
        <ele>424</ele>
        <time>2016-10-09T08:32:57.000Z</time>
      </trkpt>
      <trkpt lat="47.44193" lon="6.79897">
        <ele>425</ele>
        <time>2016-10-09T08:33:00.000Z</time>
      </trkpt>
      <trkpt lat="47.44192" lon="6.79895">
        <ele>425</ele>
        <time>2016-10-09T08:33:01.000Z</time>
      </trkpt>
      <trkpt lat="47.4419" lon="6.7989">
        <ele>425</ele>
        <time>2016-10-09T08:33:04.000Z</time>
      </trkpt>
      <trkpt lat="47.4419" lon="6.79887">
        <ele>425</ele>
        <time>2016-10-09T08:33:05.000Z</time>
      </trkpt>
      <trkpt lat="47.44189" lon="6.79882">
        <ele>425</ele>
        <time>2016-10-09T08:33:07.000Z</time>
      </trkpt>
      <trkpt lat="47.44189" lon="6.7988">
        <ele>425</ele>
        <time>2016-10-09T08:33:08.000Z</time>
      </trkpt>
      <trkpt lat="47.44188" lon="6.79874">
        <ele>426</ele>
        <time>2016-10-09T08:33:11.000Z</time>
      </trkpt>
      <trkpt lat="47.44187" lon="6.79871">
        <ele>426</ele>
        <time>2016-10-09T08:33:12.000Z</time>
      </trkpt>
      <trkpt lat="47.44186" lon="6.79866">
        <ele>426</ele>
        <time>2016-10-09T08:33:14.000Z</time>
      </trkpt>
      <trkpt lat="47.44186" lon="6.79864">
        <ele>427</ele>
        <time>2016-10-09T08:33:15.000Z</time>
      </trkpt>
      <trkpt lat="47.44185" lon="6.79859">
        <ele>427</ele>
        <time>2016-10-09T08:33:17.000Z</time>
      </trkpt>
      <trkpt lat="47.44184" lon="6.79858">
        <ele>427</ele>
        <time>2016-10-09T08:33:18.000Z</time>
      </trkpt>
      <trkpt lat="47.44181" lon="6.79855">
        <ele>428</ele>
        <time>2016-10-09T08:33:20.000Z</time>
      </trkpt>
      <trkpt lat="47.4418" lon="6.79853">
        <ele>428</ele>
        <time>2016-10-09T08:33:21.000Z</time>
      </trkpt>
      <trkpt lat="47.44179" lon="6.79847">
        <ele>429</ele>
        <time>2016-10-09T08:33:26.000Z</time>
      </trkpt>
      <trkpt lat="47.44179" lon="6.79845">
        <ele>430</ele>
        <time>2016-10-09T08:33:27.000Z</time>
      </trkpt>
      <trkpt lat="47.44179" lon="6.7984">
        <ele>430</ele>
        <time>2016-10-09T08:33:29.000Z</time>
      </trkpt>
      <trkpt lat="47.44178" lon="6.79838">
        <ele>431</ele>
        <time>2016-10-09T08:33:30.000Z</time>
      </trkpt>
      <trkpt lat="47.44179" lon="6.79832">
        <ele>433</ele>
        <time>2016-10-09T08:33:33.000Z</time>
      </trkpt>
      <trkpt lat="47.44179" lon="6.7983">
        <ele>433</ele>
        <time>2016-10-09T08:33:34.000Z</time>
      </trkpt>
      <trkpt lat="47.4418" lon="6.79824">
        <ele>433</ele>
        <time>2016-10-09T08:33:38.000Z</time>
      </trkpt>
      <trkpt lat="47.44179" lon="6.79822">
        <ele>433</ele>
        <time>2016-10-09T08:33:39.000Z</time>
      </trkpt>
      <trkpt lat="47.44178" lon="6.79816">
        <ele>432</ele>
        <time>2016-10-09T08:33:43.000Z</time>
      </trkpt>
      <trkpt lat="47.44178" lon="6.79814">
        <ele>432</ele>
        <time>2016-10-09T08:33:44.000Z</time>
      </trkpt>
      <trkpt lat="47.44178" lon="6.79808">
        <ele>432</ele>
        <time>2016-10-09T08:33:47.000Z</time>
      </trkpt>
      <trkpt lat="47.44177" lon="6.79805">
        <ele>432</ele>
        <time>2016-10-09T08:33:48.000Z</time>
      </trkpt>
      <trkpt lat="47.44176" lon="6.798">
        <ele>432</ele>
        <time>2016-10-09T08:33:50.000Z</time>
      </trkpt>
      <trkpt lat="47.44176" lon="6.79798">
        <ele>432</ele>
        <time>2016-10-09T08:33:51.000Z</time>
      </trkpt>
      <trkpt lat="47.44176" lon="6.79793">
        <ele>432</ele>
        <time>2016-10-09T08:33:53.000Z</time>
      </trkpt>
      <trkpt lat="47.44176" lon="6.79791">
        <ele>433</ele>
        <time>2016-10-09T08:33:54.000Z</time>
      </trkpt>
      <trkpt lat="47.44175" lon="6.79786">
        <ele>433</ele>
        <time>2016-10-09T08:33:56.000Z</time>
      </trkpt>
      <trkpt lat="47.44175" lon="6.79783">
        <ele>433</ele>
        <time>2016-10-09T08:33:57.000Z</time>
      </trkpt>
      <trkpt lat="47.44176" lon="6.79777">
        <ele>434</ele>
        <time>2016-10-09T08:34:00.000Z</time>
      </trkpt>
      <trkpt lat="47.44176" lon="6.79775">
        <ele>434</ele>
        <time>2016-10-09T08:34:01.000Z</time>
      </trkpt>
      <trkpt lat="47.44179" lon="6.7977">
        <ele>434</ele>
        <time>2016-10-09T08:34:16.000Z</time>
      </trkpt>
      <trkpt lat="47.44179" lon="6.7977">
        <ele>434</ele>
        <time>2016-10-09T08:34:17.000Z</time>
      </trkpt>
      <trkpt lat="47.44181" lon="6.79765">
        <ele>434</ele>
        <time>2016-10-09T08:38:41.000Z</time>
      </trkpt>
      <trkpt lat="47.44181" lon="6.79764">
        <ele>434</ele>
        <time>2016-10-09T08:38:42.000Z</time>
      </trkpt>
      <trkpt lat="47.44183" lon="6.79758">
        <ele>435</ele>
        <time>2016-10-09T08:38:45.000Z</time>
      </trkpt>
      <trkpt lat="47.44183" lon="6.79756">
        <ele>435</ele>
        <time>2016-10-09T08:38:46.001Z</time>
      </trkpt>
      <trkpt lat="47.44184" lon="6.7975">
        <ele>435</ele>
        <time>2016-10-09T08:38:48.000Z</time>
      </trkpt>
      <trkpt lat="47.44184" lon="6.79747">
        <ele>437</ele>
        <time>2016-10-09T08:38:49.000Z</time>
      </trkpt>
      <trkpt lat="47.44183" lon="6.79741">
        <ele>436</ele>
        <time>2016-10-09T08:38:52.000Z</time>
      </trkpt>
      <trkpt lat="47.44183" lon="6.79738">
        <ele>436</ele>
        <time>2016-10-09T08:38:53.000Z</time>
      </trkpt>
      <trkpt lat="47.44185" lon="6.79732">
        <ele>436</ele>
        <time>2016-10-09T08:38:55.000Z</time>
      </trkpt>
      <trkpt lat="47.44186" lon="6.79729">
        <ele>436</ele>
        <time>2016-10-09T08:38:56.000Z</time>
      </trkpt>
      <trkpt lat="47.44186" lon="6.79727">
        <ele>436</ele>
        <time>2016-10-09T08:38:57.000Z</time>
      </trkpt>
      <trkpt lat="47.44186" lon="6.79722">
        <ele>436</ele>
        <time>2016-10-09T08:38:58.000Z</time>
      </trkpt>
      <trkpt lat="47.44186" lon="6.79719">
        <ele>436</ele>
        <time>2016-10-09T08:38:59.000Z</time>
      </trkpt>
      <trkpt lat="47.44186" lon="6.79715">
        <ele>436</ele>
        <time>2016-10-09T08:39:00.000Z</time>
      </trkpt>
      <trkpt lat="47.44185" lon="6.7971">
        <ele>436</ele>
        <time>2016-10-09T08:39:02.000Z</time>
      </trkpt>
      <trkpt lat="47.44185" lon="6.79705">
        <ele>436</ele>
        <time>2016-10-09T08:39:03.000Z</time>
      </trkpt>
      <trkpt lat="47.44186" lon="6.79698">
        <ele>436</ele>
        <time>2016-10-09T08:39:05.000Z</time>
      </trkpt>
      <trkpt lat="47.44186" lon="6.79693">
        <ele>436</ele>
        <time>2016-10-09T08:39:06.000Z</time>
      </trkpt>
      <trkpt lat="47.44185" lon="6.79688">
        <ele>437</ele>
        <time>2016-10-09T08:39:08.000Z</time>
      </trkpt>
      <trkpt lat="47.44184" lon="6.79687">
        <ele>437</ele>
        <time>2016-10-09T08:39:08.999Z</time>
      </trkpt>
      <trkpt lat="47.4418" lon="6.79684">
        <ele>438</ele>
        <time>2016-10-09T08:39:13.000Z</time>
      </trkpt>
      <trkpt lat="47.4418" lon="6.79684">
        <ele>438</ele>
        <time>2016-10-09T08:39:14.000Z</time>
      </trkpt>
      <trkpt lat="47.44178" lon="6.79679">
        <ele>439</ele>
        <time>2016-10-09T08:39:16.000Z</time>
      </trkpt>
      <trkpt lat="47.44176" lon="6.79678">
        <ele>439</ele>
        <time>2016-10-09T08:39:17.000Z</time>
      </trkpt>
      <trkpt lat="47.44173" lon="6.79675">
        <ele>440</ele>
        <time>2016-10-09T08:39:19.000Z</time>
      </trkpt>
      <trkpt lat="47.44169" lon="6.79673">
        <ele>441</ele>
        <time>2016-10-09T08:39:20.000Z</time>
      </trkpt>
      <trkpt lat="47.44168" lon="6.79673">
        <ele>441</ele>
        <time>2016-10-09T08:39:20.999Z</time>
      </trkpt>
      <trkpt lat="47.44166" lon="6.79669">
        <ele>443</ele>
        <time>2016-10-09T08:39:22.000Z</time>
      </trkpt>
      <trkpt lat="47.44163" lon="6.79666">
        <ele>444</ele>
        <time>2016-10-09T08:39:24.000Z</time>
      </trkpt>
      <trkpt lat="47.44162" lon="6.79663">
        <ele>444</ele>
        <time>2016-10-09T08:39:25.000Z</time>
      </trkpt>
      <trkpt lat="47.4416" lon="6.79661">
        <ele>444</ele>
        <time>2016-10-09T08:39:26.000Z</time>
      </trkpt>
      <trkpt lat="47.44158" lon="6.79659">
        <ele>445</ele>
        <time>2016-10-09T08:39:27.000Z</time>
      </trkpt>
      <trkpt lat="47.44156" lon="6.79657">
        <ele>445</ele>
        <time>2016-10-09T08:39:28.000Z</time>
      </trkpt>
      <trkpt lat="47.44154" lon="6.79655">
        <ele>445</ele>
        <time>2016-10-09T08:39:29.000Z</time>
      </trkpt>
      <trkpt lat="47.44149" lon="6.79653">
        <ele>446</ele>
        <time>2016-10-09T08:39:31.000Z</time>
      </trkpt>
      <trkpt lat="47.44147" lon="6.79651">
        <ele>446</ele>
        <time>2016-10-09T08:39:32.000Z</time>
      </trkpt>
      <trkpt lat="47.44143" lon="6.79649">
        <ele>446</ele>
        <time>2016-10-09T08:39:34.000Z</time>
      </trkpt>
      <trkpt lat="47.44141" lon="6.79647">
        <ele>446</ele>
        <time>2016-10-09T08:39:35.000Z</time>
      </trkpt>
      <trkpt lat="47.44137" lon="6.79645">
        <ele>447</ele>
        <time>2016-10-09T08:39:37.000Z</time>
      </trkpt>
      <trkpt lat="47.44135" lon="6.79643">
        <ele>447</ele>
        <time>2016-10-09T08:39:38.000Z</time>
      </trkpt>
      <trkpt lat="47.44133" lon="6.79642">
        <ele>447</ele>
        <time>2016-10-09T08:39:39.000Z</time>
      </trkpt>
      <trkpt lat="47.44131" lon="6.7964">
        <ele>447</ele>
        <time>2016-10-09T08:39:40.000Z</time>
      </trkpt>
      <trkpt lat="47.44128" lon="6.79639">
        <ele>447</ele>
        <time>2016-10-09T08:39:41.000Z</time>
      </trkpt>
      <trkpt lat="47.44126" lon="6.79637">
        <ele>448</ele>
        <time>2016-10-09T08:39:42.000Z</time>
      </trkpt>
      <trkpt lat="47.44122" lon="6.79636">
        <ele>448</ele>
        <time>2016-10-09T08:39:44.000Z</time>
      </trkpt>
      <trkpt lat="47.4412" lon="6.79635">
        <ele>448</ele>
        <time>2016-10-09T08:39:45.000Z</time>
      </trkpt>
      <trkpt lat="47.44117" lon="6.79634">
        <ele>448</ele>
        <time>2016-10-09T08:39:46.000Z</time>
      </trkpt>
      <trkpt lat="47.44115" lon="6.79633">
        <ele>448</ele>
        <time>2016-10-09T08:39:47.000Z</time>
      </trkpt>
      <trkpt lat="47.44112" lon="6.79632">
        <ele>448</ele>
        <time>2016-10-09T08:39:48.000Z</time>
      </trkpt>
      <trkpt lat="47.4411" lon="6.79631">
        <ele>448</ele>
        <time>2016-10-09T08:39:49.000Z</time>
      </trkpt>
      <trkpt lat="47.44108" lon="6.7963">
        <ele>449</ele>
        <time>2016-10-09T08:39:50.000Z</time>
      </trkpt>
      <trkpt lat="47.44106" lon="6.79629">
        <ele>449</ele>
        <time>2016-10-09T08:39:51.000Z</time>
      </trkpt>
      <trkpt lat="47.44103" lon="6.79628">
        <ele>449</ele>
        <time>2016-10-09T08:39:52.000Z</time>
      </trkpt>
      <trkpt lat="47.441" lon="6.79628">
        <ele>449</ele>
        <time>2016-10-09T08:39:53.000Z</time>
      </trkpt>
      <trkpt lat="47.44097" lon="6.79628">
        <ele>449</ele>
        <time>2016-10-09T08:39:54.000Z</time>
      </trkpt>
      <trkpt lat="47.44094" lon="6.79627">
        <ele>449</ele>
        <time>2016-10-09T08:39:55.000Z</time>
      </trkpt>
      <trkpt lat="47.4409" lon="6.79625">
        <ele>449</ele>
        <time>2016-10-09T08:39:57.000Z</time>
      </trkpt>
      <trkpt lat="47.44088" lon="6.79624">
        <ele>449</ele>
        <time>2016-10-09T08:39:58.000Z</time>
      </trkpt>
      <trkpt lat="47.44085" lon="6.79623">
        <ele>449</ele>
        <time>2016-10-09T08:39:59.000Z</time>
      </trkpt>
      <trkpt lat="47.44082" lon="6.79623">
        <ele>454</ele>
        <time>2016-10-09T08:40:00.000Z</time>
      </trkpt>
      <trkpt lat="47.44079" lon="6.79623">
        <ele>454</ele>
        <time>2016-10-09T08:40:01.000Z</time>
      </trkpt>
      <trkpt lat="47.44077" lon="6.79623">
        <ele>454</ele>
        <time>2016-10-09T08:40:01.999Z</time>
      </trkpt>
      <trkpt lat="47.44074" lon="6.79621">
        <ele>454</ele>
        <time>2016-10-09T08:40:03.000Z</time>
      </trkpt>
      <trkpt lat="47.44071" lon="6.79619">
        <ele>454</ele>
        <time>2016-10-09T08:40:04.000Z</time>
      </trkpt>
      <trkpt lat="47.44068" lon="6.79617">
        <ele>454</ele>
        <time>2016-10-09T08:40:05.000Z</time>
      </trkpt>
      <trkpt lat="47.44066" lon="6.79616">
        <ele>454</ele>
        <time>2016-10-09T08:40:06.000Z</time>
      </trkpt>
      <trkpt lat="47.44063" lon="6.79614">
        <ele>454</ele>
        <time>2016-10-09T08:40:07.000Z</time>
      </trkpt>
      <trkpt lat="47.44059" lon="6.79612">
        <ele>454</ele>
        <time>2016-10-09T08:40:08.001Z</time>
      </trkpt>
      <trkpt lat="47.44057" lon="6.79612">
        <ele>454</ele>
        <time>2016-10-09T08:40:09.000Z</time>
      </trkpt>
      <trkpt lat="47.44054" lon="6.79611">
        <ele>454</ele>
        <time>2016-10-09T08:40:10.000Z</time>
      </trkpt>
      <trkpt lat="47.44051" lon="6.79609">
        <ele>454</ele>
        <time>2016-10-09T08:40:11.000Z</time>
      </trkpt>
      <trkpt lat="47.44049" lon="6.79606">
        <ele>454</ele>
        <time>2016-10-09T08:40:12.000Z</time>
      </trkpt>
      <trkpt lat="47.44047" lon="6.79602">
        <ele>454</ele>
        <time>2016-10-09T08:40:13.000Z</time>
      </trkpt>
      <trkpt lat="47.44045" lon="6.796">
        <ele>454</ele>
        <time>2016-10-09T08:40:14.000Z</time>
      </trkpt>
      <trkpt lat="47.44045" lon="6.79595">
        <ele>454</ele>
        <time>2016-10-09T08:40:16.000Z</time>
      </trkpt>
      <trkpt lat="47.44044" lon="6.79593">
        <ele>454</ele>
        <time>2016-10-09T08:40:17.000Z</time>
      </trkpt>
      <trkpt lat="47.44041" lon="6.79591">
        <ele>454</ele>
        <time>2016-10-09T08:40:19.999Z</time>
      </trkpt>
      <trkpt lat="47.44039" lon="6.79591">
        <ele>454</ele>
        <time>2016-10-09T08:40:21.000Z</time>
      </trkpt>
      <trkpt lat="47.44035" lon="6.79591">
        <ele>455</ele>
        <time>2016-10-09T08:40:23.000Z</time>
      </trkpt>
      <trkpt lat="47.44032" lon="6.79591">
        <ele>455</ele>
        <time>2016-10-09T08:40:24.000Z</time>
      </trkpt>
      <trkpt lat="47.4403" lon="6.79591">
        <ele>455</ele>
        <time>2016-10-09T08:40:25.000Z</time>
      </trkpt>
      <trkpt lat="47.44028" lon="6.79592">
        <ele>455</ele>
        <time>2016-10-09T08:40:26.000Z</time>
      </trkpt>
      <trkpt lat="47.44024" lon="6.79592">
        <ele>455</ele>
        <time>2016-10-09T08:40:28.000Z</time>
      </trkpt>
      <trkpt lat="47.44023" lon="6.79593">
        <ele>455</ele>
        <time>2016-10-09T08:40:29.000Z</time>
      </trkpt>
      <trkpt lat="47.4402" lon="6.7959">
        <ele>455</ele>
        <time>2016-10-09T08:40:33.000Z</time>
      </trkpt>
      <trkpt lat="47.44019" lon="6.7959">
        <ele>455</ele>
        <time>2016-10-09T08:40:34.000Z</time>
      </trkpt>
      <trkpt lat="47.44015" lon="6.7959">
        <ele>455</ele>
        <time>2016-10-09T08:40:36.000Z</time>
      </trkpt>
      <trkpt lat="47.44013" lon="6.7959">
        <ele>455</ele>
        <time>2016-10-09T08:40:37.000Z</time>
      </trkpt>
      <trkpt lat="47.44009" lon="6.7959">
        <ele>455</ele>
        <time>2016-10-09T08:40:39.000Z</time>
      </trkpt>
      <trkpt lat="47.44008" lon="6.7959">
        <ele>456</ele>
        <time>2016-10-09T08:40:40.000Z</time>
      </trkpt>
      <trkpt lat="47.44003" lon="6.7959">
        <ele>456</ele>
        <time>2016-10-09T08:40:43.000Z</time>
      </trkpt>
      <trkpt lat="47.44002" lon="6.79591">
        <ele>456</ele>
        <time>2016-10-09T08:40:44.000Z</time>
      </trkpt>
      <trkpt lat="47.44" lon="6.79592">
        <ele>457</ele>
        <time>2016-10-09T08:40:46.000Z</time>
      </trkpt>
      <trkpt lat="47.43997" lon="6.79592">
        <ele>457</ele>
        <time>2016-10-09T08:40:47.000Z</time>
      </trkpt>
      <trkpt lat="47.43994" lon="6.79593">
        <ele>457</ele>
        <time>2016-10-09T08:40:49.000Z</time>
      </trkpt>
      <trkpt lat="47.43993" lon="6.79594">
        <ele>457</ele>
        <time>2016-10-09T08:40:50.000Z</time>
      </trkpt>
      <trkpt lat="47.4399" lon="6.79596">
        <ele>457</ele>
        <time>2016-10-09T08:40:52.000Z</time>
      </trkpt>
      <trkpt lat="47.43988" lon="6.79596">
        <ele>458</ele>
        <time>2016-10-09T08:40:53.000Z</time>
      </trkpt>
      <trkpt lat="47.43985" lon="6.79597">
        <ele>458</ele>
        <time>2016-10-09T08:40:55.000Z</time>
      </trkpt>
      <trkpt lat="47.43983" lon="6.79597">
        <ele>458</ele>
        <time>2016-10-09T08:40:56.000Z</time>
      </trkpt>
      <trkpt lat="47.43981" lon="6.79597">
        <ele>458</ele>
        <time>2016-10-09T08:40:57.000Z</time>
      </trkpt>
      <trkpt lat="47.43978" lon="6.79598">
        <ele>458</ele>
        <time>2016-10-09T08:40:58.000Z</time>
      </trkpt>
      <trkpt lat="47.43975" lon="6.79598">
        <ele>458</ele>
        <time>2016-10-09T08:40:59.000Z</time>
      </trkpt>
      <trkpt lat="47.43973" lon="6.79597">
        <ele>458</ele>
        <time>2016-10-09T08:41:00.000Z</time>
      </trkpt>
      <trkpt lat="47.4397" lon="6.79597">
        <ele>458</ele>
        <time>2016-10-09T08:41:01.000Z</time>
      </trkpt>
      <trkpt lat="47.43968" lon="6.79596">
        <ele>459</ele>
        <time>2016-10-09T08:41:02.000Z</time>
      </trkpt>
      <trkpt lat="47.43965" lon="6.79596">
        <ele>459</ele>
        <time>2016-10-09T08:41:03.000Z</time>
      </trkpt>
      <trkpt lat="47.43962" lon="6.79595">
        <ele>459</ele>
        <time>2016-10-09T08:41:04.000Z</time>
      </trkpt>
      <trkpt lat="47.43959" lon="6.79594">
        <ele>459</ele>
        <time>2016-10-09T08:41:05.000Z</time>
      </trkpt>
      <trkpt lat="47.43957" lon="6.79593">
        <ele>459</ele>
        <time>2016-10-09T08:41:06.000Z</time>
      </trkpt>
      <trkpt lat="47.43954" lon="6.79593">
        <ele>459</ele>
        <time>2016-10-09T08:41:07.000Z</time>
      </trkpt>
      <trkpt lat="47.43951" lon="6.79592">
        <ele>459</ele>
        <time>2016-10-09T08:41:08.000Z</time>
      </trkpt>
      <trkpt lat="47.43949" lon="6.79592">
        <ele>459</ele>
        <time>2016-10-09T08:41:09.000Z</time>
      </trkpt>
      <trkpt lat="47.43947" lon="6.79592">
        <ele>460</ele>
        <time>2016-10-09T08:41:10.000Z</time>
      </trkpt>
      <trkpt lat="47.43943" lon="6.79593">
        <ele>460</ele>
        <time>2016-10-09T08:41:12.000Z</time>
      </trkpt>
      <trkpt lat="47.43942" lon="6.79593">
        <ele>460</ele>
        <time>2016-10-09T08:41:13.000Z</time>
      </trkpt>
      <trkpt lat="47.43939" lon="6.79593">
        <ele>460</ele>
        <time>2016-10-09T08:41:15.000Z</time>
      </trkpt>
      <trkpt lat="47.43937" lon="6.79592">
        <ele>460</ele>
        <time>2016-10-09T08:41:16.000Z</time>
      </trkpt>
      <trkpt lat="47.43933" lon="6.79591">
        <ele>460</ele>
        <time>2016-10-09T08:41:18.000Z</time>
      </trkpt>
      <trkpt lat="47.4393" lon="6.7959">
        <ele>461</ele>
        <time>2016-10-09T08:41:19.000Z</time>
      </trkpt>
      <trkpt lat="47.43927" lon="6.79589">
        <ele>461</ele>
        <time>2016-10-09T08:41:20.000Z</time>
      </trkpt>
      <trkpt lat="47.43925" lon="6.79588">
        <ele>461</ele>
        <time>2016-10-09T08:41:21.000Z</time>
      </trkpt>
      <trkpt lat="47.43922" lon="6.79586">
        <ele>461</ele>
        <time>2016-10-09T08:41:22.000Z</time>
      </trkpt>
      <trkpt lat="47.4392" lon="6.79585">
        <ele>462</ele>
        <time>2016-10-09T08:41:23.000Z</time>
      </trkpt>
      <trkpt lat="47.43916" lon="6.79583">
        <ele>462</ele>
        <time>2016-10-09T08:41:24.000Z</time>
      </trkpt>
      <trkpt lat="47.43913" lon="6.79581">
        <ele>463</ele>
        <time>2016-10-09T08:41:25.000Z</time>
      </trkpt>
      <trkpt lat="47.43909" lon="6.79579">
        <ele>463</ele>
        <time>2016-10-09T08:41:26.000Z</time>
      </trkpt>
      <trkpt lat="47.43906" lon="6.79578">
        <ele>463</ele>
        <time>2016-10-09T08:41:27.000Z</time>
      </trkpt>
      <trkpt lat="47.43902" lon="6.79576">
        <ele>464</ele>
        <time>2016-10-09T08:41:28.000Z</time>
      </trkpt>
      <trkpt lat="47.43898" lon="6.79576">
        <ele>464</ele>
        <time>2016-10-09T08:41:29.000Z</time>
      </trkpt>
      <trkpt lat="47.43894" lon="6.79575">
        <ele>464</ele>
        <time>2016-10-09T08:41:30.000Z</time>
      </trkpt>
      <trkpt lat="47.4389" lon="6.79574">
        <ele>465</ele>
        <time>2016-10-09T08:41:31.000Z</time>
      </trkpt>
      <trkpt lat="47.43887" lon="6.79572">
        <ele>465</ele>
        <time>2016-10-09T08:41:32.000Z</time>
      </trkpt>
      <trkpt lat="47.43883" lon="6.79569">
        <ele>465</ele>
        <time>2016-10-09T08:41:33.000Z</time>
      </trkpt>
      <trkpt lat="47.43879" lon="6.79567">
        <ele>465</ele>
        <time>2016-10-09T08:41:34.000Z</time>
      </trkpt>
      <trkpt lat="47.43875" lon="6.79565">
        <ele>465</ele>
        <time>2016-10-09T08:41:35.000Z</time>
      </trkpt>
      <trkpt lat="47.43871" lon="6.79564">
        <ele>466</ele>
        <time>2016-10-09T08:41:36.000Z</time>
      </trkpt>
      <trkpt lat="47.43868" lon="6.79564">
        <ele>466</ele>
        <time>2016-10-09T08:41:37.000Z</time>
      </trkpt>
      <trkpt lat="47.43864" lon="6.79564">
        <ele>466</ele>
        <time>2016-10-09T08:41:38.000Z</time>
      </trkpt>
      <trkpt lat="47.43861" lon="6.79563">
        <ele>466</ele>
        <time>2016-10-09T08:41:39.000Z</time>
      </trkpt>
      <trkpt lat="47.43858" lon="6.79563">
        <ele>466</ele>
        <time>2016-10-09T08:41:40.000Z</time>
      </trkpt>
      <trkpt lat="47.43855" lon="6.79563">
        <ele>466</ele>
        <time>2016-10-09T08:41:41.000Z</time>
      </trkpt>
      <trkpt lat="47.43852" lon="6.79561">
        <ele>466</ele>
        <time>2016-10-09T08:41:42.000Z</time>
      </trkpt>
      <trkpt lat="47.4385" lon="6.79559">
        <ele>466</ele>
        <time>2016-10-09T08:41:43.000Z</time>
      </trkpt>
      <trkpt lat="47.43848" lon="6.79558">
        <ele>466</ele>
        <time>2016-10-09T08:41:44.000Z</time>
      </trkpt>
      <trkpt lat="47.43846" lon="6.79556">
        <ele>466</ele>
        <time>2016-10-09T08:41:45.000Z</time>
      </trkpt>
      <trkpt lat="47.43843" lon="6.79556">
        <ele>466</ele>
        <time>2016-10-09T08:41:46.000Z</time>
      </trkpt>
      <trkpt lat="47.4384" lon="6.79557">
        <ele>466</ele>
        <time>2016-10-09T08:41:47.000Z</time>
      </trkpt>
      <trkpt lat="47.43837" lon="6.79557">
        <ele>467</ele>
        <time>2016-10-09T08:41:48.000Z</time>
      </trkpt>
      <trkpt lat="47.43835" lon="6.79559">
        <ele>467</ele>
        <time>2016-10-09T08:41:49.000Z</time>
      </trkpt>
      <trkpt lat="47.43832" lon="6.7956">
        <ele>469</ele>
        <time>2016-10-09T08:41:50.000Z</time>
      </trkpt>
      <trkpt lat="47.43829" lon="6.79561">
        <ele>470</ele>
        <time>2016-10-09T08:41:51.000Z</time>
      </trkpt>
      <trkpt lat="47.43827" lon="6.79561">
        <ele>470</ele>
        <time>2016-10-09T08:41:52.000Z</time>
      </trkpt>
      <trkpt lat="47.43825" lon="6.79562">
        <ele>470</ele>
        <time>2016-10-09T08:41:53.000Z</time>
      </trkpt>
      <trkpt lat="47.43822" lon="6.79563">
        <ele>470</ele>
        <time>2016-10-09T08:41:54.000Z</time>
      </trkpt>
      <trkpt lat="47.4382" lon="6.79565">
        <ele>470</ele>
        <time>2016-10-09T08:41:55.000Z</time>
      </trkpt>
      <trkpt lat="47.43818" lon="6.79567">
        <ele>470</ele>
        <time>2016-10-09T08:41:56.000Z</time>
      </trkpt>
      <trkpt lat="47.43816" lon="6.7957">
        <ele>470</ele>
        <time>2016-10-09T08:41:57.000Z</time>
      </trkpt>
      <trkpt lat="47.43814" lon="6.79574">
        <ele>470</ele>
        <time>2016-10-09T08:41:58.000Z</time>
      </trkpt>
      <trkpt lat="47.43813" lon="6.79577">
        <ele>470</ele>
        <time>2016-10-09T08:41:59.000Z</time>
      </trkpt>
      <trkpt lat="47.43809" lon="6.79578">
        <ele>470</ele>
        <time>2016-10-09T08:42:04.000Z</time>
      </trkpt>
      <trkpt lat="47.43809" lon="6.79574">
        <ele>470</ele>
        <time>2016-10-09T08:42:05.000Z</time>
      </trkpt>
      <trkpt lat="47.43808" lon="6.79568">
        <ele>470</ele>
        <time>2016-10-09T08:42:07.000Z</time>
      </trkpt>
      <trkpt lat="47.43808" lon="6.79565">
        <ele>470</ele>
        <time>2016-10-09T08:42:08.000Z</time>
      </trkpt>
      <trkpt lat="47.43807" lon="6.7956">
        <ele>470</ele>
        <time>2016-10-09T08:42:11.000Z</time>
      </trkpt>
      <trkpt lat="47.43806" lon="6.79557">
        <ele>470</ele>
        <time>2016-10-09T08:42:12.000Z</time>
      </trkpt>
      <trkpt lat="47.43805" lon="6.79553">
        <ele>470</ele>
        <time>2016-10-09T08:42:14.000Z</time>
      </trkpt>
      <trkpt lat="47.43804" lon="6.7955">
        <ele>470</ele>
        <time>2016-10-09T08:42:15.000Z</time>
      </trkpt>
      <trkpt lat="47.43802" lon="6.79544">
        <ele>470</ele>
        <time>2016-10-09T08:42:17.000Z</time>
      </trkpt>
      <trkpt lat="47.43801" lon="6.79541">
        <ele>470</ele>
        <time>2016-10-09T08:42:18.000Z</time>
      </trkpt>
      <trkpt lat="47.43799" lon="6.79536">
        <ele>471</ele>
        <time>2016-10-09T08:42:20.000Z</time>
      </trkpt>
      <trkpt lat="47.43798" lon="6.79533">
        <ele>471</ele>
        <time>2016-10-09T08:42:21.000Z</time>
      </trkpt>
      <trkpt lat="47.43795" lon="6.79528">
        <ele>471</ele>
        <time>2016-10-09T08:42:23.000Z</time>
      </trkpt>
      <trkpt lat="47.43794" lon="6.79526">
        <ele>471</ele>
        <time>2016-10-09T08:42:24.000Z</time>
      </trkpt>
      <trkpt lat="47.43793" lon="6.79521">
        <ele>471</ele>
        <time>2016-10-09T08:42:26.000Z</time>
      </trkpt>
      <trkpt lat="47.43792" lon="6.79518">
        <ele>471</ele>
        <time>2016-10-09T08:42:27.000Z</time>
      </trkpt>
      <trkpt lat="47.4379" lon="6.79513">
        <ele>471</ele>
        <time>2016-10-09T08:42:29.000Z</time>
      </trkpt>
      <trkpt lat="47.43789" lon="6.7951">
        <ele>471</ele>
        <time>2016-10-09T08:42:30.000Z</time>
      </trkpt>
      <trkpt lat="47.43787" lon="6.79505">
        <ele>471</ele>
        <time>2016-10-09T08:42:32.000Z</time>
      </trkpt>
      <trkpt lat="47.43787" lon="6.79503">
        <ele>471</ele>
        <time>2016-10-09T08:42:33.000Z</time>
      </trkpt>
      <trkpt lat="47.43785" lon="6.79499">
        <ele>470</ele>
        <time>2016-10-09T08:42:35.000Z</time>
      </trkpt>
      <trkpt lat="47.43785" lon="6.79497">
        <ele>470</ele>
        <time>2016-10-09T08:42:36.000Z</time>
      </trkpt>
      <trkpt lat="47.43784" lon="6.79494">
        <ele>470</ele>
        <time>2016-10-09T08:42:37.000Z</time>
      </trkpt>
      <trkpt lat="47.43783" lon="6.7949">
        <ele>470</ele>
        <time>2016-10-09T08:42:38.000Z</time>
      </trkpt>
      <trkpt lat="47.43782" lon="6.79487">
        <ele>470</ele>
        <time>2016-10-09T08:42:39.000Z</time>
      </trkpt>
      <trkpt lat="47.43782" lon="6.79484">
        <ele>470</ele>
        <time>2016-10-09T08:42:40.000Z</time>
      </trkpt>
      <trkpt lat="47.43781" lon="6.79477">
        <ele>470</ele>
        <time>2016-10-09T08:42:42.000Z</time>
      </trkpt>
      <trkpt lat="47.4378" lon="6.79474">
        <ele>470</ele>
        <time>2016-10-09T08:42:43.000Z</time>
      </trkpt>
      <trkpt lat="47.43779" lon="6.79471">
        <ele>470</ele>
        <time>2016-10-09T08:42:44.000Z</time>
      </trkpt>
      <trkpt lat="47.43778" lon="6.79468">
        <ele>470</ele>
        <time>2016-10-09T08:42:45.000Z</time>
      </trkpt>
      <trkpt lat="47.43777" lon="6.79465">
        <ele>470</ele>
        <time>2016-10-09T08:42:46.000Z</time>
      </trkpt>
      <trkpt lat="47.43775" lon="6.79462">
        <ele>470</ele>
        <time>2016-10-09T08:42:47.000Z</time>
      </trkpt>
      <trkpt lat="47.43773" lon="6.79457">
        <ele>469</ele>
        <time>2016-10-09T08:42:49.000Z</time>
      </trkpt>
      <trkpt lat="47.43772" lon="6.79454">
        <ele>469</ele>
        <time>2016-10-09T08:42:50.000Z</time>
      </trkpt>
      <trkpt lat="47.4377" lon="6.79449">
        <ele>469</ele>
        <time>2016-10-09T08:42:52.000Z</time>
      </trkpt>
      <trkpt lat="47.4377" lon="6.79448">
        <ele>469</ele>
        <time>2016-10-09T08:42:53.000Z</time>
      </trkpt>
      <trkpt lat="47.43767" lon="6.79445">
        <ele>469</ele>
        <time>2016-10-09T08:42:56.000Z</time>
      </trkpt>
      <trkpt lat="47.43766" lon="6.79444">
        <ele>469</ele>
        <time>2016-10-09T08:42:57.000Z</time>
      </trkpt>
      <trkpt lat="47.43763" lon="6.79442">
        <ele>469</ele>
        <time>2016-10-09T08:42:59.000Z</time>
      </trkpt>
      <trkpt lat="47.43761" lon="6.79441">
        <ele>470</ele>
        <time>2016-10-09T08:43:00.000Z</time>
      </trkpt>
      <trkpt lat="47.43758" lon="6.7944">
        <ele>470</ele>
        <time>2016-10-09T08:43:02.000Z</time>
      </trkpt>
      <trkpt lat="47.43756" lon="6.7944">
        <ele>470</ele>
        <time>2016-10-09T08:43:03.000Z</time>
      </trkpt>
      <trkpt lat="47.43752" lon="6.79438">
        <ele>470</ele>
        <time>2016-10-09T08:43:07.000Z</time>
      </trkpt>
      <trkpt lat="47.43751" lon="6.79438">
        <ele>470</ele>
        <time>2016-10-09T08:43:08.000Z</time>
      </trkpt>
      <trkpt lat="47.43748" lon="6.79439">
        <ele>471</ele>
        <time>2016-10-09T08:43:10.000Z</time>
      </trkpt>
      <trkpt lat="47.43747" lon="6.7944">
        <ele>471</ele>
        <time>2016-10-09T08:43:11.000Z</time>
      </trkpt>
      <trkpt lat="47.43744" lon="6.7944">
        <ele>471</ele>
        <time>2016-10-09T08:43:12.000Z</time>
      </trkpt>
      <trkpt lat="47.43742" lon="6.7944">
        <ele>471</ele>
        <time>2016-10-09T08:43:13.000Z</time>
      </trkpt>
      <trkpt lat="47.43739" lon="6.79439">
        <ele>471</ele>
        <time>2016-10-09T08:43:14.000Z</time>
      </trkpt>
      <trkpt lat="47.43737" lon="6.79438">
        <ele>471</ele>
        <time>2016-10-09T08:43:15.000Z</time>
      </trkpt>
      <trkpt lat="47.43733" lon="6.79437">
        <ele>471</ele>
        <time>2016-10-09T08:43:17.000Z</time>
      </trkpt>
      <trkpt lat="47.43731" lon="6.79437">
        <ele>471</ele>
        <time>2016-10-09T08:43:18.000Z</time>
      </trkpt>
      <trkpt lat="47.43728" lon="6.79437">
        <ele>471</ele>
        <time>2016-10-09T08:43:20.000Z</time>
      </trkpt>
      <trkpt lat="47.43727" lon="6.79437">
        <ele>471</ele>
        <time>2016-10-09T08:43:21.000Z</time>
      </trkpt>
      <trkpt lat="47.43723" lon="6.79438">
        <ele>471</ele>
        <time>2016-10-09T08:43:23.000Z</time>
      </trkpt>
      <trkpt lat="47.43721" lon="6.7944">
        <ele>472</ele>
        <time>2016-10-09T08:43:24.000Z</time>
      </trkpt>
      <trkpt lat="47.43718" lon="6.79443">
        <ele>472</ele>
        <time>2016-10-09T08:43:26.000Z</time>
      </trkpt>
      <trkpt lat="47.43717" lon="6.79445">
        <ele>472</ele>
        <time>2016-10-09T08:43:27.000Z</time>
      </trkpt>
      <trkpt lat="47.43714" lon="6.79448">
        <ele>472</ele>
        <time>2016-10-09T08:43:32.000Z</time>
      </trkpt>
      <trkpt lat="47.43712" lon="6.79448">
        <ele>472</ele>
        <time>2016-10-09T08:43:33.000Z</time>
      </trkpt>
      <trkpt lat="47.43708" lon="6.79449">
        <ele>472</ele>
        <time>2016-10-09T08:43:35.000Z</time>
      </trkpt>
      <trkpt lat="47.43706" lon="6.79449">
        <ele>472</ele>
        <time>2016-10-09T08:43:36.000Z</time>
      </trkpt>
      <trkpt lat="47.43704" lon="6.79449">
        <ele>472</ele>
        <time>2016-10-09T08:43:37.000Z</time>
      </trkpt>
      <trkpt lat="47.43701" lon="6.79449">
        <ele>472</ele>
        <time>2016-10-09T08:43:38.000Z</time>
      </trkpt>
      <trkpt lat="47.43699" lon="6.79449">
        <ele>472</ele>
        <time>2016-10-09T08:43:39.000Z</time>
      </trkpt>
      <trkpt lat="47.43696" lon="6.79449">
        <ele>472</ele>
        <time>2016-10-09T08:43:40.000Z</time>
      </trkpt>
      <trkpt lat="47.43693" lon="6.7945">
        <ele>472</ele>
        <time>2016-10-09T08:43:41.000Z</time>
      </trkpt>
      <trkpt lat="47.4369" lon="6.79451">
        <ele>472</ele>
        <time>2016-10-09T08:43:42.000Z</time>
      </trkpt>
      <trkpt lat="47.43687" lon="6.79452">
        <ele>472</ele>
        <time>2016-10-09T08:43:43.000Z</time>
      </trkpt>
      <trkpt lat="47.43683" lon="6.79453">
        <ele>472</ele>
        <time>2016-10-09T08:43:44.000Z</time>
      </trkpt>
      <trkpt lat="47.4368" lon="6.79453">
        <ele>472</ele>
        <time>2016-10-09T08:43:45.000Z</time>
      </trkpt>
      <trkpt lat="47.43678" lon="6.79453">
        <ele>472</ele>
        <time>2016-10-09T08:43:46.000Z</time>
      </trkpt>
      <trkpt lat="47.43674" lon="6.79454">
        <ele>472</ele>
        <time>2016-10-09T08:43:48.000Z</time>
      </trkpt>
      <trkpt lat="47.43672" lon="6.79455">
        <ele>472</ele>
        <time>2016-10-09T08:43:49.000Z</time>
      </trkpt>
      <trkpt lat="47.43669" lon="6.79456">
        <ele>472</ele>
        <time>2016-10-09T08:43:50.000Z</time>
      </trkpt>
      <trkpt lat="47.43666" lon="6.79456">
        <ele>473</ele>
        <time>2016-10-09T08:43:51.000Z</time>
      </trkpt>
      <trkpt lat="47.43663" lon="6.79456">
        <ele>473</ele>
        <time>2016-10-09T08:43:52.000Z</time>
      </trkpt>
      <trkpt lat="47.4366" lon="6.79456">
        <ele>473</ele>
        <time>2016-10-09T08:43:53.000Z</time>
      </trkpt>
      <trkpt lat="47.43657" lon="6.79455">
        <ele>473</ele>
        <time>2016-10-09T08:43:54.000Z</time>
      </trkpt>
      <trkpt lat="47.43654" lon="6.79455">
        <ele>473</ele>
        <time>2016-10-09T08:43:55.000Z</time>
      </trkpt>
      <trkpt lat="47.43651" lon="6.79454">
        <ele>473</ele>
        <time>2016-10-09T08:43:56.000Z</time>
      </trkpt>
      <trkpt lat="47.43648" lon="6.79455">
        <ele>473</ele>
        <time>2016-10-09T08:43:57.000Z</time>
      </trkpt>
      <trkpt lat="47.43645" lon="6.79455">
        <ele>473</ele>
        <time>2016-10-09T08:43:58.000Z</time>
      </trkpt>
      <trkpt lat="47.43643" lon="6.79455">
        <ele>473</ele>
        <time>2016-10-09T08:43:59.000Z</time>
      </trkpt>
      <trkpt lat="47.4364" lon="6.79455">
        <ele>473</ele>
        <time>2016-10-09T08:44:00.000Z</time>
      </trkpt>
      <trkpt lat="47.43638" lon="6.79455">
        <ele>473</ele>
        <time>2016-10-09T08:44:01.000Z</time>
      </trkpt>
      <trkpt lat="47.43635" lon="6.79455">
        <ele>473</ele>
        <time>2016-10-09T08:44:02.000Z</time>
      </trkpt>
      <trkpt lat="47.43633" lon="6.79454">
        <ele>473</ele>
        <time>2016-10-09T08:44:03.000Z</time>
      </trkpt>
      <trkpt lat="47.4363" lon="6.79453">
        <ele>473</ele>
        <time>2016-10-09T08:44:04.000Z</time>
      </trkpt>
      <trkpt lat="47.43626" lon="6.79453">
        <ele>473</ele>
        <time>2016-10-09T08:44:05.000Z</time>
      </trkpt>
      <trkpt lat="47.43623" lon="6.79453">
        <ele>473</ele>
        <time>2016-10-09T08:44:06.000Z</time>
      </trkpt>
      <trkpt lat="47.43619" lon="6.79453">
        <ele>473</ele>
        <time>2016-10-09T08:44:07.000Z</time>
      </trkpt>
      <trkpt lat="47.43616" lon="6.79453">
        <ele>473</ele>
        <time>2016-10-09T08:44:08.000Z</time>
      </trkpt>
      <trkpt lat="47.43613" lon="6.79453">
        <ele>473</ele>
        <time>2016-10-09T08:44:09.000Z</time>
      </trkpt>
      <trkpt lat="47.43609" lon="6.79455">
        <ele>473</ele>
        <time>2016-10-09T08:44:12.000Z</time>
      </trkpt>
      <trkpt lat="47.43608" lon="6.79455">
        <ele>473</ele>
        <time>2016-10-09T08:44:13.000Z</time>
      </trkpt>
      <trkpt lat="47.43605" lon="6.79454">
        <ele>473</ele>
        <time>2016-10-09T08:44:14.000Z</time>
      </trkpt>
      <trkpt lat="47.43601" lon="6.79454">
        <ele>473</ele>
        <time>2016-10-09T08:44:15.000Z</time>
      </trkpt>
      <trkpt lat="47.43598" lon="6.79454">
        <ele>473</ele>
        <time>2016-10-09T08:44:16.000Z</time>
      </trkpt>
      <trkpt lat="47.43595" lon="6.79454">
        <ele>473</ele>
        <time>2016-10-09T08:44:17.000Z</time>
      </trkpt>
      <trkpt lat="47.43592" lon="6.79455">
        <ele>473</ele>
        <time>2016-10-09T08:44:18.000Z</time>
      </trkpt>
      <trkpt lat="47.4359" lon="6.79457">
        <ele>473</ele>
        <time>2016-10-09T08:44:19.000Z</time>
      </trkpt>
      <trkpt lat="47.43588" lon="6.79459">
        <ele>473</ele>
        <time>2016-10-09T08:44:20.000Z</time>
      </trkpt>
      <trkpt lat="47.43585" lon="6.7946">
        <ele>474</ele>
        <time>2016-10-09T08:44:21.000Z</time>
      </trkpt>
      <trkpt lat="47.43583" lon="6.79461">
        <ele>470</ele>
        <time>2016-10-09T08:44:22.000Z</time>
      </trkpt>
      <trkpt lat="47.4358" lon="6.79462">
        <ele>470</ele>
        <time>2016-10-09T08:44:23.000Z</time>
      </trkpt>
      <trkpt lat="47.43577" lon="6.79463">
        <ele>471</ele>
        <time>2016-10-09T08:44:24.000Z</time>
      </trkpt>
      <trkpt lat="47.43574" lon="6.79465">
        <ele>471</ele>
        <time>2016-10-09T08:44:25.000Z</time>
      </trkpt>
      <trkpt lat="47.4357" lon="6.79467">
        <ele>471</ele>
        <time>2016-10-09T08:44:26.000Z</time>
      </trkpt>
      <trkpt lat="47.43566" lon="6.79469">
        <ele>471</ele>
        <time>2016-10-09T08:44:27.000Z</time>
      </trkpt>
      <trkpt lat="47.43563" lon="6.79471">
        <ele>471</ele>
        <time>2016-10-09T08:44:28.000Z</time>
      </trkpt>
      <trkpt lat="47.43561" lon="6.79472">
        <ele>471</ele>
        <time>2016-10-09T08:44:29.000Z</time>
      </trkpt>
      <trkpt lat="47.43558" lon="6.79473">
        <ele>471</ele>
        <time>2016-10-09T08:44:30.000Z</time>
      </trkpt>
      <trkpt lat="47.43556" lon="6.79473">
        <ele>471</ele>
        <time>2016-10-09T08:44:31.000Z</time>
      </trkpt>
      <trkpt lat="47.43553" lon="6.79473">
        <ele>471</ele>
        <time>2016-10-09T08:44:32.000Z</time>
      </trkpt>
      <trkpt lat="47.43549" lon="6.79474">
        <ele>470</ele>
        <time>2016-10-09T08:44:33.000Z</time>
      </trkpt>
      <trkpt lat="47.43546" lon="6.79475">
        <ele>470</ele>
        <time>2016-10-09T08:44:34.000Z</time>
      </trkpt>
      <trkpt lat="47.43543" lon="6.79476">
        <ele>470</ele>
        <time>2016-10-09T08:44:35.000Z</time>
      </trkpt>
      <trkpt lat="47.4354" lon="6.79478">
        <ele>470</ele>
        <time>2016-10-09T08:44:36.000Z</time>
      </trkpt>
      <trkpt lat="47.43537" lon="6.7948">
        <ele>471</ele>
        <time>2016-10-09T08:44:37.000Z</time>
      </trkpt>
      <trkpt lat="47.43534" lon="6.79481">
        <ele>471</ele>
        <time>2016-10-09T08:44:38.000Z</time>
      </trkpt>
      <trkpt lat="47.4353" lon="6.79483">
        <ele>471</ele>
        <time>2016-10-09T08:44:39.000Z</time>
      </trkpt>
      <trkpt lat="47.43527" lon="6.79484">
        <ele>471</ele>
        <time>2016-10-09T08:44:40.000Z</time>
      </trkpt>
      <trkpt lat="47.43524" lon="6.79485">
        <ele>472</ele>
        <time>2016-10-09T08:44:41.000Z</time>
      </trkpt>
      <trkpt lat="47.43521" lon="6.79486">
        <ele>472</ele>
        <time>2016-10-09T08:44:42.000Z</time>
      </trkpt>
      <trkpt lat="47.43518" lon="6.79488">
        <ele>473</ele>
        <time>2016-10-09T08:44:43.000Z</time>
      </trkpt>
      <trkpt lat="47.43514" lon="6.79489">
        <ele>473</ele>
        <time>2016-10-09T08:44:44.000Z</time>
      </trkpt>
      <trkpt lat="47.43511" lon="6.79491">
        <ele>474</ele>
        <time>2016-10-09T08:44:45.000Z</time>
      </trkpt>
      <trkpt lat="47.43508" lon="6.79493">
        <ele>476</ele>
        <time>2016-10-09T08:44:46.000Z</time>
      </trkpt>
      <trkpt lat="47.43505" lon="6.79496">
        <ele>477</ele>
        <time>2016-10-09T08:44:47.000Z</time>
      </trkpt>
      <trkpt lat="47.43501" lon="6.795">
        <ele>480</ele>
        <time>2016-10-09T08:44:48.000Z</time>
      </trkpt>
      <trkpt lat="47.43497" lon="6.79504">
        <ele>480</ele>
        <time>2016-10-09T08:44:49.000Z</time>
      </trkpt>
      <trkpt lat="47.43494" lon="6.79507">
        <ele>480</ele>
        <time>2016-10-09T08:44:50.000Z</time>
      </trkpt>
      <trkpt lat="47.43492" lon="6.7951">
        <ele>479</ele>
        <time>2016-10-09T08:44:51.000Z</time>
      </trkpt>
      <trkpt lat="47.4349" lon="6.79514">
        <ele>479</ele>
        <time>2016-10-09T08:44:52.000Z</time>
      </trkpt>
      <trkpt lat="47.43487" lon="6.79518">
        <ele>479</ele>
        <time>2016-10-09T08:44:53.000Z</time>
      </trkpt>
      <trkpt lat="47.43484" lon="6.79521">
        <ele>479</ele>
        <time>2016-10-09T08:44:54.000Z</time>
      </trkpt>
      <trkpt lat="47.43481" lon="6.79523">
        <ele>479</ele>
        <time>2016-10-09T08:44:55.000Z</time>
      </trkpt>
      <trkpt lat="47.43478" lon="6.79524">
        <ele>479</ele>
        <time>2016-10-09T08:44:56.000Z</time>
      </trkpt>
      <trkpt lat="47.43476" lon="6.79526">
        <ele>479</ele>
        <time>2016-10-09T08:44:57.000Z</time>
      </trkpt>
      <trkpt lat="47.43474" lon="6.79527">
        <ele>479</ele>
        <time>2016-10-09T08:44:58.000Z</time>
      </trkpt>
      <trkpt lat="47.43471" lon="6.79529">
        <ele>479</ele>
        <time>2016-10-09T08:44:59.000Z</time>
      </trkpt>
      <trkpt lat="47.43466" lon="6.79531">
        <ele>479</ele>
        <time>2016-10-09T08:45:00.000Z</time>
      </trkpt>
      <trkpt lat="47.43461" lon="6.79532">
        <ele>478</ele>
        <time>2016-10-09T08:45:01.000Z</time>
      </trkpt>
      <trkpt lat="47.43439" lon="6.7953">
        <ele>477</ele>
        <time>2016-10-09T08:45:02.000Z</time>
      </trkpt>
      <trkpt lat="47.43436" lon="6.79529">
        <ele>476</ele>
        <time>2016-10-09T08:45:03.000Z</time>
      </trkpt>
      <trkpt lat="47.43433" lon="6.79528">
        <ele>476</ele>
        <time>2016-10-09T08:45:04.000Z</time>
      </trkpt>
      <trkpt lat="47.43429" lon="6.79528">
        <ele>475</ele>
        <time>2016-10-09T08:45:05.000Z</time>
      </trkpt>
      <trkpt lat="47.43425" lon="6.79527">
        <ele>475</ele>
        <time>2016-10-09T08:45:06.000Z</time>
      </trkpt>
      <trkpt lat="47.43422" lon="6.79527">
        <ele>475</ele>
        <time>2016-10-09T08:45:07.000Z</time>
      </trkpt>
      <trkpt lat="47.43418" lon="6.79528">
        <ele>475</ele>
        <time>2016-10-09T08:45:08.000Z</time>
      </trkpt>
      <trkpt lat="47.43414" lon="6.7953">
        <ele>471</ele>
        <time>2016-10-09T08:45:09.000Z</time>
      </trkpt>
      <trkpt lat="47.43411" lon="6.79532">
        <ele>471</ele>
        <time>2016-10-09T08:45:10.000Z</time>
      </trkpt>
      <trkpt lat="47.43409" lon="6.79533">
        <ele>471</ele>
        <time>2016-10-09T08:45:11.000Z</time>
      </trkpt>
      <trkpt lat="47.43407" lon="6.79535">
        <ele>471</ele>
        <time>2016-10-09T08:45:12.000Z</time>
      </trkpt>
      <trkpt lat="47.43404" lon="6.79536">
        <ele>472</ele>
        <time>2016-10-09T08:45:13.000Z</time>
      </trkpt>
      <trkpt lat="47.43401" lon="6.79537">
        <ele>472</ele>
        <time>2016-10-09T08:45:14.000Z</time>
      </trkpt>
      <trkpt lat="47.43398" lon="6.79539">
        <ele>472</ele>
        <time>2016-10-09T08:45:15.000Z</time>
      </trkpt>
      <trkpt lat="47.43395" lon="6.7954">
        <ele>472</ele>
        <time>2016-10-09T08:45:16.000Z</time>
      </trkpt>
      <trkpt lat="47.43392" lon="6.79541">
        <ele>472</ele>
        <time>2016-10-09T08:45:17.000Z</time>
      </trkpt>
      <trkpt lat="47.43388" lon="6.79541">
        <ele>472</ele>
        <time>2016-10-09T08:45:18.000Z</time>
      </trkpt>
      <trkpt lat="47.43385" lon="6.7954">
        <ele>472</ele>
        <time>2016-10-09T08:45:19.000Z</time>
      </trkpt>
      <trkpt lat="47.43382" lon="6.7954">
        <ele>472</ele>
        <time>2016-10-09T08:45:20.000Z</time>
      </trkpt>
      <trkpt lat="47.43379" lon="6.79542">
        <ele>472</ele>
        <time>2016-10-09T08:45:21.000Z</time>
      </trkpt>
      <trkpt lat="47.43376" lon="6.79544">
        <ele>472</ele>
        <time>2016-10-09T08:45:22.000Z</time>
      </trkpt>
      <trkpt lat="47.43373" lon="6.79546">
        <ele>472</ele>
        <time>2016-10-09T08:45:23.000Z</time>
      </trkpt>
      <trkpt lat="47.43369" lon="6.79548">
        <ele>472</ele>
        <time>2016-10-09T08:45:24.000Z</time>
      </trkpt>
      <trkpt lat="47.43365" lon="6.79549">
        <ele>472</ele>
        <time>2016-10-09T08:45:25.000Z</time>
      </trkpt>
      <trkpt lat="47.43361" lon="6.7955">
        <ele>473</ele>
        <time>2016-10-09T08:45:26.000Z</time>
      </trkpt>
      <trkpt lat="47.43357" lon="6.79551">
        <ele>473</ele>
        <time>2016-10-09T08:45:27.000Z</time>
      </trkpt>
      <trkpt lat="47.43353" lon="6.79552">
        <ele>473</ele>
        <time>2016-10-09T08:45:28.000Z</time>
      </trkpt>
      <trkpt lat="47.4335" lon="6.79552">
        <ele>473</ele>
        <time>2016-10-09T08:45:29.000Z</time>
      </trkpt>
      <trkpt lat="47.43347" lon="6.79552">
        <ele>473</ele>
        <time>2016-10-09T08:45:30.000Z</time>
      </trkpt>
      <trkpt lat="47.43344" lon="6.79552">
        <ele>473</ele>
        <time>2016-10-09T08:45:31.000Z</time>
      </trkpt>
      <trkpt lat="47.4334" lon="6.79552">
        <ele>473</ele>
        <time>2016-10-09T08:45:32.000Z</time>
      </trkpt>
      <trkpt lat="47.43337" lon="6.79555">
        <ele>474</ele>
        <time>2016-10-09T08:45:34.000Z</time>
      </trkpt>
      <trkpt lat="47.43336" lon="6.79557">
        <ele>475</ele>
        <time>2016-10-09T08:45:35.000Z</time>
      </trkpt>
      <trkpt lat="47.43335" lon="6.7956">
        <ele>476</ele>
        <time>2016-10-09T08:45:36.000Z</time>
      </trkpt>
      <trkpt lat="47.43332" lon="6.79563">
        <ele>475</ele>
        <time>2016-10-09T08:45:37.000Z</time>
      </trkpt>
      <trkpt lat="47.43329" lon="6.79565">
        <ele>476</ele>
        <time>2016-10-09T08:45:38.000Z</time>
      </trkpt>
      <trkpt lat="47.43326" lon="6.79567">
        <ele>476</ele>
        <time>2016-10-09T08:45:39.000Z</time>
      </trkpt>
      <trkpt lat="47.43322" lon="6.79569">
        <ele>476</ele>
        <time>2016-10-09T08:45:40.000Z</time>
      </trkpt>
      <trkpt lat="47.43318" lon="6.7957">
        <ele>475</ele>
        <time>2016-10-09T08:45:41.000Z</time>
      </trkpt>
      <trkpt lat="47.43314" lon="6.7957">
        <ele>475</ele>
        <time>2016-10-09T08:45:42.000Z</time>
      </trkpt>
      <trkpt lat="47.4331" lon="6.7957">
        <ele>474</ele>
        <time>2016-10-09T08:45:43.000Z</time>
      </trkpt>
      <trkpt lat="47.433" lon="6.79567">
        <ele>472</ele>
        <time>2016-10-09T08:45:44.000Z</time>
      </trkpt>
      <trkpt lat="47.43293" lon="6.79568">
        <ele>472</ele>
        <time>2016-10-09T08:45:45.000Z</time>
      </trkpt>
      <trkpt lat="47.43287" lon="6.79569">
        <ele>473</ele>
        <time>2016-10-09T08:45:46.000Z</time>
      </trkpt>
      <trkpt lat="47.43281" lon="6.79568">
        <ele>473</ele>
        <time>2016-10-09T08:45:47.000Z</time>
      </trkpt>
      <trkpt lat="47.43275" lon="6.79565">
        <ele>473</ele>
        <time>2016-10-09T08:45:48.000Z</time>
      </trkpt>
      <trkpt lat="47.4327" lon="6.79565">
        <ele>474</ele>
        <time>2016-10-09T08:45:49.000Z</time>
      </trkpt>
      <trkpt lat="47.43266" lon="6.79568">
        <ele>475</ele>
        <time>2016-10-09T08:45:50.000Z</time>
      </trkpt>
      <trkpt lat="47.43262" lon="6.79572">
        <ele>477</ele>
        <time>2016-10-09T08:45:51.000Z</time>
      </trkpt>
      <trkpt lat="47.43258" lon="6.79575">
        <ele>480</ele>
        <time>2016-10-09T08:45:52.000Z</time>
      </trkpt>
      <trkpt lat="47.43252" lon="6.79574">
        <ele>480</ele>
        <time>2016-10-09T08:45:53.000Z</time>
      </trkpt>
      <trkpt lat="47.43247" lon="6.7957">
        <ele>478</ele>
        <time>2016-10-09T08:45:54.000Z</time>
      </trkpt>
      <trkpt lat="47.43241" lon="6.7957">
        <ele>476</ele>
        <time>2016-10-09T08:45:55.000Z</time>
      </trkpt>
      <trkpt lat="47.43236" lon="6.79569">
        <ele>475</ele>
        <time>2016-10-09T08:45:56.000Z</time>
      </trkpt>
      <trkpt lat="47.43231" lon="6.79568">
        <ele>474</ele>
        <time>2016-10-09T08:45:57.000Z</time>
      </trkpt>
      <trkpt lat="47.43227" lon="6.79568">
        <ele>473</ele>
        <time>2016-10-09T08:45:58.000Z</time>
      </trkpt>
      <trkpt lat="47.43225" lon="6.79568">
        <ele>472</ele>
        <time>2016-10-09T08:45:59.000Z</time>
      </trkpt>
      <trkpt lat="47.43222" lon="6.79567">
        <ele>472</ele>
        <time>2016-10-09T08:46:00.000Z</time>
      </trkpt>
      <trkpt lat="47.4322" lon="6.79571">
        <ele>472</ele>
        <time>2016-10-09T08:46:01.000Z</time>
      </trkpt>
      <trkpt lat="47.43217" lon="6.79572">
        <ele>472</ele>
        <time>2016-10-09T08:46:02.000Z</time>
      </trkpt>
      <trkpt lat="47.43214" lon="6.79573">
        <ele>472</ele>
        <time>2016-10-09T08:46:03.000Z</time>
      </trkpt>
      <trkpt lat="47.4321" lon="6.79574">
        <ele>472</ele>
        <time>2016-10-09T08:46:04.000Z</time>
      </trkpt>
      <trkpt lat="47.43207" lon="6.79574">
        <ele>472</ele>
        <time>2016-10-09T08:46:05.000Z</time>
      </trkpt>
      <trkpt lat="47.43202" lon="6.79574">
        <ele>472</ele>
        <time>2016-10-09T08:46:06.000Z</time>
      </trkpt>
      <trkpt lat="47.43198" lon="6.79574">
        <ele>472</ele>
        <time>2016-10-09T08:46:07.000Z</time>
      </trkpt>
      <trkpt lat="47.43194" lon="6.79574">
        <ele>473</ele>
        <time>2016-10-09T08:46:08.000Z</time>
      </trkpt>
      <trkpt lat="47.43189" lon="6.79575">
        <ele>474</ele>
        <time>2016-10-09T08:46:09.000Z</time>
      </trkpt>
      <trkpt lat="47.43186" lon="6.79577">
        <ele>475</ele>
        <time>2016-10-09T08:46:10.000Z</time>
      </trkpt>
      <trkpt lat="47.43185" lon="6.7958">
        <ele>476</ele>
        <time>2016-10-09T08:46:11.000Z</time>
      </trkpt>
      <trkpt lat="47.43183" lon="6.79582">
        <ele>476</ele>
        <time>2016-10-09T08:46:12.000Z</time>
      </trkpt>
      <trkpt lat="47.43181" lon="6.79588">
        <ele>486</ele>
        <time>2016-10-09T08:46:14.000Z</time>
      </trkpt>
      <trkpt lat="47.4318" lon="6.7959">
        <ele>487</ele>
        <time>2016-10-09T08:46:15.000Z</time>
      </trkpt>
      <trkpt lat="47.43178" lon="6.79596">
        <ele>487</ele>
        <time>2016-10-09T08:46:17.000Z</time>
      </trkpt>
      <trkpt lat="47.43176" lon="6.79598">
        <ele>487</ele>
        <time>2016-10-09T08:46:18.000Z</time>
      </trkpt>
      <trkpt lat="47.43173" lon="6.79603">
        <ele>487</ele>
        <time>2016-10-09T08:46:20.000Z</time>
      </trkpt>
      <trkpt lat="47.43172" lon="6.79604">
        <ele>487</ele>
        <time>2016-10-09T08:46:21.000Z</time>
      </trkpt>
      <trkpt lat="47.43168" lon="6.79607">
        <ele>487</ele>
        <time>2016-10-09T08:46:23.000Z</time>
      </trkpt>
      <trkpt lat="47.43165" lon="6.79607">
        <ele>488</ele>
        <time>2016-10-09T08:46:24.000Z</time>
      </trkpt>
      <trkpt lat="47.43163" lon="6.79607">
        <ele>488</ele>
        <time>2016-10-09T08:46:25.000Z</time>
      </trkpt>
      <trkpt lat="47.4316" lon="6.79606">
        <ele>488</ele>
        <time>2016-10-09T08:46:26.000Z</time>
      </trkpt>
      <trkpt lat="47.43158" lon="6.79605">
        <ele>487</ele>
        <time>2016-10-09T08:46:27.000Z</time>
      </trkpt>
      <trkpt lat="47.43155" lon="6.79604">
        <ele>487</ele>
        <time>2016-10-09T08:46:28.000Z</time>
      </trkpt>
      <trkpt lat="47.43152" lon="6.79604">
        <ele>487</ele>
        <time>2016-10-09T08:46:29.000Z</time>
      </trkpt>
      <trkpt lat="47.43149" lon="6.79603">
        <ele>488</ele>
        <time>2016-10-09T08:46:30.000Z</time>
      </trkpt>
      <trkpt lat="47.43146" lon="6.79603">
        <ele>488</ele>
        <time>2016-10-09T08:46:31.000Z</time>
      </trkpt>
      <trkpt lat="47.43144" lon="6.79603">
        <ele>488</ele>
        <time>2016-10-09T08:46:32.000Z</time>
      </trkpt>
      <trkpt lat="47.4314" lon="6.79602">
        <ele>488</ele>
        <time>2016-10-09T08:46:34.000Z</time>
      </trkpt>
      <trkpt lat="47.43137" lon="6.79601">
        <ele>488</ele>
        <time>2016-10-09T08:46:35.000Z</time>
      </trkpt>
      <trkpt lat="47.43135" lon="6.79599">
        <ele>488</ele>
        <time>2016-10-09T08:46:36.000Z</time>
      </trkpt>
      <trkpt lat="47.43132" lon="6.79598">
        <ele>488</ele>
        <time>2016-10-09T08:46:37.000Z</time>
      </trkpt>
      <trkpt lat="47.4313" lon="6.79596">
        <ele>488</ele>
        <time>2016-10-09T08:46:38.000Z</time>
      </trkpt>
      <trkpt lat="47.43128" lon="6.79596">
        <ele>488</ele>
        <time>2016-10-09T08:46:39.000Z</time>
      </trkpt>
      <trkpt lat="47.43124" lon="6.79597">
        <ele>488</ele>
        <time>2016-10-09T08:46:41.000Z</time>
      </trkpt>
      <trkpt lat="47.43122" lon="6.79598">
        <ele>488</ele>
        <time>2016-10-09T08:46:42.000Z</time>
      </trkpt>
      <trkpt lat="47.43119" lon="6.79599">
        <ele>488</ele>
        <time>2016-10-09T08:46:44.000Z</time>
      </trkpt>
      <trkpt lat="47.43117" lon="6.796">
        <ele>488</ele>
        <time>2016-10-09T08:46:45.000Z</time>
      </trkpt>
      <trkpt lat="47.43113" lon="6.796">
        <ele>488</ele>
        <time>2016-10-09T08:46:47.000Z</time>
      </trkpt>
      <trkpt lat="47.43111" lon="6.79599">
        <ele>488</ele>
        <time>2016-10-09T08:46:48.000Z</time>
      </trkpt>
      <trkpt lat="47.43106" lon="6.79598">
        <ele>487</ele>
        <time>2016-10-09T08:46:50.000Z</time>
      </trkpt>
      <trkpt lat="47.43104" lon="6.79597">
        <ele>487</ele>
        <time>2016-10-09T08:46:51.000Z</time>
      </trkpt>
      <trkpt lat="47.43101" lon="6.79596">
        <ele>487</ele>
        <time>2016-10-09T08:46:52.000Z</time>
      </trkpt>
      <trkpt lat="47.43099" lon="6.79594">
        <ele>487</ele>
        <time>2016-10-09T08:46:53.000Z</time>
      </trkpt>
      <trkpt lat="47.43097" lon="6.79591">
        <ele>487</ele>
        <time>2016-10-09T08:46:54.000Z</time>
      </trkpt>
      <trkpt lat="47.43096" lon="6.79588">
        <ele>486</ele>
        <time>2016-10-09T08:46:55.000Z</time>
      </trkpt>
      <trkpt lat="47.43093" lon="6.79584">
        <ele>486</ele>
        <time>2016-10-09T08:46:57.000Z</time>
      </trkpt>
      <trkpt lat="47.43091" lon="6.79582">
        <ele>480</ele>
        <time>2016-10-09T08:46:58.000Z</time>
      </trkpt>
      <trkpt lat="47.43088" lon="6.79577">
        <ele>480</ele>
        <time>2016-10-09T08:47:01.000Z</time>
      </trkpt>
      <trkpt lat="47.43086" lon="6.79577">
        <ele>480</ele>
        <time>2016-10-09T08:47:02.000Z</time>
      </trkpt>
      <trkpt lat="47.43082" lon="6.79573">
        <ele>479</ele>
        <time>2016-10-09T08:47:08.000Z</time>
      </trkpt>
      <trkpt lat="47.43082" lon="6.79573">
        <ele>479</ele>
        <time>2016-10-09T08:47:09.000Z</time>
      </trkpt>
      <trkpt lat="47.43082" lon="6.7958">
        <ele>482</ele>
        <time>2016-10-09T08:49:47.002Z</time>
      </trkpt>
      <trkpt lat="47.43084" lon="6.79584">
        <ele>485</ele>
        <time>2016-10-09T08:49:48.000Z</time>
      </trkpt>
      <trkpt lat="47.43084" lon="6.7959">
        <ele>486</ele>
        <time>2016-10-09T08:49:54.000Z</time>
      </trkpt>
      <trkpt lat="47.43083" lon="6.79591">
        <ele>486</ele>
        <time>2016-10-09T08:49:55.000Z</time>
      </trkpt>
      <trkpt lat="47.43081" lon="6.79595">
        <ele>487</ele>
        <time>2016-10-09T08:50:00.000Z</time>
      </trkpt>
      <trkpt lat="47.43081" lon="6.79596">
        <ele>487</ele>
        <time>2016-10-09T08:50:01.000Z</time>
      </trkpt>
      <trkpt lat="47.43082" lon="6.79602">
        <ele>487</ele>
        <time>2016-10-09T08:50:03.000Z</time>
      </trkpt>
      <trkpt lat="47.43083" lon="6.79606">
        <ele>488</ele>
        <time>2016-10-09T08:50:04.000Z</time>
      </trkpt>
      <trkpt lat="47.43085" lon="6.79611">
        <ele>488</ele>
        <time>2016-10-09T08:50:06.000Z</time>
      </trkpt>
      <trkpt lat="47.43085" lon="6.79613">
        <ele>488</ele>
        <time>2016-10-09T08:50:07.000Z</time>
      </trkpt>
      <trkpt lat="47.43082" lon="6.79616">
        <ele>488</ele>
        <time>2016-10-09T08:50:11.000Z</time>
      </trkpt>
      <trkpt lat="47.43081" lon="6.79617">
        <ele>488</ele>
        <time>2016-10-09T08:50:12.000Z</time>
      </trkpt>
      <trkpt lat="47.43078" lon="6.79619">
        <ele>489</ele>
        <time>2016-10-09T08:50:13.000Z</time>
      </trkpt>
      <trkpt lat="47.43075" lon="6.79622">
        <ele>489</ele>
        <time>2016-10-09T08:50:14.000Z</time>
      </trkpt>
      <trkpt lat="47.43071" lon="6.79625">
        <ele>489</ele>
        <time>2016-10-09T08:50:15.000Z</time>
      </trkpt>
      <trkpt lat="47.43068" lon="6.79629">
        <ele>489</ele>
        <time>2016-10-09T08:50:16.000Z</time>
      </trkpt>
      <trkpt lat="47.43065" lon="6.79634">
        <ele>490</ele>
        <time>2016-10-09T08:50:17.000Z</time>
      </trkpt>
      <trkpt lat="47.43062" lon="6.79639">
        <ele>490</ele>
        <time>2016-10-09T08:50:18.000Z</time>
      </trkpt>
      <trkpt lat="47.43057" lon="6.79648">
        <ele>490</ele>
        <time>2016-10-09T08:50:19.000Z</time>
      </trkpt>
      <trkpt lat="47.43054" lon="6.7965">
        <ele>490</ele>
        <time>2016-10-09T08:50:20.000Z</time>
      </trkpt>
      <trkpt lat="47.43051" lon="6.79654">
        <ele>490</ele>
        <time>2016-10-09T08:50:21.000Z</time>
      </trkpt>
      <trkpt lat="47.43048" lon="6.79658">
        <ele>490</ele>
        <time>2016-10-09T08:50:22.000Z</time>
      </trkpt>
      <trkpt lat="47.43046" lon="6.7966">
        <ele>490</ele>
        <time>2016-10-09T08:50:23.000Z</time>
      </trkpt>
      <trkpt lat="47.43044" lon="6.79663">
        <ele>490</ele>
        <time>2016-10-09T08:50:24.000Z</time>
      </trkpt>
      <trkpt lat="47.43039" lon="6.79667">
        <ele>491</ele>
        <time>2016-10-09T08:50:25.000Z</time>
      </trkpt>
      <trkpt lat="47.43037" lon="6.79668">
        <ele>492</ele>
        <time>2016-10-09T08:50:26.000Z</time>
      </trkpt>
      <trkpt lat="47.43034" lon="6.79669">
        <ele>492</ele>
        <time>2016-10-09T08:50:27.000Z</time>
      </trkpt>
      <trkpt lat="47.43031" lon="6.79669">
        <ele>492</ele>
        <time>2016-10-09T08:50:28.000Z</time>
      </trkpt>
      <trkpt lat="47.43028" lon="6.7967">
        <ele>492</ele>
        <time>2016-10-09T08:50:29.000Z</time>
      </trkpt>
      <trkpt lat="47.43025" lon="6.79671">
        <ele>492</ele>
        <time>2016-10-09T08:50:30.000Z</time>
      </trkpt>
      <trkpt lat="47.43021" lon="6.79673">
        <ele>492</ele>
        <time>2016-10-09T08:50:31.000Z</time>
      </trkpt>
      <trkpt lat="47.43019" lon="6.79674">
        <ele>492</ele>
        <time>2016-10-09T08:50:32.000Z</time>
      </trkpt>
      <trkpt lat="47.43016" lon="6.79675">
        <ele>493</ele>
        <time>2016-10-09T08:50:33.000Z</time>
      </trkpt>
      <trkpt lat="47.43013" lon="6.79677">
        <ele>493</ele>
        <time>2016-10-09T08:50:34.000Z</time>
      </trkpt>
      <trkpt lat="47.4301" lon="6.79678">
        <ele>493</ele>
        <time>2016-10-09T08:50:35.000Z</time>
      </trkpt>
      <trkpt lat="47.43007" lon="6.79679">
        <ele>493</ele>
        <time>2016-10-09T08:50:36.000Z</time>
      </trkpt>
      <trkpt lat="47.43003" lon="6.7968">
        <ele>493</ele>
        <time>2016-10-09T08:50:37.000Z</time>
      </trkpt>
      <trkpt lat="47.42999" lon="6.79682">
        <ele>493</ele>
        <time>2016-10-09T08:50:38.000Z</time>
      </trkpt>
      <trkpt lat="47.42996" lon="6.79684">
        <ele>493</ele>
        <time>2016-10-09T08:50:39.000Z</time>
      </trkpt>
      <trkpt lat="47.42992" lon="6.79686">
        <ele>493</ele>
        <time>2016-10-09T08:50:40.000Z</time>
      </trkpt>
      <trkpt lat="47.42989" lon="6.79688">
        <ele>493</ele>
        <time>2016-10-09T08:50:41.000Z</time>
      </trkpt>
      <trkpt lat="47.42986" lon="6.79691">
        <ele>493</ele>
        <time>2016-10-09T08:50:42.000Z</time>
      </trkpt>
      <trkpt lat="47.42983" lon="6.79695">
        <ele>492</ele>
        <time>2016-10-09T08:50:43.000Z</time>
      </trkpt>
      <trkpt lat="47.4298" lon="6.79699">
        <ele>492</ele>
        <time>2016-10-09T08:50:44.000Z</time>
      </trkpt>
      <trkpt lat="47.42977" lon="6.79703">
        <ele>492</ele>
        <time>2016-10-09T08:50:45.000Z</time>
      </trkpt>
      <trkpt lat="47.42974" lon="6.79707">
        <ele>492</ele>
        <time>2016-10-09T08:50:46.000Z</time>
      </trkpt>
      <trkpt lat="47.42973" lon="6.79712">
        <ele>492</ele>
        <time>2016-10-09T08:50:47.000Z</time>
      </trkpt>
      <trkpt lat="47.42973" lon="6.79723">
        <ele>492</ele>
        <time>2016-10-09T08:50:48.000Z</time>
      </trkpt>
      <trkpt lat="47.42972" lon="6.79729">
        <ele>492</ele>
        <time>2016-10-09T08:50:49.000Z</time>
      </trkpt>
      <trkpt lat="47.42969" lon="6.79735">
        <ele>492</ele>
        <time>2016-10-09T08:50:50.000Z</time>
      </trkpt>
      <trkpt lat="47.42965" lon="6.7974">
        <ele>492</ele>
        <time>2016-10-09T08:50:51.000Z</time>
      </trkpt>
      <trkpt lat="47.4296" lon="6.79742">
        <ele>492</ele>
        <time>2016-10-09T08:50:52.000Z</time>
      </trkpt>
      <trkpt lat="47.42955" lon="6.79744">
        <ele>492</ele>
        <time>2016-10-09T08:50:53.000Z</time>
      </trkpt>
      <trkpt lat="47.4295" lon="6.79745">
        <ele>492</ele>
        <time>2016-10-09T08:50:54.000Z</time>
      </trkpt>
      <trkpt lat="47.42945" lon="6.79745">
        <ele>492</ele>
        <time>2016-10-09T08:50:55.000Z</time>
      </trkpt>
      <trkpt lat="47.42942" lon="6.79746">
        <ele>492</ele>
        <time>2016-10-09T08:50:56.000Z</time>
      </trkpt>
      <trkpt lat="47.42938" lon="6.79747">
        <ele>492</ele>
        <time>2016-10-09T08:50:57.000Z</time>
      </trkpt>
      <trkpt lat="47.42935" lon="6.79749">
        <ele>492</ele>
        <time>2016-10-09T08:50:58.000Z</time>
      </trkpt>
      <trkpt lat="47.4293" lon="6.79748">
        <ele>492</ele>
        <time>2016-10-09T08:50:59.000Z</time>
      </trkpt>
      <trkpt lat="47.42925" lon="6.79749">
        <ele>491</ele>
        <time>2016-10-09T08:51:00.000Z</time>
      </trkpt>
      <trkpt lat="47.42921" lon="6.79748">
        <ele>491</ele>
        <time>2016-10-09T08:51:01.000Z</time>
      </trkpt>
      <trkpt lat="47.42917" lon="6.79748">
        <ele>491</ele>
        <time>2016-10-09T08:51:02.000Z</time>
      </trkpt>
      <trkpt lat="47.42913" lon="6.79748">
        <ele>491</ele>
        <time>2016-10-09T08:51:03.000Z</time>
      </trkpt>
      <trkpt lat="47.42909" lon="6.79747">
        <ele>491</ele>
        <time>2016-10-09T08:51:04.000Z</time>
      </trkpt>
      <trkpt lat="47.42905" lon="6.79747">
        <ele>491</ele>
        <time>2016-10-09T08:51:05.000Z</time>
      </trkpt>
      <trkpt lat="47.42902" lon="6.79746">
        <ele>491</ele>
        <time>2016-10-09T08:51:06.000Z</time>
      </trkpt>
      <trkpt lat="47.42899" lon="6.79746">
        <ele>490</ele>
        <time>2016-10-09T08:51:07.000Z</time>
      </trkpt>
      <trkpt lat="47.42895" lon="6.79747">
        <ele>490</ele>
        <time>2016-10-09T08:51:08.000Z</time>
      </trkpt>
      <trkpt lat="47.42892" lon="6.79748">
        <ele>490</ele>
        <time>2016-10-09T08:51:09.000Z</time>
      </trkpt>
      <trkpt lat="47.42888" lon="6.79751">
        <ele>489</ele>
        <time>2016-10-09T08:51:10.000Z</time>
      </trkpt>
      <trkpt lat="47.42886" lon="6.79754">
        <ele>489</ele>
        <time>2016-10-09T08:51:11.000Z</time>
      </trkpt>
      <trkpt lat="47.42883" lon="6.79758">
        <ele>489</ele>
        <time>2016-10-09T08:51:12.000Z</time>
      </trkpt>
      <trkpt lat="47.42881" lon="6.79761">
        <ele>489</ele>
        <time>2016-10-09T08:51:13.000Z</time>
      </trkpt>
      <trkpt lat="47.42878" lon="6.79764">
        <ele>489</ele>
        <time>2016-10-09T08:51:14.000Z</time>
      </trkpt>
      <trkpt lat="47.42874" lon="6.79766">
        <ele>488</ele>
        <time>2016-10-09T08:51:15.000Z</time>
      </trkpt>
      <trkpt lat="47.4287" lon="6.79768">
        <ele>488</ele>
        <time>2016-10-09T08:51:16.000Z</time>
      </trkpt>
      <trkpt lat="47.42867" lon="6.79771">
        <ele>488</ele>
        <time>2016-10-09T08:51:17.000Z</time>
      </trkpt>
      <trkpt lat="47.42864" lon="6.79775">
        <ele>488</ele>
        <time>2016-10-09T08:51:18.000Z</time>
      </trkpt>
      <trkpt lat="47.4286" lon="6.79779">
        <ele>488</ele>
        <time>2016-10-09T08:51:19.000Z</time>
      </trkpt>
      <trkpt lat="47.42857" lon="6.79782">
        <ele>488</ele>
        <time>2016-10-09T08:51:20.000Z</time>
      </trkpt>
      <trkpt lat="47.42854" lon="6.79785">
        <ele>488</ele>
        <time>2016-10-09T08:51:21.000Z</time>
      </trkpt>
      <trkpt lat="47.4285" lon="6.79787">
        <ele>488</ele>
        <time>2016-10-09T08:51:22.000Z</time>
      </trkpt>
      <trkpt lat="47.42846" lon="6.79788">
        <ele>488</ele>
        <time>2016-10-09T08:51:23.000Z</time>
      </trkpt>
      <trkpt lat="47.42842" lon="6.7979">
        <ele>488</ele>
        <time>2016-10-09T08:51:24.000Z</time>
      </trkpt>
      <trkpt lat="47.42838" lon="6.79792">
        <ele>487</ele>
        <time>2016-10-09T08:51:25.000Z</time>
      </trkpt>
      <trkpt lat="47.42833" lon="6.79792">
        <ele>488</ele>
        <time>2016-10-09T08:51:26.000Z</time>
      </trkpt>
      <trkpt lat="47.42829" lon="6.79793">
        <ele>488</ele>
        <time>2016-10-09T08:51:27.000Z</time>
      </trkpt>
      <trkpt lat="47.42825" lon="6.79794">
        <ele>488</ele>
        <time>2016-10-09T08:51:28.000Z</time>
      </trkpt>
      <trkpt lat="47.42821" lon="6.79795">
        <ele>488</ele>
        <time>2016-10-09T08:51:29.000Z</time>
      </trkpt>
      <trkpt lat="47.42816" lon="6.79796">
        <ele>488</ele>
        <time>2016-10-09T08:51:30.000Z</time>
      </trkpt>
      <trkpt lat="47.42812" lon="6.79797">
        <ele>488</ele>
        <time>2016-10-09T08:51:31.000Z</time>
      </trkpt>
      <trkpt lat="47.42808" lon="6.79799">
        <ele>489</ele>
        <time>2016-10-09T08:51:32.000Z</time>
      </trkpt>
      <trkpt lat="47.42804" lon="6.798">
        <ele>489</ele>
        <time>2016-10-09T08:51:33.000Z</time>
      </trkpt>
      <trkpt lat="47.42801" lon="6.79801">
        <ele>489</ele>
        <time>2016-10-09T08:51:34.000Z</time>
      </trkpt>
      <trkpt lat="47.42797" lon="6.79802">
        <ele>489</ele>
        <time>2016-10-09T08:51:35.000Z</time>
      </trkpt>
      <trkpt lat="47.42794" lon="6.79804">
        <ele>489</ele>
        <time>2016-10-09T08:51:36.000Z</time>
      </trkpt>
      <trkpt lat="47.4279" lon="6.79805">
        <ele>489</ele>
        <time>2016-10-09T08:51:37.000Z</time>
      </trkpt>
      <trkpt lat="47.42787" lon="6.79806">
        <ele>489</ele>
        <time>2016-10-09T08:51:38.000Z</time>
      </trkpt>
      <trkpt lat="47.42784" lon="6.79807">
        <ele>490</ele>
        <time>2016-10-09T08:51:39.000Z</time>
      </trkpt>
      <trkpt lat="47.42781" lon="6.79807">
        <ele>490</ele>
        <time>2016-10-09T08:51:40.000Z</time>
      </trkpt>
      <trkpt lat="47.42778" lon="6.79808">
        <ele>490</ele>
        <time>2016-10-09T08:51:41.000Z</time>
      </trkpt>
      <trkpt lat="47.42775" lon="6.79808">
        <ele>490</ele>
        <time>2016-10-09T08:51:42.000Z</time>
      </trkpt>
      <trkpt lat="47.42772" lon="6.79809">
        <ele>490</ele>
        <time>2016-10-09T08:51:43.000Z</time>
      </trkpt>
      <trkpt lat="47.42769" lon="6.79809">
        <ele>490</ele>
        <time>2016-10-09T08:51:44.000Z</time>
      </trkpt>
      <trkpt lat="47.42766" lon="6.7981">
        <ele>490</ele>
        <time>2016-10-09T08:51:45.000Z</time>
      </trkpt>
      <trkpt lat="47.42764" lon="6.79811">
        <ele>491</ele>
        <time>2016-10-09T08:51:46.000Z</time>
      </trkpt>
      <trkpt lat="47.42761" lon="6.79811">
        <ele>491</ele>
        <time>2016-10-09T08:51:47.000Z</time>
      </trkpt>
      <trkpt lat="47.42757" lon="6.79813">
        <ele>491</ele>
        <time>2016-10-09T08:51:49.000Z</time>
      </trkpt>
      <trkpt lat="47.42756" lon="6.79814">
        <ele>491</ele>
        <time>2016-10-09T08:51:50.000Z</time>
      </trkpt>
      <trkpt lat="47.42752" lon="6.79815">
        <ele>491</ele>
        <time>2016-10-09T08:51:52.000Z</time>
      </trkpt>
      <trkpt lat="47.4275" lon="6.79816">
        <ele>491</ele>
        <time>2016-10-09T08:51:53.000Z</time>
      </trkpt>
      <trkpt lat="47.42747" lon="6.79817">
        <ele>494</ele>
        <time>2016-10-09T08:51:55.000Z</time>
      </trkpt>
      <trkpt lat="47.42745" lon="6.79817">
        <ele>494</ele>
        <time>2016-10-09T08:51:56.000Z</time>
      </trkpt>
      <trkpt lat="47.42744" lon="6.79817">
        <ele>494</ele>
        <time>2016-10-09T08:51:56.998Z</time>
      </trkpt>
      <trkpt lat="47.42739" lon="6.79819">
        <ele>494</ele>
        <time>2016-10-09T08:51:58.000Z</time>
      </trkpt>
      <trkpt lat="47.42735" lon="6.7982">
        <ele>494</ele>
        <time>2016-10-09T08:51:59.000Z</time>
      </trkpt>
      <trkpt lat="47.42731" lon="6.79822">
        <ele>494</ele>
        <time>2016-10-09T08:52:00.000Z</time>
      </trkpt>
      <trkpt lat="47.42728" lon="6.79824">
        <ele>494</ele>
        <time>2016-10-09T08:52:01.000Z</time>
      </trkpt>
      <trkpt lat="47.42725" lon="6.79825">
        <ele>495</ele>
        <time>2016-10-09T08:52:02.000Z</time>
      </trkpt>
      <trkpt lat="47.42722" lon="6.79826">
        <ele>495</ele>
        <time>2016-10-09T08:52:03.000Z</time>
      </trkpt>
      <trkpt lat="47.42719" lon="6.79827">
        <ele>495</ele>
        <time>2016-10-09T08:52:04.000Z</time>
      </trkpt>
      <trkpt lat="47.42715" lon="6.79828">
        <ele>495</ele>
        <time>2016-10-09T08:52:06.000Z</time>
      </trkpt>
      <trkpt lat="47.42713" lon="6.79829">
        <ele>495</ele>
        <time>2016-10-09T08:52:07.000Z</time>
      </trkpt>
      <trkpt lat="47.42709" lon="6.79831">
        <ele>495</ele>
        <time>2016-10-09T08:52:10.000Z</time>
      </trkpt>
      <trkpt lat="47.42708" lon="6.79832">
        <ele>495</ele>
        <time>2016-10-09T08:52:11.000Z</time>
      </trkpt>
      <trkpt lat="47.42706" lon="6.79834">
        <ele>496</ele>
        <time>2016-10-09T08:52:12.998Z</time>
      </trkpt>
      <trkpt lat="47.42704" lon="6.79834">
        <ele>496</ele>
        <time>2016-10-09T08:52:14.000Z</time>
      </trkpt>
      <trkpt lat="47.42702" lon="6.79834">
        <ele>496</ele>
        <time>2016-10-09T08:52:15.000Z</time>
      </trkpt>
      <trkpt lat="47.42699" lon="6.79835">
        <ele>496</ele>
        <time>2016-10-09T08:52:16.000Z</time>
      </trkpt>
      <trkpt lat="47.42696" lon="6.79835">
        <ele>496</ele>
        <time>2016-10-09T08:52:17.000Z</time>
      </trkpt>
      <trkpt lat="47.42694" lon="6.79835">
        <ele>496</ele>
        <time>2016-10-09T08:52:18.000Z</time>
      </trkpt>
      <trkpt lat="47.42691" lon="6.79836">
        <ele>496</ele>
        <time>2016-10-09T08:52:19.000Z</time>
      </trkpt>
      <trkpt lat="47.42689" lon="6.79837">
        <ele>496</ele>
        <time>2016-10-09T08:52:20.000Z</time>
      </trkpt>
      <trkpt lat="47.42686" lon="6.79837">
        <ele>497</ele>
        <time>2016-10-09T08:52:21.000Z</time>
      </trkpt>
      <trkpt lat="47.42684" lon="6.79838">
        <ele>497</ele>
        <time>2016-10-09T08:52:22.000Z</time>
      </trkpt>
      <trkpt lat="47.42682" lon="6.79839">
        <ele>497</ele>
        <time>2016-10-09T08:52:23.000Z</time>
      </trkpt>
      <trkpt lat="47.4268" lon="6.79839">
        <ele>497</ele>
        <time>2016-10-09T08:52:24.000Z</time>
      </trkpt>
      <trkpt lat="47.42676" lon="6.7984">
        <ele>497</ele>
        <time>2016-10-09T08:52:26.000Z</time>
      </trkpt>
      <trkpt lat="47.42674" lon="6.7984">
        <ele>497</ele>
        <time>2016-10-09T08:52:27.000Z</time>
      </trkpt>
      <trkpt lat="47.42671" lon="6.7984">
        <ele>497</ele>
        <time>2016-10-09T08:52:29.000Z</time>
      </trkpt>
      <trkpt lat="47.42669" lon="6.7984">
        <ele>497</ele>
        <time>2016-10-09T08:52:30.000Z</time>
      </trkpt>
      <trkpt lat="47.42665" lon="6.7984">
        <ele>499</ele>
        <time>2016-10-09T08:52:32.000Z</time>
      </trkpt>
      <trkpt lat="47.42662" lon="6.7984">
        <ele>499</ele>
        <time>2016-10-09T08:52:33.000Z</time>
      </trkpt>
      <trkpt lat="47.4266" lon="6.79841">
        <ele>499</ele>
        <time>2016-10-09T08:52:34.000Z</time>
      </trkpt>
      <trkpt lat="47.42657" lon="6.79841">
        <ele>499</ele>
        <time>2016-10-09T08:52:35.000Z</time>
      </trkpt>
      <trkpt lat="47.42655" lon="6.79841">
        <ele>499</ele>
        <time>2016-10-09T08:52:36.000Z</time>
      </trkpt>
      <trkpt lat="47.42652" lon="6.79841">
        <ele>500</ele>
        <time>2016-10-09T08:52:37.000Z</time>
      </trkpt>
      <trkpt lat="47.42648" lon="6.7984">
        <ele>500</ele>
        <time>2016-10-09T08:52:39.000Z</time>
      </trkpt>
      <trkpt lat="47.42646" lon="6.7984">
        <ele>500</ele>
        <time>2016-10-09T08:52:40.000Z</time>
      </trkpt>
      <trkpt lat="47.42642" lon="6.79839">
        <ele>500</ele>
        <time>2016-10-09T08:52:42.000Z</time>
      </trkpt>
      <trkpt lat="47.4264" lon="6.79838">
        <ele>500</ele>
        <time>2016-10-09T08:52:43.000Z</time>
      </trkpt>
      <trkpt lat="47.42637" lon="6.79838">
        <ele>501</ele>
        <time>2016-10-09T08:52:44.000Z</time>
      </trkpt>
      <trkpt lat="47.42634" lon="6.79838">
        <ele>501</ele>
        <time>2016-10-09T08:52:45.000Z</time>
      </trkpt>
      <trkpt lat="47.4263" lon="6.79838">
        <ele>501</ele>
        <time>2016-10-09T08:52:46.000Z</time>
      </trkpt>
      <trkpt lat="47.42627" lon="6.79838">
        <ele>501</ele>
        <time>2016-10-09T08:52:47.000Z</time>
      </trkpt>
      <trkpt lat="47.42623" lon="6.79839">
        <ele>501</ele>
        <time>2016-10-09T08:52:48.000Z</time>
      </trkpt>
      <trkpt lat="47.42619" lon="6.79839">
        <ele>501</ele>
        <time>2016-10-09T08:52:49.000Z</time>
      </trkpt>
      <trkpt lat="47.42615" lon="6.79839">
        <ele>502</ele>
        <time>2016-10-09T08:52:50.000Z</time>
      </trkpt>
      <trkpt lat="47.42612" lon="6.79839">
        <ele>502</ele>
        <time>2016-10-09T08:52:51.000Z</time>
      </trkpt>
      <trkpt lat="47.42608" lon="6.79839">
        <ele>502</ele>
        <time>2016-10-09T08:52:52.000Z</time>
      </trkpt>
      <trkpt lat="47.42605" lon="6.79839">
        <ele>502</ele>
        <time>2016-10-09T08:52:53.000Z</time>
      </trkpt>
      <trkpt lat="47.42602" lon="6.79839">
        <ele>502</ele>
        <time>2016-10-09T08:52:54.000Z</time>
      </trkpt>
      <trkpt lat="47.42599" lon="6.79839">
        <ele>503</ele>
        <time>2016-10-09T08:52:55.000Z</time>
      </trkpt>
      <trkpt lat="47.42596" lon="6.79838">
        <ele>503</ele>
        <time>2016-10-09T08:52:56.000Z</time>
      </trkpt>
      <trkpt lat="47.42593" lon="6.79838">
        <ele>503</ele>
        <time>2016-10-09T08:52:57.000Z</time>
      </trkpt>
      <trkpt lat="47.4259" lon="6.79838">
        <ele>503</ele>
        <time>2016-10-09T08:52:58.000Z</time>
      </trkpt>
      <trkpt lat="47.42587" lon="6.79837">
        <ele>503</ele>
        <time>2016-10-09T08:52:59.000Z</time>
      </trkpt>
      <trkpt lat="47.42584" lon="6.79837">
        <ele>504</ele>
        <time>2016-10-09T08:53:00.000Z</time>
      </trkpt>
      <trkpt lat="47.42582" lon="6.79837">
        <ele>504</ele>
        <time>2016-10-09T08:53:01.000Z</time>
      </trkpt>
      <trkpt lat="47.42578" lon="6.79837">
        <ele>505</ele>
        <time>2016-10-09T08:53:03.000Z</time>
      </trkpt>
      <trkpt lat="47.42576" lon="6.79837">
        <ele>505</ele>
        <time>2016-10-09T08:53:04.000Z</time>
      </trkpt>
      <trkpt lat="47.42572" lon="6.79837">
        <ele>505</ele>
        <time>2016-10-09T08:53:06.000Z</time>
      </trkpt>
      <trkpt lat="47.4257" lon="6.79837">
        <ele>506</ele>
        <time>2016-10-09T08:53:07.000Z</time>
      </trkpt>
      <trkpt lat="47.42567" lon="6.79837">
        <ele>506</ele>
        <time>2016-10-09T08:53:08.000Z</time>
      </trkpt>
      <trkpt lat="47.42564" lon="6.79838">
        <ele>506</ele>
        <time>2016-10-09T08:53:09.000Z</time>
      </trkpt>
      <trkpt lat="47.42561" lon="6.79838">
        <ele>506</ele>
        <time>2016-10-09T08:53:10.000Z</time>
      </trkpt>
      <trkpt lat="47.42559" lon="6.79838">
        <ele>506</ele>
        <time>2016-10-09T08:53:11.000Z</time>
      </trkpt>
      <trkpt lat="47.42556" lon="6.79839">
        <ele>507</ele>
        <time>2016-10-09T08:53:12.000Z</time>
      </trkpt>
      <trkpt lat="47.42553" lon="6.79839">
        <ele>507</ele>
        <time>2016-10-09T08:53:13.000Z</time>
      </trkpt>
      <trkpt lat="47.42551" lon="6.79839">
        <ele>507</ele>
        <time>2016-10-09T08:53:14.000Z</time>
      </trkpt>
      <trkpt lat="47.42548" lon="6.79839">
        <ele>507</ele>
        <time>2016-10-09T08:53:15.000Z</time>
      </trkpt>
      <trkpt lat="47.42544" lon="6.7984">
        <ele>507</ele>
        <time>2016-10-09T08:53:17.000Z</time>
      </trkpt>
      <trkpt lat="47.42543" lon="6.7984">
        <ele>507</ele>
        <time>2016-10-09T08:53:18.000Z</time>
      </trkpt>
      <trkpt lat="47.42539" lon="6.79842">
        <ele>508</ele>
        <time>2016-10-09T08:53:20.000Z</time>
      </trkpt>
      <trkpt lat="47.42538" lon="6.79842">
        <ele>508</ele>
        <time>2016-10-09T08:53:21.000Z</time>
      </trkpt>
      <trkpt lat="47.42535" lon="6.79844">
        <ele>508</ele>
        <time>2016-10-09T08:53:23.000Z</time>
      </trkpt>
      <trkpt lat="47.42533" lon="6.79845">
        <ele>508</ele>
        <time>2016-10-09T08:53:24.000Z</time>
      </trkpt>
      <trkpt lat="47.42529" lon="6.79846">
        <ele>508</ele>
        <time>2016-10-09T08:53:26.000Z</time>
      </trkpt>
      <trkpt lat="47.42527" lon="6.79847">
        <ele>508</ele>
        <time>2016-10-09T08:53:27.000Z</time>
      </trkpt>
      <trkpt lat="47.42523" lon="6.79848">
        <ele>509</ele>
        <time>2016-10-09T08:53:29.000Z</time>
      </trkpt>
      <trkpt lat="47.42521" lon="6.79849">
        <ele>509</ele>
        <time>2016-10-09T08:53:30.000Z</time>
      </trkpt>
      <trkpt lat="47.42517" lon="6.79851">
        <ele>509</ele>
        <time>2016-10-09T08:53:32.000Z</time>
      </trkpt>
      <trkpt lat="47.42515" lon="6.79851">
        <ele>509</ele>
        <time>2016-10-09T08:53:33.000Z</time>
      </trkpt>
      <trkpt lat="47.42512" lon="6.79851">
        <ele>509</ele>
        <time>2016-10-09T08:53:34.000Z</time>
      </trkpt>
      <trkpt lat="47.42509" lon="6.79851">
        <ele>509</ele>
        <time>2016-10-09T08:53:35.000Z</time>
      </trkpt>
      <trkpt lat="47.42507" lon="6.79852">
        <ele>509</ele>
        <time>2016-10-09T08:53:36.000Z</time>
      </trkpt>
      <trkpt lat="47.42504" lon="6.79852">
        <ele>510</ele>
        <time>2016-10-09T08:53:37.000Z</time>
      </trkpt>
      <trkpt lat="47.42501" lon="6.79852">
        <ele>510</ele>
        <time>2016-10-09T08:53:38.000Z</time>
      </trkpt>
      <trkpt lat="47.42498" lon="6.79852">
        <ele>513</ele>
        <time>2016-10-09T08:53:39.000Z</time>
      </trkpt>
      <trkpt lat="47.42495" lon="6.79852">
        <ele>513</ele>
        <time>2016-10-09T08:53:40.000Z</time>
      </trkpt>
      <trkpt lat="47.42492" lon="6.79851">
        <ele>513</ele>
        <time>2016-10-09T08:53:41.000Z</time>
      </trkpt>
      <trkpt lat="47.42489" lon="6.79851">
        <ele>513</ele>
        <time>2016-10-09T08:53:42.000Z</time>
      </trkpt>
      <trkpt lat="47.42487" lon="6.79851">
        <ele>513</ele>
        <time>2016-10-09T08:53:43.000Z</time>
      </trkpt>
      <trkpt lat="47.42483" lon="6.7985">
        <ele>513</ele>
        <time>2016-10-09T08:53:45.000Z</time>
      </trkpt>
      <trkpt lat="47.4248" lon="6.7985">
        <ele>513</ele>
        <time>2016-10-09T08:53:46.000Z</time>
      </trkpt>
      <trkpt lat="47.42477" lon="6.7985">
        <ele>513</ele>
        <time>2016-10-09T08:53:47.000Z</time>
      </trkpt>
      <trkpt lat="47.42474" lon="6.7985">
        <ele>513</ele>
        <time>2016-10-09T08:53:48.000Z</time>
      </trkpt>
      <trkpt lat="47.42472" lon="6.79851">
        <ele>513</ele>
        <time>2016-10-09T08:53:49.000Z</time>
      </trkpt>
      <trkpt lat="47.42469" lon="6.79851">
        <ele>514</ele>
        <time>2016-10-09T08:53:50.000Z</time>
      </trkpt>
      <trkpt lat="47.42466" lon="6.79851">
        <ele>514</ele>
        <time>2016-10-09T08:53:51.000Z</time>
      </trkpt>
      <trkpt lat="47.42463" lon="6.79852">
        <ele>514</ele>
        <time>2016-10-09T08:53:52.000Z</time>
      </trkpt>
      <trkpt lat="47.4246" lon="6.79852">
        <ele>514</ele>
        <time>2016-10-09T08:53:53.000Z</time>
      </trkpt>
      <trkpt lat="47.42458" lon="6.79852">
        <ele>514</ele>
        <time>2016-10-09T08:53:54.000Z</time>
      </trkpt>
      <trkpt lat="47.42455" lon="6.79853">
        <ele>514</ele>
        <time>2016-10-09T08:53:55.000Z</time>
      </trkpt>
      <trkpt lat="47.42452" lon="6.79853">
        <ele>514</ele>
        <time>2016-10-09T08:53:56.000Z</time>
      </trkpt>
      <trkpt lat="47.42448" lon="6.79852">
        <ele>514</ele>
        <time>2016-10-09T08:53:57.000Z</time>
      </trkpt>
      <trkpt lat="47.42445" lon="6.79852">
        <ele>515</ele>
        <time>2016-10-09T08:53:58.000Z</time>
      </trkpt>
      <trkpt lat="47.42442" lon="6.79852">
        <ele>515</ele>
        <time>2016-10-09T08:53:59.000Z</time>
      </trkpt>
      <trkpt lat="47.42439" lon="6.79853">
        <ele>515</ele>
        <time>2016-10-09T08:54:00.000Z</time>
      </trkpt>
      <trkpt lat="47.42436" lon="6.79853">
        <ele>515</ele>
        <time>2016-10-09T08:54:01.000Z</time>
      </trkpt>
      <trkpt lat="47.42432" lon="6.79853">
        <ele>515</ele>
        <time>2016-10-09T08:54:02.000Z</time>
      </trkpt>
      <trkpt lat="47.42429" lon="6.79853">
        <ele>515</ele>
        <time>2016-10-09T08:54:03.000Z</time>
      </trkpt>
      <trkpt lat="47.42426" lon="6.79853">
        <ele>515</ele>
        <time>2016-10-09T08:54:04.000Z</time>
      </trkpt>
      <trkpt lat="47.42423" lon="6.79854">
        <ele>515</ele>
        <time>2016-10-09T08:54:05.000Z</time>
      </trkpt>
      <trkpt lat="47.4242" lon="6.79855">
        <ele>515</ele>
        <time>2016-10-09T08:54:06.000Z</time>
      </trkpt>
      <trkpt lat="47.42417" lon="6.79857">
        <ele>518</ele>
        <time>2016-10-09T08:54:07.000Z</time>
      </trkpt>
      <trkpt lat="47.42414" lon="6.79858">
        <ele>519</ele>
        <time>2016-10-09T08:54:08.000Z</time>
      </trkpt>
      <trkpt lat="47.42412" lon="6.79859">
        <ele>519</ele>
        <time>2016-10-09T08:54:09.000Z</time>
      </trkpt>
      <trkpt lat="47.4241" lon="6.7986">
        <ele>519</ele>
        <time>2016-10-09T08:54:10.000Z</time>
      </trkpt>
      <trkpt lat="47.42406" lon="6.79862">
        <ele>519</ele>
        <time>2016-10-09T08:54:12.000Z</time>
      </trkpt>
      <trkpt lat="47.42404" lon="6.79864">
        <ele>519</ele>
        <time>2016-10-09T08:54:13.000Z</time>
      </trkpt>
      <trkpt lat="47.42401" lon="6.79866">
        <ele>519</ele>
        <time>2016-10-09T08:54:14.000Z</time>
      </trkpt>
      <trkpt lat="47.42398" lon="6.79868">
        <ele>519</ele>
        <time>2016-10-09T08:54:15.000Z</time>
      </trkpt>
      <trkpt lat="47.42396" lon="6.7987">
        <ele>519</ele>
        <time>2016-10-09T08:54:16.000Z</time>
      </trkpt>
      <trkpt lat="47.42394" lon="6.79872">
        <ele>520</ele>
        <time>2016-10-09T08:54:17.000Z</time>
      </trkpt>
      <trkpt lat="47.42391" lon="6.79876">
        <ele>520</ele>
        <time>2016-10-09T08:54:19.000Z</time>
      </trkpt>
      <trkpt lat="47.42389" lon="6.79878">
        <ele>520</ele>
        <time>2016-10-09T08:54:20.000Z</time>
      </trkpt>
      <trkpt lat="47.42387" lon="6.79883">
        <ele>520</ele>
        <time>2016-10-09T08:54:22.000Z</time>
      </trkpt>
      <trkpt lat="47.42386" lon="6.79885">
        <ele>520</ele>
        <time>2016-10-09T08:54:23.000Z</time>
      </trkpt>
      <trkpt lat="47.42384" lon="6.79888">
        <ele>520</ele>
        <time>2016-10-09T08:54:24.000Z</time>
      </trkpt>
      <trkpt lat="47.42381" lon="6.7989">
        <ele>520</ele>
        <time>2016-10-09T08:54:25.000Z</time>
      </trkpt>
      <trkpt lat="47.42378" lon="6.79893">
        <ele>520</ele>
        <time>2016-10-09T08:54:26.000Z</time>
      </trkpt>
      <trkpt lat="47.42375" lon="6.79896">
        <ele>521</ele>
        <time>2016-10-09T08:54:27.000Z</time>
      </trkpt>
      <trkpt lat="47.42374" lon="6.799">
        <ele>521</ele>
        <time>2016-10-09T08:54:28.000Z</time>
      </trkpt>
      <trkpt lat="47.42373" lon="6.79903">
        <ele>521</ele>
        <time>2016-10-09T08:54:29.000Z</time>
      </trkpt>
      <trkpt lat="47.42372" lon="6.79909">
        <ele>521</ele>
        <time>2016-10-09T08:54:31.000Z</time>
      </trkpt>
      <trkpt lat="47.42371" lon="6.79912">
        <ele>521</ele>
        <time>2016-10-09T08:54:32.000Z</time>
      </trkpt>
      <trkpt lat="47.42369" lon="6.79918">
        <ele>521</ele>
        <time>2016-10-09T08:54:34.000Z</time>
      </trkpt>
      <trkpt lat="47.42368" lon="6.79921">
        <ele>521</ele>
        <time>2016-10-09T08:54:35.000Z</time>
      </trkpt>
      <trkpt lat="47.42366" lon="6.79924">
        <ele>521</ele>
        <time>2016-10-09T08:54:36.000Z</time>
      </trkpt>
      <trkpt lat="47.42364" lon="6.79927">
        <ele>521</ele>
        <time>2016-10-09T08:54:37.000Z</time>
      </trkpt>
      <trkpt lat="47.42361" lon="6.79932">
        <ele>521</ele>
        <time>2016-10-09T08:54:39.000Z</time>
      </trkpt>
      <trkpt lat="47.4236" lon="6.79934">
        <ele>521</ele>
        <time>2016-10-09T08:54:40.000Z</time>
      </trkpt>
      <trkpt lat="47.42358" lon="6.79939">
        <ele>521</ele>
        <time>2016-10-09T08:54:42.000Z</time>
      </trkpt>
      <trkpt lat="47.42357" lon="6.79942">
        <ele>521</ele>
        <time>2016-10-09T08:54:43.000Z</time>
      </trkpt>
      <trkpt lat="47.42354" lon="6.79946">
        <ele>521</ele>
        <time>2016-10-09T08:54:45.000Z</time>
      </trkpt>
      <trkpt lat="47.42353" lon="6.79948">
        <ele>521</ele>
        <time>2016-10-09T08:54:46.000Z</time>
      </trkpt>
      <trkpt lat="47.42351" lon="6.79952">
        <ele>521</ele>
        <time>2016-10-09T08:54:48.000Z</time>
      </trkpt>
      <trkpt lat="47.4235" lon="6.79954">
        <ele>521</ele>
        <time>2016-10-09T08:54:49.000Z</time>
      </trkpt>
      <trkpt lat="47.42347" lon="6.79958">
        <ele>521</ele>
        <time>2016-10-09T08:54:51.000Z</time>
      </trkpt>
      <trkpt lat="47.42344" lon="6.7996">
        <ele>521</ele>
        <time>2016-10-09T08:54:52.000Z</time>
      </trkpt>
      <trkpt lat="47.42342" lon="6.79962">
        <ele>521</ele>
        <time>2016-10-09T08:54:53.000Z</time>
      </trkpt>
      <trkpt lat="47.42338" lon="6.79965">
        <ele>521</ele>
        <time>2016-10-09T08:54:54.000Z</time>
      </trkpt>
      <trkpt lat="47.42335" lon="6.79968">
        <ele>521</ele>
        <time>2016-10-09T08:54:55.000Z</time>
      </trkpt>
      <trkpt lat="47.42332" lon="6.79971">
        <ele>524</ele>
        <time>2016-10-09T08:54:56.000Z</time>
      </trkpt>
      <trkpt lat="47.4233" lon="6.79974">
        <ele>524</ele>
        <time>2016-10-09T08:54:57.000Z</time>
      </trkpt>
      <trkpt lat="47.42327" lon="6.79977">
        <ele>524</ele>
        <time>2016-10-09T08:54:58.000Z</time>
      </trkpt>
      <trkpt lat="47.42325" lon="6.79979">
        <ele>524</ele>
        <time>2016-10-09T08:54:59.000Z</time>
      </trkpt>
      <trkpt lat="47.42322" lon="6.79981">
        <ele>524</ele>
        <time>2016-10-09T08:55:00.000Z</time>
      </trkpt>
      <trkpt lat="47.42321" lon="6.79983">
        <ele>524</ele>
        <time>2016-10-09T08:55:01.000Z</time>
      </trkpt>
      <trkpt lat="47.42318" lon="6.79985">
        <ele>524</ele>
        <time>2016-10-09T08:55:02.000Z</time>
      </trkpt>
      <trkpt lat="47.42316" lon="6.79988">
        <ele>524</ele>
        <time>2016-10-09T08:55:03.000Z</time>
      </trkpt>
      <trkpt lat="47.42314" lon="6.7999">
        <ele>524</ele>
        <time>2016-10-09T08:55:04.000Z</time>
      </trkpt>
      <trkpt lat="47.42312" lon="6.79993">
        <ele>524</ele>
        <time>2016-10-09T08:55:05.000Z</time>
      </trkpt>
      <trkpt lat="47.42309" lon="6.79995">
        <ele>524</ele>
        <time>2016-10-09T08:55:06.000Z</time>
      </trkpt>
      <trkpt lat="47.42307" lon="6.8">
        <ele>525</ele>
        <time>2016-10-09T08:55:08.000Z</time>
      </trkpt>
      <trkpt lat="47.42305" lon="6.80003">
        <ele>525</ele>
        <time>2016-10-09T08:55:09.000Z</time>
      </trkpt>
      <trkpt lat="47.42304" lon="6.80006">
        <ele>525</ele>
        <time>2016-10-09T08:55:10.000Z</time>
      </trkpt>
      <trkpt lat="47.42301" lon="6.80009">
        <ele>525</ele>
        <time>2016-10-09T08:55:11.000Z</time>
      </trkpt>
      <trkpt lat="47.42299" lon="6.80012">
        <ele>525</ele>
        <time>2016-10-09T08:55:12.000Z</time>
      </trkpt>
      <trkpt lat="47.42296" lon="6.80016">
        <ele>525</ele>
        <time>2016-10-09T08:55:13.000Z</time>
      </trkpt>
      <trkpt lat="47.42293" lon="6.80019">
        <ele>525</ele>
        <time>2016-10-09T08:55:14.000Z</time>
      </trkpt>
      <trkpt lat="47.42291" lon="6.80022">
        <ele>525</ele>
        <time>2016-10-09T08:55:15.000Z</time>
      </trkpt>
      <trkpt lat="47.42288" lon="6.80026">
        <ele>525</ele>
        <time>2016-10-09T08:55:16.000Z</time>
      </trkpt>
      <trkpt lat="47.42285" lon="6.80029">
        <ele>526</ele>
        <time>2016-10-09T08:55:17.000Z</time>
      </trkpt>
      <trkpt lat="47.42283" lon="6.80031">
        <ele>526</ele>
        <time>2016-10-09T08:55:18.000Z</time>
      </trkpt>
      <trkpt lat="47.42282" lon="6.80034">
        <ele>526</ele>
        <time>2016-10-09T08:55:19.000Z</time>
      </trkpt>
      <trkpt lat="47.42279" lon="6.80038">
        <ele>526</ele>
        <time>2016-10-09T08:55:21.000Z</time>
      </trkpt>
      <trkpt lat="47.42277" lon="6.8004">
        <ele>526</ele>
        <time>2016-10-09T08:55:22.000Z</time>
      </trkpt>
      <trkpt lat="47.42276" lon="6.80042">
        <ele>526</ele>
        <time>2016-10-09T08:55:23.000Z</time>
      </trkpt>
      <trkpt lat="47.42274" lon="6.80046">
        <ele>526</ele>
        <time>2016-10-09T08:55:24.000Z</time>
      </trkpt>
      <trkpt lat="47.42273" lon="6.80049">
        <ele>526</ele>
        <time>2016-10-09T08:55:25.000Z</time>
      </trkpt>
      <trkpt lat="47.42271" lon="6.80051">
        <ele>526</ele>
        <time>2016-10-09T08:55:26.000Z</time>
      </trkpt>
      <trkpt lat="47.42269" lon="6.80055">
        <ele>526</ele>
        <time>2016-10-09T08:55:28.000Z</time>
      </trkpt>
      <trkpt lat="47.42268" lon="6.80056">
        <ele>526</ele>
        <time>2016-10-09T08:55:29.000Z</time>
      </trkpt>
      <trkpt lat="47.42267" lon="6.80061">
        <ele>526</ele>
        <time>2016-10-09T08:55:31.000Z</time>
      </trkpt>
      <trkpt lat="47.42265" lon="6.80064">
        <ele>527</ele>
        <time>2016-10-09T08:55:32.000Z</time>
      </trkpt>
      <trkpt lat="47.42263" lon="6.80067">
        <ele>527</ele>
        <time>2016-10-09T08:55:33.000Z</time>
      </trkpt>
      <trkpt lat="47.42261" lon="6.80069">
        <ele>527</ele>
        <time>2016-10-09T08:55:34.000Z</time>
      </trkpt>
      <trkpt lat="47.42258" lon="6.80071">
        <ele>527</ele>
        <time>2016-10-09T08:55:35.000Z</time>
      </trkpt>
      <trkpt lat="47.42255" lon="6.80074">
        <ele>528</ele>
        <time>2016-10-09T08:55:36.000Z</time>
      </trkpt>
      <trkpt lat="47.42252" lon="6.80075">
        <ele>528</ele>
        <time>2016-10-09T08:55:37.000Z</time>
      </trkpt>
      <trkpt lat="47.42249" lon="6.80078">
        <ele>529</ele>
        <time>2016-10-09T08:55:38.000Z</time>
      </trkpt>
      <trkpt lat="47.42246" lon="6.80079">
        <ele>529</ele>
        <time>2016-10-09T08:55:39.000Z</time>
      </trkpt>
      <trkpt lat="47.42241" lon="6.80081">
        <ele>530</ele>
        <time>2016-10-09T08:55:40.000Z</time>
      </trkpt>
      <trkpt lat="47.42236" lon="6.80083">
        <ele>530</ele>
        <time>2016-10-09T08:55:41.000Z</time>
      </trkpt>
      <trkpt lat="47.42231" lon="6.80086">
        <ele>530</ele>
        <time>2016-10-09T08:55:42.000Z</time>
      </trkpt>
      <trkpt lat="47.42226" lon="6.80089">
        <ele>530</ele>
        <time>2016-10-09T08:55:43.000Z</time>
      </trkpt>
      <trkpt lat="47.42222" lon="6.80092">
        <ele>530</ele>
        <time>2016-10-09T08:55:44.000Z</time>
      </trkpt>
      <trkpt lat="47.42219" lon="6.80095">
        <ele>530</ele>
        <time>2016-10-09T08:55:45.000Z</time>
      </trkpt>
      <trkpt lat="47.42216" lon="6.80097">
        <ele>531</ele>
        <time>2016-10-09T08:55:46.000Z</time>
      </trkpt>
      <trkpt lat="47.42212" lon="6.801">
        <ele>531</ele>
        <time>2016-10-09T08:55:47.000Z</time>
      </trkpt>
      <trkpt lat="47.42209" lon="6.80102">
        <ele>531</ele>
        <time>2016-10-09T08:55:48.000Z</time>
      </trkpt>
      <trkpt lat="47.42206" lon="6.80105">
        <ele>531</ele>
        <time>2016-10-09T08:55:49.000Z</time>
      </trkpt>
      <trkpt lat="47.42203" lon="6.80108">
        <ele>531</ele>
        <time>2016-10-09T08:55:50.000Z</time>
      </trkpt>
      <trkpt lat="47.422" lon="6.8011">
        <ele>531</ele>
        <time>2016-10-09T08:55:51.000Z</time>
      </trkpt>
      <trkpt lat="47.42197" lon="6.80113">
        <ele>531</ele>
        <time>2016-10-09T08:55:52.000Z</time>
      </trkpt>
      <trkpt lat="47.42194" lon="6.80116">
        <ele>531</ele>
        <time>2016-10-09T08:55:53.000Z</time>
      </trkpt>
      <trkpt lat="47.42191" lon="6.80118">
        <ele>531</ele>
        <time>2016-10-09T08:55:54.000Z</time>
      </trkpt>
      <trkpt lat="47.42186" lon="6.80121">
        <ele>531</ele>
        <time>2016-10-09T08:55:55.000Z</time>
      </trkpt>
      <trkpt lat="47.42183" lon="6.80123">
        <ele>531</ele>
        <time>2016-10-09T08:55:56.000Z</time>
      </trkpt>
      <trkpt lat="47.4218" lon="6.80126">
        <ele>531</ele>
        <time>2016-10-09T08:55:57.000Z</time>
      </trkpt>
      <trkpt lat="47.42176" lon="6.80128">
        <ele>531</ele>
        <time>2016-10-09T08:55:59.000Z</time>
      </trkpt>
      <trkpt lat="47.42173" lon="6.8013">
        <ele>531</ele>
        <time>2016-10-09T08:56:00.000Z</time>
      </trkpt>
      <trkpt lat="47.42171" lon="6.80131">
        <ele>531</ele>
        <time>2016-10-09T08:56:01.000Z</time>
      </trkpt>
      <trkpt lat="47.42169" lon="6.80133">
        <ele>531</ele>
        <time>2016-10-09T08:56:02.000Z</time>
      </trkpt>
      <trkpt lat="47.42167" lon="6.80135">
        <ele>531</ele>
        <time>2016-10-09T08:56:03.000Z</time>
      </trkpt>
      <trkpt lat="47.42165" lon="6.80136">
        <ele>532</ele>
        <time>2016-10-09T08:56:04.000Z</time>
      </trkpt>
      <trkpt lat="47.42161" lon="6.80139">
        <ele>532</ele>
        <time>2016-10-09T08:56:06.000Z</time>
      </trkpt>
      <trkpt lat="47.42159" lon="6.80141">
        <ele>532</ele>
        <time>2016-10-09T08:56:07.000Z</time>
      </trkpt>
      <trkpt lat="47.42156" lon="6.80142">
        <ele>532</ele>
        <time>2016-10-09T08:56:08.000Z</time>
      </trkpt>
      <trkpt lat="47.42154" lon="6.80144">
        <ele>532</ele>
        <time>2016-10-09T08:56:09.000Z</time>
      </trkpt>
      <trkpt lat="47.4215" lon="6.80146">
        <ele>532</ele>
        <time>2016-10-09T08:56:11.000Z</time>
      </trkpt>
      <trkpt lat="47.42148" lon="6.80147">
        <ele>532</ele>
        <time>2016-10-09T08:56:12.000Z</time>
      </trkpt>
      <trkpt lat="47.42144" lon="6.80148">
        <ele>532</ele>
        <time>2016-10-09T08:56:13.000Z</time>
      </trkpt>
      <trkpt lat="47.4214" lon="6.80149">
        <ele>531</ele>
        <time>2016-10-09T08:56:14.000Z</time>
      </trkpt>
      <trkpt lat="47.42136" lon="6.80151">
        <ele>531</ele>
        <time>2016-10-09T08:56:15.000Z</time>
      </trkpt>
      <trkpt lat="47.42133" lon="6.80152">
        <ele>531</ele>
        <time>2016-10-09T08:56:16.000Z</time>
      </trkpt>
      <trkpt lat="47.4213" lon="6.80155">
        <ele>531</ele>
        <time>2016-10-09T08:56:17.000Z</time>
      </trkpt>
      <trkpt lat="47.42129" lon="6.80158">
        <ele>531</ele>
        <time>2016-10-09T08:56:18.000Z</time>
      </trkpt>
      <trkpt lat="47.42126" lon="6.80163">
        <ele>531</ele>
        <time>2016-10-09T08:56:20.000Z</time>
      </trkpt>
      <trkpt lat="47.42124" lon="6.80166">
        <ele>531</ele>
        <time>2016-10-09T08:56:21.000Z</time>
      </trkpt>
      <trkpt lat="47.42121" lon="6.80169">
        <ele>529</ele>
        <time>2016-10-09T08:56:24.000Z</time>
      </trkpt>
      <trkpt lat="47.4212" lon="6.80169">
        <ele>529</ele>
        <time>2016-10-09T08:56:25.000Z</time>
      </trkpt>
      <trkpt lat="47.42116" lon="6.80173">
        <ele>529</ele>
        <time>2016-10-09T08:57:19.998Z</time>
      </trkpt>
      <trkpt lat="47.42116" lon="6.80173">
        <ele>529</ele>
        <time>2016-10-09T08:57:21.000Z</time>
      </trkpt>
      <trkpt lat="47.42117" lon="6.80178">
        <ele>529</ele>
        <time>2016-10-09T08:57:26.000Z</time>
      </trkpt>
      <trkpt lat="47.42118" lon="6.8018">
        <ele>529</ele>
        <time>2016-10-09T08:57:27.001Z</time>
      </trkpt>
      <trkpt lat="47.42119" lon="6.80186">
        <ele>529</ele>
        <time>2016-10-09T08:57:30.000Z</time>
      </trkpt>
      <trkpt lat="47.42119" lon="6.80188">
        <ele>529</ele>
        <time>2016-10-09T08:57:31.000Z</time>
      </trkpt>
      <trkpt lat="47.42119" lon="6.80194">
        <ele>529</ele>
        <time>2016-10-09T08:57:33.000Z</time>
      </trkpt>
      <trkpt lat="47.42119" lon="6.80197">
        <ele>529</ele>
        <time>2016-10-09T08:57:34.000Z</time>
      </trkpt>
      <trkpt lat="47.4212" lon="6.80204">
        <ele>529</ele>
        <time>2016-10-09T08:57:36.000Z</time>
      </trkpt>
      <trkpt lat="47.4212" lon="6.80206">
        <ele>529</ele>
        <time>2016-10-09T08:57:37.000Z</time>
      </trkpt>
      <trkpt lat="47.42121" lon="6.8021">
        <ele>529</ele>
        <time>2016-10-09T08:57:38.000Z</time>
      </trkpt>
      <trkpt lat="47.42123" lon="6.80213">
        <ele>529</ele>
        <time>2016-10-09T08:57:39.000Z</time>
      </trkpt>
      <trkpt lat="47.42126" lon="6.80218">
        <ele>529</ele>
        <time>2016-10-09T08:57:40.000Z</time>
      </trkpt>
      <trkpt lat="47.42129" lon="6.80222">
        <ele>529</ele>
        <time>2016-10-09T08:57:41.000Z</time>
      </trkpt>
      <trkpt lat="47.42131" lon="6.80225">
        <ele>529</ele>
        <time>2016-10-09T08:57:42.000Z</time>
      </trkpt>
      <trkpt lat="47.42133" lon="6.80227">
        <ele>529</ele>
        <time>2016-10-09T08:57:42.999Z</time>
      </trkpt>
      <trkpt lat="47.42134" lon="6.80229">
        <ele>529</ele>
        <time>2016-10-09T08:57:44.000Z</time>
      </trkpt>
      <trkpt lat="47.42136" lon="6.8023">
        <ele>529</ele>
        <time>2016-10-09T08:57:44.998Z</time>
      </trkpt>
      <trkpt lat="47.42138" lon="6.80236">
        <ele>529</ele>
        <time>2016-10-09T08:57:46.000Z</time>
      </trkpt>
      <trkpt lat="47.4214" lon="6.80238">
        <ele>529</ele>
        <time>2016-10-09T08:57:47.000Z</time>
      </trkpt>
      <trkpt lat="47.42143" lon="6.80247">
        <ele>529</ele>
        <time>2016-10-09T08:57:48.000Z</time>
      </trkpt>
      <trkpt lat="47.42149" lon="6.80261">
        <ele>527</ele>
        <time>2016-10-09T08:57:49.000Z</time>
      </trkpt>
      <trkpt lat="47.42152" lon="6.80267">
        <ele>526</ele>
        <time>2016-10-09T08:57:50.000Z</time>
      </trkpt>
      <trkpt lat="47.42155" lon="6.80274">
        <ele>526</ele>
        <time>2016-10-09T08:57:51.000Z</time>
      </trkpt>
      <trkpt lat="47.42159" lon="6.80285">
        <ele>526</ele>
        <time>2016-10-09T08:57:52.000Z</time>
      </trkpt>
      <trkpt lat="47.42163" lon="6.80295">
        <ele>525</ele>
        <time>2016-10-09T08:57:53.000Z</time>
      </trkpt>
      <trkpt lat="47.42166" lon="6.80301">
        <ele>525</ele>
        <time>2016-10-09T08:57:54.000Z</time>
      </trkpt>
      <trkpt lat="47.4217" lon="6.80305">
        <ele>525</ele>
        <time>2016-10-09T08:57:55.000Z</time>
      </trkpt>
      <trkpt lat="47.42173" lon="6.8031">
        <ele>525</ele>
        <time>2016-10-09T08:57:56.000Z</time>
      </trkpt>
      <trkpt lat="47.42172" lon="6.80314">
        <ele>525</ele>
        <time>2016-10-09T08:57:57.000Z</time>
      </trkpt>
      <trkpt lat="47.42174" lon="6.80319">
        <ele>525</ele>
        <time>2016-10-09T08:57:58.000Z</time>
      </trkpt>
      <trkpt lat="47.42178" lon="6.80327">
        <ele>524</ele>
        <time>2016-10-09T08:57:59.000Z</time>
      </trkpt>
      <trkpt lat="47.42182" lon="6.80332">
        <ele>524</ele>
        <time>2016-10-09T08:58:00.000Z</time>
      </trkpt>
      <trkpt lat="47.42183" lon="6.8034">
        <ele>522</ele>
        <time>2016-10-09T08:58:01.000Z</time>
      </trkpt>
      <trkpt lat="47.42186" lon="6.80345">
        <ele>522</ele>
        <time>2016-10-09T08:58:02.000Z</time>
      </trkpt>
      <trkpt lat="47.42194" lon="6.80358">
        <ele>521</ele>
        <time>2016-10-09T08:58:03.000Z</time>
      </trkpt>
      <trkpt lat="47.42198" lon="6.80365">
        <ele>521</ele>
        <time>2016-10-09T08:58:04.000Z</time>
      </trkpt>
      <trkpt lat="47.42202" lon="6.80373">
        <ele>521</ele>
        <time>2016-10-09T08:58:05.000Z</time>
      </trkpt>
      <trkpt lat="47.42205" lon="6.80379">
        <ele>521</ele>
        <time>2016-10-09T08:58:06.000Z</time>
      </trkpt>
      <trkpt lat="47.42208" lon="6.80383">
        <ele>521</ele>
        <time>2016-10-09T08:58:07.000Z</time>
      </trkpt>
      <trkpt lat="47.42211" lon="6.80386">
        <ele>521</ele>
        <time>2016-10-09T08:58:08.000Z</time>
      </trkpt>
      <trkpt lat="47.42217" lon="6.80398">
        <ele>520</ele>
        <time>2016-10-09T08:58:09.000Z</time>
      </trkpt>
      <trkpt lat="47.4222" lon="6.80403">
        <ele>520</ele>
        <time>2016-10-09T08:58:10.000Z</time>
      </trkpt>
      <trkpt lat="47.42225" lon="6.80412">
        <ele>520</ele>
        <time>2016-10-09T08:58:11.000Z</time>
      </trkpt>
      <trkpt lat="47.42229" lon="6.80419">
        <ele>517</ele>
        <time>2016-10-09T08:58:12.000Z</time>
      </trkpt>
      <trkpt lat="47.42232" lon="6.80426">
        <ele>517</ele>
        <time>2016-10-09T08:58:13.000Z</time>
      </trkpt>
      <trkpt lat="47.42236" lon="6.80432">
        <ele>516</ele>
        <time>2016-10-09T08:58:14.000Z</time>
      </trkpt>
      <trkpt lat="47.42244" lon="6.80438">
        <ele>516</ele>
        <time>2016-10-09T08:58:15.000Z</time>
      </trkpt>
      <trkpt lat="47.42249" lon="6.80445">
        <ele>515</ele>
        <time>2016-10-09T08:58:16.000Z</time>
      </trkpt>
      <trkpt lat="47.42251" lon="6.80449">
        <ele>516</ele>
        <time>2016-10-09T08:58:17.000Z</time>
      </trkpt>
      <trkpt lat="47.42256" lon="6.80456">
        <ele>516</ele>
        <time>2016-10-09T08:58:18.000Z</time>
      </trkpt>
      <trkpt lat="47.42258" lon="6.80464">
        <ele>515</ele>
        <time>2016-10-09T08:58:19.000Z</time>
      </trkpt>
      <trkpt lat="47.42262" lon="6.80467">
        <ele>515</ele>
        <time>2016-10-09T08:58:20.000Z</time>
      </trkpt>
      <trkpt lat="47.42264" lon="6.80471">
        <ele>514</ele>
        <time>2016-10-09T08:58:21.000Z</time>
      </trkpt>
      <trkpt lat="47.42266" lon="6.80478">
        <ele>514</ele>
        <time>2016-10-09T08:58:22.000Z</time>
      </trkpt>
      <trkpt lat="47.4227" lon="6.80483">
        <ele>514</ele>
        <time>2016-10-09T08:58:23.000Z</time>
      </trkpt>
      <trkpt lat="47.42273" lon="6.80487">
        <ele>514</ele>
        <time>2016-10-09T08:58:24.000Z</time>
      </trkpt>
      <trkpt lat="47.42278" lon="6.80498">
        <ele>514</ele>
        <time>2016-10-09T08:58:25.000Z</time>
      </trkpt>
      <trkpt lat="47.42282" lon="6.80502">
        <ele>508</ele>
        <time>2016-10-09T08:58:26.000Z</time>
      </trkpt>
      <trkpt lat="47.42285" lon="6.80506">
        <ele>508</ele>
        <time>2016-10-09T08:58:27.000Z</time>
      </trkpt>
      <trkpt lat="47.42289" lon="6.80512">
        <ele>508</ele>
        <time>2016-10-09T08:58:28.000Z</time>
      </trkpt>
      <trkpt lat="47.42292" lon="6.80517">
        <ele>508</ele>
        <time>2016-10-09T08:58:29.000Z</time>
      </trkpt>
      <trkpt lat="47.42299" lon="6.80529">
        <ele>508</ele>
        <time>2016-10-09T08:58:30.000Z</time>
      </trkpt>
      <trkpt lat="47.42304" lon="6.80539">
        <ele>507</ele>
        <time>2016-10-09T08:58:31.000Z</time>
      </trkpt>
      <trkpt lat="47.42307" lon="6.80542">
        <ele>507</ele>
        <time>2016-10-09T08:58:32.000Z</time>
      </trkpt>
      <trkpt lat="47.42311" lon="6.80544">
        <ele>507</ele>
        <time>2016-10-09T08:58:33.000Z</time>
      </trkpt>
      <trkpt lat="47.42314" lon="6.8055">
        <ele>507</ele>
        <time>2016-10-09T08:58:34.000Z</time>
      </trkpt>
      <trkpt lat="47.42318" lon="6.80562">
        <ele>507</ele>
        <time>2016-10-09T08:58:35.000Z</time>
      </trkpt>
      <trkpt lat="47.42322" lon="6.80572">
        <ele>506</ele>
        <time>2016-10-09T08:58:36.000Z</time>
      </trkpt>
      <trkpt lat="47.42329" lon="6.80583">
        <ele>506</ele>
        <time>2016-10-09T08:58:37.000Z</time>
      </trkpt>
      <trkpt lat="47.42331" lon="6.8059">
        <ele>504</ele>
        <time>2016-10-09T08:58:38.000Z</time>
      </trkpt>
      <trkpt lat="47.42332" lon="6.80595">
        <ele>503</ele>
        <time>2016-10-09T08:58:39.000Z</time>
      </trkpt>
      <trkpt lat="47.42336" lon="6.80598">
        <ele>505</ele>
        <time>2016-10-09T08:58:40.000Z</time>
      </trkpt>
      <trkpt lat="47.42338" lon="6.80602">
        <ele>505</ele>
        <time>2016-10-09T08:58:41.000Z</time>
      </trkpt>
      <trkpt lat="47.42342" lon="6.80607">
        <ele>505</ele>
        <time>2016-10-09T08:58:42.000Z</time>
      </trkpt>
      <trkpt lat="47.42345" lon="6.8061">
        <ele>505</ele>
        <time>2016-10-09T08:58:43.000Z</time>
      </trkpt>
      <trkpt lat="47.42348" lon="6.80614">
        <ele>505</ele>
        <time>2016-10-09T08:58:44.000Z</time>
      </trkpt>
      <trkpt lat="47.42351" lon="6.80617">
        <ele>504</ele>
        <time>2016-10-09T08:58:45.000Z</time>
      </trkpt>
      <trkpt lat="47.42353" lon="6.8062">
        <ele>504</ele>
        <time>2016-10-09T08:58:46.000Z</time>
      </trkpt>
      <trkpt lat="47.42356" lon="6.80623">
        <ele>504</ele>
        <time>2016-10-09T08:58:47.000Z</time>
      </trkpt>
      <trkpt lat="47.42359" lon="6.80625">
        <ele>504</ele>
        <time>2016-10-09T08:58:48.000Z</time>
      </trkpt>
      <trkpt lat="47.42361" lon="6.80627">
        <ele>504</ele>
        <time>2016-10-09T08:58:49.000Z</time>
      </trkpt>
      <trkpt lat="47.42364" lon="6.80628">
        <ele>504</ele>
        <time>2016-10-09T08:58:50.000Z</time>
      </trkpt>
      <trkpt lat="47.42366" lon="6.80629">
        <ele>504</ele>
        <time>2016-10-09T08:58:51.000Z</time>
      </trkpt>
      <trkpt lat="47.42369" lon="6.80629">
        <ele>504</ele>
        <time>2016-10-09T08:58:52.000Z</time>
      </trkpt>
      <trkpt lat="47.42373" lon="6.8063">
        <ele>505</ele>
        <time>2016-10-09T08:58:54.000Z</time>
      </trkpt>
      <trkpt lat="47.42375" lon="6.80632">
        <ele>505</ele>
        <time>2016-10-09T08:58:55.000Z</time>
      </trkpt>
      <trkpt lat="47.42378" lon="6.80636">
        <ele>505</ele>
        <time>2016-10-09T08:58:56.000Z</time>
      </trkpt>
      <trkpt lat="47.42381" lon="6.80642">
        <ele>505</ele>
        <time>2016-10-09T08:58:57.000Z</time>
      </trkpt>
      <trkpt lat="47.42384" lon="6.80648">
        <ele>505</ele>
        <time>2016-10-09T08:58:58.000Z</time>
      </trkpt>
      <trkpt lat="47.42387" lon="6.80653">
        <ele>505</ele>
        <time>2016-10-09T08:58:59.000Z</time>
      </trkpt>
      <trkpt lat="47.42391" lon="6.80659">
        <ele>505</ele>
        <time>2016-10-09T08:59:00.000Z</time>
      </trkpt>
      <trkpt lat="47.42394" lon="6.80665">
        <ele>505</ele>
        <time>2016-10-09T08:59:01.000Z</time>
      </trkpt>
      <trkpt lat="47.42397" lon="6.80671">
        <ele>504</ele>
        <time>2016-10-09T08:59:02.000Z</time>
      </trkpt>
      <trkpt lat="47.42408" lon="6.80685">
        <ele>504</ele>
        <time>2016-10-09T08:59:03.000Z</time>
      </trkpt>
      <trkpt lat="47.42416" lon="6.80697">
        <ele>503</ele>
        <time>2016-10-09T08:59:05.000Z</time>
      </trkpt>
      <trkpt lat="47.4242" lon="6.80706">
        <ele>500</ele>
        <time>2016-10-09T08:59:06.000Z</time>
      </trkpt>
      <trkpt lat="47.42424" lon="6.80711">
        <ele>500</ele>
        <time>2016-10-09T08:59:07.000Z</time>
      </trkpt>
      <trkpt lat="47.42428" lon="6.80716">
        <ele>500</ele>
        <time>2016-10-09T08:59:08.000Z</time>
      </trkpt>
      <trkpt lat="47.42432" lon="6.80722">
        <ele>500</ele>
        <time>2016-10-09T08:59:09.000Z</time>
      </trkpt>
      <trkpt lat="47.42436" lon="6.80727">
        <ele>500</ele>
        <time>2016-10-09T08:59:10.000Z</time>
      </trkpt>
      <trkpt lat="47.42442" lon="6.80734">
        <ele>500</ele>
        <time>2016-10-09T08:59:11.000Z</time>
      </trkpt>
      <trkpt lat="47.42445" lon="6.80741">
        <ele>499</ele>
        <time>2016-10-09T08:59:12.000Z</time>
      </trkpt>
      <trkpt lat="47.42448" lon="6.80744">
        <ele>499</ele>
        <time>2016-10-09T08:59:13.000Z</time>
      </trkpt>
      <trkpt lat="47.42452" lon="6.80748">
        <ele>498</ele>
        <time>2016-10-09T08:59:14.000Z</time>
      </trkpt>
      <trkpt lat="47.4246" lon="6.80751">
        <ele>498</ele>
        <time>2016-10-09T08:59:15.000Z</time>
      </trkpt>
      <trkpt lat="47.42467" lon="6.80754">
        <ele>498</ele>
        <time>2016-10-09T08:59:16.000Z</time>
      </trkpt>
      <trkpt lat="47.42476" lon="6.8076">
        <ele>497</ele>
        <time>2016-10-09T08:59:17.000Z</time>
      </trkpt>
      <trkpt lat="47.42484" lon="6.80765">
        <ele>496</ele>
        <time>2016-10-09T08:59:18.000Z</time>
      </trkpt>
      <trkpt lat="47.42491" lon="6.80772">
        <ele>496</ele>
        <time>2016-10-09T08:59:19.000Z</time>
      </trkpt>
      <trkpt lat="47.42496" lon="6.80774">
        <ele>496</ele>
        <time>2016-10-09T08:59:20.000Z</time>
      </trkpt>
      <trkpt lat="47.42503" lon="6.80779">
        <ele>491</ele>
        <time>2016-10-09T08:59:21.000Z</time>
      </trkpt>
      <trkpt lat="47.42508" lon="6.80791">
        <ele>492</ele>
        <time>2016-10-09T08:59:22.000Z</time>
      </trkpt>
      <trkpt lat="47.42513" lon="6.80801">
        <ele>492</ele>
        <time>2016-10-09T08:59:23.000Z</time>
      </trkpt>
      <trkpt lat="47.42515" lon="6.80797">
        <ele>492</ele>
        <time>2016-10-09T08:59:24.000Z</time>
      </trkpt>
      <trkpt lat="47.42519" lon="6.80802">
        <ele>492</ele>
        <time>2016-10-09T08:59:25.000Z</time>
      </trkpt>
      <trkpt lat="47.42523" lon="6.80803">
        <ele>492</ele>
        <time>2016-10-09T08:59:26.000Z</time>
      </trkpt>
      <trkpt lat="47.42534" lon="6.80801">
        <ele>491</ele>
        <time>2016-10-09T08:59:27.000Z</time>
      </trkpt>
      <trkpt lat="47.4254" lon="6.80803">
        <ele>491</ele>
        <time>2016-10-09T08:59:28.000Z</time>
      </trkpt>
      <trkpt lat="47.42547" lon="6.80808">
        <ele>490</ele>
        <time>2016-10-09T08:59:29.000Z</time>
      </trkpt>
      <trkpt lat="47.42555" lon="6.80812">
        <ele>490</ele>
        <time>2016-10-09T08:59:30.000Z</time>
      </trkpt>
      <trkpt lat="47.42564" lon="6.80819">
        <ele>490</ele>
        <time>2016-10-09T08:59:31.000Z</time>
      </trkpt>
      <trkpt lat="47.42574" lon="6.80828">
        <ele>490</ele>
        <time>2016-10-09T08:59:32.000Z</time>
      </trkpt>
      <trkpt lat="47.42583" lon="6.80839">
        <ele>491</ele>
        <time>2016-10-09T08:59:33.000Z</time>
      </trkpt>
      <trkpt lat="47.42592" lon="6.80847">
        <ele>488</ele>
        <time>2016-10-09T08:59:34.000Z</time>
      </trkpt>
      <trkpt lat="47.426" lon="6.80849">
        <ele>487</ele>
        <time>2016-10-09T08:59:35.000Z</time>
      </trkpt>
      <trkpt lat="47.42609" lon="6.80856">
        <ele>487</ele>
        <time>2016-10-09T08:59:36.000Z</time>
      </trkpt>
      <trkpt lat="47.42614" lon="6.80869">
        <ele>486</ele>
        <time>2016-10-09T08:59:37.000Z</time>
      </trkpt>
      <trkpt lat="47.42619" lon="6.80876">
        <ele>486</ele>
        <time>2016-10-09T08:59:38.000Z</time>
      </trkpt>
      <trkpt lat="47.42625" lon="6.80889">
        <ele>486</ele>
        <time>2016-10-09T08:59:39.000Z</time>
      </trkpt>
      <trkpt lat="47.42628" lon="6.80896">
        <ele>486</ele>
        <time>2016-10-09T08:59:40.000Z</time>
      </trkpt>
      <trkpt lat="47.4263" lon="6.80905">
        <ele>486</ele>
        <time>2016-10-09T08:59:41.000Z</time>
      </trkpt>
      <trkpt lat="47.42636" lon="6.80905">
        <ele>486</ele>
        <time>2016-10-09T08:59:42.000Z</time>
      </trkpt>
      <trkpt lat="47.4264" lon="6.80907">
        <ele>486</ele>
        <time>2016-10-09T08:59:43.000Z</time>
      </trkpt>
      <trkpt lat="47.42645" lon="6.8091">
        <ele>485</ele>
        <time>2016-10-09T08:59:44.000Z</time>
      </trkpt>
      <trkpt lat="47.42648" lon="6.80919">
        <ele>486</ele>
        <time>2016-10-09T08:59:45.000Z</time>
      </trkpt>
      <trkpt lat="47.42651" lon="6.80922">
        <ele>486</ele>
        <time>2016-10-09T08:59:46.000Z</time>
      </trkpt>
      <trkpt lat="47.42654" lon="6.80921">
        <ele>485</ele>
        <time>2016-10-09T08:59:47.000Z</time>
      </trkpt>
      <trkpt lat="47.42656" lon="6.8092">
        <ele>485</ele>
        <time>2016-10-09T08:59:48.000Z</time>
      </trkpt>
      <trkpt lat="47.42661" lon="6.80926">
        <ele>485</ele>
        <time>2016-10-09T08:59:49.000Z</time>
      </trkpt>
      <trkpt lat="47.42662" lon="6.80925">
        <ele>485</ele>
        <time>2016-10-09T08:59:50.000Z</time>
      </trkpt>
      <trkpt lat="47.42665" lon="6.80926">
        <ele>485</ele>
        <time>2016-10-09T08:59:51.000Z</time>
      </trkpt>
      <trkpt lat="47.42668" lon="6.8093">
        <ele>483</ele>
        <time>2016-10-09T08:59:52.000Z</time>
      </trkpt>
      <trkpt lat="47.4267" lon="6.80933">
        <ele>483</ele>
        <time>2016-10-09T08:59:53.000Z</time>
      </trkpt>
      <trkpt lat="47.42674" lon="6.80936">
        <ele>483</ele>
        <time>2016-10-09T08:59:55.000Z</time>
      </trkpt>
      <trkpt lat="47.42674" lon="6.80937">
        <ele>483</ele>
        <time>2016-10-09T08:59:56.000Z</time>
      </trkpt>
      <trkpt lat="47.42676" lon="6.80938">
        <ele>483</ele>
        <time>2016-10-09T08:59:57.000Z</time>
      </trkpt>
      <trkpt lat="47.42679" lon="6.8094">
        <ele>483</ele>
        <time>2016-10-09T08:59:58.000Z</time>
      </trkpt>
      <trkpt lat="47.42681" lon="6.80941">
        <ele>483</ele>
        <time>2016-10-09T08:59:59.000Z</time>
      </trkpt>
      <trkpt lat="47.42687" lon="6.8095">
        <ele>483</ele>
        <time>2016-10-09T09:00:00.000Z</time>
      </trkpt>
      <trkpt lat="47.42691" lon="6.80949">
        <ele>483</ele>
        <time>2016-10-09T09:00:03.000Z</time>
      </trkpt>
      <trkpt lat="47.42697" lon="6.80963">
        <ele>483</ele>
        <time>2016-10-09T09:00:05.000Z</time>
      </trkpt>
      <trkpt lat="47.42699" lon="6.80961">
        <ele>483</ele>
        <time>2016-10-09T09:00:06.000Z</time>
      </trkpt>
      <trkpt lat="47.42704" lon="6.80969">
        <ele>483</ele>
        <time>2016-10-09T09:00:07.000Z</time>
      </trkpt>
      <trkpt lat="47.42706" lon="6.80972">
        <ele>483</ele>
        <time>2016-10-09T09:00:09.000Z</time>
      </trkpt>
      <trkpt lat="47.42708" lon="6.80973">
        <ele>483</ele>
        <time>2016-10-09T09:00:10.000Z</time>
      </trkpt>
      <trkpt lat="47.42711" lon="6.80977">
        <ele>483</ele>
        <time>2016-10-09T09:00:12.000Z</time>
      </trkpt>
      <trkpt lat="47.42713" lon="6.80979">
        <ele>483</ele>
        <time>2016-10-09T09:00:13.000Z</time>
      </trkpt>
      <trkpt lat="47.42716" lon="6.80981">
        <ele>483</ele>
        <time>2016-10-09T09:00:14.000Z</time>
      </trkpt>
      <trkpt lat="47.42724" lon="6.80987">
        <ele>484</ele>
        <time>2016-10-09T09:00:15.000Z</time>
      </trkpt>
      <trkpt lat="47.42728" lon="6.80991">
        <ele>484</ele>
        <time>2016-10-09T09:00:16.000Z</time>
      </trkpt>
      <trkpt lat="47.42731" lon="6.80993">
        <ele>484</ele>
        <time>2016-10-09T09:00:17.000Z</time>
      </trkpt>
      <trkpt lat="47.42736" lon="6.80995">
        <ele>484</ele>
        <time>2016-10-09T09:00:18.000Z</time>
      </trkpt>
      <trkpt lat="47.42742" lon="6.81001">
        <ele>484</ele>
        <time>2016-10-09T09:00:19.000Z</time>
      </trkpt>
      <trkpt lat="47.42748" lon="6.81005">
        <ele>484</ele>
        <time>2016-10-09T09:00:20.000Z</time>
      </trkpt>
      <trkpt lat="47.42751" lon="6.8101">
        <ele>483</ele>
        <time>2016-10-09T09:00:21.000Z</time>
      </trkpt>
      <trkpt lat="47.42755" lon="6.81015">
        <ele>482</ele>
        <time>2016-10-09T09:00:22.000Z</time>
      </trkpt>
      <trkpt lat="47.42764" lon="6.81037">
        <ele>479</ele>
        <time>2016-10-09T09:00:23.000Z</time>
      </trkpt>
      <trkpt lat="47.42773" lon="6.81051">
        <ele>478</ele>
        <time>2016-10-09T09:00:24.000Z</time>
      </trkpt>
      <trkpt lat="47.42777" lon="6.81052">
        <ele>478</ele>
        <time>2016-10-09T09:00:25.000Z</time>
      </trkpt>
      <trkpt lat="47.42782" lon="6.81056">
        <ele>478</ele>
        <time>2016-10-09T09:00:26.000Z</time>
      </trkpt>
      <trkpt lat="47.42791" lon="6.81062">
        <ele>478</ele>
        <time>2016-10-09T09:00:27.000Z</time>
      </trkpt>
      <trkpt lat="47.42795" lon="6.81064">
        <ele>478</ele>
        <time>2016-10-09T09:00:28.000Z</time>
      </trkpt>
      <trkpt lat="47.42798" lon="6.81066">
        <ele>478</ele>
        <time>2016-10-09T09:00:29.000Z</time>
      </trkpt>
      <trkpt lat="47.42799" lon="6.81071">
        <ele>478</ele>
        <time>2016-10-09T09:00:30.000Z</time>
      </trkpt>
      <trkpt lat="47.42801" lon="6.81073">
        <ele>478</ele>
        <time>2016-10-09T09:00:31.000Z</time>
      </trkpt>
      <trkpt lat="47.42804" lon="6.8108">
        <ele>478</ele>
        <time>2016-10-09T09:00:32.000Z</time>
      </trkpt>
      <trkpt lat="47.42806" lon="6.81087">
        <ele>474</ele>
        <time>2016-10-09T09:00:33.000Z</time>
      </trkpt>
      <trkpt lat="47.42809" lon="6.81091">
        <ele>474</ele>
        <time>2016-10-09T09:00:35.000Z</time>
      </trkpt>
      <trkpt lat="47.42817" lon="6.811">
        <ele>474</ele>
        <time>2016-10-09T09:00:36.000Z</time>
      </trkpt>
      <trkpt lat="47.42819" lon="6.81106">
        <ele>474</ele>
        <time>2016-10-09T09:00:37.000Z</time>
      </trkpt>
      <trkpt lat="47.42824" lon="6.81111">
        <ele>474</ele>
        <time>2016-10-09T09:00:38.000Z</time>
      </trkpt>
      <trkpt lat="47.42829" lon="6.81115">
        <ele>473</ele>
        <time>2016-10-09T09:00:39.000Z</time>
      </trkpt>
      <trkpt lat="47.42836" lon="6.8112">
        <ele>472</ele>
        <time>2016-10-09T09:00:40.000Z</time>
      </trkpt>
      <trkpt lat="47.42841" lon="6.81125">
        <ele>472</ele>
        <time>2016-10-09T09:00:41.000Z</time>
      </trkpt>
      <trkpt lat="47.42846" lon="6.81137">
        <ele>471</ele>
        <time>2016-10-09T09:00:42.000Z</time>
      </trkpt>
      <trkpt lat="47.42849" lon="6.81144">
        <ele>471</ele>
        <time>2016-10-09T09:00:43.000Z</time>
      </trkpt>
      <trkpt lat="47.42852" lon="6.8115">
        <ele>471</ele>
        <time>2016-10-09T09:00:44.000Z</time>
      </trkpt>
      <trkpt lat="47.42854" lon="6.81156">
        <ele>471</ele>
        <time>2016-10-09T09:00:45.000Z</time>
      </trkpt>
      <trkpt lat="47.42856" lon="6.81164">
        <ele>471</ele>
        <time>2016-10-09T09:00:46.000Z</time>
      </trkpt>
      <trkpt lat="47.4286" lon="6.81168">
        <ele>469</ele>
        <time>2016-10-09T09:00:47.000Z</time>
      </trkpt>
      <trkpt lat="47.42864" lon="6.81173">
        <ele>469</ele>
        <time>2016-10-09T09:00:48.000Z</time>
      </trkpt>
      <trkpt lat="47.42866" lon="6.81177">
        <ele>469</ele>
        <time>2016-10-09T09:00:49.000Z</time>
      </trkpt>
      <trkpt lat="47.42867" lon="6.81181">
        <ele>469</ele>
        <time>2016-10-09T09:00:50.000Z</time>
      </trkpt>
      <trkpt lat="47.42869" lon="6.81186">
        <ele>469</ele>
        <time>2016-10-09T09:00:52.000Z</time>
      </trkpt>
      <trkpt lat="47.4287" lon="6.81189">
        <ele>469</ele>
        <time>2016-10-09T09:00:53.000Z</time>
      </trkpt>
      <trkpt lat="47.42872" lon="6.81193">
        <ele>468</ele>
        <time>2016-10-09T09:00:54.000Z</time>
      </trkpt>
      <trkpt lat="47.42875" lon="6.81198">
        <ele>468</ele>
        <time>2016-10-09T09:00:55.000Z</time>
      </trkpt>
      <trkpt lat="47.42878" lon="6.81204">
        <ele>468</ele>
        <time>2016-10-09T09:00:56.000Z</time>
      </trkpt>
      <trkpt lat="47.42882" lon="6.8121">
        <ele>468</ele>
        <time>2016-10-09T09:00:57.000Z</time>
      </trkpt>
      <trkpt lat="47.42886" lon="6.81216">
        <ele>468</ele>
        <time>2016-10-09T09:00:58.000Z</time>
      </trkpt>
      <trkpt lat="47.42889" lon="6.81223">
        <ele>468</ele>
        <time>2016-10-09T09:00:59.000Z</time>
      </trkpt>
      <trkpt lat="47.42891" lon="6.81229">
        <ele>468</ele>
        <time>2016-10-09T09:01:00.000Z</time>
      </trkpt>
      <trkpt lat="47.42893" lon="6.81234">
        <ele>468</ele>
        <time>2016-10-09T09:01:01.000Z</time>
      </trkpt>
      <trkpt lat="47.42894" lon="6.81238">
        <ele>468</ele>
        <time>2016-10-09T09:01:02.000Z</time>
      </trkpt>
      <trkpt lat="47.42897" lon="6.81243">
        <ele>468</ele>
        <time>2016-10-09T09:01:03.000Z</time>
      </trkpt>
      <trkpt lat="47.429" lon="6.81248">
        <ele>468</ele>
        <time>2016-10-09T09:01:04.000Z</time>
      </trkpt>
      <trkpt lat="47.42904" lon="6.81254">
        <ele>466</ele>
        <time>2016-10-09T09:01:05.000Z</time>
      </trkpt>
      <trkpt lat="47.42907" lon="6.81257">
        <ele>466</ele>
        <time>2016-10-09T09:01:06.000Z</time>
      </trkpt>
      <trkpt lat="47.4291" lon="6.81258">
        <ele>466</ele>
        <time>2016-10-09T09:01:07.000Z</time>
      </trkpt>
      <trkpt lat="47.42914" lon="6.8126">
        <ele>466</ele>
        <time>2016-10-09T09:01:09.000Z</time>
      </trkpt>
      <trkpt lat="47.42915" lon="6.81262">
        <ele>466</ele>
        <time>2016-10-09T09:01:10.000Z</time>
      </trkpt>
      <trkpt lat="47.42918" lon="6.81265">
        <ele>467</ele>
        <time>2016-10-09T09:01:12.000Z</time>
      </trkpt>
      <trkpt lat="47.4292" lon="6.81268">
        <ele>467</ele>
        <time>2016-10-09T09:01:13.000Z</time>
      </trkpt>
      <trkpt lat="47.42921" lon="6.81271">
        <ele>467</ele>
        <time>2016-10-09T09:01:14.000Z</time>
      </trkpt>
      <trkpt lat="47.42923" lon="6.81274">
        <ele>466</ele>
        <time>2016-10-09T09:01:15.000Z</time>
      </trkpt>
      <trkpt lat="47.42925" lon="6.81277">
        <ele>466</ele>
        <time>2016-10-09T09:01:16.000Z</time>
      </trkpt>
      <trkpt lat="47.42927" lon="6.8128">
        <ele>466</ele>
        <time>2016-10-09T09:01:17.000Z</time>
      </trkpt>
      <trkpt lat="47.42929" lon="6.81283">
        <ele>466</ele>
        <time>2016-10-09T09:01:18.000Z</time>
      </trkpt>
      <trkpt lat="47.4293" lon="6.81285">
        <ele>466</ele>
        <time>2016-10-09T09:01:19.000Z</time>
      </trkpt>
      <trkpt lat="47.42932" lon="6.81288">
        <ele>465</ele>
        <time>2016-10-09T09:01:20.000Z</time>
      </trkpt>
      <trkpt lat="47.42934" lon="6.81291">
        <ele>465</ele>
        <time>2016-10-09T09:01:21.000Z</time>
      </trkpt>
      <trkpt lat="47.42936" lon="6.81295">
        <ele>465</ele>
        <time>2016-10-09T09:01:22.000Z</time>
      </trkpt>
      <trkpt lat="47.42937" lon="6.81297">
        <ele>465</ele>
        <time>2016-10-09T09:01:23.000Z</time>
      </trkpt>
      <trkpt lat="47.42938" lon="6.81303">
        <ele>465</ele>
        <time>2016-10-09T09:01:25.000Z</time>
      </trkpt>
      <trkpt lat="47.42939" lon="6.81306">
        <ele>465</ele>
        <time>2016-10-09T09:01:26.000Z</time>
      </trkpt>
      <trkpt lat="47.42942" lon="6.81311">
        <ele>465</ele>
        <time>2016-10-09T09:01:28.000Z</time>
      </trkpt>
      <trkpt lat="47.42943" lon="6.81315">
        <ele>465</ele>
        <time>2016-10-09T09:01:29.000Z</time>
      </trkpt>
      <trkpt lat="47.42944" lon="6.81319">
        <ele>465</ele>
        <time>2016-10-09T09:01:30.000Z</time>
      </trkpt>
      <trkpt lat="47.42946" lon="6.81322">
        <ele>465</ele>
        <time>2016-10-09T09:01:31.000Z</time>
      </trkpt>
      <trkpt lat="47.42948" lon="6.81326">
        <ele>465</ele>
        <time>2016-10-09T09:01:32.000Z</time>
      </trkpt>
      <trkpt lat="47.42951" lon="6.81329">
        <ele>465</ele>
        <time>2016-10-09T09:01:33.000Z</time>
      </trkpt>
      <trkpt lat="47.42953" lon="6.81332">
        <ele>465</ele>
        <time>2016-10-09T09:01:34.000Z</time>
      </trkpt>
      <trkpt lat="47.42955" lon="6.81335">
        <ele>462</ele>
        <time>2016-10-09T09:01:35.000Z</time>
      </trkpt>
      <trkpt lat="47.42957" lon="6.81339">
        <ele>463</ele>
        <time>2016-10-09T09:01:36.000Z</time>
      </trkpt>
      <trkpt lat="47.4296" lon="6.81344">
        <ele>463</ele>
        <time>2016-10-09T09:01:37.000Z</time>
      </trkpt>
      <trkpt lat="47.42963" lon="6.81349">
        <ele>463</ele>
        <time>2016-10-09T09:01:38.000Z</time>
      </trkpt>
      <trkpt lat="47.42965" lon="6.81354">
        <ele>463</ele>
        <time>2016-10-09T09:01:39.000Z</time>
      </trkpt>
      <trkpt lat="47.42968" lon="6.81358">
        <ele>463</ele>
        <time>2016-10-09T09:01:40.000Z</time>
      </trkpt>
      <trkpt lat="47.42971" lon="6.81364">
        <ele>462</ele>
        <time>2016-10-09T09:01:41.000Z</time>
      </trkpt>
      <trkpt lat="47.42974" lon="6.81369">
        <ele>462</ele>
        <time>2016-10-09T09:01:42.000Z</time>
      </trkpt>
      <trkpt lat="47.42978" lon="6.81375">
        <ele>462</ele>
        <time>2016-10-09T09:01:43.000Z</time>
      </trkpt>
      <trkpt lat="47.42982" lon="6.81381">
        <ele>462</ele>
        <time>2016-10-09T09:01:44.000Z</time>
      </trkpt>
      <trkpt lat="47.42985" lon="6.81385">
        <ele>462</ele>
        <time>2016-10-09T09:01:45.000Z</time>
      </trkpt>
      <trkpt lat="47.42988" lon="6.81388">
        <ele>463</ele>
        <time>2016-10-09T09:01:46.000Z</time>
      </trkpt>
      <trkpt lat="47.42991" lon="6.81391">
        <ele>463</ele>
        <time>2016-10-09T09:01:47.000Z</time>
      </trkpt>
      <trkpt lat="47.42994" lon="6.81394">
        <ele>463</ele>
        <time>2016-10-09T09:01:48.000Z</time>
      </trkpt>
      <trkpt lat="47.42997" lon="6.81397">
        <ele>463</ele>
        <time>2016-10-09T09:01:49.000Z</time>
      </trkpt>
      <trkpt lat="47.43" lon="6.814">
        <ele>463</ele>
        <time>2016-10-09T09:01:50.000Z</time>
      </trkpt>
      <trkpt lat="47.43004" lon="6.81403">
        <ele>463</ele>
        <time>2016-10-09T09:01:51.000Z</time>
      </trkpt>
      <trkpt lat="47.43008" lon="6.81406">
        <ele>463</ele>
        <time>2016-10-09T09:01:52.000Z</time>
      </trkpt>
      <trkpt lat="47.43013" lon="6.81411">
        <ele>463</ele>
        <time>2016-10-09T09:01:53.000Z</time>
      </trkpt>
      <trkpt lat="47.43017" lon="6.81416">
        <ele>463</ele>
        <time>2016-10-09T09:01:54.000Z</time>
      </trkpt>
      <trkpt lat="47.43027" lon="6.81426">
        <ele>460</ele>
        <time>2016-10-09T09:01:55.000Z</time>
      </trkpt>
      <trkpt lat="47.43032" lon="6.8143">
        <ele>460</ele>
        <time>2016-10-09T09:01:56.000Z</time>
      </trkpt>
      <trkpt lat="47.43036" lon="6.81434">
        <ele>460</ele>
        <time>2016-10-09T09:01:57.000Z</time>
      </trkpt>
      <trkpt lat="47.4304" lon="6.81438">
        <ele>459</ele>
        <time>2016-10-09T09:01:58.000Z</time>
      </trkpt>
      <trkpt lat="47.43044" lon="6.81443">
        <ele>459</ele>
        <time>2016-10-09T09:01:59.000Z</time>
      </trkpt>
      <trkpt lat="47.43052" lon="6.81454">
        <ele>458</ele>
        <time>2016-10-09T09:02:00.000Z</time>
      </trkpt>
      <trkpt lat="47.43061" lon="6.81482">
        <ele>457</ele>
        <time>2016-10-09T09:02:01.000Z</time>
      </trkpt>
      <trkpt lat="47.43067" lon="6.81501">
        <ele>453</ele>
        <time>2016-10-09T09:02:02.000Z</time>
      </trkpt>
      <trkpt lat="47.43069" lon="6.81511">
        <ele>452</ele>
        <time>2016-10-09T09:02:03.000Z</time>
      </trkpt>
      <trkpt lat="47.43057" lon="6.8152">
        <ele>451</ele>
        <time>2016-10-09T09:02:05.000Z</time>
      </trkpt>
      <trkpt lat="47.43053" lon="6.81523">
        <ele>451</ele>
        <time>2016-10-09T09:02:06.000Z</time>
      </trkpt>
      <trkpt lat="47.43049" lon="6.81525">
        <ele>451</ele>
        <time>2016-10-09T09:02:07.000Z</time>
      </trkpt>
      <trkpt lat="47.43048" lon="6.8153">
        <ele>451</ele>
        <time>2016-10-09T09:02:08.000Z</time>
      </trkpt>
      <trkpt lat="47.4305" lon="6.81536">
        <ele>450</ele>
        <time>2016-10-09T09:02:09.000Z</time>
      </trkpt>
      <trkpt lat="47.43051" lon="6.81541">
        <ele>450</ele>
        <time>2016-10-09T09:02:10.000Z</time>
      </trkpt>
      <trkpt lat="47.43052" lon="6.81544">
        <ele>450</ele>
        <time>2016-10-09T09:02:11.000Z</time>
      </trkpt>
      <trkpt lat="47.43056" lon="6.81543">
        <ele>450</ele>
        <time>2016-10-09T09:02:13.000Z</time>
      </trkpt>
      <trkpt lat="47.43059" lon="6.81545">
        <ele>449</ele>
        <time>2016-10-09T09:02:14.000Z</time>
      </trkpt>
      <trkpt lat="47.43061" lon="6.81546">
        <ele>449</ele>
        <time>2016-10-09T09:02:15.000Z</time>
      </trkpt>
      <trkpt lat="47.43064" lon="6.81547">
        <ele>449</ele>
        <time>2016-10-09T09:02:16.000Z</time>
      </trkpt>
      <trkpt lat="47.43066" lon="6.81548">
        <ele>449</ele>
        <time>2016-10-09T09:02:17.000Z</time>
      </trkpt>
      <trkpt lat="47.43069" lon="6.81549">
        <ele>449</ele>
        <time>2016-10-09T09:02:18.000Z</time>
      </trkpt>
      <trkpt lat="47.43072" lon="6.8155">
        <ele>449</ele>
        <time>2016-10-09T09:02:19.000Z</time>
      </trkpt>
      <trkpt lat="47.43075" lon="6.81551">
        <ele>449</ele>
        <time>2016-10-09T09:02:20.000Z</time>
      </trkpt>
      <trkpt lat="47.43079" lon="6.81552">
        <ele>449</ele>
        <time>2016-10-09T09:02:21.000Z</time>
      </trkpt>
      <trkpt lat="47.43084" lon="6.81553">
        <ele>447</ele>
        <time>2016-10-09T09:02:22.000Z</time>
      </trkpt>
      <trkpt lat="47.43089" lon="6.81553">
        <ele>447</ele>
        <time>2016-10-09T09:02:23.000Z</time>
      </trkpt>
      <trkpt lat="47.43094" lon="6.81552">
        <ele>447</ele>
        <time>2016-10-09T09:02:24.000Z</time>
      </trkpt>
      <trkpt lat="47.43112" lon="6.81554">
        <ele>446</ele>
        <time>2016-10-09T09:02:25.000Z</time>
      </trkpt>
      <trkpt lat="47.4312" lon="6.81559">
        <ele>446</ele>
        <time>2016-10-09T09:02:26.000Z</time>
      </trkpt>
      <trkpt lat="47.43125" lon="6.8156">
        <ele>446</ele>
        <time>2016-10-09T09:02:27.000Z</time>
      </trkpt>
      <trkpt lat="47.4313" lon="6.81558">
        <ele>446</ele>
        <time>2016-10-09T09:02:28.000Z</time>
      </trkpt>
      <trkpt lat="47.4314" lon="6.81564">
        <ele>445</ele>
        <time>2016-10-09T09:02:29.000Z</time>
      </trkpt>
      <trkpt lat="47.4315" lon="6.81565">
        <ele>445</ele>
        <time>2016-10-09T09:02:30.000Z</time>
      </trkpt>
      <trkpt lat="47.43159" lon="6.81564">
        <ele>444</ele>
        <time>2016-10-09T09:02:31.000Z</time>
      </trkpt>
      <trkpt lat="47.43167" lon="6.81565">
        <ele>443</ele>
        <time>2016-10-09T09:02:32.000Z</time>
      </trkpt>
      <trkpt lat="47.43173" lon="6.81566">
        <ele>443</ele>
        <time>2016-10-09T09:02:33.000Z</time>
      </trkpt>
      <trkpt lat="47.43179" lon="6.81567">
        <ele>443</ele>
        <time>2016-10-09T09:02:34.000Z</time>
      </trkpt>
      <trkpt lat="47.43186" lon="6.8157">
        <ele>443</ele>
        <time>2016-10-09T09:02:35.000Z</time>
      </trkpt>
      <trkpt lat="47.43194" lon="6.8157">
        <ele>443</ele>
        <time>2016-10-09T09:02:36.000Z</time>
      </trkpt>
      <trkpt lat="47.43201" lon="6.81572">
        <ele>443</ele>
        <time>2016-10-09T09:02:37.000Z</time>
      </trkpt>
      <trkpt lat="47.43209" lon="6.81578">
        <ele>443</ele>
        <time>2016-10-09T09:02:38.000Z</time>
      </trkpt>
      <trkpt lat="47.43216" lon="6.81583">
        <ele>443</ele>
        <time>2016-10-09T09:02:39.000Z</time>
      </trkpt>
      <trkpt lat="47.43225" lon="6.81589">
        <ele>438</ele>
        <time>2016-10-09T09:02:40.000Z</time>
      </trkpt>
      <trkpt lat="47.43231" lon="6.81593">
        <ele>439</ele>
        <time>2016-10-09T09:02:41.000Z</time>
      </trkpt>
      <trkpt lat="47.43234" lon="6.81591">
        <ele>439</ele>
        <time>2016-10-09T09:02:42.000Z</time>
      </trkpt>
      <trkpt lat="47.43239" lon="6.81596">
        <ele>439</ele>
        <time>2016-10-09T09:02:43.000Z</time>
      </trkpt>
      <trkpt lat="47.43242" lon="6.81602">
        <ele>439</ele>
        <time>2016-10-09T09:02:44.000Z</time>
      </trkpt>
      <trkpt lat="47.43245" lon="6.81611">
        <ele>438</ele>
        <time>2016-10-09T09:02:45.000Z</time>
      </trkpt>
      <trkpt lat="47.43247" lon="6.81618">
        <ele>437</ele>
        <time>2016-10-09T09:02:46.000Z</time>
      </trkpt>
      <trkpt lat="47.43249" lon="6.81624">
        <ele>436</ele>
        <time>2016-10-09T09:02:47.000Z</time>
      </trkpt>
      <trkpt lat="47.4325" lon="6.81631">
        <ele>435</ele>
        <time>2016-10-09T09:02:48.000Z</time>
      </trkpt>
      <trkpt lat="47.43252" lon="6.81631">
        <ele>436</ele>
        <time>2016-10-09T09:02:49.000Z</time>
      </trkpt>
      <trkpt lat="47.43256" lon="6.81633">
        <ele>436</ele>
        <time>2016-10-09T09:02:50.000Z</time>
      </trkpt>
      <trkpt lat="47.43259" lon="6.81637">
        <ele>436</ele>
        <time>2016-10-09T09:02:51.000Z</time>
      </trkpt>
      <trkpt lat="47.43264" lon="6.81645">
        <ele>435</ele>
        <time>2016-10-09T09:02:52.000Z</time>
      </trkpt>
      <trkpt lat="47.43269" lon="6.81652">
        <ele>435</ele>
        <time>2016-10-09T09:02:53.000Z</time>
      </trkpt>
      <trkpt lat="47.43273" lon="6.81654">
        <ele>435</ele>
        <time>2016-10-09T09:02:54.000Z</time>
      </trkpt>
      <trkpt lat="47.43276" lon="6.81654">
        <ele>435</ele>
        <time>2016-10-09T09:02:55.000Z</time>
      </trkpt>
      <trkpt lat="47.43278" lon="6.81661">
        <ele>435</ele>
        <time>2016-10-09T09:02:56.000Z</time>
      </trkpt>
      <trkpt lat="47.43283" lon="6.81664">
        <ele>435</ele>
        <time>2016-10-09T09:02:57.000Z</time>
      </trkpt>
      <trkpt lat="47.43288" lon="6.81663">
        <ele>435</ele>
        <time>2016-10-09T09:02:58.000Z</time>
      </trkpt>
      <trkpt lat="47.43291" lon="6.81663">
        <ele>435</ele>
        <time>2016-10-09T09:02:59.000Z</time>
      </trkpt>
      <trkpt lat="47.43295" lon="6.81665">
        <ele>435</ele>
        <time>2016-10-09T09:03:00.000Z</time>
      </trkpt>
      <trkpt lat="47.43303" lon="6.81672">
        <ele>427</ele>
        <time>2016-10-09T09:03:01.000Z</time>
      </trkpt>
      <trkpt lat="47.43306" lon="6.81676">
        <ele>427</ele>
        <time>2016-10-09T09:03:02.000Z</time>
      </trkpt>
      <trkpt lat="47.4331" lon="6.81677">
        <ele>427</ele>
        <time>2016-10-09T09:03:03.000Z</time>
      </trkpt>
      <trkpt lat="47.43314" lon="6.81678">
        <ele>428</ele>
        <time>2016-10-09T09:03:04.000Z</time>
      </trkpt>
      <trkpt lat="47.43317" lon="6.81681">
        <ele>428</ele>
        <time>2016-10-09T09:03:06.000Z</time>
      </trkpt>
      <trkpt lat="47.4332" lon="6.81683">
        <ele>428</ele>
        <time>2016-10-09T09:03:07.000Z</time>
      </trkpt>
      <trkpt lat="47.43323" lon="6.81687">
        <ele>427</ele>
        <time>2016-10-09T09:03:09.000Z</time>
      </trkpt>
      <trkpt lat="47.43326" lon="6.81688">
        <ele>427</ele>
        <time>2016-10-09T09:03:10.000Z</time>
      </trkpt>
      <trkpt lat="47.4333" lon="6.8169">
        <ele>427</ele>
        <time>2016-10-09T09:03:12.000Z</time>
      </trkpt>
      <trkpt lat="47.43332" lon="6.81692">
        <ele>427</ele>
        <time>2016-10-09T09:03:13.000Z</time>
      </trkpt>
      <trkpt lat="47.43334" lon="6.81694">
        <ele>425</ele>
        <time>2016-10-09T09:03:14.000Z</time>
      </trkpt>
      <trkpt lat="47.43337" lon="6.81695">
        <ele>424</ele>
        <time>2016-10-09T09:03:15.000Z</time>
      </trkpt>
      <trkpt lat="47.4334" lon="6.81694">
        <ele>424</ele>
        <time>2016-10-09T09:03:16.000Z</time>
      </trkpt>
      <trkpt lat="47.43343" lon="6.81692">
        <ele>425</ele>
        <time>2016-10-09T09:03:17.000Z</time>
      </trkpt>
      <trkpt lat="47.43354" lon="6.81699">
        <ele>423</ele>
        <time>2016-10-09T09:03:18.000Z</time>
      </trkpt>
      <trkpt lat="47.43357" lon="6.81702">
        <ele>422</ele>
        <time>2016-10-09T09:03:19.000Z</time>
      </trkpt>
      <trkpt lat="47.4336" lon="6.81706">
        <ele>421</ele>
        <time>2016-10-09T09:03:20.000Z</time>
      </trkpt>
      <trkpt lat="47.43364" lon="6.81709">
        <ele>421</ele>
        <time>2016-10-09T09:03:21.000Z</time>
      </trkpt>
      <trkpt lat="47.4337" lon="6.81716">
        <ele>420</ele>
        <time>2016-10-09T09:03:22.000Z</time>
      </trkpt>
      <trkpt lat="47.43377" lon="6.81726">
        <ele>419</ele>
        <time>2016-10-09T09:03:23.000Z</time>
      </trkpt>
      <trkpt lat="47.4338" lon="6.81726">
        <ele>418</ele>
        <time>2016-10-09T09:03:24.000Z</time>
      </trkpt>
      <trkpt lat="47.43384" lon="6.8173">
        <ele>418</ele>
        <time>2016-10-09T09:03:25.000Z</time>
      </trkpt>
      <trkpt lat="47.43388" lon="6.81734">
        <ele>417</ele>
        <time>2016-10-09T09:03:26.000Z</time>
      </trkpt>
      <trkpt lat="47.43391" lon="6.81737">
        <ele>416</ele>
        <time>2016-10-09T09:03:27.000Z</time>
      </trkpt>
      <trkpt lat="47.43394" lon="6.81739">
        <ele>416</ele>
        <time>2016-10-09T09:03:28.000Z</time>
      </trkpt>
      <trkpt lat="47.43396" lon="6.81738">
        <ele>416</ele>
        <time>2016-10-09T09:03:29.000Z</time>
      </trkpt>
      <trkpt lat="47.43399" lon="6.81741">
        <ele>415</ele>
        <time>2016-10-09T09:03:30.000Z</time>
      </trkpt>
      <trkpt lat="47.43404" lon="6.81743">
        <ele>414</ele>
        <time>2016-10-09T09:03:31.000Z</time>
      </trkpt>
      <trkpt lat="47.43406" lon="6.81745">
        <ele>413</ele>
        <time>2016-10-09T09:03:32.000Z</time>
      </trkpt>
      <trkpt lat="47.43409" lon="6.81746">
        <ele>412</ele>
        <time>2016-10-09T09:03:33.000Z</time>
      </trkpt>
      <trkpt lat="47.43411" lon="6.81747">
        <ele>412</ele>
        <time>2016-10-09T09:03:34.000Z</time>
      </trkpt>
      <trkpt lat="47.43413" lon="6.81747">
        <ele>411</ele>
        <time>2016-10-09T09:03:35.000Z</time>
      </trkpt>
      <trkpt lat="47.43416" lon="6.81746">
        <ele>411</ele>
        <time>2016-10-09T09:03:36.000Z</time>
      </trkpt>
      <trkpt lat="47.43419" lon="6.81744">
        <ele>409</ele>
        <time>2016-10-09T09:03:37.000Z</time>
      </trkpt>
      <trkpt lat="47.43424" lon="6.81743">
        <ele>408</ele>
        <time>2016-10-09T09:03:38.000Z</time>
      </trkpt>
      <trkpt lat="47.43428" lon="6.81743">
        <ele>408</ele>
        <time>2016-10-09T09:03:39.000Z</time>
      </trkpt>
      <trkpt lat="47.43433" lon="6.81743">
        <ele>408</ele>
        <time>2016-10-09T09:03:40.000Z</time>
      </trkpt>
      <trkpt lat="47.43437" lon="6.81742">
        <ele>407</ele>
        <time>2016-10-09T09:03:41.000Z</time>
      </trkpt>
      <trkpt lat="47.43442" lon="6.81742">
        <ele>407</ele>
        <time>2016-10-09T09:03:42.000Z</time>
      </trkpt>
      <trkpt lat="47.43446" lon="6.81741">
        <ele>407</ele>
        <time>2016-10-09T09:03:43.000Z</time>
      </trkpt>
      <trkpt lat="47.43461" lon="6.81748">
        <ele>405</ele>
        <time>2016-10-09T09:03:44.000Z</time>
      </trkpt>
      <trkpt lat="47.43466" lon="6.81751">
        <ele>398</ele>
        <time>2016-10-09T09:03:45.000Z</time>
      </trkpt>
      <trkpt lat="47.43473" lon="6.81749">
        <ele>403</ele>
        <time>2016-10-09T09:03:46.000Z</time>
      </trkpt>
      <trkpt lat="47.43481" lon="6.81748">
        <ele>402</ele>
        <time>2016-10-09T09:03:47.000Z</time>
      </trkpt>
      <trkpt lat="47.43487" lon="6.81745">
        <ele>401</ele>
        <time>2016-10-09T09:03:48.000Z</time>
      </trkpt>
      <trkpt lat="47.43493" lon="6.81745">
        <ele>400</ele>
        <time>2016-10-09T09:03:49.000Z</time>
      </trkpt>
      <trkpt lat="47.43498" lon="6.81746">
        <ele>398</ele>
        <time>2016-10-09T09:03:50.000Z</time>
      </trkpt>
      <trkpt lat="47.43503" lon="6.81746">
        <ele>396</ele>
        <time>2016-10-09T09:03:51.000Z</time>
      </trkpt>
      <trkpt lat="47.43505" lon="6.81744">
        <ele>396</ele>
        <time>2016-10-09T09:03:52.000Z</time>
      </trkpt>
      <trkpt lat="47.43509" lon="6.81743">
        <ele>395</ele>
        <time>2016-10-09T09:03:53.000Z</time>
      </trkpt>
      <trkpt lat="47.43512" lon="6.8174">
        <ele>395</ele>
        <time>2016-10-09T09:03:54.000Z</time>
      </trkpt>
      <trkpt lat="47.43516" lon="6.8174">
        <ele>394</ele>
        <time>2016-10-09T09:03:55.000Z</time>
      </trkpt>
      <trkpt lat="47.4352" lon="6.81739">
        <ele>394</ele>
        <time>2016-10-09T09:03:56.000Z</time>
      </trkpt>
      <trkpt lat="47.43523" lon="6.8174">
        <ele>394</ele>
        <time>2016-10-09T09:03:57.000Z</time>
      </trkpt>
      <trkpt lat="47.43528" lon="6.81738">
        <ele>393</ele>
        <time>2016-10-09T09:03:58.000Z</time>
      </trkpt>
      <trkpt lat="47.43535" lon="6.81738">
        <ele>392</ele>
        <time>2016-10-09T09:03:59.000Z</time>
      </trkpt>
      <trkpt lat="47.43539" lon="6.81739">
        <ele>392</ele>
        <time>2016-10-09T09:04:00.000Z</time>
      </trkpt>
      <trkpt lat="47.43543" lon="6.8174">
        <ele>392</ele>
        <time>2016-10-09T09:04:01.000Z</time>
      </trkpt>
      <trkpt lat="47.43547" lon="6.81737">
        <ele>391</ele>
        <time>2016-10-09T09:04:02.000Z</time>
      </trkpt>
      <trkpt lat="47.4355" lon="6.81736">
        <ele>391</ele>
        <time>2016-10-09T09:04:03.000Z</time>
      </trkpt>
      <trkpt lat="47.43555" lon="6.81738">
        <ele>390</ele>
        <time>2016-10-09T09:04:04.000Z</time>
      </trkpt>
      <trkpt lat="47.43557" lon="6.8174">
        <ele>390</ele>
        <time>2016-10-09T09:04:06.000Z</time>
      </trkpt>
      <trkpt lat="47.43561" lon="6.81741">
        <ele>389</ele>
        <time>2016-10-09T09:04:07.000Z</time>
      </trkpt>
      <trkpt lat="47.43565" lon="6.81743">
        <ele>389</ele>
        <time>2016-10-09T09:04:08.000Z</time>
      </trkpt>
      <trkpt lat="47.43567" lon="6.81741">
        <ele>389</ele>
        <time>2016-10-09T09:04:09.000Z</time>
      </trkpt>
      <trkpt lat="47.43569" lon="6.81739">
        <ele>389</ele>
        <time>2016-10-09T09:04:10.000Z</time>
      </trkpt>
      <trkpt lat="47.43571" lon="6.81738">
        <ele>388</ele>
        <time>2016-10-09T09:04:11.000Z</time>
      </trkpt>
      <trkpt lat="47.43574" lon="6.81736">
        <ele>388</ele>
        <time>2016-10-09T09:04:12.000Z</time>
      </trkpt>
      <trkpt lat="47.43578" lon="6.81734">
        <ele>388</ele>
        <time>2016-10-09T09:04:13.000Z</time>
      </trkpt>
      <trkpt lat="47.43582" lon="6.81732">
        <ele>388</ele>
        <time>2016-10-09T09:04:14.000Z</time>
      </trkpt>
      <trkpt lat="47.43587" lon="6.81731">
        <ele>381</ele>
        <time>2016-10-09T09:04:15.000Z</time>
      </trkpt>
      <trkpt lat="47.43591" lon="6.81729">
        <ele>380</ele>
        <time>2016-10-09T09:04:16.000Z</time>
      </trkpt>
      <trkpt lat="47.43594" lon="6.81727">
        <ele>380</ele>
        <time>2016-10-09T09:04:17.000Z</time>
      </trkpt>
      <trkpt lat="47.43597" lon="6.81726">
        <ele>380</ele>
        <time>2016-10-09T09:04:18.000Z</time>
      </trkpt>
      <trkpt lat="47.436" lon="6.81726">
        <ele>379</ele>
        <time>2016-10-09T09:04:19.000Z</time>
      </trkpt>
      <trkpt lat="47.43603" lon="6.81726">
        <ele>379</ele>
        <time>2016-10-09T09:04:20.000Z</time>
      </trkpt>
      <trkpt lat="47.43606" lon="6.81726">
        <ele>379</ele>
        <time>2016-10-09T09:04:21.000Z</time>
      </trkpt>
      <trkpt lat="47.43608" lon="6.81725">
        <ele>378</ele>
        <time>2016-10-09T09:04:22.000Z</time>
      </trkpt>
      <trkpt lat="47.43611" lon="6.81724">
        <ele>378</ele>
        <time>2016-10-09T09:04:23.000Z</time>
      </trkpt>
      <trkpt lat="47.43612" lon="6.81719">
        <ele>378</ele>
        <time>2016-10-09T09:04:25.000Z</time>
      </trkpt>
      <trkpt lat="47.43612" lon="6.81716">
        <ele>378</ele>
        <time>2016-10-09T09:04:26.000Z</time>
      </trkpt>
      <trkpt lat="47.43612" lon="6.81712">
        <ele>378</ele>
        <time>2016-10-09T09:04:27.000Z</time>
      </trkpt>
      <trkpt lat="47.43611" lon="6.81709">
        <ele>378</ele>
        <time>2016-10-09T09:04:28.000Z</time>
      </trkpt>
      <trkpt lat="47.4361" lon="6.81704">
        <ele>378</ele>
        <time>2016-10-09T09:04:29.000Z</time>
      </trkpt>
      <trkpt lat="47.43608" lon="6.81698">
        <ele>378</ele>
        <time>2016-10-09T09:04:30.000Z</time>
      </trkpt>
      <trkpt lat="47.43607" lon="6.81691">
        <ele>379</ele>
        <time>2016-10-09T09:04:31.000Z</time>
      </trkpt>
      <trkpt lat="47.43606" lon="6.81683">
        <ele>379</ele>
        <time>2016-10-09T09:04:32.000Z</time>
      </trkpt>
      <trkpt lat="47.43606" lon="6.8166">
        <ele>380</ele>
        <time>2016-10-09T09:04:33.000Z</time>
      </trkpt>
      <trkpt lat="47.43606" lon="6.81649">
        <ele>380</ele>
        <time>2016-10-09T09:04:34.000Z</time>
      </trkpt>
      <trkpt lat="47.43607" lon="6.81643">
        <ele>379</ele>
        <time>2016-10-09T09:04:35.000Z</time>
      </trkpt>
      <trkpt lat="47.43607" lon="6.81637">
        <ele>379</ele>
        <time>2016-10-09T09:04:36.000Z</time>
      </trkpt>
      <trkpt lat="47.43607" lon="6.81634">
        <ele>379</ele>
        <time>2016-10-09T09:04:37.000Z</time>
      </trkpt>
      <trkpt lat="47.43607" lon="6.8163">
        <ele>379</ele>
        <time>2016-10-09T09:04:38.000Z</time>
      </trkpt>
      <trkpt lat="47.43607" lon="6.81623">
        <ele>379</ele>
        <time>2016-10-09T09:04:39.000Z</time>
      </trkpt>
      <trkpt lat="47.43605" lon="6.8162">
        <ele>379</ele>
        <time>2016-10-09T09:04:40.000Z</time>
      </trkpt>
      <trkpt lat="47.43604" lon="6.81617">
        <ele>379</ele>
        <time>2016-10-09T09:04:41.000Z</time>
      </trkpt>
      <trkpt lat="47.43603" lon="6.81612">
        <ele>379</ele>
        <time>2016-10-09T09:04:44.000Z</time>
      </trkpt>
      <trkpt lat="47.43602" lon="6.81611">
        <ele>379</ele>
        <time>2016-10-09T09:04:45.000Z</time>
      </trkpt>
      <trkpt lat="47.43599" lon="6.81606">
        <ele>379</ele>
        <time>2016-10-09T09:04:47.000Z</time>
      </trkpt>
      <trkpt lat="47.43598" lon="6.81604">
        <ele>380</ele>
        <time>2016-10-09T09:04:48.000Z</time>
      </trkpt>
      <trkpt lat="47.43595" lon="6.816">
        <ele>380</ele>
        <time>2016-10-09T09:04:50.000Z</time>
      </trkpt>
      <trkpt lat="47.43594" lon="6.81598">
        <ele>380</ele>
        <time>2016-10-09T09:04:51.000Z</time>
      </trkpt>
      <trkpt lat="47.43591" lon="6.81595">
        <ele>380</ele>
        <time>2016-10-09T09:04:53.000Z</time>
      </trkpt>
      <trkpt lat="47.43591" lon="6.81592">
        <ele>380</ele>
        <time>2016-10-09T09:04:54.000Z</time>
      </trkpt>
      <trkpt lat="47.43589" lon="6.81587">
        <ele>380</ele>
        <time>2016-10-09T09:04:58.000Z</time>
      </trkpt>
      <trkpt lat="47.43588" lon="6.81586">
        <ele>381</ele>
        <time>2016-10-09T09:04:59.000Z</time>
      </trkpt>
      <trkpt lat="47.43587" lon="6.81581">
        <ele>381</ele>
        <time>2016-10-09T09:05:02.000Z</time>
      </trkpt>
      <trkpt lat="47.43586" lon="6.8158">
        <ele>381</ele>
        <time>2016-10-09T09:05:03.000Z</time>
      </trkpt>
      <trkpt lat="47.43584" lon="6.81575">
        <ele>381</ele>
        <time>2016-10-09T09:05:06.000Z</time>
      </trkpt>
      <trkpt lat="47.43583" lon="6.81574">
        <ele>383</ele>
        <time>2016-10-09T09:05:07.000Z</time>
      </trkpt>
      <trkpt lat="47.4358" lon="6.81571">
        <ele>383</ele>
        <time>2016-10-09T09:05:10.000Z</time>
      </trkpt>
      <trkpt lat="47.43579" lon="6.81569">
        <ele>384</ele>
        <time>2016-10-09T09:05:11.000Z</time>
      </trkpt>
      <trkpt lat="47.43577" lon="6.81565">
        <ele>384</ele>
        <time>2016-10-09T09:05:13.000Z</time>
      </trkpt>
      <trkpt lat="47.43576" lon="6.81562">
        <ele>384</ele>
        <time>2016-10-09T09:05:14.000Z</time>
      </trkpt>
      <trkpt lat="47.43576" lon="6.81558">
        <ele>384</ele>
        <time>2016-10-09T09:05:16.000Z</time>
      </trkpt>
      <trkpt lat="47.43575" lon="6.81556">
        <ele>384</ele>
        <time>2016-10-09T09:05:17.000Z</time>
      </trkpt>
      <trkpt lat="47.43574" lon="6.81551">
        <ele>385</ele>
        <time>2016-10-09T09:05:19.000Z</time>
      </trkpt>
      <trkpt lat="47.43573" lon="6.81548">
        <ele>385</ele>
        <time>2016-10-09T09:05:20.000Z</time>
      </trkpt>
      <trkpt lat="47.43572" lon="6.81542">
        <ele>385</ele>
        <time>2016-10-09T09:05:22.000Z</time>
      </trkpt>
      <trkpt lat="47.43571" lon="6.81539">
        <ele>385</ele>
        <time>2016-10-09T09:05:23.000Z</time>
      </trkpt>
      <trkpt lat="47.43569" lon="6.81535">
        <ele>385</ele>
        <time>2016-10-09T09:05:25.000Z</time>
      </trkpt>
      <trkpt lat="47.43568" lon="6.81534">
        <ele>385</ele>
        <time>2016-10-09T09:05:26.000Z</time>
      </trkpt>
      <trkpt lat="47.43566" lon="6.81531">
        <ele>385</ele>
        <time>2016-10-09T09:05:28.000Z</time>
      </trkpt>
      <trkpt lat="47.43565" lon="6.81529">
        <ele>385</ele>
        <time>2016-10-09T09:05:29.000Z</time>
      </trkpt>
      <trkpt lat="47.43568" lon="6.81525">
        <ele>384</ele>
        <time>2016-10-09T09:05:37.000Z</time>
      </trkpt>
      <trkpt lat="47.4357" lon="6.81526">
        <ele>384</ele>
        <time>2016-10-09T09:05:38.000Z</time>
      </trkpt>
      <trkpt lat="47.43572" lon="6.81527">
        <ele>384</ele>
        <time>2016-10-09T09:05:39.000Z</time>
      </trkpt>
      <trkpt lat="47.43576" lon="6.81529">
        <ele>384</ele>
        <time>2016-10-09T09:05:40.000Z</time>
      </trkpt>
      <trkpt lat="47.43579" lon="6.81531">
        <ele>384</ele>
        <time>2016-10-09T09:05:41.000Z</time>
      </trkpt>
      <trkpt lat="47.43583" lon="6.81534">
        <ele>384</ele>
        <time>2016-10-09T09:05:42.000Z</time>
      </trkpt>
      <trkpt lat="47.43586" lon="6.81536">
        <ele>381</ele>
        <time>2016-10-09T09:05:43.000Z</time>
      </trkpt>
      <trkpt lat="47.43589" lon="6.81538">
        <ele>381</ele>
        <time>2016-10-09T09:05:44.000Z</time>
      </trkpt>
      <trkpt lat="47.43594" lon="6.81538">
        <ele>381</ele>
        <time>2016-10-09T09:05:48.000Z</time>
      </trkpt>
      <trkpt lat="47.43594" lon="6.81538">
        <ele>381</ele>
        <time>2016-10-09T09:05:49.000Z</time>
      </trkpt>
      <trkpt lat="47.43596" lon="6.81541">
        <ele>381</ele>
        <time>2016-10-09T09:05:56.000Z</time>
      </trkpt>
      <trkpt lat="47.43597" lon="6.81543">
        <ele>381</ele>
        <time>2016-10-09T09:05:57.000Z</time>
      </trkpt>
      <trkpt lat="47.43593" lon="6.81545">
        <ele>381</ele>
        <time>2016-10-09T09:06:03.000Z</time>
      </trkpt>
      <trkpt lat="47.43592" lon="6.81544">
        <ele>381</ele>
        <time>2016-10-09T09:06:04.000Z</time>
      </trkpt>
      <trkpt lat="47.43588" lon="6.81544">
        <ele>381</ele>
        <time>2016-10-09T09:06:06.000Z</time>
      </trkpt>
      <trkpt lat="47.43586" lon="6.81543">
        <ele>381</ele>
        <time>2016-10-09T09:06:07.000Z</time>
      </trkpt>
      <trkpt lat="47.43583" lon="6.81543">
        <ele>384</ele>
        <time>2016-10-09T09:06:09.000Z</time>
      </trkpt>
      <trkpt lat="47.43582" lon="6.81542">
        <ele>384</ele>
        <time>2016-10-09T09:06:10.000Z</time>
      </trkpt>
      <trkpt lat="47.43579" lon="6.81538">
        <ele>385</ele>
        <time>2016-10-09T09:06:12.000Z</time>
      </trkpt>
      <trkpt lat="47.43578" lon="6.81537">
        <ele>385</ele>
        <time>2016-10-09T09:06:13.000Z</time>
      </trkpt>
      <trkpt lat="47.43576" lon="6.81532">
        <ele>384</ele>
        <time>2016-10-09T09:06:16.000Z</time>
      </trkpt>
      <trkpt lat="47.43575" lon="6.81531">
        <ele>384</ele>
        <time>2016-10-09T09:06:17.000Z</time>
      </trkpt>
      <trkpt lat="47.43571" lon="6.81527">
        <ele>384</ele>
        <time>2016-10-09T09:06:20.000Z</time>
      </trkpt>
      <trkpt lat="47.43571" lon="6.81526">
        <ele>384</ele>
        <time>2016-10-09T09:06:21.000Z</time>
      </trkpt>
      <trkpt lat="47.43568" lon="6.81523">
        <ele>384</ele>
        <time>2016-10-09T09:06:25.000Z</time>
      </trkpt>
      <trkpt lat="47.43567" lon="6.81521">
        <ele>384</ele>
        <time>2016-10-09T09:06:26.000Z</time>
      </trkpt>
      <trkpt lat="47.43564" lon="6.81518">
        <ele>384</ele>
        <time>2016-10-09T09:06:28.000Z</time>
      </trkpt>
      <trkpt lat="47.43563" lon="6.81517">
        <ele>384</ele>
        <time>2016-10-09T09:06:29.000Z</time>
      </trkpt>
      <trkpt lat="47.43559" lon="6.81514">
        <ele>385</ele>
        <time>2016-10-09T09:06:33.000Z</time>
      </trkpt>
      <trkpt lat="47.43558" lon="6.81514">
        <ele>385</ele>
        <time>2016-10-09T09:06:34.000Z</time>
      </trkpt>
      <trkpt lat="47.43555" lon="6.81513">
        <ele>385</ele>
        <time>2016-10-09T09:09:43.684Z</time>
      </trkpt>
      <trkpt lat="47.4355" lon="6.81514">
        <ele>385</ele>
        <time>2016-10-09T09:09:43.998Z</time>
      </trkpt>
      <trkpt lat="47.43556" lon="6.81511">
        <ele>385</ele>
        <time>2016-10-09T09:09:46.000Z</time>
      </trkpt>
      <trkpt lat="47.43553" lon="6.8151">
        <ele>385</ele>
        <time>2016-10-09T09:09:54.000Z</time>
      </trkpt>
      <trkpt lat="47.43551" lon="6.8151">
        <ele>385</ele>
        <time>2016-10-09T09:09:55.000Z</time>
      </trkpt>
      <trkpt lat="47.43547" lon="6.81511">
        <ele>385</ele>
        <time>2016-10-09T09:09:57.000Z</time>
      </trkpt>
      <trkpt lat="47.43545" lon="6.81511">
        <ele>385</ele>
        <time>2016-10-09T09:09:58.000Z</time>
      </trkpt>
      <trkpt lat="47.43541" lon="6.8151">
        <ele>385</ele>
        <time>2016-10-09T09:10:00.000Z</time>
      </trkpt>
      <trkpt lat="47.43539" lon="6.81508">
        <ele>385</ele>
        <time>2016-10-09T09:10:01.000Z</time>
      </trkpt>
      <trkpt lat="47.43537" lon="6.81506">
        <ele>385</ele>
        <time>2016-10-09T09:10:02.000Z</time>
      </trkpt>
      <trkpt lat="47.43535" lon="6.81504">
        <ele>385</ele>
        <time>2016-10-09T09:10:03.000Z</time>
      </trkpt>
      <trkpt lat="47.43533" lon="6.81503">
        <ele>385</ele>
        <time>2016-10-09T09:10:04.000Z</time>
      </trkpt>
      <trkpt lat="47.4353" lon="6.81501">
        <ele>385</ele>
        <time>2016-10-09T09:10:05.000Z</time>
      </trkpt>
      <trkpt lat="47.43528" lon="6.81498">
        <ele>385</ele>
        <time>2016-10-09T09:10:06.000Z</time>
      </trkpt>
      <trkpt lat="47.43526" lon="6.81496">
        <ele>385</ele>
        <time>2016-10-09T09:10:07.000Z</time>
      </trkpt>
      <trkpt lat="47.43524" lon="6.81493">
        <ele>385</ele>
        <time>2016-10-09T09:10:08.000Z</time>
      </trkpt>
      <trkpt lat="47.43522" lon="6.81491">
        <ele>385</ele>
        <time>2016-10-09T09:10:09.000Z</time>
      </trkpt>
      <trkpt lat="47.43519" lon="6.81488">
        <ele>385</ele>
        <time>2016-10-09T09:10:10.000Z</time>
      </trkpt>
      <trkpt lat="47.43517" lon="6.81485">
        <ele>385</ele>
        <time>2016-10-09T09:10:11.000Z</time>
      </trkpt>
      <trkpt lat="47.43514" lon="6.81483">
        <ele>385</ele>
        <time>2016-10-09T09:10:12.000Z</time>
      </trkpt>
      <trkpt lat="47.43512" lon="6.81481">
        <ele>385</ele>
        <time>2016-10-09T09:10:13.000Z</time>
      </trkpt>
      <trkpt lat="47.43509" lon="6.81478">
        <ele>385</ele>
        <time>2016-10-09T09:10:14.000Z</time>
      </trkpt>
      <trkpt lat="47.43507" lon="6.81476">
        <ele>385</ele>
        <time>2016-10-09T09:10:15.000Z</time>
      </trkpt>
      <trkpt lat="47.43505" lon="6.81474">
        <ele>386</ele>
        <time>2016-10-09T09:10:16.000Z</time>
      </trkpt>
      <trkpt lat="47.43503" lon="6.81471">
        <ele>386</ele>
        <time>2016-10-09T09:10:17.000Z</time>
      </trkpt>
      <trkpt lat="47.435" lon="6.8147">
        <ele>386</ele>
        <time>2016-10-09T09:10:18.000Z</time>
      </trkpt>
      <trkpt lat="47.43497" lon="6.81469">
        <ele>390</ele>
        <time>2016-10-09T09:10:19.000Z</time>
      </trkpt>
      <trkpt lat="47.43494" lon="6.81469">
        <ele>390</ele>
        <time>2016-10-09T09:10:20.000Z</time>
      </trkpt>
      <trkpt lat="47.43491" lon="6.81467">
        <ele>390</ele>
        <time>2016-10-09T09:10:21.000Z</time>
      </trkpt>
      <trkpt lat="47.43488" lon="6.81464">
        <ele>390</ele>
        <time>2016-10-09T09:10:22.000Z</time>
      </trkpt>
      <trkpt lat="47.43487" lon="6.81459">
        <ele>391</ele>
        <time>2016-10-09T09:10:23.000Z</time>
      </trkpt>
      <trkpt lat="47.43486" lon="6.81452">
        <ele>391</ele>
        <time>2016-10-09T09:10:24.000Z</time>
      </trkpt>
      <trkpt lat="47.43485" lon="6.81447">
        <ele>390</ele>
        <time>2016-10-09T09:10:24.999Z</time>
      </trkpt>
      <trkpt lat="47.43484" lon="6.8144">
        <ele>390</ele>
        <time>2016-10-09T09:10:26.000Z</time>
      </trkpt>
      <trkpt lat="47.43482" lon="6.81437">
        <ele>390</ele>
        <time>2016-10-09T09:10:27.000Z</time>
      </trkpt>
      <trkpt lat="47.43481" lon="6.81433">
        <ele>390</ele>
        <time>2016-10-09T09:10:28.000Z</time>
      </trkpt>
      <trkpt lat="47.43478" lon="6.81433">
        <ele>390</ele>
        <time>2016-10-09T09:10:29.000Z</time>
      </trkpt>
      <trkpt lat="47.43475" lon="6.81432">
        <ele>391</ele>
        <time>2016-10-09T09:10:30.000Z</time>
      </trkpt>
      <trkpt lat="47.43473" lon="6.81431">
        <ele>391</ele>
        <time>2016-10-09T09:10:31.000Z</time>
      </trkpt>
      <trkpt lat="47.4347" lon="6.8143">
        <ele>391</ele>
        <time>2016-10-09T09:10:32.000Z</time>
      </trkpt>
      <trkpt lat="47.43468" lon="6.81429">
        <ele>391</ele>
        <time>2016-10-09T09:10:33.000Z</time>
      </trkpt>
      <trkpt lat="47.43465" lon="6.81424">
        <ele>392</ele>
        <time>2016-10-09T09:10:35.000Z</time>
      </trkpt>
      <trkpt lat="47.43464" lon="6.81421">
        <ele>392</ele>
        <time>2016-10-09T09:10:36.000Z</time>
      </trkpt>
      <trkpt lat="47.43463" lon="6.81418">
        <ele>392</ele>
        <time>2016-10-09T09:10:37.000Z</time>
      </trkpt>
      <trkpt lat="47.43462" lon="6.81414">
        <ele>393</ele>
        <time>2016-10-09T09:10:38.000Z</time>
      </trkpt>
      <trkpt lat="47.4346" lon="6.81412">
        <ele>394</ele>
        <time>2016-10-09T09:10:39.000Z</time>
      </trkpt>
      <trkpt lat="47.43458" lon="6.8141">
        <ele>394</ele>
        <time>2016-10-09T09:10:40.000Z</time>
      </trkpt>
      <trkpt lat="47.43455" lon="6.8141">
        <ele>394</ele>
        <time>2016-10-09T09:10:41.000Z</time>
      </trkpt>
      <trkpt lat="47.43451" lon="6.81409">
        <ele>394</ele>
        <time>2016-10-09T09:10:42.000Z</time>
      </trkpt>
      <trkpt lat="47.43448" lon="6.81408">
        <ele>395</ele>
        <time>2016-10-09T09:10:43.000Z</time>
      </trkpt>
      <trkpt lat="47.43444" lon="6.81406">
        <ele>395</ele>
        <time>2016-10-09T09:10:44.000Z</time>
      </trkpt>
      <trkpt lat="47.43441" lon="6.81405">
        <ele>395</ele>
        <time>2016-10-09T09:10:45.000Z</time>
      </trkpt>
      <trkpt lat="47.43438" lon="6.81401">
        <ele>395</ele>
        <time>2016-10-09T09:10:46.000Z</time>
      </trkpt>
      <trkpt lat="47.43435" lon="6.81399">
        <ele>395</ele>
        <time>2016-10-09T09:10:47.000Z</time>
      </trkpt>
      <trkpt lat="47.43432" lon="6.81397">
        <ele>395</ele>
        <time>2016-10-09T09:10:48.000Z</time>
      </trkpt>
      <trkpt lat="47.4343" lon="6.81395">
        <ele>395</ele>
        <time>2016-10-09T09:10:49.000Z</time>
      </trkpt>
      <trkpt lat="47.43427" lon="6.81393">
        <ele>395</ele>
        <time>2016-10-09T09:10:50.000Z</time>
      </trkpt>
      <trkpt lat="47.43425" lon="6.81391">
        <ele>395</ele>
        <time>2016-10-09T09:10:51.000Z</time>
      </trkpt>
      <trkpt lat="47.43422" lon="6.81389">
        <ele>395</ele>
        <time>2016-10-09T09:10:52.000Z</time>
      </trkpt>
      <trkpt lat="47.43419" lon="6.81386">
        <ele>395</ele>
        <time>2016-10-09T09:10:53.000Z</time>
      </trkpt>
      <trkpt lat="47.43416" lon="6.81383">
        <ele>401</ele>
        <time>2016-10-09T09:10:54.000Z</time>
      </trkpt>
      <trkpt lat="47.43412" lon="6.8138">
        <ele>401</ele>
        <time>2016-10-09T09:10:55.000Z</time>
      </trkpt>
      <trkpt lat="47.43409" lon="6.81378">
        <ele>401</ele>
        <time>2016-10-09T09:10:56.000Z</time>
      </trkpt>
      <trkpt lat="47.43406" lon="6.81377">
        <ele>401</ele>
        <time>2016-10-09T09:10:56.999Z</time>
      </trkpt>
      <trkpt lat="47.43402" lon="6.81376">
        <ele>401</ele>
        <time>2016-10-09T09:10:58.000Z</time>
      </trkpt>
      <trkpt lat="47.43399" lon="6.81375">
        <ele>401</ele>
        <time>2016-10-09T09:10:59.000Z</time>
      </trkpt>
      <trkpt lat="47.43396" lon="6.81374">
        <ele>402</ele>
        <time>2016-10-09T09:10:59.999Z</time>
      </trkpt>
      <trkpt lat="47.43394" lon="6.81372">
        <ele>402</ele>
        <time>2016-10-09T09:11:01.000Z</time>
      </trkpt>
      <trkpt lat="47.43391" lon="6.81372">
        <ele>402</ele>
        <time>2016-10-09T09:11:02.000Z</time>
      </trkpt>
      <trkpt lat="47.43388" lon="6.81371">
        <ele>402</ele>
        <time>2016-10-09T09:11:03.000Z</time>
      </trkpt>
      <trkpt lat="47.43386" lon="6.8137">
        <ele>402</ele>
        <time>2016-10-09T09:11:04.000Z</time>
      </trkpt>
      <trkpt lat="47.43383" lon="6.81368">
        <ele>402</ele>
        <time>2016-10-09T09:11:05.000Z</time>
      </trkpt>
      <trkpt lat="47.4338" lon="6.81366">
        <ele>402</ele>
        <time>2016-10-09T09:11:06.000Z</time>
      </trkpt>
      <trkpt lat="47.43377" lon="6.81363">
        <ele>403</ele>
        <time>2016-10-09T09:11:07.000Z</time>
      </trkpt>
      <trkpt lat="47.43375" lon="6.81361">
        <ele>403</ele>
        <time>2016-10-09T09:11:07.999Z</time>
      </trkpt>
      <trkpt lat="47.43373" lon="6.81358">
        <ele>403</ele>
        <time>2016-10-09T09:11:09.000Z</time>
      </trkpt>
      <trkpt lat="47.43371" lon="6.81355">
        <ele>403</ele>
        <time>2016-10-09T09:11:10.000Z</time>
      </trkpt>
      <trkpt lat="47.43369" lon="6.81353">
        <ele>403</ele>
        <time>2016-10-09T09:11:11.000Z</time>
      </trkpt>
      <trkpt lat="47.43366" lon="6.8135">
        <ele>403</ele>
        <time>2016-10-09T09:11:12.000Z</time>
      </trkpt>
      <trkpt lat="47.43364" lon="6.81349">
        <ele>403</ele>
        <time>2016-10-09T09:11:13.000Z</time>
      </trkpt>
      <trkpt lat="47.43361" lon="6.81348">
        <ele>403</ele>
        <time>2016-10-09T09:11:13.999Z</time>
      </trkpt>
      <trkpt lat="47.43358" lon="6.81348">
        <ele>403</ele>
        <time>2016-10-09T09:11:15.000Z</time>
      </trkpt>
      <trkpt lat="47.43354" lon="6.81347">
        <ele>403</ele>
        <time>2016-10-09T09:11:16.000Z</time>
      </trkpt>
      <trkpt lat="47.43351" lon="6.81347">
        <ele>403</ele>
        <time>2016-10-09T09:11:17.000Z</time>
      </trkpt>
      <trkpt lat="47.43348" lon="6.81346">
        <ele>403</ele>
        <time>2016-10-09T09:11:17.999Z</time>
      </trkpt>
      <trkpt lat="47.43345" lon="6.81344">
        <ele>403</ele>
        <time>2016-10-09T09:11:19.000Z</time>
      </trkpt>
      <trkpt lat="47.43341" lon="6.81342">
        <ele>403</ele>
        <time>2016-10-09T09:11:20.000Z</time>
      </trkpt>
      <trkpt lat="47.43338" lon="6.8134">
        <ele>403</ele>
        <time>2016-10-09T09:11:21.000Z</time>
      </trkpt>
      <trkpt lat="47.43335" lon="6.81338">
        <ele>402</ele>
        <time>2016-10-09T09:11:22.000Z</time>
      </trkpt>
      <trkpt lat="47.43332" lon="6.81337">
        <ele>404</ele>
        <time>2016-10-09T09:11:23.000Z</time>
      </trkpt>
      <trkpt lat="47.43329" lon="6.81336">
        <ele>405</ele>
        <time>2016-10-09T09:11:24.000Z</time>
      </trkpt>
      <trkpt lat="47.43326" lon="6.81334">
        <ele>406</ele>
        <time>2016-10-09T09:11:25.000Z</time>
      </trkpt>
      <trkpt lat="47.43323" lon="6.81333">
        <ele>403</ele>
        <time>2016-10-09T09:11:26.000Z</time>
      </trkpt>
      <trkpt lat="47.43321" lon="6.8133">
        <ele>403</ele>
        <time>2016-10-09T09:11:27.000Z</time>
      </trkpt>
      <trkpt lat="47.43319" lon="6.81328">
        <ele>404</ele>
        <time>2016-10-09T09:11:28.000Z</time>
      </trkpt>
      <trkpt lat="47.43317" lon="6.81326">
        <ele>404</ele>
        <time>2016-10-09T09:11:29.000Z</time>
      </trkpt>
      <trkpt lat="47.43314" lon="6.81324">
        <ele>404</ele>
        <time>2016-10-09T09:11:30.000Z</time>
      </trkpt>
      <trkpt lat="47.43312" lon="6.81322">
        <ele>404</ele>
        <time>2016-10-09T09:11:31.000Z</time>
      </trkpt>
      <trkpt lat="47.4331" lon="6.81319">
        <ele>405</ele>
        <time>2016-10-09T09:11:32.000Z</time>
      </trkpt>
      <trkpt lat="47.43308" lon="6.81316">
        <ele>405</ele>
        <time>2016-10-09T09:11:33.000Z</time>
      </trkpt>
      <trkpt lat="47.43305" lon="6.81315">
        <ele>405</ele>
        <time>2016-10-09T09:11:34.000Z</time>
      </trkpt>
      <trkpt lat="47.43302" lon="6.81313">
        <ele>405</ele>
        <time>2016-10-09T09:11:35.000Z</time>
      </trkpt>
      <trkpt lat="47.43299" lon="6.81312">
        <ele>405</ele>
        <time>2016-10-09T09:11:36.000Z</time>
      </trkpt>
      <trkpt lat="47.43296" lon="6.8131">
        <ele>406</ele>
        <time>2016-10-09T09:11:37.000Z</time>
      </trkpt>
      <trkpt lat="47.43293" lon="6.81307">
        <ele>406</ele>
        <time>2016-10-09T09:11:38.000Z</time>
      </trkpt>
      <trkpt lat="47.43291" lon="6.81304">
        <ele>406</ele>
        <time>2016-10-09T09:11:39.000Z</time>
      </trkpt>
      <trkpt lat="47.43289" lon="6.81301">
        <ele>406</ele>
        <time>2016-10-09T09:11:40.000Z</time>
      </trkpt>
      <trkpt lat="47.43287" lon="6.81299">
        <ele>406</ele>
        <time>2016-10-09T09:11:40.999Z</time>
      </trkpt>
      <trkpt lat="47.43285" lon="6.81295">
        <ele>405</ele>
        <time>2016-10-09T09:11:42.000Z</time>
      </trkpt>
      <trkpt lat="47.43283" lon="6.81291">
        <ele>405</ele>
        <time>2016-10-09T09:11:43.000Z</time>
      </trkpt>
      <trkpt lat="47.43281" lon="6.81289">
        <ele>405</ele>
        <time>2016-10-09T09:11:44.000Z</time>
      </trkpt>
      <trkpt lat="47.43278" lon="6.81286">
        <ele>405</ele>
        <time>2016-10-09T09:11:45.000Z</time>
      </trkpt>
      <trkpt lat="47.43276" lon="6.81285">
        <ele>405</ele>
        <time>2016-10-09T09:11:46.002Z</time>
      </trkpt>
      <trkpt lat="47.43271" lon="6.81285">
        <ele>405</ele>
        <time>2016-10-09T09:11:47.000Z</time>
      </trkpt>
      <trkpt lat="47.43267" lon="6.81285">
        <ele>405</ele>
        <time>2016-10-09T09:11:48.000Z</time>
      </trkpt>
      <trkpt lat="47.43264" lon="6.81285">
        <ele>406</ele>
        <time>2016-10-09T09:11:49.000Z</time>
      </trkpt>
      <trkpt lat="47.4326" lon="6.81284">
        <ele>406</ele>
        <time>2016-10-09T09:11:50.000Z</time>
      </trkpt>
      <trkpt lat="47.43256" lon="6.81284">
        <ele>406</ele>
        <time>2016-10-09T09:11:51.000Z</time>
      </trkpt>
      <trkpt lat="47.43254" lon="6.8128">
        <ele>405</ele>
        <time>2016-10-09T09:11:52.000Z</time>
      </trkpt>
      <trkpt lat="47.43251" lon="6.81276">
        <ele>405</ele>
        <time>2016-10-09T09:11:53.000Z</time>
      </trkpt>
      <trkpt lat="47.43248" lon="6.81272">
        <ele>409</ele>
        <time>2016-10-09T09:11:54.000Z</time>
      </trkpt>
      <trkpt lat="47.43245" lon="6.8127">
        <ele>409</ele>
        <time>2016-10-09T09:11:55.000Z</time>
      </trkpt>
      <trkpt lat="47.43242" lon="6.81268">
        <ele>408</ele>
        <time>2016-10-09T09:11:55.999Z</time>
      </trkpt>
      <trkpt lat="47.43238" lon="6.8127">
        <ele>409</ele>
        <time>2016-10-09T09:11:57.000Z</time>
      </trkpt>
      <trkpt lat="47.43235" lon="6.8127">
        <ele>410</ele>
        <time>2016-10-09T09:11:57.999Z</time>
      </trkpt>
      <trkpt lat="47.43231" lon="6.81267">
        <ele>409</ele>
        <time>2016-10-09T09:11:59.000Z</time>
      </trkpt>
      <trkpt lat="47.43229" lon="6.81264">
        <ele>409</ele>
        <time>2016-10-09T09:12:00.000Z</time>
      </trkpt>
      <trkpt lat="47.43227" lon="6.81261">
        <ele>409</ele>
        <time>2016-10-09T09:12:01.000Z</time>
      </trkpt>
      <trkpt lat="47.43224" lon="6.81258">
        <ele>409</ele>
        <time>2016-10-09T09:12:02.000Z</time>
      </trkpt>
      <trkpt lat="47.43222" lon="6.81256">
        <ele>410</ele>
        <time>2016-10-09T09:12:03.000Z</time>
      </trkpt>
      <trkpt lat="47.43221" lon="6.81253">
        <ele>410</ele>
        <time>2016-10-09T09:12:04.000Z</time>
      </trkpt>
      <trkpt lat="47.43219" lon="6.81251">
        <ele>410</ele>
        <time>2016-10-09T09:12:05.000Z</time>
      </trkpt>
      <trkpt lat="47.43217" lon="6.81247">
        <ele>405</ele>
        <time>2016-10-09T09:12:06.000Z</time>
      </trkpt>
      <trkpt lat="47.43215" lon="6.81245">
        <ele>405</ele>
        <time>2016-10-09T09:12:06.999Z</time>
      </trkpt>
      <trkpt lat="47.43213" lon="6.81242">
        <ele>405</ele>
        <time>2016-10-09T09:12:08.000Z</time>
      </trkpt>
      <trkpt lat="47.4321" lon="6.81239">
        <ele>405</ele>
        <time>2016-10-09T09:12:09.000Z</time>
      </trkpt>
      <trkpt lat="47.43208" lon="6.81236">
        <ele>405</ele>
        <time>2016-10-09T09:12:10.000Z</time>
      </trkpt>
      <trkpt lat="47.43206" lon="6.81234">
        <ele>405</ele>
        <time>2016-10-09T09:12:11.000Z</time>
      </trkpt>
      <trkpt lat="47.43203" lon="6.81229">
        <ele>405</ele>
        <time>2016-10-09T09:12:12.000Z</time>
      </trkpt>
      <trkpt lat="47.43201" lon="6.81225">
        <ele>405</ele>
        <time>2016-10-09T09:12:13.000Z</time>
      </trkpt>
      <trkpt lat="47.43199" lon="6.81222">
        <ele>405</ele>
        <time>2016-10-09T09:12:14.000Z</time>
      </trkpt>
      <trkpt lat="47.43196" lon="6.81219">
        <ele>405</ele>
        <time>2016-10-09T09:12:15.000Z</time>
      </trkpt>
      <trkpt lat="47.43194" lon="6.81217">
        <ele>405</ele>
        <time>2016-10-09T09:12:16.000Z</time>
      </trkpt>
      <trkpt lat="47.43192" lon="6.81214">
        <ele>405</ele>
        <time>2016-10-09T09:12:17.001Z</time>
      </trkpt>
      <trkpt lat="47.4319" lon="6.81212">
        <ele>405</ele>
        <time>2016-10-09T09:12:18.000Z</time>
      </trkpt>
      <trkpt lat="47.43188" lon="6.81209">
        <ele>405</ele>
        <time>2016-10-09T09:12:18.999Z</time>
      </trkpt>
      <trkpt lat="47.43185" lon="6.81206">
        <ele>405</ele>
        <time>2016-10-09T09:12:20.000Z</time>
      </trkpt>
      <trkpt lat="47.43183" lon="6.81204">
        <ele>405</ele>
        <time>2016-10-09T09:12:21.000Z</time>
      </trkpt>
      <trkpt lat="47.4318" lon="6.81203">
        <ele>405</ele>
        <time>2016-10-09T09:12:22.000Z</time>
      </trkpt>
      <trkpt lat="47.43177" lon="6.81201">
        <ele>405</ele>
        <time>2016-10-09T09:12:22.999Z</time>
      </trkpt>
      <trkpt lat="47.43175" lon="6.81198">
        <ele>404</ele>
        <time>2016-10-09T09:12:24.000Z</time>
      </trkpt>
      <trkpt lat="47.43173" lon="6.81195">
        <ele>404</ele>
        <time>2016-10-09T09:12:25.000Z</time>
      </trkpt>
      <trkpt lat="47.43171" lon="6.81192">
        <ele>404</ele>
        <time>2016-10-09T09:12:26.000Z</time>
      </trkpt>
      <trkpt lat="47.43169" lon="6.81188">
        <ele>404</ele>
        <time>2016-10-09T09:12:27.000Z</time>
      </trkpt>
      <trkpt lat="47.43166" lon="6.81184">
        <ele>408</ele>
        <time>2016-10-09T09:12:28.000Z</time>
      </trkpt>
      <trkpt lat="47.43163" lon="6.8118">
        <ele>407</ele>
        <time>2016-10-09T09:12:29.000Z</time>
      </trkpt>
      <trkpt lat="47.43161" lon="6.81177">
        <ele>407</ele>
        <time>2016-10-09T09:12:30.000Z</time>
      </trkpt>
      <trkpt lat="47.43157" lon="6.81175">
        <ele>407</ele>
        <time>2016-10-09T09:12:31.000Z</time>
      </trkpt>
      <trkpt lat="47.43154" lon="6.81173">
        <ele>407</ele>
        <time>2016-10-09T09:12:32.000Z</time>
      </trkpt>
      <trkpt lat="47.43152" lon="6.81172">
        <ele>408</ele>
        <time>2016-10-09T09:12:33.000Z</time>
      </trkpt>
      <trkpt lat="47.43149" lon="6.8117">
        <ele>409</ele>
        <time>2016-10-09T09:12:34.000Z</time>
      </trkpt>
      <trkpt lat="47.43147" lon="6.81167">
        <ele>409</ele>
        <time>2016-10-09T09:12:35.000Z</time>
      </trkpt>
      <trkpt lat="47.43145" lon="6.81164">
        <ele>407</ele>
        <time>2016-10-09T09:12:36.000Z</time>
      </trkpt>
      <trkpt lat="47.43143" lon="6.81162">
        <ele>407</ele>
        <time>2016-10-09T09:12:36.999Z</time>
      </trkpt>
      <trkpt lat="47.43141" lon="6.81158">
        <ele>408</ele>
        <time>2016-10-09T09:12:38.000Z</time>
      </trkpt>
      <trkpt lat="47.43138" lon="6.81155">
        <ele>408</ele>
        <time>2016-10-09T09:12:39.000Z</time>
      </trkpt>
      <trkpt lat="47.43136" lon="6.81152">
        <ele>409</ele>
        <time>2016-10-09T09:12:40.000Z</time>
      </trkpt>
      <trkpt lat="47.43134" lon="6.81148">
        <ele>409</ele>
        <time>2016-10-09T09:12:41.000Z</time>
      </trkpt>
      <trkpt lat="47.43132" lon="6.81146">
        <ele>409</ele>
        <time>2016-10-09T09:12:41.999Z</time>
      </trkpt>
      <trkpt lat="47.43129" lon="6.81141">
        <ele>410</ele>
        <time>2016-10-09T09:12:43.000Z</time>
      </trkpt>
      <trkpt lat="47.43127" lon="6.81137">
        <ele>410</ele>
        <time>2016-10-09T09:12:44.000Z</time>
      </trkpt>
      <trkpt lat="47.43126" lon="6.81133">
        <ele>410</ele>
        <time>2016-10-09T09:12:45.000Z</time>
      </trkpt>
      <trkpt lat="47.43124" lon="6.8113">
        <ele>410</ele>
        <time>2016-10-09T09:12:45.999Z</time>
      </trkpt>
      <trkpt lat="47.43122" lon="6.81127">
        <ele>410</ele>
        <time>2016-10-09T09:12:47.000Z</time>
      </trkpt>
      <trkpt lat="47.4312" lon="6.81125">
        <ele>410</ele>
        <time>2016-10-09T09:12:48.000Z</time>
      </trkpt>
      <trkpt lat="47.43118" lon="6.81123">
        <ele>410</ele>
        <time>2016-10-09T09:12:49.000Z</time>
      </trkpt>
      <trkpt lat="47.43116" lon="6.81121">
        <ele>410</ele>
        <time>2016-10-09T09:12:50.000Z</time>
      </trkpt>
      <trkpt lat="47.43113" lon="6.81119">
        <ele>410</ele>
        <time>2016-10-09T09:12:51.000Z</time>
      </trkpt>
      <trkpt lat="47.43111" lon="6.81117">
        <ele>410</ele>
        <time>2016-10-09T09:12:52.000Z</time>
      </trkpt>
      <trkpt lat="47.43108" lon="6.81116">
        <ele>410</ele>
        <time>2016-10-09T09:12:53.000Z</time>
      </trkpt>
      <trkpt lat="47.43106" lon="6.81113">
        <ele>410</ele>
        <time>2016-10-09T09:12:54.000Z</time>
      </trkpt>
      <trkpt lat="47.43104" lon="6.81111">
        <ele>410</ele>
        <time>2016-10-09T09:12:55.000Z</time>
      </trkpt>
      <trkpt lat="47.43101" lon="6.81108">
        <ele>410</ele>
        <time>2016-10-09T09:12:56.001Z</time>
      </trkpt>
      <trkpt lat="47.43099" lon="6.81106">
        <ele>409</ele>
        <time>2016-10-09T09:12:57.000Z</time>
      </trkpt>
      <trkpt lat="47.43097" lon="6.81103">
        <ele>409</ele>
        <time>2016-10-09T09:12:58.000Z</time>
      </trkpt>
      <trkpt lat="47.43095" lon="6.81102">
        <ele>409</ele>
        <time>2016-10-09T09:12:59.000Z</time>
      </trkpt>
      <trkpt lat="47.43093" lon="6.81098">
        <ele>409</ele>
        <time>2016-10-09T09:13:00.000Z</time>
      </trkpt>
      <trkpt lat="47.43091" lon="6.81094">
        <ele>408</ele>
        <time>2016-10-09T09:13:01.000Z</time>
      </trkpt>
      <trkpt lat="47.43089" lon="6.81092">
        <ele>408</ele>
        <time>2016-10-09T09:13:02.000Z</time>
      </trkpt>
      <trkpt lat="47.43087" lon="6.81089">
        <ele>407</ele>
        <time>2016-10-09T09:13:03.000Z</time>
      </trkpt>
      <trkpt lat="47.43086" lon="6.81087">
        <ele>407</ele>
        <time>2016-10-09T09:13:04.000Z</time>
      </trkpt>
      <trkpt lat="47.43084" lon="6.81084">
        <ele>406</ele>
        <time>2016-10-09T09:13:05.000Z</time>
      </trkpt>
      <trkpt lat="47.43082" lon="6.81081">
        <ele>407</ele>
        <time>2016-10-09T09:13:06.000Z</time>
      </trkpt>
      <trkpt lat="47.43081" lon="6.81077">
        <ele>409</ele>
        <time>2016-10-09T09:13:07.000Z</time>
      </trkpt>
      <trkpt lat="47.43079" lon="6.81072">
        <ele>410</ele>
        <time>2016-10-09T09:13:08.000Z</time>
      </trkpt>
      <trkpt lat="47.43077" lon="6.81069">
        <ele>411</ele>
        <time>2016-10-09T09:13:09.000Z</time>
      </trkpt>
      <trkpt lat="47.43076" lon="6.81063">
        <ele>413</ele>
        <time>2016-10-09T09:13:10.000Z</time>
      </trkpt>
      <trkpt lat="47.43074" lon="6.81059">
        <ele>413</ele>
        <time>2016-10-09T09:13:11.000Z</time>
      </trkpt>
      <trkpt lat="47.43073" lon="6.81056">
        <ele>414</ele>
        <time>2016-10-09T09:13:12.000Z</time>
      </trkpt>
      <trkpt lat="47.4307" lon="6.8105">
        <ele>414</ele>
        <time>2016-10-09T09:13:13.000Z</time>
      </trkpt>
      <trkpt lat="47.43068" lon="6.81046">
        <ele>415</ele>
        <time>2016-10-09T09:13:14.000Z</time>
      </trkpt>
      <trkpt lat="47.43067" lon="6.81043">
        <ele>415</ele>
        <time>2016-10-09T09:13:14.999Z</time>
      </trkpt>
      <trkpt lat="47.43064" lon="6.81039">
        <ele>415</ele>
        <time>2016-10-09T09:13:16.000Z</time>
      </trkpt>
      <trkpt lat="47.43062" lon="6.81035">
        <ele>415</ele>
        <time>2016-10-09T09:13:17.000Z</time>
      </trkpt>
      <trkpt lat="47.4306" lon="6.81033">
        <ele>416</ele>
        <time>2016-10-09T09:13:17.999Z</time>
      </trkpt>
      <trkpt lat="47.43059" lon="6.81027">
        <ele>416</ele>
        <time>2016-10-09T09:13:19.000Z</time>
      </trkpt>
      <trkpt lat="47.43057" lon="6.81022">
        <ele>416</ele>
        <time>2016-10-09T09:13:20.000Z</time>
      </trkpt>
      <trkpt lat="47.43055" lon="6.81018">
        <ele>416</ele>
        <time>2016-10-09T09:13:20.999Z</time>
      </trkpt>
      <trkpt lat="47.43053" lon="6.81015">
        <ele>416</ele>
        <time>2016-10-09T09:13:22.000Z</time>
      </trkpt>
      <trkpt lat="47.43051" lon="6.81012">
        <ele>416</ele>
        <time>2016-10-09T09:13:23.000Z</time>
      </trkpt>
      <trkpt lat="47.43049" lon="6.81009">
        <ele>416</ele>
        <time>2016-10-09T09:13:24.000Z</time>
      </trkpt>
      <trkpt lat="47.43048" lon="6.81005">
        <ele>416</ele>
        <time>2016-10-09T09:13:25.000Z</time>
      </trkpt>
      <trkpt lat="47.43047" lon="6.81002">
        <ele>416</ele>
        <time>2016-10-09T09:13:26.000Z</time>
      </trkpt>
      <trkpt lat="47.43045" lon="6.80998">
        <ele>418</ele>
        <time>2016-10-09T09:13:27.000Z</time>
      </trkpt>
      <trkpt lat="47.43044" lon="6.80994">
        <ele>419</ele>
        <time>2016-10-09T09:13:28.000Z</time>
      </trkpt>
      <trkpt lat="47.43042" lon="6.8099">
        <ele>419</ele>
        <time>2016-10-09T09:13:29.000Z</time>
      </trkpt>
      <trkpt lat="47.43039" lon="6.80986">
        <ele>419</ele>
        <time>2016-10-09T09:13:30.000Z</time>
      </trkpt>
      <trkpt lat="47.43037" lon="6.80983">
        <ele>419</ele>
        <time>2016-10-09T09:13:31.000Z</time>
      </trkpt>
      <trkpt lat="47.43035" lon="6.80981">
        <ele>419</ele>
        <time>2016-10-09T09:13:32.000Z</time>
      </trkpt>
      <trkpt lat="47.43033" lon="6.80979">
        <ele>419</ele>
        <time>2016-10-09T09:13:33.000Z</time>
      </trkpt>
      <trkpt lat="47.4303" lon="6.80978">
        <ele>419</ele>
        <time>2016-10-09T09:13:34.000Z</time>
      </trkpt>
      <trkpt lat="47.43027" lon="6.80976">
        <ele>419</ele>
        <time>2016-10-09T09:13:36.000Z</time>
      </trkpt>
      <trkpt lat="47.43026" lon="6.80975">
        <ele>419</ele>
        <time>2016-10-09T09:13:37.000Z</time>
      </trkpt>
      <trkpt lat="47.43022" lon="6.80974">
        <ele>419</ele>
        <time>2016-10-09T09:13:39.000Z</time>
      </trkpt>
      <trkpt lat="47.4302" lon="6.80972">
        <ele>419</ele>
        <time>2016-10-09T09:13:40.000Z</time>
      </trkpt>
      <trkpt lat="47.43016" lon="6.80968">
        <ele>419</ele>
        <time>2016-10-09T09:13:42.000Z</time>
      </trkpt>
      <trkpt lat="47.43015" lon="6.80966">
        <ele>420</ele>
        <time>2016-10-09T09:13:43.000Z</time>
      </trkpt>
      <trkpt lat="47.43014" lon="6.80963">
        <ele>420</ele>
        <time>2016-10-09T09:13:44.000Z</time>
      </trkpt>
      <trkpt lat="47.43013" lon="6.80959">
        <ele>420</ele>
        <time>2016-10-09T09:13:45.000Z</time>
      </trkpt>
      <trkpt lat="47.43011" lon="6.80956">
        <ele>420</ele>
        <time>2016-10-09T09:13:46.000Z</time>
      </trkpt>
      <trkpt lat="47.43009" lon="6.80952">
        <ele>419</ele>
        <time>2016-10-09T09:13:47.000Z</time>
      </trkpt>
      <trkpt lat="47.43008" lon="6.80948">
        <ele>419</ele>
        <time>2016-10-09T09:13:48.000Z</time>
      </trkpt>
      <trkpt lat="47.43006" lon="6.80946">
        <ele>419</ele>
        <time>2016-10-09T09:13:49.000Z</time>
      </trkpt>
      <trkpt lat="47.43004" lon="6.8094">
        <ele>419</ele>
        <time>2016-10-09T09:13:50.000Z</time>
      </trkpt>
      <trkpt lat="47.43002" lon="6.80938">
        <ele>419</ele>
        <time>2016-10-09T09:13:51.000Z</time>
      </trkpt>
      <trkpt lat="47.43" lon="6.80937">
        <ele>426</ele>
        <time>2016-10-09T09:13:52.000Z</time>
      </trkpt>
      <trkpt lat="47.42997" lon="6.80935">
        <ele>425</ele>
        <time>2016-10-09T09:13:53.000Z</time>
      </trkpt>
      <trkpt lat="47.42995" lon="6.80932">
        <ele>425</ele>
        <time>2016-10-09T09:13:54.000Z</time>
      </trkpt>
      <trkpt lat="47.42993" lon="6.8093">
        <ele>425</ele>
        <time>2016-10-09T09:13:55.000Z</time>
      </trkpt>
      <trkpt lat="47.4299" lon="6.80927">
        <ele>425</ele>
        <time>2016-10-09T09:13:56.000Z</time>
      </trkpt>
      <trkpt lat="47.42988" lon="6.80924">
        <ele>425</ele>
        <time>2016-10-09T09:13:57.000Z</time>
      </trkpt>
      <trkpt lat="47.42986" lon="6.80921">
        <ele>425</ele>
        <time>2016-10-09T09:13:58.000Z</time>
      </trkpt>
      <trkpt lat="47.42984" lon="6.80918">
        <ele>425</ele>
        <time>2016-10-09T09:13:59.000Z</time>
      </trkpt>
      <trkpt lat="47.42983" lon="6.80914">
        <ele>424</ele>
        <time>2016-10-09T09:14:00.000Z</time>
      </trkpt>
      <trkpt lat="47.42982" lon="6.80911">
        <ele>424</ele>
        <time>2016-10-09T09:14:01.000Z</time>
      </trkpt>
      <trkpt lat="47.42981" lon="6.80907">
        <ele>425</ele>
        <time>2016-10-09T09:14:02.000Z</time>
      </trkpt>
      <trkpt lat="47.42979" lon="6.80905">
        <ele>425</ele>
        <time>2016-10-09T09:14:03.000Z</time>
      </trkpt>
      <trkpt lat="47.42978" lon="6.80902">
        <ele>426</ele>
        <time>2016-10-09T09:14:04.000Z</time>
      </trkpt>
      <trkpt lat="47.42976" lon="6.80899">
        <ele>426</ele>
        <time>2016-10-09T09:14:05.000Z</time>
      </trkpt>
      <trkpt lat="47.42974" lon="6.80896">
        <ele>427</ele>
        <time>2016-10-09T09:14:06.000Z</time>
      </trkpt>
      <trkpt lat="47.42972" lon="6.80892">
        <ele>427</ele>
        <time>2016-10-09T09:14:07.000Z</time>
      </trkpt>
      <trkpt lat="47.4297" lon="6.80889">
        <ele>427</ele>
        <time>2016-10-09T09:14:08.000Z</time>
      </trkpt>
      <trkpt lat="47.42968" lon="6.80883">
        <ele>428</ele>
        <time>2016-10-09T09:14:09.000Z</time>
      </trkpt>
      <trkpt lat="47.42966" lon="6.8088">
        <ele>428</ele>
        <time>2016-10-09T09:14:10.000Z</time>
      </trkpt>
      <trkpt lat="47.42963" lon="6.80877">
        <ele>428</ele>
        <time>2016-10-09T09:14:11.000Z</time>
      </trkpt>
      <trkpt lat="47.42961" lon="6.80874">
        <ele>428</ele>
        <time>2016-10-09T09:14:12.000Z</time>
      </trkpt>
      <trkpt lat="47.42959" lon="6.80872">
        <ele>428</ele>
        <time>2016-10-09T09:14:13.000Z</time>
      </trkpt>
      <trkpt lat="47.42958" lon="6.80869">
        <ele>428</ele>
        <time>2016-10-09T09:14:14.000Z</time>
      </trkpt>
      <trkpt lat="47.42956" lon="6.80867">
        <ele>428</ele>
        <time>2016-10-09T09:14:15.000Z</time>
      </trkpt>
      <trkpt lat="47.42954" lon="6.80864">
        <ele>429</ele>
        <time>2016-10-09T09:14:16.000Z</time>
      </trkpt>
      <trkpt lat="47.42952" lon="6.80862">
        <ele>429</ele>
        <time>2016-10-09T09:14:17.000Z</time>
      </trkpt>
      <trkpt lat="47.4295" lon="6.80859">
        <ele>429</ele>
        <time>2016-10-09T09:14:18.000Z</time>
      </trkpt>
      <trkpt lat="47.42949" lon="6.80857">
        <ele>429</ele>
        <time>2016-10-09T09:14:19.000Z</time>
      </trkpt>
      <trkpt lat="47.42945" lon="6.80853">
        <ele>429</ele>
        <time>2016-10-09T09:14:21.000Z</time>
      </trkpt>
      <trkpt lat="47.42943" lon="6.8085">
        <ele>429</ele>
        <time>2016-10-09T09:14:22.000Z</time>
      </trkpt>
      <trkpt lat="47.42942" lon="6.80847">
        <ele>429</ele>
        <time>2016-10-09T09:14:23.000Z</time>
      </trkpt>
      <trkpt lat="47.4294" lon="6.80845">
        <ele>429</ele>
        <time>2016-10-09T09:14:23.999Z</time>
      </trkpt>
      <trkpt lat="47.42938" lon="6.80839">
        <ele>429</ele>
        <time>2016-10-09T09:14:25.000Z</time>
      </trkpt>
      <trkpt lat="47.42937" lon="6.80833">
        <ele>428</ele>
        <time>2016-10-09T09:14:26.000Z</time>
      </trkpt>
      <trkpt lat="47.42936" lon="6.80827">
        <ele>428</ele>
        <time>2016-10-09T09:14:27.000Z</time>
      </trkpt>
      <trkpt lat="47.42935" lon="6.80823">
        <ele>428</ele>
        <time>2016-10-09T09:14:28.000Z</time>
      </trkpt>
      <trkpt lat="47.42934" lon="6.80816">
        <ele>428</ele>
        <time>2016-10-09T09:14:29.000Z</time>
      </trkpt>
      <trkpt lat="47.42932" lon="6.80812">
        <ele>428</ele>
        <time>2016-10-09T09:14:29.999Z</time>
      </trkpt>
      <trkpt lat="47.42931" lon="6.80807">
        <ele>428</ele>
        <time>2016-10-09T09:14:31.000Z</time>
      </trkpt>
      <trkpt lat="47.42929" lon="6.80802">
        <ele>428</ele>
        <time>2016-10-09T09:14:32.000Z</time>
      </trkpt>
      <trkpt lat="47.42927" lon="6.80798">
        <ele>428</ele>
        <time>2016-10-09T09:14:33.000Z</time>
      </trkpt>
      <trkpt lat="47.42926" lon="6.80795">
        <ele>427</ele>
        <time>2016-10-09T09:14:34.000Z</time>
      </trkpt>
      <trkpt lat="47.42924" lon="6.80792">
        <ele>427</ele>
        <time>2016-10-09T09:14:35.000Z</time>
      </trkpt>
      <trkpt lat="47.42923" lon="6.80789">
        <ele>427</ele>
        <time>2016-10-09T09:14:35.999Z</time>
      </trkpt>
      <trkpt lat="47.42921" lon="6.80786">
        <ele>427</ele>
        <time>2016-10-09T09:14:37.000Z</time>
      </trkpt>
      <trkpt lat="47.42919" lon="6.80783">
        <ele>427</ele>
        <time>2016-10-09T09:14:38.000Z</time>
      </trkpt>
      <trkpt lat="47.42918" lon="6.8078">
        <ele>427</ele>
        <time>2016-10-09T09:14:38.999Z</time>
      </trkpt>
      <trkpt lat="47.42916" lon="6.80775">
        <ele>432</ele>
        <time>2016-10-09T09:14:40.000Z</time>
      </trkpt>
      <trkpt lat="47.42915" lon="6.80772">
        <ele>432</ele>
        <time>2016-10-09T09:14:41.000Z</time>
      </trkpt>
      <trkpt lat="47.42913" lon="6.8077">
        <ele>431</ele>
        <time>2016-10-09T09:14:42.000Z</time>
      </trkpt>
      <trkpt lat="47.42911" lon="6.80768">
        <ele>431</ele>
        <time>2016-10-09T09:14:43.000Z</time>
      </trkpt>
      <trkpt lat="47.42908" lon="6.80762">
        <ele>430</ele>
        <time>2016-10-09T09:14:45.000Z</time>
      </trkpt>
      <trkpt lat="47.42907" lon="6.80759">
        <ele>430</ele>
        <time>2016-10-09T09:14:46.000Z</time>
      </trkpt>
      <trkpt lat="47.42906" lon="6.80756">
        <ele>430</ele>
        <time>2016-10-09T09:14:47.000Z</time>
      </trkpt>
      <trkpt lat="47.42905" lon="6.80753">
        <ele>430</ele>
        <time>2016-10-09T09:14:48.000Z</time>
      </trkpt>
      <trkpt lat="47.42903" lon="6.8075">
        <ele>428</ele>
        <time>2016-10-09T09:14:49.000Z</time>
      </trkpt>
      <trkpt lat="47.42901" lon="6.80746">
        <ele>428</ele>
        <time>2016-10-09T09:14:50.000Z</time>
      </trkpt>
      <trkpt lat="47.42899" lon="6.80743">
        <ele>428</ele>
        <time>2016-10-09T09:14:51.000Z</time>
      </trkpt>
      <trkpt lat="47.42897" lon="6.8074">
        <ele>429</ele>
        <time>2016-10-09T09:14:52.000Z</time>
      </trkpt>
      <trkpt lat="47.42895" lon="6.80736">
        <ele>429</ele>
        <time>2016-10-09T09:14:53.000Z</time>
      </trkpt>
      <trkpt lat="47.42894" lon="6.80733">
        <ele>430</ele>
        <time>2016-10-09T09:14:54.000Z</time>
      </trkpt>
      <trkpt lat="47.42893" lon="6.8073">
        <ele>430</ele>
        <time>2016-10-09T09:14:55.000Z</time>
      </trkpt>
      <trkpt lat="47.42892" lon="6.80727">
        <ele>430</ele>
        <time>2016-10-09T09:14:56.000Z</time>
      </trkpt>
      <trkpt lat="47.4289" lon="6.80724">
        <ele>430</ele>
        <time>2016-10-09T09:14:57.000Z</time>
      </trkpt>
      <trkpt lat="47.42889" lon="6.80721">
        <ele>431</ele>
        <time>2016-10-09T09:14:58.000Z</time>
      </trkpt>
      <trkpt lat="47.42886" lon="6.80716">
        <ele>431</ele>
        <time>2016-10-09T09:15:00.000Z</time>
      </trkpt>
      <trkpt lat="47.42885" lon="6.80714">
        <ele>431</ele>
        <time>2016-10-09T09:15:01.000Z</time>
      </trkpt>
      <trkpt lat="47.42883" lon="6.80708">
        <ele>431</ele>
        <time>2016-10-09T09:15:03.000Z</time>
      </trkpt>
      <trkpt lat="47.42882" lon="6.80705">
        <ele>431</ele>
        <time>2016-10-09T09:15:04.000Z</time>
      </trkpt>
      <trkpt lat="47.42881" lon="6.80703">
        <ele>431</ele>
        <time>2016-10-09T09:15:05.000Z</time>
      </trkpt>
      <trkpt lat="47.4288" lon="6.80699">
        <ele>431</ele>
        <time>2016-10-09T09:15:06.000Z</time>
      </trkpt>
      <trkpt lat="47.42878" lon="6.80693">
        <ele>431</ele>
        <time>2016-10-09T09:15:08.000Z</time>
      </trkpt>
      <trkpt lat="47.42877" lon="6.8069">
        <ele>431</ele>
        <time>2016-10-09T09:15:09.000Z</time>
      </trkpt>
      <trkpt lat="47.42875" lon="6.80685">
        <ele>431</ele>
        <time>2016-10-09T09:15:11.000Z</time>
      </trkpt>
      <trkpt lat="47.42874" lon="6.80683">
        <ele>431</ele>
        <time>2016-10-09T09:15:12.000Z</time>
      </trkpt>
      <trkpt lat="47.42872" lon="6.80681">
        <ele>431</ele>
        <time>2016-10-09T09:15:13.000Z</time>
      </trkpt>
      <trkpt lat="47.4287" lon="6.8068">
        <ele>431</ele>
        <time>2016-10-09T09:15:14.000Z</time>
      </trkpt>
      <trkpt lat="47.42868" lon="6.80678">
        <ele>431</ele>
        <time>2016-10-09T09:15:15.000Z</time>
      </trkpt>
      <trkpt lat="47.42865" lon="6.80676">
        <ele>431</ele>
        <time>2016-10-09T09:15:16.000Z</time>
      </trkpt>
      <trkpt lat="47.42863" lon="6.80674">
        <ele>431</ele>
        <time>2016-10-09T09:15:17.000Z</time>
      </trkpt>
      <trkpt lat="47.42861" lon="6.80673">
        <ele>431</ele>
        <time>2016-10-09T09:15:18.000Z</time>
      </trkpt>
      <trkpt lat="47.42857" lon="6.80672">
        <ele>431</ele>
        <time>2016-10-09T09:15:20.000Z</time>
      </trkpt>
      <trkpt lat="47.42856" lon="6.80672">
        <ele>431</ele>
        <time>2016-10-09T09:15:21.000Z</time>
      </trkpt>
      <trkpt lat="47.42853" lon="6.80671">
        <ele>431</ele>
        <time>2016-10-09T09:15:23.000Z</time>
      </trkpt>
      <trkpt lat="47.42851" lon="6.80669">
        <ele>431</ele>
        <time>2016-10-09T09:15:24.000Z</time>
      </trkpt>
      <trkpt lat="47.42849" lon="6.80667">
        <ele>432</ele>
        <time>2016-10-09T09:15:26.000Z</time>
      </trkpt>
      <trkpt lat="47.42847" lon="6.80665">
        <ele>432</ele>
        <time>2016-10-09T09:15:27.000Z</time>
      </trkpt>
      <trkpt lat="47.42844" lon="6.80664">
        <ele>432</ele>
        <time>2016-10-09T09:15:29.000Z</time>
      </trkpt>
      <trkpt lat="47.42843" lon="6.80663">
        <ele>432</ele>
        <time>2016-10-09T09:15:30.000Z</time>
      </trkpt>
      <trkpt lat="47.42839" lon="6.80661">
        <ele>432</ele>
        <time>2016-10-09T09:15:32.000Z</time>
      </trkpt>
      <trkpt lat="47.42837" lon="6.8066">
        <ele>432</ele>
        <time>2016-10-09T09:15:33.000Z</time>
      </trkpt>
      <trkpt lat="47.42834" lon="6.80658">
        <ele>432</ele>
        <time>2016-10-09T09:15:35.000Z</time>
      </trkpt>
      <trkpt lat="47.42832" lon="6.80657">
        <ele>434</ele>
        <time>2016-10-09T09:15:36.000Z</time>
      </trkpt>
      <trkpt lat="47.42829" lon="6.80654">
        <ele>435</ele>
        <time>2016-10-09T09:15:40.000Z</time>
      </trkpt>
      <trkpt lat="47.42828" lon="6.80653">
        <ele>435</ele>
        <time>2016-10-09T09:15:41.000Z</time>
      </trkpt>
      <trkpt lat="47.42824" lon="6.80651">
        <ele>436</ele>
        <time>2016-10-09T09:15:44.000Z</time>
      </trkpt>
      <trkpt lat="47.42823" lon="6.8065">
        <ele>436</ele>
        <time>2016-10-09T09:15:45.000Z</time>
      </trkpt>
      <trkpt lat="47.42819" lon="6.80649">
        <ele>437</ele>
        <time>2016-10-09T09:15:47.000Z</time>
      </trkpt>
      <trkpt lat="47.42817" lon="6.80648">
        <ele>437</ele>
        <time>2016-10-09T09:15:48.000Z</time>
      </trkpt>
      <trkpt lat="47.42815" lon="6.80648">
        <ele>437</ele>
        <time>2016-10-09T09:15:49.000Z</time>
      </trkpt>
      <trkpt lat="47.42812" lon="6.80647">
        <ele>438</ele>
        <time>2016-10-09T09:15:50.000Z</time>
      </trkpt>
      <trkpt lat="47.42809" lon="6.80647">
        <ele>438</ele>
        <time>2016-10-09T09:15:52.000Z</time>
      </trkpt>
      <trkpt lat="47.42808" lon="6.80647">
        <ele>438</ele>
        <time>2016-10-09T09:15:53.000Z</time>
      </trkpt>
      <trkpt lat="47.42804" lon="6.80647">
        <ele>438</ele>
        <time>2016-10-09T09:15:55.000Z</time>
      </trkpt>
      <trkpt lat="47.42802" lon="6.80646">
        <ele>439</ele>
        <time>2016-10-09T09:15:56.000Z</time>
      </trkpt>
      <trkpt lat="47.42798" lon="6.80645">
        <ele>439</ele>
        <time>2016-10-09T09:15:59.000Z</time>
      </trkpt>
      <trkpt lat="47.42796" lon="6.80645">
        <ele>439</ele>
        <time>2016-10-09T09:16:00.000Z</time>
      </trkpt>
      <trkpt lat="47.42792" lon="6.80644">
        <ele>440</ele>
        <time>2016-10-09T09:16:02.000Z</time>
      </trkpt>
      <trkpt lat="47.4279" lon="6.80644">
        <ele>440</ele>
        <time>2016-10-09T09:16:03.000Z</time>
      </trkpt>
      <trkpt lat="47.42785" lon="6.80644">
        <ele>440</ele>
        <time>2016-10-09T09:16:05.000Z</time>
      </trkpt>
      <trkpt lat="47.42784" lon="6.80644">
        <ele>440</ele>
        <time>2016-10-09T09:16:06.000Z</time>
      </trkpt>
      <trkpt lat="47.4278" lon="6.80644">
        <ele>440</ele>
        <time>2016-10-09T09:16:08.000Z</time>
      </trkpt>
      <trkpt lat="47.42777" lon="6.80644">
        <ele>441</ele>
        <time>2016-10-09T09:16:09.000Z</time>
      </trkpt>
      <trkpt lat="47.42775" lon="6.80643">
        <ele>441</ele>
        <time>2016-10-09T09:16:10.000Z</time>
      </trkpt>
      <trkpt lat="47.42773" lon="6.80643">
        <ele>441</ele>
        <time>2016-10-09T09:16:11.000Z</time>
      </trkpt>
      <trkpt lat="47.42768" lon="6.80642">
        <ele>441</ele>
        <time>2016-10-09T09:16:13.000Z</time>
      </trkpt>
      <trkpt lat="47.42766" lon="6.80641">
        <ele>441</ele>
        <time>2016-10-09T09:16:14.000Z</time>
      </trkpt>
      <trkpt lat="47.42763" lon="6.80641">
        <ele>441</ele>
        <time>2016-10-09T09:16:15.000Z</time>
      </trkpt>
      <trkpt lat="47.4276" lon="6.8064">
        <ele>441</ele>
        <time>2016-10-09T09:16:16.000Z</time>
      </trkpt>
      <trkpt lat="47.42758" lon="6.80639">
        <ele>442</ele>
        <time>2016-10-09T09:16:17.000Z</time>
      </trkpt>
      <trkpt lat="47.42754" lon="6.80637">
        <ele>442</ele>
        <time>2016-10-09T09:16:18.000Z</time>
      </trkpt>
      <trkpt lat="47.42751" lon="6.80636">
        <ele>442</ele>
        <time>2016-10-09T09:16:19.000Z</time>
      </trkpt>
      <trkpt lat="47.42748" lon="6.80635">
        <ele>448</ele>
        <time>2016-10-09T09:16:20.000Z</time>
      </trkpt>
      <trkpt lat="47.42745" lon="6.80634">
        <ele>448</ele>
        <time>2016-10-09T09:16:21.000Z</time>
      </trkpt>
      <trkpt lat="47.42742" lon="6.80633">
        <ele>448</ele>
        <time>2016-10-09T09:16:22.000Z</time>
      </trkpt>
      <trkpt lat="47.4274" lon="6.80632">
        <ele>448</ele>
        <time>2016-10-09T09:16:23.000Z</time>
      </trkpt>
      <trkpt lat="47.42737" lon="6.80631">
        <ele>448</ele>
        <time>2016-10-09T09:16:24.000Z</time>
      </trkpt>
      <trkpt lat="47.42733" lon="6.80629">
        <ele>449</ele>
        <time>2016-10-09T09:16:26.000Z</time>
      </trkpt>
      <trkpt lat="47.42731" lon="6.80628">
        <ele>449</ele>
        <time>2016-10-09T09:16:27.000Z</time>
      </trkpt>
      <trkpt lat="47.42728" lon="6.80627">
        <ele>449</ele>
        <time>2016-10-09T09:16:28.000Z</time>
      </trkpt>
      <trkpt lat="47.42725" lon="6.80626">
        <ele>449</ele>
        <time>2016-10-09T09:16:29.000Z</time>
      </trkpt>
      <trkpt lat="47.42721" lon="6.80625">
        <ele>449</ele>
        <time>2016-10-09T09:16:31.000Z</time>
      </trkpt>
      <trkpt lat="47.42719" lon="6.80625">
        <ele>449</ele>
        <time>2016-10-09T09:16:32.000Z</time>
      </trkpt>
      <trkpt lat="47.42714" lon="6.80626">
        <ele>450</ele>
        <time>2016-10-09T09:16:34.000Z</time>
      </trkpt>
      <trkpt lat="47.42712" lon="6.80626">
        <ele>450</ele>
        <time>2016-10-09T09:16:35.000Z</time>
      </trkpt>
      <trkpt lat="47.42708" lon="6.80625">
        <ele>450</ele>
        <time>2016-10-09T09:16:37.000Z</time>
      </trkpt>
      <trkpt lat="47.42706" lon="6.80625">
        <ele>450</ele>
        <time>2016-10-09T09:16:38.000Z</time>
      </trkpt>
      <trkpt lat="47.42702" lon="6.80623">
        <ele>450</ele>
        <time>2016-10-09T09:16:40.000Z</time>
      </trkpt>
      <trkpt lat="47.427" lon="6.80622">
        <ele>450</ele>
        <time>2016-10-09T09:16:41.000Z</time>
      </trkpt>
      <trkpt lat="47.42696" lon="6.80621">
        <ele>451</ele>
        <time>2016-10-09T09:16:43.000Z</time>
      </trkpt>
      <trkpt lat="47.42695" lon="6.80621">
        <ele>451</ele>
        <time>2016-10-09T09:16:44.000Z</time>
      </trkpt>
      <trkpt lat="47.42691" lon="6.8062">
        <ele>451</ele>
        <time>2016-10-09T09:16:46.000Z</time>
      </trkpt>
      <trkpt lat="47.42688" lon="6.80619">
        <ele>451</ele>
        <time>2016-10-09T09:16:47.000Z</time>
      </trkpt>
      <trkpt lat="47.42679" lon="6.80616">
        <ele>451</ele>
        <time>2016-10-09T09:16:48.000Z</time>
      </trkpt>
      <trkpt lat="47.42675" lon="6.80617">
        <ele>452</ele>
        <time>2016-10-09T09:16:50.000Z</time>
      </trkpt>
      <trkpt lat="47.42674" lon="6.80615">
        <ele>452</ele>
        <time>2016-10-09T09:16:51.000Z</time>
      </trkpt>
      <trkpt lat="47.4267" lon="6.80613">
        <ele>452</ele>
        <time>2016-10-09T09:16:52.000Z</time>
      </trkpt>
      <trkpt lat="47.42667" lon="6.80612">
        <ele>452</ele>
        <time>2016-10-09T09:16:53.000Z</time>
      </trkpt>
      <trkpt lat="47.42663" lon="6.80609">
        <ele>458</ele>
        <time>2016-10-09T09:16:55.000Z</time>
      </trkpt>
      <trkpt lat="47.42661" lon="6.80608">
        <ele>458</ele>
        <time>2016-10-09T09:16:56.000Z</time>
      </trkpt>
      <trkpt lat="47.42657" lon="6.80608">
        <ele>458</ele>
        <time>2016-10-09T09:16:58.000Z</time>
      </trkpt>
      <trkpt lat="47.42655" lon="6.80608">
        <ele>458</ele>
        <time>2016-10-09T09:16:59.000Z</time>
      </trkpt>
      <trkpt lat="47.42651" lon="6.80607">
        <ele>458</ele>
        <time>2016-10-09T09:17:01.000Z</time>
      </trkpt>
      <trkpt lat="47.4265" lon="6.80606">
        <ele>458</ele>
        <time>2016-10-09T09:17:02.000Z</time>
      </trkpt>
      <trkpt lat="47.42647" lon="6.80602">
        <ele>458</ele>
        <time>2016-10-09T09:17:04.000Z</time>
      </trkpt>
      <trkpt lat="47.42646" lon="6.80601">
        <ele>458</ele>
        <time>2016-10-09T09:17:05.000Z</time>
      </trkpt>
      <trkpt lat="47.42643" lon="6.80596">
        <ele>458</ele>
        <time>2016-10-09T09:17:07.000Z</time>
      </trkpt>
      <trkpt lat="47.42642" lon="6.80594">
        <ele>458</ele>
        <time>2016-10-09T09:17:08.000Z</time>
      </trkpt>
      <trkpt lat="47.4264" lon="6.80589">
        <ele>458</ele>
        <time>2016-10-09T09:17:10.000Z</time>
      </trkpt>
      <trkpt lat="47.42639" lon="6.80586">
        <ele>458</ele>
        <time>2016-10-09T09:17:11.000Z</time>
      </trkpt>
      <trkpt lat="47.42637" lon="6.80581">
        <ele>459</ele>
        <time>2016-10-09T09:17:13.000Z</time>
      </trkpt>
      <trkpt lat="47.42636" lon="6.80579">
        <ele>459</ele>
        <time>2016-10-09T09:17:14.000Z</time>
      </trkpt>
      <trkpt lat="47.42634" lon="6.80574">
        <ele>460</ele>
        <time>2016-10-09T09:17:16.000Z</time>
      </trkpt>
      <trkpt lat="47.42633" lon="6.80572">
        <ele>460</ele>
        <time>2016-10-09T09:17:17.000Z</time>
      </trkpt>
      <trkpt lat="47.42631" lon="6.80567">
        <ele>460</ele>
        <time>2016-10-09T09:17:20.000Z</time>
      </trkpt>
      <trkpt lat="47.4263" lon="6.80566">
        <ele>461</ele>
        <time>2016-10-09T09:17:21.000Z</time>
      </trkpt>
      <trkpt lat="47.42627" lon="6.80562">
        <ele>461</ele>
        <time>2016-10-09T09:17:23.000Z</time>
      </trkpt>
      <trkpt lat="47.42626" lon="6.8056">
        <ele>461</ele>
        <time>2016-10-09T09:17:24.000Z</time>
      </trkpt>
      <trkpt lat="47.42623" lon="6.80556">
        <ele>461</ele>
        <time>2016-10-09T09:17:26.000Z</time>
      </trkpt>
      <trkpt lat="47.42622" lon="6.80555">
        <ele>461</ele>
        <time>2016-10-09T09:17:27.000Z</time>
      </trkpt>
      <trkpt lat="47.42619" lon="6.8055">
        <ele>462</ele>
        <time>2016-10-09T09:17:30.000Z</time>
      </trkpt>
      <trkpt lat="47.42617" lon="6.80548">
        <ele>462</ele>
        <time>2016-10-09T09:17:31.000Z</time>
      </trkpt>
      <trkpt lat="47.42614" lon="6.80543">
        <ele>462</ele>
        <time>2016-10-09T09:17:33.000Z</time>
      </trkpt>
      <trkpt lat="47.42613" lon="6.8054">
        <ele>462</ele>
        <time>2016-10-09T09:17:34.000Z</time>
      </trkpt>
      <trkpt lat="47.42611" lon="6.80537">
        <ele>462</ele>
        <time>2016-10-09T09:17:35.000Z</time>
      </trkpt>
      <trkpt lat="47.4261" lon="6.80535">
        <ele>463</ele>
        <time>2016-10-09T09:17:36.000Z</time>
      </trkpt>
      <trkpt lat="47.42606" lon="6.80531">
        <ele>463</ele>
        <time>2016-10-09T09:17:38.000Z</time>
      </trkpt>
      <trkpt lat="47.42605" lon="6.8053">
        <ele>463</ele>
        <time>2016-10-09T09:17:39.000Z</time>
      </trkpt>
      <trkpt lat="47.42602" lon="6.80527">
        <ele>463</ele>
        <time>2016-10-09T09:17:41.000Z</time>
      </trkpt>
      <trkpt lat="47.42601" lon="6.80525">
        <ele>463</ele>
        <time>2016-10-09T09:17:42.000Z</time>
      </trkpt>
      <trkpt lat="47.42597" lon="6.80522">
        <ele>463</ele>
        <time>2016-10-09T09:17:44.000Z</time>
      </trkpt>
      <trkpt lat="47.42595" lon="6.8052">
        <ele>464</ele>
        <time>2016-10-09T09:17:45.000Z</time>
      </trkpt>
      <trkpt lat="47.42592" lon="6.80516">
        <ele>464</ele>
        <time>2016-10-09T09:17:47.000Z</time>
      </trkpt>
      <trkpt lat="47.42591" lon="6.80514">
        <ele>464</ele>
        <time>2016-10-09T09:17:48.000Z</time>
      </trkpt>
      <trkpt lat="47.42589" lon="6.80511">
        <ele>465</ele>
        <time>2016-10-09T09:17:50.000Z</time>
      </trkpt>
      <trkpt lat="47.42588" lon="6.80509">
        <ele>465</ele>
        <time>2016-10-09T09:17:51.000Z</time>
      </trkpt>
      <trkpt lat="47.42585" lon="6.80504">
        <ele>465</ele>
        <time>2016-10-09T09:17:53.000Z</time>
      </trkpt>
      <trkpt lat="47.42584" lon="6.80502">
        <ele>466</ele>
        <time>2016-10-09T09:17:54.000Z</time>
      </trkpt>
      <trkpt lat="47.42582" lon="6.80497">
        <ele>467</ele>
        <time>2016-10-09T09:17:56.000Z</time>
      </trkpt>
      <trkpt lat="47.42581" lon="6.80495">
        <ele>468</ele>
        <time>2016-10-09T09:17:57.000Z</time>
      </trkpt>
      <trkpt lat="47.4258" lon="6.8049">
        <ele>470</ele>
        <time>2016-10-09T09:17:59.000Z</time>
      </trkpt>
      <trkpt lat="47.4258" lon="6.80487">
        <ele>470</ele>
        <time>2016-10-09T09:18:00.000Z</time>
      </trkpt>
      <trkpt lat="47.4258" lon="6.8048">
        <ele>471</ele>
        <time>2016-10-09T09:18:03.000Z</time>
      </trkpt>
      <trkpt lat="47.42579" lon="6.80478">
        <ele>472</ele>
        <time>2016-10-09T09:18:04.000Z</time>
      </trkpt>
      <trkpt lat="47.42578" lon="6.80472">
        <ele>472</ele>
        <time>2016-10-09T09:18:06.000Z</time>
      </trkpt>
      <trkpt lat="47.42577" lon="6.80468">
        <ele>473</ele>
        <time>2016-10-09T09:18:07.000Z</time>
      </trkpt>
      <trkpt lat="47.42576" lon="6.80464">
        <ele>473</ele>
        <time>2016-10-09T09:18:08.000Z</time>
      </trkpt>
      <trkpt lat="47.42575" lon="6.8046">
        <ele>473</ele>
        <time>2016-10-09T09:18:09.000Z</time>
      </trkpt>
      <trkpt lat="47.42575" lon="6.80455">
        <ele>473</ele>
        <time>2016-10-09T09:18:11.000Z</time>
      </trkpt>
      <trkpt lat="47.42575" lon="6.80452">
        <ele>473</ele>
        <time>2016-10-09T09:18:12.000Z</time>
      </trkpt>
      <trkpt lat="47.42574" lon="6.80446">
        <ele>473</ele>
        <time>2016-10-09T09:18:14.000Z</time>
      </trkpt>
      <trkpt lat="47.42574" lon="6.80442">
        <ele>473</ele>
        <time>2016-10-09T09:18:15.000Z</time>
      </trkpt>
      <trkpt lat="47.42573" lon="6.80436">
        <ele>473</ele>
        <time>2016-10-09T09:18:17.000Z</time>
      </trkpt>
      <trkpt lat="47.42572" lon="6.80433">
        <ele>473</ele>
        <time>2016-10-09T09:18:18.000Z</time>
      </trkpt>
      <trkpt lat="47.4257" lon="6.80428">
        <ele>473</ele>
        <time>2016-10-09T09:18:20.000Z</time>
      </trkpt>
      <trkpt lat="47.42569" lon="6.80425">
        <ele>473</ele>
        <time>2016-10-09T09:18:21.000Z</time>
      </trkpt>
      <trkpt lat="47.42569" lon="6.80419">
        <ele>472</ele>
        <time>2016-10-09T09:18:23.000Z</time>
      </trkpt>
      <trkpt lat="47.42569" lon="6.80415">
        <ele>474</ele>
        <time>2016-10-09T09:18:24.000Z</time>
      </trkpt>
      <trkpt lat="47.42568" lon="6.80409">
        <ele>474</ele>
        <time>2016-10-09T09:18:26.000Z</time>
      </trkpt>
      <trkpt lat="47.42568" lon="6.80406">
        <ele>474</ele>
        <time>2016-10-09T09:18:27.000Z</time>
      </trkpt>
      <trkpt lat="47.42569" lon="6.80402">
        <ele>475</ele>
        <time>2016-10-09T09:18:28.000Z</time>
      </trkpt>
      <trkpt lat="47.42569" lon="6.80399">
        <ele>475</ele>
        <time>2016-10-09T09:18:29.000Z</time>
      </trkpt>
      <trkpt lat="47.42568" lon="6.80392">
        <ele>476</ele>
        <time>2016-10-09T09:18:31.000Z</time>
      </trkpt>
      <trkpt lat="47.42568" lon="6.80389">
        <ele>476</ele>
        <time>2016-10-09T09:18:32.000Z</time>
      </trkpt>
      <trkpt lat="47.42566" lon="6.80383">
        <ele>476</ele>
        <time>2016-10-09T09:18:34.000Z</time>
      </trkpt>
      <trkpt lat="47.42566" lon="6.8038">
        <ele>477</ele>
        <time>2016-10-09T09:18:35.000Z</time>
      </trkpt>
      <trkpt lat="47.42566" lon="6.80374">
        <ele>477</ele>
        <time>2016-10-09T09:18:37.000Z</time>
      </trkpt>
      <trkpt lat="47.42565" lon="6.80371">
        <ele>477</ele>
        <time>2016-10-09T09:18:38.000Z</time>
      </trkpt>
      <trkpt lat="47.42564" lon="6.80365">
        <ele>477</ele>
        <time>2016-10-09T09:18:40.000Z</time>
      </trkpt>
      <trkpt lat="47.42563" lon="6.80362">
        <ele>477</ele>
        <time>2016-10-09T09:18:41.000Z</time>
      </trkpt>
      <trkpt lat="47.42563" lon="6.80356">
        <ele>477</ele>
        <time>2016-10-09T09:18:43.000Z</time>
      </trkpt>
      <trkpt lat="47.42562" lon="6.80353">
        <ele>477</ele>
        <time>2016-10-09T09:18:44.000Z</time>
      </trkpt>
      <trkpt lat="47.42561" lon="6.80347">
        <ele>477</ele>
        <time>2016-10-09T09:18:46.000Z</time>
      </trkpt>
      <trkpt lat="47.4256" lon="6.80345">
        <ele>477</ele>
        <time>2016-10-09T09:18:47.000Z</time>
      </trkpt>
      <trkpt lat="47.42559" lon="6.80339">
        <ele>477</ele>
        <time>2016-10-09T09:18:49.000Z</time>
      </trkpt>
      <trkpt lat="47.42558" lon="6.80337">
        <ele>477</ele>
        <time>2016-10-09T09:18:50.000Z</time>
      </trkpt>
      <trkpt lat="47.42556" lon="6.80332">
        <ele>480</ele>
        <time>2016-10-09T09:18:52.000Z</time>
      </trkpt>
      <trkpt lat="47.42556" lon="6.8033">
        <ele>480</ele>
        <time>2016-10-09T09:18:53.000Z</time>
      </trkpt>
      <trkpt lat="47.42553" lon="6.80324">
        <ele>480</ele>
        <time>2016-10-09T09:18:55.000Z</time>
      </trkpt>
      <trkpt lat="47.42552" lon="6.80321">
        <ele>481</ele>
        <time>2016-10-09T09:18:56.000Z</time>
      </trkpt>
      <trkpt lat="47.42551" lon="6.80317">
        <ele>481</ele>
        <time>2016-10-09T09:18:57.000Z</time>
      </trkpt>
      <trkpt lat="47.4255" lon="6.80314">
        <ele>481</ele>
        <time>2016-10-09T09:18:58.000Z</time>
      </trkpt>
      <trkpt lat="47.42551" lon="6.80307">
        <ele>481</ele>
        <time>2016-10-09T09:19:00.000Z</time>
      </trkpt>
      <trkpt lat="47.4255" lon="6.80305">
        <ele>481</ele>
        <time>2016-10-09T09:19:01.000Z</time>
      </trkpt>
      <trkpt lat="47.4255" lon="6.80298">
        <ele>482</ele>
        <time>2016-10-09T09:19:04.000Z</time>
      </trkpt>
      <trkpt lat="47.42551" lon="6.80296">
        <ele>482</ele>
        <time>2016-10-09T09:19:05.000Z</time>
      </trkpt>
      <trkpt lat="47.42553" lon="6.80293">
        <ele>482</ele>
        <time>2016-10-09T09:19:07.000Z</time>
      </trkpt>
      <trkpt lat="47.42554" lon="6.80291">
        <ele>482</ele>
        <time>2016-10-09T09:19:08.000Z</time>
      </trkpt>
      <trkpt lat="47.42556" lon="6.80288">
        <ele>482</ele>
        <time>2016-10-09T09:19:09.000Z</time>
      </trkpt>
      <trkpt lat="47.42557" lon="6.80284">
        <ele>482</ele>
        <time>2016-10-09T09:19:10.000Z</time>
      </trkpt>
      <trkpt lat="47.4256" lon="6.80281">
        <ele>482</ele>
        <time>2016-10-09T09:19:11.000Z</time>
      </trkpt>
      <trkpt lat="47.42562" lon="6.80278">
        <ele>481</ele>
        <time>2016-10-09T09:19:12.000Z</time>
      </trkpt>
      <trkpt lat="47.42565" lon="6.80275">
        <ele>481</ele>
        <time>2016-10-09T09:19:13.000Z</time>
      </trkpt>
      <trkpt lat="47.42568" lon="6.80273">
        <ele>481</ele>
        <time>2016-10-09T09:19:14.000Z</time>
      </trkpt>
      <trkpt lat="47.42571" lon="6.8027">
        <ele>481</ele>
        <time>2016-10-09T09:19:15.000Z</time>
      </trkpt>
      <trkpt lat="47.42574" lon="6.80266">
        <ele>481</ele>
        <time>2016-10-09T09:19:16.000Z</time>
      </trkpt>
      <trkpt lat="47.42577" lon="6.80263">
        <ele>480</ele>
        <time>2016-10-09T09:19:17.000Z</time>
      </trkpt>
      <trkpt lat="47.42579" lon="6.8026">
        <ele>480</ele>
        <time>2016-10-09T09:19:18.000Z</time>
      </trkpt>
      <trkpt lat="47.42582" lon="6.80258">
        <ele>480</ele>
        <time>2016-10-09T09:19:19.000Z</time>
      </trkpt>
      <trkpt lat="47.42584" lon="6.80257">
        <ele>479</ele>
        <time>2016-10-09T09:19:20.000Z</time>
      </trkpt>
      <trkpt lat="47.42587" lon="6.80256">
        <ele>479</ele>
        <time>2016-10-09T09:19:21.000Z</time>
      </trkpt>
      <trkpt lat="47.4259" lon="6.80256">
        <ele>479</ele>
        <time>2016-10-09T09:19:22.000Z</time>
      </trkpt>
      <trkpt lat="47.42593" lon="6.80257">
        <ele>479</ele>
        <time>2016-10-09T09:19:23.000Z</time>
      </trkpt>
      <trkpt lat="47.42595" lon="6.80257">
        <ele>479</ele>
        <time>2016-10-09T09:19:24.000Z</time>
      </trkpt>
      <trkpt lat="47.42599" lon="6.80258">
        <ele>479</ele>
        <time>2016-10-09T09:19:26.000Z</time>
      </trkpt>
      <trkpt lat="47.42601" lon="6.80258">
        <ele>479</ele>
        <time>2016-10-09T09:19:27.000Z</time>
      </trkpt>
      <trkpt lat="47.42604" lon="6.80259">
        <ele>479</ele>
        <time>2016-10-09T09:19:29.000Z</time>
      </trkpt>
      <trkpt lat="47.42606" lon="6.80259">
        <ele>479</ele>
        <time>2016-10-09T09:19:30.000Z</time>
      </trkpt>
      <trkpt lat="47.42609" lon="6.8026">
        <ele>479</ele>
        <time>2016-10-09T09:19:31.000Z</time>
      </trkpt>
      <trkpt lat="47.42611" lon="6.80261">
        <ele>479</ele>
        <time>2016-10-09T09:19:32.000Z</time>
      </trkpt>
      <trkpt lat="47.42614" lon="6.80262">
        <ele>479</ele>
        <time>2016-10-09T09:19:33.000Z</time>
      </trkpt>
      <trkpt lat="47.42616" lon="6.80263">
        <ele>479</ele>
        <time>2016-10-09T09:19:34.000Z</time>
      </trkpt>
      <trkpt lat="47.42619" lon="6.80264">
        <ele>479</ele>
        <time>2016-10-09T09:19:35.000Z</time>
      </trkpt>
      <trkpt lat="47.42622" lon="6.80264">
        <ele>479</ele>
        <time>2016-10-09T09:19:36.000Z</time>
      </trkpt>
      <trkpt lat="47.42625" lon="6.80265">
        <ele>479</ele>
        <time>2016-10-09T09:19:37.000Z</time>
      </trkpt>
      <trkpt lat="47.42627" lon="6.80265">
        <ele>479</ele>
        <time>2016-10-09T09:19:38.000Z</time>
      </trkpt>
      <trkpt lat="47.42629" lon="6.80265">
        <ele>480</ele>
        <time>2016-10-09T09:19:39.000Z</time>
      </trkpt>
      <trkpt lat="47.42632" lon="6.80265">
        <ele>480</ele>
        <time>2016-10-09T09:19:40.000Z</time>
      </trkpt>
      <trkpt lat="47.42634" lon="6.80265">
        <ele>480</ele>
        <time>2016-10-09T09:19:41.000Z</time>
      </trkpt>
      <trkpt lat="47.42637" lon="6.80265">
        <ele>480</ele>
        <time>2016-10-09T09:19:42.000Z</time>
      </trkpt>
      <trkpt lat="47.42639" lon="6.80265">
        <ele>480</ele>
        <time>2016-10-09T09:19:43.000Z</time>
      </trkpt>
      <trkpt lat="47.42642" lon="6.80265">
        <ele>480</ele>
        <time>2016-10-09T09:19:44.000Z</time>
      </trkpt>
      <trkpt lat="47.42644" lon="6.80265">
        <ele>480</ele>
        <time>2016-10-09T09:19:45.000Z</time>
      </trkpt>
      <trkpt lat="47.42647" lon="6.80266">
        <ele>480</ele>
        <time>2016-10-09T09:19:46.000Z</time>
      </trkpt>
      <trkpt lat="47.42649" lon="6.80266">
        <ele>480</ele>
        <time>2016-10-09T09:19:47.000Z</time>
      </trkpt>
      <trkpt lat="47.42652" lon="6.80267">
        <ele>480</ele>
        <time>2016-10-09T09:19:48.000Z</time>
      </trkpt>
      <trkpt lat="47.42655" lon="6.80268">
        <ele>481</ele>
        <time>2016-10-09T09:19:49.000Z</time>
      </trkpt>
      <trkpt lat="47.42658" lon="6.80269">
        <ele>481</ele>
        <time>2016-10-09T09:19:50.000Z</time>
      </trkpt>
      <trkpt lat="47.42661" lon="6.8027">
        <ele>481</ele>
        <time>2016-10-09T09:19:51.000Z</time>
      </trkpt>
      <trkpt lat="47.42664" lon="6.8027">
        <ele>481</ele>
        <time>2016-10-09T09:19:52.000Z</time>
      </trkpt>
      <trkpt lat="47.42666" lon="6.8027">
        <ele>481</ele>
        <time>2016-10-09T09:19:53.000Z</time>
      </trkpt>
      <trkpt lat="47.42668" lon="6.80269">
        <ele>482</ele>
        <time>2016-10-09T09:19:54.000Z</time>
      </trkpt>
      <trkpt lat="47.42671" lon="6.80269">
        <ele>482</ele>
        <time>2016-10-09T09:19:55.000Z</time>
      </trkpt>
      <trkpt lat="47.42674" lon="6.8027">
        <ele>482</ele>
        <time>2016-10-09T09:19:56.000Z</time>
      </trkpt>
      <trkpt lat="47.42677" lon="6.8027">
        <ele>482</ele>
        <time>2016-10-09T09:19:57.000Z</time>
      </trkpt>
      <trkpt lat="47.42679" lon="6.8027">
        <ele>482</ele>
        <time>2016-10-09T09:19:58.000Z</time>
      </trkpt>
      <trkpt lat="47.42682" lon="6.8027">
        <ele>482</ele>
        <time>2016-10-09T09:19:59.000Z</time>
      </trkpt>
      <trkpt lat="47.42684" lon="6.8027">
        <ele>482</ele>
        <time>2016-10-09T09:20:00.000Z</time>
      </trkpt>
      <trkpt lat="47.42688" lon="6.80267">
        <ele>482</ele>
        <time>2016-10-09T09:20:02.000Z</time>
      </trkpt>
      <trkpt lat="47.4269" lon="6.80266">
        <ele>482</ele>
        <time>2016-10-09T09:20:03.000Z</time>
      </trkpt>
      <trkpt lat="47.42693" lon="6.80262">
        <ele>482</ele>
        <time>2016-10-09T09:20:05.000Z</time>
      </trkpt>
      <trkpt lat="47.42695" lon="6.80261">
        <ele>482</ele>
        <time>2016-10-09T09:20:06.000Z</time>
      </trkpt>
      <trkpt lat="47.42698" lon="6.80258">
        <ele>482</ele>
        <time>2016-10-09T09:20:08.000Z</time>
      </trkpt>
      <trkpt lat="47.427" lon="6.80258">
        <ele>482</ele>
        <time>2016-10-09T09:20:09.000Z</time>
      </trkpt>
      <trkpt lat="47.42703" lon="6.80257">
        <ele>482</ele>
        <time>2016-10-09T09:20:11.000Z</time>
      </trkpt>
      <trkpt lat="47.42705" lon="6.80256">
        <ele>482</ele>
        <time>2016-10-09T09:20:12.000Z</time>
      </trkpt>
      <trkpt lat="47.42706" lon="6.80253">
        <ele>482</ele>
        <time>2016-10-09T09:20:13.000Z</time>
      </trkpt>
      <trkpt lat="47.42708" lon="6.8025">
        <ele>482</ele>
        <time>2016-10-09T09:20:14.000Z</time>
      </trkpt>
      <trkpt lat="47.42711" lon="6.80247">
        <ele>484</ele>
        <time>2016-10-09T09:20:15.000Z</time>
      </trkpt>
      <trkpt lat="47.42713" lon="6.80245">
        <ele>484</ele>
        <time>2016-10-09T09:20:16.000Z</time>
      </trkpt>
      <trkpt lat="47.42715" lon="6.80242">
        <ele>484</ele>
        <time>2016-10-09T09:20:17.000Z</time>
      </trkpt>
      <trkpt lat="47.42718" lon="6.80239">
        <ele>484</ele>
        <time>2016-10-09T09:20:18.000Z</time>
      </trkpt>
      <trkpt lat="47.4272" lon="6.80235">
        <ele>484</ele>
        <time>2016-10-09T09:20:19.000Z</time>
      </trkpt>
      <trkpt lat="47.42722" lon="6.80231">
        <ele>484</ele>
        <time>2016-10-09T09:20:20.000Z</time>
      </trkpt>
      <trkpt lat="47.42724" lon="6.80227">
        <ele>484</ele>
        <time>2016-10-09T09:20:21.000Z</time>
      </trkpt>
      <trkpt lat="47.42726" lon="6.80223">
        <ele>484</ele>
        <time>2016-10-09T09:20:22.000Z</time>
      </trkpt>
      <trkpt lat="47.42727" lon="6.80218">
        <ele>484</ele>
        <time>2016-10-09T09:20:23.000Z</time>
      </trkpt>
      <trkpt lat="47.42728" lon="6.80214">
        <ele>484</ele>
        <time>2016-10-09T09:20:24.000Z</time>
      </trkpt>
      <trkpt lat="47.4273" lon="6.80209">
        <ele>484</ele>
        <time>2016-10-09T09:20:26.000Z</time>
      </trkpt>
      <trkpt lat="47.42732" lon="6.80207">
        <ele>484</ele>
        <time>2016-10-09T09:20:27.000Z</time>
      </trkpt>
      <trkpt lat="47.42733" lon="6.80204">
        <ele>484</ele>
        <time>2016-10-09T09:20:28.000Z</time>
      </trkpt>
      <trkpt lat="47.42734" lon="6.802">
        <ele>484</ele>
        <time>2016-10-09T09:20:29.000Z</time>
      </trkpt>
      <trkpt lat="47.42735" lon="6.80195">
        <ele>484</ele>
        <time>2016-10-09T09:20:30.000Z</time>
      </trkpt>
      <trkpt lat="47.42735" lon="6.80191">
        <ele>484</ele>
        <time>2016-10-09T09:20:31.000Z</time>
      </trkpt>
      <trkpt lat="47.42736" lon="6.80187">
        <ele>484</ele>
        <time>2016-10-09T09:20:32.000Z</time>
      </trkpt>
      <trkpt lat="47.42737" lon="6.80184">
        <ele>484</ele>
        <time>2016-10-09T09:20:33.000Z</time>
      </trkpt>
      <trkpt lat="47.42739" lon="6.8018">
        <ele>484</ele>
        <time>2016-10-09T09:20:34.000Z</time>
      </trkpt>
      <trkpt lat="47.4274" lon="6.80176">
        <ele>484</ele>
        <time>2016-10-09T09:20:35.000Z</time>
      </trkpt>
      <trkpt lat="47.4274" lon="6.80172">
        <ele>484</ele>
        <time>2016-10-09T09:20:36.000Z</time>
      </trkpt>
      <trkpt lat="47.42741" lon="6.80168">
        <ele>484</ele>
        <time>2016-10-09T09:20:37.000Z</time>
      </trkpt>
      <trkpt lat="47.42741" lon="6.80163">
        <ele>485</ele>
        <time>2016-10-09T09:20:38.000Z</time>
      </trkpt>
      <trkpt lat="47.42742" lon="6.80158">
        <ele>485</ele>
        <time>2016-10-09T09:20:39.000Z</time>
      </trkpt>
      <trkpt lat="47.42744" lon="6.80153">
        <ele>486</ele>
        <time>2016-10-09T09:20:40.000Z</time>
      </trkpt>
      <trkpt lat="47.42744" lon="6.80149">
        <ele>486</ele>
        <time>2016-10-09T09:20:41.000Z</time>
      </trkpt>
      <trkpt lat="47.42745" lon="6.80144">
        <ele>486</ele>
        <time>2016-10-09T09:20:42.000Z</time>
      </trkpt>
      <trkpt lat="47.42745" lon="6.8014">
        <ele>487</ele>
        <time>2016-10-09T09:20:43.000Z</time>
      </trkpt>
      <trkpt lat="47.42746" lon="6.80134">
        <ele>487</ele>
        <time>2016-10-09T09:20:45.000Z</time>
      </trkpt>
      <trkpt lat="47.42747" lon="6.80132">
        <ele>487</ele>
        <time>2016-10-09T09:20:46.000Z</time>
      </trkpt>
      <trkpt lat="47.42747" lon="6.80128">
        <ele>487</ele>
        <time>2016-10-09T09:20:47.000Z</time>
      </trkpt>
      <trkpt lat="47.42747" lon="6.80125">
        <ele>487</ele>
        <time>2016-10-09T09:20:48.000Z</time>
      </trkpt>
      <trkpt lat="47.42747" lon="6.80121">
        <ele>487</ele>
        <time>2016-10-09T09:20:49.000Z</time>
      </trkpt>
      <trkpt lat="47.42747" lon="6.80117">
        <ele>488</ele>
        <time>2016-10-09T09:20:50.000Z</time>
      </trkpt>
      <trkpt lat="47.42747" lon="6.80114">
        <ele>488</ele>
        <time>2016-10-09T09:20:51.000Z</time>
      </trkpt>
      <trkpt lat="47.42748" lon="6.8011">
        <ele>488</ele>
        <time>2016-10-09T09:20:52.000Z</time>
      </trkpt>
      <trkpt lat="47.42748" lon="6.80104">
        <ele>488</ele>
        <time>2016-10-09T09:20:54.000Z</time>
      </trkpt>
      <trkpt lat="47.42748" lon="6.80101">
        <ele>488</ele>
        <time>2016-10-09T09:20:55.000Z</time>
      </trkpt>
      <trkpt lat="47.42748" lon="6.80098">
        <ele>488</ele>
        <time>2016-10-09T09:20:56.000Z</time>
      </trkpt>
      <trkpt lat="47.42748" lon="6.80093">
        <ele>489</ele>
        <time>2016-10-09T09:20:57.000Z</time>
      </trkpt>
      <trkpt lat="47.42748" lon="6.80089">
        <ele>489</ele>
        <time>2016-10-09T09:20:58.000Z</time>
      </trkpt>
      <trkpt lat="47.42749" lon="6.80086">
        <ele>489</ele>
        <time>2016-10-09T09:20:59.000Z</time>
      </trkpt>
      <trkpt lat="47.4275" lon="6.80082">
        <ele>489</ele>
        <time>2016-10-09T09:21:00.000Z</time>
      </trkpt>
      <trkpt lat="47.42751" lon="6.80077">
        <ele>487</ele>
        <time>2016-10-09T09:21:01.000Z</time>
      </trkpt>
      <trkpt lat="47.42751" lon="6.80072">
        <ele>486</ele>
        <time>2016-10-09T09:21:02.000Z</time>
      </trkpt>
      <trkpt lat="47.42751" lon="6.80066">
        <ele>486</ele>
        <time>2016-10-09T09:21:03.000Z</time>
      </trkpt>
      <trkpt lat="47.42751" lon="6.80061">
        <ele>485</ele>
        <time>2016-10-09T09:21:04.000Z</time>
      </trkpt>
      <trkpt lat="47.42751" lon="6.80056">
        <ele>485</ele>
        <time>2016-10-09T09:21:05.000Z</time>
      </trkpt>
      <trkpt lat="47.42751" lon="6.80052">
        <ele>484</ele>
        <time>2016-10-09T09:21:06.000Z</time>
      </trkpt>
      <trkpt lat="47.42751" lon="6.80048">
        <ele>484</ele>
        <time>2016-10-09T09:21:07.000Z</time>
      </trkpt>
      <trkpt lat="47.42751" lon="6.80044">
        <ele>484</ele>
        <time>2016-10-09T09:21:08.000Z</time>
      </trkpt>
      <trkpt lat="47.42751" lon="6.8004">
        <ele>484</ele>
        <time>2016-10-09T09:21:09.000Z</time>
      </trkpt>
      <trkpt lat="47.42751" lon="6.80036">
        <ele>485</ele>
        <time>2016-10-09T09:21:10.000Z</time>
      </trkpt>
      <trkpt lat="47.4275" lon="6.80032">
        <ele>485</ele>
        <time>2016-10-09T09:21:11.000Z</time>
      </trkpt>
      <trkpt lat="47.42751" lon="6.80027">
        <ele>485</ele>
        <time>2016-10-09T09:21:13.000Z</time>
      </trkpt>
      <trkpt lat="47.42751" lon="6.80025">
        <ele>485</ele>
        <time>2016-10-09T09:21:14.000Z</time>
      </trkpt>
      <trkpt lat="47.42752" lon="6.80019">
        <ele>486</ele>
        <time>2016-10-09T09:21:16.000Z</time>
      </trkpt>
      <trkpt lat="47.42752" lon="6.80016">
        <ele>486</ele>
        <time>2016-10-09T09:21:17.000Z</time>
      </trkpt>
      <trkpt lat="47.42752" lon="6.80012">
        <ele>487</ele>
        <time>2016-10-09T09:21:18.000Z</time>
      </trkpt>
      <trkpt lat="47.42753" lon="6.80008">
        <ele>487</ele>
        <time>2016-10-09T09:21:19.000Z</time>
      </trkpt>
      <trkpt lat="47.42753" lon="6.80004">
        <ele>488</ele>
        <time>2016-10-09T09:21:20.000Z</time>
      </trkpt>
      <trkpt lat="47.42754" lon="6.8">
        <ele>489</ele>
        <time>2016-10-09T09:21:21.000Z</time>
      </trkpt>
      <trkpt lat="47.42754" lon="6.79994">
        <ele>488</ele>
        <time>2016-10-09T09:21:23.000Z</time>
      </trkpt>
      <trkpt lat="47.42754" lon="6.79991">
        <ele>488</ele>
        <time>2016-10-09T09:21:24.000Z</time>
      </trkpt>
      <trkpt lat="47.42755" lon="6.79985">
        <ele>487</ele>
        <time>2016-10-09T09:21:26.000Z</time>
      </trkpt>
      <trkpt lat="47.42755" lon="6.79981">
        <ele>487</ele>
        <time>2016-10-09T09:21:27.000Z</time>
      </trkpt>
      <trkpt lat="47.42755" lon="6.79978">
        <ele>486</ele>
        <time>2016-10-09T09:21:28.000Z</time>
      </trkpt>
      <trkpt lat="47.42755" lon="6.79974">
        <ele>486</ele>
        <time>2016-10-09T09:21:29.000Z</time>
      </trkpt>
      <trkpt lat="47.42755" lon="6.7997">
        <ele>486</ele>
        <time>2016-10-09T09:21:30.000Z</time>
      </trkpt>
      <trkpt lat="47.42755" lon="6.79967">
        <ele>486</ele>
        <time>2016-10-09T09:21:31.000Z</time>
      </trkpt>
      <trkpt lat="47.42755" lon="6.79961">
        <ele>486</ele>
        <time>2016-10-09T09:21:33.000Z</time>
      </trkpt>
      <trkpt lat="47.42755" lon="6.79957">
        <ele>486</ele>
        <time>2016-10-09T09:21:34.000Z</time>
      </trkpt>
      <trkpt lat="47.42755" lon="6.79954">
        <ele>486</ele>
        <time>2016-10-09T09:21:35.000Z</time>
      </trkpt>
      <trkpt lat="47.42755" lon="6.7995">
        <ele>486</ele>
        <time>2016-10-09T09:21:36.000Z</time>
      </trkpt>
      <trkpt lat="47.42756" lon="6.79946">
        <ele>487</ele>
        <time>2016-10-09T09:21:37.000Z</time>
      </trkpt>
      <trkpt lat="47.42756" lon="6.79942">
        <ele>487</ele>
        <time>2016-10-09T09:21:38.000Z</time>
      </trkpt>
      <trkpt lat="47.42757" lon="6.79938">
        <ele>487</ele>
        <time>2016-10-09T09:21:39.000Z</time>
      </trkpt>
      <trkpt lat="47.42757" lon="6.79934">
        <ele>488</ele>
        <time>2016-10-09T09:21:40.000Z</time>
      </trkpt>
      <trkpt lat="47.42758" lon="6.79931">
        <ele>488</ele>
        <time>2016-10-09T09:21:41.000Z</time>
      </trkpt>
      <trkpt lat="47.42759" lon="6.79928">
        <ele>488</ele>
        <time>2016-10-09T09:21:42.000Z</time>
      </trkpt>
      <trkpt lat="47.42759" lon="6.79925">
        <ele>489</ele>
        <time>2016-10-09T09:21:43.000Z</time>
      </trkpt>
      <trkpt lat="47.4276" lon="6.79921">
        <ele>489</ele>
        <time>2016-10-09T09:21:44.000Z</time>
      </trkpt>
      <trkpt lat="47.4276" lon="6.79917">
        <ele>489</ele>
        <time>2016-10-09T09:21:45.000Z</time>
      </trkpt>
      <trkpt lat="47.4276" lon="6.79913">
        <ele>490</ele>
        <time>2016-10-09T09:21:46.000Z</time>
      </trkpt>
      <trkpt lat="47.42761" lon="6.79909">
        <ele>490</ele>
        <time>2016-10-09T09:21:47.000Z</time>
      </trkpt>
      <trkpt lat="47.42762" lon="6.79905">
        <ele>489</ele>
        <time>2016-10-09T09:21:48.000Z</time>
      </trkpt>
      <trkpt lat="47.42762" lon="6.79901">
        <ele>489</ele>
        <time>2016-10-09T09:21:49.000Z</time>
      </trkpt>
      <trkpt lat="47.42763" lon="6.79898">
        <ele>489</ele>
        <time>2016-10-09T09:21:50.000Z</time>
      </trkpt>
      <trkpt lat="47.42764" lon="6.79895">
        <ele>489</ele>
        <time>2016-10-09T09:21:51.000Z</time>
      </trkpt>
      <trkpt lat="47.42766" lon="6.79891">
        <ele>488</ele>
        <time>2016-10-09T09:21:52.000Z</time>
      </trkpt>
      <trkpt lat="47.42767" lon="6.79886">
        <ele>488</ele>
        <time>2016-10-09T09:21:53.000Z</time>
      </trkpt>
      <trkpt lat="47.42769" lon="6.79881">
        <ele>488</ele>
        <time>2016-10-09T09:21:54.000Z</time>
      </trkpt>
      <trkpt lat="47.42771" lon="6.79875">
        <ele>488</ele>
        <time>2016-10-09T09:21:55.000Z</time>
      </trkpt>
      <trkpt lat="47.42773" lon="6.7987">
        <ele>488</ele>
        <time>2016-10-09T09:21:56.000Z</time>
      </trkpt>
      <trkpt lat="47.42776" lon="6.79865">
        <ele>488</ele>
        <time>2016-10-09T09:21:57.000Z</time>
      </trkpt>
      <trkpt lat="47.42778" lon="6.7986">
        <ele>488</ele>
        <time>2016-10-09T09:21:58.000Z</time>
      </trkpt>
      <trkpt lat="47.42781" lon="6.79856">
        <ele>488</ele>
        <time>2016-10-09T09:21:59.000Z</time>
      </trkpt>
      <trkpt lat="47.42783" lon="6.79852">
        <ele>488</ele>
        <time>2016-10-09T09:22:00.000Z</time>
      </trkpt>
      <trkpt lat="47.42784" lon="6.79848">
        <ele>488</ele>
        <time>2016-10-09T09:22:01.000Z</time>
      </trkpt>
      <trkpt lat="47.42786" lon="6.79843">
        <ele>488</ele>
        <time>2016-10-09T09:22:02.000Z</time>
      </trkpt>
      <trkpt lat="47.42788" lon="6.79839">
        <ele>488</ele>
        <time>2016-10-09T09:22:03.000Z</time>
      </trkpt>
      <trkpt lat="47.4279" lon="6.79835">
        <ele>488</ele>
        <time>2016-10-09T09:22:04.000Z</time>
      </trkpt>
      <trkpt lat="47.42792" lon="6.79832">
        <ele>489</ele>
        <time>2016-10-09T09:22:05.000Z</time>
      </trkpt>
      <trkpt lat="47.42794" lon="6.7983">
        <ele>489</ele>
        <time>2016-10-09T09:22:06.000Z</time>
      </trkpt>
      <trkpt lat="47.42795" lon="6.79827">
        <ele>489</ele>
        <time>2016-10-09T09:22:07.000Z</time>
      </trkpt>
      <trkpt lat="47.42797" lon="6.79824">
        <ele>489</ele>
        <time>2016-10-09T09:22:08.000Z</time>
      </trkpt>
      <trkpt lat="47.42798" lon="6.79822">
        <ele>489</ele>
        <time>2016-10-09T09:22:09.000Z</time>
      </trkpt>
      <trkpt lat="47.428" lon="6.79819">
        <ele>489</ele>
        <time>2016-10-09T09:22:10.000Z</time>
      </trkpt>
      <trkpt lat="47.42801" lon="6.79813">
        <ele>489</ele>
        <time>2016-10-09T09:22:12.000Z</time>
      </trkpt>
      <trkpt lat="47.428" lon="6.79811">
        <ele>489</ele>
        <time>2016-10-09T09:22:13.000Z</time>
      </trkpt>
      <trkpt lat="47.42797" lon="6.7981">
        <ele>489</ele>
        <time>2016-10-09T09:22:17.000Z</time>
      </trkpt>
      <trkpt lat="47.42796" lon="6.7981">
        <ele>489</ele>
        <time>2016-10-09T09:22:18.000Z</time>
      </trkpt>
      <trkpt lat="47.42798" lon="6.79805">
        <ele>489</ele>
        <time>2016-10-09T09:26:06.000Z</time>
      </trkpt>
      <trkpt lat="47.428" lon="6.79804">
        <ele>489</ele>
        <time>2016-10-09T09:26:07.000Z</time>
      </trkpt>
      <trkpt lat="47.42804" lon="6.79802">
        <ele>489</ele>
        <time>2016-10-09T09:26:09.000Z</time>
      </trkpt>
      <trkpt lat="47.42809" lon="6.798">
        <ele>489</ele>
        <time>2016-10-09T09:26:10.000Z</time>
      </trkpt>
      <trkpt lat="47.42813" lon="6.79798">
        <ele>488</ele>
        <time>2016-10-09T09:26:11.000Z</time>
      </trkpt>
      <trkpt lat="47.42818" lon="6.79797">
        <ele>488</ele>
        <time>2016-10-09T09:26:12.000Z</time>
      </trkpt>
      <trkpt lat="47.42822" lon="6.79795">
        <ele>488</ele>
        <time>2016-10-09T09:26:13.000Z</time>
      </trkpt>
      <trkpt lat="47.42826" lon="6.79793">
        <ele>488</ele>
        <time>2016-10-09T09:26:14.000Z</time>
      </trkpt>
      <trkpt lat="47.4283" lon="6.79791">
        <ele>488</ele>
        <time>2016-10-09T09:26:15.000Z</time>
      </trkpt>
      <trkpt lat="47.42834" lon="6.79789">
        <ele>487</ele>
        <time>2016-10-09T09:26:16.000Z</time>
      </trkpt>
      <trkpt lat="47.42837" lon="6.79788">
        <ele>487</ele>
        <time>2016-10-09T09:26:17.000Z</time>
      </trkpt>
      <trkpt lat="47.42841" lon="6.79786">
        <ele>488</ele>
        <time>2016-10-09T09:26:18.000Z</time>
      </trkpt>
      <trkpt lat="47.42845" lon="6.79785">
        <ele>488</ele>
        <time>2016-10-09T09:26:19.000Z</time>
      </trkpt>
      <trkpt lat="47.42848" lon="6.79784">
        <ele>488</ele>
        <time>2016-10-09T09:26:20.000Z</time>
      </trkpt>
      <trkpt lat="47.42851" lon="6.79784">
        <ele>488</ele>
        <time>2016-10-09T09:26:21.000Z</time>
      </trkpt>
      <trkpt lat="47.42854" lon="6.79784">
        <ele>488</ele>
        <time>2016-10-09T09:26:22.000Z</time>
      </trkpt>
      <trkpt lat="47.42857" lon="6.79784">
        <ele>488</ele>
        <time>2016-10-09T09:26:23.000Z</time>
      </trkpt>
      <trkpt lat="47.4286" lon="6.79784">
        <ele>488</ele>
        <time>2016-10-09T09:26:24.000Z</time>
      </trkpt>
      <trkpt lat="47.42862" lon="6.79782">
        <ele>488</ele>
        <time>2016-10-09T09:26:25.000Z</time>
      </trkpt>
      <trkpt lat="47.42864" lon="6.79777">
        <ele>488</ele>
        <time>2016-10-09T09:26:27.000Z</time>
      </trkpt>
      <trkpt lat="47.42865" lon="6.79775">
        <ele>488</ele>
        <time>2016-10-09T09:26:28.000Z</time>
      </trkpt>
      <trkpt lat="47.42869" lon="6.79772">
        <ele>488</ele>
        <time>2016-10-09T09:26:31.000Z</time>
      </trkpt>
      <trkpt lat="47.4287" lon="6.7977">
        <ele>488</ele>
        <time>2016-10-09T09:26:32.000Z</time>
      </trkpt>
      <trkpt lat="47.42873" lon="6.79766">
        <ele>488</ele>
        <time>2016-10-09T09:26:34.001Z</time>
      </trkpt>
      <trkpt lat="47.42873" lon="6.79764">
        <ele>488</ele>
        <time>2016-10-09T09:26:35.000Z</time>
      </trkpt>
      <trkpt lat="47.42872" lon="6.79759">
        <ele>488</ele>
        <time>2016-10-09T09:26:37.000Z</time>
      </trkpt>
      <trkpt lat="47.42872" lon="6.79756">
        <ele>488</ele>
        <time>2016-10-09T09:26:38.000Z</time>
      </trkpt>
      <trkpt lat="47.42872" lon="6.79751">
        <ele>488</ele>
        <time>2016-10-09T09:26:40.000Z</time>
      </trkpt>
      <trkpt lat="47.42872" lon="6.79748">
        <ele>490</ele>
        <time>2016-10-09T09:26:40.999Z</time>
      </trkpt>
      <trkpt lat="47.42872" lon="6.79744">
        <ele>490</ele>
        <time>2016-10-09T09:26:42.000Z</time>
      </trkpt>
      <trkpt lat="47.42872" lon="6.7974">
        <ele>490</ele>
        <time>2016-10-09T09:26:43.000Z</time>
      </trkpt>
      <trkpt lat="47.42872" lon="6.79737">
        <ele>490</ele>
        <time>2016-10-09T09:26:44.000Z</time>
      </trkpt>
      <trkpt lat="47.42872" lon="6.79732">
        <ele>490</ele>
        <time>2016-10-09T09:26:45.000Z</time>
      </trkpt>
      <trkpt lat="47.42872" lon="6.79728">
        <ele>490</ele>
        <time>2016-10-09T09:26:46.000Z</time>
      </trkpt>
      <trkpt lat="47.42873" lon="6.79724">
        <ele>490</ele>
        <time>2016-10-09T09:26:47.000Z</time>
      </trkpt>
      <trkpt lat="47.42873" lon="6.7972">
        <ele>490</ele>
        <time>2016-10-09T09:26:47.999Z</time>
      </trkpt>
      <trkpt lat="47.42873" lon="6.79716">
        <ele>490</ele>
        <time>2016-10-09T09:26:49.000Z</time>
      </trkpt>
      <trkpt lat="47.42873" lon="6.79713">
        <ele>490</ele>
        <time>2016-10-09T09:26:50.000Z</time>
      </trkpt>
      <trkpt lat="47.42873" lon="6.79709">
        <ele>490</ele>
        <time>2016-10-09T09:26:51.000Z</time>
      </trkpt>
      <trkpt lat="47.42873" lon="6.79705">
        <ele>490</ele>
        <time>2016-10-09T09:26:51.999Z</time>
      </trkpt>
      <trkpt lat="47.42873" lon="6.79702">
        <ele>490</ele>
        <time>2016-10-09T09:26:53.000Z</time>
      </trkpt>
      <trkpt lat="47.42874" lon="6.79698">
        <ele>490</ele>
        <time>2016-10-09T09:26:54.000Z</time>
      </trkpt>
      <trkpt lat="47.42874" lon="6.79694">
        <ele>490</ele>
        <time>2016-10-09T09:26:54.999Z</time>
      </trkpt>
      <trkpt lat="47.42874" lon="6.79689">
        <ele>491</ele>
        <time>2016-10-09T09:26:56.000Z</time>
      </trkpt>
      <trkpt lat="47.42875" lon="6.79682">
        <ele>491</ele>
        <time>2016-10-09T09:26:57.000Z</time>
      </trkpt>
      <trkpt lat="47.42876" lon="6.79678">
        <ele>491</ele>
        <time>2016-10-09T09:26:58.000Z</time>
      </trkpt>
      <trkpt lat="47.42876" lon="6.79674">
        <ele>491</ele>
        <time>2016-10-09T09:26:59.000Z</time>
      </trkpt>
      <trkpt lat="47.42877" lon="6.79669">
        <ele>491</ele>
        <time>2016-10-09T09:27:01.000Z</time>
      </trkpt>
      <trkpt lat="47.42876" lon="6.79666">
        <ele>491</ele>
        <time>2016-10-09T09:27:02.000Z</time>
      </trkpt>
      <trkpt lat="47.42876" lon="6.79661">
        <ele>491</ele>
        <time>2016-10-09T09:27:04.000Z</time>
      </trkpt>
      <trkpt lat="47.42876" lon="6.79658">
        <ele>491</ele>
        <time>2016-10-09T09:27:05.000Z</time>
      </trkpt>
      <trkpt lat="47.42876" lon="6.79652">
        <ele>490</ele>
        <time>2016-10-09T09:27:08.000Z</time>
      </trkpt>
      <trkpt lat="47.42876" lon="6.79649">
        <ele>490</ele>
        <time>2016-10-09T09:27:09.000Z</time>
      </trkpt>
      <trkpt lat="47.42875" lon="6.79644">
        <ele>490</ele>
        <time>2016-10-09T09:27:11.000Z</time>
      </trkpt>
      <trkpt lat="47.42875" lon="6.79641">
        <ele>490</ele>
        <time>2016-10-09T09:27:12.000Z</time>
      </trkpt>
      <trkpt lat="47.42875" lon="6.79635">
        <ele>490</ele>
        <time>2016-10-09T09:27:14.000Z</time>
      </trkpt>
      <trkpt lat="47.42878" lon="6.7963">
        <ele>490</ele>
        <time>2016-10-09T09:27:15.000Z</time>
      </trkpt>
      <trkpt lat="47.42879" lon="6.79627">
        <ele>490</ele>
        <time>2016-10-09T09:27:16.000Z</time>
      </trkpt>
      <trkpt lat="47.42881" lon="6.79623">
        <ele>490</ele>
        <time>2016-10-09T09:27:17.000Z</time>
      </trkpt>
      <trkpt lat="47.42882" lon="6.7962">
        <ele>490</ele>
        <time>2016-10-09T09:27:18.000Z</time>
      </trkpt>
      <trkpt lat="47.42883" lon="6.79617">
        <ele>490</ele>
        <time>2016-10-09T09:27:19.000Z</time>
      </trkpt>
      <trkpt lat="47.42884" lon="6.79612">
        <ele>490</ele>
        <time>2016-10-09T09:27:20.000Z</time>
      </trkpt>
      <trkpt lat="47.42883" lon="6.79608">
        <ele>490</ele>
        <time>2016-10-09T09:27:21.000Z</time>
      </trkpt>
      <trkpt lat="47.42881" lon="6.79604">
        <ele>490</ele>
        <time>2016-10-09T09:27:23.000Z</time>
      </trkpt>
      <trkpt lat="47.4288" lon="6.79604">
        <ele>490</ele>
        <time>2016-10-09T09:27:24.000Z</time>
      </trkpt>
      <trkpt lat="47.42876" lon="6.79606">
        <ele>490</ele>
        <time>2016-10-09T09:27:26.000Z</time>
      </trkpt>
      <trkpt lat="47.42873" lon="6.79606">
        <ele>490</ele>
        <time>2016-10-09T09:27:27.000Z</time>
      </trkpt>
      <trkpt lat="47.42871" lon="6.79606">
        <ele>490</ele>
        <time>2016-10-09T09:27:28.000Z</time>
      </trkpt>
      <trkpt lat="47.42868" lon="6.79606">
        <ele>490</ele>
        <time>2016-10-09T09:27:29.000Z</time>
      </trkpt>
      <trkpt lat="47.42864" lon="6.79605">
        <ele>490</ele>
        <time>2016-10-09T09:27:31.000Z</time>
      </trkpt>
      <trkpt lat="47.42862" lon="6.79604">
        <ele>490</ele>
        <time>2016-10-09T09:27:32.000Z</time>
      </trkpt>
      <trkpt lat="47.42858" lon="6.79601">
        <ele>490</ele>
        <time>2016-10-09T09:27:35.000Z</time>
      </trkpt>
      <trkpt lat="47.42857" lon="6.79601">
        <ele>490</ele>
        <time>2016-10-09T09:27:36.000Z</time>
      </trkpt>
      <trkpt lat="47.42853" lon="6.796">
        <ele>490</ele>
        <time>2016-10-09T09:27:39.001Z</time>
      </trkpt>
      <trkpt lat="47.42852" lon="6.79599">
        <ele>490</ele>
        <time>2016-10-09T09:27:40.000Z</time>
      </trkpt>
      <trkpt lat="47.42849" lon="6.79598">
        <ele>490</ele>
        <time>2016-10-09T09:27:42.000Z</time>
      </trkpt>
      <trkpt lat="47.42847" lon="6.79597">
        <ele>489</ele>
        <time>2016-10-09T09:27:43.000Z</time>
      </trkpt>
      <trkpt lat="47.42845" lon="6.79596">
        <ele>489</ele>
        <time>2016-10-09T09:27:44.000Z</time>
      </trkpt>
      <trkpt lat="47.42842" lon="6.79594">
        <ele>489</ele>
        <time>2016-10-09T09:27:45.000Z</time>
      </trkpt>
      <trkpt lat="47.42839" lon="6.79591">
        <ele>489</ele>
        <time>2016-10-09T09:27:47.000Z</time>
      </trkpt>
      <trkpt lat="47.42837" lon="6.79591">
        <ele>489</ele>
        <time>2016-10-09T09:27:48.000Z</time>
      </trkpt>
      <trkpt lat="47.42834" lon="6.79591">
        <ele>489</ele>
        <time>2016-10-09T09:27:49.000Z</time>
      </trkpt>
      <trkpt lat="47.42832" lon="6.79592">
        <ele>490</ele>
        <time>2016-10-09T09:27:50.000Z</time>
      </trkpt>
      <trkpt lat="47.42829" lon="6.79592">
        <ele>490</ele>
        <time>2016-10-09T09:27:52.000Z</time>
      </trkpt>
      <trkpt lat="47.42827" lon="6.79589">
        <ele>490</ele>
        <time>2016-10-09T09:27:53.000Z</time>
      </trkpt>
      <trkpt lat="47.42824" lon="6.79584">
        <ele>490</ele>
        <time>2016-10-09T09:27:54.000Z</time>
      </trkpt>
      <trkpt lat="47.42821" lon="6.79579">
        <ele>485</ele>
        <time>2016-10-09T09:27:54.999Z</time>
      </trkpt>
      <trkpt lat="47.42816" lon="6.79581">
        <ele>484</ele>
        <time>2016-10-09T09:27:56.000Z</time>
      </trkpt>
      <trkpt lat="47.42813" lon="6.7958">
        <ele>483</ele>
        <time>2016-10-09T09:27:57.000Z</time>
      </trkpt>
      <trkpt lat="47.42808" lon="6.79579">
        <ele>483</ele>
        <time>2016-10-09T09:27:58.000Z</time>
      </trkpt>
      <trkpt lat="47.42804" lon="6.7958">
        <ele>482</ele>
        <time>2016-10-09T09:27:59.000Z</time>
      </trkpt>
      <trkpt lat="47.42803" lon="6.79575">
        <ele>482</ele>
        <time>2016-10-09T09:28:00.000Z</time>
      </trkpt>
      <trkpt lat="47.42797" lon="6.79574">
        <ele>482</ele>
        <time>2016-10-09T09:28:01.000Z</time>
      </trkpt>
      <trkpt lat="47.42793" lon="6.79573">
        <ele>482</ele>
        <time>2016-10-09T09:28:02.000Z</time>
      </trkpt>
      <trkpt lat="47.42791" lon="6.79572">
        <ele>482</ele>
        <time>2016-10-09T09:28:03.001Z</time>
      </trkpt>
      <trkpt lat="47.42787" lon="6.79572">
        <ele>482</ele>
        <time>2016-10-09T09:28:04.000Z</time>
      </trkpt>
      <trkpt lat="47.42783" lon="6.79572">
        <ele>482</ele>
        <time>2016-10-09T09:28:05.000Z</time>
      </trkpt>
      <trkpt lat="47.4278" lon="6.79571">
        <ele>482</ele>
        <time>2016-10-09T09:28:05.999Z</time>
      </trkpt>
      <trkpt lat="47.42774" lon="6.79572">
        <ele>483</ele>
        <time>2016-10-09T09:28:07.000Z</time>
      </trkpt>
      <trkpt lat="47.4277" lon="6.79571">
        <ele>484</ele>
        <time>2016-10-09T09:28:08.000Z</time>
      </trkpt>
      <trkpt lat="47.42765" lon="6.7957">
        <ele>484</ele>
        <time>2016-10-09T09:28:09.000Z</time>
      </trkpt>
      <trkpt lat="47.42761" lon="6.7957">
        <ele>485</ele>
        <time>2016-10-09T09:28:10.000Z</time>
      </trkpt>
      <trkpt lat="47.42755" lon="6.79569">
        <ele>485</ele>
        <time>2016-10-09T09:28:11.000Z</time>
      </trkpt>
      <trkpt lat="47.4275" lon="6.79569">
        <ele>485</ele>
        <time>2016-10-09T09:28:11.999Z</time>
      </trkpt>
      <trkpt lat="47.42746" lon="6.79568">
        <ele>486</ele>
        <time>2016-10-09T09:28:13.000Z</time>
      </trkpt>
      <trkpt lat="47.42742" lon="6.79568">
        <ele>486</ele>
        <time>2016-10-09T09:28:14.000Z</time>
      </trkpt>
      <trkpt lat="47.42736" lon="6.79567">
        <ele>485</ele>
        <time>2016-10-09T09:28:15.000Z</time>
      </trkpt>
      <trkpt lat="47.42733" lon="6.79567">
        <ele>485</ele>
        <time>2016-10-09T09:28:16.001Z</time>
      </trkpt>
      <trkpt lat="47.42727" lon="6.79566">
        <ele>484</ele>
        <time>2016-10-09T09:28:17.000Z</time>
      </trkpt>
      <trkpt lat="47.42722" lon="6.79565">
        <ele>484</ele>
        <time>2016-10-09T09:28:18.000Z</time>
      </trkpt>
      <trkpt lat="47.42717" lon="6.79566">
        <ele>483</ele>
        <time>2016-10-09T09:28:19.000Z</time>
      </trkpt>
      <trkpt lat="47.42712" lon="6.79567">
        <ele>483</ele>
        <time>2016-10-09T09:28:20.000Z</time>
      </trkpt>
      <trkpt lat="47.42707" lon="6.79567">
        <ele>484</ele>
        <time>2016-10-09T09:28:21.000Z</time>
      </trkpt>
      <trkpt lat="47.42703" lon="6.79566">
        <ele>484</ele>
        <time>2016-10-09T09:28:22.000Z</time>
      </trkpt>
      <trkpt lat="47.42698" lon="6.79564">
        <ele>483</ele>
        <time>2016-10-09T09:28:23.000Z</time>
      </trkpt>
      <trkpt lat="47.42687" lon="6.79559">
        <ele>483</ele>
        <time>2016-10-09T09:28:24.000Z</time>
      </trkpt>
      <trkpt lat="47.42683" lon="6.79562">
        <ele>484</ele>
        <time>2016-10-09T09:28:25.000Z</time>
      </trkpt>
      <trkpt lat="47.42683" lon="6.79562">
        <ele>484</ele>
        <time>2016-10-09T09:28:25.108Z</time>
      </trkpt>
      <trkpt lat="47.42673" lon="6.79557">
        <ele>484</ele>
        <time>2016-10-09T09:28:27.000Z</time>
      </trkpt>
      <trkpt lat="47.42668" lon="6.79557">
        <ele>484</ele>
        <time>2016-10-09T09:28:28.000Z</time>
      </trkpt>
      <trkpt lat="47.42664" lon="6.79557">
        <ele>487</ele>
        <time>2016-10-09T09:28:29.000Z</time>
      </trkpt>
      <trkpt lat="47.42663" lon="6.79556">
        <ele>487</ele>
        <time>2016-10-09T09:28:30.000Z</time>
      </trkpt>
      <trkpt lat="47.42658" lon="6.79556">
        <ele>487</ele>
        <time>2016-10-09T09:28:31.000Z</time>
      </trkpt>
      <trkpt lat="47.42651" lon="6.79555">
        <ele>486</ele>
        <time>2016-10-09T09:28:32.000Z</time>
      </trkpt>
      <trkpt lat="47.42646" lon="6.79553">
        <ele>486</ele>
        <time>2016-10-09T09:28:33.000Z</time>
      </trkpt>
      <trkpt lat="47.42642" lon="6.79551">
        <ele>486</ele>
        <time>2016-10-09T09:28:34.000Z</time>
      </trkpt>
      <trkpt lat="47.42631" lon="6.79552">
        <ele>487</ele>
        <time>2016-10-09T09:28:35.000Z</time>
      </trkpt>
      <trkpt lat="47.42622" lon="6.79552">
        <ele>487</ele>
        <time>2016-10-09T09:28:36.000Z</time>
      </trkpt>
      <trkpt lat="47.42615" lon="6.79552">
        <ele>487</ele>
        <time>2016-10-09T09:28:37.000Z</time>
      </trkpt>
      <trkpt lat="47.42616" lon="6.7955">
        <ele>487</ele>
        <time>2016-10-09T09:28:38.000Z</time>
      </trkpt>
      <trkpt lat="47.42614" lon="6.79544">
        <ele>486</ele>
        <time>2016-10-09T09:28:39.000Z</time>
      </trkpt>
      <trkpt lat="47.42611" lon="6.79544">
        <ele>487</ele>
        <time>2016-10-09T09:28:41.000Z</time>
      </trkpt>
      <trkpt lat="47.42609" lon="6.79545">
        <ele>487</ele>
        <time>2016-10-09T09:28:42.001Z</time>
      </trkpt>
      <trkpt lat="47.42604" lon="6.79546">
        <ele>487</ele>
        <time>2016-10-09T09:28:43.000Z</time>
      </trkpt>
      <trkpt lat="47.426" lon="6.79545">
        <ele>487</ele>
        <time>2016-10-09T09:28:44.000Z</time>
      </trkpt>
      <trkpt lat="47.42598" lon="6.79545">
        <ele>487</ele>
        <time>2016-10-09T09:28:45.000Z</time>
      </trkpt>
      <trkpt lat="47.42595" lon="6.79545">
        <ele>487</ele>
        <time>2016-10-09T09:28:46.000Z</time>
      </trkpt>
      <trkpt lat="47.42591" lon="6.79545">
        <ele>488</ele>
        <time>2016-10-09T09:28:47.000Z</time>
      </trkpt>
      <trkpt lat="47.42588" lon="6.79545">
        <ele>488</ele>
        <time>2016-10-09T09:28:48.000Z</time>
      </trkpt>
      <trkpt lat="47.42585" lon="6.79546">
        <ele>488</ele>
        <time>2016-10-09T09:28:49.000Z</time>
      </trkpt>
      <trkpt lat="47.42582" lon="6.79546">
        <ele>492</ele>
        <time>2016-10-09T09:28:50.000Z</time>
      </trkpt>
      <trkpt lat="47.4258" lon="6.79547">
        <ele>492</ele>
        <time>2016-10-09T09:28:51.000Z</time>
      </trkpt>
      <trkpt lat="47.42577" lon="6.79548">
        <ele>492</ele>
        <time>2016-10-09T09:28:52.000Z</time>
      </trkpt>
      <trkpt lat="47.42574" lon="6.79548">
        <ele>492</ele>
        <time>2016-10-09T09:28:53.000Z</time>
      </trkpt>
      <trkpt lat="47.42571" lon="6.79548">
        <ele>492</ele>
        <time>2016-10-09T09:28:54.000Z</time>
      </trkpt>
      <trkpt lat="47.42568" lon="6.79549">
        <ele>492</ele>
        <time>2016-10-09T09:28:55.000Z</time>
      </trkpt>
      <trkpt lat="47.42565" lon="6.7955">
        <ele>493</ele>
        <time>2016-10-09T09:28:56.000Z</time>
      </trkpt>
      <trkpt lat="47.42561" lon="6.79552">
        <ele>493</ele>
        <time>2016-10-09T09:28:57.000Z</time>
      </trkpt>
      <trkpt lat="47.42558" lon="6.79553">
        <ele>493</ele>
        <time>2016-10-09T09:28:58.000Z</time>
      </trkpt>
      <trkpt lat="47.42555" lon="6.79554">
        <ele>493</ele>
        <time>2016-10-09T09:28:59.000Z</time>
      </trkpt>
      <trkpt lat="47.42552" lon="6.79555">
        <ele>493</ele>
        <time>2016-10-09T09:29:00.000Z</time>
      </trkpt>
      <trkpt lat="47.4255" lon="6.79556">
        <ele>493</ele>
        <time>2016-10-09T09:29:01.000Z</time>
      </trkpt>
      <trkpt lat="47.42547" lon="6.79556">
        <ele>493</ele>
        <time>2016-10-09T09:29:02.000Z</time>
      </trkpt>
      <trkpt lat="47.42544" lon="6.79557">
        <ele>494</ele>
        <time>2016-10-09T09:29:03.000Z</time>
      </trkpt>
      <trkpt lat="47.42541" lon="6.79557">
        <ele>494</ele>
        <time>2016-10-09T09:29:04.000Z</time>
      </trkpt>
      <trkpt lat="47.42537" lon="6.79556">
        <ele>494</ele>
        <time>2016-10-09T09:29:05.000Z</time>
      </trkpt>
      <trkpt lat="47.42533" lon="6.79555">
        <ele>494</ele>
        <time>2016-10-09T09:29:06.000Z</time>
      </trkpt>
      <trkpt lat="47.4253" lon="6.79554">
        <ele>494</ele>
        <time>2016-10-09T09:29:07.000Z</time>
      </trkpt>
      <trkpt lat="47.42527" lon="6.79552">
        <ele>494</ele>
        <time>2016-10-09T09:29:08.000Z</time>
      </trkpt>
      <trkpt lat="47.42523" lon="6.79549">
        <ele>493</ele>
        <time>2016-10-09T09:29:09.000Z</time>
      </trkpt>
      <trkpt lat="47.42519" lon="6.79547">
        <ele>493</ele>
        <time>2016-10-09T09:29:10.000Z</time>
      </trkpt>
      <trkpt lat="47.42514" lon="6.79545">
        <ele>493</ele>
        <time>2016-10-09T09:29:10.998Z</time>
      </trkpt>
      <trkpt lat="47.42509" lon="6.79544">
        <ele>493</ele>
        <time>2016-10-09T09:29:12.000Z</time>
      </trkpt>
      <trkpt lat="47.42504" lon="6.79544">
        <ele>493</ele>
        <time>2016-10-09T09:29:13.000Z</time>
      </trkpt>
      <trkpt lat="47.42499" lon="6.79543">
        <ele>495</ele>
        <time>2016-10-09T09:29:14.000Z</time>
      </trkpt>
      <trkpt lat="47.42495" lon="6.79542">
        <ele>494</ele>
        <time>2016-10-09T09:29:15.000Z</time>
      </trkpt>
      <trkpt lat="47.42492" lon="6.79541">
        <ele>494</ele>
        <time>2016-10-09T09:29:16.000Z</time>
      </trkpt>
      <trkpt lat="47.42488" lon="6.79541">
        <ele>494</ele>
        <time>2016-10-09T09:29:17.000Z</time>
      </trkpt>
      <trkpt lat="47.42485" lon="6.7954">
        <ele>494</ele>
        <time>2016-10-09T09:29:18.000Z</time>
      </trkpt>
      <trkpt lat="47.42482" lon="6.7954">
        <ele>494</ele>
        <time>2016-10-09T09:29:19.000Z</time>
      </trkpt>
      <trkpt lat="47.42479" lon="6.7954">
        <ele>494</ele>
        <time>2016-10-09T09:29:20.000Z</time>
      </trkpt>
      <trkpt lat="47.42475" lon="6.7954">
        <ele>494</ele>
        <time>2016-10-09T09:29:21.000Z</time>
      </trkpt>
      <trkpt lat="47.42472" lon="6.79539">
        <ele>494</ele>
        <time>2016-10-09T09:29:22.000Z</time>
      </trkpt>
      <trkpt lat="47.42469" lon="6.79539">
        <ele>494</ele>
        <time>2016-10-09T09:29:23.000Z</time>
      </trkpt>
      <trkpt lat="47.42466" lon="6.79539">
        <ele>494</ele>
        <time>2016-10-09T09:29:24.000Z</time>
      </trkpt>
      <trkpt lat="47.42463" lon="6.79538">
        <ele>494</ele>
        <time>2016-10-09T09:29:25.000Z</time>
      </trkpt>
      <trkpt lat="47.4246" lon="6.79538">
        <ele>494</ele>
        <time>2016-10-09T09:29:26.000Z</time>
      </trkpt>
      <trkpt lat="47.42458" lon="6.79538">
        <ele>494</ele>
        <time>2016-10-09T09:29:27.000Z</time>
      </trkpt>
      <trkpt lat="47.42456" lon="6.79537">
        <ele>494</ele>
        <time>2016-10-09T09:29:28.000Z</time>
      </trkpt>
      <trkpt lat="47.42453" lon="6.79536">
        <ele>494</ele>
        <time>2016-10-09T09:29:29.000Z</time>
      </trkpt>
      <trkpt lat="47.4245" lon="6.79536">
        <ele>494</ele>
        <time>2016-10-09T09:29:30.000Z</time>
      </trkpt>
      <trkpt lat="47.42447" lon="6.79535">
        <ele>494</ele>
        <time>2016-10-09T09:29:31.000Z</time>
      </trkpt>
      <trkpt lat="47.42444" lon="6.79535">
        <ele>494</ele>
        <time>2016-10-09T09:29:32.000Z</time>
      </trkpt>
      <trkpt lat="47.42441" lon="6.79535">
        <ele>494</ele>
        <time>2016-10-09T09:29:33.000Z</time>
      </trkpt>
      <trkpt lat="47.42438" lon="6.79535">
        <ele>494</ele>
        <time>2016-10-09T09:29:34.000Z</time>
      </trkpt>
      <trkpt lat="47.42435" lon="6.79534">
        <ele>494</ele>
        <time>2016-10-09T09:29:35.000Z</time>
      </trkpt>
      <trkpt lat="47.42432" lon="6.79535">
        <ele>494</ele>
        <time>2016-10-09T09:29:36.000Z</time>
      </trkpt>
      <trkpt lat="47.42429" lon="6.79535">
        <ele>494</ele>
        <time>2016-10-09T09:29:37.000Z</time>
      </trkpt>
      <trkpt lat="47.42426" lon="6.79535">
        <ele>494</ele>
        <time>2016-10-09T09:29:38.000Z</time>
      </trkpt>
      <trkpt lat="47.42422" lon="6.79535">
        <ele>494</ele>
        <time>2016-10-09T09:29:39.000Z</time>
      </trkpt>
      <trkpt lat="47.42418" lon="6.79535">
        <ele>493</ele>
        <time>2016-10-09T09:29:40.000Z</time>
      </trkpt>
      <trkpt lat="47.42414" lon="6.79534">
        <ele>494</ele>
        <time>2016-10-09T09:29:41.000Z</time>
      </trkpt>
      <trkpt lat="47.4241" lon="6.79532">
        <ele>494</ele>
        <time>2016-10-09T09:29:42.000Z</time>
      </trkpt>
      <trkpt lat="47.42406" lon="6.79531">
        <ele>494</ele>
        <time>2016-10-09T09:29:43.000Z</time>
      </trkpt>
      <trkpt lat="47.42402" lon="6.79529">
        <ele>494</ele>
        <time>2016-10-09T09:29:44.000Z</time>
      </trkpt>
      <trkpt lat="47.42399" lon="6.79528">
        <ele>494</ele>
        <time>2016-10-09T09:29:45.000Z</time>
      </trkpt>
      <trkpt lat="47.42396" lon="6.79527">
        <ele>494</ele>
        <time>2016-10-09T09:29:46.000Z</time>
      </trkpt>
      <trkpt lat="47.42393" lon="6.79526">
        <ele>494</ele>
        <time>2016-10-09T09:29:47.000Z</time>
      </trkpt>
      <trkpt lat="47.42391" lon="6.79525">
        <ele>494</ele>
        <time>2016-10-09T09:29:48.000Z</time>
      </trkpt>
      <trkpt lat="47.42387" lon="6.79523">
        <ele>494</ele>
        <time>2016-10-09T09:29:50.000Z</time>
      </trkpt>
      <trkpt lat="47.42385" lon="6.79522">
        <ele>494</ele>
        <time>2016-10-09T09:29:51.000Z</time>
      </trkpt>
      <trkpt lat="47.42381" lon="6.7952">
        <ele>494</ele>
        <time>2016-10-09T09:29:53.000Z</time>
      </trkpt>
      <trkpt lat="47.42378" lon="6.7952">
        <ele>494</ele>
        <time>2016-10-09T09:29:54.000Z</time>
      </trkpt>
      <trkpt lat="47.42376" lon="6.79519">
        <ele>494</ele>
        <time>2016-10-09T09:29:55.000Z</time>
      </trkpt>
      <trkpt lat="47.42373" lon="6.79519">
        <ele>494</ele>
        <time>2016-10-09T09:29:56.000Z</time>
      </trkpt>
      <trkpt lat="47.4237" lon="6.79518">
        <ele>494</ele>
        <time>2016-10-09T09:29:57.000Z</time>
      </trkpt>
      <trkpt lat="47.42367" lon="6.79516">
        <ele>494</ele>
        <time>2016-10-09T09:29:58.000Z</time>
      </trkpt>
      <trkpt lat="47.42364" lon="6.79515">
        <ele>494</ele>
        <time>2016-10-09T09:29:59.000Z</time>
      </trkpt>
      <trkpt lat="47.42361" lon="6.79514">
        <ele>494</ele>
        <time>2016-10-09T09:30:00.000Z</time>
      </trkpt>
      <trkpt lat="47.42357" lon="6.79513">
        <ele>493</ele>
        <time>2016-10-09T09:30:02.000Z</time>
      </trkpt>
      <trkpt lat="47.42355" lon="6.79512">
        <ele>493</ele>
        <time>2016-10-09T09:30:03.000Z</time>
      </trkpt>
      <trkpt lat="47.42352" lon="6.79511">
        <ele>493</ele>
        <time>2016-10-09T09:30:04.000Z</time>
      </trkpt>
      <trkpt lat="47.4235" lon="6.7951">
        <ele>493</ele>
        <time>2016-10-09T09:30:05.000Z</time>
      </trkpt>
      <trkpt lat="47.42347" lon="6.79509">
        <ele>492</ele>
        <time>2016-10-09T09:30:06.000Z</time>
      </trkpt>
      <trkpt lat="47.42345" lon="6.79508">
        <ele>492</ele>
        <time>2016-10-09T09:30:07.000Z</time>
      </trkpt>
      <trkpt lat="47.42342" lon="6.79508">
        <ele>492</ele>
        <time>2016-10-09T09:30:08.000Z</time>
      </trkpt>
      <trkpt lat="47.42339" lon="6.79507">
        <ele>491</ele>
        <time>2016-10-09T09:30:09.000Z</time>
      </trkpt>
      <trkpt lat="47.42337" lon="6.79507">
        <ele>491</ele>
        <time>2016-10-09T09:30:10.000Z</time>
      </trkpt>
      <trkpt lat="47.42334" lon="6.79507">
        <ele>491</ele>
        <time>2016-10-09T09:30:11.000Z</time>
      </trkpt>
      <trkpt lat="47.4233" lon="6.79507">
        <ele>492</ele>
        <time>2016-10-09T09:30:12.000Z</time>
      </trkpt>
      <trkpt lat="47.42326" lon="6.79507">
        <ele>492</ele>
        <time>2016-10-09T09:30:13.000Z</time>
      </trkpt>
      <trkpt lat="47.42321" lon="6.79506">
        <ele>493</ele>
        <time>2016-10-09T09:30:14.000Z</time>
      </trkpt>
      <trkpt lat="47.42316" lon="6.79505">
        <ele>494</ele>
        <time>2016-10-09T09:30:15.000Z</time>
      </trkpt>
      <trkpt lat="47.42311" lon="6.79504">
        <ele>494</ele>
        <time>2016-10-09T09:30:16.000Z</time>
      </trkpt>
      <trkpt lat="47.42307" lon="6.79503">
        <ele>495</ele>
        <time>2016-10-09T09:30:17.000Z</time>
      </trkpt>
      <trkpt lat="47.42303" lon="6.79502">
        <ele>495</ele>
        <time>2016-10-09T09:30:18.000Z</time>
      </trkpt>
      <trkpt lat="47.42299" lon="6.79501">
        <ele>495</ele>
        <time>2016-10-09T09:30:19.000Z</time>
      </trkpt>
      <trkpt lat="47.42295" lon="6.795">
        <ele>495</ele>
        <time>2016-10-09T09:30:20.000Z</time>
      </trkpt>
      <trkpt lat="47.42292" lon="6.79499">
        <ele>482</ele>
        <time>2016-10-09T09:30:21.000Z</time>
      </trkpt>
      <trkpt lat="47.42289" lon="6.79498">
        <ele>482</ele>
        <time>2016-10-09T09:30:22.000Z</time>
      </trkpt>
      <trkpt lat="47.42287" lon="6.79497">
        <ele>482</ele>
        <time>2016-10-09T09:30:23.000Z</time>
      </trkpt>
      <trkpt lat="47.42284" lon="6.79496">
        <ele>482</ele>
        <time>2016-10-09T09:30:25.000Z</time>
      </trkpt>
      <trkpt lat="47.42282" lon="6.79495">
        <ele>482</ele>
        <time>2016-10-09T09:30:26.000Z</time>
      </trkpt>
      <trkpt lat="47.42278" lon="6.79495">
        <ele>482</ele>
        <time>2016-10-09T09:30:28.000Z</time>
      </trkpt>
      <trkpt lat="47.42275" lon="6.79494">
        <ele>483</ele>
        <time>2016-10-09T09:30:29.000Z</time>
      </trkpt>
      <trkpt lat="47.42272" lon="6.79493">
        <ele>483</ele>
        <time>2016-10-09T09:30:30.000Z</time>
      </trkpt>
      <trkpt lat="47.42268" lon="6.79493">
        <ele>483</ele>
        <time>2016-10-09T09:30:31.000Z</time>
      </trkpt>
      <trkpt lat="47.42264" lon="6.79492">
        <ele>484</ele>
        <time>2016-10-09T09:30:32.000Z</time>
      </trkpt>
      <trkpt lat="47.42259" lon="6.79491">
        <ele>485</ele>
        <time>2016-10-09T09:30:33.000Z</time>
      </trkpt>
      <trkpt lat="47.42255" lon="6.7949">
        <ele>485</ele>
        <time>2016-10-09T09:30:34.000Z</time>
      </trkpt>
      <trkpt lat="47.42251" lon="6.79489">
        <ele>486</ele>
        <time>2016-10-09T09:30:35.000Z</time>
      </trkpt>
      <trkpt lat="47.42247" lon="6.79489">
        <ele>486</ele>
        <time>2016-10-09T09:30:36.000Z</time>
      </trkpt>
      <trkpt lat="47.42243" lon="6.79488">
        <ele>486</ele>
        <time>2016-10-09T09:30:37.000Z</time>
      </trkpt>
      <trkpt lat="47.4224" lon="6.79487">
        <ele>485</ele>
        <time>2016-10-09T09:30:38.000Z</time>
      </trkpt>
      <trkpt lat="47.42237" lon="6.79487">
        <ele>485</ele>
        <time>2016-10-09T09:30:39.000Z</time>
      </trkpt>
      <trkpt lat="47.42234" lon="6.79486">
        <ele>485</ele>
        <time>2016-10-09T09:30:40.000Z</time>
      </trkpt>
      <trkpt lat="47.42231" lon="6.79486">
        <ele>484</ele>
        <time>2016-10-09T09:30:41.000Z</time>
      </trkpt>
      <trkpt lat="47.42228" lon="6.79486">
        <ele>484</ele>
        <time>2016-10-09T09:30:42.000Z</time>
      </trkpt>
      <trkpt lat="47.42224" lon="6.79486">
        <ele>484</ele>
        <time>2016-10-09T09:30:43.000Z</time>
      </trkpt>
      <trkpt lat="47.42221" lon="6.79486">
        <ele>484</ele>
        <time>2016-10-09T09:30:44.000Z</time>
      </trkpt>
      <trkpt lat="47.42218" lon="6.79486">
        <ele>484</ele>
        <time>2016-10-09T09:30:45.000Z</time>
      </trkpt>
      <trkpt lat="47.42215" lon="6.79485">
        <ele>484</ele>
        <time>2016-10-09T09:30:46.000Z</time>
      </trkpt>
      <trkpt lat="47.42212" lon="6.79485">
        <ele>484</ele>
        <time>2016-10-09T09:30:47.000Z</time>
      </trkpt>
      <trkpt lat="47.4221" lon="6.79484">
        <ele>484</ele>
        <time>2016-10-09T09:30:48.000Z</time>
      </trkpt>
      <trkpt lat="47.42207" lon="6.79484">
        <ele>484</ele>
        <time>2016-10-09T09:30:49.000Z</time>
      </trkpt>
      <trkpt lat="47.42205" lon="6.79483">
        <ele>484</ele>
        <time>2016-10-09T09:30:50.000Z</time>
      </trkpt>
      <trkpt lat="47.42202" lon="6.79483">
        <ele>484</ele>
        <time>2016-10-09T09:30:51.000Z</time>
      </trkpt>
      <trkpt lat="47.422" lon="6.79482">
        <ele>484</ele>
        <time>2016-10-09T09:30:52.000Z</time>
      </trkpt>
      <trkpt lat="47.42197" lon="6.79482">
        <ele>484</ele>
        <time>2016-10-09T09:30:53.000Z</time>
      </trkpt>
      <trkpt lat="47.42194" lon="6.79481">
        <ele>484</ele>
        <time>2016-10-09T09:30:54.000Z</time>
      </trkpt>
      <trkpt lat="47.42191" lon="6.79481">
        <ele>485</ele>
        <time>2016-10-09T09:30:55.000Z</time>
      </trkpt>
      <trkpt lat="47.42188" lon="6.79481">
        <ele>485</ele>
        <time>2016-10-09T09:30:56.000Z</time>
      </trkpt>
      <trkpt lat="47.42185" lon="6.79481">
        <ele>485</ele>
        <time>2016-10-09T09:30:57.000Z</time>
      </trkpt>
      <trkpt lat="47.42183" lon="6.79481">
        <ele>485</ele>
        <time>2016-10-09T09:30:58.000Z</time>
      </trkpt>
      <trkpt lat="47.42181" lon="6.79481">
        <ele>486</ele>
        <time>2016-10-09T09:30:59.000Z</time>
      </trkpt>
      <trkpt lat="47.42178" lon="6.79482">
        <ele>486</ele>
        <time>2016-10-09T09:31:00.000Z</time>
      </trkpt>
      <trkpt lat="47.42176" lon="6.79482">
        <ele>486</ele>
        <time>2016-10-09T09:31:01.000Z</time>
      </trkpt>
      <trkpt lat="47.42173" lon="6.79482">
        <ele>486</ele>
        <time>2016-10-09T09:31:02.000Z</time>
      </trkpt>
      <trkpt lat="47.4217" lon="6.79482">
        <ele>487</ele>
        <time>2016-10-09T09:31:03.000Z</time>
      </trkpt>
      <trkpt lat="47.42167" lon="6.79482">
        <ele>488</ele>
        <time>2016-10-09T09:31:04.000Z</time>
      </trkpt>
      <trkpt lat="47.42163" lon="6.79482">
        <ele>488</ele>
        <time>2016-10-09T09:31:05.000Z</time>
      </trkpt>
      <trkpt lat="47.42159" lon="6.79482">
        <ele>488</ele>
        <time>2016-10-09T09:31:06.000Z</time>
      </trkpt>
      <trkpt lat="47.42156" lon="6.79481">
        <ele>488</ele>
        <time>2016-10-09T09:31:07.000Z</time>
      </trkpt>
      <trkpt lat="47.42153" lon="6.79481">
        <ele>487</ele>
        <time>2016-10-09T09:31:08.000Z</time>
      </trkpt>
      <trkpt lat="47.4215" lon="6.79481">
        <ele>487</ele>
        <time>2016-10-09T09:31:09.000Z</time>
      </trkpt>
      <trkpt lat="47.42147" lon="6.79481">
        <ele>487</ele>
        <time>2016-10-09T09:31:10.000Z</time>
      </trkpt>
      <trkpt lat="47.42144" lon="6.79481">
        <ele>487</ele>
        <time>2016-10-09T09:31:11.000Z</time>
      </trkpt>
      <trkpt lat="47.42141" lon="6.79481">
        <ele>487</ele>
        <time>2016-10-09T09:31:12.000Z</time>
      </trkpt>
      <trkpt lat="47.42137" lon="6.79481">
        <ele>487</ele>
        <time>2016-10-09T09:31:13.000Z</time>
      </trkpt>
      <trkpt lat="47.42134" lon="6.79481">
        <ele>487</ele>
        <time>2016-10-09T09:31:14.000Z</time>
      </trkpt>
      <trkpt lat="47.42131" lon="6.79481">
        <ele>487</ele>
        <time>2016-10-09T09:31:15.000Z</time>
      </trkpt>
      <trkpt lat="47.42129" lon="6.79481">
        <ele>487</ele>
        <time>2016-10-09T09:31:16.000Z</time>
      </trkpt>
      <trkpt lat="47.42126" lon="6.79481">
        <ele>487</ele>
        <time>2016-10-09T09:31:17.000Z</time>
      </trkpt>
      <trkpt lat="47.42123" lon="6.79482">
        <ele>487</ele>
        <time>2016-10-09T09:31:18.000Z</time>
      </trkpt>
      <trkpt lat="47.42119" lon="6.79482">
        <ele>487</ele>
        <time>2016-10-09T09:31:19.000Z</time>
      </trkpt>
      <trkpt lat="47.42116" lon="6.79482">
        <ele>487</ele>
        <time>2016-10-09T09:31:20.000Z</time>
      </trkpt>
      <trkpt lat="47.42113" lon="6.79483">
        <ele>487</ele>
        <time>2016-10-09T09:31:21.000Z</time>
      </trkpt>
      <trkpt lat="47.42109" lon="6.79484">
        <ele>488</ele>
        <time>2016-10-09T09:31:23.000Z</time>
      </trkpt>
      <trkpt lat="47.42108" lon="6.79485">
        <ele>488</ele>
        <time>2016-10-09T09:31:24.000Z</time>
      </trkpt>
      <trkpt lat="47.42104" lon="6.79487">
        <ele>489</ele>
        <time>2016-10-09T09:31:26.000Z</time>
      </trkpt>
      <trkpt lat="47.42102" lon="6.79487">
        <ele>489</ele>
        <time>2016-10-09T09:31:27.000Z</time>
      </trkpt>
      <trkpt lat="47.42098" lon="6.79489">
        <ele>490</ele>
        <time>2016-10-09T09:31:29.000Z</time>
      </trkpt>
      <trkpt lat="47.42096" lon="6.79489">
        <ele>490</ele>
        <time>2016-10-09T09:31:30.000Z</time>
      </trkpt>
      <trkpt lat="47.42093" lon="6.7949">
        <ele>491</ele>
        <time>2016-10-09T09:31:32.000Z</time>
      </trkpt>
      <trkpt lat="47.42091" lon="6.79491">
        <ele>491</ele>
        <time>2016-10-09T09:31:33.000Z</time>
      </trkpt>
      <trkpt lat="47.42088" lon="6.79493">
        <ele>492</ele>
        <time>2016-10-09T09:31:35.000Z</time>
      </trkpt>
      <trkpt lat="47.42086" lon="6.79493">
        <ele>493</ele>
        <time>2016-10-09T09:31:36.000Z</time>
      </trkpt>
      <trkpt lat="47.42083" lon="6.79493">
        <ele>494</ele>
        <time>2016-10-09T09:31:39.000Z</time>
      </trkpt>
      <trkpt lat="47.42081" lon="6.79494">
        <ele>494</ele>
        <time>2016-10-09T09:31:40.000Z</time>
      </trkpt>
      <trkpt lat="47.42078" lon="6.79495">
        <ele>493</ele>
        <time>2016-10-09T09:31:42.000Z</time>
      </trkpt>
      <trkpt lat="47.42076" lon="6.79496">
        <ele>493</ele>
        <time>2016-10-09T09:31:43.000Z</time>
      </trkpt>
      <trkpt lat="47.42072" lon="6.79496">
        <ele>492</ele>
        <time>2016-10-09T09:31:45.000Z</time>
      </trkpt>
      <trkpt lat="47.4207" lon="6.79497">
        <ele>492</ele>
        <time>2016-10-09T09:31:46.000Z</time>
      </trkpt>
      <trkpt lat="47.42067" lon="6.79498">
        <ele>491</ele>
        <time>2016-10-09T09:31:48.000Z</time>
      </trkpt>
      <trkpt lat="47.42066" lon="6.79499">
        <ele>491</ele>
        <time>2016-10-09T09:31:49.000Z</time>
      </trkpt>
      <trkpt lat="47.42062" lon="6.79501">
        <ele>499</ele>
        <time>2016-10-09T09:31:52.000Z</time>
      </trkpt>
      <trkpt lat="47.4206" lon="6.79501">
        <ele>500</ele>
        <time>2016-10-09T09:31:53.000Z</time>
      </trkpt>
      <trkpt lat="47.4206" lon="6.79508">
        <ele>500</ele>
        <time>2016-10-09T09:32:00.000Z</time>
      </trkpt>
      <trkpt lat="47.4206" lon="6.79509">
        <ele>500</ele>
        <time>2016-10-09T09:32:01.000Z</time>
      </trkpt>
      <trkpt lat="47.42058" lon="6.79514">
        <ele>500</ele>
        <time>2016-10-09T09:32:12.000Z</time>
      </trkpt>
      <trkpt lat="47.42058" lon="6.79515">
        <ele>500</ele>
        <time>2016-10-09T09:32:13.000Z</time>
      </trkpt>
      <trkpt lat="47.42057" lon="6.79522">
        <ele>501</ele>
        <time>2016-10-09T09:32:23.000Z</time>
      </trkpt>
      <trkpt lat="47.42057" lon="6.79522">
        <ele>501</ele>
        <time>2016-10-09T09:32:24.000Z</time>
      </trkpt>
      <trkpt lat="47.42056" lon="6.79529">
        <ele>502</ele>
        <time>2016-10-09T09:32:31.000Z</time>
      </trkpt>
      <trkpt lat="47.42056" lon="6.79529">
        <ele>502</ele>
        <time>2016-10-09T09:32:32.000Z</time>
      </trkpt>
      <trkpt lat="47.42055" lon="6.79535">
        <ele>502</ele>
        <time>2016-10-09T09:32:41.000Z</time>
      </trkpt>
      <trkpt lat="47.42055" lon="6.79536">
        <ele>502</ele>
        <time>2016-10-09T09:32:42.000Z</time>
      </trkpt>
      <trkpt lat="47.42056" lon="6.79542">
        <ele>503</ele>
        <time>2016-10-09T09:32:48.000Z</time>
      </trkpt>
      <trkpt lat="47.42056" lon="6.79543">
        <ele>503</ele>
        <time>2016-10-09T09:32:49.000Z</time>
      </trkpt>
      <trkpt lat="47.42057" lon="6.79549">
        <ele>503</ele>
        <time>2016-10-09T09:32:57.000Z</time>
      </trkpt>
      <trkpt lat="47.42057" lon="6.79549">
        <ele>504</ele>
        <time>2016-10-09T09:32:58.000Z</time>
      </trkpt>
      <trkpt lat="47.42058" lon="6.79555">
        <ele>504</ele>
        <time>2016-10-09T09:33:04.000Z</time>
      </trkpt>
      <trkpt lat="47.42058" lon="6.79556">
        <ele>504</ele>
        <time>2016-10-09T09:33:05.000Z</time>
      </trkpt>
      <trkpt lat="47.42059" lon="6.79562">
        <ele>505</ele>
        <time>2016-10-09T09:33:11.000Z</time>
      </trkpt>
      <trkpt lat="47.4206" lon="6.79563">
        <ele>505</ele>
        <time>2016-10-09T09:33:12.000Z</time>
      </trkpt>
      <trkpt lat="47.42061" lon="6.79568">
        <ele>506</ele>
        <time>2016-10-09T09:33:16.000Z</time>
      </trkpt>
      <trkpt lat="47.42061" lon="6.79569">
        <ele>506</ele>
        <time>2016-10-09T09:33:17.000Z</time>
      </trkpt>
      <trkpt lat="47.42062" lon="6.79575">
        <ele>506</ele>
        <time>2016-10-09T09:33:22.000Z</time>
      </trkpt>
      <trkpt lat="47.42062" lon="6.79577">
        <ele>506</ele>
        <time>2016-10-09T09:33:23.000Z</time>
      </trkpt>
      <trkpt lat="47.42062" lon="6.79582">
        <ele>507</ele>
        <time>2016-10-09T09:33:26.000Z</time>
      </trkpt>
      <trkpt lat="47.42061" lon="6.79584">
        <ele>513</ele>
        <time>2016-10-09T09:33:27.000Z</time>
      </trkpt>
      <trkpt lat="47.42061" lon="6.79589">
        <ele>513</ele>
        <time>2016-10-09T09:33:30.000Z</time>
      </trkpt>
      <trkpt lat="47.4206" lon="6.79592">
        <ele>514</ele>
        <time>2016-10-09T09:33:31.000Z</time>
      </trkpt>
      <trkpt lat="47.42061" lon="6.79597">
        <ele>514</ele>
        <time>2016-10-09T09:33:34.000Z</time>
      </trkpt>
      <trkpt lat="47.4206" lon="6.79599">
        <ele>514</ele>
        <time>2016-10-09T09:33:35.000Z</time>
      </trkpt>
      <trkpt lat="47.42058" lon="6.79603">
        <ele>514</ele>
        <time>2016-10-09T09:33:38.000Z</time>
      </trkpt>
      <trkpt lat="47.42057" lon="6.79604">
        <ele>514</ele>
        <time>2016-10-09T09:33:39.000Z</time>
      </trkpt>
      <trkpt lat="47.42055" lon="6.79609">
        <ele>514</ele>
        <time>2016-10-09T09:33:43.000Z</time>
      </trkpt>
      <trkpt lat="47.42054" lon="6.7961">
        <ele>514</ele>
        <time>2016-10-09T09:33:44.000Z</time>
      </trkpt>
      <trkpt lat="47.42055" lon="6.79616">
        <ele>515</ele>
        <time>2016-10-09T09:33:49.000Z</time>
      </trkpt>
      <trkpt lat="47.42056" lon="6.79617">
        <ele>515</ele>
        <time>2016-10-09T09:33:50.000Z</time>
      </trkpt>
      <trkpt lat="47.42057" lon="6.79622">
        <ele>516</ele>
        <time>2016-10-09T09:33:58.000Z</time>
      </trkpt>
      <trkpt lat="47.42057" lon="6.79623">
        <ele>516</ele>
        <time>2016-10-09T09:33:59.000Z</time>
      </trkpt>
      <trkpt lat="47.42058" lon="6.79628">
        <ele>516</ele>
        <time>2016-10-09T09:34:11.000Z</time>
      </trkpt>
      <trkpt lat="47.42058" lon="6.7963">
        <ele>517</ele>
        <time>2016-10-09T09:34:12.000Z</time>
      </trkpt>
      <trkpt lat="47.4206" lon="6.79636">
        <ele>517</ele>
        <time>2016-10-09T09:34:24.000Z</time>
      </trkpt>
      <trkpt lat="47.4206" lon="6.79636">
        <ele>517</ele>
        <time>2016-10-09T09:34:25.000Z</time>
      </trkpt>
      <trkpt lat="47.42063" lon="6.79641">
        <ele>518</ele>
        <time>2016-10-09T09:34:33.000Z</time>
      </trkpt>
      <trkpt lat="47.42063" lon="6.79641">
        <ele>518</ele>
        <time>2016-10-09T09:34:34.000Z</time>
      </trkpt>
      <trkpt lat="47.42066" lon="6.79646">
        <ele>519</ele>
        <time>2016-10-09T09:34:46.000Z</time>
      </trkpt>
      <trkpt lat="47.42067" lon="6.79647">
        <ele>520</ele>
        <time>2016-10-09T09:34:47.000Z</time>
      </trkpt>
      <trkpt lat="47.42069" lon="6.79652">
        <ele>521</ele>
        <time>2016-10-09T09:34:52.000Z</time>
      </trkpt>
      <trkpt lat="47.42069" lon="6.79653">
        <ele>521</ele>
        <time>2016-10-09T09:34:53.000Z</time>
      </trkpt>
      <trkpt lat="47.42073" lon="6.79655">
        <ele>522</ele>
        <time>2016-10-09T09:35:03.000Z</time>
      </trkpt>
      <trkpt lat="47.42074" lon="6.79656">
        <ele>523</ele>
        <time>2016-10-09T09:35:04.000Z</time>
      </trkpt>
      <trkpt lat="47.42076" lon="6.79661">
        <ele>524</ele>
        <time>2016-10-09T09:35:09.000Z</time>
      </trkpt>
      <trkpt lat="47.42076" lon="6.79663">
        <ele>525</ele>
        <time>2016-10-09T09:35:10.000Z</time>
      </trkpt>
      <trkpt lat="47.42077" lon="6.79667">
        <ele>528</ele>
        <time>2016-10-09T09:35:12.000Z</time>
      </trkpt>
      <trkpt lat="47.42078" lon="6.79669">
        <ele>528</ele>
        <time>2016-10-09T09:35:13.000Z</time>
      </trkpt>
      <trkpt lat="47.4208" lon="6.79674">
        <ele>528</ele>
        <time>2016-10-09T09:35:19.000Z</time>
      </trkpt>
      <trkpt lat="47.4208" lon="6.79675">
        <ele>527</ele>
        <time>2016-10-09T09:35:20.000Z</time>
      </trkpt>
      <trkpt lat="47.42083" lon="6.79679">
        <ele>527</ele>
        <time>2016-10-09T09:35:38.000Z</time>
      </trkpt>
      <trkpt lat="47.42084" lon="6.79679">
        <ele>530</ele>
        <time>2016-10-09T09:35:39.000Z</time>
      </trkpt>
      <trkpt lat="47.42087" lon="6.79683">
        <ele>530</ele>
        <time>2016-10-09T09:35:52.000Z</time>
      </trkpt>
      <trkpt lat="47.42087" lon="6.79683">
        <ele>530</ele>
        <time>2016-10-09T09:35:53.000Z</time>
      </trkpt>
      <trkpt lat="47.42087" lon="6.7969">
        <ele>530</ele>
        <time>2016-10-09T09:36:22.000Z</time>
      </trkpt>
      <trkpt lat="47.42087" lon="6.7969">
        <ele>530</ele>
        <time>2016-10-09T09:36:23.000Z</time>
      </trkpt>
      <trkpt lat="47.42088" lon="6.79696">
        <ele>530</ele>
        <time>2016-10-09T09:37:13.000Z</time>
      </trkpt>
      <trkpt lat="47.42089" lon="6.79697">
        <ele>530</ele>
        <time>2016-10-09T09:37:14.000Z</time>
      </trkpt>
      <trkpt lat="47.42089" lon="6.79703">
        <ele>531</ele>
        <time>2016-10-09T09:37:20.000Z</time>
      </trkpt>
      <trkpt lat="47.42089" lon="6.79704">
        <ele>531</ele>
        <time>2016-10-09T09:37:21.000Z</time>
      </trkpt>
      <trkpt lat="47.42089" lon="6.79711">
        <ele>531</ele>
        <time>2016-10-09T09:37:24.000Z</time>
      </trkpt>
      <trkpt lat="47.42089" lon="6.79713">
        <ele>531</ele>
        <time>2016-10-09T09:37:25.000Z</time>
      </trkpt>
      <trkpt lat="47.42089" lon="6.79719">
        <ele>531</ele>
        <time>2016-10-09T09:37:28.000Z</time>
      </trkpt>
      <trkpt lat="47.42089" lon="6.79721">
        <ele>531</ele>
        <time>2016-10-09T09:37:29.000Z</time>
      </trkpt>
      <trkpt lat="47.42088" lon="6.79725">
        <ele>531</ele>
        <time>2016-10-09T09:37:31.000Z</time>
      </trkpt>
      <trkpt lat="47.42088" lon="6.79728">
        <ele>531</ele>
        <time>2016-10-09T09:37:32.000Z</time>
      </trkpt>
      <trkpt lat="47.42087" lon="6.79734">
        <ele>531</ele>
        <time>2016-10-09T09:37:35.000Z</time>
      </trkpt>
      <trkpt lat="47.42087" lon="6.79736">
        <ele>531</ele>
        <time>2016-10-09T09:37:36.000Z</time>
      </trkpt>
      <trkpt lat="47.42086" lon="6.79742">
        <ele>532</ele>
        <time>2016-10-09T09:37:39.000Z</time>
      </trkpt>
      <trkpt lat="47.42085" lon="6.79744">
        <ele>532</ele>
        <time>2016-10-09T09:37:40.000Z</time>
      </trkpt>
      <trkpt lat="47.42081" lon="6.79745">
        <ele>530</ele>
        <time>2016-10-09T09:37:43.000Z</time>
      </trkpt>
      <trkpt lat="47.42079" lon="6.79744">
        <ele>530</ele>
        <time>2016-10-09T09:37:44.000Z</time>
      </trkpt>
      <trkpt lat="47.42077" lon="6.79748">
        <ele>530</ele>
        <time>2016-10-09T09:37:46.000Z</time>
      </trkpt>
      <trkpt lat="47.42076" lon="6.79751">
        <ele>530</ele>
        <time>2016-10-09T09:37:47.000Z</time>
      </trkpt>
      <trkpt lat="47.42075" lon="6.79754">
        <ele>530</ele>
        <time>2016-10-09T09:37:48.000Z</time>
      </trkpt>
      <trkpt lat="47.42073" lon="6.79757">
        <ele>529</ele>
        <time>2016-10-09T09:37:49.000Z</time>
      </trkpt>
      <trkpt lat="47.42071" lon="6.79759">
        <ele>529</ele>
        <time>2016-10-09T09:37:50.000Z</time>
      </trkpt>
      <trkpt lat="47.42069" lon="6.7976">
        <ele>529</ele>
        <time>2016-10-09T09:37:51.000Z</time>
      </trkpt>
      <trkpt lat="47.42066" lon="6.79761">
        <ele>528</ele>
        <time>2016-10-09T09:37:52.000Z</time>
      </trkpt>
      <trkpt lat="47.42064" lon="6.79761">
        <ele>528</ele>
        <time>2016-10-09T09:37:53.000Z</time>
      </trkpt>
      <trkpt lat="47.42061" lon="6.79761">
        <ele>528</ele>
        <time>2016-10-09T09:37:54.000Z</time>
      </trkpt>
      <trkpt lat="47.42058" lon="6.79759">
        <ele>528</ele>
        <time>2016-10-09T09:37:55.000Z</time>
      </trkpt>
      <trkpt lat="47.42055" lon="6.79756">
        <ele>527</ele>
        <time>2016-10-09T09:37:56.000Z</time>
      </trkpt>
      <trkpt lat="47.42053" lon="6.79753">
        <ele>527</ele>
        <time>2016-10-09T09:37:57.000Z</time>
      </trkpt>
      <trkpt lat="47.42049" lon="6.79753">
        <ele>526</ele>
        <time>2016-10-09T09:38:00.000Z</time>
      </trkpt>
      <trkpt lat="47.42048" lon="6.79755">
        <ele>526</ele>
        <time>2016-10-09T09:38:01.000Z</time>
      </trkpt>
      <trkpt lat="47.42048" lon="6.79761">
        <ele>526</ele>
        <time>2016-10-09T09:38:23.000Z</time>
      </trkpt>
      <trkpt lat="47.42047" lon="6.79762">
        <ele>526</ele>
        <time>2016-10-09T09:38:24.000Z</time>
      </trkpt>
      <trkpt lat="47.42044" lon="6.79764">
        <ele>526</ele>
        <time>2016-10-09T09:38:26.000Z</time>
      </trkpt>
      <trkpt lat="47.42042" lon="6.79766">
        <ele>526</ele>
        <time>2016-10-09T09:38:27.000Z</time>
      </trkpt>
      <trkpt lat="47.4204" lon="6.79768">
        <ele>526</ele>
        <time>2016-10-09T09:38:28.000Z</time>
      </trkpt>
      <trkpt lat="47.42038" lon="6.7977">
        <ele>525</ele>
        <time>2016-10-09T09:38:29.000Z</time>
      </trkpt>
      <trkpt lat="47.42036" lon="6.79775">
        <ele>525</ele>
        <time>2016-10-09T09:38:31.000Z</time>
      </trkpt>
      <trkpt lat="47.42036" lon="6.79776">
        <ele>525</ele>
        <time>2016-10-09T09:38:32.000Z</time>
      </trkpt>
      <trkpt lat="47.42033" lon="6.7978">
        <ele>525</ele>
        <time>2016-10-09T09:38:36.000Z</time>
      </trkpt>
      <trkpt lat="47.42032" lon="6.79781">
        <ele>525</ele>
        <time>2016-10-09T09:38:37.000Z</time>
      </trkpt>
      <trkpt lat="47.42029" lon="6.79783">
        <ele>525</ele>
        <time>2016-10-09T09:38:39.000Z</time>
      </trkpt>
      <trkpt lat="47.42028" lon="6.79785">
        <ele>525</ele>
        <time>2016-10-09T09:38:40.000Z</time>
      </trkpt>
      <trkpt lat="47.42025" lon="6.79788">
        <ele>524</ele>
        <time>2016-10-09T09:38:43.000Z</time>
      </trkpt>
      <trkpt lat="47.42024" lon="6.79789">
        <ele>524</ele>
        <time>2016-10-09T09:38:44.000Z</time>
      </trkpt>
      <trkpt lat="47.42023" lon="6.79794">
        <ele>524</ele>
        <time>2016-10-09T09:38:48.000Z</time>
      </trkpt>
      <trkpt lat="47.4202" lon="6.79796">
        <ele>524</ele>
        <time>2016-10-09T09:38:49.000Z</time>
      </trkpt>
      <trkpt lat="47.42019" lon="6.79798">
        <ele>524</ele>
        <time>2016-10-09T09:38:50.000Z</time>
      </trkpt>
      <trkpt lat="47.42018" lon="6.79802">
        <ele>524</ele>
        <time>2016-10-09T09:38:51.000Z</time>
      </trkpt>
      <trkpt lat="47.42017" lon="6.79807">
        <ele>524</ele>
        <time>2016-10-09T09:38:52.000Z</time>
      </trkpt>
      <trkpt lat="47.42017" lon="6.79813">
        <ele>523</ele>
        <time>2016-10-09T09:38:53.000Z</time>
      </trkpt>
      <trkpt lat="47.42016" lon="6.79818">
        <ele>523</ele>
        <time>2016-10-09T09:38:54.000Z</time>
      </trkpt>
      <trkpt lat="47.42015" lon="6.79823">
        <ele>522</ele>
        <time>2016-10-09T09:38:55.000Z</time>
      </trkpt>
      <trkpt lat="47.41999" lon="6.79835">
        <ele>518</ele>
        <time>2016-10-09T09:38:56.000Z</time>
      </trkpt>
      <trkpt lat="47.41991" lon="6.79837">
        <ele>515</ele>
        <time>2016-10-09T09:38:57.000Z</time>
      </trkpt>
      <trkpt lat="47.41989" lon="6.79834">
        <ele>515</ele>
        <time>2016-10-09T09:38:58.000Z</time>
      </trkpt>
      <trkpt lat="47.41985" lon="6.79833">
        <ele>514</ele>
        <time>2016-10-09T09:38:59.000Z</time>
      </trkpt>
      <trkpt lat="47.41982" lon="6.79832">
        <ele>513</ele>
        <time>2016-10-09T09:39:00.000Z</time>
      </trkpt>
      <trkpt lat="47.4198" lon="6.79831">
        <ele>513</ele>
        <time>2016-10-09T09:39:01.000Z</time>
      </trkpt>
      <trkpt lat="47.41976" lon="6.79834">
        <ele>512</ele>
        <time>2016-10-09T09:39:13.000Z</time>
      </trkpt>
      <trkpt lat="47.41976" lon="6.79835">
        <ele>512</ele>
        <time>2016-10-09T09:39:14.000Z</time>
      </trkpt>
      <trkpt lat="47.41972" lon="6.79835">
        <ele>511</ele>
        <time>2016-10-09T09:39:29.000Z</time>
      </trkpt>
      <trkpt lat="47.41971" lon="6.79835">
        <ele>511</ele>
        <time>2016-10-09T09:39:30.000Z</time>
      </trkpt>
      <trkpt lat="47.41969" lon="6.79833">
        <ele>510</ele>
        <time>2016-10-09T09:40:00.000Z</time>
      </trkpt>
      <trkpt lat="47.41966" lon="6.79833">
        <ele>510</ele>
        <time>2016-10-09T09:40:01.000Z</time>
      </trkpt>
      <trkpt lat="47.41963" lon="6.79833">
        <ele>509</ele>
        <time>2016-10-09T09:40:03.000Z</time>
      </trkpt>
      <trkpt lat="47.41961" lon="6.79834">
        <ele>509</ele>
        <time>2016-10-09T09:40:04.000Z</time>
      </trkpt>
      <trkpt lat="47.4196" lon="6.79835">
        <ele>508</ele>
        <time>2016-10-09T09:40:05.000Z</time>
      </trkpt>
      <trkpt lat="47.41953" lon="6.79844">
        <ele>507</ele>
        <time>2016-10-09T09:40:06.000Z</time>
      </trkpt>
      <trkpt lat="47.4195" lon="6.79846">
        <ele>507</ele>
        <time>2016-10-09T09:40:07.000Z</time>
      </trkpt>
      <trkpt lat="47.41947" lon="6.79851">
        <ele>506</ele>
        <time>2016-10-09T09:40:08.000Z</time>
      </trkpt>
      <trkpt lat="47.41945" lon="6.79856">
        <ele>506</ele>
        <time>2016-10-09T09:40:09.000Z</time>
      </trkpt>
      <trkpt lat="47.41943" lon="6.79861">
        <ele>506</ele>
        <time>2016-10-09T09:40:10.000Z</time>
      </trkpt>
      <trkpt lat="47.41942" lon="6.79864">
        <ele>506</ele>
        <time>2016-10-09T09:40:11.000Z</time>
      </trkpt>
      <trkpt lat="47.4194" lon="6.79868">
        <ele>506</ele>
        <time>2016-10-09T09:40:12.000Z</time>
      </trkpt>
      <trkpt lat="47.41936" lon="6.79874">
        <ele>505</ele>
        <time>2016-10-09T09:40:13.000Z</time>
      </trkpt>
      <trkpt lat="47.41934" lon="6.7988">
        <ele>505</ele>
        <time>2016-10-09T09:40:14.000Z</time>
      </trkpt>
      <trkpt lat="47.41933" lon="6.79885">
        <ele>505</ele>
        <time>2016-10-09T09:40:15.000Z</time>
      </trkpt>
      <trkpt lat="47.41931" lon="6.79891">
        <ele>504</ele>
        <time>2016-10-09T09:40:16.000Z</time>
      </trkpt>
      <trkpt lat="47.4193" lon="6.79897">
        <ele>504</ele>
        <time>2016-10-09T09:40:17.000Z</time>
      </trkpt>
      <trkpt lat="47.41929" lon="6.79903">
        <ele>503</ele>
        <time>2016-10-09T09:40:18.000Z</time>
      </trkpt>
      <trkpt lat="47.41928" lon="6.79908">
        <ele>502</ele>
        <time>2016-10-09T09:40:19.000Z</time>
      </trkpt>
      <trkpt lat="47.41927" lon="6.79912">
        <ele>501</ele>
        <time>2016-10-09T09:40:20.000Z</time>
      </trkpt>
      <trkpt lat="47.41925" lon="6.79917">
        <ele>500</ele>
        <time>2016-10-09T09:40:21.000Z</time>
      </trkpt>
      <trkpt lat="47.41923" lon="6.79921">
        <ele>500</ele>
        <time>2016-10-09T09:40:22.000Z</time>
      </trkpt>
      <trkpt lat="47.41921" lon="6.79924">
        <ele>500</ele>
        <time>2016-10-09T09:40:23.000Z</time>
      </trkpt>
      <trkpt lat="47.4192" lon="6.79928">
        <ele>501</ele>
        <time>2016-10-09T09:40:24.000Z</time>
      </trkpt>
      <trkpt lat="47.41919" lon="6.79932">
        <ele>501</ele>
        <time>2016-10-09T09:40:25.000Z</time>
      </trkpt>
      <trkpt lat="47.41918" lon="6.79935">
        <ele>502</ele>
        <time>2016-10-09T09:40:26.000Z</time>
      </trkpt>
      <trkpt lat="47.41916" lon="6.79939">
        <ele>494</ele>
        <time>2016-10-09T09:40:27.000Z</time>
      </trkpt>
      <trkpt lat="47.41915" lon="6.79943">
        <ele>493</ele>
        <time>2016-10-09T09:40:28.000Z</time>
      </trkpt>
      <trkpt lat="47.41914" lon="6.79947">
        <ele>493</ele>
        <time>2016-10-09T09:40:29.000Z</time>
      </trkpt>
      <trkpt lat="47.41912" lon="6.79951">
        <ele>493</ele>
        <time>2016-10-09T09:40:31.000Z</time>
      </trkpt>
      <trkpt lat="47.41911" lon="6.79952">
        <ele>493</ele>
        <time>2016-10-09T09:40:32.000Z</time>
      </trkpt>
      <trkpt lat="47.41909" lon="6.79957">
        <ele>493</ele>
        <time>2016-10-09T09:40:36.000Z</time>
      </trkpt>
      <trkpt lat="47.41908" lon="6.79959">
        <ele>493</ele>
        <time>2016-10-09T09:40:37.000Z</time>
      </trkpt>
      <trkpt lat="47.41907" lon="6.79962">
        <ele>493</ele>
        <time>2016-10-09T09:40:39.000Z</time>
      </trkpt>
      <trkpt lat="47.41905" lon="6.79965">
        <ele>493</ele>
        <time>2016-10-09T09:40:40.000Z</time>
      </trkpt>
      <trkpt lat="47.41903" lon="6.79969">
        <ele>493</ele>
        <time>2016-10-09T09:40:41.000Z</time>
      </trkpt>
      <trkpt lat="47.419" lon="6.79974">
        <ele>493</ele>
        <time>2016-10-09T09:40:42.000Z</time>
      </trkpt>
      <trkpt lat="47.41898" lon="6.79978">
        <ele>493</ele>
        <time>2016-10-09T09:40:43.000Z</time>
      </trkpt>
      <trkpt lat="47.41896" lon="6.79981">
        <ele>493</ele>
        <time>2016-10-09T09:40:44.000Z</time>
      </trkpt>
      <trkpt lat="47.41893" lon="6.79986">
        <ele>493</ele>
        <time>2016-10-09T09:40:46.000Z</time>
      </trkpt>
      <trkpt lat="47.41892" lon="6.79988">
        <ele>493</ele>
        <time>2016-10-09T09:40:47.000Z</time>
      </trkpt>
      <trkpt lat="47.4189" lon="6.79989">
        <ele>492</ele>
        <time>2016-10-09T09:40:48.000Z</time>
      </trkpt>
      <trkpt lat="47.41888" lon="6.7999">
        <ele>492</ele>
        <time>2016-10-09T09:40:49.000Z</time>
      </trkpt>
      <trkpt lat="47.41885" lon="6.7999">
        <ele>492</ele>
        <time>2016-10-09T09:40:50.000Z</time>
      </trkpt>
      <trkpt lat="47.41882" lon="6.79989">
        <ele>492</ele>
        <time>2016-10-09T09:40:51.000Z</time>
      </trkpt>
      <trkpt lat="47.41879" lon="6.79989">
        <ele>492</ele>
        <time>2016-10-09T09:40:52.000Z</time>
      </trkpt>
      <trkpt lat="47.41877" lon="6.79991">
        <ele>491</ele>
        <time>2016-10-09T09:40:53.000Z</time>
      </trkpt>
      <trkpt lat="47.41874" lon="6.79993">
        <ele>491</ele>
        <time>2016-10-09T09:40:54.000Z</time>
      </trkpt>
      <trkpt lat="47.41872" lon="6.79995">
        <ele>491</ele>
        <time>2016-10-09T09:40:55.000Z</time>
      </trkpt>
      <trkpt lat="47.41869" lon="6.79997">
        <ele>491</ele>
        <time>2016-10-09T09:40:56.000Z</time>
      </trkpt>
      <trkpt lat="47.41866" lon="6.79997">
        <ele>491</ele>
        <time>2016-10-09T09:40:57.000Z</time>
      </trkpt>
      <trkpt lat="47.41863" lon="6.79996">
        <ele>491</ele>
        <time>2016-10-09T09:40:58.000Z</time>
      </trkpt>
      <trkpt lat="47.4186" lon="6.79994">
        <ele>490</ele>
        <time>2016-10-09T09:40:59.000Z</time>
      </trkpt>
      <trkpt lat="47.41856" lon="6.79991">
        <ele>490</ele>
        <time>2016-10-09T09:41:00.000Z</time>
      </trkpt>
      <trkpt lat="47.41853" lon="6.79988">
        <ele>490</ele>
        <time>2016-10-09T09:41:01.000Z</time>
      </trkpt>
      <trkpt lat="47.41849" lon="6.79985">
        <ele>490</ele>
        <time>2016-10-09T09:41:02.000Z</time>
      </trkpt>
      <trkpt lat="47.41846" lon="6.79982">
        <ele>490</ele>
        <time>2016-10-09T09:41:03.000Z</time>
      </trkpt>
      <trkpt lat="47.41842" lon="6.79983">
        <ele>490</ele>
        <time>2016-10-09T09:41:08.000Z</time>
      </trkpt>
      <trkpt lat="47.41842" lon="6.79983">
        <ele>490</ele>
        <time>2016-10-09T09:41:09.000Z</time>
      </trkpt>
      <trkpt lat="47.41839" lon="6.79979">
        <ele>489</ele>
        <time>2016-10-09T09:41:37.000Z</time>
      </trkpt>
      <trkpt lat="47.41838" lon="6.79978">
        <ele>489</ele>
        <time>2016-10-09T09:41:38.000Z</time>
      </trkpt>
      <trkpt lat="47.41835" lon="6.79974">
        <ele>489</ele>
        <time>2016-10-09T09:41:40.000Z</time>
      </trkpt>
      <trkpt lat="47.41833" lon="6.79972">
        <ele>489</ele>
        <time>2016-10-09T09:41:41.000Z</time>
      </trkpt>
      <trkpt lat="47.41832" lon="6.79969">
        <ele>487</ele>
        <time>2016-10-09T09:41:42.000Z</time>
      </trkpt>
      <trkpt lat="47.41831" lon="6.79967">
        <ele>487</ele>
        <time>2016-10-09T09:41:43.000Z</time>
      </trkpt>
      <trkpt lat="47.41829" lon="6.79964">
        <ele>487</ele>
        <time>2016-10-09T09:41:44.000Z</time>
      </trkpt>
      <trkpt lat="47.41826" lon="6.79961">
        <ele>487</ele>
        <time>2016-10-09T09:41:45.000Z</time>
      </trkpt>
      <trkpt lat="47.41824" lon="6.79957">
        <ele>487</ele>
        <time>2016-10-09T09:41:46.000Z</time>
      </trkpt>
      <trkpt lat="47.41822" lon="6.79953">
        <ele>486</ele>
        <time>2016-10-09T09:41:47.000Z</time>
      </trkpt>
      <trkpt lat="47.41819" lon="6.79949">
        <ele>486</ele>
        <time>2016-10-09T09:41:49.000Z</time>
      </trkpt>
      <trkpt lat="47.41818" lon="6.79947">
        <ele>486</ele>
        <time>2016-10-09T09:41:50.000Z</time>
      </trkpt>
      <trkpt lat="47.41816" lon="6.79945">
        <ele>486</ele>
        <time>2016-10-09T09:41:52.000Z</time>
      </trkpt>
      <trkpt lat="47.41814" lon="6.79943">
        <ele>486</ele>
        <time>2016-10-09T09:41:53.000Z</time>
      </trkpt>
      <trkpt lat="47.41811" lon="6.79939">
        <ele>486</ele>
        <time>2016-10-09T09:41:54.000Z</time>
      </trkpt>
      <trkpt lat="47.41808" lon="6.79934">
        <ele>486</ele>
        <time>2016-10-09T09:41:55.000Z</time>
      </trkpt>
      <trkpt lat="47.41805" lon="6.79928">
        <ele>485</ele>
        <time>2016-10-09T09:41:56.000Z</time>
      </trkpt>
      <trkpt lat="47.41802" lon="6.7992">
        <ele>485</ele>
        <time>2016-10-09T09:41:57.000Z</time>
      </trkpt>
      <trkpt lat="47.41799" lon="6.79913">
        <ele>479</ele>
        <time>2016-10-09T09:41:58.000Z</time>
      </trkpt>
      <trkpt lat="47.41796" lon="6.79905">
        <ele>479</ele>
        <time>2016-10-09T09:41:59.000Z</time>
      </trkpt>
      <trkpt lat="47.41793" lon="6.79898">
        <ele>479</ele>
        <time>2016-10-09T09:42:00.000Z</time>
      </trkpt>
      <trkpt lat="47.4179" lon="6.79891">
        <ele>479</ele>
        <time>2016-10-09T09:42:01.000Z</time>
      </trkpt>
      <trkpt lat="47.41788" lon="6.79885">
        <ele>478</ele>
        <time>2016-10-09T09:42:02.000Z</time>
      </trkpt>
      <trkpt lat="47.41786" lon="6.7988">
        <ele>478</ele>
        <time>2016-10-09T09:42:03.000Z</time>
      </trkpt>
      <trkpt lat="47.41785" lon="6.79874">
        <ele>477</ele>
        <time>2016-10-09T09:42:04.000Z</time>
      </trkpt>
      <trkpt lat="47.41784" lon="6.7987">
        <ele>477</ele>
        <time>2016-10-09T09:42:05.000Z</time>
      </trkpt>
      <trkpt lat="47.41783" lon="6.79866">
        <ele>477</ele>
        <time>2016-10-09T09:42:06.000Z</time>
      </trkpt>
      <trkpt lat="47.41782" lon="6.79862">
        <ele>476</ele>
        <time>2016-10-09T09:42:07.000Z</time>
      </trkpt>
      <trkpt lat="47.41782" lon="6.79858">
        <ele>476</ele>
        <time>2016-10-09T09:42:08.000Z</time>
      </trkpt>
      <trkpt lat="47.41781" lon="6.79851">
        <ele>476</ele>
        <time>2016-10-09T09:42:10.000Z</time>
      </trkpt>
      <trkpt lat="47.41781" lon="6.79849">
        <ele>476</ele>
        <time>2016-10-09T09:42:11.000Z</time>
      </trkpt>
      <trkpt lat="47.41782" lon="6.79843">
        <ele>475</ele>
        <time>2016-10-09T09:42:15.000Z</time>
      </trkpt>
      <trkpt lat="47.41782" lon="6.79842">
        <ele>475</ele>
        <time>2016-10-09T09:42:16.000Z</time>
      </trkpt>
      <trkpt lat="47.41785" lon="6.79838">
        <ele>475</ele>
        <time>2016-10-09T09:42:38.000Z</time>
      </trkpt>
      <trkpt lat="47.41785" lon="6.79837">
        <ele>475</ele>
        <time>2016-10-09T09:42:39.000Z</time>
      </trkpt>
      <trkpt lat="47.41783" lon="6.79832">
        <ele>468</ele>
        <time>2016-10-09T09:43:55.000Z</time>
      </trkpt>
      <trkpt lat="47.41781" lon="6.79831">
        <ele>468</ele>
        <time>2016-10-09T09:43:56.000Z</time>
      </trkpt>
      <trkpt lat="47.41778" lon="6.79828">
        <ele>468</ele>
        <time>2016-10-09T09:43:58.000Z</time>
      </trkpt>
      <trkpt lat="47.41777" lon="6.79827">
        <ele>468</ele>
        <time>2016-10-09T09:43:59.000Z</time>
      </trkpt>
      <trkpt lat="47.41773" lon="6.79823">
        <ele>468</ele>
        <time>2016-10-09T09:44:01.000Z</time>
      </trkpt>
      <trkpt lat="47.41771" lon="6.79821">
        <ele>468</ele>
        <time>2016-10-09T09:44:02.000Z</time>
      </trkpt>
      <trkpt lat="47.4177" lon="6.79817">
        <ele>468</ele>
        <time>2016-10-09T09:44:03.000Z</time>
      </trkpt>
      <trkpt lat="47.41768" lon="6.79813">
        <ele>467</ele>
        <time>2016-10-09T09:44:04.000Z</time>
      </trkpt>
      <trkpt lat="47.41767" lon="6.79808">
        <ele>467</ele>
        <time>2016-10-09T09:44:05.000Z</time>
      </trkpt>
      <trkpt lat="47.41766" lon="6.79803">
        <ele>467</ele>
        <time>2016-10-09T09:44:06.000Z</time>
      </trkpt>
      <trkpt lat="47.41765" lon="6.79799">
        <ele>466</ele>
        <time>2016-10-09T09:44:07.000Z</time>
      </trkpt>
      <trkpt lat="47.41763" lon="6.79795">
        <ele>466</ele>
        <time>2016-10-09T09:44:08.000Z</time>
      </trkpt>
      <trkpt lat="47.41761" lon="6.79791">
        <ele>465</ele>
        <time>2016-10-09T09:44:09.000Z</time>
      </trkpt>
      <trkpt lat="47.41759" lon="6.79787">
        <ele>465</ele>
        <time>2016-10-09T09:44:10.000Z</time>
      </trkpt>
      <trkpt lat="47.41758" lon="6.79783">
        <ele>464</ele>
        <time>2016-10-09T09:44:11.000Z</time>
      </trkpt>
      <trkpt lat="47.41755" lon="6.79779">
        <ele>463</ele>
        <time>2016-10-09T09:44:12.000Z</time>
      </trkpt>
      <trkpt lat="47.41752" lon="6.79775">
        <ele>462</ele>
        <time>2016-10-09T09:44:13.000Z</time>
      </trkpt>
      <trkpt lat="47.41749" lon="6.79771">
        <ele>465</ele>
        <time>2016-10-09T09:44:14.000Z</time>
      </trkpt>
      <trkpt lat="47.41746" lon="6.79766">
        <ele>463</ele>
        <time>2016-10-09T09:44:16.000Z</time>
      </trkpt>
      <trkpt lat="47.41745" lon="6.79764">
        <ele>463</ele>
        <time>2016-10-09T09:44:17.000Z</time>
      </trkpt>
      <trkpt lat="47.41744" lon="6.7976">
        <ele>461</ele>
        <time>2016-10-09T09:44:19.000Z</time>
      </trkpt>
      <trkpt lat="47.41743" lon="6.79756">
        <ele>460</ele>
        <time>2016-10-09T09:44:20.000Z</time>
      </trkpt>
      <trkpt lat="47.41742" lon="6.79752">
        <ele>460</ele>
        <time>2016-10-09T09:44:21.000Z</time>
      </trkpt>
      <trkpt lat="47.41741" lon="6.79748">
        <ele>456</ele>
        <time>2016-10-09T09:44:22.000Z</time>
      </trkpt>
      <trkpt lat="47.4174" lon="6.79743">
        <ele>456</ele>
        <time>2016-10-09T09:44:23.000Z</time>
      </trkpt>
      <trkpt lat="47.41739" lon="6.79739">
        <ele>456</ele>
        <time>2016-10-09T09:44:24.000Z</time>
      </trkpt>
      <trkpt lat="47.41737" lon="6.79734">
        <ele>456</ele>
        <time>2016-10-09T09:44:25.000Z</time>
      </trkpt>
      <trkpt lat="47.41736" lon="6.7973">
        <ele>456</ele>
        <time>2016-10-09T09:44:26.000Z</time>
      </trkpt>
      <trkpt lat="47.41733" lon="6.79725">
        <ele>457</ele>
        <time>2016-10-09T09:44:27.000Z</time>
      </trkpt>
      <trkpt lat="47.4173" lon="6.79721">
        <ele>457</ele>
        <time>2016-10-09T09:44:28.000Z</time>
      </trkpt>
      <trkpt lat="47.41728" lon="6.79716">
        <ele>457</ele>
        <time>2016-10-09T09:44:29.000Z</time>
      </trkpt>
      <trkpt lat="47.41725" lon="6.7971">
        <ele>457</ele>
        <time>2016-10-09T09:44:30.000Z</time>
      </trkpt>
      <trkpt lat="47.41722" lon="6.79705">
        <ele>456</ele>
        <time>2016-10-09T09:44:31.000Z</time>
      </trkpt>
      <trkpt lat="47.41719" lon="6.79698">
        <ele>456</ele>
        <time>2016-10-09T09:44:32.000Z</time>
      </trkpt>
      <trkpt lat="47.41716" lon="6.79692">
        <ele>456</ele>
        <time>2016-10-09T09:44:33.000Z</time>
      </trkpt>
      <trkpt lat="47.41714" lon="6.79685">
        <ele>456</ele>
        <time>2016-10-09T09:44:34.000Z</time>
      </trkpt>
      <trkpt lat="47.41712" lon="6.79678">
        <ele>455</ele>
        <time>2016-10-09T09:44:35.000Z</time>
      </trkpt>
      <trkpt lat="47.4171" lon="6.79672">
        <ele>455</ele>
        <time>2016-10-09T09:44:36.000Z</time>
      </trkpt>
      <trkpt lat="47.41708" lon="6.79664">
        <ele>446</ele>
        <time>2016-10-09T09:44:37.000Z</time>
      </trkpt>
      <trkpt lat="47.41707" lon="6.79656">
        <ele>446</ele>
        <time>2016-10-09T09:44:38.000Z</time>
      </trkpt>
      <trkpt lat="47.41705" lon="6.79649">
        <ele>446</ele>
        <time>2016-10-09T09:44:39.000Z</time>
      </trkpt>
      <trkpt lat="47.41704" lon="6.79641">
        <ele>445</ele>
        <time>2016-10-09T09:44:40.000Z</time>
      </trkpt>
      <trkpt lat="47.41704" lon="6.79635">
        <ele>445</ele>
        <time>2016-10-09T09:44:41.000Z</time>
      </trkpt>
      <trkpt lat="47.41705" lon="6.79629">
        <ele>444</ele>
        <time>2016-10-09T09:44:42.000Z</time>
      </trkpt>
      <trkpt lat="47.41704" lon="6.79623">
        <ele>444</ele>
        <time>2016-10-09T09:44:43.000Z</time>
      </trkpt>
      <trkpt lat="47.41702" lon="6.79618">
        <ele>443</ele>
        <time>2016-10-09T09:44:44.000Z</time>
      </trkpt>
      <trkpt lat="47.41701" lon="6.79615">
        <ele>443</ele>
        <time>2016-10-09T09:44:45.000Z</time>
      </trkpt>
      <trkpt lat="47.417" lon="6.79612">
        <ele>443</ele>
        <time>2016-10-09T09:44:46.000Z</time>
      </trkpt>
      <trkpt lat="47.41701" lon="6.79607">
        <ele>442</ele>
        <time>2016-10-09T09:44:48.000Z</time>
      </trkpt>
      <trkpt lat="47.41704" lon="6.79602">
        <ele>442</ele>
        <time>2016-10-09T09:44:49.000Z</time>
      </trkpt>
      <trkpt lat="47.41707" lon="6.79598">
        <ele>442</ele>
        <time>2016-10-09T09:44:51.000Z</time>
      </trkpt>
      <trkpt lat="47.41707" lon="6.79596">
        <ele>442</ele>
        <time>2016-10-09T09:44:52.000Z</time>
      </trkpt>
      <trkpt lat="47.41707" lon="6.7959">
        <ele>441</ele>
        <time>2016-10-09T09:45:07.000Z</time>
      </trkpt>
      <trkpt lat="47.41708" lon="6.7959">
        <ele>441</ele>
        <time>2016-10-09T09:45:08.000Z</time>
      </trkpt>
      <trkpt lat="47.41711" lon="6.79585">
        <ele>441</ele>
        <time>2016-10-09T09:45:18.000Z</time>
      </trkpt>
      <trkpt lat="47.41712" lon="6.79585">
        <ele>441</ele>
        <time>2016-10-09T09:45:19.000Z</time>
      </trkpt>
      <trkpt lat="47.41711" lon="6.79579">
        <ele>432</ele>
        <time>2016-10-09T09:45:35.000Z</time>
      </trkpt>
      <trkpt lat="47.41711" lon="6.79579">
        <ele>432</ele>
        <time>2016-10-09T09:45:36.000Z</time>
      </trkpt>
      <trkpt lat="47.41707" lon="6.79576">
        <ele>432</ele>
        <time>2016-10-09T09:46:47.000Z</time>
      </trkpt>
      <trkpt lat="47.41706" lon="6.79576">
        <ele>432</ele>
        <time>2016-10-09T09:46:48.000Z</time>
      </trkpt>
      <trkpt lat="47.41708" lon="6.79571">
        <ele>432</ele>
        <time>2016-10-09T09:47:13.000Z</time>
      </trkpt>
      <trkpt lat="47.41709" lon="6.7957">
        <ele>432</ele>
        <time>2016-10-09T09:47:14.000Z</time>
      </trkpt>
      <trkpt lat="47.41713" lon="6.79566">
        <ele>431</ele>
        <time>2016-10-09T09:47:17.000Z</time>
      </trkpt>
      <trkpt lat="47.41713" lon="6.79565">
        <ele>431</ele>
        <time>2016-10-09T09:47:18.000Z</time>
      </trkpt>
      <trkpt lat="47.41715" lon="6.79561">
        <ele>431</ele>
        <time>2016-10-09T09:47:20.000Z</time>
      </trkpt>
      <trkpt lat="47.41715" lon="6.79558">
        <ele>431</ele>
        <time>2016-10-09T09:47:21.000Z</time>
      </trkpt>
      <trkpt lat="47.41716" lon="6.79549">
        <ele>430</ele>
        <time>2016-10-09T09:47:22.000Z</time>
      </trkpt>
      <trkpt lat="47.41719" lon="6.79544">
        <ele>429</ele>
        <time>2016-10-09T09:47:24.000Z</time>
      </trkpt>
      <trkpt lat="47.41718" lon="6.79542">
        <ele>429</ele>
        <time>2016-10-09T09:47:25.000Z</time>
      </trkpt>
      <trkpt lat="47.41719" lon="6.79536">
        <ele>428</ele>
        <time>2016-10-09T09:47:28.000Z</time>
      </trkpt>
      <trkpt lat="47.41718" lon="6.79534">
        <ele>428</ele>
        <time>2016-10-09T09:47:29.000Z</time>
      </trkpt>
      <trkpt lat="47.41719" lon="6.79529">
        <ele>428</ele>
        <time>2016-10-09T09:47:30.000Z</time>
      </trkpt>
      <trkpt lat="47.41719" lon="6.79526">
        <ele>427</ele>
        <time>2016-10-09T09:47:31.000Z</time>
      </trkpt>
      <trkpt lat="47.4172" lon="6.7952">
        <ele>427</ele>
        <time>2016-10-09T09:47:33.000Z</time>
      </trkpt>
      <trkpt lat="47.4172" lon="6.79517">
        <ele>427</ele>
        <time>2016-10-09T09:47:34.000Z</time>
      </trkpt>
      <trkpt lat="47.41722" lon="6.79512">
        <ele>426</ele>
        <time>2016-10-09T09:47:36.000Z</time>
      </trkpt>
      <trkpt lat="47.41723" lon="6.79509">
        <ele>426</ele>
        <time>2016-10-09T09:47:37.000Z</time>
      </trkpt>
      <trkpt lat="47.41725" lon="6.79505">
        <ele>425</ele>
        <time>2016-10-09T09:47:39.000Z</time>
      </trkpt>
      <trkpt lat="47.41726" lon="6.79502">
        <ele>425</ele>
        <time>2016-10-09T09:47:40.000Z</time>
      </trkpt>
      <trkpt lat="47.41728" lon="6.795">
        <ele>424</ele>
        <time>2016-10-09T09:47:41.000Z</time>
      </trkpt>
      <trkpt lat="47.4173" lon="6.79498">
        <ele>418</ele>
        <time>2016-10-09T09:47:42.000Z</time>
      </trkpt>
      <trkpt lat="47.41732" lon="6.79496">
        <ele>418</ele>
        <time>2016-10-09T09:47:43.000Z</time>
      </trkpt>
      <trkpt lat="47.41733" lon="6.79493">
        <ele>417</ele>
        <time>2016-10-09T09:47:44.000Z</time>
      </trkpt>
      <trkpt lat="47.41736" lon="6.79489">
        <ele>417</ele>
        <time>2016-10-09T09:47:45.000Z</time>
      </trkpt>
      <trkpt lat="47.41737" lon="6.79484">
        <ele>417</ele>
        <time>2016-10-09T09:47:46.000Z</time>
      </trkpt>
      <trkpt lat="47.41739" lon="6.79478">
        <ele>417</ele>
        <time>2016-10-09T09:47:47.000Z</time>
      </trkpt>
      <trkpt lat="47.41741" lon="6.79472">
        <ele>416</ele>
        <time>2016-10-09T09:47:48.000Z</time>
      </trkpt>
      <trkpt lat="47.41742" lon="6.79466">
        <ele>416</ele>
        <time>2016-10-09T09:47:49.000Z</time>
      </trkpt>
      <trkpt lat="47.41743" lon="6.79461">
        <ele>415</ele>
        <time>2016-10-09T09:47:50.000Z</time>
      </trkpt>
      <trkpt lat="47.41744" lon="6.79457">
        <ele>414</ele>
        <time>2016-10-09T09:47:51.000Z</time>
      </trkpt>
      <trkpt lat="47.41746" lon="6.79453">
        <ele>414</ele>
        <time>2016-10-09T09:47:52.000Z</time>
      </trkpt>
      <trkpt lat="47.41748" lon="6.79448">
        <ele>412</ele>
        <time>2016-10-09T09:47:54.000Z</time>
      </trkpt>
      <trkpt lat="47.41748" lon="6.79446">
        <ele>412</ele>
        <time>2016-10-09T09:47:55.000Z</time>
      </trkpt>
      <trkpt lat="47.41749" lon="6.79439">
        <ele>410</ele>
        <time>2016-10-09T09:47:58.000Z</time>
      </trkpt>
      <trkpt lat="47.4175" lon="6.79438">
        <ele>410</ele>
        <time>2016-10-09T09:47:59.000Z</time>
      </trkpt>
      <trkpt lat="47.41751" lon="6.79432">
        <ele>409</ele>
        <time>2016-10-09T09:48:21.000Z</time>
      </trkpt>
      <trkpt lat="47.4175" lon="6.79431">
        <ele>408</ele>
        <time>2016-10-09T09:48:22.000Z</time>
      </trkpt>
      <trkpt lat="47.41747" lon="6.79428">
        <ele>406</ele>
        <time>2016-10-09T09:48:26.000Z</time>
      </trkpt>
      <trkpt lat="47.41747" lon="6.79426">
        <ele>405</ele>
        <time>2016-10-09T09:48:27.000Z</time>
      </trkpt>
      <trkpt lat="47.41749" lon="6.79421">
        <ele>402</ele>
        <time>2016-10-09T09:48:41.000Z</time>
      </trkpt>
      <trkpt lat="47.41748" lon="6.79419">
        <ele>401</ele>
        <time>2016-10-09T09:48:42.000Z</time>
      </trkpt>
      <trkpt lat="47.41746" lon="6.79413">
        <ele>401</ele>
        <time>2016-10-09T09:48:44.000Z</time>
      </trkpt>
      <trkpt lat="47.41745" lon="6.79408">
        <ele>402</ele>
        <time>2016-10-09T09:48:45.000Z</time>
      </trkpt>
      <trkpt lat="47.41745" lon="6.79402">
        <ele>403</ele>
        <time>2016-10-09T09:48:46.000Z</time>
      </trkpt>
      <trkpt lat="47.41745" lon="6.79395">
        <ele>404</ele>
        <time>2016-10-09T09:48:47.000Z</time>
      </trkpt>
      <trkpt lat="47.41746" lon="6.79389">
        <ele>404</ele>
        <time>2016-10-09T09:48:48.000Z</time>
      </trkpt>
      <trkpt lat="47.41748" lon="6.79384">
        <ele>404</ele>
        <time>2016-10-09T09:48:49.000Z</time>
      </trkpt>
      <trkpt lat="47.41749" lon="6.79378">
        <ele>404</ele>
        <time>2016-10-09T09:48:50.000Z</time>
      </trkpt>
      <trkpt lat="47.41749" lon="6.79373">
        <ele>403</ele>
        <time>2016-10-09T09:48:51.000Z</time>
      </trkpt>
      <trkpt lat="47.41748" lon="6.79367">
        <ele>403</ele>
        <time>2016-10-09T09:48:52.000Z</time>
      </trkpt>
      <trkpt lat="47.41748" lon="6.7936">
        <ele>401</ele>
        <time>2016-10-09T09:48:53.000Z</time>
      </trkpt>
      <trkpt lat="47.41749" lon="6.79334">
        <ele>390</ele>
        <time>2016-10-09T09:48:54.000Z</time>
      </trkpt>
      <trkpt lat="47.41748" lon="6.79324">
        <ele>392</ele>
        <time>2016-10-09T09:48:55.000Z</time>
      </trkpt>
      <trkpt lat="47.41745" lon="6.79314">
        <ele>393</ele>
        <time>2016-10-09T09:48:56.000Z</time>
      </trkpt>
      <trkpt lat="47.41747" lon="6.79305">
        <ele>393</ele>
        <time>2016-10-09T09:48:57.000Z</time>
      </trkpt>
      <trkpt lat="47.41747" lon="6.79302">
        <ele>393</ele>
        <time>2016-10-09T09:48:58.000Z</time>
      </trkpt>
      <trkpt lat="47.4175" lon="6.79292">
        <ele>384</ele>
        <time>2016-10-09T09:48:59.000Z</time>
      </trkpt>
      <trkpt lat="47.41755" lon="6.7928">
        <ele>383</ele>
        <time>2016-10-09T09:49:00.000Z</time>
      </trkpt>
      <trkpt lat="47.41758" lon="6.79269">
        <ele>382</ele>
        <time>2016-10-09T09:49:01.000Z</time>
      </trkpt>
      <trkpt lat="47.41758" lon="6.79263">
        <ele>381</ele>
        <time>2016-10-09T09:49:02.000Z</time>
      </trkpt>
      <trkpt lat="47.4176" lon="6.79253">
        <ele>380</ele>
        <time>2016-10-09T09:49:03.000Z</time>
      </trkpt>
      <trkpt lat="47.41766" lon="6.79245">
        <ele>373</ele>
        <time>2016-10-09T09:49:04.000Z</time>
      </trkpt>
      <trkpt lat="47.4177" lon="6.79236">
        <ele>371</ele>
        <time>2016-10-09T09:49:05.000Z</time>
      </trkpt>
      <trkpt lat="47.41772" lon="6.7923">
        <ele>370</ele>
        <time>2016-10-09T09:49:06.000Z</time>
      </trkpt>
      <trkpt lat="47.41775" lon="6.79224">
        <ele>369</ele>
        <time>2016-10-09T09:49:07.000Z</time>
      </trkpt>
      <trkpt lat="47.41786" lon="6.79209">
        <ele>367</ele>
        <time>2016-10-09T09:49:08.000Z</time>
      </trkpt>
      <trkpt lat="47.41794" lon="6.79199">
        <ele>366</ele>
        <time>2016-10-09T09:49:09.000Z</time>
      </trkpt>
      <trkpt lat="47.41806" lon="6.79181">
        <ele>363</ele>
        <time>2016-10-09T09:49:10.000Z</time>
      </trkpt>
      <trkpt lat="47.41814" lon="6.79179">
        <ele>361</ele>
        <time>2016-10-09T09:49:11.000Z</time>
      </trkpt>
      <trkpt lat="47.4182" lon="6.79174">
        <ele>359</ele>
        <time>2016-10-09T09:49:12.000Z</time>
      </trkpt>
      <trkpt lat="47.41819" lon="6.7916">
        <ele>353</ele>
        <time>2016-10-09T09:49:13.000Z</time>
      </trkpt>
      <trkpt lat="47.41822" lon="6.79158">
        <ele>353</ele>
        <time>2016-10-09T09:49:14.000Z</time>
      </trkpt>
      <trkpt lat="47.41825" lon="6.79156">
        <ele>353</ele>
        <time>2016-10-09T09:49:15.000Z</time>
      </trkpt>
      <trkpt lat="47.41822" lon="6.79157">
        <ele>353</ele>
        <time>2016-10-09T09:49:16.000Z</time>
      </trkpt>
      <trkpt lat="47.41826" lon="6.79165">
        <ele>353</ele>
        <time>2016-10-09T09:49:17.000Z</time>
      </trkpt>
      <trkpt lat="47.41826" lon="6.79169">
        <ele>357</ele>
        <time>2016-10-09T09:49:19.000Z</time>
      </trkpt>
      <trkpt lat="47.41827" lon="6.79171">
        <ele>357</ele>
        <time>2016-10-09T09:49:20.000Z</time>
      </trkpt>
      <trkpt lat="47.41831" lon="6.7917">
        <ele>355</ele>
        <time>2016-10-09T09:49:49.000Z</time>
      </trkpt>
      <trkpt lat="47.41832" lon="6.7917">
        <ele>355</ele>
        <time>2016-10-09T09:49:50.000Z</time>
      </trkpt>
      <trkpt lat="47.41835" lon="6.7917">
        <ele>355</ele>
        <time>2016-10-09T09:49:52.000Z</time>
      </trkpt>
      <trkpt lat="47.41837" lon="6.79171">
        <ele>355</ele>
        <time>2016-10-09T09:49:53.000Z</time>
      </trkpt>
      <trkpt lat="47.41839" lon="6.79171">
        <ele>356</ele>
        <time>2016-10-09T09:49:54.000Z</time>
      </trkpt>
      <trkpt lat="47.41842" lon="6.79171">
        <ele>357</ele>
        <time>2016-10-09T09:49:55.000Z</time>
      </trkpt>
      <trkpt lat="47.41846" lon="6.7917">
        <ele>358</ele>
        <time>2016-10-09T09:49:56.000Z</time>
      </trkpt>
      <trkpt lat="47.41851" lon="6.79168">
        <ele>358</ele>
        <time>2016-10-09T09:49:57.000Z</time>
      </trkpt>
      <trkpt lat="47.41861" lon="6.79161">
        <ele>350</ele>
        <time>2016-10-09T09:49:58.000Z</time>
      </trkpt>
      <trkpt lat="47.41866" lon="6.7916">
        <ele>350</ele>
        <time>2016-10-09T09:49:59.000Z</time>
      </trkpt>
      <trkpt lat="47.41871" lon="6.79158">
        <ele>350</ele>
        <time>2016-10-09T09:50:00.000Z</time>
      </trkpt>
      <trkpt lat="47.41876" lon="6.79156">
        <ele>349</ele>
        <time>2016-10-09T09:50:01.000Z</time>
      </trkpt>
      <trkpt lat="47.4188" lon="6.79154">
        <ele>349</ele>
        <time>2016-10-09T09:50:02.000Z</time>
      </trkpt>
      <trkpt lat="47.41885" lon="6.79152">
        <ele>349</ele>
        <time>2016-10-09T09:50:03.000Z</time>
      </trkpt>
      <trkpt lat="47.4189" lon="6.79152">
        <ele>349</ele>
        <time>2016-10-09T09:50:04.000Z</time>
      </trkpt>
      <trkpt lat="47.41895" lon="6.79151">
        <ele>349</ele>
        <time>2016-10-09T09:50:05.000Z</time>
      </trkpt>
      <trkpt lat="47.41898" lon="6.7915">
        <ele>349</ele>
        <time>2016-10-09T09:50:06.000Z</time>
      </trkpt>
      <trkpt lat="47.41902" lon="6.79148">
        <ele>349</ele>
        <time>2016-10-09T09:50:07.000Z</time>
      </trkpt>
      <trkpt lat="47.41906" lon="6.79146">
        <ele>349</ele>
        <time>2016-10-09T09:50:08.000Z</time>
      </trkpt>
      <trkpt lat="47.4191" lon="6.79146">
        <ele>349</ele>
        <time>2016-10-09T09:50:09.000Z</time>
      </trkpt>
      <trkpt lat="47.41913" lon="6.79145">
        <ele>349</ele>
        <time>2016-10-09T09:50:10.000Z</time>
      </trkpt>
      <trkpt lat="47.41916" lon="6.79142">
        <ele>349</ele>
        <time>2016-10-09T09:50:11.000Z</time>
      </trkpt>
      <trkpt lat="47.41919" lon="6.79142">
        <ele>348</ele>
        <time>2016-10-09T09:50:12.000Z</time>
      </trkpt>
      <trkpt lat="47.41923" lon="6.7914">
        <ele>348</ele>
        <time>2016-10-09T09:50:13.000Z</time>
      </trkpt>
      <trkpt lat="47.41927" lon="6.79138">
        <ele>348</ele>
        <time>2016-10-09T09:50:14.000Z</time>
      </trkpt>
      <trkpt lat="47.4193" lon="6.79137">
        <ele>348</ele>
        <time>2016-10-09T09:50:15.000Z</time>
      </trkpt>
      <trkpt lat="47.41935" lon="6.79136">
        <ele>348</ele>
        <time>2016-10-09T09:50:16.000Z</time>
      </trkpt>
      <trkpt lat="47.41939" lon="6.79135">
        <ele>348</ele>
        <time>2016-10-09T09:50:17.000Z</time>
      </trkpt>
      <trkpt lat="47.41943" lon="6.79134">
        <ele>347</ele>
        <time>2016-10-09T09:50:18.000Z</time>
      </trkpt>
      <trkpt lat="47.41948" lon="6.79134">
        <ele>347</ele>
        <time>2016-10-09T09:50:19.000Z</time>
      </trkpt>
      <trkpt lat="47.41952" lon="6.79134">
        <ele>347</ele>
        <time>2016-10-09T09:50:20.000Z</time>
      </trkpt>
      <trkpt lat="47.41956" lon="6.79134">
        <ele>347</ele>
        <time>2016-10-09T09:50:21.000Z</time>
      </trkpt>
      <trkpt lat="47.41959" lon="6.79134">
        <ele>347</ele>
        <time>2016-10-09T09:50:22.000Z</time>
      </trkpt>
      <trkpt lat="47.41963" lon="6.79134">
        <ele>347</ele>
        <time>2016-10-09T09:50:23.000Z</time>
      </trkpt>
      <trkpt lat="47.41967" lon="6.79134">
        <ele>348</ele>
        <time>2016-10-09T09:50:24.000Z</time>
      </trkpt>
      <trkpt lat="47.41971" lon="6.79134">
        <ele>348</ele>
        <time>2016-10-09T09:50:25.000Z</time>
      </trkpt>
      <trkpt lat="47.41977" lon="6.79132">
        <ele>347</ele>
        <time>2016-10-09T09:50:26.000Z</time>
      </trkpt>
      <trkpt lat="47.41982" lon="6.7913">
        <ele>347</ele>
        <time>2016-10-09T09:50:27.000Z</time>
      </trkpt>
      <trkpt lat="47.41986" lon="6.79129">
        <ele>347</ele>
        <time>2016-10-09T09:50:28.000Z</time>
      </trkpt>
      <trkpt lat="47.41991" lon="6.79129">
        <ele>347</ele>
        <time>2016-10-09T09:50:29.000Z</time>
      </trkpt>
      <trkpt lat="47.41995" lon="6.79125">
        <ele>347</ele>
        <time>2016-10-09T09:50:30.000Z</time>
      </trkpt>
      <trkpt lat="47.42" lon="6.79123">
        <ele>347</ele>
        <time>2016-10-09T09:50:31.000Z</time>
      </trkpt>
      <trkpt lat="47.42004" lon="6.7912">
        <ele>347</ele>
        <time>2016-10-09T09:50:32.000Z</time>
      </trkpt>
      <trkpt lat="47.42008" lon="6.79118">
        <ele>347</ele>
        <time>2016-10-09T09:50:33.000Z</time>
      </trkpt>
      <trkpt lat="47.42014" lon="6.79119">
        <ele>347</ele>
        <time>2016-10-09T09:50:34.000Z</time>
      </trkpt>
      <trkpt lat="47.42019" lon="6.79118">
        <ele>347</ele>
        <time>2016-10-09T09:50:35.000Z</time>
      </trkpt>
      <trkpt lat="47.42023" lon="6.79117">
        <ele>347</ele>
        <time>2016-10-09T09:50:36.000Z</time>
      </trkpt>
      <trkpt lat="47.42028" lon="6.79117">
        <ele>347</ele>
        <time>2016-10-09T09:50:37.000Z</time>
      </trkpt>
      <trkpt lat="47.42032" lon="6.79116">
        <ele>347</ele>
        <time>2016-10-09T09:50:38.000Z</time>
      </trkpt>
      <trkpt lat="47.42036" lon="6.79116">
        <ele>347</ele>
        <time>2016-10-09T09:50:39.000Z</time>
      </trkpt>
      <trkpt lat="47.4204" lon="6.79116">
        <ele>347</ele>
        <time>2016-10-09T09:50:40.000Z</time>
      </trkpt>
      <trkpt lat="47.42044" lon="6.79116">
        <ele>347</ele>
        <time>2016-10-09T09:50:41.000Z</time>
      </trkpt>
      <trkpt lat="47.42049" lon="6.7912">
        <ele>348</ele>
        <time>2016-10-09T09:50:42.000Z</time>
      </trkpt>
      <trkpt lat="47.42053" lon="6.79119">
        <ele>348</ele>
        <time>2016-10-09T09:50:43.000Z</time>
      </trkpt>
      <trkpt lat="47.42057" lon="6.79119">
        <ele>348</ele>
        <time>2016-10-09T09:50:44.000Z</time>
      </trkpt>
      <trkpt lat="47.4206" lon="6.7912">
        <ele>348</ele>
        <time>2016-10-09T09:50:46.000Z</time>
      </trkpt>
      <trkpt lat="47.42062" lon="6.7912">
        <ele>348</ele>
        <time>2016-10-09T09:50:47.000Z</time>
      </trkpt>
      <trkpt lat="47.42064" lon="6.79119">
        <ele>348</ele>
        <time>2016-10-09T09:50:48.000Z</time>
      </trkpt>
      <trkpt lat="47.42067" lon="6.79119">
        <ele>348</ele>
        <time>2016-10-09T09:50:49.000Z</time>
      </trkpt>
      <trkpt lat="47.42071" lon="6.79121">
        <ele>348</ele>
        <time>2016-10-09T09:50:50.000Z</time>
      </trkpt>
      <trkpt lat="47.42075" lon="6.79121">
        <ele>348</ele>
        <time>2016-10-09T09:50:51.000Z</time>
      </trkpt>
      <trkpt lat="47.42079" lon="6.79121">
        <ele>348</ele>
        <time>2016-10-09T09:50:52.000Z</time>
      </trkpt>
      <trkpt lat="47.42083" lon="6.79121">
        <ele>348</ele>
        <time>2016-10-09T09:50:53.000Z</time>
      </trkpt>
      <trkpt lat="47.42087" lon="6.7912">
        <ele>347</ele>
        <time>2016-10-09T09:50:54.000Z</time>
      </trkpt>
      <trkpt lat="47.42091" lon="6.7912">
        <ele>347</ele>
        <time>2016-10-09T09:50:55.000Z</time>
      </trkpt>
      <trkpt lat="47.42096" lon="6.79119">
        <ele>347</ele>
        <time>2016-10-09T09:50:56.000Z</time>
      </trkpt>
      <trkpt lat="47.42102" lon="6.79119">
        <ele>347</ele>
        <time>2016-10-09T09:50:57.000Z</time>
      </trkpt>
      <trkpt lat="47.42107" lon="6.79118">
        <ele>347</ele>
        <time>2016-10-09T09:50:58.000Z</time>
      </trkpt>
      <trkpt lat="47.42112" lon="6.79118">
        <ele>347</ele>
        <time>2016-10-09T09:50:59.000Z</time>
      </trkpt>
      <trkpt lat="47.42116" lon="6.79118">
        <ele>347</ele>
        <time>2016-10-09T09:51:00.000Z</time>
      </trkpt>
      <trkpt lat="47.42121" lon="6.79118">
        <ele>347</ele>
        <time>2016-10-09T09:51:01.000Z</time>
      </trkpt>
      <trkpt lat="47.42132" lon="6.79121">
        <ele>347</ele>
        <time>2016-10-09T09:51:02.000Z</time>
      </trkpt>
      <trkpt lat="47.42139" lon="6.79123">
        <ele>347</ele>
        <time>2016-10-09T09:51:03.000Z</time>
      </trkpt>
      <trkpt lat="47.42144" lon="6.79125">
        <ele>347</ele>
        <time>2016-10-09T09:51:04.000Z</time>
      </trkpt>
      <trkpt lat="47.42148" lon="6.79128">
        <ele>347</ele>
        <time>2016-10-09T09:51:05.000Z</time>
      </trkpt>
      <trkpt lat="47.42154" lon="6.79129">
        <ele>347</ele>
        <time>2016-10-09T09:51:06.000Z</time>
      </trkpt>
      <trkpt lat="47.4216" lon="6.7913">
        <ele>348</ele>
        <time>2016-10-09T09:51:07.000Z</time>
      </trkpt>
      <trkpt lat="47.42165" lon="6.79132">
        <ele>348</ele>
        <time>2016-10-09T09:51:08.000Z</time>
      </trkpt>
      <trkpt lat="47.42171" lon="6.79139">
        <ele>346</ele>
        <time>2016-10-09T09:51:09.000Z</time>
      </trkpt>
      <trkpt lat="47.42176" lon="6.79139">
        <ele>346</ele>
        <time>2016-10-09T09:51:10.000Z</time>
      </trkpt>
      <trkpt lat="47.42181" lon="6.79145">
        <ele>346</ele>
        <time>2016-10-09T09:51:11.000Z</time>
      </trkpt>
      <trkpt lat="47.42185" lon="6.79148">
        <ele>346</ele>
        <time>2016-10-09T09:51:12.000Z</time>
      </trkpt>
      <trkpt lat="47.42188" lon="6.7915">
        <ele>346</ele>
        <time>2016-10-09T09:51:13.000Z</time>
      </trkpt>
      <trkpt lat="47.42191" lon="6.79153">
        <ele>346</ele>
        <time>2016-10-09T09:51:14.000Z</time>
      </trkpt>
      <trkpt lat="47.42194" lon="6.79155">
        <ele>346</ele>
        <time>2016-10-09T09:51:15.000Z</time>
      </trkpt>
      <trkpt lat="47.42197" lon="6.79157">
        <ele>345</ele>
        <time>2016-10-09T09:51:16.000Z</time>
      </trkpt>
      <trkpt lat="47.42201" lon="6.7916">
        <ele>345</ele>
        <time>2016-10-09T09:51:17.000Z</time>
      </trkpt>
      <trkpt lat="47.42204" lon="6.79163">
        <ele>345</ele>
        <time>2016-10-09T09:51:18.000Z</time>
      </trkpt>
      <trkpt lat="47.42208" lon="6.79165">
        <ele>345</ele>
        <time>2016-10-09T09:51:19.000Z</time>
      </trkpt>
      <trkpt lat="47.42212" lon="6.79168">
        <ele>357</ele>
        <time>2016-10-09T09:51:20.000Z</time>
      </trkpt>
      <trkpt lat="47.42217" lon="6.7917">
        <ele>357</ele>
        <time>2016-10-09T09:51:21.000Z</time>
      </trkpt>
      <trkpt lat="47.42221" lon="6.79172">
        <ele>356</ele>
        <time>2016-10-09T09:51:22.000Z</time>
      </trkpt>
      <trkpt lat="47.42226" lon="6.79174">
        <ele>355</ele>
        <time>2016-10-09T09:51:23.000Z</time>
      </trkpt>
      <trkpt lat="47.4223" lon="6.79176">
        <ele>355</ele>
        <time>2016-10-09T09:51:24.000Z</time>
      </trkpt>
      <trkpt lat="47.42235" lon="6.79178">
        <ele>354</ele>
        <time>2016-10-09T09:51:25.000Z</time>
      </trkpt>
      <trkpt lat="47.42239" lon="6.7918">
        <ele>353</ele>
        <time>2016-10-09T09:51:26.000Z</time>
      </trkpt>
      <trkpt lat="47.42242" lon="6.79181">
        <ele>353</ele>
        <time>2016-10-09T09:51:27.000Z</time>
      </trkpt>
      <trkpt lat="47.42246" lon="6.79182">
        <ele>353</ele>
        <time>2016-10-09T09:51:28.000Z</time>
      </trkpt>
      <trkpt lat="47.4225" lon="6.79184">
        <ele>353</ele>
        <time>2016-10-09T09:51:29.000Z</time>
      </trkpt>
      <trkpt lat="47.42253" lon="6.79185">
        <ele>351</ele>
        <time>2016-10-09T09:51:30.000Z</time>
      </trkpt>
      <trkpt lat="47.42256" lon="6.79186">
        <ele>351</ele>
        <time>2016-10-09T09:51:31.000Z</time>
      </trkpt>
      <trkpt lat="47.42259" lon="6.79186">
        <ele>352</ele>
        <time>2016-10-09T09:51:32.000Z</time>
      </trkpt>
      <trkpt lat="47.42261" lon="6.79187">
        <ele>352</ele>
        <time>2016-10-09T09:51:33.000Z</time>
      </trkpt>
      <trkpt lat="47.42264" lon="6.79187">
        <ele>352</ele>
        <time>2016-10-09T09:51:34.000Z</time>
      </trkpt>
      <trkpt lat="47.42266" lon="6.79187">
        <ele>353</ele>
        <time>2016-10-09T09:51:35.000Z</time>
      </trkpt>
      <trkpt lat="47.42269" lon="6.79187">
        <ele>353</ele>
        <time>2016-10-09T09:51:36.000Z</time>
      </trkpt>
      <trkpt lat="47.42272" lon="6.79187">
        <ele>353</ele>
        <time>2016-10-09T09:51:37.000Z</time>
      </trkpt>
      <trkpt lat="47.42274" lon="6.79188">
        <ele>354</ele>
        <time>2016-10-09T09:51:38.000Z</time>
      </trkpt>
      <trkpt lat="47.42277" lon="6.79189">
        <ele>354</ele>
        <time>2016-10-09T09:51:39.000Z</time>
      </trkpt>
      <trkpt lat="47.4228" lon="6.79189">
        <ele>354</ele>
        <time>2016-10-09T09:51:40.000Z</time>
      </trkpt>
      <trkpt lat="47.42283" lon="6.79189">
        <ele>355</ele>
        <time>2016-10-09T09:51:41.000Z</time>
      </trkpt>
      <trkpt lat="47.42286" lon="6.79189">
        <ele>355</ele>
        <time>2016-10-09T09:51:42.000Z</time>
      </trkpt>
      <trkpt lat="47.42288" lon="6.7919">
        <ele>355</ele>
        <time>2016-10-09T09:51:43.000Z</time>
      </trkpt>
      <trkpt lat="47.4229" lon="6.7919">
        <ele>355</ele>
        <time>2016-10-09T09:51:44.000Z</time>
      </trkpt>
      <trkpt lat="47.42293" lon="6.79192">
        <ele>355</ele>
        <time>2016-10-09T09:51:45.000Z</time>
      </trkpt>
      <trkpt lat="47.42296" lon="6.79193">
        <ele>356</ele>
        <time>2016-10-09T09:51:46.000Z</time>
      </trkpt>
      <trkpt lat="47.42298" lon="6.79194">
        <ele>356</ele>
        <time>2016-10-09T09:51:47.000Z</time>
      </trkpt>
      <trkpt lat="47.42301" lon="6.79196">
        <ele>356</ele>
        <time>2016-10-09T09:51:48.000Z</time>
      </trkpt>
      <trkpt lat="47.42305" lon="6.79197">
        <ele>356</ele>
        <time>2016-10-09T09:51:50.000Z</time>
      </trkpt>
      <trkpt lat="47.42307" lon="6.79197">
        <ele>356</ele>
        <time>2016-10-09T09:51:51.000Z</time>
      </trkpt>
      <trkpt lat="47.4231" lon="6.79197">
        <ele>356</ele>
        <time>2016-10-09T09:51:52.000Z</time>
      </trkpt>
      <trkpt lat="47.42312" lon="6.79198">
        <ele>356</ele>
        <time>2016-10-09T09:51:53.000Z</time>
      </trkpt>
      <trkpt lat="47.42315" lon="6.79198">
        <ele>356</ele>
        <time>2016-10-09T09:51:54.000Z</time>
      </trkpt>
      <trkpt lat="47.42318" lon="6.79198">
        <ele>356</ele>
        <time>2016-10-09T09:51:55.000Z</time>
      </trkpt>
      <trkpt lat="47.42321" lon="6.79199">
        <ele>356</ele>
        <time>2016-10-09T09:51:56.000Z</time>
      </trkpt>
      <trkpt lat="47.42325" lon="6.79199">
        <ele>356</ele>
        <time>2016-10-09T09:51:57.000Z</time>
      </trkpt>
      <trkpt lat="47.42328" lon="6.792">
        <ele>356</ele>
        <time>2016-10-09T09:51:58.000Z</time>
      </trkpt>
      <trkpt lat="47.42331" lon="6.792">
        <ele>356</ele>
        <time>2016-10-09T09:51:59.000Z</time>
      </trkpt>
      <trkpt lat="47.42335" lon="6.792">
        <ele>355</ele>
        <time>2016-10-09T09:52:00.000Z</time>
      </trkpt>
      <trkpt lat="47.42338" lon="6.79201">
        <ele>355</ele>
        <time>2016-10-09T09:52:01.000Z</time>
      </trkpt>
      <trkpt lat="47.42341" lon="6.79202">
        <ele>355</ele>
        <time>2016-10-09T09:52:02.000Z</time>
      </trkpt>
      <trkpt lat="47.42344" lon="6.79204">
        <ele>356</ele>
        <time>2016-10-09T09:52:03.000Z</time>
      </trkpt>
      <trkpt lat="47.42348" lon="6.79205">
        <ele>356</ele>
        <time>2016-10-09T09:52:04.000Z</time>
      </trkpt>
      <trkpt lat="47.42351" lon="6.79207">
        <ele>356</ele>
        <time>2016-10-09T09:52:05.000Z</time>
      </trkpt>
      <trkpt lat="47.42353" lon="6.79209">
        <ele>356</ele>
        <time>2016-10-09T09:52:06.000Z</time>
      </trkpt>
      <trkpt lat="47.42356" lon="6.7921">
        <ele>356</ele>
        <time>2016-10-09T09:52:07.000Z</time>
      </trkpt>
      <trkpt lat="47.42358" lon="6.79211">
        <ele>357</ele>
        <time>2016-10-09T09:52:08.000Z</time>
      </trkpt>
      <trkpt lat="47.4236" lon="6.79212">
        <ele>357</ele>
        <time>2016-10-09T09:52:09.000Z</time>
      </trkpt>
      <trkpt lat="47.42362" lon="6.79213">
        <ele>357</ele>
        <time>2016-10-09T09:52:10.000Z</time>
      </trkpt>
      <trkpt lat="47.42365" lon="6.79214">
        <ele>357</ele>
        <time>2016-10-09T09:52:11.000Z</time>
      </trkpt>
      <trkpt lat="47.42368" lon="6.79215">
        <ele>357</ele>
        <time>2016-10-09T09:52:12.000Z</time>
      </trkpt>
      <trkpt lat="47.42372" lon="6.79215">
        <ele>357</ele>
        <time>2016-10-09T09:52:13.000Z</time>
      </trkpt>
      <trkpt lat="47.42375" lon="6.79216">
        <ele>357</ele>
        <time>2016-10-09T09:52:14.000Z</time>
      </trkpt>
      <trkpt lat="47.42378" lon="6.79217">
        <ele>357</ele>
        <time>2016-10-09T09:52:15.000Z</time>
      </trkpt>
      <trkpt lat="47.42382" lon="6.79219">
        <ele>357</ele>
        <time>2016-10-09T09:52:16.000Z</time>
      </trkpt>
      <trkpt lat="47.42384" lon="6.7922">
        <ele>357</ele>
        <time>2016-10-09T09:52:17.000Z</time>
      </trkpt>
      <trkpt lat="47.42387" lon="6.79221">
        <ele>357</ele>
        <time>2016-10-09T09:52:18.000Z</time>
      </trkpt>
      <trkpt lat="47.42389" lon="6.79222">
        <ele>357</ele>
        <time>2016-10-09T09:52:19.000Z</time>
      </trkpt>
      <trkpt lat="47.42392" lon="6.79223">
        <ele>357</ele>
        <time>2016-10-09T09:52:20.000Z</time>
      </trkpt>
      <trkpt lat="47.42395" lon="6.79224">
        <ele>357</ele>
        <time>2016-10-09T09:52:21.000Z</time>
      </trkpt>
      <trkpt lat="47.42397" lon="6.79224">
        <ele>357</ele>
        <time>2016-10-09T09:52:22.000Z</time>
      </trkpt>
      <trkpt lat="47.424" lon="6.79224">
        <ele>357</ele>
        <time>2016-10-09T09:52:23.000Z</time>
      </trkpt>
      <trkpt lat="47.42402" lon="6.79223">
        <ele>357</ele>
        <time>2016-10-09T09:52:24.000Z</time>
      </trkpt>
      <trkpt lat="47.42405" lon="6.79222">
        <ele>357</ele>
        <time>2016-10-09T09:52:25.000Z</time>
      </trkpt>
      <trkpt lat="47.42408" lon="6.79222">
        <ele>357</ele>
        <time>2016-10-09T09:52:26.000Z</time>
      </trkpt>
      <trkpt lat="47.42411" lon="6.79221">
        <ele>357</ele>
        <time>2016-10-09T09:52:27.000Z</time>
      </trkpt>
      <trkpt lat="47.42414" lon="6.7922">
        <ele>356</ele>
        <time>2016-10-09T09:52:28.000Z</time>
      </trkpt>
      <trkpt lat="47.42417" lon="6.79218">
        <ele>354</ele>
        <time>2016-10-09T09:52:29.000Z</time>
      </trkpt>
      <trkpt lat="47.42421" lon="6.79217">
        <ele>354</ele>
        <time>2016-10-09T09:52:30.000Z</time>
      </trkpt>
      <trkpt lat="47.42425" lon="6.79216">
        <ele>354</ele>
        <time>2016-10-09T09:52:31.000Z</time>
      </trkpt>
      <trkpt lat="47.42433" lon="6.79216">
        <ele>353</ele>
        <time>2016-10-09T09:52:32.000Z</time>
      </trkpt>
      <trkpt lat="47.42437" lon="6.79214">
        <ele>353</ele>
        <time>2016-10-09T09:52:33.000Z</time>
      </trkpt>
      <trkpt lat="47.42441" lon="6.79213">
        <ele>353</ele>
        <time>2016-10-09T09:52:34.000Z</time>
      </trkpt>
      <trkpt lat="47.42445" lon="6.79212">
        <ele>353</ele>
        <time>2016-10-09T09:52:35.000Z</time>
      </trkpt>
      <trkpt lat="47.4245" lon="6.7921">
        <ele>353</ele>
        <time>2016-10-09T09:52:36.000Z</time>
      </trkpt>
      <trkpt lat="47.42455" lon="6.79209">
        <ele>352</ele>
        <time>2016-10-09T09:52:37.000Z</time>
      </trkpt>
      <trkpt lat="47.42459" lon="6.79209">
        <ele>352</ele>
        <time>2016-10-09T09:52:38.000Z</time>
      </trkpt>
      <trkpt lat="47.42466" lon="6.79208">
        <ele>352</ele>
        <time>2016-10-09T09:52:39.000Z</time>
      </trkpt>
      <trkpt lat="47.4247" lon="6.79207">
        <ele>352</ele>
        <time>2016-10-09T09:52:40.000Z</time>
      </trkpt>
      <trkpt lat="47.42478" lon="6.79209">
        <ele>352</ele>
        <time>2016-10-09T09:52:41.000Z</time>
      </trkpt>
      <trkpt lat="47.42486" lon="6.79211">
        <ele>352</ele>
        <time>2016-10-09T09:52:42.000Z</time>
      </trkpt>
      <trkpt lat="47.42492" lon="6.7921">
        <ele>352</ele>
        <time>2016-10-09T09:52:43.000Z</time>
      </trkpt>
      <trkpt lat="47.42498" lon="6.79207">
        <ele>352</ele>
        <time>2016-10-09T09:52:44.000Z</time>
      </trkpt>
      <trkpt lat="47.42505" lon="6.79206">
        <ele>351</ele>
        <time>2016-10-09T09:52:45.000Z</time>
      </trkpt>
      <trkpt lat="47.42511" lon="6.79204">
        <ele>351</ele>
        <time>2016-10-09T09:52:46.000Z</time>
      </trkpt>
      <trkpt lat="47.42517" lon="6.792">
        <ele>350</ele>
        <time>2016-10-09T09:52:47.000Z</time>
      </trkpt>
      <trkpt lat="47.42522" lon="6.79195">
        <ele>350</ele>
        <time>2016-10-09T09:52:48.000Z</time>
      </trkpt>
      <trkpt lat="47.42528" lon="6.79191">
        <ele>350</ele>
        <time>2016-10-09T09:52:49.000Z</time>
      </trkpt>
      <trkpt lat="47.42536" lon="6.7919">
        <ele>350</ele>
        <time>2016-10-09T09:52:50.000Z</time>
      </trkpt>
      <trkpt lat="47.42543" lon="6.79187">
        <ele>350</ele>
        <time>2016-10-09T09:52:51.000Z</time>
      </trkpt>
      <trkpt lat="47.42549" lon="6.79185">
        <ele>350</ele>
        <time>2016-10-09T09:52:52.000Z</time>
      </trkpt>
      <trkpt lat="47.42555" lon="6.79181">
        <ele>350</ele>
        <time>2016-10-09T09:52:53.000Z</time>
      </trkpt>
      <trkpt lat="47.42561" lon="6.79179">
        <ele>349</ele>
        <time>2016-10-09T09:52:54.000Z</time>
      </trkpt>
      <trkpt lat="47.42566" lon="6.79177">
        <ele>349</ele>
        <time>2016-10-09T09:52:55.000Z</time>
      </trkpt>
      <trkpt lat="47.42572" lon="6.79175">
        <ele>348</ele>
        <time>2016-10-09T09:52:56.000Z</time>
      </trkpt>
      <trkpt lat="47.4258" lon="6.79176">
        <ele>348</ele>
        <time>2016-10-09T09:52:57.000Z</time>
      </trkpt>
      <trkpt lat="47.42584" lon="6.79175">
        <ele>348</ele>
        <time>2016-10-09T09:52:58.000Z</time>
      </trkpt>
      <trkpt lat="47.42589" lon="6.79175">
        <ele>348</ele>
        <time>2016-10-09T09:52:59.000Z</time>
      </trkpt>
      <trkpt lat="47.42594" lon="6.79175">
        <ele>349</ele>
        <time>2016-10-09T09:53:00.000Z</time>
      </trkpt>
      <trkpt lat="47.42599" lon="6.79177">
        <ele>349</ele>
        <time>2016-10-09T09:53:01.000Z</time>
      </trkpt>
      <trkpt lat="47.42604" lon="6.79178">
        <ele>350</ele>
        <time>2016-10-09T09:53:02.000Z</time>
      </trkpt>
      <trkpt lat="47.42608" lon="6.79178">
        <ele>350</ele>
        <time>2016-10-09T09:53:03.000Z</time>
      </trkpt>
      <trkpt lat="47.42613" lon="6.79178">
        <ele>350</ele>
        <time>2016-10-09T09:53:04.000Z</time>
      </trkpt>
      <trkpt lat="47.4262" lon="6.79176">
        <ele>351</ele>
        <time>2016-10-09T09:53:05.000Z</time>
      </trkpt>
      <trkpt lat="47.42627" lon="6.79176">
        <ele>351</ele>
        <time>2016-10-09T09:53:06.000Z</time>
      </trkpt>
      <trkpt lat="47.4263" lon="6.79174">
        <ele>351</ele>
        <time>2016-10-09T09:53:07.000Z</time>
      </trkpt>
      <trkpt lat="47.42636" lon="6.79177">
        <ele>351</ele>
        <time>2016-10-09T09:53:08.000Z</time>
      </trkpt>
      <trkpt lat="47.42641" lon="6.79178">
        <ele>351</ele>
        <time>2016-10-09T09:53:09.000Z</time>
      </trkpt>
      <trkpt lat="47.42646" lon="6.79178">
        <ele>351</ele>
        <time>2016-10-09T09:53:10.000Z</time>
      </trkpt>
      <trkpt lat="47.4265" lon="6.79179">
        <ele>351</ele>
        <time>2016-10-09T09:53:11.000Z</time>
      </trkpt>
      <trkpt lat="47.42655" lon="6.79179">
        <ele>351</ele>
        <time>2016-10-09T09:53:12.000Z</time>
      </trkpt>
      <trkpt lat="47.4266" lon="6.79182">
        <ele>351</ele>
        <time>2016-10-09T09:53:13.000Z</time>
      </trkpt>
      <trkpt lat="47.42664" lon="6.79176">
        <ele>351</ele>
        <time>2016-10-09T09:53:14.000Z</time>
      </trkpt>
      <trkpt lat="47.4267" lon="6.79177">
        <ele>350</ele>
        <time>2016-10-09T09:53:15.000Z</time>
      </trkpt>
      <trkpt lat="47.42678" lon="6.79177">
        <ele>350</ele>
        <time>2016-10-09T09:53:16.000Z</time>
      </trkpt>
      <trkpt lat="47.42682" lon="6.79178">
        <ele>350</ele>
        <time>2016-10-09T09:53:17.000Z</time>
      </trkpt>
      <trkpt lat="47.42685" lon="6.79178">
        <ele>350</ele>
        <time>2016-10-09T09:53:18.000Z</time>
      </trkpt>
      <trkpt lat="47.4269" lon="6.7918">
        <ele>351</ele>
        <time>2016-10-09T09:53:19.000Z</time>
      </trkpt>
      <trkpt lat="47.42693" lon="6.7918">
        <ele>351</ele>
        <time>2016-10-09T09:53:20.000Z</time>
      </trkpt>
      <trkpt lat="47.42696" lon="6.7918">
        <ele>350</ele>
        <time>2016-10-09T09:53:21.000Z</time>
      </trkpt>
      <trkpt lat="47.42699" lon="6.7918">
        <ele>350</ele>
        <time>2016-10-09T09:53:22.000Z</time>
      </trkpt>
      <trkpt lat="47.42702" lon="6.7918">
        <ele>350</ele>
        <time>2016-10-09T09:53:23.000Z</time>
      </trkpt>
      <trkpt lat="47.42704" lon="6.79181">
        <ele>350</ele>
        <time>2016-10-09T09:53:24.000Z</time>
      </trkpt>
      <trkpt lat="47.42707" lon="6.7918">
        <ele>350</ele>
        <time>2016-10-09T09:53:25.000Z</time>
      </trkpt>
      <trkpt lat="47.4271" lon="6.7918">
        <ele>350</ele>
        <time>2016-10-09T09:53:26.000Z</time>
      </trkpt>
      <trkpt lat="47.42712" lon="6.7918">
        <ele>350</ele>
        <time>2016-10-09T09:53:27.000Z</time>
      </trkpt>
      <trkpt lat="47.42715" lon="6.7918">
        <ele>350</ele>
        <time>2016-10-09T09:53:28.000Z</time>
      </trkpt>
      <trkpt lat="47.42717" lon="6.79179">
        <ele>350</ele>
        <time>2016-10-09T09:53:29.000Z</time>
      </trkpt>
      <trkpt lat="47.4272" lon="6.79178">
        <ele>350</ele>
        <time>2016-10-09T09:53:30.000Z</time>
      </trkpt>
      <trkpt lat="47.42723" lon="6.79176">
        <ele>350</ele>
        <time>2016-10-09T09:53:31.000Z</time>
      </trkpt>
      <trkpt lat="47.42727" lon="6.79175">
        <ele>349</ele>
        <time>2016-10-09T09:53:32.000Z</time>
      </trkpt>
      <trkpt lat="47.4273" lon="6.79173">
        <ele>349</ele>
        <time>2016-10-09T09:53:33.000Z</time>
      </trkpt>
      <trkpt lat="47.42734" lon="6.79172">
        <ele>349</ele>
        <time>2016-10-09T09:53:34.000Z</time>
      </trkpt>
      <trkpt lat="47.42738" lon="6.79171">
        <ele>349</ele>
        <time>2016-10-09T09:53:35.000Z</time>
      </trkpt>
      <trkpt lat="47.42741" lon="6.79171">
        <ele>348</ele>
        <time>2016-10-09T09:53:36.000Z</time>
      </trkpt>
      <trkpt lat="47.42746" lon="6.79171">
        <ele>348</ele>
        <time>2016-10-09T09:53:37.000Z</time>
      </trkpt>
      <trkpt lat="47.4275" lon="6.79172">
        <ele>348</ele>
        <time>2016-10-09T09:53:38.000Z</time>
      </trkpt>
      <trkpt lat="47.42754" lon="6.79173">
        <ele>348</ele>
        <time>2016-10-09T09:53:39.000Z</time>
      </trkpt>
      <trkpt lat="47.42759" lon="6.79175">
        <ele>348</ele>
        <time>2016-10-09T09:53:40.000Z</time>
      </trkpt>
      <trkpt lat="47.42763" lon="6.79176">
        <ele>349</ele>
        <time>2016-10-09T09:53:41.000Z</time>
      </trkpt>
      <trkpt lat="47.42768" lon="6.79177">
        <ele>349</ele>
        <time>2016-10-09T09:53:42.000Z</time>
      </trkpt>
      <trkpt lat="47.42773" lon="6.79179">
        <ele>349</ele>
        <time>2016-10-09T09:53:43.000Z</time>
      </trkpt>
      <trkpt lat="47.42777" lon="6.7918">
        <ele>349</ele>
        <time>2016-10-09T09:53:44.000Z</time>
      </trkpt>
      <trkpt lat="47.42782" lon="6.79181">
        <ele>349</ele>
        <time>2016-10-09T09:53:45.000Z</time>
      </trkpt>
      <trkpt lat="47.42787" lon="6.79183">
        <ele>349</ele>
        <time>2016-10-09T09:53:46.000Z</time>
      </trkpt>
      <trkpt lat="47.42793" lon="6.79182">
        <ele>349</ele>
        <time>2016-10-09T09:53:47.000Z</time>
      </trkpt>
      <trkpt lat="47.42808" lon="6.79179">
        <ele>349</ele>
        <time>2016-10-09T09:53:48.000Z</time>
      </trkpt>
      <trkpt lat="47.42813" lon="6.79179">
        <ele>349</ele>
        <time>2016-10-09T09:53:49.000Z</time>
      </trkpt>
      <trkpt lat="47.42818" lon="6.79179">
        <ele>349</ele>
        <time>2016-10-09T09:53:50.000Z</time>
      </trkpt>
      <trkpt lat="47.42823" lon="6.7918">
        <ele>349</ele>
        <time>2016-10-09T09:53:51.000Z</time>
      </trkpt>
      <trkpt lat="47.42829" lon="6.79178">
        <ele>349</ele>
        <time>2016-10-09T09:53:52.000Z</time>
      </trkpt>
      <trkpt lat="47.42832" lon="6.79177">
        <ele>349</ele>
        <time>2016-10-09T09:53:53.000Z</time>
      </trkpt>
      <trkpt lat="47.42836" lon="6.79175">
        <ele>349</ele>
        <time>2016-10-09T09:53:54.000Z</time>
      </trkpt>
      <trkpt lat="47.4284" lon="6.79172">
        <ele>349</ele>
        <time>2016-10-09T09:53:55.000Z</time>
      </trkpt>
      <trkpt lat="47.42845" lon="6.79171">
        <ele>349</ele>
        <time>2016-10-09T09:53:56.000Z</time>
      </trkpt>
      <trkpt lat="47.4285" lon="6.79169">
        <ele>350</ele>
        <time>2016-10-09T09:53:57.000Z</time>
      </trkpt>
      <trkpt lat="47.42855" lon="6.79168">
        <ele>350</ele>
        <time>2016-10-09T09:53:58.000Z</time>
      </trkpt>
      <trkpt lat="47.42861" lon="6.79167">
        <ele>350</ele>
        <time>2016-10-09T09:53:59.000Z</time>
      </trkpt>
      <trkpt lat="47.42866" lon="6.79167">
        <ele>346</ele>
        <time>2016-10-09T09:54:00.000Z</time>
      </trkpt>
      <trkpt lat="47.42872" lon="6.79166">
        <ele>346</ele>
        <time>2016-10-09T09:54:01.000Z</time>
      </trkpt>
      <trkpt lat="47.42879" lon="6.79167">
        <ele>346</ele>
        <time>2016-10-09T09:54:02.000Z</time>
      </trkpt>
      <trkpt lat="47.42885" lon="6.7917">
        <ele>350</ele>
        <time>2016-10-09T09:54:03.000Z</time>
      </trkpt>
      <trkpt lat="47.42892" lon="6.79167">
        <ele>349</ele>
        <time>2016-10-09T09:54:04.000Z</time>
      </trkpt>
      <trkpt lat="47.42897" lon="6.79165">
        <ele>346</ele>
        <time>2016-10-09T09:54:05.000Z</time>
      </trkpt>
      <trkpt lat="47.42904" lon="6.79167">
        <ele>348</ele>
        <time>2016-10-09T09:54:06.000Z</time>
      </trkpt>
      <trkpt lat="47.42911" lon="6.79167">
        <ele>347</ele>
        <time>2016-10-09T09:54:07.000Z</time>
      </trkpt>
      <trkpt lat="47.42918" lon="6.79167">
        <ele>346</ele>
        <time>2016-10-09T09:54:08.000Z</time>
      </trkpt>
      <trkpt lat="47.42923" lon="6.79166">
        <ele>346</ele>
        <time>2016-10-09T09:54:09.000Z</time>
      </trkpt>
      <trkpt lat="47.42928" lon="6.79168">
        <ele>348</ele>
        <time>2016-10-09T09:54:10.000Z</time>
      </trkpt>
      <trkpt lat="47.42933" lon="6.79164">
        <ele>346</ele>
        <time>2016-10-09T09:54:11.000Z</time>
      </trkpt>
      <trkpt lat="47.42937" lon="6.79164">
        <ele>346</ele>
        <time>2016-10-09T09:54:12.000Z</time>
      </trkpt>
      <trkpt lat="47.42942" lon="6.79162">
        <ele>346</ele>
        <time>2016-10-09T09:54:13.000Z</time>
      </trkpt>
      <trkpt lat="47.42947" lon="6.79162">
        <ele>346</ele>
        <time>2016-10-09T09:54:14.000Z</time>
      </trkpt>
      <trkpt lat="47.42951" lon="6.79162">
        <ele>346</ele>
        <time>2016-10-09T09:54:15.000Z</time>
      </trkpt>
      <trkpt lat="47.42955" lon="6.79161">
        <ele>346</ele>
        <time>2016-10-09T09:54:16.000Z</time>
      </trkpt>
      <trkpt lat="47.42959" lon="6.7916">
        <ele>346</ele>
        <time>2016-10-09T09:54:17.000Z</time>
      </trkpt>
      <trkpt lat="47.42962" lon="6.79159">
        <ele>346</ele>
        <time>2016-10-09T09:54:18.000Z</time>
      </trkpt>
      <trkpt lat="47.42967" lon="6.79159">
        <ele>347</ele>
        <time>2016-10-09T09:54:19.000Z</time>
      </trkpt>
      <trkpt lat="47.42973" lon="6.79158">
        <ele>347</ele>
        <time>2016-10-09T09:54:20.000Z</time>
      </trkpt>
      <trkpt lat="47.42977" lon="6.79157">
        <ele>347</ele>
        <time>2016-10-09T09:54:21.000Z</time>
      </trkpt>
      <trkpt lat="47.42982" lon="6.79157">
        <ele>347</ele>
        <time>2016-10-09T09:54:22.000Z</time>
      </trkpt>
      <trkpt lat="47.42986" lon="6.79156">
        <ele>347</ele>
        <time>2016-10-09T09:54:23.000Z</time>
      </trkpt>
      <trkpt lat="47.4299" lon="6.79156">
        <ele>347</ele>
        <time>2016-10-09T09:54:24.000Z</time>
      </trkpt>
      <trkpt lat="47.42994" lon="6.79155">
        <ele>348</ele>
        <time>2016-10-09T09:54:25.000Z</time>
      </trkpt>
      <trkpt lat="47.42997" lon="6.79154">
        <ele>348</ele>
        <time>2016-10-09T09:54:26.000Z</time>
      </trkpt>
      <trkpt lat="47.43001" lon="6.79153">
        <ele>348</ele>
        <time>2016-10-09T09:54:27.000Z</time>
      </trkpt>
      <trkpt lat="47.43004" lon="6.79152">
        <ele>348</ele>
        <time>2016-10-09T09:54:28.000Z</time>
      </trkpt>
      <trkpt lat="47.43008" lon="6.79152">
        <ele>348</ele>
        <time>2016-10-09T09:54:29.000Z</time>
      </trkpt>
      <trkpt lat="47.43011" lon="6.79153">
        <ele>347</ele>
        <time>2016-10-09T09:54:30.000Z</time>
      </trkpt>
      <trkpt lat="47.43015" lon="6.79154">
        <ele>347</ele>
        <time>2016-10-09T09:54:31.000Z</time>
      </trkpt>
      <trkpt lat="47.43019" lon="6.79155">
        <ele>347</ele>
        <time>2016-10-09T09:54:32.000Z</time>
      </trkpt>
      <trkpt lat="47.43023" lon="6.79157">
        <ele>347</ele>
        <time>2016-10-09T09:54:33.000Z</time>
      </trkpt>
      <trkpt lat="47.43027" lon="6.79158">
        <ele>347</ele>
        <time>2016-10-09T09:54:34.000Z</time>
      </trkpt>
      <trkpt lat="47.43031" lon="6.7916">
        <ele>347</ele>
        <time>2016-10-09T09:54:35.000Z</time>
      </trkpt>
      <trkpt lat="47.43035" lon="6.79161">
        <ele>347</ele>
        <time>2016-10-09T09:54:36.000Z</time>
      </trkpt>
      <trkpt lat="47.43039" lon="6.79163">
        <ele>347</ele>
        <time>2016-10-09T09:54:37.000Z</time>
      </trkpt>
      <trkpt lat="47.43044" lon="6.79165">
        <ele>347</ele>
        <time>2016-10-09T09:54:38.000Z</time>
      </trkpt>
      <trkpt lat="47.43047" lon="6.79166">
        <ele>347</ele>
        <time>2016-10-09T09:54:39.000Z</time>
      </trkpt>
      <trkpt lat="47.43051" lon="6.79166">
        <ele>348</ele>
        <time>2016-10-09T09:54:40.000Z</time>
      </trkpt>
      <trkpt lat="47.43054" lon="6.79166">
        <ele>348</ele>
        <time>2016-10-09T09:54:41.000Z</time>
      </trkpt>
      <trkpt lat="47.43056" lon="6.79165">
        <ele>348</ele>
        <time>2016-10-09T09:54:42.000Z</time>
      </trkpt>
      <trkpt lat="47.43059" lon="6.79164">
        <ele>348</ele>
        <time>2016-10-09T09:54:43.000Z</time>
      </trkpt>
      <trkpt lat="47.43062" lon="6.79164">
        <ele>348</ele>
        <time>2016-10-09T09:54:44.000Z</time>
      </trkpt>
      <trkpt lat="47.43065" lon="6.79164">
        <ele>348</ele>
        <time>2016-10-09T09:54:45.000Z</time>
      </trkpt>
      <trkpt lat="47.43068" lon="6.79165">
        <ele>349</ele>
        <time>2016-10-09T09:54:46.000Z</time>
      </trkpt>
      <trkpt lat="47.43071" lon="6.79165">
        <ele>349</ele>
        <time>2016-10-09T09:54:47.000Z</time>
      </trkpt>
      <trkpt lat="47.43074" lon="6.79166">
        <ele>349</ele>
        <time>2016-10-09T09:54:48.000Z</time>
      </trkpt>
      <trkpt lat="47.43077" lon="6.79168">
        <ele>352</ele>
        <time>2016-10-09T09:54:49.000Z</time>
      </trkpt>
      <trkpt lat="47.4308" lon="6.7917">
        <ele>351</ele>
        <time>2016-10-09T09:54:50.000Z</time>
      </trkpt>
      <trkpt lat="47.43084" lon="6.7917">
        <ele>351</ele>
        <time>2016-10-09T09:54:51.000Z</time>
      </trkpt>
      <trkpt lat="47.43088" lon="6.79169">
        <ele>351</ele>
        <time>2016-10-09T09:54:52.000Z</time>
      </trkpt>
      <trkpt lat="47.43092" lon="6.79169">
        <ele>351</ele>
        <time>2016-10-09T09:54:53.000Z</time>
      </trkpt>
      <trkpt lat="47.43097" lon="6.79169">
        <ele>352</ele>
        <time>2016-10-09T09:54:54.000Z</time>
      </trkpt>
      <trkpt lat="47.43101" lon="6.79169">
        <ele>352</ele>
        <time>2016-10-09T09:54:55.000Z</time>
      </trkpt>
      <trkpt lat="47.43105" lon="6.79171">
        <ele>352</ele>
        <time>2016-10-09T09:54:56.000Z</time>
      </trkpt>
      <trkpt lat="47.43108" lon="6.79172">
        <ele>352</ele>
        <time>2016-10-09T09:54:57.000Z</time>
      </trkpt>
      <trkpt lat="47.43111" lon="6.79174">
        <ele>352</ele>
        <time>2016-10-09T09:54:58.000Z</time>
      </trkpt>
      <trkpt lat="47.43113" lon="6.79175">
        <ele>352</ele>
        <time>2016-10-09T09:54:59.000Z</time>
      </trkpt>
      <trkpt lat="47.43116" lon="6.79177">
        <ele>352</ele>
        <time>2016-10-09T09:55:00.000Z</time>
      </trkpt>
      <trkpt lat="47.43119" lon="6.79178">
        <ele>352</ele>
        <time>2016-10-09T09:55:01.000Z</time>
      </trkpt>
      <trkpt lat="47.43122" lon="6.79179">
        <ele>352</ele>
        <time>2016-10-09T09:55:02.000Z</time>
      </trkpt>
      <trkpt lat="47.43126" lon="6.79179">
        <ele>351</ele>
        <time>2016-10-09T09:55:03.000Z</time>
      </trkpt>
      <trkpt lat="47.4313" lon="6.79179">
        <ele>351</ele>
        <time>2016-10-09T09:55:04.000Z</time>
      </trkpt>
      <trkpt lat="47.43134" lon="6.7918">
        <ele>351</ele>
        <time>2016-10-09T09:55:05.000Z</time>
      </trkpt>
      <trkpt lat="47.43138" lon="6.7918">
        <ele>351</ele>
        <time>2016-10-09T09:55:06.000Z</time>
      </trkpt>
      <trkpt lat="47.43142" lon="6.7918">
        <ele>351</ele>
        <time>2016-10-09T09:55:07.000Z</time>
      </trkpt>
      <trkpt lat="47.43145" lon="6.7918">
        <ele>350</ele>
        <time>2016-10-09T09:55:08.000Z</time>
      </trkpt>
      <trkpt lat="47.43149" lon="6.79181">
        <ele>350</ele>
        <time>2016-10-09T09:55:09.000Z</time>
      </trkpt>
      <trkpt lat="47.43151" lon="6.7918">
        <ele>350</ele>
        <time>2016-10-09T09:55:10.000Z</time>
      </trkpt>
      <trkpt lat="47.43154" lon="6.7918">
        <ele>350</ele>
        <time>2016-10-09T09:55:11.000Z</time>
      </trkpt>
      <trkpt lat="47.43157" lon="6.79181">
        <ele>349</ele>
        <time>2016-10-09T09:55:12.000Z</time>
      </trkpt>
      <trkpt lat="47.4316" lon="6.79181">
        <ele>349</ele>
        <time>2016-10-09T09:55:13.000Z</time>
      </trkpt>
      <trkpt lat="47.43162" lon="6.7918">
        <ele>349</ele>
        <time>2016-10-09T09:55:14.000Z</time>
      </trkpt>
      <trkpt lat="47.43165" lon="6.79181">
        <ele>349</ele>
        <time>2016-10-09T09:55:15.000Z</time>
      </trkpt>
      <trkpt lat="47.43169" lon="6.79182">
        <ele>349</ele>
        <time>2016-10-09T09:55:16.000Z</time>
      </trkpt>
      <trkpt lat="47.43172" lon="6.79182">
        <ele>349</ele>
        <time>2016-10-09T09:55:17.000Z</time>
      </trkpt>
      <trkpt lat="47.43176" lon="6.79184">
        <ele>349</ele>
        <time>2016-10-09T09:55:18.000Z</time>
      </trkpt>
      <trkpt lat="47.4318" lon="6.79185">
        <ele>349</ele>
        <time>2016-10-09T09:55:19.000Z</time>
      </trkpt>
      <trkpt lat="47.43183" lon="6.79186">
        <ele>350</ele>
        <time>2016-10-09T09:55:20.000Z</time>
      </trkpt>
      <trkpt lat="47.43186" lon="6.79187">
        <ele>350</ele>
        <time>2016-10-09T09:55:21.000Z</time>
      </trkpt>
      <trkpt lat="47.43188" lon="6.79188">
        <ele>350</ele>
        <time>2016-10-09T09:55:22.000Z</time>
      </trkpt>
      <trkpt lat="47.43191" lon="6.79192">
        <ele>350</ele>
        <time>2016-10-09T09:55:23.000Z</time>
      </trkpt>
      <trkpt lat="47.43193" lon="6.79195">
        <ele>351</ele>
        <time>2016-10-09T09:55:24.000Z</time>
      </trkpt>
      <trkpt lat="47.43196" lon="6.792">
        <ele>351</ele>
        <time>2016-10-09T09:55:25.000Z</time>
      </trkpt>
      <trkpt lat="47.43198" lon="6.79204">
        <ele>351</ele>
        <time>2016-10-09T09:55:26.000Z</time>
      </trkpt>
      <trkpt lat="47.43201" lon="6.79207">
        <ele>352</ele>
        <time>2016-10-09T09:55:27.000Z</time>
      </trkpt>
      <trkpt lat="47.43203" lon="6.79209">
        <ele>352</ele>
        <time>2016-10-09T09:55:28.000Z</time>
      </trkpt>
      <trkpt lat="47.43205" lon="6.79211">
        <ele>352</ele>
        <time>2016-10-09T09:55:29.000Z</time>
      </trkpt>
      <trkpt lat="47.43208" lon="6.79213">
        <ele>352</ele>
        <time>2016-10-09T09:55:30.000Z</time>
      </trkpt>
      <trkpt lat="47.43211" lon="6.79215">
        <ele>352</ele>
        <time>2016-10-09T09:55:31.000Z</time>
      </trkpt>
      <trkpt lat="47.43214" lon="6.79217">
        <ele>352</ele>
        <time>2016-10-09T09:55:32.000Z</time>
      </trkpt>
      <trkpt lat="47.43217" lon="6.79218">
        <ele>353</ele>
        <time>2016-10-09T09:55:33.000Z</time>
      </trkpt>
      <trkpt lat="47.4322" lon="6.79219">
        <ele>353</ele>
        <time>2016-10-09T09:55:34.000Z</time>
      </trkpt>
      <trkpt lat="47.43222" lon="6.79219">
        <ele>353</ele>
        <time>2016-10-09T09:55:35.000Z</time>
      </trkpt>
      <trkpt lat="47.43225" lon="6.79219">
        <ele>353</ele>
        <time>2016-10-09T09:55:36.000Z</time>
      </trkpt>
      <trkpt lat="47.43228" lon="6.79218">
        <ele>353</ele>
        <time>2016-10-09T09:55:37.000Z</time>
      </trkpt>
      <trkpt lat="47.43232" lon="6.79218">
        <ele>353</ele>
        <time>2016-10-09T09:55:38.000Z</time>
      </trkpt>
      <trkpt lat="47.43237" lon="6.79217">
        <ele>353</ele>
        <time>2016-10-09T09:55:39.000Z</time>
      </trkpt>
      <trkpt lat="47.43242" lon="6.79216">
        <ele>353</ele>
        <time>2016-10-09T09:55:40.000Z</time>
      </trkpt>
      <trkpt lat="47.43247" lon="6.79215">
        <ele>353</ele>
        <time>2016-10-09T09:55:41.000Z</time>
      </trkpt>
      <trkpt lat="47.43252" lon="6.79213">
        <ele>353</ele>
        <time>2016-10-09T09:55:42.000Z</time>
      </trkpt>
      <trkpt lat="47.43257" lon="6.79212">
        <ele>353</ele>
        <time>2016-10-09T09:55:43.000Z</time>
      </trkpt>
      <trkpt lat="47.43262" lon="6.7921">
        <ele>353</ele>
        <time>2016-10-09T09:55:44.000Z</time>
      </trkpt>
      <trkpt lat="47.43268" lon="6.79209">
        <ele>353</ele>
        <time>2016-10-09T09:55:45.000Z</time>
      </trkpt>
      <trkpt lat="47.43273" lon="6.79208">
        <ele>353</ele>
        <time>2016-10-09T09:55:46.000Z</time>
      </trkpt>
      <trkpt lat="47.43278" lon="6.79207">
        <ele>353</ele>
        <time>2016-10-09T09:55:47.000Z</time>
      </trkpt>
      <trkpt lat="47.43282" lon="6.79207">
        <ele>353</ele>
        <time>2016-10-09T09:55:48.000Z</time>
      </trkpt>
      <trkpt lat="47.43285" lon="6.79208">
        <ele>353</ele>
        <time>2016-10-09T09:55:49.000Z</time>
      </trkpt>
      <trkpt lat="47.43288" lon="6.7921">
        <ele>353</ele>
        <time>2016-10-09T09:55:50.000Z</time>
      </trkpt>
      <trkpt lat="47.43292" lon="6.79211">
        <ele>353</ele>
        <time>2016-10-09T09:55:51.000Z</time>
      </trkpt>
      <trkpt lat="47.43296" lon="6.79213">
        <ele>353</ele>
        <time>2016-10-09T09:55:52.000Z</time>
      </trkpt>
      <trkpt lat="47.433" lon="6.79214">
        <ele>353</ele>
        <time>2016-10-09T09:55:53.000Z</time>
      </trkpt>
      <trkpt lat="47.43304" lon="6.79215">
        <ele>353</ele>
        <time>2016-10-09T09:55:54.000Z</time>
      </trkpt>
      <trkpt lat="47.43308" lon="6.79216">
        <ele>353</ele>
        <time>2016-10-09T09:55:55.000Z</time>
      </trkpt>
      <trkpt lat="47.43311" lon="6.79217">
        <ele>354</ele>
        <time>2016-10-09T09:55:56.000Z</time>
      </trkpt>
      <trkpt lat="47.43316" lon="6.79218">
        <ele>354</ele>
        <time>2016-10-09T09:55:57.000Z</time>
      </trkpt>
      <trkpt lat="47.43328" lon="6.79225">
        <ele>355</ele>
        <time>2016-10-09T09:55:58.000Z</time>
      </trkpt>
      <trkpt lat="47.43334" lon="6.79227">
        <ele>355</ele>
        <time>2016-10-09T09:55:59.000Z</time>
      </trkpt>
      <trkpt lat="47.43339" lon="6.79228">
        <ele>355</ele>
        <time>2016-10-09T09:56:00.000Z</time>
      </trkpt>
      <trkpt lat="47.43347" lon="6.79224">
        <ele>355</ele>
        <time>2016-10-09T09:56:01.000Z</time>
      </trkpt>
      <trkpt lat="47.43353" lon="6.79224">
        <ele>354</ele>
        <time>2016-10-09T09:56:02.000Z</time>
      </trkpt>
      <trkpt lat="47.43359" lon="6.79224">
        <ele>354</ele>
        <time>2016-10-09T09:56:03.000Z</time>
      </trkpt>
      <trkpt lat="47.43365" lon="6.79224">
        <ele>354</ele>
        <time>2016-10-09T09:56:04.000Z</time>
      </trkpt>
      <trkpt lat="47.43367" lon="6.79222">
        <ele>354</ele>
        <time>2016-10-09T09:56:05.000Z</time>
      </trkpt>
      <trkpt lat="47.43373" lon="6.79219">
        <ele>354</ele>
        <time>2016-10-09T09:56:06.000Z</time>
      </trkpt>
      <trkpt lat="47.43379" lon="6.79219">
        <ele>354</ele>
        <time>2016-10-09T09:56:07.000Z</time>
      </trkpt>
      <trkpt lat="47.43384" lon="6.79217">
        <ele>354</ele>
        <time>2016-10-09T09:56:08.000Z</time>
      </trkpt>
      <trkpt lat="47.43389" lon="6.79215">
        <ele>354</ele>
        <time>2016-10-09T09:56:09.000Z</time>
      </trkpt>
      <trkpt lat="47.43395" lon="6.79214">
        <ele>354</ele>
        <time>2016-10-09T09:56:10.000Z</time>
      </trkpt>
      <trkpt lat="47.43399" lon="6.79211">
        <ele>353</ele>
        <time>2016-10-09T09:56:11.000Z</time>
      </trkpt>
      <trkpt lat="47.43401" lon="6.7921">
        <ele>353</ele>
        <time>2016-10-09T09:56:12.000Z</time>
      </trkpt>
      <trkpt lat="47.43405" lon="6.79209">
        <ele>353</ele>
        <time>2016-10-09T09:56:13.000Z</time>
      </trkpt>
      <trkpt lat="47.43408" lon="6.79206">
        <ele>353</ele>
        <time>2016-10-09T09:56:14.000Z</time>
      </trkpt>
      <trkpt lat="47.43415" lon="6.79209">
        <ele>353</ele>
        <time>2016-10-09T09:56:15.000Z</time>
      </trkpt>
      <trkpt lat="47.4342" lon="6.79208">
        <ele>354</ele>
        <time>2016-10-09T09:56:16.000Z</time>
      </trkpt>
      <trkpt lat="47.43424" lon="6.79208">
        <ele>354</ele>
        <time>2016-10-09T09:56:17.000Z</time>
      </trkpt>
      <trkpt lat="47.43432" lon="6.79206">
        <ele>354</ele>
        <time>2016-10-09T09:56:18.000Z</time>
      </trkpt>
      <trkpt lat="47.43437" lon="6.79205">
        <ele>354</ele>
        <time>2016-10-09T09:56:19.000Z</time>
      </trkpt>
      <trkpt lat="47.43441" lon="6.79203">
        <ele>354</ele>
        <time>2016-10-09T09:56:20.000Z</time>
      </trkpt>
      <trkpt lat="47.43444" lon="6.79201">
        <ele>354</ele>
        <time>2016-10-09T09:56:21.000Z</time>
      </trkpt>
      <trkpt lat="47.43448" lon="6.792">
        <ele>354</ele>
        <time>2016-10-09T09:56:22.000Z</time>
      </trkpt>
      <trkpt lat="47.43452" lon="6.79199">
        <ele>354</ele>
        <time>2016-10-09T09:56:23.000Z</time>
      </trkpt>
      <trkpt lat="47.43455" lon="6.79201">
        <ele>354</ele>
        <time>2016-10-09T09:56:24.000Z</time>
      </trkpt>
      <trkpt lat="47.43458" lon="6.79199">
        <ele>354</ele>
        <time>2016-10-09T09:56:25.000Z</time>
      </trkpt>
      <trkpt lat="47.43462" lon="6.79196">
        <ele>354</ele>
        <time>2016-10-09T09:56:26.000Z</time>
      </trkpt>
      <trkpt lat="47.43465" lon="6.79196">
        <ele>354</ele>
        <time>2016-10-09T09:56:27.000Z</time>
      </trkpt>
      <trkpt lat="47.43469" lon="6.79192">
        <ele>354</ele>
        <time>2016-10-09T09:56:28.000Z</time>
      </trkpt>
      <trkpt lat="47.43472" lon="6.79189">
        <ele>353</ele>
        <time>2016-10-09T09:56:29.000Z</time>
      </trkpt>
      <trkpt lat="47.43475" lon="6.79186">
        <ele>353</ele>
        <time>2016-10-09T09:56:30.000Z</time>
      </trkpt>
      <trkpt lat="47.43486" lon="6.79182">
        <ele>353</ele>
        <time>2016-10-09T09:56:31.000Z</time>
      </trkpt>
      <trkpt lat="47.43494" lon="6.79185">
        <ele>353</ele>
        <time>2016-10-09T09:56:32.000Z</time>
      </trkpt>
      <trkpt lat="47.43499" lon="6.79184">
        <ele>353</ele>
        <time>2016-10-09T09:56:33.000Z</time>
      </trkpt>
      <trkpt lat="47.43503" lon="6.79182">
        <ele>356</ele>
        <time>2016-10-09T09:56:34.000Z</time>
      </trkpt>
      <trkpt lat="47.43508" lon="6.7918">
        <ele>356</ele>
        <time>2016-10-09T09:56:35.000Z</time>
      </trkpt>
      <trkpt lat="47.43512" lon="6.79177">
        <ele>356</ele>
        <time>2016-10-09T09:56:36.000Z</time>
      </trkpt>
      <trkpt lat="47.43517" lon="6.79177">
        <ele>357</ele>
        <time>2016-10-09T09:56:37.000Z</time>
      </trkpt>
      <trkpt lat="47.43524" lon="6.79175">
        <ele>358</ele>
        <time>2016-10-09T09:56:38.000Z</time>
      </trkpt>
      <trkpt lat="47.43528" lon="6.79172">
        <ele>358</ele>
        <time>2016-10-09T09:56:39.000Z</time>
      </trkpt>
      <trkpt lat="47.43533" lon="6.79172">
        <ele>359</ele>
        <time>2016-10-09T09:56:40.000Z</time>
      </trkpt>
      <trkpt lat="47.43538" lon="6.79174">
        <ele>360</ele>
        <time>2016-10-09T09:56:41.000Z</time>
      </trkpt>
      <trkpt lat="47.43542" lon="6.79173">
        <ele>360</ele>
        <time>2016-10-09T09:56:42.000Z</time>
      </trkpt>
      <trkpt lat="47.43546" lon="6.79171">
        <ele>360</ele>
        <time>2016-10-09T09:56:43.000Z</time>
      </trkpt>
      <trkpt lat="47.4355" lon="6.79168">
        <ele>361</ele>
        <time>2016-10-09T09:56:44.000Z</time>
      </trkpt>
      <trkpt lat="47.43553" lon="6.79166">
        <ele>352</ele>
        <time>2016-10-09T09:56:45.000Z</time>
      </trkpt>
      <trkpt lat="47.43557" lon="6.79163">
        <ele>353</ele>
        <time>2016-10-09T09:56:46.000Z</time>
      </trkpt>
      <trkpt lat="47.43561" lon="6.7916">
        <ele>353</ele>
        <time>2016-10-09T09:56:47.000Z</time>
      </trkpt>
      <trkpt lat="47.43565" lon="6.79156">
        <ele>353</ele>
        <time>2016-10-09T09:56:48.000Z</time>
      </trkpt>
      <trkpt lat="47.43569" lon="6.79152">
        <ele>353</ele>
        <time>2016-10-09T09:56:49.000Z</time>
      </trkpt>
      <trkpt lat="47.43573" lon="6.79148">
        <ele>353</ele>
        <time>2016-10-09T09:56:50.000Z</time>
      </trkpt>
      <trkpt lat="47.43577" lon="6.79143">
        <ele>353</ele>
        <time>2016-10-09T09:56:51.000Z</time>
      </trkpt>
      <trkpt lat="47.43582" lon="6.79139">
        <ele>352</ele>
        <time>2016-10-09T09:56:52.000Z</time>
      </trkpt>
      <trkpt lat="47.43586" lon="6.79135">
        <ele>355</ele>
        <time>2016-10-09T09:56:53.000Z</time>
      </trkpt>
      <trkpt lat="47.43591" lon="6.79131">
        <ele>355</ele>
        <time>2016-10-09T09:56:54.000Z</time>
      </trkpt>
      <trkpt lat="47.43596" lon="6.79127">
        <ele>355</ele>
        <time>2016-10-09T09:56:55.000Z</time>
      </trkpt>
      <trkpt lat="47.43607" lon="6.79125">
        <ele>355</ele>
        <time>2016-10-09T09:56:56.000Z</time>
      </trkpt>
      <trkpt lat="47.43614" lon="6.79122">
        <ele>354</ele>
        <time>2016-10-09T09:56:57.000Z</time>
      </trkpt>
      <trkpt lat="47.43619" lon="6.79123">
        <ele>354</ele>
        <time>2016-10-09T09:56:58.000Z</time>
      </trkpt>
      <trkpt lat="47.43625" lon="6.79123">
        <ele>355</ele>
        <time>2016-10-09T09:56:59.000Z</time>
      </trkpt>
      <trkpt lat="47.43629" lon="6.79119">
        <ele>354</ele>
        <time>2016-10-09T09:57:00.000Z</time>
      </trkpt>
      <trkpt lat="47.43635" lon="6.7912">
        <ele>354</ele>
        <time>2016-10-09T09:57:01.000Z</time>
      </trkpt>
      <trkpt lat="47.43641" lon="6.79117">
        <ele>354</ele>
        <time>2016-10-09T09:57:02.000Z</time>
      </trkpt>
      <trkpt lat="47.43647" lon="6.79115">
        <ele>354</ele>
        <time>2016-10-09T09:57:03.000Z</time>
      </trkpt>
      <trkpt lat="47.43652" lon="6.79111">
        <ele>353</ele>
        <time>2016-10-09T09:57:04.000Z</time>
      </trkpt>
      <trkpt lat="47.43656" lon="6.79109">
        <ele>353</ele>
        <time>2016-10-09T09:57:05.000Z</time>
      </trkpt>
      <trkpt lat="47.4366" lon="6.79107">
        <ele>352</ele>
        <time>2016-10-09T09:57:06.000Z</time>
      </trkpt>
      <trkpt lat="47.43667" lon="6.79107">
        <ele>352</ele>
        <time>2016-10-09T09:57:07.000Z</time>
      </trkpt>
      <trkpt lat="47.43673" lon="6.79103">
        <ele>351</ele>
        <time>2016-10-09T09:57:08.000Z</time>
      </trkpt>
      <trkpt lat="47.43683" lon="6.79099">
        <ele>351</ele>
        <time>2016-10-09T09:57:09.000Z</time>
      </trkpt>
      <trkpt lat="47.43687" lon="6.79104">
        <ele>352</ele>
        <time>2016-10-09T09:57:10.000Z</time>
      </trkpt>
      <trkpt lat="47.43694" lon="6.79103">
        <ele>352</ele>
        <time>2016-10-09T09:57:11.000Z</time>
      </trkpt>
      <trkpt lat="47.43703" lon="6.79099">
        <ele>352</ele>
        <time>2016-10-09T09:57:12.000Z</time>
      </trkpt>
      <trkpt lat="47.4371" lon="6.79095">
        <ele>352</ele>
        <time>2016-10-09T09:57:13.000Z</time>
      </trkpt>
      <trkpt lat="47.43717" lon="6.7909">
        <ele>351</ele>
        <time>2016-10-09T09:57:14.000Z</time>
      </trkpt>
      <trkpt lat="47.43725" lon="6.79087">
        <ele>350</ele>
        <time>2016-10-09T09:57:15.000Z</time>
      </trkpt>
      <trkpt lat="47.43733" lon="6.79085">
        <ele>349</ele>
        <time>2016-10-09T09:57:16.000Z</time>
      </trkpt>
      <trkpt lat="47.43743" lon="6.79086">
        <ele>346</ele>
        <time>2016-10-09T09:57:17.000Z</time>
      </trkpt>
      <trkpt lat="47.43752" lon="6.79086">
        <ele>344</ele>
        <time>2016-10-09T09:57:18.000Z</time>
      </trkpt>
      <trkpt lat="47.4376" lon="6.79081">
        <ele>341</ele>
        <time>2016-10-09T09:57:19.000Z</time>
      </trkpt>
      <trkpt lat="47.43768" lon="6.79081">
        <ele>341</ele>
        <time>2016-10-09T09:57:20.000Z</time>
      </trkpt>
      <trkpt lat="47.43776" lon="6.79076">
        <ele>340</ele>
        <time>2016-10-09T09:57:21.000Z</time>
      </trkpt>
      <trkpt lat="47.43785" lon="6.79078">
        <ele>339</ele>
        <time>2016-10-09T09:57:22.000Z</time>
      </trkpt>
      <trkpt lat="47.43794" lon="6.79073">
        <ele>339</ele>
        <time>2016-10-09T09:57:23.000Z</time>
      </trkpt>
      <trkpt lat="47.43801" lon="6.79069">
        <ele>339</ele>
        <time>2016-10-09T09:57:24.000Z</time>
      </trkpt>
      <trkpt lat="47.43808" lon="6.79066">
        <ele>339</ele>
        <time>2016-10-09T09:57:25.000Z</time>
      </trkpt>
      <trkpt lat="47.43815" lon="6.79064">
        <ele>339</ele>
        <time>2016-10-09T09:57:26.000Z</time>
      </trkpt>
      <trkpt lat="47.43822" lon="6.79061">
        <ele>338</ele>
        <time>2016-10-09T09:57:27.000Z</time>
      </trkpt>
      <trkpt lat="47.43827" lon="6.7906">
        <ele>338</ele>
        <time>2016-10-09T09:57:28.000Z</time>
      </trkpt>
      <trkpt lat="47.43834" lon="6.79059">
        <ele>337</ele>
        <time>2016-10-09T09:57:29.000Z</time>
      </trkpt>
      <trkpt lat="47.4384" lon="6.79057">
        <ele>337</ele>
        <time>2016-10-09T09:57:30.000Z</time>
      </trkpt>
      <trkpt lat="47.43846" lon="6.79056">
        <ele>337</ele>
        <time>2016-10-09T09:57:31.000Z</time>
      </trkpt>
      <trkpt lat="47.43852" lon="6.79056">
        <ele>337</ele>
        <time>2016-10-09T09:57:32.000Z</time>
      </trkpt>
      <trkpt lat="47.43858" lon="6.79055">
        <ele>337</ele>
        <time>2016-10-09T09:57:33.000Z</time>
      </trkpt>
      <trkpt lat="47.43864" lon="6.79054">
        <ele>337</ele>
        <time>2016-10-09T09:57:34.000Z</time>
      </trkpt>
      <trkpt lat="47.43869" lon="6.79053">
        <ele>336</ele>
        <time>2016-10-09T09:57:35.000Z</time>
      </trkpt>
      <trkpt lat="47.43875" lon="6.79052">
        <ele>336</ele>
        <time>2016-10-09T09:57:36.000Z</time>
      </trkpt>
      <trkpt lat="47.43881" lon="6.79051">
        <ele>336</ele>
        <time>2016-10-09T09:57:37.000Z</time>
      </trkpt>
      <trkpt lat="47.43887" lon="6.79049">
        <ele>336</ele>
        <time>2016-10-09T09:57:38.000Z</time>
      </trkpt>
      <trkpt lat="47.43893" lon="6.79048">
        <ele>336</ele>
        <time>2016-10-09T09:57:39.000Z</time>
      </trkpt>
      <trkpt lat="47.43898" lon="6.79046">
        <ele>336</ele>
        <time>2016-10-09T09:57:40.000Z</time>
      </trkpt>
      <trkpt lat="47.43904" lon="6.79044">
        <ele>336</ele>
        <time>2016-10-09T09:57:41.000Z</time>
      </trkpt>
      <trkpt lat="47.4391" lon="6.79043">
        <ele>336</ele>
        <time>2016-10-09T09:57:42.000Z</time>
      </trkpt>
      <trkpt lat="47.43915" lon="6.7904">
        <ele>336</ele>
        <time>2016-10-09T09:57:43.000Z</time>
      </trkpt>
      <trkpt lat="47.43922" lon="6.79039">
        <ele>335</ele>
        <time>2016-10-09T09:57:44.000Z</time>
      </trkpt>
      <trkpt lat="47.43927" lon="6.79038">
        <ele>335</ele>
        <time>2016-10-09T09:57:45.000Z</time>
      </trkpt>
      <trkpt lat="47.43933" lon="6.79036">
        <ele>335</ele>
        <time>2016-10-09T09:57:46.000Z</time>
      </trkpt>
      <trkpt lat="47.43939" lon="6.79035">
        <ele>335</ele>
        <time>2016-10-09T09:57:47.000Z</time>
      </trkpt>
      <trkpt lat="47.43944" lon="6.79034">
        <ele>335</ele>
        <time>2016-10-09T09:57:48.000Z</time>
      </trkpt>
      <trkpt lat="47.4395" lon="6.79034">
        <ele>335</ele>
        <time>2016-10-09T09:57:49.000Z</time>
      </trkpt>
      <trkpt lat="47.43955" lon="6.79033">
        <ele>335</ele>
        <time>2016-10-09T09:57:50.000Z</time>
      </trkpt>
      <trkpt lat="47.4396" lon="6.79033">
        <ele>335</ele>
        <time>2016-10-09T09:57:51.000Z</time>
      </trkpt>
      <trkpt lat="47.43966" lon="6.79032">
        <ele>335</ele>
        <time>2016-10-09T09:57:52.000Z</time>
      </trkpt>
      <trkpt lat="47.43971" lon="6.79032">
        <ele>335</ele>
        <time>2016-10-09T09:57:53.000Z</time>
      </trkpt>
      <trkpt lat="47.43976" lon="6.79031">
        <ele>335</ele>
        <time>2016-10-09T09:57:54.000Z</time>
      </trkpt>
      <trkpt lat="47.43982" lon="6.79031">
        <ele>335</ele>
        <time>2016-10-09T09:57:55.000Z</time>
      </trkpt>
      <trkpt lat="47.43987" lon="6.79031">
        <ele>335</ele>
        <time>2016-10-09T09:57:56.000Z</time>
      </trkpt>
      <trkpt lat="47.43993" lon="6.79032">
        <ele>335</ele>
        <time>2016-10-09T09:57:57.000Z</time>
      </trkpt>
      <trkpt lat="47.43998" lon="6.79033">
        <ele>335</ele>
        <time>2016-10-09T09:57:58.000Z</time>
      </trkpt>
      <trkpt lat="47.44003" lon="6.79033">
        <ele>335</ele>
        <time>2016-10-09T09:57:59.000Z</time>
      </trkpt>
      <trkpt lat="47.44009" lon="6.79034">
        <ele>335</ele>
        <time>2016-10-09T09:58:00.000Z</time>
      </trkpt>
      <trkpt lat="47.44014" lon="6.79035">
        <ele>335</ele>
        <time>2016-10-09T09:58:01.000Z</time>
      </trkpt>
      <trkpt lat="47.44019" lon="6.79037">
        <ele>335</ele>
        <time>2016-10-09T09:58:02.000Z</time>
      </trkpt>
      <trkpt lat="47.44025" lon="6.79037">
        <ele>335</ele>
        <time>2016-10-09T09:58:03.000Z</time>
      </trkpt>
      <trkpt lat="47.4403" lon="6.79038">
        <ele>335</ele>
        <time>2016-10-09T09:58:04.000Z</time>
      </trkpt>
      <trkpt lat="47.44035" lon="6.79039">
        <ele>335</ele>
        <time>2016-10-09T09:58:05.000Z</time>
      </trkpt>
      <trkpt lat="47.4404" lon="6.7904">
        <ele>335</ele>
        <time>2016-10-09T09:58:06.000Z</time>
      </trkpt>
      <trkpt lat="47.44046" lon="6.7904">
        <ele>335</ele>
        <time>2016-10-09T09:58:07.000Z</time>
      </trkpt>
      <trkpt lat="47.44051" lon="6.79041">
        <ele>335</ele>
        <time>2016-10-09T09:58:08.000Z</time>
      </trkpt>
      <trkpt lat="47.44056" lon="6.79042">
        <ele>335</ele>
        <time>2016-10-09T09:58:09.000Z</time>
      </trkpt>
      <trkpt lat="47.44062" lon="6.79042">
        <ele>335</ele>
        <time>2016-10-09T09:58:10.000Z</time>
      </trkpt>
      <trkpt lat="47.44067" lon="6.79042">
        <ele>335</ele>
        <time>2016-10-09T09:58:11.000Z</time>
      </trkpt>
      <trkpt lat="47.44072" lon="6.79042">
        <ele>335</ele>
        <time>2016-10-09T09:58:12.000Z</time>
      </trkpt>
      <trkpt lat="47.44078" lon="6.79043">
        <ele>336</ele>
        <time>2016-10-09T09:58:13.000Z</time>
      </trkpt>
      <trkpt lat="47.44083" lon="6.79044">
        <ele>336</ele>
        <time>2016-10-09T09:58:14.000Z</time>
      </trkpt>
      <trkpt lat="47.44089" lon="6.79043">
        <ele>336</ele>
        <time>2016-10-09T09:58:15.000Z</time>
      </trkpt>
      <trkpt lat="47.44094" lon="6.79044">
        <ele>336</ele>
        <time>2016-10-09T09:58:16.000Z</time>
      </trkpt>
      <trkpt lat="47.44099" lon="6.79045">
        <ele>336</ele>
        <time>2016-10-09T09:58:17.000Z</time>
      </trkpt>
      <trkpt lat="47.44105" lon="6.79046">
        <ele>336</ele>
        <time>2016-10-09T09:58:18.000Z</time>
      </trkpt>
      <trkpt lat="47.4411" lon="6.79047">
        <ele>336</ele>
        <time>2016-10-09T09:58:19.000Z</time>
      </trkpt>
      <trkpt lat="47.44116" lon="6.79049">
        <ele>336</ele>
        <time>2016-10-09T09:58:20.000Z</time>
      </trkpt>
      <trkpt lat="47.44121" lon="6.7905">
        <ele>336</ele>
        <time>2016-10-09T09:58:21.000Z</time>
      </trkpt>
      <trkpt lat="47.44126" lon="6.79052">
        <ele>336</ele>
        <time>2016-10-09T09:58:22.000Z</time>
      </trkpt>
      <trkpt lat="47.44131" lon="6.79053">
        <ele>336</ele>
        <time>2016-10-09T09:58:23.000Z</time>
      </trkpt>
      <trkpt lat="47.44136" lon="6.79054">
        <ele>336</ele>
        <time>2016-10-09T09:58:24.000Z</time>
      </trkpt>
      <trkpt lat="47.44141" lon="6.79056">
        <ele>336</ele>
        <time>2016-10-09T09:58:25.000Z</time>
      </trkpt>
      <trkpt lat="47.44147" lon="6.79057">
        <ele>336</ele>
        <time>2016-10-09T09:58:26.000Z</time>
      </trkpt>
      <trkpt lat="47.44152" lon="6.79059">
        <ele>336</ele>
        <time>2016-10-09T09:58:27.000Z</time>
      </trkpt>
      <trkpt lat="47.44157" lon="6.7906">
        <ele>336</ele>
        <time>2016-10-09T09:58:28.000Z</time>
      </trkpt>
      <trkpt lat="47.44162" lon="6.79062">
        <ele>336</ele>
        <time>2016-10-09T09:58:29.000Z</time>
      </trkpt>
      <trkpt lat="47.44167" lon="6.79063">
        <ele>336</ele>
        <time>2016-10-09T09:58:30.000Z</time>
      </trkpt>
      <trkpt lat="47.44173" lon="6.79065">
        <ele>336</ele>
        <time>2016-10-09T09:58:31.000Z</time>
      </trkpt>
      <trkpt lat="47.44178" lon="6.79066">
        <ele>336</ele>
        <time>2016-10-09T09:58:32.000Z</time>
      </trkpt>
      <trkpt lat="47.44183" lon="6.79068">
        <ele>335</ele>
        <time>2016-10-09T09:58:33.000Z</time>
      </trkpt>
      <trkpt lat="47.44189" lon="6.79069">
        <ele>335</ele>
        <time>2016-10-09T09:58:34.000Z</time>
      </trkpt>
      <trkpt lat="47.44194" lon="6.79071">
        <ele>335</ele>
        <time>2016-10-09T09:58:35.000Z</time>
      </trkpt>
      <trkpt lat="47.44199" lon="6.79073">
        <ele>335</ele>
        <time>2016-10-09T09:58:36.000Z</time>
      </trkpt>
      <trkpt lat="47.44205" lon="6.79074">
        <ele>335</ele>
        <time>2016-10-09T09:58:37.000Z</time>
      </trkpt>
      <trkpt lat="47.4421" lon="6.79078">
        <ele>335</ele>
        <time>2016-10-09T09:58:38.000Z</time>
      </trkpt>
      <trkpt lat="47.44215" lon="6.7908">
        <ele>335</ele>
        <time>2016-10-09T09:58:39.000Z</time>
      </trkpt>
      <trkpt lat="47.4422" lon="6.79082">
        <ele>335</ele>
        <time>2016-10-09T09:58:40.000Z</time>
      </trkpt>
      <trkpt lat="47.44226" lon="6.79085">
        <ele>340</ele>
        <time>2016-10-09T09:58:41.000Z</time>
      </trkpt>
      <trkpt lat="47.44232" lon="6.79087">
        <ele>339</ele>
        <time>2016-10-09T09:58:42.000Z</time>
      </trkpt>
      <trkpt lat="47.44236" lon="6.79089">
        <ele>339</ele>
        <time>2016-10-09T09:58:43.000Z</time>
      </trkpt>
      <trkpt lat="47.44241" lon="6.79091">
        <ele>338</ele>
        <time>2016-10-09T09:58:44.000Z</time>
      </trkpt>
      <trkpt lat="47.44247" lon="6.79095">
        <ele>338</ele>
        <time>2016-10-09T09:58:45.000Z</time>
      </trkpt>
      <trkpt lat="47.44252" lon="6.79097">
        <ele>338</ele>
        <time>2016-10-09T09:58:46.000Z</time>
      </trkpt>
      <trkpt lat="47.44257" lon="6.79099">
        <ele>338</ele>
        <time>2016-10-09T09:58:47.000Z</time>
      </trkpt>
      <trkpt lat="47.44263" lon="6.79103">
        <ele>339</ele>
        <time>2016-10-09T09:58:48.000Z</time>
      </trkpt>
      <trkpt lat="47.44268" lon="6.79106">
        <ele>339</ele>
        <time>2016-10-09T09:58:49.000Z</time>
      </trkpt>
      <trkpt lat="47.44273" lon="6.79109">
        <ele>340</ele>
        <time>2016-10-09T09:58:50.000Z</time>
      </trkpt>
      <trkpt lat="47.44278" lon="6.79112">
        <ele>340</ele>
        <time>2016-10-09T09:58:51.000Z</time>
      </trkpt>
      <trkpt lat="47.44283" lon="6.79116">
        <ele>340</ele>
        <time>2016-10-09T09:58:52.000Z</time>
      </trkpt>
      <trkpt lat="47.44288" lon="6.79119">
        <ele>340</ele>
        <time>2016-10-09T09:58:53.000Z</time>
      </trkpt>
      <trkpt lat="47.44294" lon="6.79122">
        <ele>341</ele>
        <time>2016-10-09T09:58:54.000Z</time>
      </trkpt>
      <trkpt lat="47.44299" lon="6.79125">
        <ele>341</ele>
        <time>2016-10-09T09:58:55.000Z</time>
      </trkpt>
      <trkpt lat="47.44304" lon="6.79128">
        <ele>341</ele>
        <time>2016-10-09T09:58:56.000Z</time>
      </trkpt>
      <trkpt lat="47.44309" lon="6.7913">
        <ele>341</ele>
        <time>2016-10-09T09:58:57.000Z</time>
      </trkpt>
      <trkpt lat="47.44314" lon="6.79134">
        <ele>341</ele>
        <time>2016-10-09T09:58:58.000Z</time>
      </trkpt>
      <trkpt lat="47.4432" lon="6.79137">
        <ele>341</ele>
        <time>2016-10-09T09:58:59.000Z</time>
      </trkpt>
      <trkpt lat="47.44325" lon="6.79139">
        <ele>342</ele>
        <time>2016-10-09T09:59:00.000Z</time>
      </trkpt>
      <trkpt lat="47.4433" lon="6.79142">
        <ele>342</ele>
        <time>2016-10-09T09:59:01.000Z</time>
      </trkpt>
      <trkpt lat="47.44335" lon="6.79144">
        <ele>340</ele>
        <time>2016-10-09T09:59:02.000Z</time>
      </trkpt>
      <trkpt lat="47.4434" lon="6.79146">
        <ele>340</ele>
        <time>2016-10-09T09:59:03.000Z</time>
      </trkpt>
      <trkpt lat="47.44345" lon="6.79149">
        <ele>340</ele>
        <time>2016-10-09T09:59:03.998Z</time>
      </trkpt>
      <trkpt lat="47.44351" lon="6.79151">
        <ele>340</ele>
        <time>2016-10-09T09:59:05.000Z</time>
      </trkpt>
      <trkpt lat="47.44356" lon="6.79154">
        <ele>340</ele>
        <time>2016-10-09T09:59:06.000Z</time>
      </trkpt>
      <trkpt lat="47.44361" lon="6.79158">
        <ele>340</ele>
        <time>2016-10-09T09:59:07.000Z</time>
      </trkpt>
      <trkpt lat="47.44367" lon="6.79161">
        <ele>339</ele>
        <time>2016-10-09T09:59:08.000Z</time>
      </trkpt>
      <trkpt lat="47.44372" lon="6.79165">
        <ele>339</ele>
        <time>2016-10-09T09:59:09.000Z</time>
      </trkpt>
      <trkpt lat="47.44378" lon="6.79168">
        <ele>347</ele>
        <time>2016-10-09T09:59:10.000Z</time>
      </trkpt>
      <trkpt lat="47.44383" lon="6.79171">
        <ele>347</ele>
        <time>2016-10-09T09:59:11.000Z</time>
      </trkpt>
      <trkpt lat="47.44395" lon="6.79175">
        <ele>345</ele>
        <time>2016-10-09T09:59:13.000Z</time>
      </trkpt>
      <trkpt lat="47.444" lon="6.79176">
        <ele>345</ele>
        <time>2016-10-09T09:59:14.000Z</time>
      </trkpt>
      <trkpt lat="47.44405" lon="6.79178">
        <ele>344</ele>
        <time>2016-10-09T09:59:15.000Z</time>
      </trkpt>
      <trkpt lat="47.44411" lon="6.7918">
        <ele>343</ele>
        <time>2016-10-09T09:59:16.000Z</time>
      </trkpt>
      <trkpt lat="47.44415" lon="6.79182">
        <ele>343</ele>
        <time>2016-10-09T09:59:17.000Z</time>
      </trkpt>
      <trkpt lat="47.4442" lon="6.79183">
        <ele>339</ele>
        <time>2016-10-09T09:59:18.000Z</time>
      </trkpt>
      <trkpt lat="47.44425" lon="6.79184">
        <ele>339</ele>
        <time>2016-10-09T09:59:19.000Z</time>
      </trkpt>
      <trkpt lat="47.4443" lon="6.79185">
        <ele>340</ele>
        <time>2016-10-09T09:59:20.000Z</time>
      </trkpt>
      <trkpt lat="47.44435" lon="6.79187">
        <ele>340</ele>
        <time>2016-10-09T09:59:21.000Z</time>
      </trkpt>
      <trkpt lat="47.4444" lon="6.79189">
        <ele>340</ele>
        <time>2016-10-09T09:59:22.000Z</time>
      </trkpt>
      <trkpt lat="47.44444" lon="6.79189">
        <ele>340</ele>
        <time>2016-10-09T09:59:23.000Z</time>
      </trkpt>
      <trkpt lat="47.44448" lon="6.7919">
        <ele>340</ele>
        <time>2016-10-09T09:59:24.000Z</time>
      </trkpt>
      <trkpt lat="47.44453" lon="6.7919">
        <ele>340</ele>
        <time>2016-10-09T09:59:25.000Z</time>
      </trkpt>
      <trkpt lat="47.44457" lon="6.79193">
        <ele>340</ele>
        <time>2016-10-09T09:59:26.000Z</time>
      </trkpt>
      <trkpt lat="47.44462" lon="6.79196">
        <ele>340</ele>
        <time>2016-10-09T09:59:27.000Z</time>
      </trkpt>
      <trkpt lat="47.44467" lon="6.79197">
        <ele>340</ele>
        <time>2016-10-09T09:59:28.000Z</time>
      </trkpt>
      <trkpt lat="47.44472" lon="6.792">
        <ele>339</ele>
        <time>2016-10-09T09:59:29.000Z</time>
      </trkpt>
      <trkpt lat="47.44476" lon="6.79201">
        <ele>339</ele>
        <time>2016-10-09T09:59:30.000Z</time>
      </trkpt>
      <trkpt lat="47.4448" lon="6.79201">
        <ele>339</ele>
        <time>2016-10-09T09:59:31.000Z</time>
      </trkpt>
      <trkpt lat="47.44485" lon="6.79202">
        <ele>339</ele>
        <time>2016-10-09T09:59:32.000Z</time>
      </trkpt>
      <trkpt lat="47.44489" lon="6.79204">
        <ele>339</ele>
        <time>2016-10-09T09:59:33.000Z</time>
      </trkpt>
      <trkpt lat="47.44495" lon="6.79206">
        <ele>339</ele>
        <time>2016-10-09T09:59:34.000Z</time>
      </trkpt>
      <trkpt lat="47.44501" lon="6.79208">
        <ele>335</ele>
        <time>2016-10-09T09:59:35.000Z</time>
      </trkpt>
      <trkpt lat="47.44506" lon="6.79211">
        <ele>335</ele>
        <time>2016-10-09T09:59:36.000Z</time>
      </trkpt>
      <trkpt lat="47.44512" lon="6.79214">
        <ele>335</ele>
        <time>2016-10-09T09:59:37.000Z</time>
      </trkpt>
      <trkpt lat="47.44517" lon="6.79216">
        <ele>335</ele>
        <time>2016-10-09T09:59:38.000Z</time>
      </trkpt>
      <trkpt lat="47.44522" lon="6.79219">
        <ele>335</ele>
        <time>2016-10-09T09:59:39.000Z</time>
      </trkpt>
      <trkpt lat="47.44527" lon="6.79221">
        <ele>335</ele>
        <time>2016-10-09T09:59:40.000Z</time>
      </trkpt>
      <trkpt lat="47.44531" lon="6.79223">
        <ele>335</ele>
        <time>2016-10-09T09:59:41.000Z</time>
      </trkpt>
      <trkpt lat="47.44537" lon="6.79225">
        <ele>335</ele>
        <time>2016-10-09T09:59:42.000Z</time>
      </trkpt>
      <trkpt lat="47.44542" lon="6.79229">
        <ele>335</ele>
        <time>2016-10-09T09:59:43.000Z</time>
      </trkpt>
      <trkpt lat="47.44548" lon="6.79233">
        <ele>335</ele>
        <time>2016-10-09T09:59:44.000Z</time>
      </trkpt>
      <trkpt lat="47.44553" lon="6.79235">
        <ele>335</ele>
        <time>2016-10-09T09:59:45.000Z</time>
      </trkpt>
      <trkpt lat="47.44559" lon="6.79239">
        <ele>334</ele>
        <time>2016-10-09T09:59:46.000Z</time>
      </trkpt>
      <trkpt lat="47.44564" lon="6.79243">
        <ele>334</ele>
        <time>2016-10-09T09:59:47.000Z</time>
      </trkpt>
      <trkpt lat="47.4457" lon="6.79246">
        <ele>334</ele>
        <time>2016-10-09T09:59:48.000Z</time>
      </trkpt>
      <trkpt lat="47.44577" lon="6.79249">
        <ele>333</ele>
        <time>2016-10-09T09:59:49.000Z</time>
      </trkpt>
      <trkpt lat="47.44584" lon="6.79253">
        <ele>333</ele>
        <time>2016-10-09T09:59:50.000Z</time>
      </trkpt>
      <trkpt lat="47.4459" lon="6.79255">
        <ele>333</ele>
        <time>2016-10-09T09:59:51.000Z</time>
      </trkpt>
      <trkpt lat="47.44596" lon="6.79259">
        <ele>333</ele>
        <time>2016-10-09T09:59:52.000Z</time>
      </trkpt>
      <trkpt lat="47.44602" lon="6.79263">
        <ele>332</ele>
        <time>2016-10-09T09:59:53.000Z</time>
      </trkpt>
      <trkpt lat="47.44607" lon="6.79266">
        <ele>332</ele>
        <time>2016-10-09T09:59:54.000Z</time>
      </trkpt>
      <trkpt lat="47.44612" lon="6.79269">
        <ele>332</ele>
        <time>2016-10-09T09:59:55.000Z</time>
      </trkpt>
      <trkpt lat="47.44618" lon="6.79272">
        <ele>332</ele>
        <time>2016-10-09T09:59:56.000Z</time>
      </trkpt>
      <trkpt lat="47.44623" lon="6.79275">
        <ele>332</ele>
        <time>2016-10-09T09:59:57.000Z</time>
      </trkpt>
      <trkpt lat="47.44628" lon="6.79278">
        <ele>332</ele>
        <time>2016-10-09T09:59:58.000Z</time>
      </trkpt>
      <trkpt lat="47.44634" lon="6.79281">
        <ele>332</ele>
        <time>2016-10-09T09:59:59.000Z</time>
      </trkpt>
      <trkpt lat="47.44639" lon="6.79284">
        <ele>332</ele>
        <time>2016-10-09T10:00:00.000Z</time>
      </trkpt>
      <trkpt lat="47.44645" lon="6.79287">
        <ele>332</ele>
        <time>2016-10-09T10:00:01.000Z</time>
      </trkpt>
      <trkpt lat="47.44651" lon="6.79291">
        <ele>332</ele>
        <time>2016-10-09T10:00:02.000Z</time>
      </trkpt>
      <trkpt lat="47.44655" lon="6.79295">
        <ele>332</ele>
        <time>2016-10-09T10:00:03.000Z</time>
      </trkpt>
      <trkpt lat="47.44661" lon="6.79297">
        <ele>332</ele>
        <time>2016-10-09T10:00:04.000Z</time>
      </trkpt>
      <trkpt lat="47.44667" lon="6.79302">
        <ele>331</ele>
        <time>2016-10-09T10:00:05.000Z</time>
      </trkpt>
      <trkpt lat="47.44673" lon="6.79305">
        <ele>331</ele>
        <time>2016-10-09T10:00:06.000Z</time>
      </trkpt>
      <trkpt lat="47.44679" lon="6.79308">
        <ele>331</ele>
        <time>2016-10-09T10:00:07.000Z</time>
      </trkpt>
      <trkpt lat="47.44684" lon="6.79311">
        <ele>331</ele>
        <time>2016-10-09T10:00:08.000Z</time>
      </trkpt>
      <trkpt lat="47.44689" lon="6.79314">
        <ele>331</ele>
        <time>2016-10-09T10:00:09.000Z</time>
      </trkpt>
      <trkpt lat="47.44695" lon="6.79317">
        <ele>331</ele>
        <time>2016-10-09T10:00:10.000Z</time>
      </trkpt>
      <trkpt lat="47.447" lon="6.7932">
        <ele>331</ele>
        <time>2016-10-09T10:00:11.000Z</time>
      </trkpt>
      <trkpt lat="47.447" lon="6.7932">
        <ele>331</ele>
        <time>2016-10-09T10:00:11.107Z</time>
      </trkpt>
      <trkpt lat="47.44711" lon="6.79326">
        <ele>331</ele>
        <time>2016-10-09T10:00:13.000Z</time>
      </trkpt>
      <trkpt lat="47.44716" lon="6.7933">
        <ele>331</ele>
        <time>2016-10-09T10:00:14.000Z</time>
      </trkpt>
      <trkpt lat="47.44722" lon="6.79334">
        <ele>331</ele>
        <time>2016-10-09T10:00:15.000Z</time>
      </trkpt>
      <trkpt lat="47.44727" lon="6.79337">
        <ele>331</ele>
        <time>2016-10-09T10:00:16.000Z</time>
      </trkpt>
      <trkpt lat="47.44732" lon="6.7934">
        <ele>331</ele>
        <time>2016-10-09T10:00:17.000Z</time>
      </trkpt>
      <trkpt lat="47.44738" lon="6.79343">
        <ele>331</ele>
        <time>2016-10-09T10:00:18.000Z</time>
      </trkpt>
      <trkpt lat="47.44743" lon="6.79346">
        <ele>331</ele>
        <time>2016-10-09T10:00:19.000Z</time>
      </trkpt>
      <trkpt lat="47.44748" lon="6.79349">
        <ele>331</ele>
        <time>2016-10-09T10:00:20.000Z</time>
      </trkpt>
      <trkpt lat="47.44753" lon="6.79351">
        <ele>331</ele>
        <time>2016-10-09T10:00:21.000Z</time>
      </trkpt>
      <trkpt lat="47.44759" lon="6.79355">
        <ele>331</ele>
        <time>2016-10-09T10:00:22.000Z</time>
      </trkpt>
      <trkpt lat="47.44764" lon="6.79358">
        <ele>331</ele>
        <time>2016-10-09T10:00:23.000Z</time>
      </trkpt>
      <trkpt lat="47.4477" lon="6.79361">
        <ele>331</ele>
        <time>2016-10-09T10:00:24.000Z</time>
      </trkpt>
      <trkpt lat="47.44775" lon="6.79364">
        <ele>331</ele>
        <time>2016-10-09T10:00:25.000Z</time>
      </trkpt>
      <trkpt lat="47.4478" lon="6.79366">
        <ele>331</ele>
        <time>2016-10-09T10:00:26.000Z</time>
      </trkpt>
      <trkpt lat="47.44785" lon="6.79369">
        <ele>331</ele>
        <time>2016-10-09T10:00:27.000Z</time>
      </trkpt>
      <trkpt lat="47.44789" lon="6.79372">
        <ele>331</ele>
        <time>2016-10-09T10:00:28.000Z</time>
      </trkpt>
      <trkpt lat="47.44794" lon="6.79375">
        <ele>331</ele>
        <time>2016-10-09T10:00:29.000Z</time>
      </trkpt>
      <trkpt lat="47.44798" lon="6.79378">
        <ele>331</ele>
        <time>2016-10-09T10:00:30.000Z</time>
      </trkpt>
      <trkpt lat="47.44803" lon="6.79381">
        <ele>331</ele>
        <time>2016-10-09T10:00:31.000Z</time>
      </trkpt>
      <trkpt lat="47.44808" lon="6.79385">
        <ele>331</ele>
        <time>2016-10-09T10:00:32.000Z</time>
      </trkpt>
      <trkpt lat="47.44812" lon="6.79388">
        <ele>331</ele>
        <time>2016-10-09T10:00:33.000Z</time>
      </trkpt>
      <trkpt lat="47.44817" lon="6.79392">
        <ele>331</ele>
        <time>2016-10-09T10:00:34.000Z</time>
      </trkpt>
      <trkpt lat="47.44822" lon="6.79395">
        <ele>331</ele>
        <time>2016-10-09T10:00:35.000Z</time>
      </trkpt>
      <trkpt lat="47.44826" lon="6.79399">
        <ele>331</ele>
        <time>2016-10-09T10:00:36.000Z</time>
      </trkpt>
      <trkpt lat="47.44831" lon="6.79402">
        <ele>331</ele>
        <time>2016-10-09T10:00:37.000Z</time>
      </trkpt>
      <trkpt lat="47.44836" lon="6.79406">
        <ele>332</ele>
        <time>2016-10-09T10:00:38.000Z</time>
      </trkpt>
      <trkpt lat="47.4484" lon="6.79409">
        <ele>331</ele>
        <time>2016-10-09T10:00:39.000Z</time>
      </trkpt>
      <trkpt lat="47.44844" lon="6.79413">
        <ele>332</ele>
        <time>2016-10-09T10:00:40.000Z</time>
      </trkpt>
      <trkpt lat="47.44849" lon="6.79417">
        <ele>331</ele>
        <time>2016-10-09T10:00:41.000Z</time>
      </trkpt>
      <trkpt lat="47.44853" lon="6.7942">
        <ele>332</ele>
        <time>2016-10-09T10:00:42.000Z</time>
      </trkpt>
      <trkpt lat="47.44858" lon="6.79424">
        <ele>332</ele>
        <time>2016-10-09T10:00:43.000Z</time>
      </trkpt>
      <trkpt lat="47.44858" lon="6.79424">
        <ele>332</ele>
        <time>2016-10-09T10:00:43.109Z</time>
      </trkpt>
      <trkpt lat="47.44867" lon="6.79432">
        <ele>332</ele>
        <time>2016-10-09T10:00:45.000Z</time>
      </trkpt>
      <trkpt lat="47.44871" lon="6.79436">
        <ele>332</ele>
        <time>2016-10-09T10:00:46.000Z</time>
      </trkpt>
      <trkpt lat="47.44876" lon="6.7944">
        <ele>332</ele>
        <time>2016-10-09T10:00:47.000Z</time>
      </trkpt>
      <trkpt lat="47.44881" lon="6.79443">
        <ele>332</ele>
        <time>2016-10-09T10:00:48.000Z</time>
      </trkpt>
      <trkpt lat="47.44886" lon="6.79447">
        <ele>332</ele>
        <time>2016-10-09T10:00:49.000Z</time>
      </trkpt>
      <trkpt lat="47.44891" lon="6.79451">
        <ele>332</ele>
        <time>2016-10-09T10:00:50.000Z</time>
      </trkpt>
      <trkpt lat="47.44895" lon="6.79455">
        <ele>332</ele>
        <time>2016-10-09T10:00:51.000Z</time>
      </trkpt>
      <trkpt lat="47.449" lon="6.79459">
        <ele>332</ele>
        <time>2016-10-09T10:00:52.000Z</time>
      </trkpt>
      <trkpt lat="47.44905" lon="6.79462">
        <ele>332</ele>
        <time>2016-10-09T10:00:53.000Z</time>
      </trkpt>
      <trkpt lat="47.44909" lon="6.79466">
        <ele>332</ele>
        <time>2016-10-09T10:00:54.000Z</time>
      </trkpt>
      <trkpt lat="47.44914" lon="6.7947">
        <ele>332</ele>
        <time>2016-10-09T10:00:55.000Z</time>
      </trkpt>
      <trkpt lat="47.44919" lon="6.79473">
        <ele>333</ele>
        <time>2016-10-09T10:00:56.000Z</time>
      </trkpt>
      <trkpt lat="47.44923" lon="6.79477">
        <ele>332</ele>
        <time>2016-10-09T10:00:57.000Z</time>
      </trkpt>
      <trkpt lat="47.44928" lon="6.79481">
        <ele>332</ele>
        <time>2016-10-09T10:00:58.000Z</time>
      </trkpt>
      <trkpt lat="47.44933" lon="6.79485">
        <ele>332</ele>
        <time>2016-10-09T10:00:59.000Z</time>
      </trkpt>
      <trkpt lat="47.44938" lon="6.79488">
        <ele>332</ele>
        <time>2016-10-09T10:01:00.000Z</time>
      </trkpt>
      <trkpt lat="47.44942" lon="6.79492">
        <ele>333</ele>
        <time>2016-10-09T10:01:01.000Z</time>
      </trkpt>
      <trkpt lat="47.44942" lon="6.79493">
        <ele>333</ele>
        <time>2016-10-09T10:01:01.105Z</time>
      </trkpt>
      <trkpt lat="47.44951" lon="6.79499">
        <ele>333</ele>
        <time>2016-10-09T10:01:03.000Z</time>
      </trkpt>
      <trkpt lat="47.44956" lon="6.79503">
        <ele>333</ele>
        <time>2016-10-09T10:01:04.000Z</time>
      </trkpt>
      <trkpt lat="47.44961" lon="6.79506">
        <ele>333</ele>
        <time>2016-10-09T10:01:05.000Z</time>
      </trkpt>
      <trkpt lat="47.44965" lon="6.7951">
        <ele>333</ele>
        <time>2016-10-09T10:01:06.000Z</time>
      </trkpt>
      <trkpt lat="47.44969" lon="6.79514">
        <ele>333</ele>
        <time>2016-10-09T10:01:07.000Z</time>
      </trkpt>
      <trkpt lat="47.44974" lon="6.79518">
        <ele>333</ele>
        <time>2016-10-09T10:01:08.000Z</time>
      </trkpt>
      <trkpt lat="47.44978" lon="6.79522">
        <ele>333</ele>
        <time>2016-10-09T10:01:09.000Z</time>
      </trkpt>
      <trkpt lat="47.44983" lon="6.79525">
        <ele>333</ele>
        <time>2016-10-09T10:01:10.000Z</time>
      </trkpt>
      <trkpt lat="47.44987" lon="6.79529">
        <ele>333</ele>
        <time>2016-10-09T10:01:11.000Z</time>
      </trkpt>
      <trkpt lat="47.44991" lon="6.79532">
        <ele>333</ele>
        <time>2016-10-09T10:01:12.000Z</time>
      </trkpt>
      <trkpt lat="47.44996" lon="6.79535">
        <ele>333</ele>
        <time>2016-10-09T10:01:13.000Z</time>
      </trkpt>
      <trkpt lat="47.45" lon="6.79539">
        <ele>333</ele>
        <time>2016-10-09T10:01:14.000Z</time>
      </trkpt>
      <trkpt lat="47.45004" lon="6.79542">
        <ele>333</ele>
        <time>2016-10-09T10:01:15.000Z</time>
      </trkpt>
      <trkpt lat="47.45008" lon="6.79547">
        <ele>333</ele>
        <time>2016-10-09T10:01:16.000Z</time>
      </trkpt>
      <trkpt lat="47.45011" lon="6.79553">
        <ele>333</ele>
        <time>2016-10-09T10:01:17.000Z</time>
      </trkpt>
      <trkpt lat="47.45015" lon="6.79558">
        <ele>333</ele>
        <time>2016-10-09T10:01:18.000Z</time>
      </trkpt>
      <trkpt lat="47.45019" lon="6.79563">
        <ele>333</ele>
        <time>2016-10-09T10:01:19.000Z</time>
      </trkpt>
      <trkpt lat="47.45022" lon="6.79568">
        <ele>333</ele>
        <time>2016-10-09T10:01:20.000Z</time>
      </trkpt>
      <trkpt lat="47.45026" lon="6.79574">
        <ele>333</ele>
        <time>2016-10-09T10:01:21.000Z</time>
      </trkpt>
      <trkpt lat="47.45028" lon="6.7958">
        <ele>333</ele>
        <time>2016-10-09T10:01:22.000Z</time>
      </trkpt>
      <trkpt lat="47.45032" lon="6.79585">
        <ele>334</ele>
        <time>2016-10-09T10:01:23.000Z</time>
      </trkpt>
      <trkpt lat="47.45035" lon="6.7959">
        <ele>334</ele>
        <time>2016-10-09T10:01:24.000Z</time>
      </trkpt>
      <trkpt lat="47.45038" lon="6.79594">
        <ele>334</ele>
        <time>2016-10-09T10:01:25.000Z</time>
      </trkpt>
      <trkpt lat="47.45041" lon="6.79599">
        <ele>334</ele>
        <time>2016-10-09T10:01:26.000Z</time>
      </trkpt>
      <trkpt lat="47.45044" lon="6.79604">
        <ele>334</ele>
        <time>2016-10-09T10:01:27.000Z</time>
      </trkpt>
      <trkpt lat="47.45045" lon="6.79605">
        <ele>334</ele>
        <time>2016-10-09T10:01:28.000Z</time>
      </trkpt>
      <trkpt lat="47.45048" lon="6.79605">
        <ele>334</ele>
        <time>2016-10-09T10:01:29.000Z</time>
      </trkpt>
      <trkpt lat="47.4505" lon="6.79605">
        <ele>334</ele>
        <time>2016-10-09T10:01:30.000Z</time>
      </trkpt>
      <trkpt lat="47.45052" lon="6.79603">
        <ele>334</ele>
        <time>2016-10-09T10:01:31.000Z</time>
      </trkpt>
      <trkpt lat="47.45055" lon="6.79601">
        <ele>334</ele>
        <time>2016-10-09T10:01:32.000Z</time>
      </trkpt>
      <trkpt lat="47.45058" lon="6.796">
        <ele>334</ele>
        <time>2016-10-09T10:01:33.000Z</time>
      </trkpt>
      <trkpt lat="47.4506" lon="6.79598">
        <ele>334</ele>
        <time>2016-10-09T10:01:34.000Z</time>
      </trkpt>
      <trkpt lat="47.45063" lon="6.79597">
        <ele>334</ele>
        <time>2016-10-09T10:01:35.000Z</time>
      </trkpt>
      <trkpt lat="47.45066" lon="6.79594">
        <ele>334</ele>
        <time>2016-10-09T10:01:36.000Z</time>
      </trkpt>
      <trkpt lat="47.45068" lon="6.7959">
        <ele>334</ele>
        <time>2016-10-09T10:01:37.000Z</time>
      </trkpt>
      <trkpt lat="47.45071" lon="6.79585">
        <ele>334</ele>
        <time>2016-10-09T10:01:38.000Z</time>
      </trkpt>
      <trkpt lat="47.45074" lon="6.79579">
        <ele>333</ele>
        <time>2016-10-09T10:01:39.000Z</time>
      </trkpt>
      <trkpt lat="47.45077" lon="6.79574">
        <ele>333</ele>
        <time>2016-10-09T10:01:40.000Z</time>
      </trkpt>
      <trkpt lat="47.4508" lon="6.7957">
        <ele>333</ele>
        <time>2016-10-09T10:01:41.000Z</time>
      </trkpt>
      <trkpt lat="47.45084" lon="6.79566">
        <ele>333</ele>
        <time>2016-10-09T10:01:42.000Z</time>
      </trkpt>
      <trkpt lat="47.45087" lon="6.79562">
        <ele>333</ele>
        <time>2016-10-09T10:01:43.000Z</time>
      </trkpt>
      <trkpt lat="47.4509" lon="6.79558">
        <ele>333</ele>
        <time>2016-10-09T10:01:44.000Z</time>
      </trkpt>
      <trkpt lat="47.45093" lon="6.79554">
        <ele>333</ele>
        <time>2016-10-09T10:01:45.000Z</time>
      </trkpt>
      <trkpt lat="47.45096" lon="6.7955">
        <ele>333</ele>
        <time>2016-10-09T10:01:46.000Z</time>
      </trkpt>
      <trkpt lat="47.451" lon="6.79546">
        <ele>333</ele>
        <time>2016-10-09T10:01:47.000Z</time>
      </trkpt>
      <trkpt lat="47.45103" lon="6.79542">
        <ele>333</ele>
        <time>2016-10-09T10:01:48.000Z</time>
      </trkpt>
      <trkpt lat="47.45106" lon="6.79538">
        <ele>333</ele>
        <time>2016-10-09T10:01:49.000Z</time>
      </trkpt>
      <trkpt lat="47.4511" lon="6.79535">
        <ele>333</ele>
        <time>2016-10-09T10:01:50.000Z</time>
      </trkpt>
      <trkpt lat="47.45113" lon="6.79531">
        <ele>333</ele>
        <time>2016-10-09T10:01:51.000Z</time>
      </trkpt>
      <trkpt lat="47.45116" lon="6.79528">
        <ele>333</ele>
        <time>2016-10-09T10:01:52.000Z</time>
      </trkpt>
      <trkpt lat="47.45119" lon="6.79524">
        <ele>333</ele>
        <time>2016-10-09T10:01:53.000Z</time>
      </trkpt>
      <trkpt lat="47.45121" lon="6.79521">
        <ele>333</ele>
        <time>2016-10-09T10:01:54.000Z</time>
      </trkpt>
      <trkpt lat="47.45123" lon="6.79518">
        <ele>333</ele>
        <time>2016-10-09T10:01:55.000Z</time>
      </trkpt>
      <trkpt lat="47.45124" lon="6.79514">
        <ele>333</ele>
        <time>2016-10-09T10:01:56.000Z</time>
      </trkpt>
      <trkpt lat="47.45125" lon="6.79509">
        <ele>333</ele>
        <time>2016-10-09T10:01:57.000Z</time>
      </trkpt>
      <trkpt lat="47.45126" lon="6.79504">
        <ele>333</ele>
        <time>2016-10-09T10:01:58.000Z</time>
      </trkpt>
      <trkpt lat="47.45126" lon="6.79493">
        <ele>333</ele>
        <time>2016-10-09T10:01:59.000Z</time>
      </trkpt>
      <trkpt lat="47.45127" lon="6.79487">
        <ele>333</ele>
        <time>2016-10-09T10:02:00.000Z</time>
      </trkpt>
      <trkpt lat="47.4513" lon="6.79482">
        <ele>333</ele>
        <time>2016-10-09T10:02:01.000Z</time>
      </trkpt>
      <trkpt lat="47.45131" lon="6.79477">
        <ele>333</ele>
        <time>2016-10-09T10:02:02.000Z</time>
      </trkpt>
      <trkpt lat="47.45132" lon="6.79472">
        <ele>333</ele>
        <time>2016-10-09T10:02:03.000Z</time>
      </trkpt>
      <trkpt lat="47.45134" lon="6.79467">
        <ele>333</ele>
        <time>2016-10-09T10:02:04.000Z</time>
      </trkpt>
      <trkpt lat="47.45135" lon="6.79462">
        <ele>333</ele>
        <time>2016-10-09T10:02:05.000Z</time>
      </trkpt>
      <trkpt lat="47.45136" lon="6.79455">
        <ele>333</ele>
        <time>2016-10-09T10:02:06.000Z</time>
      </trkpt>
      <trkpt lat="47.45137" lon="6.79451">
        <ele>333</ele>
        <time>2016-10-09T10:02:07.000Z</time>
      </trkpt>
      <trkpt lat="47.45138" lon="6.79446">
        <ele>333</ele>
        <time>2016-10-09T10:02:08.000Z</time>
      </trkpt>
      <trkpt lat="47.45139" lon="6.7944">
        <ele>333</ele>
        <time>2016-10-09T10:02:09.000Z</time>
      </trkpt>
      <trkpt lat="47.4514" lon="6.79434">
        <ele>333</ele>
        <time>2016-10-09T10:02:10.000Z</time>
      </trkpt>
      <trkpt lat="47.45142" lon="6.79428">
        <ele>333</ele>
        <time>2016-10-09T10:02:11.000Z</time>
      </trkpt>
      <trkpt lat="47.45143" lon="6.79422">
        <ele>333</ele>
        <time>2016-10-09T10:02:12.000Z</time>
      </trkpt>
      <trkpt lat="47.45144" lon="6.79416">
        <ele>333</ele>
        <time>2016-10-09T10:02:13.000Z</time>
      </trkpt>
      <trkpt lat="47.45146" lon="6.79407">
        <ele>333</ele>
        <time>2016-10-09T10:02:14.000Z</time>
      </trkpt>
      <trkpt lat="47.45147" lon="6.79401">
        <ele>333</ele>
        <time>2016-10-09T10:02:15.000Z</time>
      </trkpt>
      <trkpt lat="47.45149" lon="6.79394">
        <ele>334</ele>
        <time>2016-10-09T10:02:16.000Z</time>
      </trkpt>
      <trkpt lat="47.45151" lon="6.79387">
        <ele>334</ele>
        <time>2016-10-09T10:02:17.000Z</time>
      </trkpt>
      <trkpt lat="47.45152" lon="6.7938">
        <ele>334</ele>
        <time>2016-10-09T10:02:18.000Z</time>
      </trkpt>
      <trkpt lat="47.45154" lon="6.79374">
        <ele>334</ele>
        <time>2016-10-09T10:02:19.000Z</time>
      </trkpt>
      <trkpt lat="47.45156" lon="6.79368">
        <ele>334</ele>
        <time>2016-10-09T10:02:20.000Z</time>
      </trkpt>
      <trkpt lat="47.45158" lon="6.79361">
        <ele>334</ele>
        <time>2016-10-09T10:02:21.000Z</time>
      </trkpt>
      <trkpt lat="47.4516" lon="6.79354">
        <ele>334</ele>
        <time>2016-10-09T10:02:22.000Z</time>
      </trkpt>
      <trkpt lat="47.45162" lon="6.79347">
        <ele>334</ele>
        <time>2016-10-09T10:02:23.000Z</time>
      </trkpt>
      <trkpt lat="47.45163" lon="6.79341">
        <ele>335</ele>
        <time>2016-10-09T10:02:24.000Z</time>
      </trkpt>
      <trkpt lat="47.45165" lon="6.79334">
        <ele>335</ele>
        <time>2016-10-09T10:02:25.000Z</time>
      </trkpt>
      <trkpt lat="47.45167" lon="6.79327">
        <ele>335</ele>
        <time>2016-10-09T10:02:26.000Z</time>
      </trkpt>
      <trkpt lat="47.45168" lon="6.79321">
        <ele>335</ele>
        <time>2016-10-09T10:02:27.000Z</time>
      </trkpt>
      <trkpt lat="47.4517" lon="6.79315">
        <ele>335</ele>
        <time>2016-10-09T10:02:28.000Z</time>
      </trkpt>
      <trkpt lat="47.45171" lon="6.79308">
        <ele>334</ele>
        <time>2016-10-09T10:02:29.000Z</time>
      </trkpt>
      <trkpt lat="47.45172" lon="6.79302">
        <ele>334</ele>
        <time>2016-10-09T10:02:30.000Z</time>
      </trkpt>
      <trkpt lat="47.45174" lon="6.79295">
        <ele>334</ele>
        <time>2016-10-09T10:02:31.000Z</time>
      </trkpt>
      <trkpt lat="47.45176" lon="6.79288">
        <ele>335</ele>
        <time>2016-10-09T10:02:32.000Z</time>
      </trkpt>
      <trkpt lat="47.45178" lon="6.79282">
        <ele>335</ele>
        <time>2016-10-09T10:02:33.000Z</time>
      </trkpt>
      <trkpt lat="47.4518" lon="6.79277">
        <ele>335</ele>
        <time>2016-10-09T10:02:34.000Z</time>
      </trkpt>
      <trkpt lat="47.45181" lon="6.79274">
        <ele>335</ele>
        <time>2016-10-09T10:02:35.000Z</time>
      </trkpt>
      <trkpt lat="47.45185" lon="6.79269">
        <ele>335</ele>
        <time>2016-10-09T10:02:36.000Z</time>
      </trkpt>
      <trkpt lat="47.45189" lon="6.79265">
        <ele>335</ele>
        <time>2016-10-09T10:02:37.000Z</time>
      </trkpt>
      <trkpt lat="47.45189" lon="6.79265">
        <ele>335</ele>
        <time>2016-10-09T10:02:37.106Z</time>
      </trkpt>
      <trkpt lat="47.45195" lon="6.79254">
        <ele>335</ele>
        <time>2016-10-09T10:02:39.000Z</time>
      </trkpt>
      <trkpt lat="47.45198" lon="6.79246">
        <ele>334</ele>
        <time>2016-10-09T10:02:40.000Z</time>
      </trkpt>
      <trkpt lat="47.45199" lon="6.79238">
        <ele>334</ele>
        <time>2016-10-09T10:02:41.000Z</time>
      </trkpt>
      <trkpt lat="47.452" lon="6.79231">
        <ele>334</ele>
        <time>2016-10-09T10:02:42.000Z</time>
      </trkpt>
      <trkpt lat="47.45201" lon="6.79224">
        <ele>334</ele>
        <time>2016-10-09T10:02:43.000Z</time>
      </trkpt>
      <trkpt lat="47.45202" lon="6.79217">
        <ele>334</ele>
        <time>2016-10-09T10:02:44.000Z</time>
      </trkpt>
      <trkpt lat="47.45204" lon="6.7921">
        <ele>334</ele>
        <time>2016-10-09T10:02:45.000Z</time>
      </trkpt>
      <trkpt lat="47.45206" lon="6.79204">
        <ele>334</ele>
        <time>2016-10-09T10:02:46.000Z</time>
      </trkpt>
      <trkpt lat="47.45208" lon="6.79198">
        <ele>334</ele>
        <time>2016-10-09T10:02:47.000Z</time>
      </trkpt>
      <trkpt lat="47.45209" lon="6.79191">
        <ele>334</ele>
        <time>2016-10-09T10:02:48.000Z</time>
      </trkpt>
      <trkpt lat="47.4521" lon="6.79184">
        <ele>334</ele>
        <time>2016-10-09T10:02:49.000Z</time>
      </trkpt>
      <trkpt lat="47.45212" lon="6.79177">
        <ele>333</ele>
        <time>2016-10-09T10:02:50.000Z</time>
      </trkpt>
      <trkpt lat="47.45213" lon="6.7917">
        <ele>333</ele>
        <time>2016-10-09T10:02:51.000Z</time>
      </trkpt>
      <trkpt lat="47.45215" lon="6.79164">
        <ele>333</ele>
        <time>2016-10-09T10:02:52.000Z</time>
      </trkpt>
      <trkpt lat="47.45217" lon="6.79157">
        <ele>333</ele>
        <time>2016-10-09T10:02:53.000Z</time>
      </trkpt>
      <trkpt lat="47.45218" lon="6.7915">
        <ele>333</ele>
        <time>2016-10-09T10:02:54.000Z</time>
      </trkpt>
      <trkpt lat="47.4522" lon="6.79143">
        <ele>333</ele>
        <time>2016-10-09T10:02:55.000Z</time>
      </trkpt>
      <trkpt lat="47.45222" lon="6.79137">
        <ele>333</ele>
        <time>2016-10-09T10:02:56.000Z</time>
      </trkpt>
      <trkpt lat="47.45225" lon="6.79134">
        <ele>333</ele>
        <time>2016-10-09T10:02:57.000Z</time>
      </trkpt>
      <trkpt lat="47.4523" lon="6.79132">
        <ele>333</ele>
        <time>2016-10-09T10:02:58.000Z</time>
      </trkpt>
      <trkpt lat="47.45234" lon="6.7913">
        <ele>333</ele>
        <time>2016-10-09T10:02:59.000Z</time>
      </trkpt>
      <trkpt lat="47.45239" lon="6.79129">
        <ele>333</ele>
        <time>2016-10-09T10:03:00.000Z</time>
      </trkpt>
      <trkpt lat="47.45243" lon="6.79126">
        <ele>333</ele>
        <time>2016-10-09T10:03:01.000Z</time>
      </trkpt>
      <trkpt lat="47.45248" lon="6.7912">
        <ele>333</ele>
        <time>2016-10-09T10:03:02.000Z</time>
      </trkpt>
      <trkpt lat="47.45251" lon="6.79114">
        <ele>332</ele>
        <time>2016-10-09T10:03:03.000Z</time>
      </trkpt>
      <trkpt lat="47.45254" lon="6.79107">
        <ele>332</ele>
        <time>2016-10-09T10:03:04.000Z</time>
      </trkpt>
      <trkpt lat="47.45256" lon="6.791">
        <ele>332</ele>
        <time>2016-10-09T10:03:05.000Z</time>
      </trkpt>
      <trkpt lat="47.45259" lon="6.79092">
        <ele>332</ele>
        <time>2016-10-09T10:03:06.000Z</time>
      </trkpt>
      <trkpt lat="47.45261" lon="6.79086">
        <ele>332</ele>
        <time>2016-10-09T10:03:07.000Z</time>
      </trkpt>
      <trkpt lat="47.45263" lon="6.79078">
        <ele>332</ele>
        <time>2016-10-09T10:03:08.000Z</time>
      </trkpt>
      <trkpt lat="47.45266" lon="6.7907">
        <ele>332</ele>
        <time>2016-10-09T10:03:09.000Z</time>
      </trkpt>
      <trkpt lat="47.45268" lon="6.79061">
        <ele>332</ele>
        <time>2016-10-09T10:03:10.000Z</time>
      </trkpt>
      <trkpt lat="47.45271" lon="6.79052">
        <ele>331</ele>
        <time>2016-10-09T10:03:11.000Z</time>
      </trkpt>
      <trkpt lat="47.45273" lon="6.79045">
        <ele>331</ele>
        <time>2016-10-09T10:03:12.000Z</time>
      </trkpt>
      <trkpt lat="47.45273" lon="6.79037">
        <ele>331</ele>
        <time>2016-10-09T10:03:13.000Z</time>
      </trkpt>
      <trkpt lat="47.45278" lon="6.79032">
        <ele>331</ele>
        <time>2016-10-09T10:03:14.000Z</time>
      </trkpt>
      <trkpt lat="47.45281" lon="6.79026">
        <ele>331</ele>
        <time>2016-10-09T10:03:15.000Z</time>
      </trkpt>
      <trkpt lat="47.45286" lon="6.79019">
        <ele>331</ele>
        <time>2016-10-09T10:03:16.000Z</time>
      </trkpt>
      <trkpt lat="47.45291" lon="6.79012">
        <ele>331</ele>
        <time>2016-10-09T10:03:17.000Z</time>
      </trkpt>
      <trkpt lat="47.45295" lon="6.79005">
        <ele>331</ele>
        <time>2016-10-09T10:03:18.000Z</time>
      </trkpt>
      <trkpt lat="47.45298" lon="6.78999">
        <ele>331</ele>
        <time>2016-10-09T10:03:19.000Z</time>
      </trkpt>
      <trkpt lat="47.45302" lon="6.78992">
        <ele>331</ele>
        <time>2016-10-09T10:03:20.000Z</time>
      </trkpt>
      <trkpt lat="47.45306" lon="6.78986">
        <ele>331</ele>
        <time>2016-10-09T10:03:21.000Z</time>
      </trkpt>
      <trkpt lat="47.45311" lon="6.78981">
        <ele>331</ele>
        <time>2016-10-09T10:03:22.000Z</time>
      </trkpt>
      <trkpt lat="47.45315" lon="6.78976">
        <ele>331</ele>
        <time>2016-10-09T10:03:23.000Z</time>
      </trkpt>
      <trkpt lat="47.45319" lon="6.7897">
        <ele>331</ele>
        <time>2016-10-09T10:03:24.000Z</time>
      </trkpt>
      <trkpt lat="47.45323" lon="6.78963">
        <ele>331</ele>
        <time>2016-10-09T10:03:25.000Z</time>
      </trkpt>
      <trkpt lat="47.45327" lon="6.78958">
        <ele>331</ele>
        <time>2016-10-09T10:03:26.000Z</time>
      </trkpt>
      <trkpt lat="47.45331" lon="6.78953">
        <ele>331</ele>
        <time>2016-10-09T10:03:27.000Z</time>
      </trkpt>
      <trkpt lat="47.45335" lon="6.78947">
        <ele>331</ele>
        <time>2016-10-09T10:03:28.000Z</time>
      </trkpt>
      <trkpt lat="47.45339" lon="6.78941">
        <ele>331</ele>
        <time>2016-10-09T10:03:29.000Z</time>
      </trkpt>
      <trkpt lat="47.45343" lon="6.78935">
        <ele>331</ele>
        <time>2016-10-09T10:03:30.000Z</time>
      </trkpt>
      <trkpt lat="47.45347" lon="6.7893">
        <ele>331</ele>
        <time>2016-10-09T10:03:31.000Z</time>
      </trkpt>
      <trkpt lat="47.45351" lon="6.78924">
        <ele>331</ele>
        <time>2016-10-09T10:03:32.000Z</time>
      </trkpt>
      <trkpt lat="47.45354" lon="6.78919">
        <ele>331</ele>
        <time>2016-10-09T10:03:33.000Z</time>
      </trkpt>
      <trkpt lat="47.45358" lon="6.78914">
        <ele>332</ele>
        <time>2016-10-09T10:03:34.000Z</time>
      </trkpt>
      <trkpt lat="47.45361" lon="6.78909">
        <ele>332</ele>
        <time>2016-10-09T10:03:35.000Z</time>
      </trkpt>
      <trkpt lat="47.45364" lon="6.78903">
        <ele>332</ele>
        <time>2016-10-09T10:03:36.000Z</time>
      </trkpt>
      <trkpt lat="47.45368" lon="6.78899">
        <ele>332</ele>
        <time>2016-10-09T10:03:37.000Z</time>
      </trkpt>
      <trkpt lat="47.45371" lon="6.78895">
        <ele>332</ele>
        <time>2016-10-09T10:03:38.000Z</time>
      </trkpt>
      <trkpt lat="47.45375" lon="6.78889">
        <ele>332</ele>
        <time>2016-10-09T10:03:39.000Z</time>
      </trkpt>
      <trkpt lat="47.45377" lon="6.78886">
        <ele>332</ele>
        <time>2016-10-09T10:03:40.000Z</time>
      </trkpt>
      <trkpt lat="47.45381" lon="6.78879">
        <ele>332</ele>
        <time>2016-10-09T10:03:41.000Z</time>
      </trkpt>
      <trkpt lat="47.45384" lon="6.78875">
        <ele>332</ele>
        <time>2016-10-09T10:03:42.000Z</time>
      </trkpt>
      <trkpt lat="47.45388" lon="6.7887">
        <ele>332</ele>
        <time>2016-10-09T10:03:43.000Z</time>
      </trkpt>
      <trkpt lat="47.45391" lon="6.78866">
        <ele>332</ele>
        <time>2016-10-09T10:03:44.000Z</time>
      </trkpt>
      <trkpt lat="47.45394" lon="6.78861">
        <ele>332</ele>
        <time>2016-10-09T10:03:45.000Z</time>
      </trkpt>
      <trkpt lat="47.45399" lon="6.78858">
        <ele>332</ele>
        <time>2016-10-09T10:03:46.000Z</time>
      </trkpt>
      <trkpt lat="47.45401" lon="6.78855">
        <ele>332</ele>
        <time>2016-10-09T10:03:47.000Z</time>
      </trkpt>
      <trkpt lat="47.45402" lon="6.7885">
        <ele>332</ele>
        <time>2016-10-09T10:03:48.000Z</time>
      </trkpt>
      <trkpt lat="47.45405" lon="6.78845">
        <ele>332</ele>
        <time>2016-10-09T10:03:49.000Z</time>
      </trkpt>
      <trkpt lat="47.45408" lon="6.78841">
        <ele>332</ele>
        <time>2016-10-09T10:03:50.000Z</time>
      </trkpt>
      <trkpt lat="47.45411" lon="6.78838">
        <ele>332</ele>
        <time>2016-10-09T10:03:51.000Z</time>
      </trkpt>
      <trkpt lat="47.45414" lon="6.78835">
        <ele>332</ele>
        <time>2016-10-09T10:03:52.000Z</time>
      </trkpt>
      <trkpt lat="47.45417" lon="6.78831">
        <ele>332</ele>
        <time>2016-10-09T10:03:53.000Z</time>
      </trkpt>
      <trkpt lat="47.4542" lon="6.78827">
        <ele>332</ele>
        <time>2016-10-09T10:03:54.000Z</time>
      </trkpt>
      <trkpt lat="47.45423" lon="6.78824">
        <ele>332</ele>
        <time>2016-10-09T10:03:55.000Z</time>
      </trkpt>
      <trkpt lat="47.45426" lon="6.78821">
        <ele>333</ele>
        <time>2016-10-09T10:03:56.000Z</time>
      </trkpt>
      <trkpt lat="47.45429" lon="6.78817">
        <ele>333</ele>
        <time>2016-10-09T10:03:57.000Z</time>
      </trkpt>
      <trkpt lat="47.45432" lon="6.78814">
        <ele>333</ele>
        <time>2016-10-09T10:03:58.000Z</time>
      </trkpt>
      <trkpt lat="47.45435" lon="6.78811">
        <ele>333</ele>
        <time>2016-10-09T10:03:59.000Z</time>
      </trkpt>
      <trkpt lat="47.45438" lon="6.78807">
        <ele>333</ele>
        <time>2016-10-09T10:04:00.000Z</time>
      </trkpt>
      <trkpt lat="47.4544" lon="6.78804">
        <ele>333</ele>
        <time>2016-10-09T10:04:01.000Z</time>
      </trkpt>
      <trkpt lat="47.45443" lon="6.78801">
        <ele>333</ele>
        <time>2016-10-09T10:04:02.000Z</time>
      </trkpt>
      <trkpt lat="47.45445" lon="6.78797">
        <ele>333</ele>
        <time>2016-10-09T10:04:03.000Z</time>
      </trkpt>
      <trkpt lat="47.45448" lon="6.78794">
        <ele>333</ele>
        <time>2016-10-09T10:04:04.000Z</time>
      </trkpt>
      <trkpt lat="47.45453" lon="6.78787">
        <ele>333</ele>
        <time>2016-10-09T10:04:06.000Z</time>
      </trkpt>
      <trkpt lat="47.45456" lon="6.78783">
        <ele>333</ele>
        <time>2016-10-09T10:04:07.000Z</time>
      </trkpt>
      <trkpt lat="47.4546" lon="6.7878">
        <ele>333</ele>
        <time>2016-10-09T10:04:08.000Z</time>
      </trkpt>
      <trkpt lat="47.45463" lon="6.78777">
        <ele>333</ele>
        <time>2016-10-09T10:04:09.000Z</time>
      </trkpt>
      <trkpt lat="47.45466" lon="6.78774">
        <ele>333</ele>
        <time>2016-10-09T10:04:10.000Z</time>
      </trkpt>
      <trkpt lat="47.45469" lon="6.7877">
        <ele>334</ele>
        <time>2016-10-09T10:04:11.000Z</time>
      </trkpt>
      <trkpt lat="47.45473" lon="6.78767">
        <ele>334</ele>
        <time>2016-10-09T10:04:12.000Z</time>
      </trkpt>
      <trkpt lat="47.45475" lon="6.78764">
        <ele>334</ele>
        <time>2016-10-09T10:04:13.000Z</time>
      </trkpt>
      <trkpt lat="47.45478" lon="6.78761">
        <ele>334</ele>
        <time>2016-10-09T10:04:14.000Z</time>
      </trkpt>
      <trkpt lat="47.4548" lon="6.78759">
        <ele>334</ele>
        <time>2016-10-09T10:04:15.000Z</time>
      </trkpt>
      <trkpt lat="47.45482" lon="6.78756">
        <ele>334</ele>
        <time>2016-10-09T10:04:16.000Z</time>
      </trkpt>
      <trkpt lat="47.45484" lon="6.78752">
        <ele>334</ele>
        <time>2016-10-09T10:04:18.000Z</time>
      </trkpt>
      <trkpt lat="47.45485" lon="6.7875">
        <ele>334</ele>
        <time>2016-10-09T10:04:19.000Z</time>
      </trkpt>
      <trkpt lat="47.45484" lon="6.78744">
        <ele>335</ele>
        <time>2016-10-09T10:04:21.000Z</time>
      </trkpt>
      <trkpt lat="47.45483" lon="6.7874">
        <ele>335</ele>
        <time>2016-10-09T10:04:22.000Z</time>
      </trkpt>
      <trkpt lat="47.45482" lon="6.78737">
        <ele>335</ele>
        <time>2016-10-09T10:04:23.000Z</time>
      </trkpt>
      <trkpt lat="47.4548" lon="6.78735">
        <ele>335</ele>
        <time>2016-10-09T10:04:24.000Z</time>
      </trkpt>
      <trkpt lat="47.45478" lon="6.78732">
        <ele>335</ele>
        <time>2016-10-09T10:04:25.000Z</time>
      </trkpt>
      <trkpt lat="47.45476" lon="6.78729">
        <ele>335</ele>
        <time>2016-10-09T10:04:26.000Z</time>
      </trkpt>
      <trkpt lat="47.45474" lon="6.78726">
        <ele>335</ele>
        <time>2016-10-09T10:04:27.105Z</time>
      </trkpt>
      <trkpt lat="47.45471" lon="6.78719">
        <ele>335</ele>
        <time>2016-10-09T10:04:29.000Z</time>
      </trkpt>
      <trkpt lat="47.45469" lon="6.78715">
        <ele>335</ele>
        <time>2016-10-09T10:04:30.000Z</time>
      </trkpt>
      <trkpt lat="47.45467" lon="6.78711">
        <ele>335</ele>
        <time>2016-10-09T10:04:31.000Z</time>
      </trkpt>
      <trkpt lat="47.45465" lon="6.78708">
        <ele>335</ele>
        <time>2016-10-09T10:04:32.000Z</time>
      </trkpt>
      <trkpt lat="47.45462" lon="6.78705">
        <ele>335</ele>
        <time>2016-10-09T10:04:33.000Z</time>
      </trkpt>
      <trkpt lat="47.45462" lon="6.78704">
        <ele>335</ele>
        <time>2016-10-09T10:04:33.104Z</time>
      </trkpt>
      <trkpt lat="47.45458" lon="6.78697">
        <ele>335</ele>
        <time>2016-10-09T10:04:35.000Z</time>
      </trkpt>
      <trkpt lat="47.45456" lon="6.78693">
        <ele>335</ele>
        <time>2016-10-09T10:04:36.000Z</time>
      </trkpt>
      <trkpt lat="47.45454" lon="6.78689">
        <ele>335</ele>
        <time>2016-10-09T10:04:37.000Z</time>
      </trkpt>
      <trkpt lat="47.45451" lon="6.78685">
        <ele>335</ele>
        <time>2016-10-09T10:04:38.000Z</time>
      </trkpt>
      <trkpt lat="47.45449" lon="6.7868">
        <ele>335</ele>
        <time>2016-10-09T10:04:39.000Z</time>
      </trkpt>
      <trkpt lat="47.45447" lon="6.78676">
        <ele>335</ele>
        <time>2016-10-09T10:04:40.000Z</time>
      </trkpt>
      <trkpt lat="47.45444" lon="6.78672">
        <ele>335</ele>
        <time>2016-10-09T10:04:41.000Z</time>
      </trkpt>
      <trkpt lat="47.45442" lon="6.78668">
        <ele>335</ele>
        <time>2016-10-09T10:04:42.000Z</time>
      </trkpt>
      <trkpt lat="47.45439" lon="6.78665">
        <ele>337</ele>
        <time>2016-10-09T10:04:43.000Z</time>
      </trkpt>
      <trkpt lat="47.45437" lon="6.78661">
        <ele>337</ele>
        <time>2016-10-09T10:04:44.000Z</time>
      </trkpt>
      <trkpt lat="47.45435" lon="6.78658">
        <ele>337</ele>
        <time>2016-10-09T10:04:45.000Z</time>
      </trkpt>
      <trkpt lat="47.45433" lon="6.78654">
        <ele>337</ele>
        <time>2016-10-09T10:04:46.000Z</time>
      </trkpt>
      <trkpt lat="47.45431" lon="6.7865">
        <ele>337</ele>
        <time>2016-10-09T10:04:47.000Z</time>
      </trkpt>
      <trkpt lat="47.45428" lon="6.78647">
        <ele>337</ele>
        <time>2016-10-09T10:04:48.000Z</time>
      </trkpt>
      <trkpt lat="47.45426" lon="6.78643">
        <ele>337</ele>
        <time>2016-10-09T10:04:49.000Z</time>
      </trkpt>
      <trkpt lat="47.45423" lon="6.78639">
        <ele>337</ele>
        <time>2016-10-09T10:04:50.000Z</time>
      </trkpt>
      <trkpt lat="47.4542" lon="6.78634">
        <ele>338</ele>
        <time>2016-10-09T10:04:51.000Z</time>
      </trkpt>
      <trkpt lat="47.45417" lon="6.7863">
        <ele>338</ele>
        <time>2016-10-09T10:04:52.000Z</time>
      </trkpt>
      <trkpt lat="47.45415" lon="6.78625">
        <ele>336</ele>
        <time>2016-10-09T10:04:53.000Z</time>
      </trkpt>
      <trkpt lat="47.45412" lon="6.78621">
        <ele>336</ele>
        <time>2016-10-09T10:04:54.000Z</time>
      </trkpt>
      <trkpt lat="47.45409" lon="6.78617">
        <ele>336</ele>
        <time>2016-10-09T10:04:55.000Z</time>
      </trkpt>
      <trkpt lat="47.45407" lon="6.78612">
        <ele>336</ele>
        <time>2016-10-09T10:04:56.000Z</time>
      </trkpt>
      <trkpt lat="47.45404" lon="6.78608">
        <ele>336</ele>
        <time>2016-10-09T10:04:57.000Z</time>
      </trkpt>
      <trkpt lat="47.45402" lon="6.78604">
        <ele>336</ele>
        <time>2016-10-09T10:04:58.000Z</time>
      </trkpt>
      <trkpt lat="47.45399" lon="6.78599">
        <ele>336</ele>
        <time>2016-10-09T10:04:59.000Z</time>
      </trkpt>
      <trkpt lat="47.45399" lon="6.78599">
        <ele>336</ele>
        <time>2016-10-09T10:04:59.106Z</time>
      </trkpt>
      <trkpt lat="47.45394" lon="6.7859">
        <ele>336</ele>
        <time>2016-10-09T10:05:01.000Z</time>
      </trkpt>
      <trkpt lat="47.45391" lon="6.78586">
        <ele>336</ele>
        <time>2016-10-09T10:05:02.000Z</time>
      </trkpt>
      <trkpt lat="47.45389" lon="6.78581">
        <ele>338</ele>
        <time>2016-10-09T10:05:03.000Z</time>
      </trkpt>
      <trkpt lat="47.45386" lon="6.78576">
        <ele>338</ele>
        <time>2016-10-09T10:05:04.000Z</time>
      </trkpt>
      <trkpt lat="47.45384" lon="6.78571">
        <ele>338</ele>
        <time>2016-10-09T10:05:05.000Z</time>
      </trkpt>
      <trkpt lat="47.45382" lon="6.78566">
        <ele>338</ele>
        <time>2016-10-09T10:05:06.000Z</time>
      </trkpt>
      <trkpt lat="47.45379" lon="6.78562">
        <ele>338</ele>
        <time>2016-10-09T10:05:07.000Z</time>
      </trkpt>
      <trkpt lat="47.45377" lon="6.78558">
        <ele>338</ele>
        <time>2016-10-09T10:05:08.000Z</time>
      </trkpt>
      <trkpt lat="47.45374" lon="6.78553">
        <ele>338</ele>
        <time>2016-10-09T10:05:09.000Z</time>
      </trkpt>
      <trkpt lat="47.45372" lon="6.78549">
        <ele>338</ele>
        <time>2016-10-09T10:05:10.000Z</time>
      </trkpt>
      <trkpt lat="47.45371" lon="6.78544">
        <ele>338</ele>
        <time>2016-10-09T10:05:11.000Z</time>
      </trkpt>
      <trkpt lat="47.4537" lon="6.78538">
        <ele>338</ele>
        <time>2016-10-09T10:05:12.000Z</time>
      </trkpt>
      <trkpt lat="47.45369" lon="6.78533">
        <ele>338</ele>
        <time>2016-10-09T10:05:13.000Z</time>
      </trkpt>
      <trkpt lat="47.45369" lon="6.78529">
        <ele>339</ele>
        <time>2016-10-09T10:05:14.000Z</time>
      </trkpt>
      <trkpt lat="47.45368" lon="6.78525">
        <ele>339</ele>
        <time>2016-10-09T10:05:15.000Z</time>
      </trkpt>
      <trkpt lat="47.45367" lon="6.78519">
        <ele>339</ele>
        <time>2016-10-09T10:05:17.000Z</time>
      </trkpt>
      <trkpt lat="47.45367" lon="6.78516">
        <ele>339</ele>
        <time>2016-10-09T10:05:18.000Z</time>
      </trkpt>
      <trkpt lat="47.45367" lon="6.78512">
        <ele>339</ele>
        <time>2016-10-09T10:05:19.000Z</time>
      </trkpt>
      <trkpt lat="47.45366" lon="6.78508">
        <ele>339</ele>
        <time>2016-10-09T10:05:20.000Z</time>
      </trkpt>
      <trkpt lat="47.45367" lon="6.78504">
        <ele>339</ele>
        <time>2016-10-09T10:05:21.000Z</time>
      </trkpt>
      <trkpt lat="47.45367" lon="6.78501">
        <ele>339</ele>
        <time>2016-10-09T10:05:22.000Z</time>
      </trkpt>
      <trkpt lat="47.45368" lon="6.78497">
        <ele>341</ele>
        <time>2016-10-09T10:05:23.000Z</time>
      </trkpt>
      <trkpt lat="47.45369" lon="6.78493">
        <ele>341</ele>
        <time>2016-10-09T10:05:24.000Z</time>
      </trkpt>
      <trkpt lat="47.45371" lon="6.7849">
        <ele>341</ele>
        <time>2016-10-09T10:05:25.000Z</time>
      </trkpt>
      <trkpt lat="47.45373" lon="6.78487">
        <ele>342</ele>
        <time>2016-10-09T10:05:26.000Z</time>
      </trkpt>
      <trkpt lat="47.45376" lon="6.78484">
        <ele>342</ele>
        <time>2016-10-09T10:05:27.000Z</time>
      </trkpt>
      <trkpt lat="47.45378" lon="6.78483">
        <ele>342</ele>
        <time>2016-10-09T10:05:28.000Z</time>
      </trkpt>
      <trkpt lat="47.45381" lon="6.78482">
        <ele>342</ele>
        <time>2016-10-09T10:05:29.000Z</time>
      </trkpt>
      <trkpt lat="47.45383" lon="6.78482">
        <ele>342</ele>
        <time>2016-10-09T10:05:30.000Z</time>
      </trkpt>
      <trkpt lat="47.45385" lon="6.78483">
        <ele>342</ele>
        <time>2016-10-09T10:05:31.110Z</time>
      </trkpt>
      <trkpt lat="47.45388" lon="6.78485">
        <ele>342</ele>
        <time>2016-10-09T10:05:33.000Z</time>
      </trkpt>
      <trkpt lat="47.45391" lon="6.78488">
        <ele>343</ele>
        <time>2016-10-09T10:05:35.000Z</time>
      </trkpt>
      <trkpt lat="47.45393" lon="6.78489">
        <ele>343</ele>
        <time>2016-10-09T10:05:36.000Z</time>
      </trkpt>
      <trkpt lat="47.45397" lon="6.78492">
        <ele>343</ele>
        <time>2016-10-09T10:05:38.000Z</time>
      </trkpt>
      <trkpt lat="47.45399" lon="6.78493">
        <ele>343</ele>
        <time>2016-10-09T10:05:39.000Z</time>
      </trkpt>
      <trkpt lat="47.45401" lon="6.78495">
        <ele>343</ele>
        <time>2016-10-09T10:05:40.000Z</time>
      </trkpt>
      <trkpt lat="47.45403" lon="6.78497">
        <ele>343</ele>
        <time>2016-10-09T10:05:41.000Z</time>
      </trkpt>
      <trkpt lat="47.45406" lon="6.78499">
        <ele>343</ele>
        <time>2016-10-09T10:05:43.000Z</time>
      </trkpt>
      <trkpt lat="47.45408" lon="6.785">
        <ele>342</ele>
        <time>2016-10-09T10:05:44.000Z</time>
      </trkpt>
      <trkpt lat="47.45412" lon="6.78502">
        <ele>343</ele>
        <time>2016-10-09T10:05:46.000Z</time>
      </trkpt>
      <trkpt lat="47.45414" lon="6.78502">
        <ele>343</ele>
        <time>2016-10-09T10:05:47.000Z</time>
      </trkpt>
      <trkpt lat="47.45418" lon="6.78503">
        <ele>344</ele>
        <time>2016-10-09T10:05:49.000Z</time>
      </trkpt>
      <trkpt lat="47.4542" lon="6.78503">
        <ele>344</ele>
        <time>2016-10-09T10:05:50.000Z</time>
      </trkpt>
      <trkpt lat="47.45424" lon="6.78504">
        <ele>344</ele>
        <time>2016-10-09T10:05:53.000Z</time>
      </trkpt>
      <trkpt lat="47.45426" lon="6.78503">
        <ele>344</ele>
        <time>2016-10-09T10:05:54.000Z</time>
      </trkpt>
      <trkpt lat="47.45429" lon="6.78503">
        <ele>344</ele>
        <time>2016-10-09T10:05:56.000Z</time>
      </trkpt>
      <trkpt lat="47.45431" lon="6.78503">
        <ele>344</ele>
        <time>2016-10-09T10:05:57.000Z</time>
      </trkpt>
      <trkpt lat="47.45434" lon="6.78502">
        <ele>344</ele>
        <time>2016-10-09T10:05:58.000Z</time>
      </trkpt>
      <trkpt lat="47.45436" lon="6.78502">
        <ele>344</ele>
        <time>2016-10-09T10:05:59.000Z</time>
      </trkpt>
      <trkpt lat="47.4544" lon="6.78501">
        <ele>344</ele>
        <time>2016-10-09T10:06:01.000Z</time>
      </trkpt>
      <trkpt lat="47.45442" lon="6.78501">
        <ele>344</ele>
        <time>2016-10-09T10:06:02.000Z</time>
      </trkpt>
      <trkpt lat="47.45447" lon="6.785">
        <ele>344</ele>
        <time>2016-10-09T10:06:04.000Z</time>
      </trkpt>
      <trkpt lat="47.45449" lon="6.785">
        <ele>347</ele>
        <time>2016-10-09T10:06:05.000Z</time>
      </trkpt>
      <trkpt lat="47.45453" lon="6.78498">
        <ele>347</ele>
        <time>2016-10-09T10:06:07.000Z</time>
      </trkpt>
      <trkpt lat="47.45455" lon="6.78497">
        <ele>347</ele>
        <time>2016-10-09T10:06:08.000Z</time>
      </trkpt>
      <trkpt lat="47.45459" lon="6.78495">
        <ele>347</ele>
        <time>2016-10-09T10:06:10.000Z</time>
      </trkpt>
      <trkpt lat="47.45461" lon="6.78494">
        <ele>347</ele>
        <time>2016-10-09T10:06:11.000Z</time>
      </trkpt>
      <trkpt lat="47.45465" lon="6.78491">
        <ele>347</ele>
        <time>2016-10-09T10:06:13.000Z</time>
      </trkpt>
      <trkpt lat="47.45467" lon="6.7849">
        <ele>347</ele>
        <time>2016-10-09T10:06:14.000Z</time>
      </trkpt>
      <trkpt lat="47.45471" lon="6.78487">
        <ele>348</ele>
        <time>2016-10-09T10:06:17.000Z</time>
      </trkpt>
      <trkpt lat="47.45471" lon="6.78486">
        <ele>348</ele>
        <time>2016-10-09T10:06:18.000Z</time>
      </trkpt>
      <trkpt lat="47.45475" lon="6.78484">
        <ele>348</ele>
        <time>2016-10-09T10:06:25.000Z</time>
      </trkpt>
      <trkpt lat="47.45476" lon="6.78483">
        <ele>348</ele>
        <time>2016-10-09T10:06:26.000Z</time>
      </trkpt>
      <trkpt lat="47.45479" lon="6.7848">
        <ele>348</ele>
        <time>2016-10-09T10:06:30.000Z</time>
      </trkpt>
      <trkpt lat="47.45481" lon="6.7848">
        <ele>348</ele>
        <time>2016-10-09T10:06:31.000Z</time>
      </trkpt>
      <trkpt lat="47.45484" lon="6.78479">
        <ele>348</ele>
        <time>2016-10-09T10:06:33.000Z</time>
      </trkpt>
      <trkpt lat="47.45486" lon="6.78478">
        <ele>348</ele>
        <time>2016-10-09T10:06:34.000Z</time>
      </trkpt>
      <trkpt lat="47.45488" lon="6.78477">
        <ele>348</ele>
        <time>2016-10-09T10:06:35.104Z</time>
      </trkpt>
      <trkpt lat="47.45492" lon="6.78474">
        <ele>348</ele>
        <time>2016-10-09T10:06:37.000Z</time>
      </trkpt>
      <trkpt lat="47.45494" lon="6.78472">
        <ele>348</ele>
        <time>2016-10-09T10:06:38.000Z</time>
      </trkpt>
      <trkpt lat="47.45496" lon="6.78471">
        <ele>348</ele>
        <time>2016-10-09T10:06:39.000Z</time>
      </trkpt>
      <trkpt lat="47.45499" lon="6.78469">
        <ele>348</ele>
        <time>2016-10-09T10:06:40.000Z</time>
      </trkpt>
      <trkpt lat="47.45501" lon="6.78468">
        <ele>350</ele>
        <time>2016-10-09T10:06:41.000Z</time>
      </trkpt>
      <trkpt lat="47.45503" lon="6.78467">
        <ele>350</ele>
        <time>2016-10-09T10:06:42.000Z</time>
      </trkpt>
      <trkpt lat="47.45505" lon="6.78465">
        <ele>350</ele>
        <time>2016-10-09T10:06:43.000Z</time>
      </trkpt>
      <trkpt lat="47.45508" lon="6.78464">
        <ele>350</ele>
        <time>2016-10-09T10:06:44.000Z</time>
      </trkpt>
      <trkpt lat="47.4551" lon="6.78463">
        <ele>351</ele>
        <time>2016-10-09T10:06:45.000Z</time>
      </trkpt>
      <trkpt lat="47.45513" lon="6.78461">
        <ele>351</ele>
        <time>2016-10-09T10:06:46.000Z</time>
      </trkpt>
      <trkpt lat="47.45515" lon="6.7846">
        <ele>351</ele>
        <time>2016-10-09T10:06:47.000Z</time>
      </trkpt>
      <trkpt lat="47.45517" lon="6.78459">
        <ele>351</ele>
        <time>2016-10-09T10:06:48.000Z</time>
      </trkpt>
      <trkpt lat="47.4552" lon="6.78457">
        <ele>351</ele>
        <time>2016-10-09T10:06:49.000Z</time>
      </trkpt>
      <trkpt lat="47.45522" lon="6.78456">
        <ele>351</ele>
        <time>2016-10-09T10:06:50.000Z</time>
      </trkpt>
      <trkpt lat="47.45525" lon="6.78454">
        <ele>351</ele>
        <time>2016-10-09T10:06:51.000Z</time>
      </trkpt>
      <trkpt lat="47.45527" lon="6.78453">
        <ele>351</ele>
        <time>2016-10-09T10:06:52.000Z</time>
      </trkpt>
      <trkpt lat="47.45529" lon="6.78451">
        <ele>351</ele>
        <time>2016-10-09T10:06:53.000Z</time>
      </trkpt>
      <trkpt lat="47.4553" lon="6.78451">
        <ele>351</ele>
        <time>2016-10-09T10:06:53.107Z</time>
      </trkpt>
      <trkpt lat="47.45534" lon="6.78448">
        <ele>351</ele>
        <time>2016-10-09T10:06:55.000Z</time>
      </trkpt>
      <trkpt lat="47.45536" lon="6.78447">
        <ele>351</ele>
        <time>2016-10-09T10:06:56.000Z</time>
      </trkpt>
      <trkpt lat="47.45538" lon="6.78446">
        <ele>351</ele>
        <time>2016-10-09T10:06:57.000Z</time>
      </trkpt>
      <trkpt lat="47.45541" lon="6.78444">
        <ele>351</ele>
        <time>2016-10-09T10:06:58.000Z</time>
      </trkpt>
      <trkpt lat="47.45543" lon="6.78443">
        <ele>351</ele>
        <time>2016-10-09T10:06:59.000Z</time>
      </trkpt>
      <trkpt lat="47.45545" lon="6.78443">
        <ele>351</ele>
        <time>2016-10-09T10:07:00.000Z</time>
      </trkpt>
      <trkpt lat="47.45548" lon="6.78442">
        <ele>351</ele>
        <time>2016-10-09T10:07:01.000Z</time>
      </trkpt>
      <trkpt lat="47.4555" lon="6.78441">
        <ele>352</ele>
        <time>2016-10-09T10:07:02.000Z</time>
      </trkpt>
      <trkpt lat="47.45552" lon="6.7844">
        <ele>352</ele>
        <time>2016-10-09T10:07:03.000Z</time>
      </trkpt>
      <trkpt lat="47.45555" lon="6.78438">
        <ele>352</ele>
        <time>2016-10-09T10:07:04.000Z</time>
      </trkpt>
      <trkpt lat="47.45557" lon="6.78437">
        <ele>352</ele>
        <time>2016-10-09T10:07:05.000Z</time>
      </trkpt>
      <trkpt lat="47.45559" lon="6.78435">
        <ele>352</ele>
        <time>2016-10-09T10:07:06.000Z</time>
      </trkpt>
      <trkpt lat="47.45562" lon="6.78434">
        <ele>352</ele>
        <time>2016-10-09T10:07:07.000Z</time>
      </trkpt>
      <trkpt lat="47.45562" lon="6.78434">
        <ele>352</ele>
        <time>2016-10-09T10:07:07.106Z</time>
      </trkpt>
      <trkpt lat="47.45566" lon="6.78432">
        <ele>352</ele>
        <time>2016-10-09T10:07:09.000Z</time>
      </trkpt>
      <trkpt lat="47.45569" lon="6.78431">
        <ele>352</ele>
        <time>2016-10-09T10:07:10.000Z</time>
      </trkpt>
      <trkpt lat="47.45571" lon="6.78429">
        <ele>353</ele>
        <time>2016-10-09T10:07:11.000Z</time>
      </trkpt>
      <trkpt lat="47.45574" lon="6.78428">
        <ele>353</ele>
        <time>2016-10-09T10:07:12.000Z</time>
      </trkpt>
      <trkpt lat="47.45576" lon="6.78426">
        <ele>353</ele>
        <time>2016-10-09T10:07:13.000Z</time>
      </trkpt>
      <trkpt lat="47.45579" lon="6.78425">
        <ele>353</ele>
        <time>2016-10-09T10:07:14.000Z</time>
      </trkpt>
      <trkpt lat="47.45581" lon="6.78423">
        <ele>353</ele>
        <time>2016-10-09T10:07:15.000Z</time>
      </trkpt>
      <trkpt lat="47.45584" lon="6.78422">
        <ele>354</ele>
        <time>2016-10-09T10:07:16.000Z</time>
      </trkpt>
      <trkpt lat="47.45586" lon="6.78421">
        <ele>354</ele>
        <time>2016-10-09T10:07:17.000Z</time>
      </trkpt>
      <trkpt lat="47.45589" lon="6.7842">
        <ele>354</ele>
        <time>2016-10-09T10:07:18.000Z</time>
      </trkpt>
      <trkpt lat="47.45592" lon="6.78418">
        <ele>354</ele>
        <time>2016-10-09T10:07:19.000Z</time>
      </trkpt>
      <trkpt lat="47.45594" lon="6.78417">
        <ele>354</ele>
        <time>2016-10-09T10:07:20.000Z</time>
      </trkpt>
      <trkpt lat="47.45597" lon="6.78416">
        <ele>355</ele>
        <time>2016-10-09T10:07:21.000Z</time>
      </trkpt>
      <trkpt lat="47.45599" lon="6.78415">
        <ele>355</ele>
        <time>2016-10-09T10:07:22.000Z</time>
      </trkpt>
      <trkpt lat="47.45601" lon="6.78414">
        <ele>355</ele>
        <time>2016-10-09T10:07:23.000Z</time>
      </trkpt>
      <trkpt lat="47.45604" lon="6.78413">
        <ele>355</ele>
        <time>2016-10-09T10:07:24.000Z</time>
      </trkpt>
      <trkpt lat="47.45606" lon="6.78412">
        <ele>355</ele>
        <time>2016-10-09T10:07:25.000Z</time>
      </trkpt>
      <trkpt lat="47.45608" lon="6.78411">
        <ele>355</ele>
        <time>2016-10-09T10:07:26.000Z</time>
      </trkpt>
      <trkpt lat="47.4561" lon="6.7841">
        <ele>355</ele>
        <time>2016-10-09T10:07:27.000Z</time>
      </trkpt>
      <trkpt lat="47.45613" lon="6.78408">
        <ele>355</ele>
        <time>2016-10-09T10:07:28.000Z</time>
      </trkpt>
      <trkpt lat="47.45615" lon="6.78407">
        <ele>355</ele>
        <time>2016-10-09T10:07:29.000Z</time>
      </trkpt>
      <trkpt lat="47.45617" lon="6.78406">
        <ele>355</ele>
        <time>2016-10-09T10:07:30.000Z</time>
      </trkpt>
      <trkpt lat="47.4562" lon="6.78404">
        <ele>355</ele>
        <time>2016-10-09T10:07:31.000Z</time>
      </trkpt>
      <trkpt lat="47.45622" lon="6.78403">
        <ele>355</ele>
        <time>2016-10-09T10:07:32.000Z</time>
      </trkpt>
      <trkpt lat="47.45624" lon="6.78402">
        <ele>355</ele>
        <time>2016-10-09T10:07:33.000Z</time>
      </trkpt>
      <trkpt lat="47.45626" lon="6.78401">
        <ele>355</ele>
        <time>2016-10-09T10:07:34.000Z</time>
      </trkpt>
      <trkpt lat="47.45629" lon="6.784">
        <ele>355</ele>
        <time>2016-10-09T10:07:35.000Z</time>
      </trkpt>
      <trkpt lat="47.45631" lon="6.78399">
        <ele>355</ele>
        <time>2016-10-09T10:07:36.000Z</time>
      </trkpt>
      <trkpt lat="47.45633" lon="6.78398">
        <ele>355</ele>
        <time>2016-10-09T10:07:37.000Z</time>
      </trkpt>
      <trkpt lat="47.45636" lon="6.78397">
        <ele>355</ele>
        <time>2016-10-09T10:07:38.000Z</time>
      </trkpt>
      <trkpt lat="47.45638" lon="6.78396">
        <ele>355</ele>
        <time>2016-10-09T10:07:39.000Z</time>
      </trkpt>
      <trkpt lat="47.4564" lon="6.78395">
        <ele>355</ele>
        <time>2016-10-09T10:07:40.000Z</time>
      </trkpt>
      <trkpt lat="47.45643" lon="6.78394">
        <ele>355</ele>
        <time>2016-10-09T10:07:41.000Z</time>
      </trkpt>
      <trkpt lat="47.45645" lon="6.78394">
        <ele>355</ele>
        <time>2016-10-09T10:07:42.000Z</time>
      </trkpt>
      <trkpt lat="47.45648" lon="6.78393">
        <ele>356</ele>
        <time>2016-10-09T10:07:43.000Z</time>
      </trkpt>
      <trkpt lat="47.4565" lon="6.78393">
        <ele>356</ele>
        <time>2016-10-09T10:07:44.000Z</time>
      </trkpt>
      <trkpt lat="47.45653" lon="6.78392">
        <ele>356</ele>
        <time>2016-10-09T10:07:45.000Z</time>
      </trkpt>
      <trkpt lat="47.45655" lon="6.78392">
        <ele>356</ele>
        <time>2016-10-09T10:07:46.000Z</time>
      </trkpt>
      <trkpt lat="47.45658" lon="6.78391">
        <ele>356</ele>
        <time>2016-10-09T10:07:47.000Z</time>
      </trkpt>
      <trkpt lat="47.4566" lon="6.7839">
        <ele>356</ele>
        <time>2016-10-09T10:07:48.000Z</time>
      </trkpt>
      <trkpt lat="47.45663" lon="6.7839">
        <ele>356</ele>
        <time>2016-10-09T10:07:49.000Z</time>
      </trkpt>
      <trkpt lat="47.45665" lon="6.78389">
        <ele>356</ele>
        <time>2016-10-09T10:07:50.000Z</time>
      </trkpt>
      <trkpt lat="47.45668" lon="6.78388">
        <ele>358</ele>
        <time>2016-10-09T10:07:51.000Z</time>
      </trkpt>
      <trkpt lat="47.45671" lon="6.78388">
        <ele>358</ele>
        <time>2016-10-09T10:07:52.000Z</time>
      </trkpt>
      <trkpt lat="47.45673" lon="6.78387">
        <ele>358</ele>
        <time>2016-10-09T10:07:53.000Z</time>
      </trkpt>
      <trkpt lat="47.45676" lon="6.78387">
        <ele>358</ele>
        <time>2016-10-09T10:07:54.000Z</time>
      </trkpt>
      <trkpt lat="47.45678" lon="6.78387">
        <ele>358</ele>
        <time>2016-10-09T10:07:55.000Z</time>
      </trkpt>
      <trkpt lat="47.45681" lon="6.78386">
        <ele>358</ele>
        <time>2016-10-09T10:07:56.000Z</time>
      </trkpt>
      <trkpt lat="47.45683" lon="6.78386">
        <ele>358</ele>
        <time>2016-10-09T10:07:57.000Z</time>
      </trkpt>
      <trkpt lat="47.45686" lon="6.78386">
        <ele>358</ele>
        <time>2016-10-09T10:07:58.000Z</time>
      </trkpt>
      <trkpt lat="47.45688" lon="6.78386">
        <ele>358</ele>
        <time>2016-10-09T10:07:59.000Z</time>
      </trkpt>
      <trkpt lat="47.4569" lon="6.78386">
        <ele>358</ele>
        <time>2016-10-09T10:08:00.000Z</time>
      </trkpt>
      <trkpt lat="47.45692" lon="6.78385">
        <ele>358</ele>
        <time>2016-10-09T10:08:01.000Z</time>
      </trkpt>
      <trkpt lat="47.45695" lon="6.78385">
        <ele>358</ele>
        <time>2016-10-09T10:08:02.000Z</time>
      </trkpt>
      <trkpt lat="47.45697" lon="6.78385">
        <ele>359</ele>
        <time>2016-10-09T10:08:03.000Z</time>
      </trkpt>
      <trkpt lat="47.45699" lon="6.78384">
        <ele>359</ele>
        <time>2016-10-09T10:08:04.000Z</time>
      </trkpt>
      <trkpt lat="47.45701" lon="6.78384">
        <ele>359</ele>
        <time>2016-10-09T10:08:05.000Z</time>
      </trkpt>
      <trkpt lat="47.45704" lon="6.78384">
        <ele>359</ele>
        <time>2016-10-09T10:08:06.000Z</time>
      </trkpt>
      <trkpt lat="47.45706" lon="6.78384">
        <ele>359</ele>
        <time>2016-10-09T10:08:07.000Z</time>
      </trkpt>
      <trkpt lat="47.45708" lon="6.78384">
        <ele>359</ele>
        <time>2016-10-09T10:08:08.000Z</time>
      </trkpt>
      <trkpt lat="47.4571" lon="6.78384">
        <ele>359</ele>
        <time>2016-10-09T10:08:09.000Z</time>
      </trkpt>
      <trkpt lat="47.45715" lon="6.78384">
        <ele>359</ele>
        <time>2016-10-09T10:08:11.000Z</time>
      </trkpt>
      <trkpt lat="47.45717" lon="6.78384">
        <ele>359</ele>
        <time>2016-10-09T10:08:12.000Z</time>
      </trkpt>
      <trkpt lat="47.45719" lon="6.78385">
        <ele>359</ele>
        <time>2016-10-09T10:08:13.000Z</time>
      </trkpt>
      <trkpt lat="47.45722" lon="6.78385">
        <ele>359</ele>
        <time>2016-10-09T10:08:14.000Z</time>
      </trkpt>
      <trkpt lat="47.45726" lon="6.78386">
        <ele>359</ele>
        <time>2016-10-09T10:08:16.000Z</time>
      </trkpt>
      <trkpt lat="47.45728" lon="6.78386">
        <ele>359</ele>
        <time>2016-10-09T10:08:17.000Z</time>
      </trkpt>
      <trkpt lat="47.45732" lon="6.78387">
        <ele>359</ele>
        <time>2016-10-09T10:08:19.000Z</time>
      </trkpt>
      <trkpt lat="47.45735" lon="6.78388">
        <ele>360</ele>
        <time>2016-10-09T10:08:20.000Z</time>
      </trkpt>
      <trkpt lat="47.45737" lon="6.78389">
        <ele>360</ele>
        <time>2016-10-09T10:08:21.000Z</time>
      </trkpt>
      <trkpt lat="47.45739" lon="6.78389">
        <ele>360</ele>
        <time>2016-10-09T10:08:22.000Z</time>
      </trkpt>
      <trkpt lat="47.45743" lon="6.7839">
        <ele>360</ele>
        <time>2016-10-09T10:08:24.000Z</time>
      </trkpt>
      <trkpt lat="47.45745" lon="6.78391">
        <ele>360</ele>
        <time>2016-10-09T10:08:25.000Z</time>
      </trkpt>
      <trkpt lat="47.45749" lon="6.78392">
        <ele>360</ele>
        <time>2016-10-09T10:08:27.000Z</time>
      </trkpt>
      <trkpt lat="47.45751" lon="6.78393">
        <ele>364</ele>
        <time>2016-10-09T10:08:28.000Z</time>
      </trkpt>
      <trkpt lat="47.45755" lon="6.78394">
        <ele>364</ele>
        <time>2016-10-09T10:08:30.000Z</time>
      </trkpt>
      <trkpt lat="47.45758" lon="6.78394">
        <ele>364</ele>
        <time>2016-10-09T10:08:31.000Z</time>
      </trkpt>
      <trkpt lat="47.45762" lon="6.78396">
        <ele>364</ele>
        <time>2016-10-09T10:08:33.000Z</time>
      </trkpt>
      <trkpt lat="47.45764" lon="6.78397">
        <ele>364</ele>
        <time>2016-10-09T10:08:34.000Z</time>
      </trkpt>
      <trkpt lat="47.45767" lon="6.78399">
        <ele>365</ele>
        <time>2016-10-09T10:08:36.000Z</time>
      </trkpt>
      <trkpt lat="47.45769" lon="6.78399">
        <ele>365</ele>
        <time>2016-10-09T10:08:37.000Z</time>
      </trkpt>
      <trkpt lat="47.45772" lon="6.784">
        <ele>365</ele>
        <time>2016-10-09T10:08:39.000Z</time>
      </trkpt>
      <trkpt lat="47.45774" lon="6.78401">
        <ele>365</ele>
        <time>2016-10-09T10:08:40.000Z</time>
      </trkpt>
      <trkpt lat="47.45778" lon="6.78403">
        <ele>365</ele>
        <time>2016-10-09T10:08:42.000Z</time>
      </trkpt>
      <trkpt lat="47.45779" lon="6.78404">
        <ele>366</ele>
        <time>2016-10-09T10:08:43.000Z</time>
      </trkpt>
      <trkpt lat="47.45783" lon="6.78406">
        <ele>366</ele>
        <time>2016-10-09T10:08:45.000Z</time>
      </trkpt>
      <trkpt lat="47.45785" lon="6.78408">
        <ele>366</ele>
        <time>2016-10-09T10:08:46.000Z</time>
      </trkpt>
      <trkpt lat="47.45788" lon="6.7841">
        <ele>366</ele>
        <time>2016-10-09T10:08:48.000Z</time>
      </trkpt>
      <trkpt lat="47.45789" lon="6.78411">
        <ele>366</ele>
        <time>2016-10-09T10:08:49.000Z</time>
      </trkpt>
      <trkpt lat="47.45792" lon="6.78413">
        <ele>367</ele>
        <time>2016-10-09T10:08:51.000Z</time>
      </trkpt>
      <trkpt lat="47.45794" lon="6.78414">
        <ele>367</ele>
        <time>2016-10-09T10:08:52.000Z</time>
      </trkpt>
      <trkpt lat="47.45796" lon="6.78417">
        <ele>367</ele>
        <time>2016-10-09T10:08:54.000Z</time>
      </trkpt>
      <trkpt lat="47.45798" lon="6.78418">
        <ele>365</ele>
        <time>2016-10-09T10:08:55.000Z</time>
      </trkpt>
      <trkpt lat="47.458" lon="6.7842">
        <ele>366</ele>
        <time>2016-10-09T10:08:57.000Z</time>
      </trkpt>
      <trkpt lat="47.45802" lon="6.78421">
        <ele>366</ele>
        <time>2016-10-09T10:08:58.000Z</time>
      </trkpt>
      <trkpt lat="47.45805" lon="6.78423">
        <ele>366</ele>
        <time>2016-10-09T10:09:00.000Z</time>
      </trkpt>
      <trkpt lat="47.45806" lon="6.78424">
        <ele>366</ele>
        <time>2016-10-09T10:09:01.000Z</time>
      </trkpt>
      <trkpt lat="47.45809" lon="6.78426">
        <ele>366</ele>
        <time>2016-10-09T10:09:04.000Z</time>
      </trkpt>
      <trkpt lat="47.45811" lon="6.78427">
        <ele>367</ele>
        <time>2016-10-09T10:09:05.000Z</time>
      </trkpt>
      <trkpt lat="47.45814" lon="6.78431">
        <ele>367</ele>
        <time>2016-10-09T10:09:08.000Z</time>
      </trkpt>
      <trkpt lat="47.45815" lon="6.78432">
        <ele>367</ele>
        <time>2016-10-09T10:09:09.000Z</time>
      </trkpt>
      <trkpt lat="47.45818" lon="6.78434">
        <ele>367</ele>
        <time>2016-10-09T10:09:11.000Z</time>
      </trkpt>
      <trkpt lat="47.45819" lon="6.78436">
        <ele>367</ele>
        <time>2016-10-09T10:09:12.000Z</time>
      </trkpt>
      <trkpt lat="47.45822" lon="6.78439">
        <ele>367</ele>
        <time>2016-10-09T10:09:15.000Z</time>
      </trkpt>
      <trkpt lat="47.45823" lon="6.7844">
        <ele>367</ele>
        <time>2016-10-09T10:09:16.000Z</time>
      </trkpt>
      <trkpt lat="47.45827" lon="6.78443">
        <ele>367</ele>
        <time>2016-10-09T10:09:19.000Z</time>
      </trkpt>
      <trkpt lat="47.45828" lon="6.78444">
        <ele>367</ele>
        <time>2016-10-09T10:09:20.000Z</time>
      </trkpt>
      <trkpt lat="47.45832" lon="6.78447">
        <ele>367</ele>
        <time>2016-10-09T10:09:23.000Z</time>
      </trkpt>
      <trkpt lat="47.45833" lon="6.78448">
        <ele>367</ele>
        <time>2016-10-09T10:09:24.000Z</time>
      </trkpt>
      <trkpt lat="47.45836" lon="6.78451">
        <ele>374</ele>
        <time>2016-10-09T10:09:26.000Z</time>
      </trkpt>
      <trkpt lat="47.45838" lon="6.78452">
        <ele>374</ele>
        <time>2016-10-09T10:09:27.000Z</time>
      </trkpt>
      <trkpt lat="47.45841" lon="6.78455">
        <ele>374</ele>
        <time>2016-10-09T10:09:29.000Z</time>
      </trkpt>
      <trkpt lat="47.45842" lon="6.78456">
        <ele>375</ele>
        <time>2016-10-09T10:09:30.000Z</time>
      </trkpt>
      <trkpt lat="47.45845" lon="6.78461">
        <ele>375</ele>
        <time>2016-10-09T10:09:36.000Z</time>
      </trkpt>
      <trkpt lat="47.45845" lon="6.7846">
        <ele>375</ele>
        <time>2016-10-09T10:09:37.000Z</time>
      </trkpt>
      <trkpt lat="47.4585" lon="6.78462">
        <ele>375</ele>
        <time>2016-10-09T10:09:42.000Z</time>
      </trkpt>
      <trkpt lat="47.45851" lon="6.78463">
        <ele>375</ele>
        <time>2016-10-09T10:09:43.000Z</time>
      </trkpt>
      <trkpt lat="47.45854" lon="6.78465">
        <ele>375</ele>
        <time>2016-10-09T10:09:47.000Z</time>
      </trkpt>
      <trkpt lat="47.45855" lon="6.78465">
        <ele>375</ele>
        <time>2016-10-09T10:09:48.000Z</time>
      </trkpt>
      <trkpt lat="47.45858" lon="6.78469">
        <ele>375</ele>
        <time>2016-10-09T10:09:52.000Z</time>
      </trkpt>
      <trkpt lat="47.45859" lon="6.7847">
        <ele>375</ele>
        <time>2016-10-09T10:09:53.000Z</time>
      </trkpt>
      <trkpt lat="47.45862" lon="6.78473">
        <ele>375</ele>
        <time>2016-10-09T10:09:55.000Z</time>
      </trkpt>
      <trkpt lat="47.45863" lon="6.78475">
        <ele>375</ele>
        <time>2016-10-09T10:09:56.000Z</time>
      </trkpt>
      <trkpt lat="47.45866" lon="6.78479">
        <ele>376</ele>
        <time>2016-10-09T10:09:58.000Z</time>
      </trkpt>
      <trkpt lat="47.45868" lon="6.78481">
        <ele>376</ele>
        <time>2016-10-09T10:09:59.000Z</time>
      </trkpt>
      <trkpt lat="47.45871" lon="6.78485">
        <ele>376</ele>
        <time>2016-10-09T10:10:03.000Z</time>
      </trkpt>
      <trkpt lat="47.45872" lon="6.78485">
        <ele>376</ele>
        <time>2016-10-09T10:10:04.000Z</time>
      </trkpt>
      <trkpt lat="47.45876" lon="6.78488">
        <ele>376</ele>
        <time>2016-10-09T10:10:07.000Z</time>
      </trkpt>
      <trkpt lat="47.45877" lon="6.78489">
        <ele>377</ele>
        <time>2016-10-09T10:10:08.000Z</time>
      </trkpt>
      <trkpt lat="47.4588" lon="6.78492">
        <ele>377</ele>
        <time>2016-10-09T10:10:12.000Z</time>
      </trkpt>
      <trkpt lat="47.45881" lon="6.78493">
        <ele>377</ele>
        <time>2016-10-09T10:10:13.000Z</time>
      </trkpt>
      <trkpt lat="47.45884" lon="6.78497">
        <ele>377</ele>
        <time>2016-10-09T10:10:18.000Z</time>
      </trkpt>
      <trkpt lat="47.45885" lon="6.78498">
        <ele>378</ele>
        <time>2016-10-09T10:10:19.000Z</time>
      </trkpt>
      <trkpt lat="47.45888" lon="6.78502">
        <ele>376</ele>
        <time>2016-10-09T10:10:22.000Z</time>
      </trkpt>
      <trkpt lat="47.45889" lon="6.78503">
        <ele>376</ele>
        <time>2016-10-09T10:10:23.000Z</time>
      </trkpt>
      <trkpt lat="47.45892" lon="6.78508">
        <ele>377</ele>
        <time>2016-10-09T10:10:26.000Z</time>
      </trkpt>
      <trkpt lat="47.45893" lon="6.78509">
        <ele>377</ele>
        <time>2016-10-09T10:10:27.000Z</time>
      </trkpt>
      <trkpt lat="47.45896" lon="6.78512">
        <ele>377</ele>
        <time>2016-10-09T10:10:30.000Z</time>
      </trkpt>
      <trkpt lat="47.45896" lon="6.78513">
        <ele>377</ele>
        <time>2016-10-09T10:10:31.000Z</time>
      </trkpt>
      <trkpt lat="47.459" lon="6.78517">
        <ele>377</ele>
        <time>2016-10-09T10:10:34.000Z</time>
      </trkpt>
      <trkpt lat="47.45901" lon="6.78518">
        <ele>377</ele>
        <time>2016-10-09T10:10:35.000Z</time>
      </trkpt>
      <trkpt lat="47.45904" lon="6.7852">
        <ele>377</ele>
        <time>2016-10-09T10:10:39.000Z</time>
      </trkpt>
      <trkpt lat="47.45905" lon="6.78521">
        <ele>377</ele>
        <time>2016-10-09T10:10:40.000Z</time>
      </trkpt>
      <trkpt lat="47.45908" lon="6.78522">
        <ele>377</ele>
        <time>2016-10-09T10:10:42.000Z</time>
      </trkpt>
      <trkpt lat="47.4591" lon="6.78523">
        <ele>377</ele>
        <time>2016-10-09T10:10:43.000Z</time>
      </trkpt>
      <trkpt lat="47.45914" lon="6.78525">
        <ele>377</ele>
        <time>2016-10-09T10:10:45.000Z</time>
      </trkpt>
      <trkpt lat="47.45915" lon="6.78526">
        <ele>377</ele>
        <time>2016-10-09T10:10:46.000Z</time>
      </trkpt>
      <trkpt lat="47.45919" lon="6.78528">
        <ele>386</ele>
        <time>2016-10-09T10:10:48.000Z</time>
      </trkpt>
      <trkpt lat="47.45921" lon="6.78528">
        <ele>386</ele>
        <time>2016-10-09T10:10:49.000Z</time>
      </trkpt>
      <trkpt lat="47.45925" lon="6.78528">
        <ele>386</ele>
        <time>2016-10-09T10:10:51.000Z</time>
      </trkpt>
      <trkpt lat="47.45927" lon="6.78527">
        <ele>386</ele>
        <time>2016-10-09T10:10:52.000Z</time>
      </trkpt>
      <trkpt lat="47.4593" lon="6.78525">
        <ele>387</ele>
        <time>2016-10-09T10:10:54.000Z</time>
      </trkpt>
      <trkpt lat="47.45932" lon="6.78524">
        <ele>387</ele>
        <time>2016-10-09T10:10:55.000Z</time>
      </trkpt>
      <trkpt lat="47.45935" lon="6.78521">
        <ele>387</ele>
        <time>2016-10-09T10:10:57.000Z</time>
      </trkpt>
      <trkpt lat="47.45936" lon="6.78519">
        <ele>387</ele>
        <time>2016-10-09T10:10:58.000Z</time>
      </trkpt>
      <trkpt lat="47.45937" lon="6.78514">
        <ele>387</ele>
        <time>2016-10-09T10:11:01.000Z</time>
      </trkpt>
      <trkpt lat="47.45937" lon="6.78512">
        <ele>387</ele>
        <time>2016-10-09T10:11:02.000Z</time>
      </trkpt>
      <trkpt lat="47.45938" lon="6.78506">
        <ele>387</ele>
        <time>2016-10-09T10:11:05.000Z</time>
      </trkpt>
      <trkpt lat="47.45937" lon="6.78504">
        <ele>387</ele>
        <time>2016-10-09T10:11:06.000Z</time>
      </trkpt>
      <trkpt lat="47.45937" lon="6.78498">
        <ele>388</ele>
        <time>2016-10-09T10:11:09.000Z</time>
      </trkpt>
      <trkpt lat="47.45937" lon="6.78495">
        <ele>388</ele>
        <time>2016-10-09T10:11:10.000Z</time>
      </trkpt>
      <trkpt lat="47.45937" lon="6.78491">
        <ele>389</ele>
        <time>2016-10-09T10:11:11.000Z</time>
      </trkpt>
      <trkpt lat="47.45936" lon="6.78488">
        <ele>389</ele>
        <time>2016-10-09T10:11:12.000Z</time>
      </trkpt>
      <trkpt lat="47.45936" lon="6.78484">
        <ele>389</ele>
        <time>2016-10-09T10:11:13.000Z</time>
      </trkpt>
      <trkpt lat="47.45936" lon="6.78481">
        <ele>389</ele>
        <time>2016-10-09T10:11:14.000Z</time>
      </trkpt>
      <trkpt lat="47.45934" lon="6.78476">
        <ele>389</ele>
        <time>2016-10-09T10:11:16.000Z</time>
      </trkpt>
      <trkpt lat="47.45934" lon="6.78474">
        <ele>390</ele>
        <time>2016-10-09T10:11:17.000Z</time>
      </trkpt>
      <trkpt lat="47.45934" lon="6.78467">
        <ele>390</ele>
        <time>2016-10-09T10:11:20.000Z</time>
      </trkpt>
      <trkpt lat="47.45934" lon="6.78466">
        <ele>390</ele>
        <time>2016-10-09T10:11:21.000Z</time>
      </trkpt>
      <trkpt lat="47.45935" lon="6.78462">
        <ele>390</ele>
        <time>2016-10-09T10:11:23.000Z</time>
      </trkpt>
      <trkpt lat="47.45936" lon="6.78459">
        <ele>391</ele>
        <time>2016-10-09T10:11:24.000Z</time>
      </trkpt>
      <trkpt lat="47.45937" lon="6.78454">
        <ele>391</ele>
        <time>2016-10-09T10:11:26.000Z</time>
      </trkpt>
      <trkpt lat="47.45938" lon="6.78452">
        <ele>391</ele>
        <time>2016-10-09T10:11:27.000Z</time>
      </trkpt>
      <trkpt lat="47.4594" lon="6.78447">
        <ele>391</ele>
        <time>2016-10-09T10:11:29.000Z</time>
      </trkpt>
      <trkpt lat="47.45941" lon="6.78444">
        <ele>391</ele>
        <time>2016-10-09T10:11:30.000Z</time>
      </trkpt>
      <trkpt lat="47.45943" lon="6.78439">
        <ele>391</ele>
        <time>2016-10-09T10:11:33.000Z</time>
      </trkpt>
      <trkpt lat="47.45944" lon="6.78437">
        <ele>392</ele>
        <time>2016-10-09T10:11:34.000Z</time>
      </trkpt>
      <trkpt lat="47.45946" lon="6.78433">
        <ele>392</ele>
        <time>2016-10-09T10:11:38.000Z</time>
      </trkpt>
      <trkpt lat="47.45947" lon="6.78432">
        <ele>392</ele>
        <time>2016-10-09T10:11:39.000Z</time>
      </trkpt>
      <trkpt lat="47.4595" lon="6.78428">
        <ele>392</ele>
        <time>2016-10-09T10:11:42.000Z</time>
      </trkpt>
      <trkpt lat="47.45951" lon="6.78427">
        <ele>392</ele>
        <time>2016-10-09T10:11:43.000Z</time>
      </trkpt>
      <trkpt lat="47.45953" lon="6.78424">
        <ele>393</ele>
        <time>2016-10-09T10:11:45.000Z</time>
      </trkpt>
      <trkpt lat="47.45955" lon="6.78423">
        <ele>393</ele>
        <time>2016-10-09T10:11:46.000Z</time>
      </trkpt>
      <trkpt lat="47.45959" lon="6.78419">
        <ele>393</ele>
        <time>2016-10-09T10:11:49.000Z</time>
      </trkpt>
      <trkpt lat="47.45959" lon="6.78419">
        <ele>394</ele>
        <time>2016-10-09T10:11:50.000Z</time>
      </trkpt>
      <trkpt lat="47.45964" lon="6.78417">
        <ele>394</ele>
        <time>2016-10-09T10:11:58.000Z</time>
      </trkpt>
      <trkpt lat="47.45965" lon="6.78418">
        <ele>394</ele>
        <time>2016-10-09T10:11:59.000Z</time>
      </trkpt>
      <trkpt lat="47.45967" lon="6.78423">
        <ele>395</ele>
        <time>2016-10-09T10:12:03.000Z</time>
      </trkpt>
      <trkpt lat="47.45967" lon="6.78425">
        <ele>395</ele>
        <time>2016-10-09T10:12:04.000Z</time>
      </trkpt>
      <trkpt lat="47.4597" lon="6.78428">
        <ele>395</ele>
        <time>2016-10-09T10:12:13.000Z</time>
      </trkpt>
      <trkpt lat="47.45971" lon="6.78428">
        <ele>395</ele>
        <time>2016-10-09T10:12:14.000Z</time>
      </trkpt>
      <trkpt lat="47.45975" lon="6.7843">
        <ele>395</ele>
        <time>2016-10-09T10:12:26.000Z</time>
      </trkpt>
      <trkpt lat="47.45975" lon="6.7843">
        <ele>396</ele>
        <time>2016-10-09T10:12:27.000Z</time>
      </trkpt>
      <trkpt lat="47.45977" lon="6.78436">
        <ele>395</ele>
        <time>2016-10-09T10:12:34.000Z</time>
      </trkpt>
      <trkpt lat="47.45977" lon="6.78437">
        <ele>395</ele>
        <time>2016-10-09T10:12:35.000Z</time>
      </trkpt>
      <trkpt lat="47.4598" lon="6.78441">
        <ele>395</ele>
        <time>2016-10-09T10:12:38.000Z</time>
      </trkpt>
      <trkpt lat="47.45981" lon="6.78443">
        <ele>395</ele>
        <time>2016-10-09T10:12:39.000Z</time>
      </trkpt>
      <trkpt lat="47.45982" lon="6.78449">
        <ele>395</ele>
        <time>2016-10-09T10:12:44.000Z</time>
      </trkpt>
      <trkpt lat="47.45983" lon="6.7845">
        <ele>395</ele>
        <time>2016-10-09T10:12:45.000Z</time>
      </trkpt>
      <trkpt lat="47.45987" lon="6.78453">
        <ele>395</ele>
        <time>2016-10-09T10:12:49.000Z</time>
      </trkpt>
      <trkpt lat="47.45988" lon="6.78453">
        <ele>395</ele>
        <time>2016-10-09T10:12:50.000Z</time>
      </trkpt>
      <trkpt lat="47.45989" lon="6.78459">
        <ele>395</ele>
        <time>2016-10-09T10:13:44.000Z</time>
      </trkpt>
      <trkpt lat="47.45989" lon="6.7846">
        <ele>395</ele>
        <time>2016-10-09T10:13:45.000Z</time>
      </trkpt>
      <trkpt lat="47.45993" lon="6.7846">
        <ele>396</ele>
        <time>2016-10-09T10:13:54.000Z</time>
      </trkpt>
      <trkpt lat="47.45994" lon="6.78459">
        <ele>396</ele>
        <time>2016-10-09T10:13:55.000Z</time>
      </trkpt>
      <trkpt lat="47.45997" lon="6.78459">
        <ele>396</ele>
        <time>2016-10-09T10:13:57.000Z</time>
      </trkpt>
      <trkpt lat="47.45999" lon="6.78458">
        <ele>396</ele>
        <time>2016-10-09T10:13:58.000Z</time>
      </trkpt>
      <trkpt lat="47.46003" lon="6.78459">
        <ele>404</ele>
        <time>2016-10-09T10:14:00.000Z</time>
      </trkpt>
      <trkpt lat="47.46005" lon="6.78459">
        <ele>404</ele>
        <time>2016-10-09T10:14:01.000Z</time>
      </trkpt>
      <trkpt lat="47.4601" lon="6.7846">
        <ele>404</ele>
        <time>2016-10-09T10:14:03.000Z</time>
      </trkpt>
      <trkpt lat="47.46011" lon="6.7846">
        <ele>404</ele>
        <time>2016-10-09T10:14:04.000Z</time>
      </trkpt>
      <trkpt lat="47.46015" lon="6.78461">
        <ele>405</ele>
        <time>2016-10-09T10:14:06.000Z</time>
      </trkpt>
      <trkpt lat="47.46016" lon="6.78461">
        <ele>405</ele>
        <time>2016-10-09T10:14:07.000Z</time>
      </trkpt>
      <trkpt lat="47.4602" lon="6.78463">
        <ele>405</ele>
        <time>2016-10-09T10:14:10.000Z</time>
      </trkpt>
      <trkpt lat="47.46021" lon="6.78463">
        <ele>405</ele>
        <time>2016-10-09T10:14:11.000Z</time>
      </trkpt>
      <trkpt lat="47.46025" lon="6.78465">
        <ele>405</ele>
        <time>2016-10-09T10:14:13.000Z</time>
      </trkpt>
      <trkpt lat="47.46027" lon="6.78465">
        <ele>405</ele>
        <time>2016-10-09T10:14:14.000Z</time>
      </trkpt>
      <trkpt lat="47.46031" lon="6.78466">
        <ele>405</ele>
        <time>2016-10-09T10:14:16.000Z</time>
      </trkpt>
      <trkpt lat="47.46033" lon="6.78466">
        <ele>405</ele>
        <time>2016-10-09T10:14:17.000Z</time>
      </trkpt>
      <trkpt lat="47.46037" lon="6.78467">
        <ele>406</ele>
        <time>2016-10-09T10:14:19.000Z</time>
      </trkpt>
      <trkpt lat="47.46039" lon="6.78467">
        <ele>406</ele>
        <time>2016-10-09T10:14:20.000Z</time>
      </trkpt>
      <trkpt lat="47.46042" lon="6.7847">
        <ele>406</ele>
        <time>2016-10-09T10:14:24.000Z</time>
      </trkpt>
      <trkpt lat="47.46044" lon="6.78472">
        <ele>406</ele>
        <time>2016-10-09T10:14:25.000Z</time>
      </trkpt>
      <trkpt lat="47.46047" lon="6.78476">
        <ele>406</ele>
        <time>2016-10-09T10:14:27.000Z</time>
      </trkpt>
      <trkpt lat="47.46048" lon="6.78479">
        <ele>406</ele>
        <time>2016-10-09T10:14:28.000Z</time>
      </trkpt>
      <trkpt lat="47.46051" lon="6.78484">
        <ele>407</ele>
        <time>2016-10-09T10:14:30.000Z</time>
      </trkpt>
      <trkpt lat="47.46053" lon="6.78486">
        <ele>407</ele>
        <time>2016-10-09T10:14:31.000Z</time>
      </trkpt>
      <trkpt lat="47.46055" lon="6.7849">
        <ele>407</ele>
        <time>2016-10-09T10:14:33.000Z</time>
      </trkpt>
      <trkpt lat="47.46057" lon="6.78492">
        <ele>407</ele>
        <time>2016-10-09T10:14:34.000Z</time>
      </trkpt>
      <trkpt lat="47.4606" lon="6.78495">
        <ele>408</ele>
        <time>2016-10-09T10:14:36.000Z</time>
      </trkpt>
      <trkpt lat="47.46061" lon="6.78495">
        <ele>408</ele>
        <time>2016-10-09T10:14:37.000Z</time>
      </trkpt>
      <trkpt lat="47.46064" lon="6.78497">
        <ele>408</ele>
        <time>2016-10-09T10:14:39.000Z</time>
      </trkpt>
      <trkpt lat="47.46066" lon="6.78498">
        <ele>408</ele>
        <time>2016-10-09T10:14:40.000Z</time>
      </trkpt>
      <trkpt lat="47.46069" lon="6.78498">
        <ele>409</ele>
        <time>2016-10-09T10:14:41.000Z</time>
      </trkpt>
      <trkpt lat="47.46071" lon="6.78498">
        <ele>409</ele>
        <time>2016-10-09T10:14:42.000Z</time>
      </trkpt>
      <trkpt lat="47.46073" lon="6.78498">
        <ele>409</ele>
        <time>2016-10-09T10:14:43.000Z</time>
      </trkpt>
      <trkpt lat="47.46076" lon="6.78498">
        <ele>410</ele>
        <time>2016-10-09T10:14:44.000Z</time>
      </trkpt>
      <trkpt lat="47.4608" lon="6.78498">
        <ele>410</ele>
        <time>2016-10-09T10:14:46.000Z</time>
      </trkpt>
      <trkpt lat="47.46082" lon="6.78497">
        <ele>410</ele>
        <time>2016-10-09T10:14:47.000Z</time>
      </trkpt>
      <trkpt lat="47.46086" lon="6.78497">
        <ele>411</ele>
        <time>2016-10-09T10:14:50.000Z</time>
      </trkpt>
      <trkpt lat="47.46087" lon="6.78498">
        <ele>411</ele>
        <time>2016-10-09T10:14:51.000Z</time>
      </trkpt>
      <trkpt lat="47.46091" lon="6.78499">
        <ele>411</ele>
        <time>2016-10-09T10:14:57.000Z</time>
      </trkpt>
      <trkpt lat="47.46092" lon="6.78498">
        <ele>411</ele>
        <time>2016-10-09T10:14:58.000Z</time>
      </trkpt>
      <trkpt lat="47.46095" lon="6.78496">
        <ele>411</ele>
        <time>2016-10-09T10:15:00.000Z</time>
      </trkpt>
      <trkpt lat="47.46097" lon="6.78496">
        <ele>411</ele>
        <time>2016-10-09T10:15:01.000Z</time>
      </trkpt>
      <trkpt lat="47.461" lon="6.78495">
        <ele>411</ele>
        <time>2016-10-09T10:15:02.000Z</time>
      </trkpt>
      <trkpt lat="47.46102" lon="6.78494">
        <ele>411</ele>
        <time>2016-10-09T10:15:03.000Z</time>
      </trkpt>
      <trkpt lat="47.46105" lon="6.78492">
        <ele>411</ele>
        <time>2016-10-09T10:15:04.000Z</time>
      </trkpt>
      <trkpt lat="47.46109" lon="6.78491">
        <ele>411</ele>
        <time>2016-10-09T10:15:05.000Z</time>
      </trkpt>
      <trkpt lat="47.46113" lon="6.78489">
        <ele>411</ele>
        <time>2016-10-09T10:15:06.000Z</time>
      </trkpt>
      <trkpt lat="47.46118" lon="6.78487">
        <ele>411</ele>
        <time>2016-10-09T10:15:07.000Z</time>
      </trkpt>
      <trkpt lat="47.46122" lon="6.78485">
        <ele>411</ele>
        <time>2016-10-09T10:15:08.000Z</time>
      </trkpt>
      <trkpt lat="47.46127" lon="6.78484">
        <ele>411</ele>
        <time>2016-10-09T10:15:09.000Z</time>
      </trkpt>
      <trkpt lat="47.46132" lon="6.78482">
        <ele>410</ele>
        <time>2016-10-09T10:15:10.000Z</time>
      </trkpt>
      <trkpt lat="47.46137" lon="6.7848">
        <ele>410</ele>
        <time>2016-10-09T10:15:11.000Z</time>
      </trkpt>
      <trkpt lat="47.4614" lon="6.78478">
        <ele>410</ele>
        <time>2016-10-09T10:15:12.000Z</time>
      </trkpt>
      <trkpt lat="47.46144" lon="6.78475">
        <ele>410</ele>
        <time>2016-10-09T10:15:13.000Z</time>
      </trkpt>
      <trkpt lat="47.46147" lon="6.78472">
        <ele>410</ele>
        <time>2016-10-09T10:15:14.000Z</time>
      </trkpt>
      <trkpt lat="47.4615" lon="6.78469">
        <ele>410</ele>
        <time>2016-10-09T10:15:15.000Z</time>
      </trkpt>
      <trkpt lat="47.46154" lon="6.78467">
        <ele>410</ele>
        <time>2016-10-09T10:15:16.000Z</time>
      </trkpt>
      <trkpt lat="47.46158" lon="6.78464">
        <ele>411</ele>
        <time>2016-10-09T10:15:17.000Z</time>
      </trkpt>
      <trkpt lat="47.46162" lon="6.78461">
        <ele>411</ele>
        <time>2016-10-09T10:15:18.000Z</time>
      </trkpt>
      <trkpt lat="47.46167" lon="6.78458">
        <ele>411</ele>
        <time>2016-10-09T10:15:19.000Z</time>
      </trkpt>
      <trkpt lat="47.46172" lon="6.78455">
        <ele>408</ele>
        <time>2016-10-09T10:15:20.000Z</time>
      </trkpt>
      <trkpt lat="47.46191" lon="6.78452">
        <ele>408</ele>
        <time>2016-10-09T10:15:21.000Z</time>
      </trkpt>
      <trkpt lat="47.462" lon="6.78452">
        <ele>407</ele>
        <time>2016-10-09T10:15:22.000Z</time>
      </trkpt>
      <trkpt lat="47.46208" lon="6.78449">
        <ele>407</ele>
        <time>2016-10-09T10:15:23.000Z</time>
      </trkpt>
      <trkpt lat="47.46216" lon="6.78445">
        <ele>407</ele>
        <time>2016-10-09T10:15:24.000Z</time>
      </trkpt>
      <trkpt lat="47.46224" lon="6.78441">
        <ele>406</ele>
        <time>2016-10-09T10:15:25.000Z</time>
      </trkpt>
      <trkpt lat="47.46232" lon="6.78438">
        <ele>406</ele>
        <time>2016-10-09T10:15:26.000Z</time>
      </trkpt>
      <trkpt lat="47.4624" lon="6.78436">
        <ele>406</ele>
        <time>2016-10-09T10:15:27.000Z</time>
      </trkpt>
      <trkpt lat="47.46248" lon="6.78434">
        <ele>405</ele>
        <time>2016-10-09T10:15:28.000Z</time>
      </trkpt>
      <trkpt lat="47.46254" lon="6.78433">
        <ele>403</ele>
        <time>2016-10-09T10:15:29.000Z</time>
      </trkpt>
      <trkpt lat="47.46263" lon="6.7843">
        <ele>403</ele>
        <time>2016-10-09T10:15:30.000Z</time>
      </trkpt>
      <trkpt lat="47.46273" lon="6.78428">
        <ele>403</ele>
        <time>2016-10-09T10:15:31.000Z</time>
      </trkpt>
      <trkpt lat="47.4628" lon="6.78425">
        <ele>403</ele>
        <time>2016-10-09T10:15:32.000Z</time>
      </trkpt>
      <trkpt lat="47.46288" lon="6.78423">
        <ele>402</ele>
        <time>2016-10-09T10:15:33.000Z</time>
      </trkpt>
      <trkpt lat="47.46295" lon="6.78419">
        <ele>402</ele>
        <time>2016-10-09T10:15:34.000Z</time>
      </trkpt>
      <trkpt lat="47.46302" lon="6.78417">
        <ele>400</ele>
        <time>2016-10-09T10:15:35.000Z</time>
      </trkpt>
      <trkpt lat="47.4631" lon="6.78415">
        <ele>400</ele>
        <time>2016-10-09T10:15:36.000Z</time>
      </trkpt>
      <trkpt lat="47.46321" lon="6.78411">
        <ele>400</ele>
        <time>2016-10-09T10:15:37.000Z</time>
      </trkpt>
      <trkpt lat="47.4633" lon="6.78408">
        <ele>400</ele>
        <time>2016-10-09T10:15:38.000Z</time>
      </trkpt>
      <trkpt lat="47.46343" lon="6.78406">
        <ele>398</ele>
        <time>2016-10-09T10:15:39.000Z</time>
      </trkpt>
      <trkpt lat="47.46353" lon="6.78408">
        <ele>398</ele>
        <time>2016-10-09T10:15:40.000Z</time>
      </trkpt>
      <trkpt lat="47.4636" lon="6.78408">
        <ele>397</ele>
        <time>2016-10-09T10:15:41.000Z</time>
      </trkpt>
      <trkpt lat="47.46365" lon="6.78407">
        <ele>397</ele>
        <time>2016-10-09T10:15:42.000Z</time>
      </trkpt>
      <trkpt lat="47.46366" lon="6.78414">
        <ele>397</ele>
        <time>2016-10-09T10:15:43.000Z</time>
      </trkpt>
      <trkpt lat="47.46369" lon="6.7841">
        <ele>397</ele>
        <time>2016-10-09T10:15:46.000Z</time>
      </trkpt>
      <trkpt lat="47.46369" lon="6.78407">
        <ele>397</ele>
        <time>2016-10-09T10:15:47.000Z</time>
      </trkpt>
      <trkpt lat="47.46369" lon="6.78401">
        <ele>397</ele>
        <time>2016-10-09T10:15:49.000Z</time>
      </trkpt>
      <trkpt lat="47.46368" lon="6.78396">
        <ele>397</ele>
        <time>2016-10-09T10:15:50.000Z</time>
      </trkpt>
      <trkpt lat="47.46376" lon="6.7838">
        <ele>396</ele>
        <time>2016-10-09T10:15:51.000Z</time>
      </trkpt>
      <trkpt lat="47.4638" lon="6.78371">
        <ele>395</ele>
        <time>2016-10-09T10:15:52.000Z</time>
      </trkpt>
      <trkpt lat="47.46386" lon="6.78362">
        <ele>394</ele>
        <time>2016-10-09T10:15:53.000Z</time>
      </trkpt>
      <trkpt lat="47.46391" lon="6.78355">
        <ele>394</ele>
        <time>2016-10-09T10:15:54.000Z</time>
      </trkpt>
      <trkpt lat="47.46396" lon="6.78348">
        <ele>393</ele>
        <time>2016-10-09T10:15:55.000Z</time>
      </trkpt>
      <trkpt lat="47.46402" lon="6.78341">
        <ele>392</ele>
        <time>2016-10-09T10:15:56.000Z</time>
      </trkpt>
      <trkpt lat="47.4641" lon="6.78338">
        <ele>390</ele>
        <time>2016-10-09T10:15:57.000Z</time>
      </trkpt>
      <trkpt lat="47.46417" lon="6.78332">
        <ele>388</ele>
        <time>2016-10-09T10:15:58.000Z</time>
      </trkpt>
      <trkpt lat="47.46426" lon="6.78325">
        <ele>386</ele>
        <time>2016-10-09T10:15:59.000Z</time>
      </trkpt>
      <trkpt lat="47.46433" lon="6.78318">
        <ele>385</ele>
        <time>2016-10-09T10:16:00.000Z</time>
      </trkpt>
      <trkpt lat="47.46439" lon="6.78312">
        <ele>384</ele>
        <time>2016-10-09T10:16:01.000Z</time>
      </trkpt>
      <trkpt lat="47.46445" lon="6.78306">
        <ele>384</ele>
        <time>2016-10-09T10:16:02.000Z</time>
      </trkpt>
      <trkpt lat="47.46449" lon="6.783">
        <ele>384</ele>
        <time>2016-10-09T10:16:03.000Z</time>
      </trkpt>
      <trkpt lat="47.46451" lon="6.78301">
        <ele>384</ele>
        <time>2016-10-09T10:16:04.000Z</time>
      </trkpt>
      <trkpt lat="47.46455" lon="6.78299">
        <ele>383</ele>
        <time>2016-10-09T10:16:05.000Z</time>
      </trkpt>
      <trkpt lat="47.46458" lon="6.78304">
        <ele>384</ele>
        <time>2016-10-09T10:16:06.000Z</time>
      </trkpt>
      <trkpt lat="47.46462" lon="6.78306">
        <ele>384</ele>
        <time>2016-10-09T10:16:07.000Z</time>
      </trkpt>
      <trkpt lat="47.46462" lon="6.78307">
        <ele>384</ele>
        <time>2016-10-09T10:16:07.107Z</time>
      </trkpt>
      <trkpt lat="47.46471" lon="6.78312">
        <ele>384</ele>
        <time>2016-10-09T10:16:09.000Z</time>
      </trkpt>
      <trkpt lat="47.46475" lon="6.78315">
        <ele>384</ele>
        <time>2016-10-09T10:16:10.000Z</time>
      </trkpt>
      <trkpt lat="47.4648" lon="6.78321">
        <ele>385</ele>
        <time>2016-10-09T10:16:11.000Z</time>
      </trkpt>
      <trkpt lat="47.46485" lon="6.78325">
        <ele>385</ele>
        <time>2016-10-09T10:16:12.000Z</time>
      </trkpt>
      <trkpt lat="47.46489" lon="6.78329">
        <ele>386</ele>
        <time>2016-10-09T10:16:13.000Z</time>
      </trkpt>
      <trkpt lat="47.46494" lon="6.78332">
        <ele>386</ele>
        <time>2016-10-09T10:16:14.000Z</time>
      </trkpt>
      <trkpt lat="47.46498" lon="6.78336">
        <ele>388</ele>
        <time>2016-10-09T10:16:15.000Z</time>
      </trkpt>
      <trkpt lat="47.46502" lon="6.78341">
        <ele>387</ele>
        <time>2016-10-09T10:16:16.000Z</time>
      </trkpt>
      <trkpt lat="47.46506" lon="6.78344">
        <ele>387</ele>
        <time>2016-10-09T10:16:17.000Z</time>
      </trkpt>
      <trkpt lat="47.4651" lon="6.78347">
        <ele>387</ele>
        <time>2016-10-09T10:16:18.000Z</time>
      </trkpt>
      <trkpt lat="47.46514" lon="6.7835">
        <ele>387</ele>
        <time>2016-10-09T10:16:19.000Z</time>
      </trkpt>
      <trkpt lat="47.46514" lon="6.7835">
        <ele>387</ele>
        <time>2016-10-09T10:16:19.111Z</time>
      </trkpt>
      <trkpt lat="47.46521" lon="6.78351">
        <ele>387</ele>
        <time>2016-10-09T10:16:21.000Z</time>
      </trkpt>
      <trkpt lat="47.46525" lon="6.78353">
        <ele>387</ele>
        <time>2016-10-09T10:16:22.000Z</time>
      </trkpt>
      <trkpt lat="47.46529" lon="6.78356">
        <ele>387</ele>
        <time>2016-10-09T10:16:23.000Z</time>
      </trkpt>
      <trkpt lat="47.46532" lon="6.78361">
        <ele>387</ele>
        <time>2016-10-09T10:16:24.000Z</time>
      </trkpt>
      <trkpt lat="47.46536" lon="6.78363">
        <ele>387</ele>
        <time>2016-10-09T10:16:25.000Z</time>
      </trkpt>
      <trkpt lat="47.4654" lon="6.78365">
        <ele>387</ele>
        <time>2016-10-09T10:16:26.000Z</time>
      </trkpt>
      <trkpt lat="47.46543" lon="6.78368">
        <ele>387</ele>
        <time>2016-10-09T10:16:27.000Z</time>
      </trkpt>
      <trkpt lat="47.46546" lon="6.7837">
        <ele>387</ele>
        <time>2016-10-09T10:16:28.000Z</time>
      </trkpt>
      <trkpt lat="47.46549" lon="6.78372">
        <ele>387</ele>
        <time>2016-10-09T10:16:29.000Z</time>
      </trkpt>
      <trkpt lat="47.46552" lon="6.78376">
        <ele>387</ele>
        <time>2016-10-09T10:16:31.000Z</time>
      </trkpt>
      <trkpt lat="47.46553" lon="6.78378">
        <ele>387</ele>
        <time>2016-10-09T10:16:32.000Z</time>
      </trkpt>
      <trkpt lat="47.46554" lon="6.78384">
        <ele>387</ele>
        <time>2016-10-09T10:16:34.000Z</time>
      </trkpt>
      <trkpt lat="47.46555" lon="6.78388">
        <ele>387</ele>
        <time>2016-10-09T10:16:35.000Z</time>
      </trkpt>
      <trkpt lat="47.46557" lon="6.78392">
        <ele>387</ele>
        <time>2016-10-09T10:16:36.000Z</time>
      </trkpt>
      <trkpt lat="47.46558" lon="6.78397">
        <ele>387</ele>
        <time>2016-10-09T10:16:37.000Z</time>
      </trkpt>
      <trkpt lat="47.46559" lon="6.78401">
        <ele>387</ele>
        <time>2016-10-09T10:16:38.000Z</time>
      </trkpt>
      <trkpt lat="47.4656" lon="6.78405">
        <ele>387</ele>
        <time>2016-10-09T10:16:39.000Z</time>
      </trkpt>
      <trkpt lat="47.46561" lon="6.78409">
        <ele>387</ele>
        <time>2016-10-09T10:16:40.000Z</time>
      </trkpt>
      <trkpt lat="47.46561" lon="6.78415">
        <ele>387</ele>
        <time>2016-10-09T10:16:41.000Z</time>
      </trkpt>
      <trkpt lat="47.46561" lon="6.7842">
        <ele>389</ele>
        <time>2016-10-09T10:16:42.000Z</time>
      </trkpt>
      <trkpt lat="47.46561" lon="6.78424">
        <ele>390</ele>
        <time>2016-10-09T10:16:43.000Z</time>
      </trkpt>
      <trkpt lat="47.4656" lon="6.78428">
        <ele>390</ele>
        <time>2016-10-09T10:16:44.000Z</time>
      </trkpt>
      <trkpt lat="47.46561" lon="6.78431">
        <ele>390</ele>
        <time>2016-10-09T10:16:45.000Z</time>
      </trkpt>
      <trkpt lat="47.46561" lon="6.78435">
        <ele>390</ele>
        <time>2016-10-09T10:16:46.000Z</time>
      </trkpt>
      <trkpt lat="47.46562" lon="6.78439">
        <ele>390</ele>
        <time>2016-10-09T10:16:47.000Z</time>
      </trkpt>
      <trkpt lat="47.46562" lon="6.78443">
        <ele>390</ele>
        <time>2016-10-09T10:16:48.000Z</time>
      </trkpt>
      <trkpt lat="47.46562" lon="6.78447">
        <ele>390</ele>
        <time>2016-10-09T10:16:49.000Z</time>
      </trkpt>
      <trkpt lat="47.46562" lon="6.78451">
        <ele>390</ele>
        <time>2016-10-09T10:16:50.000Z</time>
      </trkpt>
      <trkpt lat="47.46561" lon="6.78455">
        <ele>390</ele>
        <time>2016-10-09T10:16:51.000Z</time>
      </trkpt>
      <trkpt lat="47.46561" lon="6.78456">
        <ele>390</ele>
        <time>2016-10-09T10:16:51.109Z</time>
      </trkpt>
      <trkpt lat="47.46561" lon="6.78463">
        <ele>390</ele>
        <time>2016-10-09T10:16:53.000Z</time>
      </trkpt>
      <trkpt lat="47.46561" lon="6.78466">
        <ele>390</ele>
        <time>2016-10-09T10:16:54.000Z</time>
      </trkpt>
      <trkpt lat="47.46561" lon="6.7847">
        <ele>390</ele>
        <time>2016-10-09T10:16:55.000Z</time>
      </trkpt>
      <trkpt lat="47.46561" lon="6.78474">
        <ele>390</ele>
        <time>2016-10-09T10:16:56.000Z</time>
      </trkpt>
      <trkpt lat="47.46561" lon="6.78478">
        <ele>390</ele>
        <time>2016-10-09T10:16:57.000Z</time>
      </trkpt>
      <trkpt lat="47.46561" lon="6.78483">
        <ele>390</ele>
        <time>2016-10-09T10:16:58.000Z</time>
      </trkpt>
      <trkpt lat="47.4656" lon="6.78487">
        <ele>390</ele>
        <time>2016-10-09T10:16:59.000Z</time>
      </trkpt>
      <trkpt lat="47.4656" lon="6.78491">
        <ele>390</ele>
        <time>2016-10-09T10:17:00.000Z</time>
      </trkpt>
      <trkpt lat="47.46559" lon="6.78494">
        <ele>390</ele>
        <time>2016-10-09T10:17:01.000Z</time>
      </trkpt>
      <trkpt lat="47.46557" lon="6.78497">
        <ele>390</ele>
        <time>2016-10-09T10:17:02.000Z</time>
      </trkpt>
      <trkpt lat="47.46556" lon="6.78501">
        <ele>392</ele>
        <time>2016-10-09T10:17:03.000Z</time>
      </trkpt>
      <trkpt lat="47.46555" lon="6.78504">
        <ele>392</ele>
        <time>2016-10-09T10:17:04.000Z</time>
      </trkpt>
      <trkpt lat="47.46555" lon="6.78508">
        <ele>392</ele>
        <time>2016-10-09T10:17:05.000Z</time>
      </trkpt>
      <trkpt lat="47.46555" lon="6.78508">
        <ele>392</ele>
        <time>2016-10-09T10:17:05.110Z</time>
      </trkpt>
      <trkpt lat="47.46556" lon="6.78515">
        <ele>392</ele>
        <time>2016-10-09T10:17:07.000Z</time>
      </trkpt>
      <trkpt lat="47.46556" lon="6.78518">
        <ele>392</ele>
        <time>2016-10-09T10:17:08.000Z</time>
      </trkpt>
      <trkpt lat="47.46556" lon="6.78522">
        <ele>392</ele>
        <time>2016-10-09T10:17:09.000Z</time>
      </trkpt>
      <trkpt lat="47.46556" lon="6.78525">
        <ele>392</ele>
        <time>2016-10-09T10:17:10.000Z</time>
      </trkpt>
      <trkpt lat="47.46556" lon="6.78528">
        <ele>393</ele>
        <time>2016-10-09T10:17:11.000Z</time>
      </trkpt>
      <trkpt lat="47.46554" lon="6.78532">
        <ele>393</ele>
        <time>2016-10-09T10:17:12.000Z</time>
      </trkpt>
      <trkpt lat="47.46553" lon="6.78535">
        <ele>393</ele>
        <time>2016-10-09T10:17:13.000Z</time>
      </trkpt>
      <trkpt lat="47.46545" lon="6.78545">
        <ele>394</ele>
        <time>2016-10-09T10:17:14.000Z</time>
      </trkpt>
      <trkpt lat="47.46547" lon="6.7855">
        <ele>394</ele>
        <time>2016-10-09T10:17:15.000Z</time>
      </trkpt>
      <trkpt lat="47.46548" lon="6.78555">
        <ele>394</ele>
        <time>2016-10-09T10:17:16.000Z</time>
      </trkpt>
      <trkpt lat="47.46549" lon="6.78558">
        <ele>394</ele>
        <time>2016-10-09T10:17:17.000Z</time>
      </trkpt>
      <trkpt lat="47.46548" lon="6.78562">
        <ele>394</ele>
        <time>2016-10-09T10:17:18.000Z</time>
      </trkpt>
      <trkpt lat="47.4655" lon="6.78564">
        <ele>394</ele>
        <time>2016-10-09T10:17:19.000Z</time>
      </trkpt>
      <trkpt lat="47.4655" lon="6.7857">
        <ele>394</ele>
        <time>2016-10-09T10:17:20.000Z</time>
      </trkpt>
      <trkpt lat="47.46551" lon="6.78576">
        <ele>394</ele>
        <time>2016-10-09T10:17:22.000Z</time>
      </trkpt>
      <trkpt lat="47.46552" lon="6.7858">
        <ele>393</ele>
        <time>2016-10-09T10:17:23.000Z</time>
      </trkpt>
      <trkpt lat="47.46553" lon="6.78586">
        <ele>394</ele>
        <time>2016-10-09T10:17:25.000Z</time>
      </trkpt>
      <trkpt lat="47.46554" lon="6.78589">
        <ele>394</ele>
        <time>2016-10-09T10:17:26.000Z</time>
      </trkpt>
      <trkpt lat="47.46555" lon="6.78593">
        <ele>394</ele>
        <time>2016-10-09T10:17:27.000Z</time>
      </trkpt>
      <trkpt lat="47.46555" lon="6.78597">
        <ele>394</ele>
        <time>2016-10-09T10:17:28.000Z</time>
      </trkpt>
      <trkpt lat="47.46556" lon="6.78601">
        <ele>394</ele>
        <time>2016-10-09T10:17:29.000Z</time>
      </trkpt>
      <trkpt lat="47.46557" lon="6.78604">
        <ele>394</ele>
        <time>2016-10-09T10:17:30.000Z</time>
      </trkpt>
      <trkpt lat="47.46559" lon="6.78609">
        <ele>394</ele>
        <time>2016-10-09T10:17:32.000Z</time>
      </trkpt>
      <trkpt lat="47.4656" lon="6.78613">
        <ele>394</ele>
        <time>2016-10-09T10:17:33.000Z</time>
      </trkpt>
      <trkpt lat="47.46559" lon="6.78617">
        <ele>394</ele>
        <time>2016-10-09T10:17:34.000Z</time>
      </trkpt>
      <trkpt lat="47.4656" lon="6.78622">
        <ele>394</ele>
        <time>2016-10-09T10:17:35.000Z</time>
      </trkpt>
      <trkpt lat="47.4656" lon="6.78627">
        <ele>394</ele>
        <time>2016-10-09T10:17:36.000Z</time>
      </trkpt>
      <trkpt lat="47.4656" lon="6.78632">
        <ele>394</ele>
        <time>2016-10-09T10:17:37.000Z</time>
      </trkpt>
      <trkpt lat="47.4656" lon="6.78637">
        <ele>394</ele>
        <time>2016-10-09T10:17:38.000Z</time>
      </trkpt>
      <trkpt lat="47.46559" lon="6.78641">
        <ele>393</ele>
        <time>2016-10-09T10:17:39.000Z</time>
      </trkpt>
      <trkpt lat="47.46559" lon="6.78645">
        <ele>393</ele>
        <time>2016-10-09T10:17:40.000Z</time>
      </trkpt>
      <trkpt lat="47.46559" lon="6.78649">
        <ele>393</ele>
        <time>2016-10-09T10:17:41.000Z</time>
      </trkpt>
      <trkpt lat="47.46558" lon="6.78652">
        <ele>393</ele>
        <time>2016-10-09T10:17:42.000Z</time>
      </trkpt>
      <trkpt lat="47.46558" lon="6.78655">
        <ele>393</ele>
        <time>2016-10-09T10:17:43.000Z</time>
      </trkpt>
      <trkpt lat="47.46557" lon="6.78661">
        <ele>393</ele>
        <time>2016-10-09T10:17:45.000Z</time>
      </trkpt>
      <trkpt lat="47.46556" lon="6.78664">
        <ele>393</ele>
        <time>2016-10-09T10:17:46.000Z</time>
      </trkpt>
      <trkpt lat="47.46556" lon="6.78668">
        <ele>392</ele>
        <time>2016-10-09T10:17:47.000Z</time>
      </trkpt>
      <trkpt lat="47.46556" lon="6.78671">
        <ele>392</ele>
        <time>2016-10-09T10:17:48.000Z</time>
      </trkpt>
      <trkpt lat="47.46557" lon="6.78678">
        <ele>392</ele>
        <time>2016-10-09T10:17:50.000Z</time>
      </trkpt>
      <trkpt lat="47.46558" lon="6.78679">
        <ele>391</ele>
        <time>2016-10-09T10:17:51.000Z</time>
      </trkpt>
      <trkpt lat="47.46561" lon="6.78679">
        <ele>391</ele>
        <time>2016-10-09T10:18:22.000Z</time>
      </trkpt>
      <trkpt lat="47.46564" lon="6.78678">
        <ele>391</ele>
        <time>2016-10-09T10:18:23.000Z</time>
      </trkpt>
      <trkpt lat="47.46568" lon="6.78676">
        <ele>390</ele>
        <time>2016-10-09T10:18:24.000Z</time>
      </trkpt>
      <trkpt lat="47.46572" lon="6.78676">
        <ele>389</ele>
        <time>2016-10-09T10:18:25.000Z</time>
      </trkpt>
      <trkpt lat="47.46576" lon="6.78676">
        <ele>389</ele>
        <time>2016-10-09T10:18:26.000Z</time>
      </trkpt>
      <trkpt lat="47.4658" lon="6.78677">
        <ele>388</ele>
        <time>2016-10-09T10:18:27.000Z</time>
      </trkpt>
      <trkpt lat="47.46584" lon="6.78677">
        <ele>385</ele>
        <time>2016-10-09T10:18:28.000Z</time>
      </trkpt>
      <trkpt lat="47.46588" lon="6.78676">
        <ele>384</ele>
        <time>2016-10-09T10:18:29.000Z</time>
      </trkpt>
      <trkpt lat="47.466" lon="6.78675">
        <ele>384</ele>
        <time>2016-10-09T10:18:30.000Z</time>
      </trkpt>
      <trkpt lat="47.46606" lon="6.78673">
        <ele>383</ele>
        <time>2016-10-09T10:18:31.000Z</time>
      </trkpt>
      <trkpt lat="47.46613" lon="6.78675">
        <ele>383</ele>
        <time>2016-10-09T10:18:32.000Z</time>
      </trkpt>
      <trkpt lat="47.4662" lon="6.78675">
        <ele>382</ele>
        <time>2016-10-09T10:18:33.000Z</time>
      </trkpt>
      <trkpt lat="47.46627" lon="6.78674">
        <ele>382</ele>
        <time>2016-10-09T10:18:34.000Z</time>
      </trkpt>
      <trkpt lat="47.46634" lon="6.78674">
        <ele>382</ele>
        <time>2016-10-09T10:18:35.000Z</time>
      </trkpt>
      <trkpt lat="47.46641" lon="6.78675">
        <ele>382</ele>
        <time>2016-10-09T10:18:36.000Z</time>
      </trkpt>
      <trkpt lat="47.46648" lon="6.78673">
        <ele>381</ele>
        <time>2016-10-09T10:18:37.000Z</time>
      </trkpt>
      <trkpt lat="47.4665" lon="6.78673">
        <ele>381</ele>
        <time>2016-10-09T10:18:38.000Z</time>
      </trkpt>
      <trkpt lat="47.46653" lon="6.78675">
        <ele>381</ele>
        <time>2016-10-09T10:18:39.000Z</time>
      </trkpt>
      <trkpt lat="47.46657" lon="6.78676">
        <ele>381</ele>
        <time>2016-10-09T10:18:40.000Z</time>
      </trkpt>
      <trkpt lat="47.4666" lon="6.78679">
        <ele>381</ele>
        <time>2016-10-09T10:18:41.000Z</time>
      </trkpt>
      <trkpt lat="47.46663" lon="6.78679">
        <ele>381</ele>
        <time>2016-10-09T10:18:42.000Z</time>
      </trkpt>
      <trkpt lat="47.46666" lon="6.78679">
        <ele>381</ele>
        <time>2016-10-09T10:18:43.000Z</time>
      </trkpt>
      <trkpt lat="47.4667" lon="6.7868">
        <ele>378</ele>
        <time>2016-10-09T10:18:44.000Z</time>
      </trkpt>
      <trkpt lat="47.46673" lon="6.78678">
        <ele>378</ele>
        <time>2016-10-09T10:18:45.000Z</time>
      </trkpt>
      <trkpt lat="47.46676" lon="6.78677">
        <ele>378</ele>
        <time>2016-10-09T10:18:46.000Z</time>
      </trkpt>
      <trkpt lat="47.46679" lon="6.78675">
        <ele>378</ele>
        <time>2016-10-09T10:18:47.000Z</time>
      </trkpt>
      <trkpt lat="47.46682" lon="6.78672">
        <ele>378</ele>
        <time>2016-10-09T10:18:48.000Z</time>
      </trkpt>
      <trkpt lat="47.46686" lon="6.7867">
        <ele>377</ele>
        <time>2016-10-09T10:18:49.000Z</time>
      </trkpt>
      <trkpt lat="47.4669" lon="6.7867">
        <ele>377</ele>
        <time>2016-10-09T10:18:50.000Z</time>
      </trkpt>
      <trkpt lat="47.46694" lon="6.7867">
        <ele>376</ele>
        <time>2016-10-09T10:18:51.000Z</time>
      </trkpt>
      <trkpt lat="47.46699" lon="6.78671">
        <ele>376</ele>
        <time>2016-10-09T10:18:52.000Z</time>
      </trkpt>
      <trkpt lat="47.46704" lon="6.78672">
        <ele>375</ele>
        <time>2016-10-09T10:18:53.000Z</time>
      </trkpt>
      <trkpt lat="47.46709" lon="6.78674">
        <ele>375</ele>
        <time>2016-10-09T10:18:54.000Z</time>
      </trkpt>
      <trkpt lat="47.46713" lon="6.78676">
        <ele>374</ele>
        <time>2016-10-09T10:18:55.000Z</time>
      </trkpt>
      <trkpt lat="47.46716" lon="6.78677">
        <ele>374</ele>
        <time>2016-10-09T10:18:56.000Z</time>
      </trkpt>
      <trkpt lat="47.4672" lon="6.7868">
        <ele>374</ele>
        <time>2016-10-09T10:18:59.000Z</time>
      </trkpt>
      <trkpt lat="47.46721" lon="6.78681">
        <ele>374</ele>
        <time>2016-10-09T10:19:00.000Z</time>
      </trkpt>
      <trkpt lat="47.46724" lon="6.78683">
        <ele>374</ele>
        <time>2016-10-09T10:19:03.000Z</time>
      </trkpt>
      <trkpt lat="47.46726" lon="6.78683">
        <ele>374</ele>
        <time>2016-10-09T10:19:04.000Z</time>
      </trkpt>
      <trkpt lat="47.4673" lon="6.78683">
        <ele>373</ele>
        <time>2016-10-09T10:19:06.000Z</time>
      </trkpt>
      <trkpt lat="47.46733" lon="6.78682">
        <ele>373</ele>
        <time>2016-10-09T10:19:07.000Z</time>
      </trkpt>
      <trkpt lat="47.46736" lon="6.78681">
        <ele>373</ele>
        <time>2016-10-09T10:19:08.000Z</time>
      </trkpt>
      <trkpt lat="47.46739" lon="6.78681">
        <ele>373</ele>
        <time>2016-10-09T10:19:09.000Z</time>
      </trkpt>
      <trkpt lat="47.46743" lon="6.78681">
        <ele>373</ele>
        <time>2016-10-09T10:19:11.000Z</time>
      </trkpt>
      <trkpt lat="47.46744" lon="6.78681">
        <ele>373</ele>
        <time>2016-10-09T10:19:12.000Z</time>
      </trkpt>
      <trkpt lat="47.46747" lon="6.78678">
        <ele>373</ele>
        <time>2016-10-09T10:19:14.000Z</time>
      </trkpt>
      <trkpt lat="47.46748" lon="6.78674">
        <ele>372</ele>
        <time>2016-10-09T10:19:15.000Z</time>
      </trkpt>
      <trkpt lat="47.4675" lon="6.78669">
        <ele>372</ele>
        <time>2016-10-09T10:19:16.000Z</time>
      </trkpt>
      <trkpt lat="47.46752" lon="6.78665">
        <ele>372</ele>
        <time>2016-10-09T10:19:17.000Z</time>
      </trkpt>
      <trkpt lat="47.46756" lon="6.78662">
        <ele>371</ele>
        <time>2016-10-09T10:19:18.000Z</time>
      </trkpt>
      <trkpt lat="47.46759" lon="6.78661">
        <ele>370</ele>
        <time>2016-10-09T10:19:19.000Z</time>
      </trkpt>
      <trkpt lat="47.46764" lon="6.7866">
        <ele>370</ele>
        <time>2016-10-09T10:19:20.000Z</time>
      </trkpt>
      <trkpt lat="47.46768" lon="6.7866">
        <ele>369</ele>
        <time>2016-10-09T10:19:21.000Z</time>
      </trkpt>
      <trkpt lat="47.46774" lon="6.78649">
        <ele>369</ele>
        <time>2016-10-09T10:19:22.000Z</time>
      </trkpt>
      <trkpt lat="47.4678" lon="6.78643">
        <ele>368</ele>
        <time>2016-10-09T10:19:23.000Z</time>
      </trkpt>
      <trkpt lat="47.46783" lon="6.78636">
        <ele>368</ele>
        <time>2016-10-09T10:19:24.000Z</time>
      </trkpt>
      <trkpt lat="47.46787" lon="6.7863">
        <ele>368</ele>
        <time>2016-10-09T10:19:25.000Z</time>
      </trkpt>
      <trkpt lat="47.46792" lon="6.78623">
        <ele>367</ele>
        <time>2016-10-09T10:19:26.000Z</time>
      </trkpt>
      <trkpt lat="47.46796" lon="6.78616">
        <ele>367</ele>
        <time>2016-10-09T10:19:27.000Z</time>
      </trkpt>
      <trkpt lat="47.46801" lon="6.7861">
        <ele>366</ele>
        <time>2016-10-09T10:19:28.000Z</time>
      </trkpt>
      <trkpt lat="47.46808" lon="6.78602">
        <ele>366</ele>
        <time>2016-10-09T10:19:29.000Z</time>
      </trkpt>
      <trkpt lat="47.46817" lon="6.78592">
        <ele>364</ele>
        <time>2016-10-09T10:19:30.000Z</time>
      </trkpt>
      <trkpt lat="47.46825" lon="6.78581">
        <ele>362</ele>
        <time>2016-10-09T10:19:31.000Z</time>
      </trkpt>
      <trkpt lat="47.46831" lon="6.78572">
        <ele>362</ele>
        <time>2016-10-09T10:19:32.000Z</time>
      </trkpt>
      <trkpt lat="47.46836" lon="6.78568">
        <ele>357</ele>
        <time>2016-10-09T10:19:33.000Z</time>
      </trkpt>
      <trkpt lat="47.46843" lon="6.78564">
        <ele>357</ele>
        <time>2016-10-09T10:19:34.000Z</time>
      </trkpt>
      <trkpt lat="47.46851" lon="6.78561">
        <ele>356</ele>
        <time>2016-10-09T10:19:35.000Z</time>
      </trkpt>
      <trkpt lat="47.4686" lon="6.7856">
        <ele>355</ele>
        <time>2016-10-09T10:19:36.000Z</time>
      </trkpt>
      <trkpt lat="47.46872" lon="6.7856">
        <ele>354</ele>
        <time>2016-10-09T10:19:37.000Z</time>
      </trkpt>
      <trkpt lat="47.46886" lon="6.7856">
        <ele>353</ele>
        <time>2016-10-09T10:19:38.000Z</time>
      </trkpt>
      <trkpt lat="47.46896" lon="6.78564">
        <ele>352</ele>
        <time>2016-10-09T10:19:39.000Z</time>
      </trkpt>
      <trkpt lat="47.46905" lon="6.78568">
        <ele>351</ele>
        <time>2016-10-09T10:19:40.000Z</time>
      </trkpt>
      <trkpt lat="47.46908" lon="6.78575">
        <ele>350</ele>
        <time>2016-10-09T10:19:41.000Z</time>
      </trkpt>
      <trkpt lat="47.4691" lon="6.7858">
        <ele>349</ele>
        <time>2016-10-09T10:19:42.000Z</time>
      </trkpt>
      <trkpt lat="47.46913" lon="6.78584">
        <ele>349</ele>
        <time>2016-10-09T10:19:43.000Z</time>
      </trkpt>
      <trkpt lat="47.46916" lon="6.78585">
        <ele>349</ele>
        <time>2016-10-09T10:19:45.000Z</time>
      </trkpt>
      <trkpt lat="47.46917" lon="6.78585">
        <ele>349</ele>
        <time>2016-10-09T10:19:46.000Z</time>
      </trkpt>
      <trkpt lat="47.46922" lon="6.78586">
        <ele>350</ele>
        <time>2016-10-09T10:19:48.000Z</time>
      </trkpt>
      <trkpt lat="47.46922" lon="6.78586">
        <ele>350</ele>
        <time>2016-10-09T10:19:49.000Z</time>
      </trkpt>
      <trkpt lat="47.46926" lon="6.78584">
        <ele>351</ele>
        <time>2016-10-09T10:19:53.000Z</time>
      </trkpt>
      <trkpt lat="47.46927" lon="6.78584">
        <ele>351</ele>
        <time>2016-10-09T10:19:54.000Z</time>
      </trkpt>
      <trkpt lat="47.46932" lon="6.78585">
        <ele>352</ele>
        <time>2016-10-09T10:19:58.000Z</time>
      </trkpt>
      <trkpt lat="47.46932" lon="6.78585">
        <ele>352</ele>
        <time>2016-10-09T10:19:59.000Z</time>
      </trkpt>
      <trkpt lat="47.46935" lon="6.78582">
        <ele>351</ele>
        <time>2016-10-09T10:20:02.000Z</time>
      </trkpt>
      <trkpt lat="47.46937" lon="6.78581">
        <ele>351</ele>
        <time>2016-10-09T10:20:03.000Z</time>
      </trkpt>
      <trkpt lat="47.4694" lon="6.7858">
        <ele>352</ele>
        <time>2016-10-09T10:20:05.000Z</time>
      </trkpt>
      <trkpt lat="47.46942" lon="6.7858">
        <ele>352</ele>
        <time>2016-10-09T10:20:06.000Z</time>
      </trkpt>
      <trkpt lat="47.46945" lon="6.78579">
        <ele>352</ele>
        <time>2016-10-09T10:20:08.000Z</time>
      </trkpt>
      <trkpt lat="47.46947" lon="6.78579">
        <ele>353</ele>
        <time>2016-10-09T10:20:09.000Z</time>
      </trkpt>
      <trkpt lat="47.4695" lon="6.78578">
        <ele>353</ele>
        <time>2016-10-09T10:20:12.000Z</time>
      </trkpt>
      <trkpt lat="47.46951" lon="6.78578">
        <ele>353</ele>
        <time>2016-10-09T10:20:13.000Z</time>
      </trkpt>
      <trkpt lat="47.46955" lon="6.78578">
        <ele>354</ele>
        <time>2016-10-09T10:20:16.000Z</time>
      </trkpt>
      <trkpt lat="47.46956" lon="6.78578">
        <ele>354</ele>
        <time>2016-10-09T10:20:17.000Z</time>
      </trkpt>
      <trkpt lat="47.4696" lon="6.78576">
        <ele>354</ele>
        <time>2016-10-09T10:20:20.000Z</time>
      </trkpt>
      <trkpt lat="47.46961" lon="6.78576">
        <ele>354</ele>
        <time>2016-10-09T10:20:21.000Z</time>
      </trkpt>
      <trkpt lat="47.46965" lon="6.78573">
        <ele>355</ele>
        <time>2016-10-09T10:20:24.000Z</time>
      </trkpt>
      <trkpt lat="47.46967" lon="6.78572">
        <ele>355</ele>
        <time>2016-10-09T10:20:25.000Z</time>
      </trkpt>
      <trkpt lat="47.4697" lon="6.78571">
        <ele>355</ele>
        <time>2016-10-09T10:20:27.000Z</time>
      </trkpt>
      <trkpt lat="47.46972" lon="6.78571">
        <ele>355</ele>
        <time>2016-10-09T10:20:28.000Z</time>
      </trkpt>
      <trkpt lat="47.46976" lon="6.78568">
        <ele>356</ele>
        <time>2016-10-09T10:20:31.000Z</time>
      </trkpt>
      <trkpt lat="47.46977" lon="6.78567">
        <ele>356</ele>
        <time>2016-10-09T10:20:32.000Z</time>
      </trkpt>
      <trkpt lat="47.46979" lon="6.78564">
        <ele>356</ele>
        <time>2016-10-09T10:20:34.000Z</time>
      </trkpt>
      <trkpt lat="47.46981" lon="6.78562">
        <ele>356</ele>
        <time>2016-10-09T10:20:35.000Z</time>
      </trkpt>
      <trkpt lat="47.46983" lon="6.7856">
        <ele>356</ele>
        <time>2016-10-09T10:20:36.000Z</time>
      </trkpt>
      <trkpt lat="47.46985" lon="6.78559">
        <ele>356</ele>
        <time>2016-10-09T10:20:37.000Z</time>
      </trkpt>
      <trkpt lat="47.46987" lon="6.78557">
        <ele>356</ele>
        <time>2016-10-09T10:20:38.000Z</time>
      </trkpt>
      <trkpt lat="47.46989" lon="6.78555">
        <ele>356</ele>
        <time>2016-10-09T10:20:39.000Z</time>
      </trkpt>
      <trkpt lat="47.46991" lon="6.78553">
        <ele>356</ele>
        <time>2016-10-09T10:20:40.000Z</time>
      </trkpt>
      <trkpt lat="47.46993" lon="6.78551">
        <ele>356</ele>
        <time>2016-10-09T10:20:41.000Z</time>
      </trkpt>
      <trkpt lat="47.46995" lon="6.78549">
        <ele>356</ele>
        <time>2016-10-09T10:20:42.000Z</time>
      </trkpt>
      <trkpt lat="47.46998" lon="6.78547">
        <ele>356</ele>
        <time>2016-10-09T10:20:43.000Z</time>
      </trkpt>
      <trkpt lat="47.47001" lon="6.78544">
        <ele>361</ele>
        <time>2016-10-09T10:20:44.999Z</time>
      </trkpt>
      <trkpt lat="47.47004" lon="6.78541">
        <ele>361</ele>
        <time>2016-10-09T10:20:46.000Z</time>
      </trkpt>
      <trkpt lat="47.47006" lon="6.78539">
        <ele>361</ele>
        <time>2016-10-09T10:20:47.000Z</time>
      </trkpt>
      <trkpt lat="47.47008" lon="6.78537">
        <ele>361</ele>
        <time>2016-10-09T10:20:48.000Z</time>
      </trkpt>
      <trkpt lat="47.47012" lon="6.78534">
        <ele>361</ele>
        <time>2016-10-09T10:20:50.000Z</time>
      </trkpt>
      <trkpt lat="47.47014" lon="6.78533">
        <ele>361</ele>
        <time>2016-10-09T10:20:51.000Z</time>
      </trkpt>
      <trkpt lat="47.47017" lon="6.78532">
        <ele>361</ele>
        <time>2016-10-09T10:20:53.000Z</time>
      </trkpt>
      <trkpt lat="47.47019" lon="6.78531">
        <ele>361</ele>
        <time>2016-10-09T10:20:54.000Z</time>
      </trkpt>
      <trkpt lat="47.47023" lon="6.7853">
        <ele>361</ele>
        <time>2016-10-09T10:20:56.000Z</time>
      </trkpt>
      <trkpt lat="47.47026" lon="6.78529">
        <ele>361</ele>
        <time>2016-10-09T10:20:57.000Z</time>
      </trkpt>
      <trkpt lat="47.47028" lon="6.78528">
        <ele>361</ele>
        <time>2016-10-09T10:20:58.000Z</time>
      </trkpt>
      <trkpt lat="47.4703" lon="6.78527">
        <ele>361</ele>
        <time>2016-10-09T10:20:59.000Z</time>
      </trkpt>
      <trkpt lat="47.47033" lon="6.78526">
        <ele>361</ele>
        <time>2016-10-09T10:21:00.000Z</time>
      </trkpt>
      <trkpt lat="47.47035" lon="6.78526">
        <ele>361</ele>
        <time>2016-10-09T10:21:01.000Z</time>
      </trkpt>
      <trkpt lat="47.47039" lon="6.78524">
        <ele>361</ele>
        <time>2016-10-09T10:21:03.000Z</time>
      </trkpt>
      <trkpt lat="47.47041" lon="6.78523">
        <ele>361</ele>
        <time>2016-10-09T10:21:04.000Z</time>
      </trkpt>
      <trkpt lat="47.47044" lon="6.78521">
        <ele>361</ele>
        <time>2016-10-09T10:21:06.000Z</time>
      </trkpt>
      <trkpt lat="47.47047" lon="6.78519">
        <ele>361</ele>
        <time>2016-10-09T10:21:07.000Z</time>
      </trkpt>
      <trkpt lat="47.47049" lon="6.78517">
        <ele>361</ele>
        <time>2016-10-09T10:21:08.000Z</time>
      </trkpt>
      <trkpt lat="47.47051" lon="6.78514">
        <ele>361</ele>
        <time>2016-10-09T10:21:09.000Z</time>
      </trkpt>
      <trkpt lat="47.47054" lon="6.78512">
        <ele>361</ele>
        <time>2016-10-09T10:21:10.000Z</time>
      </trkpt>
      <trkpt lat="47.47058" lon="6.7851">
        <ele>361</ele>
        <time>2016-10-09T10:21:11.000Z</time>
      </trkpt>
      <trkpt lat="47.47061" lon="6.78508">
        <ele>361</ele>
        <time>2016-10-09T10:21:12.000Z</time>
      </trkpt>
      <trkpt lat="47.47064" lon="6.78507">
        <ele>361</ele>
        <time>2016-10-09T10:21:13.000Z</time>
      </trkpt>
      <trkpt lat="47.47067" lon="6.78506">
        <ele>361</ele>
        <time>2016-10-09T10:21:14.000Z</time>
      </trkpt>
      <trkpt lat="47.47069" lon="6.78505">
        <ele>361</ele>
        <time>2016-10-09T10:21:15.000Z</time>
      </trkpt>
      <trkpt lat="47.47072" lon="6.78505">
        <ele>361</ele>
        <time>2016-10-09T10:21:17.000Z</time>
      </trkpt>
      <trkpt lat="47.47073" lon="6.78504">
        <ele>361</ele>
        <time>2016-10-09T10:21:18.000Z</time>
      </trkpt>
      <trkpt lat="47.47076" lon="6.78502">
        <ele>360</ele>
        <time>2016-10-09T10:21:20.000Z</time>
      </trkpt>
      <trkpt lat="47.47078" lon="6.785">
        <ele>360</ele>
        <time>2016-10-09T10:21:21.000Z</time>
      </trkpt>
      <trkpt lat="47.47082" lon="6.78498">
        <ele>360</ele>
        <time>2016-10-09T10:21:23.000Z</time>
      </trkpt>
      <trkpt lat="47.47083" lon="6.78497">
        <ele>360</ele>
        <time>2016-10-09T10:21:24.000Z</time>
      </trkpt>
      <trkpt lat="47.47087" lon="6.78495">
        <ele>360</ele>
        <time>2016-10-09T10:21:26.000Z</time>
      </trkpt>
      <trkpt lat="47.47089" lon="6.78494">
        <ele>359</ele>
        <time>2016-10-09T10:21:27.000Z</time>
      </trkpt>
      <trkpt lat="47.47091" lon="6.78492">
        <ele>359</ele>
        <time>2016-10-09T10:21:28.000Z</time>
      </trkpt>
      <trkpt lat="47.47094" lon="6.7849">
        <ele>359</ele>
        <time>2016-10-09T10:21:29.000Z</time>
      </trkpt>
      <trkpt lat="47.47096" lon="6.78488">
        <ele>359</ele>
        <time>2016-10-09T10:21:30.000Z</time>
      </trkpt>
      <trkpt lat="47.47098" lon="6.78486">
        <ele>359</ele>
        <time>2016-10-09T10:21:31.000Z</time>
      </trkpt>
      <trkpt lat="47.471" lon="6.78485">
        <ele>359</ele>
        <time>2016-10-09T10:21:32.000Z</time>
      </trkpt>
      <trkpt lat="47.47102" lon="6.78483">
        <ele>359</ele>
        <time>2016-10-09T10:21:33.000Z</time>
      </trkpt>
      <trkpt lat="47.47106" lon="6.78481">
        <ele>359</ele>
        <time>2016-10-09T10:21:35.000Z</time>
      </trkpt>
      <trkpt lat="47.47108" lon="6.7848">
        <ele>359</ele>
        <time>2016-10-09T10:21:36.000Z</time>
      </trkpt>
      <trkpt lat="47.47112" lon="6.78476">
        <ele>359</ele>
        <time>2016-10-09T10:21:38.000Z</time>
      </trkpt>
      <trkpt lat="47.47114" lon="6.78474">
        <ele>359</ele>
        <time>2016-10-09T10:21:39.000Z</time>
      </trkpt>
      <trkpt lat="47.47116" lon="6.78472">
        <ele>358</ele>
        <time>2016-10-09T10:21:40.000Z</time>
      </trkpt>
      <trkpt lat="47.47118" lon="6.7847">
        <ele>358</ele>
        <time>2016-10-09T10:21:41.000Z</time>
      </trkpt>
      <trkpt lat="47.47121" lon="6.78467">
        <ele>358</ele>
        <time>2016-10-09T10:21:42.000Z</time>
      </trkpt>
      <trkpt lat="47.47124" lon="6.78466">
        <ele>358</ele>
        <time>2016-10-09T10:21:43.000Z</time>
      </trkpt>
      <trkpt lat="47.47126" lon="6.78464">
        <ele>358</ele>
        <time>2016-10-09T10:21:44.000Z</time>
      </trkpt>
      <trkpt lat="47.47129" lon="6.78462">
        <ele>358</ele>
        <time>2016-10-09T10:21:45.000Z</time>
      </trkpt>
      <trkpt lat="47.47131" lon="6.78459">
        <ele>358</ele>
        <time>2016-10-09T10:21:46.000Z</time>
      </trkpt>
      <trkpt lat="47.47133" lon="6.78456">
        <ele>358</ele>
        <time>2016-10-09T10:21:47.000Z</time>
      </trkpt>
      <trkpt lat="47.47136" lon="6.78454">
        <ele>358</ele>
        <time>2016-10-09T10:21:48.000Z</time>
      </trkpt>
      <trkpt lat="47.47139" lon="6.78452">
        <ele>358</ele>
        <time>2016-10-09T10:21:49.000Z</time>
      </trkpt>
      <trkpt lat="47.47142" lon="6.78451">
        <ele>358</ele>
        <time>2016-10-09T10:21:50.000Z</time>
      </trkpt>
      <trkpt lat="47.47145" lon="6.78451">
        <ele>358</ele>
        <time>2016-10-09T10:21:51.000Z</time>
      </trkpt>
      <trkpt lat="47.47148" lon="6.78452">
        <ele>358</ele>
        <time>2016-10-09T10:21:52.000Z</time>
      </trkpt>
      <trkpt lat="47.47151" lon="6.78452">
        <ele>358</ele>
        <time>2016-10-09T10:21:53.000Z</time>
      </trkpt>
      <trkpt lat="47.47155" lon="6.78453">
        <ele>358</ele>
        <time>2016-10-09T10:21:54.000Z</time>
      </trkpt>
      <trkpt lat="47.47158" lon="6.78454">
        <ele>358</ele>
        <time>2016-10-09T10:21:55.000Z</time>
      </trkpt>
      <trkpt lat="47.47161" lon="6.78455">
        <ele>358</ele>
        <time>2016-10-09T10:21:56.000Z</time>
      </trkpt>
      <trkpt lat="47.47164" lon="6.78455">
        <ele>358</ele>
        <time>2016-10-09T10:21:57.000Z</time>
      </trkpt>
      <trkpt lat="47.47167" lon="6.78456">
        <ele>360</ele>
        <time>2016-10-09T10:21:58.000Z</time>
      </trkpt>
      <trkpt lat="47.4717" lon="6.78457">
        <ele>360</ele>
        <time>2016-10-09T10:21:59.000Z</time>
      </trkpt>
      <trkpt lat="47.47173" lon="6.78458">
        <ele>360</ele>
        <time>2016-10-09T10:22:00.000Z</time>
      </trkpt>
      <trkpt lat="47.47175" lon="6.78458">
        <ele>360</ele>
        <time>2016-10-09T10:22:01.000Z</time>
      </trkpt>
      <trkpt lat="47.47178" lon="6.78459">
        <ele>360</ele>
        <time>2016-10-09T10:22:02.000Z</time>
      </trkpt>
      <trkpt lat="47.4718" lon="6.78459">
        <ele>360</ele>
        <time>2016-10-09T10:22:03.000Z</time>
      </trkpt>
      <trkpt lat="47.47183" lon="6.7846">
        <ele>360</ele>
        <time>2016-10-09T10:22:04.000Z</time>
      </trkpt>
      <trkpt lat="47.47185" lon="6.78462">
        <ele>360</ele>
        <time>2016-10-09T10:22:05.000Z</time>
      </trkpt>
      <trkpt lat="47.47188" lon="6.78463">
        <ele>360</ele>
        <time>2016-10-09T10:22:06.000Z</time>
      </trkpt>
      <trkpt lat="47.47191" lon="6.78465">
        <ele>360</ele>
        <time>2016-10-09T10:22:07.000Z</time>
      </trkpt>
      <trkpt lat="47.47193" lon="6.78466">
        <ele>360</ele>
        <time>2016-10-09T10:22:08.000Z</time>
      </trkpt>
      <trkpt lat="47.47196" lon="6.78467">
        <ele>360</ele>
        <time>2016-10-09T10:22:09.000Z</time>
      </trkpt>
      <trkpt lat="47.47199" lon="6.78468">
        <ele>360</ele>
        <time>2016-10-09T10:22:10.000Z</time>
      </trkpt>
      <trkpt lat="47.47201" lon="6.78468">
        <ele>360</ele>
        <time>2016-10-09T10:22:11.000Z</time>
      </trkpt>
      <trkpt lat="47.47204" lon="6.78469">
        <ele>360</ele>
        <time>2016-10-09T10:22:12.000Z</time>
      </trkpt>
      <trkpt lat="47.47206" lon="6.7847">
        <ele>360</ele>
        <time>2016-10-09T10:22:13.000Z</time>
      </trkpt>
      <trkpt lat="47.47209" lon="6.78472">
        <ele>360</ele>
        <time>2016-10-09T10:22:14.000Z</time>
      </trkpt>
      <trkpt lat="47.47211" lon="6.78473">
        <ele>360</ele>
        <time>2016-10-09T10:22:15.000Z</time>
      </trkpt>
      <trkpt lat="47.47214" lon="6.78474">
        <ele>360</ele>
        <time>2016-10-09T10:22:16.000Z</time>
      </trkpt>
      <trkpt lat="47.47216" lon="6.78476">
        <ele>360</ele>
        <time>2016-10-09T10:22:17.000Z</time>
      </trkpt>
      <trkpt lat="47.47219" lon="6.78477">
        <ele>360</ele>
        <time>2016-10-09T10:22:18.000Z</time>
      </trkpt>
      <trkpt lat="47.47222" lon="6.78477">
        <ele>360</ele>
        <time>2016-10-09T10:22:19.000Z</time>
      </trkpt>
      <trkpt lat="47.47225" lon="6.78478">
        <ele>360</ele>
        <time>2016-10-09T10:22:20.000Z</time>
      </trkpt>
      <trkpt lat="47.47227" lon="6.78478">
        <ele>361</ele>
        <time>2016-10-09T10:22:21.000Z</time>
      </trkpt>
      <trkpt lat="47.4723" lon="6.78479">
        <ele>361</ele>
        <time>2016-10-09T10:22:22.000Z</time>
      </trkpt>
      <trkpt lat="47.47232" lon="6.7848">
        <ele>361</ele>
        <time>2016-10-09T10:22:23.000Z</time>
      </trkpt>
      <trkpt lat="47.47235" lon="6.78481">
        <ele>361</ele>
        <time>2016-10-09T10:22:24.000Z</time>
      </trkpt>
      <trkpt lat="47.47237" lon="6.78482">
        <ele>361</ele>
        <time>2016-10-09T10:22:25.000Z</time>
      </trkpt>
      <trkpt lat="47.47239" lon="6.78482">
        <ele>361</ele>
        <time>2016-10-09T10:22:26.000Z</time>
      </trkpt>
      <trkpt lat="47.47242" lon="6.78483">
        <ele>361</ele>
        <time>2016-10-09T10:22:27.000Z</time>
      </trkpt>
      <trkpt lat="47.47246" lon="6.78485">
        <ele>361</ele>
        <time>2016-10-09T10:22:29.000Z</time>
      </trkpt>
      <trkpt lat="47.47248" lon="6.78487">
        <ele>361</ele>
        <time>2016-10-09T10:22:30.000Z</time>
      </trkpt>
      <trkpt lat="47.47252" lon="6.78488">
        <ele>362</ele>
        <time>2016-10-09T10:22:32.000Z</time>
      </trkpt>
      <trkpt lat="47.47254" lon="6.78489">
        <ele>362</ele>
        <time>2016-10-09T10:22:33.000Z</time>
      </trkpt>
      <trkpt lat="47.47258" lon="6.7849">
        <ele>362</ele>
        <time>2016-10-09T10:22:35.000Z</time>
      </trkpt>
      <trkpt lat="47.4726" lon="6.7849">
        <ele>362</ele>
        <time>2016-10-09T10:22:36.000Z</time>
      </trkpt>
      <trkpt lat="47.47264" lon="6.78492">
        <ele>362</ele>
        <time>2016-10-09T10:22:38.000Z</time>
      </trkpt>
      <trkpt lat="47.47267" lon="6.78492">
        <ele>362</ele>
        <time>2016-10-09T10:22:39.000Z</time>
      </trkpt>
      <trkpt lat="47.47267" lon="6.78492">
        <ele>362</ele>
        <time>2016-10-09T10:22:39.103Z</time>
      </trkpt>
      <trkpt lat="47.47272" lon="6.78493">
        <ele>362</ele>
        <time>2016-10-09T10:22:41.000Z</time>
      </trkpt>
      <trkpt lat="47.47275" lon="6.78493">
        <ele>362</ele>
        <time>2016-10-09T10:22:42.000Z</time>
      </trkpt>
      <trkpt lat="47.47277" lon="6.78494">
        <ele>362</ele>
        <time>2016-10-09T10:22:43.000Z</time>
      </trkpt>
      <trkpt lat="47.4728" lon="6.78494">
        <ele>362</ele>
        <time>2016-10-09T10:22:44.000Z</time>
      </trkpt>
      <trkpt lat="47.47282" lon="6.78495">
        <ele>362</ele>
        <time>2016-10-09T10:22:45.000Z</time>
      </trkpt>
      <trkpt lat="47.47284" lon="6.78496">
        <ele>362</ele>
        <time>2016-10-09T10:22:46.000Z</time>
      </trkpt>
      <trkpt lat="47.47287" lon="6.78497">
        <ele>362</ele>
        <time>2016-10-09T10:22:47.000Z</time>
      </trkpt>
      <trkpt lat="47.47289" lon="6.78497">
        <ele>362</ele>
        <time>2016-10-09T10:22:48.000Z</time>
      </trkpt>
      <trkpt lat="47.47291" lon="6.78498">
        <ele>362</ele>
        <time>2016-10-09T10:22:49.000Z</time>
      </trkpt>
      <trkpt lat="47.47294" lon="6.78498">
        <ele>362</ele>
        <time>2016-10-09T10:22:50.000Z</time>
      </trkpt>
      <trkpt lat="47.47296" lon="6.78499">
        <ele>362</ele>
        <time>2016-10-09T10:22:51.000Z</time>
      </trkpt>
      <trkpt lat="47.47299" lon="6.785">
        <ele>363</ele>
        <time>2016-10-09T10:22:52.000Z</time>
      </trkpt>
      <trkpt lat="47.47302" lon="6.78502">
        <ele>363</ele>
        <time>2016-10-09T10:22:53.000Z</time>
      </trkpt>
      <trkpt lat="47.47304" lon="6.78504">
        <ele>363</ele>
        <time>2016-10-09T10:22:54.000Z</time>
      </trkpt>
      <trkpt lat="47.47307" lon="6.78506">
        <ele>363</ele>
        <time>2016-10-09T10:22:55.000Z</time>
      </trkpt>
      <trkpt lat="47.4731" lon="6.78509">
        <ele>363</ele>
        <time>2016-10-09T10:22:56.000Z</time>
      </trkpt>
      <trkpt lat="47.47313" lon="6.78511">
        <ele>363</ele>
        <time>2016-10-09T10:22:57.000Z</time>
      </trkpt>
      <trkpt lat="47.47313" lon="6.78511">
        <ele>363</ele>
        <time>2016-10-09T10:22:57.106Z</time>
      </trkpt>
      <trkpt lat="47.47319" lon="6.78514">
        <ele>363</ele>
        <time>2016-10-09T10:22:59.000Z</time>
      </trkpt>
      <trkpt lat="47.47321" lon="6.78515">
        <ele>363</ele>
        <time>2016-10-09T10:23:00.000Z</time>
      </trkpt>
      <trkpt lat="47.47324" lon="6.78517">
        <ele>363</ele>
        <time>2016-10-09T10:23:01.000Z</time>
      </trkpt>
      <trkpt lat="47.47327" lon="6.78518">
        <ele>363</ele>
        <time>2016-10-09T10:23:02.000Z</time>
      </trkpt>
      <trkpt lat="47.47329" lon="6.78519">
        <ele>363</ele>
        <time>2016-10-09T10:23:03.000Z</time>
      </trkpt>
      <trkpt lat="47.47331" lon="6.7852">
        <ele>364</ele>
        <time>2016-10-09T10:23:04.000Z</time>
      </trkpt>
      <trkpt lat="47.47334" lon="6.78521">
        <ele>364</ele>
        <time>2016-10-09T10:23:05.000Z</time>
      </trkpt>
      <trkpt lat="47.47336" lon="6.78522">
        <ele>364</ele>
        <time>2016-10-09T10:23:06.000Z</time>
      </trkpt>
      <trkpt lat="47.47338" lon="6.78523">
        <ele>364</ele>
        <time>2016-10-09T10:23:07.000Z</time>
      </trkpt>
      <trkpt lat="47.4734" lon="6.78524">
        <ele>364</ele>
        <time>2016-10-09T10:23:08.000Z</time>
      </trkpt>
      <trkpt lat="47.47343" lon="6.78524">
        <ele>364</ele>
        <time>2016-10-09T10:23:09.000Z</time>
      </trkpt>
      <trkpt lat="47.47345" lon="6.78525">
        <ele>364</ele>
        <time>2016-10-09T10:23:10.000Z</time>
      </trkpt>
      <trkpt lat="47.47347" lon="6.78527">
        <ele>364</ele>
        <time>2016-10-09T10:23:11.000Z</time>
      </trkpt>
      <trkpt lat="47.4735" lon="6.78528">
        <ele>364</ele>
        <time>2016-10-09T10:23:12.000Z</time>
      </trkpt>
      <trkpt lat="47.47352" lon="6.7853">
        <ele>364</ele>
        <time>2016-10-09T10:23:13.000Z</time>
      </trkpt>
      <trkpt lat="47.47355" lon="6.78533">
        <ele>365</ele>
        <time>2016-10-09T10:23:14.000Z</time>
      </trkpt>
      <trkpt lat="47.47358" lon="6.78535">
        <ele>365</ele>
        <time>2016-10-09T10:23:15.000Z</time>
      </trkpt>
      <trkpt lat="47.4736" lon="6.78537">
        <ele>365</ele>
        <time>2016-10-09T10:23:16.000Z</time>
      </trkpt>
      <trkpt lat="47.47363" lon="6.78539">
        <ele>365</ele>
        <time>2016-10-09T10:23:17.000Z</time>
      </trkpt>
      <trkpt lat="47.47365" lon="6.7854">
        <ele>365</ele>
        <time>2016-10-09T10:23:18.000Z</time>
      </trkpt>
      <trkpt lat="47.47368" lon="6.78542">
        <ele>365</ele>
        <time>2016-10-09T10:23:19.000Z</time>
      </trkpt>
      <trkpt lat="47.4737" lon="6.78544">
        <ele>365</ele>
        <time>2016-10-09T10:23:20.000Z</time>
      </trkpt>
      <trkpt lat="47.47372" lon="6.78546">
        <ele>365</ele>
        <time>2016-10-09T10:23:21.000Z</time>
      </trkpt>
      <trkpt lat="47.47375" lon="6.78548">
        <ele>365</ele>
        <time>2016-10-09T10:23:22.000Z</time>
      </trkpt>
      <trkpt lat="47.47377" lon="6.7855">
        <ele>365</ele>
        <time>2016-10-09T10:23:23.000Z</time>
      </trkpt>
      <trkpt lat="47.47379" lon="6.78552">
        <ele>365</ele>
        <time>2016-10-09T10:23:24.000Z</time>
      </trkpt>
      <trkpt lat="47.47381" lon="6.78553">
        <ele>365</ele>
        <time>2016-10-09T10:23:25.000Z</time>
      </trkpt>
      <trkpt lat="47.47383" lon="6.78558">
        <ele>365</ele>
        <time>2016-10-09T10:24:00.000Z</time>
      </trkpt>
      <trkpt lat="47.47384" lon="6.78559">
        <ele>365</ele>
        <time>2016-10-09T10:24:01.000Z</time>
      </trkpt>
      <trkpt lat="47.47387" lon="6.78561">
        <ele>365</ele>
        <time>2016-10-09T10:24:03.000Z</time>
      </trkpt>
      <trkpt lat="47.4739" lon="6.78562">
        <ele>365</ele>
        <time>2016-10-09T10:24:04.000Z</time>
      </trkpt>
      <trkpt lat="47.47393" lon="6.78564">
        <ele>365</ele>
        <time>2016-10-09T10:24:05.000Z</time>
      </trkpt>
      <trkpt lat="47.47397" lon="6.78566">
        <ele>365</ele>
        <time>2016-10-09T10:24:06.000Z</time>
      </trkpt>
      <trkpt lat="47.474" lon="6.78568">
        <ele>365</ele>
        <time>2016-10-09T10:24:07.000Z</time>
      </trkpt>
      <trkpt lat="47.47404" lon="6.78569">
        <ele>365</ele>
        <time>2016-10-09T10:24:08.000Z</time>
      </trkpt>
      <trkpt lat="47.47409" lon="6.78571">
        <ele>365</ele>
        <time>2016-10-09T10:24:09.000Z</time>
      </trkpt>
      <trkpt lat="47.47413" lon="6.78572">
        <ele>366</ele>
        <time>2016-10-09T10:24:10.000Z</time>
      </trkpt>
      <trkpt lat="47.47417" lon="6.78574">
        <ele>365</ele>
        <time>2016-10-09T10:24:11.000Z</time>
      </trkpt>
      <trkpt lat="47.47421" lon="6.78575">
        <ele>365</ele>
        <time>2016-10-09T10:24:12.000Z</time>
      </trkpt>
      <trkpt lat="47.47426" lon="6.78577">
        <ele>365</ele>
        <time>2016-10-09T10:24:13.000Z</time>
      </trkpt>
      <trkpt lat="47.47429" lon="6.78579">
        <ele>365</ele>
        <time>2016-10-09T10:24:14.000Z</time>
      </trkpt>
      <trkpt lat="47.47433" lon="6.7858">
        <ele>364</ele>
        <time>2016-10-09T10:24:15.000Z</time>
      </trkpt>
      <trkpt lat="47.47437" lon="6.7858">
        <ele>364</ele>
        <time>2016-10-09T10:24:16.000Z</time>
      </trkpt>
      <trkpt lat="47.4744" lon="6.7858">
        <ele>364</ele>
        <time>2016-10-09T10:24:17.000Z</time>
      </trkpt>
      <trkpt lat="47.47443" lon="6.78578">
        <ele>364</ele>
        <time>2016-10-09T10:24:18.000Z</time>
      </trkpt>
      <trkpt lat="47.47446" lon="6.78576">
        <ele>364</ele>
        <time>2016-10-09T10:24:19.000Z</time>
      </trkpt>
      <trkpt lat="47.47449" lon="6.78574">
        <ele>364</ele>
        <time>2016-10-09T10:24:20.000Z</time>
      </trkpt>
      <trkpt lat="47.47452" lon="6.78572">
        <ele>363</ele>
        <time>2016-10-09T10:24:21.000Z</time>
      </trkpt>
      <trkpt lat="47.47457" lon="6.78572">
        <ele>363</ele>
        <time>2016-10-09T10:24:22.000Z</time>
      </trkpt>
      <trkpt lat="47.4746" lon="6.78567">
        <ele>363</ele>
        <time>2016-10-09T10:24:23.000Z</time>
      </trkpt>
      <trkpt lat="47.47463" lon="6.78564">
        <ele>363</ele>
        <time>2016-10-09T10:24:24.000Z</time>
      </trkpt>
      <trkpt lat="47.47466" lon="6.78564">
        <ele>363</ele>
        <time>2016-10-09T10:24:25.000Z</time>
      </trkpt>
      <trkpt lat="47.47471" lon="6.78563">
        <ele>363</ele>
        <time>2016-10-09T10:24:26.000Z</time>
      </trkpt>
      <trkpt lat="47.47476" lon="6.78561">
        <ele>363</ele>
        <time>2016-10-09T10:24:27.000Z</time>
      </trkpt>
      <trkpt lat="47.47481" lon="6.78559">
        <ele>362</ele>
        <time>2016-10-09T10:24:28.000Z</time>
      </trkpt>
      <trkpt lat="47.47486" lon="6.78557">
        <ele>362</ele>
        <time>2016-10-09T10:24:29.000Z</time>
      </trkpt>
      <trkpt lat="47.47492" lon="6.78555">
        <ele>362</ele>
        <time>2016-10-09T10:24:30.000Z</time>
      </trkpt>
      <trkpt lat="47.47495" lon="6.78553">
        <ele>362</ele>
        <time>2016-10-09T10:24:31.000Z</time>
      </trkpt>
      <trkpt lat="47.475" lon="6.78549">
        <ele>362</ele>
        <time>2016-10-09T10:24:32.000Z</time>
      </trkpt>
      <trkpt lat="47.47505" lon="6.78544">
        <ele>358</ele>
        <time>2016-10-09T10:24:33.000Z</time>
      </trkpt>
      <trkpt lat="47.4751" lon="6.78541">
        <ele>358</ele>
        <time>2016-10-09T10:24:34.000Z</time>
      </trkpt>
      <trkpt lat="47.47514" lon="6.78535">
        <ele>358</ele>
        <time>2016-10-09T10:24:35.000Z</time>
      </trkpt>
      <trkpt lat="47.4752" lon="6.78533">
        <ele>357</ele>
        <time>2016-10-09T10:24:36.000Z</time>
      </trkpt>
      <trkpt lat="47.47525" lon="6.78529">
        <ele>357</ele>
        <time>2016-10-09T10:24:37.000Z</time>
      </trkpt>
      <trkpt lat="47.47528" lon="6.78525">
        <ele>357</ele>
        <time>2016-10-09T10:24:38.000Z</time>
      </trkpt>
      <trkpt lat="47.47532" lon="6.78519">
        <ele>357</ele>
        <time>2016-10-09T10:24:39.000Z</time>
      </trkpt>
      <trkpt lat="47.47536" lon="6.78514">
        <ele>357</ele>
        <time>2016-10-09T10:24:40.000Z</time>
      </trkpt>
      <trkpt lat="47.47542" lon="6.78507">
        <ele>356</ele>
        <time>2016-10-09T10:24:41.000Z</time>
      </trkpt>
      <trkpt lat="47.47546" lon="6.78502">
        <ele>356</ele>
        <time>2016-10-09T10:24:42.000Z</time>
      </trkpt>
      <trkpt lat="47.47549" lon="6.78496">
        <ele>356</ele>
        <time>2016-10-09T10:24:43.000Z</time>
      </trkpt>
      <trkpt lat="47.47552" lon="6.7849">
        <ele>356</ele>
        <time>2016-10-09T10:24:44.000Z</time>
      </trkpt>
      <trkpt lat="47.47557" lon="6.78482">
        <ele>355</ele>
        <time>2016-10-09T10:24:45.000Z</time>
      </trkpt>
      <trkpt lat="47.47561" lon="6.78477">
        <ele>355</ele>
        <time>2016-10-09T10:24:46.000Z</time>
      </trkpt>
      <trkpt lat="47.47567" lon="6.78469">
        <ele>355</ele>
        <time>2016-10-09T10:24:47.000Z</time>
      </trkpt>
      <trkpt lat="47.47571" lon="6.78462">
        <ele>355</ele>
        <time>2016-10-09T10:24:48.000Z</time>
      </trkpt>
      <trkpt lat="47.47574" lon="6.78453">
        <ele>355</ele>
        <time>2016-10-09T10:24:49.000Z</time>
      </trkpt>
      <trkpt lat="47.47579" lon="6.78446">
        <ele>355</ele>
        <time>2016-10-09T10:24:50.000Z</time>
      </trkpt>
      <trkpt lat="47.47584" lon="6.78443">
        <ele>349</ele>
        <time>2016-10-09T10:24:51.000Z</time>
      </trkpt>
      <trkpt lat="47.47588" lon="6.78437">
        <ele>349</ele>
        <time>2016-10-09T10:24:52.000Z</time>
      </trkpt>
      <trkpt lat="47.47591" lon="6.78433">
        <ele>349</ele>
        <time>2016-10-09T10:24:53.000Z</time>
      </trkpt>
      <trkpt lat="47.47596" lon="6.78427">
        <ele>349</ele>
        <time>2016-10-09T10:24:54.000Z</time>
      </trkpt>
      <trkpt lat="47.476" lon="6.78423">
        <ele>349</ele>
        <time>2016-10-09T10:24:55.000Z</time>
      </trkpt>
      <trkpt lat="47.47605" lon="6.7842">
        <ele>349</ele>
        <time>2016-10-09T10:24:56.000Z</time>
      </trkpt>
      <trkpt lat="47.47613" lon="6.78412">
        <ele>348</ele>
        <time>2016-10-09T10:24:57.000Z</time>
      </trkpt>
      <trkpt lat="47.47616" lon="6.78406">
        <ele>348</ele>
        <time>2016-10-09T10:24:58.000Z</time>
      </trkpt>
      <trkpt lat="47.47621" lon="6.784">
        <ele>347</ele>
        <time>2016-10-09T10:24:59.000Z</time>
      </trkpt>
      <trkpt lat="47.47625" lon="6.78392">
        <ele>347</ele>
        <time>2016-10-09T10:25:00.000Z</time>
      </trkpt>
      <trkpt lat="47.47629" lon="6.78388">
        <ele>347</ele>
        <time>2016-10-09T10:25:01.000Z</time>
      </trkpt>
      <trkpt lat="47.47632" lon="6.78384">
        <ele>347</ele>
        <time>2016-10-09T10:25:02.000Z</time>
      </trkpt>
      <trkpt lat="47.47637" lon="6.78383">
        <ele>346</ele>
        <time>2016-10-09T10:25:03.000Z</time>
      </trkpt>
      <trkpt lat="47.47643" lon="6.78392">
        <ele>346</ele>
        <time>2016-10-09T10:25:04.000Z</time>
      </trkpt>
      <trkpt lat="47.47646" lon="6.78396">
        <ele>345</ele>
        <time>2016-10-09T10:25:05.000Z</time>
      </trkpt>
      <trkpt lat="47.47649" lon="6.78399">
        <ele>345</ele>
        <time>2016-10-09T10:25:06.000Z</time>
      </trkpt>
      <trkpt lat="47.4765" lon="6.78403">
        <ele>345</ele>
        <time>2016-10-09T10:25:08.000Z</time>
      </trkpt>
      <trkpt lat="47.47651" lon="6.78406">
        <ele>344</ele>
        <time>2016-10-09T10:25:09.000Z</time>
      </trkpt>
      <trkpt lat="47.47652" lon="6.78412">
        <ele>344</ele>
        <time>2016-10-09T10:25:11.000Z</time>
      </trkpt>
      <trkpt lat="47.47652" lon="6.78413">
        <ele>344</ele>
        <time>2016-10-09T10:25:12.000Z</time>
      </trkpt>
      <trkpt lat="47.47654" lon="6.78407">
        <ele>344</ele>
        <time>2016-10-09T10:25:43.000Z</time>
      </trkpt>
      <trkpt lat="47.47655" lon="6.78405">
        <ele>344</ele>
        <time>2016-10-09T10:25:44.000Z</time>
      </trkpt>
      <trkpt lat="47.47656" lon="6.78402">
        <ele>344</ele>
        <time>2016-10-09T10:25:45.000Z</time>
      </trkpt>
      <trkpt lat="47.47658" lon="6.78398">
        <ele>344</ele>
        <time>2016-10-09T10:25:46.000Z</time>
      </trkpt>
      <trkpt lat="47.4766" lon="6.78394">
        <ele>345</ele>
        <time>2016-10-09T10:25:47.000Z</time>
      </trkpt>
      <trkpt lat="47.47662" lon="6.7839">
        <ele>345</ele>
        <time>2016-10-09T10:25:48.000Z</time>
      </trkpt>
      <trkpt lat="47.47665" lon="6.78385">
        <ele>345</ele>
        <time>2016-10-09T10:25:49.000Z</time>
      </trkpt>
      <trkpt lat="47.47669" lon="6.78381">
        <ele>341</ele>
        <time>2016-10-09T10:25:50.000Z</time>
      </trkpt>
      <trkpt lat="47.47673" lon="6.78378">
        <ele>341</ele>
        <time>2016-10-09T10:25:51.000Z</time>
      </trkpt>
      <trkpt lat="47.47677" lon="6.78375">
        <ele>341</ele>
        <time>2016-10-09T10:25:52.000Z</time>
      </trkpt>
      <trkpt lat="47.47681" lon="6.78373">
        <ele>341</ele>
        <time>2016-10-09T10:25:53.000Z</time>
      </trkpt>
      <trkpt lat="47.47684" lon="6.78371">
        <ele>341</ele>
        <time>2016-10-09T10:25:54.000Z</time>
      </trkpt>
      <trkpt lat="47.47687" lon="6.78368">
        <ele>341</ele>
        <time>2016-10-09T10:25:55.000Z</time>
      </trkpt>
      <trkpt lat="47.47689" lon="6.78365">
        <ele>341</ele>
        <time>2016-10-09T10:25:56.000Z</time>
      </trkpt>
      <trkpt lat="47.47691" lon="6.78362">
        <ele>341</ele>
        <time>2016-10-09T10:25:57.000Z</time>
      </trkpt>
      <trkpt lat="47.47693" lon="6.7836">
        <ele>341</ele>
        <time>2016-10-09T10:25:58.000Z</time>
      </trkpt>
      <trkpt lat="47.47695" lon="6.78357">
        <ele>341</ele>
        <time>2016-10-09T10:25:59.000Z</time>
      </trkpt>
      <trkpt lat="47.47697" lon="6.78352">
        <ele>341</ele>
        <time>2016-10-09T10:26:01.000Z</time>
      </trkpt>
      <trkpt lat="47.47699" lon="6.7835">
        <ele>341</ele>
        <time>2016-10-09T10:26:02.000Z</time>
      </trkpt>
      <trkpt lat="47.477" lon="6.78346">
        <ele>341</ele>
        <time>2016-10-09T10:26:03.000Z</time>
      </trkpt>
      <trkpt lat="47.47701" lon="6.78342">
        <ele>341</ele>
        <time>2016-10-09T10:26:04.000Z</time>
      </trkpt>
      <trkpt lat="47.47703" lon="6.78338">
        <ele>341</ele>
        <time>2016-10-09T10:26:05.000Z</time>
      </trkpt>
      <trkpt lat="47.47704" lon="6.78333">
        <ele>339</ele>
        <time>2016-10-09T10:26:06.000Z</time>
      </trkpt>
      <trkpt lat="47.47705" lon="6.78328">
        <ele>339</ele>
        <time>2016-10-09T10:26:07.000Z</time>
      </trkpt>
      <trkpt lat="47.47706" lon="6.78322">
        <ele>338</ele>
        <time>2016-10-09T10:26:08.000Z</time>
      </trkpt>
      <trkpt lat="47.47706" lon="6.78315">
        <ele>338</ele>
        <time>2016-10-09T10:26:09.000Z</time>
      </trkpt>
      <trkpt lat="47.47706" lon="6.78302">
        <ele>338</ele>
        <time>2016-10-09T10:26:10.000Z</time>
      </trkpt>
      <trkpt lat="47.47705" lon="6.78295">
        <ele>338</ele>
        <time>2016-10-09T10:26:11.000Z</time>
      </trkpt>
      <trkpt lat="47.47706" lon="6.78287">
        <ele>337</ele>
        <time>2016-10-09T10:26:12.000Z</time>
      </trkpt>
      <trkpt lat="47.47704" lon="6.78282">
        <ele>337</ele>
        <time>2016-10-09T10:26:13.000Z</time>
      </trkpt>
      <trkpt lat="47.47702" lon="6.78274">
        <ele>337</ele>
        <time>2016-10-09T10:26:14.000Z</time>
      </trkpt>
      <trkpt lat="47.477" lon="6.78266">
        <ele>337</ele>
        <time>2016-10-09T10:26:15.000Z</time>
      </trkpt>
      <trkpt lat="47.47696" lon="6.78256">
        <ele>337</ele>
        <time>2016-10-09T10:26:16.000Z</time>
      </trkpt>
      <trkpt lat="47.47693" lon="6.78247">
        <ele>334</ele>
        <time>2016-10-09T10:26:17.000Z</time>
      </trkpt>
      <trkpt lat="47.4769" lon="6.78239">
        <ele>334</ele>
        <time>2016-10-09T10:26:18.000Z</time>
      </trkpt>
      <trkpt lat="47.47685" lon="6.7823">
        <ele>334</ele>
        <time>2016-10-09T10:26:19.000Z</time>
      </trkpt>
      <trkpt lat="47.47681" lon="6.7822">
        <ele>334</ele>
        <time>2016-10-09T10:26:20.000Z</time>
      </trkpt>
      <trkpt lat="47.47681" lon="6.78208">
        <ele>333</ele>
        <time>2016-10-09T10:26:21.000Z</time>
      </trkpt>
      <trkpt lat="47.47681" lon="6.78197">
        <ele>333</ele>
        <time>2016-10-09T10:26:22.000Z</time>
      </trkpt>
      <trkpt lat="47.47683" lon="6.78184">
        <ele>332</ele>
        <time>2016-10-09T10:26:23.000Z</time>
      </trkpt>
      <trkpt lat="47.47688" lon="6.7817">
        <ele>332</ele>
        <time>2016-10-09T10:26:24.000Z</time>
      </trkpt>
      <trkpt lat="47.4769" lon="6.78158">
        <ele>328</ele>
        <time>2016-10-09T10:26:25.000Z</time>
      </trkpt>
      <trkpt lat="47.47696" lon="6.78143">
        <ele>327</ele>
        <time>2016-10-09T10:26:26.000Z</time>
      </trkpt>
      <trkpt lat="47.47702" lon="6.7813">
        <ele>327</ele>
        <time>2016-10-09T10:26:27.000Z</time>
      </trkpt>
      <trkpt lat="47.47706" lon="6.78116">
        <ele>326</ele>
        <time>2016-10-09T10:26:28.000Z</time>
      </trkpt>
      <trkpt lat="47.47711" lon="6.78104">
        <ele>325</ele>
        <time>2016-10-09T10:26:29.000Z</time>
      </trkpt>
      <trkpt lat="47.47715" lon="6.78091">
        <ele>325</ele>
        <time>2016-10-09T10:26:30.000Z</time>
      </trkpt>
      <trkpt lat="47.47719" lon="6.78079">
        <ele>322</ele>
        <time>2016-10-09T10:26:31.000Z</time>
      </trkpt>
      <trkpt lat="47.47722" lon="6.78068">
        <ele>322</ele>
        <time>2016-10-09T10:26:32.000Z</time>
      </trkpt>
      <trkpt lat="47.47723" lon="6.78055">
        <ele>322</ele>
        <time>2016-10-09T10:26:33.000Z</time>
      </trkpt>
      <trkpt lat="47.47725" lon="6.78042">
        <ele>322</ele>
        <time>2016-10-09T10:26:34.000Z</time>
      </trkpt>
      <trkpt lat="47.47726" lon="6.78029">
        <ele>322</ele>
        <time>2016-10-09T10:26:35.000Z</time>
      </trkpt>
      <trkpt lat="47.47724" lon="6.78019">
        <ele>321</ele>
        <time>2016-10-09T10:26:36.000Z</time>
      </trkpt>
      <trkpt lat="47.47724" lon="6.78007">
        <ele>321</ele>
        <time>2016-10-09T10:26:37.000Z</time>
      </trkpt>
      <trkpt lat="47.47722" lon="6.77998">
        <ele>320</ele>
        <time>2016-10-09T10:26:38.000Z</time>
      </trkpt>
      <trkpt lat="47.47721" lon="6.77985">
        <ele>320</ele>
        <time>2016-10-09T10:26:39.000Z</time>
      </trkpt>
      <trkpt lat="47.47719" lon="6.77974">
        <ele>320</ele>
        <time>2016-10-09T10:26:40.000Z</time>
      </trkpt>
      <trkpt lat="47.47718" lon="6.77963">
        <ele>320</ele>
        <time>2016-10-09T10:26:41.000Z</time>
      </trkpt>
      <trkpt lat="47.47716" lon="6.77953">
        <ele>320</ele>
        <time>2016-10-09T10:26:42.000Z</time>
      </trkpt>
      <trkpt lat="47.47713" lon="6.77944">
        <ele>320</ele>
        <time>2016-10-09T10:26:43.000Z</time>
      </trkpt>
      <trkpt lat="47.47711" lon="6.77934">
        <ele>320</ele>
        <time>2016-10-09T10:26:44.000Z</time>
      </trkpt>
      <trkpt lat="47.4771" lon="6.77923">
        <ele>320</ele>
        <time>2016-10-09T10:26:45.000Z</time>
      </trkpt>
      <trkpt lat="47.47709" lon="6.77914">
        <ele>318</ele>
        <time>2016-10-09T10:26:46.000Z</time>
      </trkpt>
      <trkpt lat="47.47707" lon="6.77905">
        <ele>318</ele>
        <time>2016-10-09T10:26:47.000Z</time>
      </trkpt>
      <trkpt lat="47.47706" lon="6.77896">
        <ele>318</ele>
        <time>2016-10-09T10:26:48.000Z</time>
      </trkpt>
      <trkpt lat="47.47704" lon="6.77889">
        <ele>318</ele>
        <time>2016-10-09T10:26:49.000Z</time>
      </trkpt>
      <trkpt lat="47.47702" lon="6.77882">
        <ele>318</ele>
        <time>2016-10-09T10:26:50.000Z</time>
      </trkpt>
      <trkpt lat="47.47702" lon="6.77871">
        <ele>318</ele>
        <time>2016-10-09T10:26:51.000Z</time>
      </trkpt>
      <trkpt lat="47.47701" lon="6.77861">
        <ele>318</ele>
        <time>2016-10-09T10:26:52.000Z</time>
      </trkpt>
      <trkpt lat="47.47701" lon="6.77851">
        <ele>318</ele>
        <time>2016-10-09T10:26:53.000Z</time>
      </trkpt>
      <trkpt lat="47.477" lon="6.77842">
        <ele>318</ele>
        <time>2016-10-09T10:26:54.000Z</time>
      </trkpt>
      <trkpt lat="47.477" lon="6.77834">
        <ele>318</ele>
        <time>2016-10-09T10:26:55.000Z</time>
      </trkpt>
      <trkpt lat="47.477" lon="6.77825">
        <ele>317</ele>
        <time>2016-10-09T10:26:56.000Z</time>
      </trkpt>
      <trkpt lat="47.47701" lon="6.77815">
        <ele>317</ele>
        <time>2016-10-09T10:26:57.000Z</time>
      </trkpt>
      <trkpt lat="47.47702" lon="6.77806">
        <ele>317</ele>
        <time>2016-10-09T10:26:58.000Z</time>
      </trkpt>
      <trkpt lat="47.47702" lon="6.77797">
        <ele>317</ele>
        <time>2016-10-09T10:26:59.000Z</time>
      </trkpt>
      <trkpt lat="47.47703" lon="6.77789">
        <ele>317</ele>
        <time>2016-10-09T10:27:00.000Z</time>
      </trkpt>
      <trkpt lat="47.47703" lon="6.77782">
        <ele>317</ele>
        <time>2016-10-09T10:27:01.000Z</time>
      </trkpt>
      <trkpt lat="47.47698" lon="6.77777">
        <ele>317</ele>
        <time>2016-10-09T10:27:02.000Z</time>
      </trkpt>
      <trkpt lat="47.47696" lon="6.7777">
        <ele>317</ele>
        <time>2016-10-09T10:27:03.000Z</time>
      </trkpt>
      <trkpt lat="47.47698" lon="6.77761">
        <ele>317</ele>
        <time>2016-10-09T10:27:04.000Z</time>
      </trkpt>
      <trkpt lat="47.477" lon="6.77752">
        <ele>316</ele>
        <time>2016-10-09T10:27:05.000Z</time>
      </trkpt>
      <trkpt lat="47.47703" lon="6.77744">
        <ele>316</ele>
        <time>2016-10-09T10:27:06.000Z</time>
      </trkpt>
      <trkpt lat="47.47705" lon="6.77737">
        <ele>316</ele>
        <time>2016-10-09T10:27:07.000Z</time>
      </trkpt>
      <trkpt lat="47.47706" lon="6.77727">
        <ele>316</ele>
        <time>2016-10-09T10:27:08.000Z</time>
      </trkpt>
      <trkpt lat="47.4771" lon="6.77721">
        <ele>316</ele>
        <time>2016-10-09T10:27:09.000Z</time>
      </trkpt>
      <trkpt lat="47.47712" lon="6.77715">
        <ele>316</ele>
        <time>2016-10-09T10:27:10.000Z</time>
      </trkpt>
      <trkpt lat="47.47712" lon="6.7771">
        <ele>315</ele>
        <time>2016-10-09T10:27:11.000Z</time>
      </trkpt>
      <trkpt lat="47.47713" lon="6.77704">
        <ele>315</ele>
        <time>2016-10-09T10:27:12.000Z</time>
      </trkpt>
      <trkpt lat="47.47711" lon="6.77698">
        <ele>315</ele>
        <time>2016-10-09T10:27:13.000Z</time>
      </trkpt>
      <trkpt lat="47.4771" lon="6.77691">
        <ele>315</ele>
        <time>2016-10-09T10:27:14.000Z</time>
      </trkpt>
      <trkpt lat="47.47709" lon="6.77684">
        <ele>315</ele>
        <time>2016-10-09T10:27:15.000Z</time>
      </trkpt>
      <trkpt lat="47.47706" lon="6.77677">
        <ele>315</ele>
        <time>2016-10-09T10:27:16.000Z</time>
      </trkpt>
      <trkpt lat="47.47705" lon="6.77669">
        <ele>315</ele>
        <time>2016-10-09T10:27:17.000Z</time>
      </trkpt>
      <trkpt lat="47.47703" lon="6.77661">
        <ele>314</ele>
        <time>2016-10-09T10:27:18.000Z</time>
      </trkpt>
      <trkpt lat="47.47702" lon="6.77654">
        <ele>314</ele>
        <time>2016-10-09T10:27:19.000Z</time>
      </trkpt>
      <trkpt lat="47.47702" lon="6.77645">
        <ele>314</ele>
        <time>2016-10-09T10:27:20.000Z</time>
      </trkpt>
      <trkpt lat="47.47701" lon="6.77637">
        <ele>314</ele>
        <time>2016-10-09T10:27:21.000Z</time>
      </trkpt>
      <trkpt lat="47.47699" lon="6.77629">
        <ele>314</ele>
        <time>2016-10-09T10:27:22.000Z</time>
      </trkpt>
      <trkpt lat="47.47698" lon="6.7762">
        <ele>314</ele>
        <time>2016-10-09T10:27:23.000Z</time>
      </trkpt>
      <trkpt lat="47.47697" lon="6.77613">
        <ele>314</ele>
        <time>2016-10-09T10:27:24.000Z</time>
      </trkpt>
      <trkpt lat="47.47695" lon="6.77604">
        <ele>314</ele>
        <time>2016-10-09T10:27:25.000Z</time>
      </trkpt>
      <trkpt lat="47.47691" lon="6.77598">
        <ele>314</ele>
        <time>2016-10-09T10:27:26.000Z</time>
      </trkpt>
      <trkpt lat="47.47688" lon="6.77592">
        <ele>314</ele>
        <time>2016-10-09T10:27:27.000Z</time>
      </trkpt>
      <trkpt lat="47.47684" lon="6.77585">
        <ele>314</ele>
        <time>2016-10-09T10:27:28.000Z</time>
      </trkpt>
      <trkpt lat="47.47681" lon="6.77577">
        <ele>314</ele>
        <time>2016-10-09T10:27:29.000Z</time>
      </trkpt>
      <trkpt lat="47.47677" lon="6.7757">
        <ele>314</ele>
        <time>2016-10-09T10:27:30.000Z</time>
      </trkpt>
      <trkpt lat="47.47673" lon="6.77564">
        <ele>314</ele>
        <time>2016-10-09T10:27:31.000Z</time>
      </trkpt>
      <trkpt lat="47.47669" lon="6.77559">
        <ele>314</ele>
        <time>2016-10-09T10:27:32.000Z</time>
      </trkpt>
      <trkpt lat="47.47666" lon="6.77551">
        <ele>315</ele>
        <time>2016-10-09T10:27:33.000Z</time>
      </trkpt>
      <trkpt lat="47.47662" lon="6.77543">
        <ele>315</ele>
        <time>2016-10-09T10:27:34.000Z</time>
      </trkpt>
      <trkpt lat="47.47658" lon="6.7754">
        <ele>315</ele>
        <time>2016-10-09T10:27:35.000Z</time>
      </trkpt>
      <trkpt lat="47.47654" lon="6.77534">
        <ele>315</ele>
        <time>2016-10-09T10:27:36.000Z</time>
      </trkpt>
      <trkpt lat="47.4765" lon="6.77528">
        <ele>315</ele>
        <time>2016-10-09T10:27:37.000Z</time>
      </trkpt>
      <trkpt lat="47.47646" lon="6.77523">
        <ele>315</ele>
        <time>2016-10-09T10:27:38.000Z</time>
      </trkpt>
      <trkpt lat="47.47642" lon="6.77517">
        <ele>315</ele>
        <time>2016-10-09T10:27:39.000Z</time>
      </trkpt>
      <trkpt lat="47.47639" lon="6.77509">
        <ele>315</ele>
        <time>2016-10-09T10:27:40.000Z</time>
      </trkpt>
      <trkpt lat="47.47634" lon="6.77506">
        <ele>315</ele>
        <time>2016-10-09T10:27:41.000Z</time>
      </trkpt>
      <trkpt lat="47.4763" lon="6.77501">
        <ele>315</ele>
        <time>2016-10-09T10:27:42.000Z</time>
      </trkpt>
      <trkpt lat="47.47627" lon="6.77497">
        <ele>314</ele>
        <time>2016-10-09T10:27:43.000Z</time>
      </trkpt>
      <trkpt lat="47.47622" lon="6.77494">
        <ele>314</ele>
        <time>2016-10-09T10:27:44.000Z</time>
      </trkpt>
      <trkpt lat="47.47617" lon="6.77488">
        <ele>314</ele>
        <time>2016-10-09T10:27:45.000Z</time>
      </trkpt>
      <trkpt lat="47.47612" lon="6.77482">
        <ele>314</ele>
        <time>2016-10-09T10:27:46.000Z</time>
      </trkpt>
      <trkpt lat="47.47608" lon="6.77477">
        <ele>314</ele>
        <time>2016-10-09T10:27:47.000Z</time>
      </trkpt>
      <trkpt lat="47.47604" lon="6.77473">
        <ele>314</ele>
        <time>2016-10-09T10:27:48.000Z</time>
      </trkpt>
      <trkpt lat="47.476" lon="6.77468">
        <ele>314</ele>
        <time>2016-10-09T10:27:49.000Z</time>
      </trkpt>
      <trkpt lat="47.47595" lon="6.77464">
        <ele>314</ele>
        <time>2016-10-09T10:27:50.000Z</time>
      </trkpt>
      <trkpt lat="47.47591" lon="6.7746">
        <ele>314</ele>
        <time>2016-10-09T10:27:51.000Z</time>
      </trkpt>
      <trkpt lat="47.47588" lon="6.77456">
        <ele>314</ele>
        <time>2016-10-09T10:27:52.000Z</time>
      </trkpt>
      <trkpt lat="47.47587" lon="6.7745">
        <ele>314</ele>
        <time>2016-10-09T10:27:53.000Z</time>
      </trkpt>
      <trkpt lat="47.47589" lon="6.77442">
        <ele>314</ele>
        <time>2016-10-09T10:27:54.000Z</time>
      </trkpt>
      <trkpt lat="47.47593" lon="6.77436">
        <ele>314</ele>
        <time>2016-10-09T10:27:55.000Z</time>
      </trkpt>
      <trkpt lat="47.47595" lon="6.7743">
        <ele>314</ele>
        <time>2016-10-09T10:27:56.000Z</time>
      </trkpt>
      <trkpt lat="47.47597" lon="6.77423">
        <ele>314</ele>
        <time>2016-10-09T10:27:57.000Z</time>
      </trkpt>
      <trkpt lat="47.47599" lon="6.77418">
        <ele>314</ele>
        <time>2016-10-09T10:27:58.000Z</time>
      </trkpt>
      <trkpt lat="47.47602" lon="6.77419">
        <ele>314</ele>
        <time>2016-10-09T10:27:59.000Z</time>
      </trkpt>
      <trkpt lat="47.47604" lon="6.77416">
        <ele>313</ele>
        <time>2016-10-09T10:28:00.000Z</time>
      </trkpt>
      <trkpt lat="47.47605" lon="6.77412">
        <ele>313</ele>
        <time>2016-10-09T10:28:01.000Z</time>
      </trkpt>
      <trkpt lat="47.47607" lon="6.77407">
        <ele>313</ele>
        <time>2016-10-09T10:28:02.000Z</time>
      </trkpt>
      <trkpt lat="47.47609" lon="6.77402">
        <ele>313</ele>
        <time>2016-10-09T10:28:03.000Z</time>
      </trkpt>
      <trkpt lat="47.4761" lon="6.77396">
        <ele>312</ele>
        <time>2016-10-09T10:28:04.000Z</time>
      </trkpt>
      <trkpt lat="47.47611" lon="6.77391">
        <ele>312</ele>
        <time>2016-10-09T10:28:05.000Z</time>
      </trkpt>
      <trkpt lat="47.47612" lon="6.77385">
        <ele>312</ele>
        <time>2016-10-09T10:28:06.000Z</time>
      </trkpt>
      <trkpt lat="47.47613" lon="6.77379">
        <ele>312</ele>
        <time>2016-10-09T10:28:07.000Z</time>
      </trkpt>
      <trkpt lat="47.47614" lon="6.77374">
        <ele>312</ele>
        <time>2016-10-09T10:28:08.000Z</time>
      </trkpt>
      <trkpt lat="47.47615" lon="6.77369">
        <ele>312</ele>
        <time>2016-10-09T10:28:09.000Z</time>
      </trkpt>
      <trkpt lat="47.47615" lon="6.77364">
        <ele>312</ele>
        <time>2016-10-09T10:28:10.000Z</time>
      </trkpt>
      <trkpt lat="47.47619" lon="6.77353">
        <ele>312</ele>
        <time>2016-10-09T10:28:11.000Z</time>
      </trkpt>
      <trkpt lat="47.47622" lon="6.77345">
        <ele>312</ele>
        <time>2016-10-09T10:28:12.000Z</time>
      </trkpt>
      <trkpt lat="47.47624" lon="6.77338">
        <ele>312</ele>
        <time>2016-10-09T10:28:13.000Z</time>
      </trkpt>
      <trkpt lat="47.47626" lon="6.77329">
        <ele>311</ele>
        <time>2016-10-09T10:28:14.000Z</time>
      </trkpt>
      <trkpt lat="47.47628" lon="6.77323">
        <ele>311</ele>
        <time>2016-10-09T10:28:15.000Z</time>
      </trkpt>
      <trkpt lat="47.4763" lon="6.77317">
        <ele>311</ele>
        <time>2016-10-09T10:28:16.000Z</time>
      </trkpt>
      <trkpt lat="47.47632" lon="6.77308">
        <ele>311</ele>
        <time>2016-10-09T10:28:17.000Z</time>
      </trkpt>
      <trkpt lat="47.47633" lon="6.77302">
        <ele>311</ele>
        <time>2016-10-09T10:28:18.000Z</time>
      </trkpt>
      <trkpt lat="47.47634" lon="6.77294">
        <ele>311</ele>
        <time>2016-10-09T10:28:19.000Z</time>
      </trkpt>
      <trkpt lat="47.47632" lon="6.77288">
        <ele>311</ele>
        <time>2016-10-09T10:28:20.000Z</time>
      </trkpt>
      <trkpt lat="47.4763" lon="6.77282">
        <ele>311</ele>
        <time>2016-10-09T10:28:21.000Z</time>
      </trkpt>
      <trkpt lat="47.47628" lon="6.77276">
        <ele>311</ele>
        <time>2016-10-09T10:28:22.000Z</time>
      </trkpt>
      <trkpt lat="47.47625" lon="6.77272">
        <ele>311</ele>
        <time>2016-10-09T10:28:23.000Z</time>
      </trkpt>
      <trkpt lat="47.47621" lon="6.77267">
        <ele>311</ele>
        <time>2016-10-09T10:28:24.000Z</time>
      </trkpt>
      <trkpt lat="47.47617" lon="6.77263">
        <ele>311</ele>
        <time>2016-10-09T10:28:25.000Z</time>
      </trkpt>
      <trkpt lat="47.47613" lon="6.77259">
        <ele>311</ele>
        <time>2016-10-09T10:28:26.000Z</time>
      </trkpt>
      <trkpt lat="47.47608" lon="6.77256">
        <ele>311</ele>
        <time>2016-10-09T10:28:27.000Z</time>
      </trkpt>
      <trkpt lat="47.47603" lon="6.77251">
        <ele>311</ele>
        <time>2016-10-09T10:28:28.000Z</time>
      </trkpt>
      <trkpt lat="47.47598" lon="6.77248">
        <ele>311</ele>
        <time>2016-10-09T10:28:29.000Z</time>
      </trkpt>
      <trkpt lat="47.47594" lon="6.77244">
        <ele>311</ele>
        <time>2016-10-09T10:28:30.000Z</time>
      </trkpt>
      <trkpt lat="47.4759" lon="6.7724">
        <ele>311</ele>
        <time>2016-10-09T10:28:31.000Z</time>
      </trkpt>
      <trkpt lat="47.47586" lon="6.77236">
        <ele>311</ele>
        <time>2016-10-09T10:28:32.000Z</time>
      </trkpt>
      <trkpt lat="47.47581" lon="6.77233">
        <ele>311</ele>
        <time>2016-10-09T10:28:33.000Z</time>
      </trkpt>
      <trkpt lat="47.47576" lon="6.77229">
        <ele>311</ele>
        <time>2016-10-09T10:28:34.000Z</time>
      </trkpt>
      <trkpt lat="47.47572" lon="6.77225">
        <ele>311</ele>
        <time>2016-10-09T10:28:35.000Z</time>
      </trkpt>
      <trkpt lat="47.47567" lon="6.77222">
        <ele>311</ele>
        <time>2016-10-09T10:28:36.000Z</time>
      </trkpt>
      <trkpt lat="47.47562" lon="6.77219">
        <ele>311</ele>
        <time>2016-10-09T10:28:37.000Z</time>
      </trkpt>
      <trkpt lat="47.47557" lon="6.77215">
        <ele>311</ele>
        <time>2016-10-09T10:28:38.000Z</time>
      </trkpt>
      <trkpt lat="47.47552" lon="6.77212">
        <ele>311</ele>
        <time>2016-10-09T10:28:39.000Z</time>
      </trkpt>
      <trkpt lat="47.47547" lon="6.7721">
        <ele>311</ele>
        <time>2016-10-09T10:28:40.000Z</time>
      </trkpt>
      <trkpt lat="47.47542" lon="6.77209">
        <ele>311</ele>
        <time>2016-10-09T10:28:41.000Z</time>
      </trkpt>
      <trkpt lat="47.47537" lon="6.77206">
        <ele>310</ele>
        <time>2016-10-09T10:28:42.000Z</time>
      </trkpt>
      <trkpt lat="47.47534" lon="6.77203">
        <ele>310</ele>
        <time>2016-10-09T10:28:43.000Z</time>
      </trkpt>
      <trkpt lat="47.4753" lon="6.77199">
        <ele>310</ele>
        <time>2016-10-09T10:28:44.000Z</time>
      </trkpt>
      <trkpt lat="47.47527" lon="6.77196">
        <ele>310</ele>
        <time>2016-10-09T10:28:45.000Z</time>
      </trkpt>
      <trkpt lat="47.47523" lon="6.77192">
        <ele>310</ele>
        <time>2016-10-09T10:28:46.000Z</time>
      </trkpt>
      <trkpt lat="47.4752" lon="6.77189">
        <ele>310</ele>
        <time>2016-10-09T10:28:47.000Z</time>
      </trkpt>
      <trkpt lat="47.47517" lon="6.77184">
        <ele>310</ele>
        <time>2016-10-09T10:28:48.000Z</time>
      </trkpt>
      <trkpt lat="47.47516" lon="6.77178">
        <ele>310</ele>
        <time>2016-10-09T10:28:49.000Z</time>
      </trkpt>
      <trkpt lat="47.47515" lon="6.77172">
        <ele>310</ele>
        <time>2016-10-09T10:28:50.000Z</time>
      </trkpt>
      <trkpt lat="47.47516" lon="6.77167">
        <ele>310</ele>
        <time>2016-10-09T10:28:51.000Z</time>
      </trkpt>
      <trkpt lat="47.47516" lon="6.77163">
        <ele>309</ele>
        <time>2016-10-09T10:28:52.000Z</time>
      </trkpt>
      <trkpt lat="47.47516" lon="6.77159">
        <ele>309</ele>
        <time>2016-10-09T10:28:53.000Z</time>
      </trkpt>
      <trkpt lat="47.47518" lon="6.77153">
        <ele>310</ele>
        <time>2016-10-09T10:28:54.000Z</time>
      </trkpt>
      <trkpt lat="47.4752" lon="6.77147">
        <ele>310</ele>
        <time>2016-10-09T10:28:55.000Z</time>
      </trkpt>
      <trkpt lat="47.47532" lon="6.77146">
        <ele>310</ele>
        <time>2016-10-09T10:28:56.000Z</time>
      </trkpt>
      <trkpt lat="47.47537" lon="6.77145">
        <ele>310</ele>
        <time>2016-10-09T10:28:57.000Z</time>
      </trkpt>
      <trkpt lat="47.47541" lon="6.77147">
        <ele>310</ele>
        <time>2016-10-09T10:28:58.000Z</time>
      </trkpt>
      <trkpt lat="47.47545" lon="6.77148">
        <ele>310</ele>
        <time>2016-10-09T10:28:59.000Z</time>
      </trkpt>
      <trkpt lat="47.47548" lon="6.77149">
        <ele>310</ele>
        <time>2016-10-09T10:29:00.000Z</time>
      </trkpt>
      <trkpt lat="47.47552" lon="6.77153">
        <ele>310</ele>
        <time>2016-10-09T10:29:01.000Z</time>
      </trkpt>
      <trkpt lat="47.47556" lon="6.77155">
        <ele>310</ele>
        <time>2016-10-09T10:29:02.000Z</time>
      </trkpt>
      <trkpt lat="47.47559" lon="6.77157">
        <ele>310</ele>
        <time>2016-10-09T10:29:03.000Z</time>
      </trkpt>
      <trkpt lat="47.47563" lon="6.77159">
        <ele>310</ele>
        <time>2016-10-09T10:29:04.000Z</time>
      </trkpt>
      <trkpt lat="47.47567" lon="6.77162">
        <ele>309</ele>
        <time>2016-10-09T10:29:05.000Z</time>
      </trkpt>
      <trkpt lat="47.4757" lon="6.77164">
        <ele>309</ele>
        <time>2016-10-09T10:29:06.000Z</time>
      </trkpt>
      <trkpt lat="47.47574" lon="6.77167">
        <ele>309</ele>
        <time>2016-10-09T10:29:07.000Z</time>
      </trkpt>
      <trkpt lat="47.47577" lon="6.77169">
        <ele>309</ele>
        <time>2016-10-09T10:29:08.000Z</time>
      </trkpt>
      <trkpt lat="47.47582" lon="6.77173">
        <ele>309</ele>
        <time>2016-10-09T10:29:09.000Z</time>
      </trkpt>
      <trkpt lat="47.47586" lon="6.77176">
        <ele>309</ele>
        <time>2016-10-09T10:29:10.000Z</time>
      </trkpt>
      <trkpt lat="47.4759" lon="6.77179">
        <ele>310</ele>
        <time>2016-10-09T10:29:11.000Z</time>
      </trkpt>
      <trkpt lat="47.47595" lon="6.77181">
        <ele>310</ele>
        <time>2016-10-09T10:29:12.000Z</time>
      </trkpt>
      <trkpt lat="47.47604" lon="6.77187">
        <ele>310</ele>
        <time>2016-10-09T10:29:14.000Z</time>
      </trkpt>
      <trkpt lat="47.47609" lon="6.77184">
        <ele>310</ele>
        <time>2016-10-09T10:29:15.000Z</time>
      </trkpt>
      <trkpt lat="47.47613" lon="6.77182">
        <ele>310</ele>
        <time>2016-10-09T10:29:16.000Z</time>
      </trkpt>
      <trkpt lat="47.47616" lon="6.77178">
        <ele>310</ele>
        <time>2016-10-09T10:29:17.000Z</time>
      </trkpt>
      <trkpt lat="47.47617" lon="6.77172">
        <ele>310</ele>
        <time>2016-10-09T10:29:18.000Z</time>
      </trkpt>
      <trkpt lat="47.47619" lon="6.77167">
        <ele>310</ele>
        <time>2016-10-09T10:29:19.000Z</time>
      </trkpt>
      <trkpt lat="47.47621" lon="6.77161">
        <ele>310</ele>
        <time>2016-10-09T10:29:20.000Z</time>
      </trkpt>
      <trkpt lat="47.47622" lon="6.77156">
        <ele>310</ele>
        <time>2016-10-09T10:29:21.000Z</time>
      </trkpt>
      <trkpt lat="47.47625" lon="6.77151">
        <ele>310</ele>
        <time>2016-10-09T10:29:22.000Z</time>
      </trkpt>
      <trkpt lat="47.47627" lon="6.77148">
        <ele>310</ele>
        <time>2016-10-09T10:29:23.000Z</time>
      </trkpt>
      <trkpt lat="47.47629" lon="6.77144">
        <ele>310</ele>
        <time>2016-10-09T10:29:24.000Z</time>
      </trkpt>
      <trkpt lat="47.47631" lon="6.77139">
        <ele>310</ele>
        <time>2016-10-09T10:29:25.000Z</time>
      </trkpt>
      <trkpt lat="47.47632" lon="6.77135">
        <ele>310</ele>
        <time>2016-10-09T10:29:26.000Z</time>
      </trkpt>
      <trkpt lat="47.47633" lon="6.7713">
        <ele>310</ele>
        <time>2016-10-09T10:29:27.000Z</time>
      </trkpt>
      <trkpt lat="47.47634" lon="6.77127">
        <ele>310</ele>
        <time>2016-10-09T10:29:28.000Z</time>
      </trkpt>
      <trkpt lat="47.47635" lon="6.77123">
        <ele>310</ele>
        <time>2016-10-09T10:29:29.000Z</time>
      </trkpt>
      <trkpt lat="47.47636" lon="6.7712">
        <ele>310</ele>
        <time>2016-10-09T10:29:30.000Z</time>
      </trkpt>
      <trkpt lat="47.47636" lon="6.77116">
        <ele>310</ele>
        <time>2016-10-09T10:29:31.000Z</time>
      </trkpt>
      <trkpt lat="47.47637" lon="6.77112">
        <ele>310</ele>
        <time>2016-10-09T10:29:32.000Z</time>
      </trkpt>
      <trkpt lat="47.47637" lon="6.77108">
        <ele>310</ele>
        <time>2016-10-09T10:29:33.000Z</time>
      </trkpt>
      <trkpt lat="47.47637" lon="6.77104">
        <ele>310</ele>
        <time>2016-10-09T10:29:34.000Z</time>
      </trkpt>
      <trkpt lat="47.47637" lon="6.771">
        <ele>310</ele>
        <time>2016-10-09T10:29:35.000Z</time>
      </trkpt>
      <trkpt lat="47.47638" lon="6.77096">
        <ele>311</ele>
        <time>2016-10-09T10:29:36.000Z</time>
      </trkpt>
      <trkpt lat="47.47638" lon="6.77092">
        <ele>311</ele>
        <time>2016-10-09T10:29:37.000Z</time>
      </trkpt>
      <trkpt lat="47.47639" lon="6.77087">
        <ele>311</ele>
        <time>2016-10-09T10:29:38.000Z</time>
      </trkpt>
      <trkpt lat="47.47639" lon="6.77083">
        <ele>311</ele>
        <time>2016-10-09T10:29:39.000Z</time>
      </trkpt>
      <trkpt lat="47.47639" lon="6.77079">
        <ele>311</ele>
        <time>2016-10-09T10:29:40.000Z</time>
      </trkpt>
      <trkpt lat="47.4764" lon="6.77074">
        <ele>311</ele>
        <time>2016-10-09T10:29:41.000Z</time>
      </trkpt>
      <trkpt lat="47.47641" lon="6.77068">
        <ele>311</ele>
        <time>2016-10-09T10:29:42.000Z</time>
      </trkpt>
      <trkpt lat="47.47642" lon="6.77063">
        <ele>311</ele>
        <time>2016-10-09T10:29:43.000Z</time>
      </trkpt>
      <trkpt lat="47.47643" lon="6.77056">
        <ele>311</ele>
        <time>2016-10-09T10:29:44.000Z</time>
      </trkpt>
      <trkpt lat="47.47644" lon="6.77046">
        <ele>311</ele>
        <time>2016-10-09T10:29:45.000Z</time>
      </trkpt>
      <trkpt lat="47.47646" lon="6.77036">
        <ele>311</ele>
        <time>2016-10-09T10:29:46.000Z</time>
      </trkpt>
      <trkpt lat="47.47648" lon="6.77026">
        <ele>311</ele>
        <time>2016-10-09T10:29:47.000Z</time>
      </trkpt>
      <trkpt lat="47.4765" lon="6.77015">
        <ele>311</ele>
        <time>2016-10-09T10:29:48.000Z</time>
      </trkpt>
      <trkpt lat="47.47652" lon="6.77005">
        <ele>311</ele>
        <time>2016-10-09T10:29:49.000Z</time>
      </trkpt>
      <trkpt lat="47.47655" lon="6.76996">
        <ele>311</ele>
        <time>2016-10-09T10:29:50.000Z</time>
      </trkpt>
      <trkpt lat="47.47659" lon="6.76987">
        <ele>311</ele>
        <time>2016-10-09T10:29:51.000Z</time>
      </trkpt>
      <trkpt lat="47.47663" lon="6.76977">
        <ele>311</ele>
        <time>2016-10-09T10:29:52.000Z</time>
      </trkpt>
      <trkpt lat="47.47667" lon="6.76967">
        <ele>311</ele>
        <time>2016-10-09T10:29:53.000Z</time>
      </trkpt>
      <trkpt lat="47.4767" lon="6.76957">
        <ele>311</ele>
        <time>2016-10-09T10:29:54.000Z</time>
      </trkpt>
      <trkpt lat="47.47674" lon="6.76947">
        <ele>311</ele>
        <time>2016-10-09T10:29:55.000Z</time>
      </trkpt>
      <trkpt lat="47.47677" lon="6.76938">
        <ele>311</ele>
        <time>2016-10-09T10:29:56.000Z</time>
      </trkpt>
      <trkpt lat="47.4768" lon="6.7693">
        <ele>311</ele>
        <time>2016-10-09T10:29:57.000Z</time>
      </trkpt>
      <trkpt lat="47.47683" lon="6.76922">
        <ele>311</ele>
        <time>2016-10-09T10:29:58.000Z</time>
      </trkpt>
      <trkpt lat="47.47685" lon="6.76914">
        <ele>311</ele>
        <time>2016-10-09T10:29:59.000Z</time>
      </trkpt>
      <trkpt lat="47.47688" lon="6.76905">
        <ele>311</ele>
        <time>2016-10-09T10:30:00.000Z</time>
      </trkpt>
      <trkpt lat="47.47691" lon="6.76898">
        <ele>311</ele>
        <time>2016-10-09T10:30:01.000Z</time>
      </trkpt>
      <trkpt lat="47.47694" lon="6.76892">
        <ele>311</ele>
        <time>2016-10-09T10:30:02.000Z</time>
      </trkpt>
      <trkpt lat="47.47697" lon="6.76885">
        <ele>311</ele>
        <time>2016-10-09T10:30:03.000Z</time>
      </trkpt>
      <trkpt lat="47.477" lon="6.7688">
        <ele>311</ele>
        <time>2016-10-09T10:30:04.000Z</time>
      </trkpt>
      <trkpt lat="47.47703" lon="6.76873">
        <ele>311</ele>
        <time>2016-10-09T10:30:05.000Z</time>
      </trkpt>
      <trkpt lat="47.47705" lon="6.76866">
        <ele>311</ele>
        <time>2016-10-09T10:30:06.000Z</time>
      </trkpt>
      <trkpt lat="47.47707" lon="6.76859">
        <ele>311</ele>
        <time>2016-10-09T10:30:07.000Z</time>
      </trkpt>
      <trkpt lat="47.47709" lon="6.7685">
        <ele>311</ele>
        <time>2016-10-09T10:30:08.000Z</time>
      </trkpt>
      <trkpt lat="47.47711" lon="6.76844">
        <ele>311</ele>
        <time>2016-10-09T10:30:09.000Z</time>
      </trkpt>
      <trkpt lat="47.47712" lon="6.76836">
        <ele>311</ele>
        <time>2016-10-09T10:30:10.000Z</time>
      </trkpt>
      <trkpt lat="47.47716" lon="6.76828">
        <ele>311</ele>
        <time>2016-10-09T10:30:11.000Z</time>
      </trkpt>
      <trkpt lat="47.47719" lon="6.76822">
        <ele>311</ele>
        <time>2016-10-09T10:30:12.000Z</time>
      </trkpt>
      <trkpt lat="47.47722" lon="6.76815">
        <ele>311</ele>
        <time>2016-10-09T10:30:13.000Z</time>
      </trkpt>
      <trkpt lat="47.47726" lon="6.76807">
        <ele>311</ele>
        <time>2016-10-09T10:30:14.000Z</time>
      </trkpt>
      <trkpt lat="47.47728" lon="6.76802">
        <ele>311</ele>
        <time>2016-10-09T10:30:15.000Z</time>
      </trkpt>
      <trkpt lat="47.47731" lon="6.76799">
        <ele>311</ele>
        <time>2016-10-09T10:30:16.000Z</time>
      </trkpt>
      <trkpt lat="47.47734" lon="6.76795">
        <ele>311</ele>
        <time>2016-10-09T10:30:17.000Z</time>
      </trkpt>
      <trkpt lat="47.47739" lon="6.76797">
        <ele>311</ele>
        <time>2016-10-09T10:30:18.000Z</time>
      </trkpt>
      <trkpt lat="47.47742" lon="6.76796">
        <ele>311</ele>
        <time>2016-10-09T10:30:19.000Z</time>
      </trkpt>
      <trkpt lat="47.47746" lon="6.76796">
        <ele>311</ele>
        <time>2016-10-09T10:30:20.000Z</time>
      </trkpt>
      <trkpt lat="47.47749" lon="6.76796">
        <ele>311</ele>
        <time>2016-10-09T10:30:21.000Z</time>
      </trkpt>
      <trkpt lat="47.47752" lon="6.76796">
        <ele>311</ele>
        <time>2016-10-09T10:30:22.000Z</time>
      </trkpt>
      <trkpt lat="47.47755" lon="6.76794">
        <ele>311</ele>
        <time>2016-10-09T10:30:23.000Z</time>
      </trkpt>
      <trkpt lat="47.47759" lon="6.76794">
        <ele>311</ele>
        <time>2016-10-09T10:30:24.000Z</time>
      </trkpt>
      <trkpt lat="47.47763" lon="6.76794">
        <ele>311</ele>
        <time>2016-10-09T10:30:25.000Z</time>
      </trkpt>
      <trkpt lat="47.47767" lon="6.76795">
        <ele>311</ele>
        <time>2016-10-09T10:30:26.000Z</time>
      </trkpt>
      <trkpt lat="47.47774" lon="6.76798">
        <ele>311</ele>
        <time>2016-10-09T10:30:27.000Z</time>
      </trkpt>
      <trkpt lat="47.47779" lon="6.768">
        <ele>311</ele>
        <time>2016-10-09T10:30:28.000Z</time>
      </trkpt>
      <trkpt lat="47.47784" lon="6.76802">
        <ele>311</ele>
        <time>2016-10-09T10:30:29.000Z</time>
      </trkpt>
      <trkpt lat="47.4779" lon="6.76805">
        <ele>311</ele>
        <time>2016-10-09T10:30:30.000Z</time>
      </trkpt>
      <trkpt lat="47.47796" lon="6.76809">
        <ele>310</ele>
        <time>2016-10-09T10:30:31.000Z</time>
      </trkpt>
      <trkpt lat="47.47802" lon="6.76811">
        <ele>310</ele>
        <time>2016-10-09T10:30:32.000Z</time>
      </trkpt>
      <trkpt lat="47.47807" lon="6.76813">
        <ele>310</ele>
        <time>2016-10-09T10:30:33.000Z</time>
      </trkpt>
      <trkpt lat="47.47813" lon="6.76814">
        <ele>310</ele>
        <time>2016-10-09T10:30:34.000Z</time>
      </trkpt>
      <trkpt lat="47.47819" lon="6.76815">
        <ele>310</ele>
        <time>2016-10-09T10:30:35.000Z</time>
      </trkpt>
      <trkpt lat="47.47825" lon="6.76812">
        <ele>310</ele>
        <time>2016-10-09T10:30:36.000Z</time>
      </trkpt>
      <trkpt lat="47.4783" lon="6.76807">
        <ele>310</ele>
        <time>2016-10-09T10:30:37.000Z</time>
      </trkpt>
      <trkpt lat="47.47834" lon="6.768">
        <ele>311</ele>
        <time>2016-10-09T10:30:38.000Z</time>
      </trkpt>
      <trkpt lat="47.47837" lon="6.76794">
        <ele>311</ele>
        <time>2016-10-09T10:30:39.000Z</time>
      </trkpt>
      <trkpt lat="47.47841" lon="6.76787">
        <ele>311</ele>
        <time>2016-10-09T10:30:40.000Z</time>
      </trkpt>
      <trkpt lat="47.47844" lon="6.7678">
        <ele>311</ele>
        <time>2016-10-09T10:30:41.000Z</time>
      </trkpt>
      <trkpt lat="47.47847" lon="6.76772">
        <ele>311</ele>
        <time>2016-10-09T10:30:42.000Z</time>
      </trkpt>
      <trkpt lat="47.4785" lon="6.76765">
        <ele>311</ele>
        <time>2016-10-09T10:30:43.000Z</time>
      </trkpt>
      <trkpt lat="47.47854" lon="6.76759">
        <ele>311</ele>
        <time>2016-10-09T10:30:44.000Z</time>
      </trkpt>
      <trkpt lat="47.47856" lon="6.76754">
        <ele>311</ele>
        <time>2016-10-09T10:30:45.000Z</time>
      </trkpt>
      <trkpt lat="47.47858" lon="6.76748">
        <ele>310</ele>
        <time>2016-10-09T10:30:46.000Z</time>
      </trkpt>
      <trkpt lat="47.4786" lon="6.76741">
        <ele>310</ele>
        <time>2016-10-09T10:30:47.000Z</time>
      </trkpt>
      <trkpt lat="47.47863" lon="6.76733">
        <ele>310</ele>
        <time>2016-10-09T10:30:48.000Z</time>
      </trkpt>
      <trkpt lat="47.47867" lon="6.76726">
        <ele>310</ele>
        <time>2016-10-09T10:30:49.000Z</time>
      </trkpt>
      <trkpt lat="47.47871" lon="6.7672">
        <ele>310</ele>
        <time>2016-10-09T10:30:50.000Z</time>
      </trkpt>
      <trkpt lat="47.47874" lon="6.76713">
        <ele>310</ele>
        <time>2016-10-09T10:30:51.000Z</time>
      </trkpt>
      <trkpt lat="47.47878" lon="6.76705">
        <ele>310</ele>
        <time>2016-10-09T10:30:52.000Z</time>
      </trkpt>
      <trkpt lat="47.47882" lon="6.76699">
        <ele>310</ele>
        <time>2016-10-09T10:30:53.000Z</time>
      </trkpt>
      <trkpt lat="47.47885" lon="6.76691">
        <ele>310</ele>
        <time>2016-10-09T10:30:54.000Z</time>
      </trkpt>
      <trkpt lat="47.47889" lon="6.76684">
        <ele>310</ele>
        <time>2016-10-09T10:30:55.000Z</time>
      </trkpt>
      <trkpt lat="47.47892" lon="6.76677">
        <ele>310</ele>
        <time>2016-10-09T10:30:56.000Z</time>
      </trkpt>
      <trkpt lat="47.47896" lon="6.7667">
        <ele>311</ele>
        <time>2016-10-09T10:30:57.000Z</time>
      </trkpt>
      <trkpt lat="47.479" lon="6.76663">
        <ele>310</ele>
        <time>2016-10-09T10:30:58.000Z</time>
      </trkpt>
      <trkpt lat="47.47903" lon="6.76658">
        <ele>310</ele>
        <time>2016-10-09T10:30:59.000Z</time>
      </trkpt>
      <trkpt lat="47.47908" lon="6.76653">
        <ele>310</ele>
        <time>2016-10-09T10:31:00.000Z</time>
      </trkpt>
      <trkpt lat="47.47912" lon="6.76649">
        <ele>310</ele>
        <time>2016-10-09T10:31:01.000Z</time>
      </trkpt>
      <trkpt lat="47.47917" lon="6.76645">
        <ele>311</ele>
        <time>2016-10-09T10:31:02.000Z</time>
      </trkpt>
      <trkpt lat="47.47921" lon="6.76642">
        <ele>311</ele>
        <time>2016-10-09T10:31:03.000Z</time>
      </trkpt>
      <trkpt lat="47.47925" lon="6.76638">
        <ele>311</ele>
        <time>2016-10-09T10:31:04.000Z</time>
      </trkpt>
      <trkpt lat="47.47929" lon="6.76635">
        <ele>311</ele>
        <time>2016-10-09T10:31:05.000Z</time>
      </trkpt>
      <trkpt lat="47.47932" lon="6.76632">
        <ele>311</ele>
        <time>2016-10-09T10:31:06.000Z</time>
      </trkpt>
      <trkpt lat="47.47935" lon="6.76628">
        <ele>311</ele>
        <time>2016-10-09T10:31:07.000Z</time>
      </trkpt>
      <trkpt lat="47.47939" lon="6.76627">
        <ele>311</ele>
        <time>2016-10-09T10:31:08.000Z</time>
      </trkpt>
      <trkpt lat="47.47944" lon="6.76625">
        <ele>311</ele>
        <time>2016-10-09T10:31:09.000Z</time>
      </trkpt>
      <trkpt lat="47.47947" lon="6.76622">
        <ele>311</ele>
        <time>2016-10-09T10:31:10.000Z</time>
      </trkpt>
      <trkpt lat="47.47951" lon="6.76619">
        <ele>311</ele>
        <time>2016-10-09T10:31:11.000Z</time>
      </trkpt>
      <trkpt lat="47.47955" lon="6.76617">
        <ele>311</ele>
        <time>2016-10-09T10:31:12.000Z</time>
      </trkpt>
      <trkpt lat="47.4796" lon="6.76616">
        <ele>311</ele>
        <time>2016-10-09T10:31:13.000Z</time>
      </trkpt>
      <trkpt lat="47.47964" lon="6.76614">
        <ele>311</ele>
        <time>2016-10-09T10:31:14.000Z</time>
      </trkpt>
      <trkpt lat="47.47969" lon="6.76612">
        <ele>311</ele>
        <time>2016-10-09T10:31:15.000Z</time>
      </trkpt>
      <trkpt lat="47.47974" lon="6.7661">
        <ele>311</ele>
        <time>2016-10-09T10:31:16.000Z</time>
      </trkpt>
      <trkpt lat="47.47979" lon="6.76607">
        <ele>311</ele>
        <time>2016-10-09T10:31:17.000Z</time>
      </trkpt>
      <trkpt lat="47.47984" lon="6.76604">
        <ele>311</ele>
        <time>2016-10-09T10:31:18.000Z</time>
      </trkpt>
      <trkpt lat="47.47989" lon="6.76602">
        <ele>312</ele>
        <time>2016-10-09T10:31:19.000Z</time>
      </trkpt>
      <trkpt lat="47.47993" lon="6.766">
        <ele>312</ele>
        <time>2016-10-09T10:31:20.000Z</time>
      </trkpt>
      <trkpt lat="47.47998" lon="6.76597">
        <ele>312</ele>
        <time>2016-10-09T10:31:21.000Z</time>
      </trkpt>
      <trkpt lat="47.48002" lon="6.76594">
        <ele>312</ele>
        <time>2016-10-09T10:31:22.000Z</time>
      </trkpt>
      <trkpt lat="47.48008" lon="6.76591">
        <ele>312</ele>
        <time>2016-10-09T10:31:23.000Z</time>
      </trkpt>
      <trkpt lat="47.48013" lon="6.76589">
        <ele>312</ele>
        <time>2016-10-09T10:31:24.000Z</time>
      </trkpt>
      <trkpt lat="47.48018" lon="6.76586">
        <ele>312</ele>
        <time>2016-10-09T10:31:25.000Z</time>
      </trkpt>
      <trkpt lat="47.48022" lon="6.76583">
        <ele>312</ele>
        <time>2016-10-09T10:31:26.000Z</time>
      </trkpt>
      <trkpt lat="47.48028" lon="6.76581">
        <ele>312</ele>
        <time>2016-10-09T10:31:27.000Z</time>
      </trkpt>
      <trkpt lat="47.48032" lon="6.76577">
        <ele>312</ele>
        <time>2016-10-09T10:31:28.000Z</time>
      </trkpt>
      <trkpt lat="47.48037" lon="6.76573">
        <ele>312</ele>
        <time>2016-10-09T10:31:29.000Z</time>
      </trkpt>
      <trkpt lat="47.48041" lon="6.76569">
        <ele>312</ele>
        <time>2016-10-09T10:31:30.000Z</time>
      </trkpt>
      <trkpt lat="47.48046" lon="6.76564">
        <ele>312</ele>
        <time>2016-10-09T10:31:31.000Z</time>
      </trkpt>
      <trkpt lat="47.4805" lon="6.7656">
        <ele>312</ele>
        <time>2016-10-09T10:31:32.000Z</time>
      </trkpt>
      <trkpt lat="47.48055" lon="6.76555">
        <ele>312</ele>
        <time>2016-10-09T10:31:33.000Z</time>
      </trkpt>
      <trkpt lat="47.48059" lon="6.76551">
        <ele>312</ele>
        <time>2016-10-09T10:31:34.000Z</time>
      </trkpt>
      <trkpt lat="47.48063" lon="6.76547">
        <ele>312</ele>
        <time>2016-10-09T10:31:35.000Z</time>
      </trkpt>
      <trkpt lat="47.48067" lon="6.76543">
        <ele>312</ele>
        <time>2016-10-09T10:31:36.000Z</time>
      </trkpt>
      <trkpt lat="47.48071" lon="6.76538">
        <ele>312</ele>
        <time>2016-10-09T10:31:37.000Z</time>
      </trkpt>
      <trkpt lat="47.48076" lon="6.76533">
        <ele>312</ele>
        <time>2016-10-09T10:31:38.000Z</time>
      </trkpt>
      <trkpt lat="47.48081" lon="6.76529">
        <ele>312</ele>
        <time>2016-10-09T10:31:39.000Z</time>
      </trkpt>
      <trkpt lat="47.48085" lon="6.76525">
        <ele>317</ele>
        <time>2016-10-09T10:31:40.000Z</time>
      </trkpt>
      <trkpt lat="47.48089" lon="6.76521">
        <ele>317</ele>
        <time>2016-10-09T10:31:41.000Z</time>
      </trkpt>
      <trkpt lat="47.48093" lon="6.76517">
        <ele>317</ele>
        <time>2016-10-09T10:31:42.000Z</time>
      </trkpt>
      <trkpt lat="47.48098" lon="6.76513">
        <ele>317</ele>
        <time>2016-10-09T10:31:43.000Z</time>
      </trkpt>
      <trkpt lat="47.48102" lon="6.76511">
        <ele>318</ele>
        <time>2016-10-09T10:31:44.000Z</time>
      </trkpt>
      <trkpt lat="47.48106" lon="6.76513">
        <ele>318</ele>
        <time>2016-10-09T10:31:45.000Z</time>
      </trkpt>
      <trkpt lat="47.48109" lon="6.76518">
        <ele>319</ele>
        <time>2016-10-09T10:31:46.000Z</time>
      </trkpt>
      <trkpt lat="47.48112" lon="6.76523">
        <ele>319</ele>
        <time>2016-10-09T10:31:47.000Z</time>
      </trkpt>
      <trkpt lat="47.48115" lon="6.76527">
        <ele>320</ele>
        <time>2016-10-09T10:31:48.000Z</time>
      </trkpt>
      <trkpt lat="47.48118" lon="6.76532">
        <ele>320</ele>
        <time>2016-10-09T10:31:49.000Z</time>
      </trkpt>
      <trkpt lat="47.48121" lon="6.76536">
        <ele>320</ele>
        <time>2016-10-09T10:31:50.000Z</time>
      </trkpt>
      <trkpt lat="47.48124" lon="6.76541">
        <ele>320</ele>
        <time>2016-10-09T10:31:51.000Z</time>
      </trkpt>
      <trkpt lat="47.48124" lon="6.76548">
        <ele>320</ele>
        <time>2016-10-09T10:31:52.000Z</time>
      </trkpt>
      <trkpt lat="47.48123" lon="6.76555">
        <ele>319</ele>
        <time>2016-10-09T10:31:53.000Z</time>
      </trkpt>
      <trkpt lat="47.48119" lon="6.76561">
        <ele>318</ele>
        <time>2016-10-09T10:31:54.000Z</time>
      </trkpt>
      <trkpt lat="47.48116" lon="6.76567">
        <ele>318</ele>
        <time>2016-10-09T10:31:55.000Z</time>
      </trkpt>
      <trkpt lat="47.48113" lon="6.76575">
        <ele>317</ele>
        <time>2016-10-09T10:31:56.000Z</time>
      </trkpt>
      <trkpt lat="47.48109" lon="6.76581">
        <ele>317</ele>
        <time>2016-10-09T10:31:57.000Z</time>
      </trkpt>
      <trkpt lat="47.48104" lon="6.76589">
        <ele>313</ele>
        <time>2016-10-09T10:31:58.000Z</time>
      </trkpt>
      <trkpt lat="47.48101" lon="6.76597">
        <ele>313</ele>
        <time>2016-10-09T10:31:59.000Z</time>
      </trkpt>
      <trkpt lat="47.48099" lon="6.76607">
        <ele>313</ele>
        <time>2016-10-09T10:32:00.000Z</time>
      </trkpt>
      <trkpt lat="47.481" lon="6.76618">
        <ele>313</ele>
        <time>2016-10-09T10:32:01.000Z</time>
      </trkpt>
      <trkpt lat="47.48101" lon="6.76626">
        <ele>313</ele>
        <time>2016-10-09T10:32:02.000Z</time>
      </trkpt>
      <trkpt lat="47.48103" lon="6.76634">
        <ele>313</ele>
        <time>2016-10-09T10:32:03.000Z</time>
      </trkpt>
      <trkpt lat="47.48107" lon="6.76638">
        <ele>313</ele>
        <time>2016-10-09T10:32:04.000Z</time>
      </trkpt>
      <trkpt lat="47.4811" lon="6.76642">
        <ele>313</ele>
        <time>2016-10-09T10:32:05.000Z</time>
      </trkpt>
      <trkpt lat="47.48113" lon="6.76648">
        <ele>313</ele>
        <time>2016-10-09T10:32:06.000Z</time>
      </trkpt>
      <trkpt lat="47.48116" lon="6.76653">
        <ele>313</ele>
        <time>2016-10-09T10:32:07.000Z</time>
      </trkpt>
      <trkpt lat="47.4812" lon="6.76658">
        <ele>313</ele>
        <time>2016-10-09T10:32:08.000Z</time>
      </trkpt>
      <trkpt lat="47.48124" lon="6.76663">
        <ele>313</ele>
        <time>2016-10-09T10:32:09.000Z</time>
      </trkpt>
      <trkpt lat="47.48127" lon="6.76667">
        <ele>312</ele>
        <time>2016-10-09T10:32:10.000Z</time>
      </trkpt>
      <trkpt lat="47.48131" lon="6.76672">
        <ele>312</ele>
        <time>2016-10-09T10:32:11.000Z</time>
      </trkpt>
      <trkpt lat="47.48134" lon="6.76676">
        <ele>312</ele>
        <time>2016-10-09T10:32:12.000Z</time>
      </trkpt>
      <trkpt lat="47.48138" lon="6.76683">
        <ele>312</ele>
        <time>2016-10-09T10:32:13.000Z</time>
      </trkpt>
      <trkpt lat="47.48141" lon="6.76689">
        <ele>312</ele>
        <time>2016-10-09T10:32:14.000Z</time>
      </trkpt>
      <trkpt lat="47.48145" lon="6.76699">
        <ele>312</ele>
        <time>2016-10-09T10:32:15.000Z</time>
      </trkpt>
      <trkpt lat="47.48148" lon="6.76706">
        <ele>312</ele>
        <time>2016-10-09T10:32:16.000Z</time>
      </trkpt>
      <trkpt lat="47.4815" lon="6.76713">
        <ele>312</ele>
        <time>2016-10-09T10:32:17.000Z</time>
      </trkpt>
      <trkpt lat="47.48154" lon="6.76719">
        <ele>312</ele>
        <time>2016-10-09T10:32:18.000Z</time>
      </trkpt>
      <trkpt lat="47.48157" lon="6.76725">
        <ele>312</ele>
        <time>2016-10-09T10:32:19.000Z</time>
      </trkpt>
      <trkpt lat="47.4816" lon="6.7673">
        <ele>312</ele>
        <time>2016-10-09T10:32:20.000Z</time>
      </trkpt>
      <trkpt lat="47.48163" lon="6.76736">
        <ele>313</ele>
        <time>2016-10-09T10:32:21.000Z</time>
      </trkpt>
      <trkpt lat="47.48166" lon="6.7674">
        <ele>313</ele>
        <time>2016-10-09T10:32:22.000Z</time>
      </trkpt>
      <trkpt lat="47.48171" lon="6.76745">
        <ele>313</ele>
        <time>2016-10-09T10:32:23.000Z</time>
      </trkpt>
      <trkpt lat="47.48174" lon="6.76751">
        <ele>313</ele>
        <time>2016-10-09T10:32:24.000Z</time>
      </trkpt>
      <trkpt lat="47.48179" lon="6.76755">
        <ele>313</ele>
        <time>2016-10-09T10:32:25.000Z</time>
      </trkpt>
      <trkpt lat="47.48185" lon="6.76762">
        <ele>312</ele>
        <time>2016-10-09T10:32:26.000Z</time>
      </trkpt>
      <trkpt lat="47.48191" lon="6.76767">
        <ele>312</ele>
        <time>2016-10-09T10:32:27.000Z</time>
      </trkpt>
      <trkpt lat="47.48197" lon="6.76771">
        <ele>312</ele>
        <time>2016-10-09T10:32:28.000Z</time>
      </trkpt>
      <trkpt lat="47.48202" lon="6.76775">
        <ele>312</ele>
        <time>2016-10-09T10:32:29.000Z</time>
      </trkpt>
      <trkpt lat="47.48207" lon="6.76779">
        <ele>312</ele>
        <time>2016-10-09T10:32:30.000Z</time>
      </trkpt>
      <trkpt lat="47.48212" lon="6.76782">
        <ele>312</ele>
        <time>2016-10-09T10:32:31.000Z</time>
      </trkpt>
      <trkpt lat="47.48217" lon="6.76785">
        <ele>312</ele>
        <time>2016-10-09T10:32:32.000Z</time>
      </trkpt>
      <trkpt lat="47.48222" lon="6.76787">
        <ele>312</ele>
        <time>2016-10-09T10:32:33.000Z</time>
      </trkpt>
      <trkpt lat="47.48227" lon="6.76789">
        <ele>312</ele>
        <time>2016-10-09T10:32:34.000Z</time>
      </trkpt>
      <trkpt lat="47.48232" lon="6.76792">
        <ele>312</ele>
        <time>2016-10-09T10:32:35.000Z</time>
      </trkpt>
      <trkpt lat="47.48237" lon="6.76796">
        <ele>312</ele>
        <time>2016-10-09T10:32:36.000Z</time>
      </trkpt>
      <trkpt lat="47.48242" lon="6.768">
        <ele>312</ele>
        <time>2016-10-09T10:32:37.000Z</time>
      </trkpt>
      <trkpt lat="47.48245" lon="6.76804">
        <ele>312</ele>
        <time>2016-10-09T10:32:38.000Z</time>
      </trkpt>
      <trkpt lat="47.4825" lon="6.76807">
        <ele>312</ele>
        <time>2016-10-09T10:32:39.000Z</time>
      </trkpt>
      <trkpt lat="47.48253" lon="6.76811">
        <ele>312</ele>
        <time>2016-10-09T10:32:40.000Z</time>
      </trkpt>
      <trkpt lat="47.48257" lon="6.76814">
        <ele>312</ele>
        <time>2016-10-09T10:32:41.000Z</time>
      </trkpt>
      <trkpt lat="47.48262" lon="6.76823">
        <ele>312</ele>
        <time>2016-10-09T10:32:42.000Z</time>
      </trkpt>
      <trkpt lat="47.48266" lon="6.76829">
        <ele>312</ele>
        <time>2016-10-09T10:32:43.000Z</time>
      </trkpt>
      <trkpt lat="47.48271" lon="6.76836">
        <ele>311</ele>
        <time>2016-10-09T10:32:44.000Z</time>
      </trkpt>
      <trkpt lat="47.48275" lon="6.76843">
        <ele>311</ele>
        <time>2016-10-09T10:32:45.000Z</time>
      </trkpt>
      <trkpt lat="47.4828" lon="6.7685">
        <ele>310</ele>
        <time>2016-10-09T10:32:46.000Z</time>
      </trkpt>
      <trkpt lat="47.48285" lon="6.76856">
        <ele>310</ele>
        <time>2016-10-09T10:32:47.000Z</time>
      </trkpt>
      <trkpt lat="47.4829" lon="6.76862">
        <ele>310</ele>
        <time>2016-10-09T10:32:48.000Z</time>
      </trkpt>
      <trkpt lat="47.48294" lon="6.76867">
        <ele>310</ele>
        <time>2016-10-09T10:32:49.000Z</time>
      </trkpt>
      <trkpt lat="47.48299" lon="6.7687">
        <ele>310</ele>
        <time>2016-10-09T10:32:50.000Z</time>
      </trkpt>
      <trkpt lat="47.48306" lon="6.76875">
        <ele>310</ele>
        <time>2016-10-09T10:32:51.000Z</time>
      </trkpt>
      <trkpt lat="47.48312" lon="6.76879">
        <ele>310</ele>
        <time>2016-10-09T10:32:52.000Z</time>
      </trkpt>
      <trkpt lat="47.48317" lon="6.76885">
        <ele>310</ele>
        <time>2016-10-09T10:32:53.000Z</time>
      </trkpt>
      <trkpt lat="47.48322" lon="6.76889">
        <ele>310</ele>
        <time>2016-10-09T10:32:54.000Z</time>
      </trkpt>
      <trkpt lat="47.48326" lon="6.76894">
        <ele>310</ele>
        <time>2016-10-09T10:32:55.000Z</time>
      </trkpt>
      <trkpt lat="47.48332" lon="6.76898">
        <ele>310</ele>
        <time>2016-10-09T10:32:56.000Z</time>
      </trkpt>
      <trkpt lat="47.48337" lon="6.76901">
        <ele>310</ele>
        <time>2016-10-09T10:32:57.000Z</time>
      </trkpt>
      <trkpt lat="47.48343" lon="6.76905">
        <ele>310</ele>
        <time>2016-10-09T10:32:58.000Z</time>
      </trkpt>
      <trkpt lat="47.48349" lon="6.76908">
        <ele>310</ele>
        <time>2016-10-09T10:32:59.000Z</time>
      </trkpt>
      <trkpt lat="47.48354" lon="6.76912">
        <ele>311</ele>
        <time>2016-10-09T10:33:00.000Z</time>
      </trkpt>
      <trkpt lat="47.48361" lon="6.76915">
        <ele>311</ele>
        <time>2016-10-09T10:33:01.000Z</time>
      </trkpt>
      <trkpt lat="47.48367" lon="6.76919">
        <ele>311</ele>
        <time>2016-10-09T10:33:02.000Z</time>
      </trkpt>
      <trkpt lat="47.48372" lon="6.76923">
        <ele>312</ele>
        <time>2016-10-09T10:33:03.000Z</time>
      </trkpt>
      <trkpt lat="47.48378" lon="6.76926">
        <ele>312</ele>
        <time>2016-10-09T10:33:04.000Z</time>
      </trkpt>
      <trkpt lat="47.48383" lon="6.76929">
        <ele>312</ele>
        <time>2016-10-09T10:33:05.000Z</time>
      </trkpt>
      <trkpt lat="47.48388" lon="6.76932">
        <ele>312</ele>
        <time>2016-10-09T10:33:06.000Z</time>
      </trkpt>
      <trkpt lat="47.48393" lon="6.76936">
        <ele>312</ele>
        <time>2016-10-09T10:33:07.000Z</time>
      </trkpt>
      <trkpt lat="47.48398" lon="6.76939">
        <ele>312</ele>
        <time>2016-10-09T10:33:08.000Z</time>
      </trkpt>
      <trkpt lat="47.48404" lon="6.76942">
        <ele>312</ele>
        <time>2016-10-09T10:33:09.000Z</time>
      </trkpt>
      <trkpt lat="47.48409" lon="6.76945">
        <ele>312</ele>
        <time>2016-10-09T10:33:10.000Z</time>
      </trkpt>
      <trkpt lat="47.48415" lon="6.76947">
        <ele>312</ele>
        <time>2016-10-09T10:33:11.000Z</time>
      </trkpt>
      <trkpt lat="47.48421" lon="6.76949">
        <ele>314</ele>
        <time>2016-10-09T10:33:12.000Z</time>
      </trkpt>
      <trkpt lat="47.48426" lon="6.76952">
        <ele>314</ele>
        <time>2016-10-09T10:33:13.000Z</time>
      </trkpt>
      <trkpt lat="47.48432" lon="6.76955">
        <ele>314</ele>
        <time>2016-10-09T10:33:14.000Z</time>
      </trkpt>
      <trkpt lat="47.48437" lon="6.76959">
        <ele>315</ele>
        <time>2016-10-09T10:33:15.000Z</time>
      </trkpt>
      <trkpt lat="47.48442" lon="6.76964">
        <ele>315</ele>
        <time>2016-10-09T10:33:16.000Z</time>
      </trkpt>
      <trkpt lat="47.48448" lon="6.76969">
        <ele>315</ele>
        <time>2016-10-09T10:33:17.000Z</time>
      </trkpt>
      <trkpt lat="47.48454" lon="6.76974">
        <ele>315</ele>
        <time>2016-10-09T10:33:18.000Z</time>
      </trkpt>
      <trkpt lat="47.48459" lon="6.76978">
        <ele>315</ele>
        <time>2016-10-09T10:33:19.000Z</time>
      </trkpt>
      <trkpt lat="47.48464" lon="6.76982">
        <ele>315</ele>
        <time>2016-10-09T10:33:20.000Z</time>
      </trkpt>
      <trkpt lat="47.48469" lon="6.76986">
        <ele>315</ele>
        <time>2016-10-09T10:33:21.000Z</time>
      </trkpt>
      <trkpt lat="47.48474" lon="6.7699">
        <ele>315</ele>
        <time>2016-10-09T10:33:22.000Z</time>
      </trkpt>
      <trkpt lat="47.4848" lon="6.76993">
        <ele>315</ele>
        <time>2016-10-09T10:33:23.000Z</time>
      </trkpt>
      <trkpt lat="47.48485" lon="6.76997">
        <ele>316</ele>
        <time>2016-10-09T10:33:24.000Z</time>
      </trkpt>
      <trkpt lat="47.4849" lon="6.77">
        <ele>315</ele>
        <time>2016-10-09T10:33:25.000Z</time>
      </trkpt>
      <trkpt lat="47.48496" lon="6.77004">
        <ele>315</ele>
        <time>2016-10-09T10:33:26.000Z</time>
      </trkpt>
      <trkpt lat="47.48501" lon="6.77008">
        <ele>315</ele>
        <time>2016-10-09T10:33:27.000Z</time>
      </trkpt>
      <trkpt lat="47.48506" lon="6.77011">
        <ele>315</ele>
        <time>2016-10-09T10:33:28.000Z</time>
      </trkpt>
      <trkpt lat="47.4851" lon="6.77015">
        <ele>315</ele>
        <time>2016-10-09T10:33:29.000Z</time>
      </trkpt>
      <trkpt lat="47.48514" lon="6.77018">
        <ele>315</ele>
        <time>2016-10-09T10:33:30.000Z</time>
      </trkpt>
      <trkpt lat="47.48518" lon="6.77022">
        <ele>315</ele>
        <time>2016-10-09T10:33:31.000Z</time>
      </trkpt>
      <trkpt lat="47.48523" lon="6.77026">
        <ele>314</ele>
        <time>2016-10-09T10:33:32.000Z</time>
      </trkpt>
      <trkpt lat="47.48527" lon="6.77029">
        <ele>314</ele>
        <time>2016-10-09T10:33:33.000Z</time>
      </trkpt>
      <trkpt lat="47.48532" lon="6.77032">
        <ele>314</ele>
        <time>2016-10-09T10:33:34.000Z</time>
      </trkpt>
      <trkpt lat="47.48537" lon="6.77036">
        <ele>314</ele>
        <time>2016-10-09T10:33:35.000Z</time>
      </trkpt>
      <trkpt lat="47.48542" lon="6.7704">
        <ele>314</ele>
        <time>2016-10-09T10:33:36.000Z</time>
      </trkpt>
      <trkpt lat="47.48547" lon="6.77043">
        <ele>314</ele>
        <time>2016-10-09T10:33:37.000Z</time>
      </trkpt>
      <trkpt lat="47.48552" lon="6.77045">
        <ele>314</ele>
        <time>2016-10-09T10:33:38.000Z</time>
      </trkpt>
      <trkpt lat="47.48557" lon="6.77048">
        <ele>314</ele>
        <time>2016-10-09T10:33:39.000Z</time>
      </trkpt>
      <trkpt lat="47.48561" lon="6.7705">
        <ele>314</ele>
        <time>2016-10-09T10:33:40.000Z</time>
      </trkpt>
      <trkpt lat="47.48565" lon="6.77051">
        <ele>314</ele>
        <time>2016-10-09T10:33:41.000Z</time>
      </trkpt>
      <trkpt lat="47.4857" lon="6.77053">
        <ele>314</ele>
        <time>2016-10-09T10:33:42.000Z</time>
      </trkpt>
      <trkpt lat="47.48574" lon="6.77054">
        <ele>314</ele>
        <time>2016-10-09T10:33:43.000Z</time>
      </trkpt>
      <trkpt lat="47.48578" lon="6.77057">
        <ele>314</ele>
        <time>2016-10-09T10:33:44.000Z</time>
      </trkpt>
      <trkpt lat="47.48583" lon="6.7706">
        <ele>314</ele>
        <time>2016-10-09T10:33:45.000Z</time>
      </trkpt>
      <trkpt lat="47.48588" lon="6.77062">
        <ele>313</ele>
        <time>2016-10-09T10:33:46.000Z</time>
      </trkpt>
      <trkpt lat="47.48592" lon="6.77064">
        <ele>313</ele>
        <time>2016-10-09T10:33:47.000Z</time>
      </trkpt>
      <trkpt lat="47.48597" lon="6.77067">
        <ele>313</ele>
        <time>2016-10-09T10:33:48.000Z</time>
      </trkpt>
      <trkpt lat="47.48602" lon="6.7707">
        <ele>313</ele>
        <time>2016-10-09T10:33:49.000Z</time>
      </trkpt>
      <trkpt lat="47.48606" lon="6.77073">
        <ele>313</ele>
        <time>2016-10-09T10:33:50.000Z</time>
      </trkpt>
      <trkpt lat="47.48611" lon="6.77077">
        <ele>313</ele>
        <time>2016-10-09T10:33:51.000Z</time>
      </trkpt>
      <trkpt lat="47.48615" lon="6.77079">
        <ele>313</ele>
        <time>2016-10-09T10:33:52.000Z</time>
      </trkpt>
      <trkpt lat="47.48618" lon="6.77081">
        <ele>313</ele>
        <time>2016-10-09T10:33:53.000Z</time>
      </trkpt>
      <trkpt lat="47.48622" lon="6.77082">
        <ele>313</ele>
        <time>2016-10-09T10:33:54.000Z</time>
      </trkpt>
      <trkpt lat="47.48626" lon="6.77084">
        <ele>312</ele>
        <time>2016-10-09T10:33:55.000Z</time>
      </trkpt>
      <trkpt lat="47.4863" lon="6.77088">
        <ele>312</ele>
        <time>2016-10-09T10:33:56.000Z</time>
      </trkpt>
      <trkpt lat="47.48634" lon="6.77093">
        <ele>312</ele>
        <time>2016-10-09T10:33:57.000Z</time>
      </trkpt>
      <trkpt lat="47.48639" lon="6.77099">
        <ele>312</ele>
        <time>2016-10-09T10:33:58.000Z</time>
      </trkpt>
      <trkpt lat="47.48645" lon="6.77105">
        <ele>312</ele>
        <time>2016-10-09T10:33:59.000Z</time>
      </trkpt>
      <trkpt lat="47.4865" lon="6.77111">
        <ele>312</ele>
        <time>2016-10-09T10:34:00.000Z</time>
      </trkpt>
      <trkpt lat="47.48654" lon="6.77115">
        <ele>312</ele>
        <time>2016-10-09T10:34:01.000Z</time>
      </trkpt>
      <trkpt lat="47.48659" lon="6.7712">
        <ele>312</ele>
        <time>2016-10-09T10:34:02.000Z</time>
      </trkpt>
      <trkpt lat="47.48664" lon="6.77125">
        <ele>312</ele>
        <time>2016-10-09T10:34:03.000Z</time>
      </trkpt>
      <trkpt lat="47.48668" lon="6.7713">
        <ele>312</ele>
        <time>2016-10-09T10:34:04.000Z</time>
      </trkpt>
      <trkpt lat="47.48673" lon="6.77136">
        <ele>312</ele>
        <time>2016-10-09T10:34:05.000Z</time>
      </trkpt>
      <trkpt lat="47.48677" lon="6.7714">
        <ele>311</ele>
        <time>2016-10-09T10:34:06.000Z</time>
      </trkpt>
      <trkpt lat="47.48682" lon="6.77144">
        <ele>311</ele>
        <time>2016-10-09T10:34:07.000Z</time>
      </trkpt>
      <trkpt lat="47.48687" lon="6.77148">
        <ele>311</ele>
        <time>2016-10-09T10:34:08.000Z</time>
      </trkpt>
      <trkpt lat="47.48692" lon="6.77153">
        <ele>311</ele>
        <time>2016-10-09T10:34:09.000Z</time>
      </trkpt>
      <trkpt lat="47.48696" lon="6.77158">
        <ele>311</ele>
        <time>2016-10-09T10:34:10.000Z</time>
      </trkpt>
      <trkpt lat="47.48701" lon="6.77162">
        <ele>311</ele>
        <time>2016-10-09T10:34:11.000Z</time>
      </trkpt>
      <trkpt lat="47.48706" lon="6.77167">
        <ele>311</ele>
        <time>2016-10-09T10:34:12.000Z</time>
      </trkpt>
      <trkpt lat="47.48712" lon="6.77171">
        <ele>311</ele>
        <time>2016-10-09T10:34:13.000Z</time>
      </trkpt>
      <trkpt lat="47.48717" lon="6.77174">
        <ele>311</ele>
        <time>2016-10-09T10:34:14.000Z</time>
      </trkpt>
      <trkpt lat="47.48722" lon="6.77178">
        <ele>311</ele>
        <time>2016-10-09T10:34:15.000Z</time>
      </trkpt>
      <trkpt lat="47.48727" lon="6.77182">
        <ele>310</ele>
        <time>2016-10-09T10:34:16.000Z</time>
      </trkpt>
      <trkpt lat="47.48732" lon="6.77186">
        <ele>310</ele>
        <time>2016-10-09T10:34:17.000Z</time>
      </trkpt>
      <trkpt lat="47.48736" lon="6.77189">
        <ele>310</ele>
        <time>2016-10-09T10:34:18.000Z</time>
      </trkpt>
      <trkpt lat="47.4874" lon="6.77193">
        <ele>310</ele>
        <time>2016-10-09T10:34:19.000Z</time>
      </trkpt>
      <trkpt lat="47.48744" lon="6.77197">
        <ele>310</ele>
        <time>2016-10-09T10:34:20.000Z</time>
      </trkpt>
      <trkpt lat="47.4875" lon="6.772">
        <ele>310</ele>
        <time>2016-10-09T10:34:21.000Z</time>
      </trkpt>
      <trkpt lat="47.48754" lon="6.77204">
        <ele>310</ele>
        <time>2016-10-09T10:34:22.000Z</time>
      </trkpt>
      <trkpt lat="47.48759" lon="6.77207">
        <ele>310</ele>
        <time>2016-10-09T10:34:23.000Z</time>
      </trkpt>
      <trkpt lat="47.48765" lon="6.77211">
        <ele>310</ele>
        <time>2016-10-09T10:34:24.000Z</time>
      </trkpt>
      <trkpt lat="47.48769" lon="6.77214">
        <ele>310</ele>
        <time>2016-10-09T10:34:25.000Z</time>
      </trkpt>
      <trkpt lat="47.48774" lon="6.77218">
        <ele>310</ele>
        <time>2016-10-09T10:34:26.000Z</time>
      </trkpt>
      <trkpt lat="47.48779" lon="6.77221">
        <ele>310</ele>
        <time>2016-10-09T10:34:27.000Z</time>
      </trkpt>
      <trkpt lat="47.48783" lon="6.77224">
        <ele>310</ele>
        <time>2016-10-09T10:34:28.000Z</time>
      </trkpt>
      <trkpt lat="47.48787" lon="6.77228">
        <ele>310</ele>
        <time>2016-10-09T10:34:29.000Z</time>
      </trkpt>
      <trkpt lat="47.48792" lon="6.77231">
        <ele>310</ele>
        <time>2016-10-09T10:34:30.000Z</time>
      </trkpt>
      <trkpt lat="47.48797" lon="6.77237">
        <ele>310</ele>
        <time>2016-10-09T10:34:31.000Z</time>
      </trkpt>
      <trkpt lat="47.48802" lon="6.77241">
        <ele>310</ele>
        <time>2016-10-09T10:34:32.000Z</time>
      </trkpt>
      <trkpt lat="47.48807" lon="6.77244">
        <ele>311</ele>
        <time>2016-10-09T10:34:33.000Z</time>
      </trkpt>
      <trkpt lat="47.48811" lon="6.77247">
        <ele>311</ele>
        <time>2016-10-09T10:34:34.000Z</time>
      </trkpt>
      <trkpt lat="47.48815" lon="6.7725">
        <ele>311</ele>
        <time>2016-10-09T10:34:35.000Z</time>
      </trkpt>
      <trkpt lat="47.4882" lon="6.77253">
        <ele>310</ele>
        <time>2016-10-09T10:34:36.000Z</time>
      </trkpt>
      <trkpt lat="47.48824" lon="6.77256">
        <ele>310</ele>
        <time>2016-10-09T10:34:37.000Z</time>
      </trkpt>
      <trkpt lat="47.48829" lon="6.7726">
        <ele>310</ele>
        <time>2016-10-09T10:34:38.000Z</time>
      </trkpt>
      <trkpt lat="47.48833" lon="6.77263">
        <ele>311</ele>
        <time>2016-10-09T10:34:39.000Z</time>
      </trkpt>
      <trkpt lat="47.48837" lon="6.77266">
        <ele>310</ele>
        <time>2016-10-09T10:34:40.000Z</time>
      </trkpt>
      <trkpt lat="47.48841" lon="6.77267">
        <ele>310</ele>
        <time>2016-10-09T10:34:41.000Z</time>
      </trkpt>
      <trkpt lat="47.48845" lon="6.77269">
        <ele>310</ele>
        <time>2016-10-09T10:34:42.000Z</time>
      </trkpt>
      <trkpt lat="47.4885" lon="6.77272">
        <ele>310</ele>
        <time>2016-10-09T10:34:43.000Z</time>
      </trkpt>
      <trkpt lat="47.48856" lon="6.77275">
        <ele>310</ele>
        <time>2016-10-09T10:34:44.000Z</time>
      </trkpt>
      <trkpt lat="47.48862" lon="6.77279">
        <ele>310</ele>
        <time>2016-10-09T10:34:45.000Z</time>
      </trkpt>
      <trkpt lat="47.48868" lon="6.77282">
        <ele>310</ele>
        <time>2016-10-09T10:34:46.000Z</time>
      </trkpt>
      <trkpt lat="47.48873" lon="6.77285">
        <ele>310</ele>
        <time>2016-10-09T10:34:47.000Z</time>
      </trkpt>
      <trkpt lat="47.48878" lon="6.77287">
        <ele>310</ele>
        <time>2016-10-09T10:34:48.000Z</time>
      </trkpt>
      <trkpt lat="47.48883" lon="6.77288">
        <ele>310</ele>
        <time>2016-10-09T10:34:49.000Z</time>
      </trkpt>
      <trkpt lat="47.48888" lon="6.77289">
        <ele>310</ele>
        <time>2016-10-09T10:34:50.000Z</time>
      </trkpt>
      <trkpt lat="47.48893" lon="6.77291">
        <ele>310</ele>
        <time>2016-10-09T10:34:51.000Z</time>
      </trkpt>
      <trkpt lat="47.48898" lon="6.77291">
        <ele>310</ele>
        <time>2016-10-09T10:34:52.000Z</time>
      </trkpt>
      <trkpt lat="47.48903" lon="6.77293">
        <ele>310</ele>
        <time>2016-10-09T10:34:53.000Z</time>
      </trkpt>
      <trkpt lat="47.48909" lon="6.77296">
        <ele>310</ele>
        <time>2016-10-09T10:34:54.000Z</time>
      </trkpt>
      <trkpt lat="47.48914" lon="6.77298">
        <ele>310</ele>
        <time>2016-10-09T10:34:55.000Z</time>
      </trkpt>
      <trkpt lat="47.48919" lon="6.773">
        <ele>311</ele>
        <time>2016-10-09T10:34:56.000Z</time>
      </trkpt>
      <trkpt lat="47.48924" lon="6.77302">
        <ele>311</ele>
        <time>2016-10-09T10:34:57.000Z</time>
      </trkpt>
      <trkpt lat="47.4893" lon="6.77304">
        <ele>311</ele>
        <time>2016-10-09T10:34:58.000Z</time>
      </trkpt>
      <trkpt lat="47.48935" lon="6.77307">
        <ele>311</ele>
        <time>2016-10-09T10:34:59.000Z</time>
      </trkpt>
      <trkpt lat="47.4894" lon="6.77309">
        <ele>311</ele>
        <time>2016-10-09T10:35:00.000Z</time>
      </trkpt>
      <trkpt lat="47.48945" lon="6.77311">
        <ele>311</ele>
        <time>2016-10-09T10:35:01.000Z</time>
      </trkpt>
      <trkpt lat="47.4895" lon="6.77314">
        <ele>311</ele>
        <time>2016-10-09T10:35:02.000Z</time>
      </trkpt>
      <trkpt lat="47.48955" lon="6.77315">
        <ele>311</ele>
        <time>2016-10-09T10:35:03.000Z</time>
      </trkpt>
      <trkpt lat="47.4896" lon="6.77317">
        <ele>311</ele>
        <time>2016-10-09T10:35:04.000Z</time>
      </trkpt>
      <trkpt lat="47.48966" lon="6.77317">
        <ele>311</ele>
        <time>2016-10-09T10:35:05.000Z</time>
      </trkpt>
      <trkpt lat="47.48971" lon="6.77317">
        <ele>311</ele>
        <time>2016-10-09T10:35:06.000Z</time>
      </trkpt>
      <trkpt lat="47.48976" lon="6.77318">
        <ele>311</ele>
        <time>2016-10-09T10:35:07.000Z</time>
      </trkpt>
      <trkpt lat="47.48981" lon="6.77318">
        <ele>311</ele>
        <time>2016-10-09T10:35:08.000Z</time>
      </trkpt>
      <trkpt lat="47.48986" lon="6.77319">
        <ele>311</ele>
        <time>2016-10-09T10:35:09.000Z</time>
      </trkpt>
      <trkpt lat="47.48991" lon="6.77318">
        <ele>311</ele>
        <time>2016-10-09T10:35:10.000Z</time>
      </trkpt>
      <trkpt lat="47.48997" lon="6.77319">
        <ele>311</ele>
        <time>2016-10-09T10:35:11.000Z</time>
      </trkpt>
      <trkpt lat="47.49003" lon="6.7732">
        <ele>311</ele>
        <time>2016-10-09T10:35:12.000Z</time>
      </trkpt>
      <trkpt lat="47.49007" lon="6.7732">
        <ele>311</ele>
        <time>2016-10-09T10:35:13.000Z</time>
      </trkpt>
      <trkpt lat="47.49011" lon="6.7732">
        <ele>311</ele>
        <time>2016-10-09T10:35:14.000Z</time>
      </trkpt>
      <trkpt lat="47.49015" lon="6.7732">
        <ele>311</ele>
        <time>2016-10-09T10:35:15.000Z</time>
      </trkpt>
      <trkpt lat="47.49019" lon="6.77319">
        <ele>311</ele>
        <time>2016-10-09T10:35:16.000Z</time>
      </trkpt>
      <trkpt lat="47.49022" lon="6.7732">
        <ele>311</ele>
        <time>2016-10-09T10:35:17.000Z</time>
      </trkpt>
      <trkpt lat="47.49025" lon="6.77319">
        <ele>311</ele>
        <time>2016-10-09T10:35:18.000Z</time>
      </trkpt>
      <trkpt lat="47.49028" lon="6.77319">
        <ele>311</ele>
        <time>2016-10-09T10:35:19.000Z</time>
      </trkpt>
      <trkpt lat="47.49033" lon="6.7732">
        <ele>311</ele>
        <time>2016-10-09T10:35:20.000Z</time>
      </trkpt>
      <trkpt lat="47.49037" lon="6.7732">
        <ele>311</ele>
        <time>2016-10-09T10:35:21.000Z</time>
      </trkpt>
      <trkpt lat="47.4904" lon="6.77321">
        <ele>311</ele>
        <time>2016-10-09T10:35:22.000Z</time>
      </trkpt>
      <trkpt lat="47.49044" lon="6.77321">
        <ele>311</ele>
        <time>2016-10-09T10:35:23.000Z</time>
      </trkpt>
      <trkpt lat="47.49048" lon="6.77321">
        <ele>311</ele>
        <time>2016-10-09T10:35:24.000Z</time>
      </trkpt>
      <trkpt lat="47.49052" lon="6.77321">
        <ele>311</ele>
        <time>2016-10-09T10:35:25.000Z</time>
      </trkpt>
      <trkpt lat="47.49055" lon="6.77321">
        <ele>311</ele>
        <time>2016-10-09T10:35:26.000Z</time>
      </trkpt>
      <trkpt lat="47.49059" lon="6.77321">
        <ele>311</ele>
        <time>2016-10-09T10:35:27.000Z</time>
      </trkpt>
      <trkpt lat="47.49062" lon="6.77321">
        <ele>311</ele>
        <time>2016-10-09T10:35:28.000Z</time>
      </trkpt>
      <trkpt lat="47.49065" lon="6.77321">
        <ele>311</ele>
        <time>2016-10-09T10:35:29.000Z</time>
      </trkpt>
      <trkpt lat="47.49068" lon="6.7732">
        <ele>311</ele>
        <time>2016-10-09T10:35:30.000Z</time>
      </trkpt>
      <trkpt lat="47.49071" lon="6.7732">
        <ele>311</ele>
        <time>2016-10-09T10:35:31.000Z</time>
      </trkpt>
      <trkpt lat="47.49074" lon="6.7732">
        <ele>311</ele>
        <time>2016-10-09T10:35:32.000Z</time>
      </trkpt>
      <trkpt lat="47.49077" lon="6.7732">
        <ele>311</ele>
        <time>2016-10-09T10:35:33.000Z</time>
      </trkpt>
      <trkpt lat="47.49079" lon="6.77321">
        <ele>311</ele>
        <time>2016-10-09T10:35:34.000Z</time>
      </trkpt>
      <trkpt lat="47.49083" lon="6.77321">
        <ele>311</ele>
        <time>2016-10-09T10:35:36.000Z</time>
      </trkpt>
      <trkpt lat="47.49085" lon="6.77321">
        <ele>311</ele>
        <time>2016-10-09T10:35:37.000Z</time>
      </trkpt>
      <trkpt lat="47.49088" lon="6.77321">
        <ele>311</ele>
        <time>2016-10-09T10:35:40.000Z</time>
      </trkpt>
      <trkpt lat="47.49089" lon="6.77321">
        <ele>311</ele>
        <time>2016-10-09T10:35:41.000Z</time>
      </trkpt>
      <trkpt lat="47.49092" lon="6.77321">
        <ele>311</ele>
        <time>2016-10-09T10:35:43.000Z</time>
      </trkpt>
      <trkpt lat="47.49095" lon="6.7732">
        <ele>311</ele>
        <time>2016-10-09T10:35:44.000Z</time>
      </trkpt>
      <trkpt lat="47.49097" lon="6.7732">
        <ele>311</ele>
        <time>2016-10-09T10:35:45.000Z</time>
      </trkpt>
      <trkpt lat="47.491" lon="6.7732">
        <ele>311</ele>
        <time>2016-10-09T10:35:46.000Z</time>
      </trkpt>
      <trkpt lat="47.49104" lon="6.77321">
        <ele>311</ele>
        <time>2016-10-09T10:35:47.000Z</time>
      </trkpt>
      <trkpt lat="47.49107" lon="6.77322">
        <ele>311</ele>
        <time>2016-10-09T10:35:48.000Z</time>
      </trkpt>
      <trkpt lat="47.4911" lon="6.77322">
        <ele>311</ele>
        <time>2016-10-09T10:35:49.000Z</time>
      </trkpt>
      <trkpt lat="47.49114" lon="6.77323">
        <ele>311</ele>
        <time>2016-10-09T10:35:50.000Z</time>
      </trkpt>
      <trkpt lat="47.49117" lon="6.77323">
        <ele>311</ele>
        <time>2016-10-09T10:35:51.000Z</time>
      </trkpt>
      <trkpt lat="47.49121" lon="6.77323">
        <ele>311</ele>
        <time>2016-10-09T10:35:52.000Z</time>
      </trkpt>
      <trkpt lat="47.49124" lon="6.77322">
        <ele>311</ele>
        <time>2016-10-09T10:35:53.000Z</time>
      </trkpt>
      <trkpt lat="47.49128" lon="6.77322">
        <ele>311</ele>
        <time>2016-10-09T10:35:54.000Z</time>
      </trkpt>
      <trkpt lat="47.49131" lon="6.77322">
        <ele>311</ele>
        <time>2016-10-09T10:35:55.000Z</time>
      </trkpt>
      <trkpt lat="47.49135" lon="6.77323">
        <ele>311</ele>
        <time>2016-10-09T10:35:56.000Z</time>
      </trkpt>
      <trkpt lat="47.49139" lon="6.77323">
        <ele>311</ele>
        <time>2016-10-09T10:35:57.000Z</time>
      </trkpt>
      <trkpt lat="47.49144" lon="6.77324">
        <ele>311</ele>
        <time>2016-10-09T10:35:58.000Z</time>
      </trkpt>
      <trkpt lat="47.49148" lon="6.77325">
        <ele>311</ele>
        <time>2016-10-09T10:35:59.000Z</time>
      </trkpt>
      <trkpt lat="47.49152" lon="6.77325">
        <ele>311</ele>
        <time>2016-10-09T10:36:00.000Z</time>
      </trkpt>
      <trkpt lat="47.49156" lon="6.77325">
        <ele>311</ele>
        <time>2016-10-09T10:36:01.000Z</time>
      </trkpt>
      <trkpt lat="47.49159" lon="6.77324">
        <ele>310</ele>
        <time>2016-10-09T10:36:02.000Z</time>
      </trkpt>
      <trkpt lat="47.49162" lon="6.77324">
        <ele>310</ele>
        <time>2016-10-09T10:36:03.000Z</time>
      </trkpt>
      <trkpt lat="47.49164" lon="6.77324">
        <ele>310</ele>
        <time>2016-10-09T10:36:04.000Z</time>
      </trkpt>
      <trkpt lat="47.49167" lon="6.77324">
        <ele>310</ele>
        <time>2016-10-09T10:36:05.000Z</time>
      </trkpt>
      <trkpt lat="47.49169" lon="6.77324">
        <ele>310</ele>
        <time>2016-10-09T10:36:06.000Z</time>
      </trkpt>
      <trkpt lat="47.49171" lon="6.77324">
        <ele>310</ele>
        <time>2016-10-09T10:36:07.000Z</time>
      </trkpt>
      <trkpt lat="47.49175" lon="6.77322">
        <ele>310</ele>
        <time>2016-10-09T10:36:57.000Z</time>
      </trkpt>
      <trkpt lat="47.49177" lon="6.77322">
        <ele>310</ele>
        <time>2016-10-09T10:36:58.000Z</time>
      </trkpt>
      <trkpt lat="47.4918" lon="6.77322">
        <ele>310</ele>
        <time>2016-10-09T10:37:00.000Z</time>
      </trkpt>
      <trkpt lat="47.49182" lon="6.77322">
        <ele>310</ele>
        <time>2016-10-09T10:37:01.000Z</time>
      </trkpt>
      <trkpt lat="47.49185" lon="6.77323">
        <ele>310</ele>
        <time>2016-10-09T10:37:02.000Z</time>
      </trkpt>
      <trkpt lat="47.49188" lon="6.77323">
        <ele>310</ele>
        <time>2016-10-09T10:37:03.000Z</time>
      </trkpt>
      <trkpt lat="47.49191" lon="6.77324">
        <ele>310</ele>
        <time>2016-10-09T10:37:04.000Z</time>
      </trkpt>
      <trkpt lat="47.49194" lon="6.77324">
        <ele>310</ele>
        <time>2016-10-09T10:37:05.000Z</time>
      </trkpt>
      <trkpt lat="47.49198" lon="6.77325">
        <ele>310</ele>
        <time>2016-10-09T10:37:06.000Z</time>
      </trkpt>
      <trkpt lat="47.49202" lon="6.77326">
        <ele>310</ele>
        <time>2016-10-09T10:37:07.000Z</time>
      </trkpt>
      <trkpt lat="47.49209" lon="6.77328">
        <ele>310</ele>
        <time>2016-10-09T10:37:08.000Z</time>
      </trkpt>
      <trkpt lat="47.49213" lon="6.77328">
        <ele>310</ele>
        <time>2016-10-09T10:37:09.000Z</time>
      </trkpt>
      <trkpt lat="47.49218" lon="6.77329">
        <ele>310</ele>
        <time>2016-10-09T10:37:10.000Z</time>
      </trkpt>
      <trkpt lat="47.49223" lon="6.7733">
        <ele>310</ele>
        <time>2016-10-09T10:37:11.000Z</time>
      </trkpt>
      <trkpt lat="47.49227" lon="6.7733">
        <ele>310</ele>
        <time>2016-10-09T10:37:12.000Z</time>
      </trkpt>
      <trkpt lat="47.49232" lon="6.7733">
        <ele>310</ele>
        <time>2016-10-09T10:37:13.000Z</time>
      </trkpt>
      <trkpt lat="47.49236" lon="6.77331">
        <ele>310</ele>
        <time>2016-10-09T10:37:14.000Z</time>
      </trkpt>
      <trkpt lat="47.49241" lon="6.7733">
        <ele>310</ele>
        <time>2016-10-09T10:37:15.000Z</time>
      </trkpt>
      <trkpt lat="47.49245" lon="6.77327">
        <ele>310</ele>
        <time>2016-10-09T10:37:16.000Z</time>
      </trkpt>
      <trkpt lat="47.49249" lon="6.77325">
        <ele>310</ele>
        <time>2016-10-09T10:37:17.000Z</time>
      </trkpt>
      <trkpt lat="47.49253" lon="6.77323">
        <ele>310</ele>
        <time>2016-10-09T10:37:18.000Z</time>
      </trkpt>
      <trkpt lat="47.49259" lon="6.77322">
        <ele>310</ele>
        <time>2016-10-09T10:37:19.000Z</time>
      </trkpt>
      <trkpt lat="47.49264" lon="6.77321">
        <ele>310</ele>
        <time>2016-10-09T10:37:20.000Z</time>
      </trkpt>
      <trkpt lat="47.49269" lon="6.77321">
        <ele>310</ele>
        <time>2016-10-09T10:37:21.000Z</time>
      </trkpt>
      <trkpt lat="47.49275" lon="6.77321">
        <ele>310</ele>
        <time>2016-10-09T10:37:22.000Z</time>
      </trkpt>
      <trkpt lat="47.4928" lon="6.77322">
        <ele>310</ele>
        <time>2016-10-09T10:37:23.000Z</time>
      </trkpt>
      <trkpt lat="47.49286" lon="6.77323">
        <ele>310</ele>
        <time>2016-10-09T10:37:24.000Z</time>
      </trkpt>
      <trkpt lat="47.49291" lon="6.77324">
        <ele>311</ele>
        <time>2016-10-09T10:37:25.000Z</time>
      </trkpt>
      <trkpt lat="47.49297" lon="6.77325">
        <ele>310</ele>
        <time>2016-10-09T10:37:26.000Z</time>
      </trkpt>
      <trkpt lat="47.49301" lon="6.77326">
        <ele>310</ele>
        <time>2016-10-09T10:37:27.000Z</time>
      </trkpt>
      <trkpt lat="47.49306" lon="6.77326">
        <ele>310</ele>
        <time>2016-10-09T10:37:28.000Z</time>
      </trkpt>
      <trkpt lat="47.49309" lon="6.77324">
        <ele>310</ele>
        <time>2016-10-09T10:37:29.000Z</time>
      </trkpt>
      <trkpt lat="47.49314" lon="6.77325">
        <ele>310</ele>
        <time>2016-10-09T10:37:30.000Z</time>
      </trkpt>
      <trkpt lat="47.49318" lon="6.77324">
        <ele>310</ele>
        <time>2016-10-09T10:37:31.000Z</time>
      </trkpt>
      <trkpt lat="47.49322" lon="6.77327">
        <ele>310</ele>
        <time>2016-10-09T10:37:32.000Z</time>
      </trkpt>
      <trkpt lat="47.49326" lon="6.77329">
        <ele>310</ele>
        <time>2016-10-09T10:37:33.000Z</time>
      </trkpt>
      <trkpt lat="47.49329" lon="6.77332">
        <ele>310</ele>
        <time>2016-10-09T10:37:34.000Z</time>
      </trkpt>
      <trkpt lat="47.49333" lon="6.77335">
        <ele>310</ele>
        <time>2016-10-09T10:37:35.000Z</time>
      </trkpt>
      <trkpt lat="47.49337" lon="6.77336">
        <ele>310</ele>
        <time>2016-10-09T10:37:36.000Z</time>
      </trkpt>
      <trkpt lat="47.49341" lon="6.77337">
        <ele>310</ele>
        <time>2016-10-09T10:37:37.000Z</time>
      </trkpt>
      <trkpt lat="47.49345" lon="6.77338">
        <ele>310</ele>
        <time>2016-10-09T10:37:38.000Z</time>
      </trkpt>
      <trkpt lat="47.49349" lon="6.77338">
        <ele>310</ele>
        <time>2016-10-09T10:37:39.000Z</time>
      </trkpt>
      <trkpt lat="47.49353" lon="6.77337">
        <ele>310</ele>
        <time>2016-10-09T10:37:40.000Z</time>
      </trkpt>
      <trkpt lat="47.49358" lon="6.77337">
        <ele>310</ele>
        <time>2016-10-09T10:37:41.000Z</time>
      </trkpt>
      <trkpt lat="47.49363" lon="6.77338">
        <ele>310</ele>
        <time>2016-10-09T10:37:42.000Z</time>
      </trkpt>
      <trkpt lat="47.49368" lon="6.77339">
        <ele>310</ele>
        <time>2016-10-09T10:37:43.000Z</time>
      </trkpt>
      <trkpt lat="47.49373" lon="6.7734">
        <ele>310</ele>
        <time>2016-10-09T10:37:44.000Z</time>
      </trkpt>
      <trkpt lat="47.49378" lon="6.7734">
        <ele>310</ele>
        <time>2016-10-09T10:37:45.000Z</time>
      </trkpt>
      <trkpt lat="47.49383" lon="6.77341">
        <ele>310</ele>
        <time>2016-10-09T10:37:46.000Z</time>
      </trkpt>
      <trkpt lat="47.49388" lon="6.77342">
        <ele>310</ele>
        <time>2016-10-09T10:37:47.000Z</time>
      </trkpt>
      <trkpt lat="47.49393" lon="6.77342">
        <ele>310</ele>
        <time>2016-10-09T10:37:48.000Z</time>
      </trkpt>
      <trkpt lat="47.49398" lon="6.77343">
        <ele>310</ele>
        <time>2016-10-09T10:37:49.000Z</time>
      </trkpt>
      <trkpt lat="47.49404" lon="6.77343">
        <ele>311</ele>
        <time>2016-10-09T10:37:50.000Z</time>
      </trkpt>
      <trkpt lat="47.49409" lon="6.77344">
        <ele>311</ele>
        <time>2016-10-09T10:37:51.000Z</time>
      </trkpt>
      <trkpt lat="47.49414" lon="6.77345">
        <ele>311</ele>
        <time>2016-10-09T10:37:52.000Z</time>
      </trkpt>
      <trkpt lat="47.49419" lon="6.77346">
        <ele>311</ele>
        <time>2016-10-09T10:37:53.000Z</time>
      </trkpt>
      <trkpt lat="47.49424" lon="6.77347">
        <ele>311</ele>
        <time>2016-10-09T10:37:54.000Z</time>
      </trkpt>
      <trkpt lat="47.4943" lon="6.77348">
        <ele>311</ele>
        <time>2016-10-09T10:37:55.000Z</time>
      </trkpt>
      <trkpt lat="47.49435" lon="6.77348">
        <ele>311</ele>
        <time>2016-10-09T10:37:56.000Z</time>
      </trkpt>
      <trkpt lat="47.49439" lon="6.77349">
        <ele>311</ele>
        <time>2016-10-09T10:37:57.000Z</time>
      </trkpt>
      <trkpt lat="47.49444" lon="6.7735">
        <ele>311</ele>
        <time>2016-10-09T10:37:58.000Z</time>
      </trkpt>
      <trkpt lat="47.4945" lon="6.77351">
        <ele>311</ele>
        <time>2016-10-09T10:37:59.000Z</time>
      </trkpt>
      <trkpt lat="47.49454" lon="6.77351">
        <ele>311</ele>
        <time>2016-10-09T10:38:00.000Z</time>
      </trkpt>
      <trkpt lat="47.4946" lon="6.77352">
        <ele>311</ele>
        <time>2016-10-09T10:38:01.000Z</time>
      </trkpt>
      <trkpt lat="47.49465" lon="6.77352">
        <ele>311</ele>
        <time>2016-10-09T10:38:02.000Z</time>
      </trkpt>
      <trkpt lat="47.4947" lon="6.77353">
        <ele>311</ele>
        <time>2016-10-09T10:38:03.000Z</time>
      </trkpt>
      <trkpt lat="47.49475" lon="6.77354">
        <ele>311</ele>
        <time>2016-10-09T10:38:04.000Z</time>
      </trkpt>
      <trkpt lat="47.4948" lon="6.77354">
        <ele>311</ele>
        <time>2016-10-09T10:38:05.000Z</time>
      </trkpt>
      <trkpt lat="47.49485" lon="6.77354">
        <ele>311</ele>
        <time>2016-10-09T10:38:06.000Z</time>
      </trkpt>
      <trkpt lat="47.49491" lon="6.77355">
        <ele>312</ele>
        <time>2016-10-09T10:38:07.000Z</time>
      </trkpt>
      <trkpt lat="47.49495" lon="6.77354">
        <ele>312</ele>
        <time>2016-10-09T10:38:08.000Z</time>
      </trkpt>
      <trkpt lat="47.495" lon="6.77354">
        <ele>312</ele>
        <time>2016-10-09T10:38:09.000Z</time>
      </trkpt>
      <trkpt lat="47.49505" lon="6.77354">
        <ele>312</ele>
        <time>2016-10-09T10:38:10.000Z</time>
      </trkpt>
      <trkpt lat="47.4951" lon="6.77354">
        <ele>312</ele>
        <time>2016-10-09T10:38:11.000Z</time>
      </trkpt>
      <trkpt lat="47.49515" lon="6.77354">
        <ele>312</ele>
        <time>2016-10-09T10:38:12.000Z</time>
      </trkpt>
      <trkpt lat="47.49519" lon="6.77355">
        <ele>312</ele>
        <time>2016-10-09T10:38:13.000Z</time>
      </trkpt>
      <trkpt lat="47.49525" lon="6.77355">
        <ele>312</ele>
        <time>2016-10-09T10:38:14.000Z</time>
      </trkpt>
      <trkpt lat="47.4953" lon="6.77356">
        <ele>312</ele>
        <time>2016-10-09T10:38:15.000Z</time>
      </trkpt>
      <trkpt lat="47.49535" lon="6.77356">
        <ele>312</ele>
        <time>2016-10-09T10:38:16.000Z</time>
      </trkpt>
      <trkpt lat="47.49539" lon="6.77356">
        <ele>312</ele>
        <time>2016-10-09T10:38:17.000Z</time>
      </trkpt>
      <trkpt lat="47.49544" lon="6.77356">
        <ele>312</ele>
        <time>2016-10-09T10:38:18.000Z</time>
      </trkpt>
      <trkpt lat="47.49549" lon="6.77356">
        <ele>312</ele>
        <time>2016-10-09T10:38:19.000Z</time>
      </trkpt>
      <trkpt lat="47.49554" lon="6.77356">
        <ele>312</ele>
        <time>2016-10-09T10:38:20.000Z</time>
      </trkpt>
      <trkpt lat="47.49559" lon="6.77356">
        <ele>312</ele>
        <time>2016-10-09T10:38:21.000Z</time>
      </trkpt>
      <trkpt lat="47.49565" lon="6.77356">
        <ele>313</ele>
        <time>2016-10-09T10:38:22.000Z</time>
      </trkpt>
      <trkpt lat="47.4957" lon="6.77356">
        <ele>313</ele>
        <time>2016-10-09T10:38:23.000Z</time>
      </trkpt>
      <trkpt lat="47.49575" lon="6.77356">
        <ele>313</ele>
        <time>2016-10-09T10:38:24.000Z</time>
      </trkpt>
      <trkpt lat="47.4958" lon="6.77356">
        <ele>313</ele>
        <time>2016-10-09T10:38:25.000Z</time>
      </trkpt>
      <trkpt lat="47.49585" lon="6.77355">
        <ele>313</ele>
        <time>2016-10-09T10:38:26.000Z</time>
      </trkpt>
      <trkpt lat="47.49589" lon="6.77353">
        <ele>313</ele>
        <time>2016-10-09T10:38:27.000Z</time>
      </trkpt>
      <trkpt lat="47.49595" lon="6.77353">
        <ele>313</ele>
        <time>2016-10-09T10:38:28.000Z</time>
      </trkpt>
      <trkpt lat="47.496" lon="6.77352">
        <ele>313</ele>
        <time>2016-10-09T10:38:29.000Z</time>
      </trkpt>
      <trkpt lat="47.49605" lon="6.77351">
        <ele>313</ele>
        <time>2016-10-09T10:38:30.000Z</time>
      </trkpt>
      <trkpt lat="47.49609" lon="6.77348">
        <ele>313</ele>
        <time>2016-10-09T10:38:31.000Z</time>
      </trkpt>
      <trkpt lat="47.49614" lon="6.77347">
        <ele>313</ele>
        <time>2016-10-09T10:38:32.000Z</time>
      </trkpt>
      <trkpt lat="47.49619" lon="6.77346">
        <ele>313</ele>
        <time>2016-10-09T10:38:33.000Z</time>
      </trkpt>
      <trkpt lat="47.49624" lon="6.77345">
        <ele>313</ele>
        <time>2016-10-09T10:38:34.000Z</time>
      </trkpt>
      <trkpt lat="47.49629" lon="6.77344">
        <ele>313</ele>
        <time>2016-10-09T10:38:35.000Z</time>
      </trkpt>
      <trkpt lat="47.49635" lon="6.77343">
        <ele>313</ele>
        <time>2016-10-09T10:38:36.000Z</time>
      </trkpt>
      <trkpt lat="47.4964" lon="6.77343">
        <ele>313</ele>
        <time>2016-10-09T10:38:37.000Z</time>
      </trkpt>
      <trkpt lat="47.49645" lon="6.77342">
        <ele>313</ele>
        <time>2016-10-09T10:38:38.000Z</time>
      </trkpt>
      <trkpt lat="47.49651" lon="6.77342">
        <ele>313</ele>
        <time>2016-10-09T10:38:39.000Z</time>
      </trkpt>
      <trkpt lat="47.49656" lon="6.77341">
        <ele>313</ele>
        <time>2016-10-09T10:38:40.000Z</time>
      </trkpt>
      <trkpt lat="47.49662" lon="6.77339">
        <ele>314</ele>
        <time>2016-10-09T10:38:41.000Z</time>
      </trkpt>
      <trkpt lat="47.49667" lon="6.77338">
        <ele>314</ele>
        <time>2016-10-09T10:38:42.000Z</time>
      </trkpt>
      <trkpt lat="47.49672" lon="6.77337">
        <ele>314</ele>
        <time>2016-10-09T10:38:43.000Z</time>
      </trkpt>
      <trkpt lat="47.49677" lon="6.77336">
        <ele>313</ele>
        <time>2016-10-09T10:38:44.000Z</time>
      </trkpt>
      <trkpt lat="47.49682" lon="6.77335">
        <ele>313</ele>
        <time>2016-10-09T10:38:45.000Z</time>
      </trkpt>
      <trkpt lat="47.49688" lon="6.77334">
        <ele>313</ele>
        <time>2016-10-09T10:38:46.000Z</time>
      </trkpt>
      <trkpt lat="47.49693" lon="6.77333">
        <ele>315</ele>
        <time>2016-10-09T10:38:47.000Z</time>
      </trkpt>
      <trkpt lat="47.49698" lon="6.77333">
        <ele>315</ele>
        <time>2016-10-09T10:38:48.000Z</time>
      </trkpt>
      <trkpt lat="47.49702" lon="6.77332">
        <ele>315</ele>
        <time>2016-10-09T10:38:49.000Z</time>
      </trkpt>
      <trkpt lat="47.49706" lon="6.77331">
        <ele>315</ele>
        <time>2016-10-09T10:38:50.000Z</time>
      </trkpt>
      <trkpt lat="47.4971" lon="6.77331">
        <ele>315</ele>
        <time>2016-10-09T10:38:51.000Z</time>
      </trkpt>
      <trkpt lat="47.49714" lon="6.77331">
        <ele>315</ele>
        <time>2016-10-09T10:38:52.000Z</time>
      </trkpt>
      <trkpt lat="47.49718" lon="6.7733">
        <ele>314</ele>
        <time>2016-10-09T10:38:53.000Z</time>
      </trkpt>
      <trkpt lat="47.49722" lon="6.7733">
        <ele>314</ele>
        <time>2016-10-09T10:38:54.000Z</time>
      </trkpt>
      <trkpt lat="47.49726" lon="6.77329">
        <ele>314</ele>
        <time>2016-10-09T10:38:55.000Z</time>
      </trkpt>
      <trkpt lat="47.49729" lon="6.77327">
        <ele>314</ele>
        <time>2016-10-09T10:38:56.000Z</time>
      </trkpt>
      <trkpt lat="47.49732" lon="6.77325">
        <ele>314</ele>
        <time>2016-10-09T10:38:57.000Z</time>
      </trkpt>
      <trkpt lat="47.49735" lon="6.77323">
        <ele>314</ele>
        <time>2016-10-09T10:38:58.000Z</time>
      </trkpt>
      <trkpt lat="47.49738" lon="6.77321">
        <ele>314</ele>
        <time>2016-10-09T10:38:59.000Z</time>
      </trkpt>
      <trkpt lat="47.49742" lon="6.7732">
        <ele>314</ele>
        <time>2016-10-09T10:39:00.000Z</time>
      </trkpt>
      <trkpt lat="47.49746" lon="6.77318">
        <ele>314</ele>
        <time>2016-10-09T10:39:01.000Z</time>
      </trkpt>
      <trkpt lat="47.4975" lon="6.77317">
        <ele>314</ele>
        <time>2016-10-09T10:39:02.000Z</time>
      </trkpt>
      <trkpt lat="47.49754" lon="6.77315">
        <ele>315</ele>
        <time>2016-10-09T10:39:03.000Z</time>
      </trkpt>
      <trkpt lat="47.49759" lon="6.77312">
        <ele>316</ele>
        <time>2016-10-09T10:39:04.000Z</time>
      </trkpt>
      <trkpt lat="47.49764" lon="6.77311">
        <ele>316</ele>
        <time>2016-10-09T10:39:05.000Z</time>
      </trkpt>
      <trkpt lat="47.49768" lon="6.77312">
        <ele>316</ele>
        <time>2016-10-09T10:39:06.000Z</time>
      </trkpt>
      <trkpt lat="47.49773" lon="6.77312">
        <ele>316</ele>
        <time>2016-10-09T10:39:07.000Z</time>
      </trkpt>
      <trkpt lat="47.49777" lon="6.77312">
        <ele>316</ele>
        <time>2016-10-09T10:39:08.000Z</time>
      </trkpt>
      <trkpt lat="47.49782" lon="6.77311">
        <ele>317</ele>
        <time>2016-10-09T10:39:09.000Z</time>
      </trkpt>
      <trkpt lat="47.49787" lon="6.7731">
        <ele>317</ele>
        <time>2016-10-09T10:39:10.000Z</time>
      </trkpt>
      <trkpt lat="47.49791" lon="6.77309">
        <ele>317</ele>
        <time>2016-10-09T10:39:11.000Z</time>
      </trkpt>
      <trkpt lat="47.49796" lon="6.77307">
        <ele>317</ele>
        <time>2016-10-09T10:39:12.000Z</time>
      </trkpt>
      <trkpt lat="47.49801" lon="6.77306">
        <ele>317</ele>
        <time>2016-10-09T10:39:13.000Z</time>
      </trkpt>
      <trkpt lat="47.49806" lon="6.77306">
        <ele>317</ele>
        <time>2016-10-09T10:39:14.000Z</time>
      </trkpt>
      <trkpt lat="47.49811" lon="6.77306">
        <ele>317</ele>
        <time>2016-10-09T10:39:15.000Z</time>
      </trkpt>
      <trkpt lat="47.49816" lon="6.77306">
        <ele>317</ele>
        <time>2016-10-09T10:39:16.000Z</time>
      </trkpt>
      <trkpt lat="47.4982" lon="6.77305">
        <ele>317</ele>
        <time>2016-10-09T10:39:17.000Z</time>
      </trkpt>
      <trkpt lat="47.49826" lon="6.77302">
        <ele>317</ele>
        <time>2016-10-09T10:39:18.000Z</time>
      </trkpt>
      <trkpt lat="47.4983" lon="6.77297">
        <ele>318</ele>
        <time>2016-10-09T10:39:19.000Z</time>
      </trkpt>
      <trkpt lat="47.49833" lon="6.77295">
        <ele>318</ele>
        <time>2016-10-09T10:39:20.000Z</time>
      </trkpt>
      <trkpt lat="47.49838" lon="6.77292">
        <ele>319</ele>
        <time>2016-10-09T10:39:21.000Z</time>
      </trkpt>
      <trkpt lat="47.49845" lon="6.77293">
        <ele>319</ele>
        <time>2016-10-09T10:39:22.000Z</time>
      </trkpt>
      <trkpt lat="47.4985" lon="6.77294">
        <ele>319</ele>
        <time>2016-10-09T10:39:23.000Z</time>
      </trkpt>
      <trkpt lat="47.49857" lon="6.77294">
        <ele>319</ele>
        <time>2016-10-09T10:39:24.000Z</time>
      </trkpt>
      <trkpt lat="47.49861" lon="6.77295">
        <ele>319</ele>
        <time>2016-10-09T10:39:25.000Z</time>
      </trkpt>
      <trkpt lat="47.49866" lon="6.77295">
        <ele>319</ele>
        <time>2016-10-09T10:39:26.000Z</time>
      </trkpt>
      <trkpt lat="47.49869" lon="6.77295">
        <ele>319</ele>
        <time>2016-10-09T10:39:27.000Z</time>
      </trkpt>
      <trkpt lat="47.49874" lon="6.77293">
        <ele>319</ele>
        <time>2016-10-09T10:39:28.000Z</time>
      </trkpt>
      <trkpt lat="47.49878" lon="6.77292">
        <ele>319</ele>
        <time>2016-10-09T10:39:29.000Z</time>
      </trkpt>
      <trkpt lat="47.49883" lon="6.7729">
        <ele>319</ele>
        <time>2016-10-09T10:39:30.000Z</time>
      </trkpt>
      <trkpt lat="47.49888" lon="6.77288">
        <ele>319</ele>
        <time>2016-10-09T10:39:31.000Z</time>
      </trkpt>
      <trkpt lat="47.49892" lon="6.77286">
        <ele>319</ele>
        <time>2016-10-09T10:39:32.000Z</time>
      </trkpt>
      <trkpt lat="47.49896" lon="6.77279">
        <ele>320</ele>
        <time>2016-10-09T10:39:33.000Z</time>
      </trkpt>
      <trkpt lat="47.49901" lon="6.77278">
        <ele>320</ele>
        <time>2016-10-09T10:39:34.000Z</time>
      </trkpt>
      <trkpt lat="47.49904" lon="6.77273">
        <ele>321</ele>
        <time>2016-10-09T10:39:35.000Z</time>
      </trkpt>
      <trkpt lat="47.49909" lon="6.77269">
        <ele>321</ele>
        <time>2016-10-09T10:39:36.000Z</time>
      </trkpt>
      <trkpt lat="47.49913" lon="6.77265">
        <ele>322</ele>
        <time>2016-10-09T10:39:37.000Z</time>
      </trkpt>
      <trkpt lat="47.49917" lon="6.77264">
        <ele>321</ele>
        <time>2016-10-09T10:39:38.000Z</time>
      </trkpt>
      <trkpt lat="47.49921" lon="6.7726">
        <ele>322</ele>
        <time>2016-10-09T10:39:39.000Z</time>
      </trkpt>
      <trkpt lat="47.49926" lon="6.77256">
        <ele>322</ele>
        <time>2016-10-09T10:39:40.000Z</time>
      </trkpt>
      <trkpt lat="47.49929" lon="6.77252">
        <ele>321</ele>
        <time>2016-10-09T10:39:41.000Z</time>
      </trkpt>
      <trkpt lat="47.49933" lon="6.7725">
        <ele>329</ele>
        <time>2016-10-09T10:39:42.000Z</time>
      </trkpt>
      <trkpt lat="47.49937" lon="6.77247">
        <ele>329</ele>
        <time>2016-10-09T10:39:43.000Z</time>
      </trkpt>
      <trkpt lat="47.49942" lon="6.77243">
        <ele>330</ele>
        <time>2016-10-09T10:39:44.000Z</time>
      </trkpt>
      <trkpt lat="47.49948" lon="6.77242">
        <ele>330</ele>
        <time>2016-10-09T10:39:45.000Z</time>
      </trkpt>
      <trkpt lat="47.49952" lon="6.77239">
        <ele>330</ele>
        <time>2016-10-09T10:39:46.000Z</time>
      </trkpt>
      <trkpt lat="47.49957" lon="6.77237">
        <ele>330</ele>
        <time>2016-10-09T10:39:47.000Z</time>
      </trkpt>
      <trkpt lat="47.49962" lon="6.77234">
        <ele>330</ele>
        <time>2016-10-09T10:39:48.000Z</time>
      </trkpt>
      <trkpt lat="47.49966" lon="6.7723">
        <ele>330</ele>
        <time>2016-10-09T10:39:49.000Z</time>
      </trkpt>
      <trkpt lat="47.49972" lon="6.77229">
        <ele>330</ele>
        <time>2016-10-09T10:39:50.000Z</time>
      </trkpt>
      <trkpt lat="47.49978" lon="6.77225">
        <ele>330</ele>
        <time>2016-10-09T10:39:51.000Z</time>
      </trkpt>
      <trkpt lat="47.49983" lon="6.77222">
        <ele>330</ele>
        <time>2016-10-09T10:39:52.000Z</time>
      </trkpt>
      <trkpt lat="47.49988" lon="6.7722">
        <ele>331</ele>
        <time>2016-10-09T10:39:53.000Z</time>
      </trkpt>
      <trkpt lat="47.49993" lon="6.77218">
        <ele>331</ele>
        <time>2016-10-09T10:39:54.000Z</time>
      </trkpt>
      <trkpt lat="47.49997" lon="6.77214">
        <ele>332</ele>
        <time>2016-10-09T10:39:55.000Z</time>
      </trkpt>
      <trkpt lat="47.50002" lon="6.77211">
        <ele>330</ele>
        <time>2016-10-09T10:39:56.000Z</time>
      </trkpt>
      <trkpt lat="47.50005" lon="6.7721">
        <ele>331</ele>
        <time>2016-10-09T10:39:57.000Z</time>
      </trkpt>
      <trkpt lat="47.50009" lon="6.77209">
        <ele>331</ele>
        <time>2016-10-09T10:39:58.000Z</time>
      </trkpt>
      <trkpt lat="47.50013" lon="6.77208">
        <ele>331</ele>
        <time>2016-10-09T10:39:59.000Z</time>
      </trkpt>
      <trkpt lat="47.50017" lon="6.77209">
        <ele>331</ele>
        <time>2016-10-09T10:40:00.000Z</time>
      </trkpt>
      <trkpt lat="47.50022" lon="6.77207">
        <ele>331</ele>
        <time>2016-10-09T10:40:01.000Z</time>
      </trkpt>
      <trkpt lat="47.50026" lon="6.77205">
        <ele>331</ele>
        <time>2016-10-09T10:40:02.000Z</time>
      </trkpt>
      <trkpt lat="47.5003" lon="6.77204">
        <ele>331</ele>
        <time>2016-10-09T10:40:03.000Z</time>
      </trkpt>
      <trkpt lat="47.50035" lon="6.77202">
        <ele>331</ele>
        <time>2016-10-09T10:40:04.000Z</time>
      </trkpt>
      <trkpt lat="47.50041" lon="6.772">
        <ele>331</ele>
        <time>2016-10-09T10:40:05.000Z</time>
      </trkpt>
      <trkpt lat="47.50046" lon="6.77199">
        <ele>331</ele>
        <time>2016-10-09T10:40:06.000Z</time>
      </trkpt>
      <trkpt lat="47.50051" lon="6.77197">
        <ele>332</ele>
        <time>2016-10-09T10:40:07.000Z</time>
      </trkpt>
      <trkpt lat="47.50055" lon="6.77194">
        <ele>332</ele>
        <time>2016-10-09T10:40:08.000Z</time>
      </trkpt>
      <trkpt lat="47.5006" lon="6.77192">
        <ele>332</ele>
        <time>2016-10-09T10:40:09.000Z</time>
      </trkpt>
      <trkpt lat="47.50064" lon="6.7719">
        <ele>333</ele>
        <time>2016-10-09T10:40:10.000Z</time>
      </trkpt>
      <trkpt lat="47.50069" lon="6.77188">
        <ele>333</ele>
        <time>2016-10-09T10:40:11.000Z</time>
      </trkpt>
      <trkpt lat="47.50073" lon="6.77186">
        <ele>334</ele>
        <time>2016-10-09T10:40:12.000Z</time>
      </trkpt>
      <trkpt lat="47.50078" lon="6.77185">
        <ele>334</ele>
        <time>2016-10-09T10:40:13.000Z</time>
      </trkpt>
      <trkpt lat="47.50082" lon="6.77185">
        <ele>335</ele>
        <time>2016-10-09T10:40:14.000Z</time>
      </trkpt>
      <trkpt lat="47.50087" lon="6.77183">
        <ele>331</ele>
        <time>2016-10-09T10:40:15.000Z</time>
      </trkpt>
      <trkpt lat="47.50091" lon="6.77183">
        <ele>331</ele>
        <time>2016-10-09T10:40:16.000Z</time>
      </trkpt>
      <trkpt lat="47.50095" lon="6.77182">
        <ele>330</ele>
        <time>2016-10-09T10:40:17.000Z</time>
      </trkpt>
      <trkpt lat="47.50099" lon="6.77183">
        <ele>329</ele>
        <time>2016-10-09T10:40:18.000Z</time>
      </trkpt>
      <trkpt lat="47.50103" lon="6.77183">
        <ele>329</ele>
        <time>2016-10-09T10:40:19.000Z</time>
      </trkpt>
      <trkpt lat="47.50109" lon="6.77185">
        <ele>327</ele>
        <time>2016-10-09T10:40:20.000Z</time>
      </trkpt>
      <trkpt lat="47.50114" lon="6.77187">
        <ele>326</ele>
        <time>2016-10-09T10:40:21.000Z</time>
      </trkpt>
      <trkpt lat="47.50119" lon="6.77189">
        <ele>325</ele>
        <time>2016-10-09T10:40:22.000Z</time>
      </trkpt>
      <trkpt lat="47.50125" lon="6.7719">
        <ele>325</ele>
        <time>2016-10-09T10:40:23.000Z</time>
      </trkpt>
      <trkpt lat="47.5013" lon="6.77192">
        <ele>324</ele>
        <time>2016-10-09T10:40:24.000Z</time>
      </trkpt>
      <trkpt lat="47.50135" lon="6.77194">
        <ele>324</ele>
        <time>2016-10-09T10:40:25.000Z</time>
      </trkpt>
      <trkpt lat="47.50141" lon="6.77196">
        <ele>323</ele>
        <time>2016-10-09T10:40:26.000Z</time>
      </trkpt>
      <trkpt lat="47.50146" lon="6.77199">
        <ele>323</ele>
        <time>2016-10-09T10:40:27.000Z</time>
      </trkpt>
      <trkpt lat="47.5015" lon="6.77204">
        <ele>322</ele>
        <time>2016-10-09T10:40:28.000Z</time>
      </trkpt>
      <trkpt lat="47.50154" lon="6.77208">
        <ele>321</ele>
        <time>2016-10-09T10:40:29.000Z</time>
      </trkpt>
      <trkpt lat="47.50158" lon="6.77213">
        <ele>321</ele>
        <time>2016-10-09T10:40:30.000Z</time>
      </trkpt>
      <trkpt lat="47.50162" lon="6.77217">
        <ele>320</ele>
        <time>2016-10-09T10:40:31.000Z</time>
      </trkpt>
      <trkpt lat="47.50166" lon="6.7722">
        <ele>320</ele>
        <time>2016-10-09T10:40:32.000Z</time>
      </trkpt>
      <trkpt lat="47.5017" lon="6.77224">
        <ele>316</ele>
        <time>2016-10-09T10:40:33.000Z</time>
      </trkpt>
      <trkpt lat="47.50174" lon="6.77228">
        <ele>316</ele>
        <time>2016-10-09T10:40:34.000Z</time>
      </trkpt>
      <trkpt lat="47.50178" lon="6.77232">
        <ele>316</ele>
        <time>2016-10-09T10:40:35.000Z</time>
      </trkpt>
      <trkpt lat="47.50182" lon="6.77235">
        <ele>316</ele>
        <time>2016-10-09T10:40:36.000Z</time>
      </trkpt>
      <trkpt lat="47.50187" lon="6.7724">
        <ele>315</ele>
        <time>2016-10-09T10:40:37.000Z</time>
      </trkpt>
      <trkpt lat="47.50191" lon="6.77244">
        <ele>316</ele>
        <time>2016-10-09T10:40:38.000Z</time>
      </trkpt>
      <trkpt lat="47.50195" lon="6.77247">
        <ele>316</ele>
        <time>2016-10-09T10:40:39.000Z</time>
      </trkpt>
      <trkpt lat="47.50199" lon="6.77251">
        <ele>313</ele>
        <time>2016-10-09T10:40:40.000Z</time>
      </trkpt>
      <trkpt lat="47.50203" lon="6.77255">
        <ele>313</ele>
        <time>2016-10-09T10:40:41.000Z</time>
      </trkpt>
      <trkpt lat="47.50208" lon="6.77259">
        <ele>313</ele>
        <time>2016-10-09T10:40:42.000Z</time>
      </trkpt>
      <trkpt lat="47.50212" lon="6.77262">
        <ele>313</ele>
        <time>2016-10-09T10:40:43.000Z</time>
      </trkpt>
      <trkpt lat="47.50216" lon="6.77266">
        <ele>313</ele>
        <time>2016-10-09T10:40:44.000Z</time>
      </trkpt>
      <trkpt lat="47.50221" lon="6.77268">
        <ele>313</ele>
        <time>2016-10-09T10:40:45.000Z</time>
      </trkpt>
      <trkpt lat="47.50225" lon="6.77271">
        <ele>313</ele>
        <time>2016-10-09T10:40:46.000Z</time>
      </trkpt>
      <trkpt lat="47.5023" lon="6.77274">
        <ele>313</ele>
        <time>2016-10-09T10:40:47.000Z</time>
      </trkpt>
      <trkpt lat="47.50234" lon="6.77277">
        <ele>313</ele>
        <time>2016-10-09T10:40:48.000Z</time>
      </trkpt>
      <trkpt lat="47.50238" lon="6.7728">
        <ele>313</ele>
        <time>2016-10-09T10:40:49.000Z</time>
      </trkpt>
      <trkpt lat="47.50242" lon="6.77283">
        <ele>313</ele>
        <time>2016-10-09T10:40:50.000Z</time>
      </trkpt>
      <trkpt lat="47.50246" lon="6.77285">
        <ele>313</ele>
        <time>2016-10-09T10:40:51.000Z</time>
      </trkpt>
      <trkpt lat="47.50251" lon="6.77287">
        <ele>313</ele>
        <time>2016-10-09T10:40:52.000Z</time>
      </trkpt>
      <trkpt lat="47.50254" lon="6.77291">
        <ele>313</ele>
        <time>2016-10-09T10:40:53.000Z</time>
      </trkpt>
      <trkpt lat="47.50259" lon="6.77293">
        <ele>313</ele>
        <time>2016-10-09T10:40:54.000Z</time>
      </trkpt>
      <trkpt lat="47.50263" lon="6.77295">
        <ele>313</ele>
        <time>2016-10-09T10:40:55.000Z</time>
      </trkpt>
      <trkpt lat="47.50267" lon="6.77298">
        <ele>313</ele>
        <time>2016-10-09T10:40:56.000Z</time>
      </trkpt>
      <trkpt lat="47.50271" lon="6.773">
        <ele>313</ele>
        <time>2016-10-09T10:40:57.000Z</time>
      </trkpt>
      <trkpt lat="47.50274" lon="6.77303">
        <ele>313</ele>
        <time>2016-10-09T10:40:58.000Z</time>
      </trkpt>
      <trkpt lat="47.50279" lon="6.77306">
        <ele>313</ele>
        <time>2016-10-09T10:40:59.000Z</time>
      </trkpt>
      <trkpt lat="47.50283" lon="6.77309">
        <ele>313</ele>
        <time>2016-10-09T10:41:00.000Z</time>
      </trkpt>
      <trkpt lat="47.50288" lon="6.77312">
        <ele>313</ele>
        <time>2016-10-09T10:41:01.000Z</time>
      </trkpt>
      <trkpt lat="47.50292" lon="6.77315">
        <ele>313</ele>
        <time>2016-10-09T10:41:02.000Z</time>
      </trkpt>
      <trkpt lat="47.50296" lon="6.77318">
        <ele>313</ele>
        <time>2016-10-09T10:41:03.000Z</time>
      </trkpt>
      <trkpt lat="47.503" lon="6.77321">
        <ele>312</ele>
        <time>2016-10-09T10:41:04.000Z</time>
      </trkpt>
      <trkpt lat="47.50304" lon="6.77325">
        <ele>312</ele>
        <time>2016-10-09T10:41:05.000Z</time>
      </trkpt>
      <trkpt lat="47.50308" lon="6.77329">
        <ele>312</ele>
        <time>2016-10-09T10:41:06.000Z</time>
      </trkpt>
      <trkpt lat="47.50312" lon="6.77333">
        <ele>312</ele>
        <time>2016-10-09T10:41:07.000Z</time>
      </trkpt>
      <trkpt lat="47.50317" lon="6.77336">
        <ele>312</ele>
        <time>2016-10-09T10:41:08.000Z</time>
      </trkpt>
      <trkpt lat="47.50321" lon="6.77339">
        <ele>312</ele>
        <time>2016-10-09T10:41:09.000Z</time>
      </trkpt>
      <trkpt lat="47.50325" lon="6.77342">
        <ele>312</ele>
        <time>2016-10-09T10:41:10.000Z</time>
      </trkpt>
      <trkpt lat="47.5033" lon="6.77346">
        <ele>312</ele>
        <time>2016-10-09T10:41:11.000Z</time>
      </trkpt>
      <trkpt lat="47.50334" lon="6.77349">
        <ele>312</ele>
        <time>2016-10-09T10:41:12.000Z</time>
      </trkpt>
      <trkpt lat="47.50338" lon="6.77352">
        <ele>312</ele>
        <time>2016-10-09T10:41:13.000Z</time>
      </trkpt>
      <trkpt lat="47.50343" lon="6.77355">
        <ele>312</ele>
        <time>2016-10-09T10:41:14.000Z</time>
      </trkpt>
      <trkpt lat="47.50347" lon="6.77358">
        <ele>312</ele>
        <time>2016-10-09T10:41:15.000Z</time>
      </trkpt>
      <trkpt lat="47.50351" lon="6.77362">
        <ele>312</ele>
        <time>2016-10-09T10:41:16.000Z</time>
      </trkpt>
      <trkpt lat="47.50356" lon="6.77366">
        <ele>312</ele>
        <time>2016-10-09T10:41:17.000Z</time>
      </trkpt>
      <trkpt lat="47.5036" lon="6.77369">
        <ele>312</ele>
        <time>2016-10-09T10:41:18.000Z</time>
      </trkpt>
      <trkpt lat="47.50365" lon="6.77372">
        <ele>312</ele>
        <time>2016-10-09T10:41:19.000Z</time>
      </trkpt>
      <trkpt lat="47.50369" lon="6.77375">
        <ele>312</ele>
        <time>2016-10-09T10:41:20.000Z</time>
      </trkpt>
      <trkpt lat="47.50373" lon="6.77379">
        <ele>312</ele>
        <time>2016-10-09T10:41:21.000Z</time>
      </trkpt>
      <trkpt lat="47.50377" lon="6.77383">
        <ele>312</ele>
        <time>2016-10-09T10:41:22.000Z</time>
      </trkpt>
      <trkpt lat="47.50382" lon="6.77386">
        <ele>312</ele>
        <time>2016-10-09T10:41:23.000Z</time>
      </trkpt>
      <trkpt lat="47.50386" lon="6.7739">
        <ele>312</ele>
        <time>2016-10-09T10:41:24.000Z</time>
      </trkpt>
      <trkpt lat="47.5039" lon="6.77393">
        <ele>312</ele>
        <time>2016-10-09T10:41:25.000Z</time>
      </trkpt>
      <trkpt lat="47.50394" lon="6.77396">
        <ele>312</ele>
        <time>2016-10-09T10:41:26.000Z</time>
      </trkpt>
      <trkpt lat="47.50398" lon="6.77399">
        <ele>312</ele>
        <time>2016-10-09T10:41:27.000Z</time>
      </trkpt>
      <trkpt lat="47.50402" lon="6.77403">
        <ele>312</ele>
        <time>2016-10-09T10:41:28.000Z</time>
      </trkpt>
      <trkpt lat="47.50406" lon="6.77406">
        <ele>311</ele>
        <time>2016-10-09T10:41:29.000Z</time>
      </trkpt>
      <trkpt lat="47.5041" lon="6.7741">
        <ele>311</ele>
        <time>2016-10-09T10:41:30.000Z</time>
      </trkpt>
      <trkpt lat="47.50414" lon="6.77413">
        <ele>311</ele>
        <time>2016-10-09T10:41:31.000Z</time>
      </trkpt>
      <trkpt lat="47.50418" lon="6.77417">
        <ele>311</ele>
        <time>2016-10-09T10:41:32.000Z</time>
      </trkpt>
      <trkpt lat="47.50423" lon="6.77421">
        <ele>311</ele>
        <time>2016-10-09T10:41:33.000Z</time>
      </trkpt>
      <trkpt lat="47.50427" lon="6.77425">
        <ele>312</ele>
        <time>2016-10-09T10:41:34.000Z</time>
      </trkpt>
      <trkpt lat="47.50431" lon="6.77429">
        <ele>312</ele>
        <time>2016-10-09T10:41:35.000Z</time>
      </trkpt>
      <trkpt lat="47.50435" lon="6.77432">
        <ele>312</ele>
        <time>2016-10-09T10:41:36.000Z</time>
      </trkpt>
      <trkpt lat="47.50439" lon="6.77436">
        <ele>312</ele>
        <time>2016-10-09T10:41:37.000Z</time>
      </trkpt>
      <trkpt lat="47.50443" lon="6.7744">
        <ele>312</ele>
        <time>2016-10-09T10:41:38.000Z</time>
      </trkpt>
      <trkpt lat="47.50448" lon="6.77444">
        <ele>312</ele>
        <time>2016-10-09T10:41:39.000Z</time>
      </trkpt>
      <trkpt lat="47.50452" lon="6.77448">
        <ele>312</ele>
        <time>2016-10-09T10:41:40.000Z</time>
      </trkpt>
      <trkpt lat="47.50456" lon="6.77453">
        <ele>312</ele>
        <time>2016-10-09T10:41:41.000Z</time>
      </trkpt>
      <trkpt lat="47.5046" lon="6.77457">
        <ele>313</ele>
        <time>2016-10-09T10:41:42.000Z</time>
      </trkpt>
      <trkpt lat="47.50464" lon="6.7746">
        <ele>313</ele>
        <time>2016-10-09T10:41:43.000Z</time>
      </trkpt>
      <trkpt lat="47.50469" lon="6.77463">
        <ele>313</ele>
        <time>2016-10-09T10:41:44.000Z</time>
      </trkpt>
      <trkpt lat="47.50473" lon="6.77466">
        <ele>313</ele>
        <time>2016-10-09T10:41:45.000Z</time>
      </trkpt>
      <trkpt lat="47.50476" lon="6.7747">
        <ele>313</ele>
        <time>2016-10-09T10:41:46.000Z</time>
      </trkpt>
      <trkpt lat="47.5048" lon="6.77472">
        <ele>313</ele>
        <time>2016-10-09T10:41:47.000Z</time>
      </trkpt>
      <trkpt lat="47.50483" lon="6.77476">
        <ele>313</ele>
        <time>2016-10-09T10:41:48.000Z</time>
      </trkpt>
      <trkpt lat="47.50486" lon="6.77479">
        <ele>313</ele>
        <time>2016-10-09T10:41:49.000Z</time>
      </trkpt>
      <trkpt lat="47.50491" lon="6.77482">
        <ele>313</ele>
        <time>2016-10-09T10:41:50.000Z</time>
      </trkpt>
      <trkpt lat="47.50495" lon="6.77485">
        <ele>313</ele>
        <time>2016-10-09T10:41:51.000Z</time>
      </trkpt>
      <trkpt lat="47.50499" lon="6.77488">
        <ele>313</ele>
        <time>2016-10-09T10:41:52.000Z</time>
      </trkpt>
      <trkpt lat="47.50504" lon="6.77491">
        <ele>314</ele>
        <time>2016-10-09T10:41:53.000Z</time>
      </trkpt>
      <trkpt lat="47.50509" lon="6.77495">
        <ele>314</ele>
        <time>2016-10-09T10:41:54.000Z</time>
      </trkpt>
      <trkpt lat="47.50513" lon="6.77497">
        <ele>314</ele>
        <time>2016-10-09T10:41:55.000Z</time>
      </trkpt>
      <trkpt lat="47.50516" lon="6.77497">
        <ele>314</ele>
        <time>2016-10-09T10:41:56.000Z</time>
      </trkpt>
      <trkpt lat="47.5052" lon="6.775">
        <ele>314</ele>
        <time>2016-10-09T10:41:57.000Z</time>
      </trkpt>
      <trkpt lat="47.50524" lon="6.77502">
        <ele>314</ele>
        <time>2016-10-09T10:41:58.000Z</time>
      </trkpt>
      <trkpt lat="47.50528" lon="6.77505">
        <ele>314</ele>
        <time>2016-10-09T10:41:59.000Z</time>
      </trkpt>
      <trkpt lat="47.50531" lon="6.77507">
        <ele>314</ele>
        <time>2016-10-09T10:42:00.000Z</time>
      </trkpt>
      <trkpt lat="47.50536" lon="6.7751">
        <ele>313</ele>
        <time>2016-10-09T10:42:01.000Z</time>
      </trkpt>
      <trkpt lat="47.5054" lon="6.77511">
        <ele>313</ele>
        <time>2016-10-09T10:42:02.000Z</time>
      </trkpt>
      <trkpt lat="47.50545" lon="6.77513">
        <ele>313</ele>
        <time>2016-10-09T10:42:03.000Z</time>
      </trkpt>
      <trkpt lat="47.50548" lon="6.77517">
        <ele>313</ele>
        <time>2016-10-09T10:42:04.000Z</time>
      </trkpt>
      <trkpt lat="47.50548" lon="6.77523">
        <ele>313</ele>
        <time>2016-10-09T10:42:05.000Z</time>
      </trkpt>
      <trkpt lat="47.50551" lon="6.77529">
        <ele>313</ele>
        <time>2016-10-09T10:42:06.000Z</time>
      </trkpt>
      <trkpt lat="47.50554" lon="6.77535">
        <ele>313</ele>
        <time>2016-10-09T10:42:07.000Z</time>
      </trkpt>
      <trkpt lat="47.50556" lon="6.77538">
        <ele>313</ele>
        <time>2016-10-09T10:42:08.000Z</time>
      </trkpt>
      <trkpt lat="47.50562" lon="6.77539">
        <ele>313</ele>
        <time>2016-10-09T10:42:09.000Z</time>
      </trkpt>
      <trkpt lat="47.50566" lon="6.77541">
        <ele>313</ele>
        <time>2016-10-09T10:42:10.000Z</time>
      </trkpt>
      <trkpt lat="47.50569" lon="6.77541">
        <ele>313</ele>
        <time>2016-10-09T10:42:11.000Z</time>
      </trkpt>
      <trkpt lat="47.50572" lon="6.77539">
        <ele>313</ele>
        <time>2016-10-09T10:42:12.000Z</time>
      </trkpt>
      <trkpt lat="47.50575" lon="6.77536">
        <ele>313</ele>
        <time>2016-10-09T10:42:13.000Z</time>
      </trkpt>
      <trkpt lat="47.50578" lon="6.77532">
        <ele>313</ele>
        <time>2016-10-09T10:42:14.000Z</time>
      </trkpt>
      <trkpt lat="47.5058" lon="6.77527">
        <ele>313</ele>
        <time>2016-10-09T10:42:15.000Z</time>
      </trkpt>
      <trkpt lat="47.50583" lon="6.77523">
        <ele>314</ele>
        <time>2016-10-09T10:42:16.000Z</time>
      </trkpt>
      <trkpt lat="47.50585" lon="6.77521">
        <ele>313</ele>
        <time>2016-10-09T10:42:17.000Z</time>
      </trkpt>
      <trkpt lat="47.50588" lon="6.77519">
        <ele>313</ele>
        <time>2016-10-09T10:42:18.000Z</time>
      </trkpt>
      <trkpt lat="47.50592" lon="6.77518">
        <ele>313</ele>
        <time>2016-10-09T10:42:19.000Z</time>
      </trkpt>
      <trkpt lat="47.50596" lon="6.77518">
        <ele>313</ele>
        <time>2016-10-09T10:42:20.000Z</time>
      </trkpt>
      <trkpt lat="47.506" lon="6.77517">
        <ele>313</ele>
        <time>2016-10-09T10:42:21.000Z</time>
      </trkpt>
      <trkpt lat="47.50604" lon="6.77516">
        <ele>313</ele>
        <time>2016-10-09T10:42:22.000Z</time>
      </trkpt>
      <trkpt lat="47.50608" lon="6.77515">
        <ele>313</ele>
        <time>2016-10-09T10:42:23.000Z</time>
      </trkpt>
      <trkpt lat="47.50613" lon="6.77513">
        <ele>313</ele>
        <time>2016-10-09T10:42:24.000Z</time>
      </trkpt>
      <trkpt lat="47.50618" lon="6.77512">
        <ele>313</ele>
        <time>2016-10-09T10:42:25.000Z</time>
      </trkpt>
      <trkpt lat="47.50622" lon="6.77511">
        <ele>313</ele>
        <time>2016-10-09T10:42:26.000Z</time>
      </trkpt>
      <trkpt lat="47.50627" lon="6.77511">
        <ele>313</ele>
        <time>2016-10-09T10:42:27.000Z</time>
      </trkpt>
      <trkpt lat="47.50632" lon="6.77512">
        <ele>313</ele>
        <time>2016-10-09T10:42:28.000Z</time>
      </trkpt>
      <trkpt lat="47.50637" lon="6.77514">
        <ele>313</ele>
        <time>2016-10-09T10:42:29.000Z</time>
      </trkpt>
      <trkpt lat="47.50642" lon="6.77517">
        <ele>313</ele>
        <time>2016-10-09T10:42:30.000Z</time>
      </trkpt>
      <trkpt lat="47.50646" lon="6.77519">
        <ele>313</ele>
        <time>2016-10-09T10:42:31.000Z</time>
      </trkpt>
      <trkpt lat="47.50651" lon="6.77522">
        <ele>313</ele>
        <time>2016-10-09T10:42:32.000Z</time>
      </trkpt>
      <trkpt lat="47.50655" lon="6.77525">
        <ele>313</ele>
        <time>2016-10-09T10:42:33.000Z</time>
      </trkpt>
      <trkpt lat="47.50658" lon="6.77527">
        <ele>313</ele>
        <time>2016-10-09T10:42:34.000Z</time>
      </trkpt>
      <trkpt lat="47.50662" lon="6.77529">
        <ele>313</ele>
        <time>2016-10-09T10:42:35.000Z</time>
      </trkpt>
      <trkpt lat="47.50665" lon="6.77528">
        <ele>313</ele>
        <time>2016-10-09T10:42:36.000Z</time>
      </trkpt>
      <trkpt lat="47.50668" lon="6.77527">
        <ele>313</ele>
        <time>2016-10-09T10:42:37.000Z</time>
      </trkpt>
      <trkpt lat="47.50672" lon="6.77524">
        <ele>313</ele>
        <time>2016-10-09T10:42:38.000Z</time>
      </trkpt>
      <trkpt lat="47.50681" lon="6.7752">
        <ele>313</ele>
        <time>2016-10-09T10:42:39.000Z</time>
      </trkpt>
      <trkpt lat="47.50687" lon="6.77522">
        <ele>313</ele>
        <time>2016-10-09T10:42:40.000Z</time>
      </trkpt>
      <trkpt lat="47.50692" lon="6.77522">
        <ele>313</ele>
        <time>2016-10-09T10:42:41.000Z</time>
      </trkpt>
      <trkpt lat="47.50696" lon="6.77521">
        <ele>313</ele>
        <time>2016-10-09T10:42:42.000Z</time>
      </trkpt>
      <trkpt lat="47.50702" lon="6.77522">
        <ele>313</ele>
        <time>2016-10-09T10:42:43.000Z</time>
      </trkpt>
      <trkpt lat="47.50707" lon="6.77523">
        <ele>313</ele>
        <time>2016-10-09T10:42:44.000Z</time>
      </trkpt>
      <trkpt lat="47.50711" lon="6.77524">
        <ele>313</ele>
        <time>2016-10-09T10:42:45.000Z</time>
      </trkpt>
      <trkpt lat="47.50716" lon="6.77525">
        <ele>313</ele>
        <time>2016-10-09T10:42:46.000Z</time>
      </trkpt>
      <trkpt lat="47.5072" lon="6.77527">
        <ele>313</ele>
        <time>2016-10-09T10:42:47.000Z</time>
      </trkpt>
      <trkpt lat="47.50725" lon="6.77528">
        <ele>313</ele>
        <time>2016-10-09T10:42:48.000Z</time>
      </trkpt>
      <trkpt lat="47.50729" lon="6.77532">
        <ele>313</ele>
        <time>2016-10-09T10:42:49.000Z</time>
      </trkpt>
      <trkpt lat="47.50732" lon="6.77535">
        <ele>313</ele>
        <time>2016-10-09T10:42:50.000Z</time>
      </trkpt>
      <trkpt lat="47.50736" lon="6.77538">
        <ele>313</ele>
        <time>2016-10-09T10:42:51.000Z</time>
      </trkpt>
      <trkpt lat="47.5074" lon="6.77541">
        <ele>313</ele>
        <time>2016-10-09T10:42:52.000Z</time>
      </trkpt>
      <trkpt lat="47.50744" lon="6.77546">
        <ele>313</ele>
        <time>2016-10-09T10:42:53.000Z</time>
      </trkpt>
      <trkpt lat="47.50747" lon="6.77551">
        <ele>313</ele>
        <time>2016-10-09T10:42:54.000Z</time>
      </trkpt>
      <trkpt lat="47.5075" lon="6.77555">
        <ele>314</ele>
        <time>2016-10-09T10:42:55.000Z</time>
      </trkpt>
      <trkpt lat="47.50753" lon="6.77558">
        <ele>314</ele>
        <time>2016-10-09T10:42:56.000Z</time>
      </trkpt>
      <trkpt lat="47.50757" lon="6.77558">
        <ele>314</ele>
        <time>2016-10-09T10:42:57.000Z</time>
      </trkpt>
      <trkpt lat="47.50761" lon="6.7756">
        <ele>314</ele>
        <time>2016-10-09T10:42:58.000Z</time>
      </trkpt>
      <trkpt lat="47.50765" lon="6.77562">
        <ele>314</ele>
        <time>2016-10-09T10:42:59.000Z</time>
      </trkpt>
      <trkpt lat="47.50769" lon="6.77566">
        <ele>314</ele>
        <time>2016-10-09T10:43:00.000Z</time>
      </trkpt>
      <trkpt lat="47.50772" lon="6.77569">
        <ele>314</ele>
        <time>2016-10-09T10:43:01.000Z</time>
      </trkpt>
      <trkpt lat="47.50776" lon="6.77572">
        <ele>314</ele>
        <time>2016-10-09T10:43:02.000Z</time>
      </trkpt>
      <trkpt lat="47.50779" lon="6.77575">
        <ele>314</ele>
        <time>2016-10-09T10:43:03.000Z</time>
      </trkpt>
      <trkpt lat="47.50787" lon="6.77574">
        <ele>315</ele>
        <time>2016-10-09T10:43:04.000Z</time>
      </trkpt>
      <trkpt lat="47.50791" lon="6.77576">
        <ele>315</ele>
        <time>2016-10-09T10:43:05.000Z</time>
      </trkpt>
      <trkpt lat="47.50796" lon="6.77579">
        <ele>315</ele>
        <time>2016-10-09T10:43:06.000Z</time>
      </trkpt>
      <trkpt lat="47.50801" lon="6.77581">
        <ele>315</ele>
        <time>2016-10-09T10:43:07.000Z</time>
      </trkpt>
      <trkpt lat="47.50806" lon="6.77584">
        <ele>316</ele>
        <time>2016-10-09T10:43:08.000Z</time>
      </trkpt>
      <trkpt lat="47.5081" lon="6.77587">
        <ele>316</ele>
        <time>2016-10-09T10:43:09.000Z</time>
      </trkpt>
      <trkpt lat="47.50814" lon="6.77592">
        <ele>316</ele>
        <time>2016-10-09T10:43:10.000Z</time>
      </trkpt>
      <trkpt lat="47.5082" lon="6.77594">
        <ele>316</ele>
        <time>2016-10-09T10:43:11.000Z</time>
      </trkpt>
      <trkpt lat="47.50821" lon="6.77597">
        <ele>316</ele>
        <time>2016-10-09T10:43:12.000Z</time>
      </trkpt>
      <trkpt lat="47.50823" lon="6.77607">
        <ele>316</ele>
        <time>2016-10-09T10:43:13.000Z</time>
      </trkpt>
      <trkpt lat="47.50826" lon="6.7761">
        <ele>316</ele>
        <time>2016-10-09T10:43:14.000Z</time>
      </trkpt>
      <trkpt lat="47.5083" lon="6.77619">
        <ele>316</ele>
        <time>2016-10-09T10:43:15.000Z</time>
      </trkpt>
      <trkpt lat="47.50836" lon="6.77624">
        <ele>317</ele>
        <time>2016-10-09T10:43:16.000Z</time>
      </trkpt>
      <trkpt lat="47.5084" lon="6.77627">
        <ele>317</ele>
        <time>2016-10-09T10:43:17.000Z</time>
      </trkpt>
      <trkpt lat="47.50842" lon="6.77628">
        <ele>317</ele>
        <time>2016-10-09T10:43:18.000Z</time>
      </trkpt>
      <trkpt lat="47.50846" lon="6.7763">
        <ele>316</ele>
        <time>2016-10-09T10:43:19.000Z</time>
      </trkpt>
      <trkpt lat="47.50848" lon="6.77635">
        <ele>316</ele>
        <time>2016-10-09T10:43:20.000Z</time>
      </trkpt>
      <trkpt lat="47.50851" lon="6.77638">
        <ele>316</ele>
        <time>2016-10-09T10:43:21.000Z</time>
      </trkpt>
      <trkpt lat="47.50854" lon="6.77642">
        <ele>316</ele>
        <time>2016-10-09T10:43:22.000Z</time>
      </trkpt>
      <trkpt lat="47.50856" lon="6.77646">
        <ele>316</ele>
        <time>2016-10-09T10:43:23.000Z</time>
      </trkpt>
      <trkpt lat="47.50859" lon="6.77649">
        <ele>316</ele>
        <time>2016-10-09T10:43:24.000Z</time>
      </trkpt>
      <trkpt lat="47.50861" lon="6.77653">
        <ele>316</ele>
        <time>2016-10-09T10:43:25.000Z</time>
      </trkpt>
      <trkpt lat="47.50863" lon="6.77656">
        <ele>316</ele>
        <time>2016-10-09T10:43:26.000Z</time>
      </trkpt>
      <trkpt lat="47.50865" lon="6.77659">
        <ele>316</ele>
        <time>2016-10-09T10:43:27.000Z</time>
      </trkpt>
      <trkpt lat="47.50868" lon="6.77663">
        <ele>316</ele>
        <time>2016-10-09T10:43:28.000Z</time>
      </trkpt>
      <trkpt lat="47.50871" lon="6.77666">
        <ele>316</ele>
        <time>2016-10-09T10:43:29.000Z</time>
      </trkpt>
      <trkpt lat="47.50873" lon="6.77669">
        <ele>316</ele>
        <time>2016-10-09T10:43:30.000Z</time>
      </trkpt>
      <trkpt lat="47.50876" lon="6.77673">
        <ele>316</ele>
        <time>2016-10-09T10:43:31.000Z</time>
      </trkpt>
      <trkpt lat="47.50878" lon="6.77675">
        <ele>316</ele>
        <time>2016-10-09T10:43:32.000Z</time>
      </trkpt>
      <trkpt lat="47.5088" lon="6.77676">
        <ele>316</ele>
        <time>2016-10-09T10:43:33.000Z</time>
      </trkpt>
      <trkpt lat="47.50882" lon="6.77676">
        <ele>316</ele>
        <time>2016-10-09T10:43:34.000Z</time>
      </trkpt>
      <trkpt lat="47.50885" lon="6.77676">
        <ele>316</ele>
        <time>2016-10-09T10:43:35.000Z</time>
      </trkpt>
      <trkpt lat="47.50888" lon="6.77675">
        <ele>316</ele>
        <time>2016-10-09T10:43:36.000Z</time>
      </trkpt>
      <trkpt lat="47.50892" lon="6.77675">
        <ele>316</ele>
        <time>2016-10-09T10:43:37.000Z</time>
      </trkpt>
      <trkpt lat="47.50895" lon="6.77676">
        <ele>316</ele>
        <time>2016-10-09T10:43:38.000Z</time>
      </trkpt>
      <trkpt lat="47.50899" lon="6.77676">
        <ele>316</ele>
        <time>2016-10-09T10:43:39.000Z</time>
      </trkpt>
      <trkpt lat="47.50902" lon="6.77676">
        <ele>316</ele>
        <time>2016-10-09T10:43:40.000Z</time>
      </trkpt>
      <trkpt lat="47.50906" lon="6.77676">
        <ele>316</ele>
        <time>2016-10-09T10:43:41.000Z</time>
      </trkpt>
      <trkpt lat="47.5091" lon="6.77677">
        <ele>316</ele>
        <time>2016-10-09T10:43:42.000Z</time>
      </trkpt>
      <trkpt lat="47.50915" lon="6.77679">
        <ele>316</ele>
        <time>2016-10-09T10:43:43.000Z</time>
      </trkpt>
      <trkpt lat="47.50919" lon="6.77681">
        <ele>316</ele>
        <time>2016-10-09T10:43:44.000Z</time>
      </trkpt>
      <trkpt lat="47.50924" lon="6.77683">
        <ele>316</ele>
        <time>2016-10-09T10:43:45.000Z</time>
      </trkpt>
      <trkpt lat="47.50927" lon="6.77685">
        <ele>316</ele>
        <time>2016-10-09T10:43:46.000Z</time>
      </trkpt>
      <trkpt lat="47.50931" lon="6.77686">
        <ele>315</ele>
        <time>2016-10-09T10:43:47.000Z</time>
      </trkpt>
      <trkpt lat="47.50934" lon="6.77686">
        <ele>315</ele>
        <time>2016-10-09T10:43:48.000Z</time>
      </trkpt>
      <trkpt lat="47.50937" lon="6.77686">
        <ele>315</ele>
        <time>2016-10-09T10:43:49.000Z</time>
      </trkpt>
      <trkpt lat="47.50941" lon="6.77688">
        <ele>315</ele>
        <time>2016-10-09T10:43:53.000Z</time>
      </trkpt>
      <trkpt lat="47.50942" lon="6.77688">
        <ele>315</ele>
        <time>2016-10-09T10:43:54.000Z</time>
      </trkpt>
      <trkpt lat="47.50944" lon="6.77688">
        <ele>315</ele>
        <time>2016-10-09T10:43:56.000Z</time>
      </trkpt>
      <trkpt lat="47.50946" lon="6.77687">
        <ele>315</ele>
        <time>2016-10-09T10:43:57.000Z</time>
      </trkpt>
      <trkpt lat="47.50949" lon="6.77685">
        <ele>315</ele>
        <time>2016-10-09T10:43:58.000Z</time>
      </trkpt>
      <trkpt lat="47.50952" lon="6.77684">
        <ele>315</ele>
        <time>2016-10-09T10:43:59.000Z</time>
      </trkpt>
      <trkpt lat="47.50955" lon="6.77682">
        <ele>315</ele>
        <time>2016-10-09T10:44:00.000Z</time>
      </trkpt>
      <trkpt lat="47.50958" lon="6.77681">
        <ele>315</ele>
        <time>2016-10-09T10:44:01.000Z</time>
      </trkpt>
      <trkpt lat="47.50962" lon="6.77682">
        <ele>315</ele>
        <time>2016-10-09T10:44:02.000Z</time>
      </trkpt>
      <trkpt lat="47.50966" lon="6.77684">
        <ele>315</ele>
        <time>2016-10-09T10:44:03.000Z</time>
      </trkpt>
      <trkpt lat="47.50971" lon="6.77687">
        <ele>315</ele>
        <time>2016-10-09T10:44:04.000Z</time>
      </trkpt>
      <trkpt lat="47.50975" lon="6.7769">
        <ele>315</ele>
        <time>2016-10-09T10:44:05.000Z</time>
      </trkpt>
      <trkpt lat="47.50978" lon="6.77694">
        <ele>315</ele>
        <time>2016-10-09T10:44:06.000Z</time>
      </trkpt>
      <trkpt lat="47.50982" lon="6.77696">
        <ele>315</ele>
        <time>2016-10-09T10:44:07.000Z</time>
      </trkpt>
      <trkpt lat="47.50986" lon="6.77699">
        <ele>315</ele>
        <time>2016-10-09T10:44:08.000Z</time>
      </trkpt>
      <trkpt lat="47.5099" lon="6.77701">
        <ele>315</ele>
        <time>2016-10-09T10:44:09.000Z</time>
      </trkpt>
      <trkpt lat="47.50994" lon="6.77703">
        <ele>315</ele>
        <time>2016-10-09T10:44:10.000Z</time>
      </trkpt>
      <trkpt lat="47.50998" lon="6.77705">
        <ele>315</ele>
        <time>2016-10-09T10:44:11.000Z</time>
      </trkpt>
      <trkpt lat="47.51002" lon="6.77707">
        <ele>316</ele>
        <time>2016-10-09T10:44:12.000Z</time>
      </trkpt>
      <trkpt lat="47.51005" lon="6.77709">
        <ele>316</ele>
        <time>2016-10-09T10:44:13.000Z</time>
      </trkpt>
      <trkpt lat="47.51009" lon="6.7771">
        <ele>316</ele>
        <time>2016-10-09T10:44:14.000Z</time>
      </trkpt>
      <trkpt lat="47.51012" lon="6.77712">
        <ele>316</ele>
        <time>2016-10-09T10:44:15.000Z</time>
      </trkpt>
      <trkpt lat="47.51015" lon="6.77715">
        <ele>317</ele>
        <time>2016-10-09T10:44:16.000Z</time>
      </trkpt>
      <trkpt lat="47.51017" lon="6.77718">
        <ele>317</ele>
        <time>2016-10-09T10:44:17.000Z</time>
      </trkpt>
      <trkpt lat="47.51019" lon="6.77722">
        <ele>317</ele>
        <time>2016-10-09T10:44:18.000Z</time>
      </trkpt>
      <trkpt lat="47.5102" lon="6.77725">
        <ele>317</ele>
        <time>2016-10-09T10:44:19.000Z</time>
      </trkpt>
      <trkpt lat="47.51021" lon="6.77728">
        <ele>317</ele>
        <time>2016-10-09T10:44:20.000Z</time>
      </trkpt>
      <trkpt lat="47.51023" lon="6.77731">
        <ele>317</ele>
        <time>2016-10-09T10:44:21.000Z</time>
      </trkpt>
      <trkpt lat="47.51025" lon="6.77735">
        <ele>317</ele>
        <time>2016-10-09T10:44:23.000Z</time>
      </trkpt>
      <trkpt lat="47.51027" lon="6.77735">
        <ele>317</ele>
        <time>2016-10-09T10:44:24.000Z</time>
      </trkpt>
      <trkpt lat="47.5103" lon="6.77736">
        <ele>317</ele>
        <time>2016-10-09T10:44:27.000Z</time>
      </trkpt>
      <trkpt lat="47.51031" lon="6.77738">
        <ele>317</ele>
        <time>2016-10-09T10:44:28.000Z</time>
      </trkpt>
      <trkpt lat="47.51034" lon="6.77742">
        <ele>317</ele>
        <time>2016-10-09T10:44:30.000Z</time>
      </trkpt>
      <trkpt lat="47.51036" lon="6.77745">
        <ele>317</ele>
        <time>2016-10-09T10:44:31.000Z</time>
      </trkpt>
      <trkpt lat="47.51038" lon="6.77748">
        <ele>317</ele>
        <time>2016-10-09T10:44:32.000Z</time>
      </trkpt>
      <trkpt lat="47.51042" lon="6.77751">
        <ele>318</ele>
        <time>2016-10-09T10:44:33.000Z</time>
      </trkpt>
      <trkpt lat="47.51053" lon="6.77757">
        <ele>318</ele>
        <time>2016-10-09T10:44:34.000Z</time>
      </trkpt>
      <trkpt lat="47.51057" lon="6.77757">
        <ele>318</ele>
        <time>2016-10-09T10:44:35.000Z</time>
      </trkpt>
      <trkpt lat="47.51063" lon="6.77759">
        <ele>319</ele>
        <time>2016-10-09T10:44:36.000Z</time>
      </trkpt>
      <trkpt lat="47.51068" lon="6.7776">
        <ele>319</ele>
        <time>2016-10-09T10:44:37.000Z</time>
      </trkpt>
      <trkpt lat="47.51072" lon="6.77762">
        <ele>319</ele>
        <time>2016-10-09T10:44:38.000Z</time>
      </trkpt>
      <trkpt lat="47.51076" lon="6.77763">
        <ele>319</ele>
        <time>2016-10-09T10:44:39.000Z</time>
      </trkpt>
      <trkpt lat="47.5108" lon="6.77765">
        <ele>319</ele>
        <time>2016-10-09T10:44:40.000Z</time>
      </trkpt>
      <trkpt lat="47.51085" lon="6.77767">
        <ele>321</ele>
        <time>2016-10-09T10:44:41.000Z</time>
      </trkpt>
      <trkpt lat="47.51089" lon="6.77768">
        <ele>321</ele>
        <time>2016-10-09T10:44:42.000Z</time>
      </trkpt>
      <trkpt lat="47.51093" lon="6.7777">
        <ele>321</ele>
        <time>2016-10-09T10:44:43.000Z</time>
      </trkpt>
      <trkpt lat="47.51098" lon="6.77771">
        <ele>321</ele>
        <time>2016-10-09T10:44:44.000Z</time>
      </trkpt>
      <trkpt lat="47.51101" lon="6.7777">
        <ele>321</ele>
        <time>2016-10-09T10:44:45.000Z</time>
      </trkpt>
      <trkpt lat="47.51105" lon="6.77771">
        <ele>322</ele>
        <time>2016-10-09T10:44:46.000Z</time>
      </trkpt>
      <trkpt lat="47.51109" lon="6.77773">
        <ele>322</ele>
        <time>2016-10-09T10:44:47.000Z</time>
      </trkpt>
      <trkpt lat="47.51113" lon="6.77775">
        <ele>322</ele>
        <time>2016-10-09T10:44:48.000Z</time>
      </trkpt>
      <trkpt lat="47.51117" lon="6.77776">
        <ele>322</ele>
        <time>2016-10-09T10:44:49.000Z</time>
      </trkpt>
      <trkpt lat="47.51121" lon="6.77776">
        <ele>322</ele>
        <time>2016-10-09T10:44:50.000Z</time>
      </trkpt>
      <trkpt lat="47.51125" lon="6.77777">
        <ele>322</ele>
        <time>2016-10-09T10:44:51.000Z</time>
      </trkpt>
      <trkpt lat="47.51128" lon="6.77777">
        <ele>322</ele>
        <time>2016-10-09T10:44:52.000Z</time>
      </trkpt>
      <trkpt lat="47.51132" lon="6.77777">
        <ele>322</ele>
        <time>2016-10-09T10:44:53.000Z</time>
      </trkpt>
      <trkpt lat="47.51135" lon="6.77777">
        <ele>322</ele>
        <time>2016-10-09T10:44:54.000Z</time>
      </trkpt>
      <trkpt lat="47.51138" lon="6.77777">
        <ele>323</ele>
        <time>2016-10-09T10:44:55.000Z</time>
      </trkpt>
      <trkpt lat="47.51141" lon="6.77777">
        <ele>323</ele>
        <time>2016-10-09T10:44:56.000Z</time>
      </trkpt>
      <trkpt lat="47.51144" lon="6.77776">
        <ele>323</ele>
        <time>2016-10-09T10:44:57.000Z</time>
      </trkpt>
      <trkpt lat="47.51147" lon="6.77775">
        <ele>323</ele>
        <time>2016-10-09T10:44:58.000Z</time>
      </trkpt>
      <trkpt lat="47.51149" lon="6.77774">
        <ele>323</ele>
        <time>2016-10-09T10:44:59.000Z</time>
      </trkpt>
      <trkpt lat="47.51152" lon="6.77773">
        <ele>323</ele>
        <time>2016-10-09T10:45:00.000Z</time>
      </trkpt>
      <trkpt lat="47.51155" lon="6.77773">
        <ele>323</ele>
        <time>2016-10-09T10:45:01.000Z</time>
      </trkpt>
      <trkpt lat="47.51158" lon="6.77773">
        <ele>323</ele>
        <time>2016-10-09T10:45:02.000Z</time>
      </trkpt>
      <trkpt lat="47.51161" lon="6.77772">
        <ele>323</ele>
        <time>2016-10-09T10:45:03.000Z</time>
      </trkpt>
      <trkpt lat="47.51164" lon="6.77772">
        <ele>323</ele>
        <time>2016-10-09T10:45:04.000Z</time>
      </trkpt>
      <trkpt lat="47.51167" lon="6.77773">
        <ele>323</ele>
        <time>2016-10-09T10:45:05.000Z</time>
      </trkpt>
      <trkpt lat="47.5117" lon="6.77773">
        <ele>326</ele>
        <time>2016-10-09T10:45:06.000Z</time>
      </trkpt>
      <trkpt lat="47.51173" lon="6.77774">
        <ele>326</ele>
        <time>2016-10-09T10:45:07.000Z</time>
      </trkpt>
      <trkpt lat="47.51175" lon="6.77775">
        <ele>326</ele>
        <time>2016-10-09T10:45:08.000Z</time>
      </trkpt>
      <trkpt lat="47.51178" lon="6.77775">
        <ele>326</ele>
        <time>2016-10-09T10:45:09.000Z</time>
      </trkpt>
      <trkpt lat="47.51181" lon="6.77776">
        <ele>326</ele>
        <time>2016-10-09T10:45:10.000Z</time>
      </trkpt>
      <trkpt lat="47.51183" lon="6.77777">
        <ele>326</ele>
        <time>2016-10-09T10:45:11.000Z</time>
      </trkpt>
      <trkpt lat="47.51186" lon="6.77777">
        <ele>326</ele>
        <time>2016-10-09T10:45:12.000Z</time>
      </trkpt>
      <trkpt lat="47.51189" lon="6.77778">
        <ele>326</ele>
        <time>2016-10-09T10:45:13.000Z</time>
      </trkpt>
      <trkpt lat="47.51192" lon="6.77778">
        <ele>326</ele>
        <time>2016-10-09T10:45:14.000Z</time>
      </trkpt>
      <trkpt lat="47.51195" lon="6.77779">
        <ele>326</ele>
        <time>2016-10-09T10:45:15.000Z</time>
      </trkpt>
      <trkpt lat="47.51198" lon="6.77779">
        <ele>327</ele>
        <time>2016-10-09T10:45:16.000Z</time>
      </trkpt>
      <trkpt lat="47.512" lon="6.7778">
        <ele>327</ele>
        <time>2016-10-09T10:45:17.000Z</time>
      </trkpt>
      <trkpt lat="47.51204" lon="6.77781">
        <ele>327</ele>
        <time>2016-10-09T10:45:19.000Z</time>
      </trkpt>
      <trkpt lat="47.51206" lon="6.77782">
        <ele>327</ele>
        <time>2016-10-09T10:45:20.000Z</time>
      </trkpt>
      <trkpt lat="47.5121" lon="6.77783">
        <ele>327</ele>
        <time>2016-10-09T10:45:22.000Z</time>
      </trkpt>
      <trkpt lat="47.51212" lon="6.77783">
        <ele>327</ele>
        <time>2016-10-09T10:45:23.000Z</time>
      </trkpt>
      <trkpt lat="47.51216" lon="6.77784">
        <ele>327</ele>
        <time>2016-10-09T10:45:25.000Z</time>
      </trkpt>
      <trkpt lat="47.51218" lon="6.77784">
        <ele>327</ele>
        <time>2016-10-09T10:45:26.000Z</time>
      </trkpt>
      <trkpt lat="47.51221" lon="6.77783">
        <ele>327</ele>
        <time>2016-10-09T10:45:27.000Z</time>
      </trkpt>
      <trkpt lat="47.51223" lon="6.77782">
        <ele>327</ele>
        <time>2016-10-09T10:45:28.000Z</time>
      </trkpt>
      <trkpt lat="47.51226" lon="6.7778">
        <ele>327</ele>
        <time>2016-10-09T10:45:29.000Z</time>
      </trkpt>
      <trkpt lat="47.51228" lon="6.77779">
        <ele>328</ele>
        <time>2016-10-09T10:45:30.000Z</time>
      </trkpt>
      <trkpt lat="47.5123" lon="6.77778">
        <ele>328</ele>
        <time>2016-10-09T10:45:31.000Z</time>
      </trkpt>
      <trkpt lat="47.51233" lon="6.77776">
        <ele>328</ele>
        <time>2016-10-09T10:45:32.000Z</time>
      </trkpt>
      <trkpt lat="47.51237" lon="6.77775">
        <ele>328</ele>
        <time>2016-10-09T10:45:34.000Z</time>
      </trkpt>
      <trkpt lat="47.51239" lon="6.77775">
        <ele>328</ele>
        <time>2016-10-09T10:45:35.000Z</time>
      </trkpt>
      <trkpt lat="47.51241" lon="6.77776">
        <ele>328</ele>
        <time>2016-10-09T10:45:36.000Z</time>
      </trkpt>
      <trkpt lat="47.51243" lon="6.77776">
        <ele>328</ele>
        <time>2016-10-09T10:45:37.000Z</time>
      </trkpt>
      <trkpt lat="47.51246" lon="6.77777">
        <ele>328</ele>
        <time>2016-10-09T10:45:38.000Z</time>
      </trkpt>
      <trkpt lat="47.51249" lon="6.77777">
        <ele>328</ele>
        <time>2016-10-09T10:45:39.000Z</time>
      </trkpt>
      <trkpt lat="47.51253" lon="6.77777">
        <ele>333</ele>
        <time>2016-10-09T10:45:41.000Z</time>
      </trkpt>
      <trkpt lat="47.51254" lon="6.77776">
        <ele>333</ele>
        <time>2016-10-09T10:45:42.000Z</time>
      </trkpt>
      <trkpt lat="47.51258" lon="6.77775">
        <ele>333</ele>
        <time>2016-10-09T10:45:44.000Z</time>
      </trkpt>
      <trkpt lat="47.5126" lon="6.77774">
        <ele>333</ele>
        <time>2016-10-09T10:45:45.000Z</time>
      </trkpt>
      <trkpt lat="47.51265" lon="6.77773">
        <ele>334</ele>
        <time>2016-10-09T10:45:47.000Z</time>
      </trkpt>
      <trkpt lat="47.51266" lon="6.77772">
        <ele>334</ele>
        <time>2016-10-09T10:45:48.000Z</time>
      </trkpt>
      <trkpt lat="47.51269" lon="6.77772">
        <ele>334</ele>
        <time>2016-10-09T10:45:50.000Z</time>
      </trkpt>
      <trkpt lat="47.51271" lon="6.77772">
        <ele>334</ele>
        <time>2016-10-09T10:45:51.000Z</time>
      </trkpt>
      <trkpt lat="47.51275" lon="6.77772">
        <ele>335</ele>
        <time>2016-10-09T10:45:53.000Z</time>
      </trkpt>
      <trkpt lat="47.51277" lon="6.77772">
        <ele>335</ele>
        <time>2016-10-09T10:45:54.000Z</time>
      </trkpt>
      <trkpt lat="47.51281" lon="6.77771">
        <ele>335</ele>
        <time>2016-10-09T10:45:56.000Z</time>
      </trkpt>
      <trkpt lat="47.51283" lon="6.77771">
        <ele>335</ele>
        <time>2016-10-09T10:45:57.000Z</time>
      </trkpt>
      <trkpt lat="47.51286" lon="6.7777">
        <ele>336</ele>
        <time>2016-10-09T10:45:59.000Z</time>
      </trkpt>
      <trkpt lat="47.51288" lon="6.7777">
        <ele>336</ele>
        <time>2016-10-09T10:46:00.000Z</time>
      </trkpt>
      <trkpt lat="47.51291" lon="6.7777">
        <ele>336</ele>
        <time>2016-10-09T10:46:01.000Z</time>
      </trkpt>
      <trkpt lat="47.51293" lon="6.7777">
        <ele>336</ele>
        <time>2016-10-09T10:46:02.000Z</time>
      </trkpt>
      <trkpt lat="47.51295" lon="6.77769">
        <ele>337</ele>
        <time>2016-10-09T10:46:03.000Z</time>
      </trkpt>
      <trkpt lat="47.51298" lon="6.77769">
        <ele>337</ele>
        <time>2016-10-09T10:46:04.000Z</time>
      </trkpt>
      <trkpt lat="47.513" lon="6.77769">
        <ele>337</ele>
        <time>2016-10-09T10:46:05.000Z</time>
      </trkpt>
      <trkpt lat="47.51302" lon="6.77768">
        <ele>337</ele>
        <time>2016-10-09T10:46:06.000Z</time>
      </trkpt>
      <trkpt lat="47.51305" lon="6.77767">
        <ele>338</ele>
        <time>2016-10-09T10:46:07.000Z</time>
      </trkpt>
      <trkpt lat="47.51307" lon="6.77767">
        <ele>338</ele>
        <time>2016-10-09T10:46:08.000Z</time>
      </trkpt>
      <trkpt lat="47.51311" lon="6.77766">
        <ele>338</ele>
        <time>2016-10-09T10:46:10.000Z</time>
      </trkpt>
      <trkpt lat="47.51313" lon="6.77765">
        <ele>338</ele>
        <time>2016-10-09T10:46:11.000Z</time>
      </trkpt>
      <trkpt lat="47.51316" lon="6.77764">
        <ele>339</ele>
        <time>2016-10-09T10:46:13.000Z</time>
      </trkpt>
      <trkpt lat="47.51318" lon="6.77763">
        <ele>339</ele>
        <time>2016-10-09T10:46:14.000Z</time>
      </trkpt>
      <trkpt lat="47.51322" lon="6.77764">
        <ele>340</ele>
        <time>2016-10-09T10:46:16.000Z</time>
      </trkpt>
      <trkpt lat="47.51324" lon="6.77764">
        <ele>340</ele>
        <time>2016-10-09T10:46:17.000Z</time>
      </trkpt>
      <trkpt lat="47.51327" lon="6.77766">
        <ele>340</ele>
        <time>2016-10-09T10:46:19.000Z</time>
      </trkpt>
      <trkpt lat="47.51328" lon="6.77767">
        <ele>340</ele>
        <time>2016-10-09T10:46:20.000Z</time>
      </trkpt>
      <trkpt lat="47.51331" lon="6.7777">
        <ele>340</ele>
        <time>2016-10-09T10:46:22.000Z</time>
      </trkpt>
      <trkpt lat="47.51333" lon="6.77771">
        <ele>340</ele>
        <time>2016-10-09T10:46:23.000Z</time>
      </trkpt>
      <trkpt lat="47.51336" lon="6.77771">
        <ele>347</ele>
        <time>2016-10-09T10:46:25.000Z</time>
      </trkpt>
      <trkpt lat="47.51337" lon="6.77771">
        <ele>347</ele>
        <time>2016-10-09T10:46:26.000Z</time>
      </trkpt>
      <trkpt lat="47.51341" lon="6.77769">
        <ele>347</ele>
        <time>2016-10-09T10:46:28.000Z</time>
      </trkpt>
      <trkpt lat="47.51343" lon="6.77767">
        <ele>347</ele>
        <time>2016-10-09T10:46:29.000Z</time>
      </trkpt>
      <trkpt lat="47.51347" lon="6.77764">
        <ele>347</ele>
        <time>2016-10-09T10:46:31.000Z</time>
      </trkpt>
      <trkpt lat="47.51349" lon="6.77763">
        <ele>348</ele>
        <time>2016-10-09T10:46:32.000Z</time>
      </trkpt>
      <trkpt lat="47.51352" lon="6.77762">
        <ele>348</ele>
        <time>2016-10-09T10:46:34.000Z</time>
      </trkpt>
      <trkpt lat="47.51354" lon="6.77761">
        <ele>348</ele>
        <time>2016-10-09T10:46:35.000Z</time>
      </trkpt>
      <trkpt lat="47.51357" lon="6.77759">
        <ele>349</ele>
        <time>2016-10-09T10:46:37.000Z</time>
      </trkpt>
      <trkpt lat="47.51359" lon="6.77758">
        <ele>349</ele>
        <time>2016-10-09T10:46:38.000Z</time>
      </trkpt>
      <trkpt lat="47.51363" lon="6.77755">
        <ele>349</ele>
        <time>2016-10-09T10:46:40.000Z</time>
      </trkpt>
      <trkpt lat="47.51364" lon="6.77754">
        <ele>349</ele>
        <time>2016-10-09T10:46:41.000Z</time>
      </trkpt>
      <trkpt lat="47.51367" lon="6.77751">
        <ele>350</ele>
        <time>2016-10-09T10:46:43.000Z</time>
      </trkpt>
      <trkpt lat="47.51368" lon="6.7775">
        <ele>352</ele>
        <time>2016-10-09T10:46:44.000Z</time>
      </trkpt>
      <trkpt lat="47.51371" lon="6.77748">
        <ele>353</ele>
        <time>2016-10-09T10:46:46.000Z</time>
      </trkpt>
      <trkpt lat="47.51373" lon="6.77747">
        <ele>353</ele>
        <time>2016-10-09T10:46:47.000Z</time>
      </trkpt>
      <trkpt lat="47.51377" lon="6.77745">
        <ele>354</ele>
        <time>2016-10-09T10:46:49.000Z</time>
      </trkpt>
      <trkpt lat="47.51379" lon="6.77744">
        <ele>354</ele>
        <time>2016-10-09T10:46:50.000Z</time>
      </trkpt>
      <trkpt lat="47.51382" lon="6.77741">
        <ele>354</ele>
        <time>2016-10-09T10:46:52.000Z</time>
      </trkpt>
      <trkpt lat="47.51384" lon="6.77741">
        <ele>355</ele>
        <time>2016-10-09T10:46:53.000Z</time>
      </trkpt>
      <trkpt lat="47.51387" lon="6.77739">
        <ele>355</ele>
        <time>2016-10-09T10:46:56.000Z</time>
      </trkpt>
      <trkpt lat="47.51389" lon="6.77738">
        <ele>355</ele>
        <time>2016-10-09T10:46:57.000Z</time>
      </trkpt>
      <trkpt lat="47.51392" lon="6.77737">
        <ele>355</ele>
        <time>2016-10-09T10:46:59.000Z</time>
      </trkpt>
      <trkpt lat="47.51394" lon="6.77738">
        <ele>356</ele>
        <time>2016-10-09T10:47:00.000Z</time>
      </trkpt>
      <trkpt lat="47.51398" lon="6.77738">
        <ele>356</ele>
        <time>2016-10-09T10:47:02.000Z</time>
      </trkpt>
      <trkpt lat="47.51399" lon="6.77738">
        <ele>356</ele>
        <time>2016-10-09T10:47:03.000Z</time>
      </trkpt>
      <trkpt lat="47.51403" lon="6.77736">
        <ele>356</ele>
        <time>2016-10-09T10:47:07.000Z</time>
      </trkpt>
      <trkpt lat="47.51405" lon="6.77735">
        <ele>356</ele>
        <time>2016-10-09T10:47:08.000Z</time>
      </trkpt>
      <trkpt lat="47.51408" lon="6.77732">
        <ele>356</ele>
        <time>2016-10-09T10:47:11.000Z</time>
      </trkpt>
      <trkpt lat="47.51409" lon="6.77731">
        <ele>356</ele>
        <time>2016-10-09T10:47:12.000Z</time>
      </trkpt>
      <trkpt lat="47.51413" lon="6.77728">
        <ele>357</ele>
        <time>2016-10-09T10:47:16.000Z</time>
      </trkpt>
      <trkpt lat="47.51414" lon="6.77727">
        <ele>357</ele>
        <time>2016-10-09T10:47:17.000Z</time>
      </trkpt>
      <trkpt lat="47.51418" lon="6.77725">
        <ele>363</ele>
        <time>2016-10-09T10:47:19.000Z</time>
      </trkpt>
      <trkpt lat="47.51419" lon="6.77724">
        <ele>363</ele>
        <time>2016-10-09T10:47:20.000Z</time>
      </trkpt>
      <trkpt lat="47.51424" lon="6.77723">
        <ele>363</ele>
        <time>2016-10-09T10:47:22.000Z</time>
      </trkpt>
      <trkpt lat="47.51425" lon="6.77723">
        <ele>364</ele>
        <time>2016-10-09T10:47:23.000Z</time>
      </trkpt>
      <trkpt lat="47.51429" lon="6.77722">
        <ele>364</ele>
        <time>2016-10-09T10:47:25.000Z</time>
      </trkpt>
      <trkpt lat="47.51431" lon="6.77722">
        <ele>364</ele>
        <time>2016-10-09T10:47:26.000Z</time>
      </trkpt>
      <trkpt lat="47.51435" lon="6.77721">
        <ele>364</ele>
        <time>2016-10-09T10:47:28.000Z</time>
      </trkpt>
      <trkpt lat="47.51436" lon="6.77721">
        <ele>364</ele>
        <time>2016-10-09T10:47:29.000Z</time>
      </trkpt>
      <trkpt lat="47.5144" lon="6.77722">
        <ele>365</ele>
        <time>2016-10-09T10:47:31.000Z</time>
      </trkpt>
      <trkpt lat="47.51442" lon="6.77723">
        <ele>365</ele>
        <time>2016-10-09T10:47:32.000Z</time>
      </trkpt>
      <trkpt lat="47.51445" lon="6.77725">
        <ele>365</ele>
        <time>2016-10-09T10:47:34.000Z</time>
      </trkpt>
      <trkpt lat="47.51446" lon="6.77726">
        <ele>365</ele>
        <time>2016-10-09T10:47:35.000Z</time>
      </trkpt>
      <trkpt lat="47.51449" lon="6.77726">
        <ele>365</ele>
        <time>2016-10-09T10:47:37.000Z</time>
      </trkpt>
      <trkpt lat="47.51451" lon="6.77725">
        <ele>365</ele>
        <time>2016-10-09T10:47:38.000Z</time>
      </trkpt>
      <trkpt lat="47.51455" lon="6.77722">
        <ele>365</ele>
        <time>2016-10-09T10:47:40.000Z</time>
      </trkpt>
      <trkpt lat="47.51457" lon="6.77722">
        <ele>366</ele>
        <time>2016-10-09T10:47:41.000Z</time>
      </trkpt>
      <trkpt lat="47.51461" lon="6.77721">
        <ele>366</ele>
        <time>2016-10-09T10:47:43.000Z</time>
      </trkpt>
      <trkpt lat="47.51463" lon="6.77722">
        <ele>366</ele>
        <time>2016-10-09T10:47:44.000Z</time>
      </trkpt>
      <trkpt lat="47.51466" lon="6.77723">
        <ele>366</ele>
        <time>2016-10-09T10:47:46.000Z</time>
      </trkpt>
      <trkpt lat="47.51468" lon="6.77723">
        <ele>366</ele>
        <time>2016-10-09T10:47:47.000Z</time>
      </trkpt>
      <trkpt lat="47.51471" lon="6.77722">
        <ele>366</ele>
        <time>2016-10-09T10:47:49.000Z</time>
      </trkpt>
      <trkpt lat="47.51473" lon="6.77721">
        <ele>366</ele>
        <time>2016-10-09T10:47:50.000Z</time>
      </trkpt>
      <trkpt lat="47.51477" lon="6.77718">
        <ele>366</ele>
        <time>2016-10-09T10:47:52.000Z</time>
      </trkpt>
      <trkpt lat="47.51479" lon="6.77717">
        <ele>366</ele>
        <time>2016-10-09T10:47:53.000Z</time>
      </trkpt>
      <trkpt lat="47.51482" lon="6.77716">
        <ele>367</ele>
        <time>2016-10-09T10:47:56.000Z</time>
      </trkpt>
      <trkpt lat="47.51484" lon="6.77715">
        <ele>367</ele>
        <time>2016-10-09T10:47:57.000Z</time>
      </trkpt>
      <trkpt lat="47.51487" lon="6.77716">
        <ele>367</ele>
        <time>2016-10-09T10:47:59.000Z</time>
      </trkpt>
      <trkpt lat="47.51489" lon="6.77716">
        <ele>367</ele>
        <time>2016-10-09T10:48:00.000Z</time>
      </trkpt>
      <trkpt lat="47.51492" lon="6.77715">
        <ele>367</ele>
        <time>2016-10-09T10:48:02.000Z</time>
      </trkpt>
      <trkpt lat="47.51494" lon="6.77714">
        <ele>367</ele>
        <time>2016-10-09T10:48:03.000Z</time>
      </trkpt>
      <trkpt lat="47.51497" lon="6.77712">
        <ele>367</ele>
        <time>2016-10-09T10:48:06.000Z</time>
      </trkpt>
      <trkpt lat="47.51498" lon="6.77711">
        <ele>367</ele>
        <time>2016-10-09T10:48:07.000Z</time>
      </trkpt>
      <trkpt lat="47.51501" lon="6.77711">
        <ele>372</ele>
        <time>2016-10-09T10:48:09.000Z</time>
      </trkpt>
      <trkpt lat="47.51503" lon="6.77711">
        <ele>372</ele>
        <time>2016-10-09T10:48:10.000Z</time>
      </trkpt>
      <trkpt lat="47.51507" lon="6.77711">
        <ele>372</ele>
        <time>2016-10-09T10:48:12.000Z</time>
      </trkpt>
      <trkpt lat="47.51508" lon="6.77711">
        <ele>372</ele>
        <time>2016-10-09T10:48:13.000Z</time>
      </trkpt>
      <trkpt lat="47.51513" lon="6.77712">
        <ele>372</ele>
        <time>2016-10-09T10:48:16.000Z</time>
      </trkpt>
      <trkpt lat="47.51514" lon="6.77712">
        <ele>372</ele>
        <time>2016-10-09T10:48:17.000Z</time>
      </trkpt>
      <trkpt lat="47.51518" lon="6.77712">
        <ele>372</ele>
        <time>2016-10-09T10:48:20.000Z</time>
      </trkpt>
      <trkpt lat="47.51519" lon="6.77712">
        <ele>372</ele>
        <time>2016-10-09T10:48:21.000Z</time>
      </trkpt>
      <trkpt lat="47.51523" lon="6.77712">
        <ele>373</ele>
        <time>2016-10-09T10:48:23.000Z</time>
      </trkpt>
      <trkpt lat="47.51524" lon="6.77712">
        <ele>373</ele>
        <time>2016-10-09T10:48:24.000Z</time>
      </trkpt>
      <trkpt lat="47.51528" lon="6.77712">
        <ele>373</ele>
        <time>2016-10-09T10:48:26.000Z</time>
      </trkpt>
      <trkpt lat="47.5153" lon="6.77711">
        <ele>373</ele>
        <time>2016-10-09T10:48:27.000Z</time>
      </trkpt>
      <trkpt lat="47.51534" lon="6.77711">
        <ele>373</ele>
        <time>2016-10-09T10:48:29.000Z</time>
      </trkpt>
      <trkpt lat="47.51536" lon="6.77711">
        <ele>373</ele>
        <time>2016-10-09T10:48:30.000Z</time>
      </trkpt>
      <trkpt lat="47.5154" lon="6.77711">
        <ele>374</ele>
        <time>2016-10-09T10:48:32.000Z</time>
      </trkpt>
      <trkpt lat="47.51541" lon="6.77711">
        <ele>374</ele>
        <time>2016-10-09T10:48:33.000Z</time>
      </trkpt>
      <trkpt lat="47.51545" lon="6.7771">
        <ele>374</ele>
        <time>2016-10-09T10:48:35.000Z</time>
      </trkpt>
      <trkpt lat="47.51546" lon="6.7771">
        <ele>374</ele>
        <time>2016-10-09T10:48:36.000Z</time>
      </trkpt>
      <trkpt lat="47.5155" lon="6.77711">
        <ele>374</ele>
        <time>2016-10-09T10:48:38.000Z</time>
      </trkpt>
      <trkpt lat="47.51552" lon="6.77713">
        <ele>374</ele>
        <time>2016-10-09T10:48:39.000Z</time>
      </trkpt>
      <trkpt lat="47.51555" lon="6.77716">
        <ele>374</ele>
        <time>2016-10-09T10:48:41.000Z</time>
      </trkpt>
      <trkpt lat="47.51556" lon="6.77717">
        <ele>374</ele>
        <time>2016-10-09T10:48:42.000Z</time>
      </trkpt>
      <trkpt lat="47.51559" lon="6.7772">
        <ele>374</ele>
        <time>2016-10-09T10:48:44.000Z</time>
      </trkpt>
      <trkpt lat="47.51561" lon="6.77721">
        <ele>374</ele>
        <time>2016-10-09T10:48:45.000Z</time>
      </trkpt>
      <trkpt lat="47.51564" lon="6.77722">
        <ele>375</ele>
        <time>2016-10-09T10:48:47.000Z</time>
      </trkpt>
      <trkpt lat="47.51566" lon="6.77722">
        <ele>375</ele>
        <time>2016-10-09T10:48:48.000Z</time>
      </trkpt>
      <trkpt lat="47.5157" lon="6.77721">
        <ele>375</ele>
        <time>2016-10-09T10:48:50.000Z</time>
      </trkpt>
      <trkpt lat="47.51571" lon="6.77721">
        <ele>375</ele>
        <time>2016-10-09T10:48:51.000Z</time>
      </trkpt>
      <trkpt lat="47.51575" lon="6.77719">
        <ele>375</ele>
        <time>2016-10-09T10:48:54.000Z</time>
      </trkpt>
      <trkpt lat="47.51577" lon="6.77719">
        <ele>375</ele>
        <time>2016-10-09T10:48:55.000Z</time>
      </trkpt>
      <trkpt lat="47.5158" lon="6.7772">
        <ele>375</ele>
        <time>2016-10-09T10:48:58.000Z</time>
      </trkpt>
      <trkpt lat="47.51582" lon="6.77721">
        <ele>375</ele>
        <time>2016-10-09T10:48:59.000Z</time>
      </trkpt>
      <trkpt lat="47.51586" lon="6.77723">
        <ele>380</ele>
        <time>2016-10-09T10:49:01.000Z</time>
      </trkpt>
      <trkpt lat="47.51587" lon="6.77724">
        <ele>380</ele>
        <time>2016-10-09T10:49:02.000Z</time>
      </trkpt>
      <trkpt lat="47.5159" lon="6.77728">
        <ele>379</ele>
        <time>2016-10-09T10:49:08.000Z</time>
      </trkpt>
      <trkpt lat="47.51591" lon="6.77728">
        <ele>380</ele>
        <time>2016-10-09T10:49:09.000Z</time>
      </trkpt>
      <trkpt lat="47.51595" lon="6.77727">
        <ele>380</ele>
        <time>2016-10-09T10:49:11.000Z</time>
      </trkpt>
      <trkpt lat="47.51596" lon="6.77727">
        <ele>380</ele>
        <time>2016-10-09T10:49:12.000Z</time>
      </trkpt>
      <trkpt lat="47.51599" lon="6.77727">
        <ele>380</ele>
        <time>2016-10-09T10:49:14.000Z</time>
      </trkpt>
      <trkpt lat="47.51602" lon="6.77727">
        <ele>380</ele>
        <time>2016-10-09T10:49:15.000Z</time>
      </trkpt>
      <trkpt lat="47.51606" lon="6.77728">
        <ele>380</ele>
        <time>2016-10-09T10:49:20.000Z</time>
      </trkpt>
      <trkpt lat="47.51607" lon="6.77728">
        <ele>380</ele>
        <time>2016-10-09T10:49:21.000Z</time>
      </trkpt>
      <trkpt lat="47.5161" lon="6.77729">
        <ele>380</ele>
        <time>2016-10-09T10:49:23.000Z</time>
      </trkpt>
      <trkpt lat="47.51612" lon="6.77728">
        <ele>381</ele>
        <time>2016-10-09T10:49:24.000Z</time>
      </trkpt>
      <trkpt lat="47.51615" lon="6.77728">
        <ele>381</ele>
        <time>2016-10-09T10:49:25.000Z</time>
      </trkpt>
      <trkpt lat="47.51617" lon="6.77727">
        <ele>381</ele>
        <time>2016-10-09T10:49:26.000Z</time>
      </trkpt>
      <trkpt lat="47.51621" lon="6.77729">
        <ele>381</ele>
        <time>2016-10-09T10:49:28.000Z</time>
      </trkpt>
      <trkpt lat="47.51622" lon="6.7773">
        <ele>381</ele>
        <time>2016-10-09T10:49:29.000Z</time>
      </trkpt>
      <trkpt lat="47.51626" lon="6.77732">
        <ele>381</ele>
        <time>2016-10-09T10:49:31.000Z</time>
      </trkpt>
      <trkpt lat="47.51628" lon="6.77732">
        <ele>381</ele>
        <time>2016-10-09T10:49:32.000Z</time>
      </trkpt>
      <trkpt lat="47.5163" lon="6.77732">
        <ele>381</ele>
        <time>2016-10-09T10:49:33.000Z</time>
      </trkpt>
      <trkpt lat="47.51633" lon="6.77732">
        <ele>382</ele>
        <time>2016-10-09T10:49:34.000Z</time>
      </trkpt>
      <trkpt lat="47.51635" lon="6.77733">
        <ele>382</ele>
        <time>2016-10-09T10:49:35.000Z</time>
      </trkpt>
      <trkpt lat="47.51637" lon="6.77733">
        <ele>382</ele>
        <time>2016-10-09T10:49:36.000Z</time>
      </trkpt>
      <trkpt lat="47.5164" lon="6.77734">
        <ele>382</ele>
        <time>2016-10-09T10:49:37.000Z</time>
      </trkpt>
      <trkpt lat="47.51642" lon="6.77734">
        <ele>382</ele>
        <time>2016-10-09T10:49:38.000Z</time>
      </trkpt>
      <trkpt lat="47.51645" lon="6.77734">
        <ele>382</ele>
        <time>2016-10-09T10:49:39.000Z</time>
      </trkpt>
      <trkpt lat="47.51647" lon="6.77735">
        <ele>382</ele>
        <time>2016-10-09T10:49:40.000Z</time>
      </trkpt>
      <trkpt lat="47.51649" lon="6.77735">
        <ele>382</ele>
        <time>2016-10-09T10:49:41.000Z</time>
      </trkpt>
      <trkpt lat="47.51651" lon="6.77735">
        <ele>382</ele>
        <time>2016-10-09T10:49:42.000Z</time>
      </trkpt>
      <trkpt lat="47.51656" lon="6.77736">
        <ele>382</ele>
        <time>2016-10-09T10:49:44.000Z</time>
      </trkpt>
      <trkpt lat="47.51658" lon="6.77737">
        <ele>382</ele>
        <time>2016-10-09T10:49:45.000Z</time>
      </trkpt>
      <trkpt lat="47.5166" lon="6.77738">
        <ele>383</ele>
        <time>2016-10-09T10:49:46.000Z</time>
      </trkpt>
      <trkpt lat="47.51662" lon="6.77739">
        <ele>383</ele>
        <time>2016-10-09T10:49:47.000Z</time>
      </trkpt>
      <trkpt lat="47.51664" lon="6.7774">
        <ele>383</ele>
        <time>2016-10-09T10:49:48.000Z</time>
      </trkpt>
      <trkpt lat="47.51666" lon="6.77741">
        <ele>383</ele>
        <time>2016-10-09T10:49:49.000Z</time>
      </trkpt>
      <trkpt lat="47.51671" lon="6.77743">
        <ele>384</ele>
        <time>2016-10-09T10:49:51.000Z</time>
      </trkpt>
      <trkpt lat="47.51673" lon="6.77744">
        <ele>384</ele>
        <time>2016-10-09T10:49:52.000Z</time>
      </trkpt>
      <trkpt lat="47.51677" lon="6.77745">
        <ele>385</ele>
        <time>2016-10-09T10:49:54.000Z</time>
      </trkpt>
      <trkpt lat="47.51679" lon="6.77745">
        <ele>385</ele>
        <time>2016-10-09T10:49:55.000Z</time>
      </trkpt>
      <trkpt lat="47.51682" lon="6.77745">
        <ele>385</ele>
        <time>2016-10-09T10:49:57.000Z</time>
      </trkpt>
      <trkpt lat="47.51684" lon="6.77744">
        <ele>385</ele>
        <time>2016-10-09T10:49:58.000Z</time>
      </trkpt>
      <trkpt lat="47.51688" lon="6.77744">
        <ele>386</ele>
        <time>2016-10-09T10:50:00.000Z</time>
      </trkpt>
      <trkpt lat="47.5169" lon="6.77744">
        <ele>386</ele>
        <time>2016-10-09T10:50:01.000Z</time>
      </trkpt>
      <trkpt lat="47.51692" lon="6.77742">
        <ele>386</ele>
        <time>2016-10-09T10:50:03.000Z</time>
      </trkpt>
      <trkpt lat="47.51694" lon="6.7774">
        <ele>386</ele>
        <time>2016-10-09T10:50:04.000Z</time>
      </trkpt>
      <trkpt lat="47.51697" lon="6.77737">
        <ele>386</ele>
        <time>2016-10-09T10:50:06.000Z</time>
      </trkpt>
      <trkpt lat="47.51698" lon="6.77736">
        <ele>387</ele>
        <time>2016-10-09T10:50:07.000Z</time>
      </trkpt>
      <trkpt lat="47.51701" lon="6.77733">
        <ele>387</ele>
        <time>2016-10-09T10:50:09.000Z</time>
      </trkpt>
      <trkpt lat="47.51703" lon="6.77731">
        <ele>387</ele>
        <time>2016-10-09T10:50:10.000Z</time>
      </trkpt>
      <trkpt lat="47.51705" lon="6.77726">
        <ele>387</ele>
        <time>2016-10-09T10:50:12.000Z</time>
      </trkpt>
      <trkpt lat="47.51705" lon="6.77723">
        <ele>387</ele>
        <time>2016-10-09T10:50:13.000Z</time>
      </trkpt>
      <trkpt lat="47.51705" lon="6.7772">
        <ele>387</ele>
        <time>2016-10-09T10:50:14.000Z</time>
      </trkpt>
      <trkpt lat="47.51705" lon="6.77716">
        <ele>387</ele>
        <time>2016-10-09T10:50:15.000Z</time>
      </trkpt>
      <trkpt lat="47.51705" lon="6.77713">
        <ele>387</ele>
        <time>2016-10-09T10:50:16.000Z</time>
      </trkpt>
      <trkpt lat="47.51705" lon="6.77709">
        <ele>387</ele>
        <time>2016-10-09T10:50:17.000Z</time>
      </trkpt>
      <trkpt lat="47.51705" lon="6.77703">
        <ele>387</ele>
        <time>2016-10-09T10:50:19.000Z</time>
      </trkpt>
      <trkpt lat="47.51704" lon="6.777">
        <ele>388</ele>
        <time>2016-10-09T10:50:20.000Z</time>
      </trkpt>
      <trkpt lat="47.51704" lon="6.77697">
        <ele>388</ele>
        <time>2016-10-09T10:50:21.000Z</time>
      </trkpt>
      <trkpt lat="47.51704" lon="6.77693">
        <ele>388</ele>
        <time>2016-10-09T10:50:22.000Z</time>
      </trkpt>
      <trkpt lat="47.51704" lon="6.77689">
        <ele>388</ele>
        <time>2016-10-09T10:50:23.000Z</time>
      </trkpt>
      <trkpt lat="47.51704" lon="6.77685">
        <ele>388</ele>
        <time>2016-10-09T10:50:24.000Z</time>
      </trkpt>
      <trkpt lat="47.51704" lon="6.77681">
        <ele>388</ele>
        <time>2016-10-09T10:50:25.000Z</time>
      </trkpt>
      <trkpt lat="47.51704" lon="6.77678">
        <ele>388</ele>
        <time>2016-10-09T10:50:26.000Z</time>
      </trkpt>
      <trkpt lat="47.51705" lon="6.77672">
        <ele>388</ele>
        <time>2016-10-09T10:50:28.000Z</time>
      </trkpt>
      <trkpt lat="47.51705" lon="6.77669">
        <ele>388</ele>
        <time>2016-10-09T10:50:29.000Z</time>
      </trkpt>
      <trkpt lat="47.51704" lon="6.77664">
        <ele>389</ele>
        <time>2016-10-09T10:50:31.000Z</time>
      </trkpt>
      <trkpt lat="47.51702" lon="6.77662">
        <ele>389</ele>
        <time>2016-10-09T10:50:32.000Z</time>
      </trkpt>
      <trkpt lat="47.51699" lon="6.77658">
        <ele>389</ele>
        <time>2016-10-09T10:50:34.000Z</time>
      </trkpt>
      <trkpt lat="47.51698" lon="6.77656">
        <ele>389</ele>
        <time>2016-10-09T10:50:35.000Z</time>
      </trkpt>
      <trkpt lat="47.51698" lon="6.7765">
        <ele>389</ele>
        <time>2016-10-09T10:50:37.000Z</time>
      </trkpt>
      <trkpt lat="47.51699" lon="6.77646">
        <ele>389</ele>
        <time>2016-10-09T10:50:38.000Z</time>
      </trkpt>
      <trkpt lat="47.51699" lon="6.77642">
        <ele>389</ele>
        <time>2016-10-09T10:50:39.000Z</time>
      </trkpt>
      <trkpt lat="47.517" lon="6.77639">
        <ele>389</ele>
        <time>2016-10-09T10:50:40.000Z</time>
      </trkpt>
      <trkpt lat="47.51701" lon="6.77636">
        <ele>389</ele>
        <time>2016-10-09T10:50:41.000Z</time>
      </trkpt>
      <trkpt lat="47.51701" lon="6.77632">
        <ele>390</ele>
        <time>2016-10-09T10:50:42.000Z</time>
      </trkpt>
      <trkpt lat="47.51701" lon="6.77629">
        <ele>390</ele>
        <time>2016-10-09T10:50:43.000Z</time>
      </trkpt>
      <trkpt lat="47.51702" lon="6.77626">
        <ele>390</ele>
        <time>2016-10-09T10:50:44.000Z</time>
      </trkpt>
      <trkpt lat="47.51702" lon="6.77622">
        <ele>390</ele>
        <time>2016-10-09T10:50:45.000Z</time>
      </trkpt>
      <trkpt lat="47.51702" lon="6.77618">
        <ele>390</ele>
        <time>2016-10-09T10:50:46.000Z</time>
      </trkpt>
      <trkpt lat="47.51703" lon="6.77614">
        <ele>390</ele>
        <time>2016-10-09T10:50:47.000Z</time>
      </trkpt>
      <trkpt lat="47.51704" lon="6.7761">
        <ele>390</ele>
        <time>2016-10-09T10:50:48.000Z</time>
      </trkpt>
      <trkpt lat="47.51704" lon="6.77606">
        <ele>390</ele>
        <time>2016-10-09T10:50:49.000Z</time>
      </trkpt>
      <trkpt lat="47.51705" lon="6.77602">
        <ele>390</ele>
        <time>2016-10-09T10:50:50.000Z</time>
      </trkpt>
      <trkpt lat="47.51705" lon="6.77597">
        <ele>390</ele>
        <time>2016-10-09T10:50:51.000Z</time>
      </trkpt>
      <trkpt lat="47.51706" lon="6.77593">
        <ele>390</ele>
        <time>2016-10-09T10:50:52.000Z</time>
      </trkpt>
      <trkpt lat="47.51706" lon="6.77588">
        <ele>390</ele>
        <time>2016-10-09T10:50:53.000Z</time>
      </trkpt>
      <trkpt lat="47.51707" lon="6.77584">
        <ele>390</ele>
        <time>2016-10-09T10:50:54.000Z</time>
      </trkpt>
      <trkpt lat="47.51707" lon="6.77579">
        <ele>390</ele>
        <time>2016-10-09T10:50:55.000Z</time>
      </trkpt>
      <trkpt lat="47.51708" lon="6.77575">
        <ele>390</ele>
        <time>2016-10-09T10:50:56.000Z</time>
      </trkpt>
      <trkpt lat="47.51708" lon="6.77571">
        <ele>390</ele>
        <time>2016-10-09T10:50:57.000Z</time>
      </trkpt>
      <trkpt lat="47.51709" lon="6.77566">
        <ele>390</ele>
        <time>2016-10-09T10:50:58.000Z</time>
      </trkpt>
      <trkpt lat="47.51709" lon="6.77561">
        <ele>390</ele>
        <time>2016-10-09T10:50:59.000Z</time>
      </trkpt>
      <trkpt lat="47.51713" lon="6.77552">
        <ele>390</ele>
        <time>2016-10-09T10:51:00.000Z</time>
      </trkpt>
      <trkpt lat="47.51714" lon="6.77547">
        <ele>390</ele>
        <time>2016-10-09T10:51:01.000Z</time>
      </trkpt>
      <trkpt lat="47.51715" lon="6.77541">
        <ele>390</ele>
        <time>2016-10-09T10:51:02.000Z</time>
      </trkpt>
      <trkpt lat="47.51716" lon="6.77536">
        <ele>390</ele>
        <time>2016-10-09T10:51:03.000Z</time>
      </trkpt>
      <trkpt lat="47.51717" lon="6.77531">
        <ele>390</ele>
        <time>2016-10-09T10:51:04.000Z</time>
      </trkpt>
      <trkpt lat="47.51718" lon="6.77526">
        <ele>390</ele>
        <time>2016-10-09T10:51:05.000Z</time>
      </trkpt>
      <trkpt lat="47.51719" lon="6.77521">
        <ele>390</ele>
        <time>2016-10-09T10:51:06.000Z</time>
      </trkpt>
      <trkpt lat="47.5172" lon="6.77516">
        <ele>390</ele>
        <time>2016-10-09T10:51:07.000Z</time>
      </trkpt>
      <trkpt lat="47.51721" lon="6.77512">
        <ele>390</ele>
        <time>2016-10-09T10:51:08.000Z</time>
      </trkpt>
      <trkpt lat="47.51722" lon="6.77508">
        <ele>390</ele>
        <time>2016-10-09T10:51:09.000Z</time>
      </trkpt>
      <trkpt lat="47.51723" lon="6.77503">
        <ele>390</ele>
        <time>2016-10-09T10:51:10.000Z</time>
      </trkpt>
      <trkpt lat="47.51724" lon="6.77499">
        <ele>389</ele>
        <time>2016-10-09T10:51:11.000Z</time>
      </trkpt>
      <trkpt lat="47.51725" lon="6.77494">
        <ele>389</ele>
        <time>2016-10-09T10:51:12.000Z</time>
      </trkpt>
      <trkpt lat="47.51725" lon="6.7749">
        <ele>389</ele>
        <time>2016-10-09T10:51:13.000Z</time>
      </trkpt>
      <trkpt lat="47.51726" lon="6.77486">
        <ele>389</ele>
        <time>2016-10-09T10:51:14.000Z</time>
      </trkpt>
      <trkpt lat="47.51727" lon="6.77482">
        <ele>389</ele>
        <time>2016-10-09T10:51:15.000Z</time>
      </trkpt>
      <trkpt lat="47.51729" lon="6.77479">
        <ele>389</ele>
        <time>2016-10-09T10:51:16.000Z</time>
      </trkpt>
      <trkpt lat="47.51731" lon="6.77477">
        <ele>389</ele>
        <time>2016-10-09T10:51:17.000Z</time>
      </trkpt>
      <trkpt lat="47.51734" lon="6.77477">
        <ele>389</ele>
        <time>2016-10-09T10:51:18.000Z</time>
      </trkpt>
      <trkpt lat="47.51737" lon="6.77478">
        <ele>389</ele>
        <time>2016-10-09T10:51:19.000Z</time>
      </trkpt>
      <trkpt lat="47.5174" lon="6.77479">
        <ele>389</ele>
        <time>2016-10-09T10:51:20.000Z</time>
      </trkpt>
      <trkpt lat="47.51743" lon="6.7748">
        <ele>389</ele>
        <time>2016-10-09T10:51:21.000Z</time>
      </trkpt>
      <trkpt lat="47.51746" lon="6.7748">
        <ele>389</ele>
        <time>2016-10-09T10:51:22.000Z</time>
      </trkpt>
      <trkpt lat="47.51749" lon="6.7748">
        <ele>389</ele>
        <time>2016-10-09T10:51:23.000Z</time>
      </trkpt>
      <trkpt lat="47.51752" lon="6.7748">
        <ele>389</ele>
        <time>2016-10-09T10:51:24.000Z</time>
      </trkpt>
      <trkpt lat="47.51755" lon="6.7748">
        <ele>389</ele>
        <time>2016-10-09T10:51:25.000Z</time>
      </trkpt>
      <trkpt lat="47.51758" lon="6.7748">
        <ele>389</ele>
        <time>2016-10-09T10:51:26.000Z</time>
      </trkpt>
      <trkpt lat="47.5176" lon="6.7748">
        <ele>389</ele>
        <time>2016-10-09T10:51:27.000Z</time>
      </trkpt>
      <trkpt lat="47.51763" lon="6.7748">
        <ele>389</ele>
        <time>2016-10-09T10:51:28.000Z</time>
      </trkpt>
      <trkpt lat="47.51766" lon="6.7748">
        <ele>389</ele>
        <time>2016-10-09T10:51:29.000Z</time>
      </trkpt>
      <trkpt lat="47.51769" lon="6.7748">
        <ele>388</ele>
        <time>2016-10-09T10:51:30.000Z</time>
      </trkpt>
      <trkpt lat="47.51771" lon="6.77481">
        <ele>388</ele>
        <time>2016-10-09T10:51:31.000Z</time>
      </trkpt>
      <trkpt lat="47.51774" lon="6.77482">
        <ele>388</ele>
        <time>2016-10-09T10:51:32.000Z</time>
      </trkpt>
      <trkpt lat="47.51777" lon="6.77482">
        <ele>388</ele>
        <time>2016-10-09T10:51:33.000Z</time>
      </trkpt>
      <trkpt lat="47.5178" lon="6.77484">
        <ele>388</ele>
        <time>2016-10-09T10:51:34.000Z</time>
      </trkpt>
      <trkpt lat="47.51784" lon="6.77485">
        <ele>388</ele>
        <time>2016-10-09T10:51:35.000Z</time>
      </trkpt>
      <trkpt lat="47.51787" lon="6.77486">
        <ele>388</ele>
        <time>2016-10-09T10:51:36.000Z</time>
      </trkpt>
      <trkpt lat="47.51789" lon="6.77488">
        <ele>388</ele>
        <time>2016-10-09T10:51:37.000Z</time>
      </trkpt>
      <trkpt lat="47.51791" lon="6.77489">
        <ele>388</ele>
        <time>2016-10-09T10:51:38.000Z</time>
      </trkpt>
      <trkpt lat="47.51795" lon="6.77491">
        <ele>388</ele>
        <time>2016-10-09T10:51:40.000Z</time>
      </trkpt>
      <trkpt lat="47.51797" lon="6.77492">
        <ele>388</ele>
        <time>2016-10-09T10:51:41.000Z</time>
      </trkpt>
      <trkpt lat="47.518" lon="6.77493">
        <ele>388</ele>
        <time>2016-10-09T10:51:42.000Z</time>
      </trkpt>
      <trkpt lat="47.51803" lon="6.77493">
        <ele>388</ele>
        <time>2016-10-09T10:51:43.000Z</time>
      </trkpt>
      <trkpt lat="47.51806" lon="6.77492">
        <ele>388</ele>
        <time>2016-10-09T10:51:44.000Z</time>
      </trkpt>
      <trkpt lat="47.51804" lon="6.77478">
        <ele>388</ele>
        <time>2016-10-09T10:51:45.000Z</time>
      </trkpt>
      <trkpt lat="47.51804" lon="6.77472">
        <ele>388</ele>
        <time>2016-10-09T10:51:46.000Z</time>
      </trkpt>
      <trkpt lat="47.51806" lon="6.77469">
        <ele>388</ele>
        <time>2016-10-09T10:51:47.000Z</time>
      </trkpt>
      <trkpt lat="47.51807" lon="6.77464">
        <ele>388</ele>
        <time>2016-10-09T10:51:48.000Z</time>
      </trkpt>
      <trkpt lat="47.51807" lon="6.77462">
        <ele>388</ele>
        <time>2016-10-09T10:51:49.000Z</time>
      </trkpt>
      <trkpt lat="47.51803" lon="6.7746">
        <ele>388</ele>
        <time>2016-10-09T10:52:00.000Z</time>
      </trkpt>
      <trkpt lat="47.51802" lon="6.7746">
        <ele>388</ele>
        <time>2016-10-09T10:52:01.000Z</time>
      </trkpt>
      <trkpt lat="47.51806" lon="6.77463">
        <ele>388</ele>
        <time>2016-10-09T10:52:19.000Z</time>
      </trkpt>
      <trkpt lat="47.51806" lon="6.77465">
        <ele>388</ele>
        <time>2016-10-09T10:52:20.000Z</time>
      </trkpt>
      <trkpt lat="47.51806" lon="6.7747">
        <ele>388</ele>
        <time>2016-10-09T10:52:23.000Z</time>
      </trkpt>
      <trkpt lat="47.51806" lon="6.77472">
        <ele>388</ele>
        <time>2016-10-09T10:52:24.000Z</time>
      </trkpt>
      <trkpt lat="47.51807" lon="6.77478">
        <ele>388</ele>
        <time>2016-10-09T10:52:28.000Z</time>
      </trkpt>
      <trkpt lat="47.51806" lon="6.77479">
        <ele>388</ele>
        <time>2016-10-09T10:52:29.000Z</time>
      </trkpt>
      <trkpt lat="47.51803" lon="6.77475">
        <ele>388</ele>
        <time>2016-10-09T10:54:48.000Z</time>
      </trkpt>
    </trkseg>
  </trk>
</gpx>